<?xml version="1.0" encoding="UTF-8" standalone="no" ?>
<gpx xmlns="http://www.topografix.com/GPX/1/1" xmlns:xsi="http://www.w3.org/2001/XMLSchema-instance" xsi:schemaLocation="http://www.topografix.com/GPX/1/1 http://www.topografix.com/GPX/1/1/gpx.xsd" version="1.1" creator="VisuGPX - https://www.visugpx.com">
  <metadata>
    <name>Villeneuvette, Moureze, Lac du Salagou, La ramasse</name>
    <desc><![CDATA[4eme sortie moureze, le lac, la ramasse]]></desc>
  </metadata>
  <trk>
    <name><![CDATA[Villeneuvette, Moureze, Lac du Salagou, La ramasse_1]]></name>
    <trkseg>
      <trkpt lat="43.60945" lon="3.43577">
        <ele>165.5</ele>
        <time>2016-02-21T12:28:28Z</time>
      </trkpt>
      <trkpt lat="43.60947" lon="3.43576">
        <ele>165</ele>
        <time>2016-02-21T12:28:35Z</time>
      </trkpt>
      <trkpt lat="43.60946" lon="3.43575">
        <ele>165</ele>
        <time>2016-02-21T12:28:39Z</time>
      </trkpt>
      <trkpt lat="43.60946" lon="3.43575">
        <ele>164.5</ele>
        <time>2016-02-21T12:28:40Z</time>
      </trkpt>
      <trkpt lat="43.60947" lon="3.43574">
        <ele>164</ele>
        <time>2016-02-21T12:28:51Z</time>
      </trkpt>
      <trkpt lat="43.60946" lon="3.43573">
        <ele>164</ele>
        <time>2016-02-21T12:28:52Z</time>
      </trkpt>
      <trkpt lat="43.60946" lon="3.43572">
        <ele>164</ele>
        <time>2016-02-21T12:28:53Z</time>
      </trkpt>
      <trkpt lat="43.60946" lon="3.43571">
        <ele>163.5</ele>
        <time>2016-02-21T12:28:55Z</time>
      </trkpt>
      <trkpt lat="43.60947" lon="3.43571">
        <ele>162.5</ele>
        <time>2016-02-21T12:29:08Z</time>
      </trkpt>
      <trkpt lat="43.6095" lon="3.43572">
        <ele>162.5</ele>
        <time>2016-02-21T12:29:17Z</time>
      </trkpt>
      <trkpt lat="43.6095" lon="3.43573">
        <ele>162.5</ele>
        <time>2016-02-21T12:29:18Z</time>
      </trkpt>
      <trkpt lat="43.60951" lon="3.43573">
        <ele>163.5</ele>
        <time>2016-02-21T12:29:20Z</time>
      </trkpt>
      <trkpt lat="43.6095" lon="3.43572">
        <ele>163.5</ele>
        <time>2016-02-21T12:29:21Z</time>
      </trkpt>
      <trkpt lat="43.60951" lon="3.43571">
        <ele>163</ele>
        <time>2016-02-21T12:29:29Z</time>
      </trkpt>
      <trkpt lat="43.60951" lon="3.4357">
        <ele>163</ele>
        <time>2016-02-21T12:29:30Z</time>
      </trkpt>
      <trkpt lat="43.60951" lon="3.43569">
        <ele>163</ele>
        <time>2016-02-21T12:29:31Z</time>
      </trkpt>
      <trkpt lat="43.60951" lon="3.43567">
        <ele>163</ele>
        <time>2016-02-21T12:29:32Z</time>
      </trkpt>
      <trkpt lat="43.60951" lon="3.43565">
        <ele>163</ele>
        <time>2016-02-21T12:29:33Z</time>
      </trkpt>
      <trkpt lat="43.60951" lon="3.43563">
        <ele>162.5</ele>
        <time>2016-02-21T12:29:34Z</time>
      </trkpt>
      <trkpt lat="43.6095" lon="3.43561">
        <ele>162.5</ele>
        <time>2016-02-21T12:29:35Z</time>
      </trkpt>
      <trkpt lat="43.60948" lon="3.43562">
        <ele>162.5</ele>
        <time>2016-02-21T12:29:36Z</time>
      </trkpt>
      <trkpt lat="43.60945" lon="3.43563">
        <ele>161.5</ele>
        <time>2016-02-21T12:29:37Z</time>
      </trkpt>
      <trkpt lat="43.60942" lon="3.43562">
        <ele>161</ele>
        <time>2016-02-21T12:29:38Z</time>
      </trkpt>
      <trkpt lat="43.60939" lon="3.43562">
        <ele>161</ele>
        <time>2016-02-21T12:29:39Z</time>
      </trkpt>
      <trkpt lat="43.60935" lon="3.43562">
        <ele>160.5</ele>
        <time>2016-02-21T12:29:40Z</time>
      </trkpt>
      <trkpt lat="43.60931" lon="3.43562">
        <ele>160</ele>
        <time>2016-02-21T12:29:41Z</time>
      </trkpt>
      <trkpt lat="43.60927" lon="3.43561">
        <ele>160</ele>
        <time>2016-02-21T12:29:42Z</time>
      </trkpt>
      <trkpt lat="43.60922" lon="3.43561">
        <ele>159.5</ele>
        <time>2016-02-21T12:29:43Z</time>
      </trkpt>
      <trkpt lat="43.60917" lon="3.4356">
        <ele>159.5</ele>
        <time>2016-02-21T12:29:44Z</time>
      </trkpt>
      <trkpt lat="43.60912" lon="3.4356">
        <ele>159</ele>
        <time>2016-02-21T12:29:45Z</time>
      </trkpt>
      <trkpt lat="43.60907" lon="3.43559">
        <ele>158</ele>
        <time>2016-02-21T12:29:46Z</time>
      </trkpt>
      <trkpt lat="43.60903" lon="3.43555">
        <ele>156.5</ele>
        <time>2016-02-21T12:29:47Z</time>
      </trkpt>
      <trkpt lat="43.60901" lon="3.43549">
        <ele>155</ele>
        <time>2016-02-21T12:29:48Z</time>
      </trkpt>
      <trkpt lat="43.60899" lon="3.43543">
        <ele>155</ele>
        <time>2016-02-21T12:29:49Z</time>
      </trkpt>
      <trkpt lat="43.60896" lon="3.43535">
        <ele>157</ele>
        <time>2016-02-21T12:29:50Z</time>
      </trkpt>
      <trkpt lat="43.60896" lon="3.43529">
        <ele>156.5</ele>
        <time>2016-02-21T12:29:51Z</time>
      </trkpt>
      <trkpt lat="43.60895" lon="3.43523">
        <ele>156.5</ele>
        <time>2016-02-21T12:29:52Z</time>
      </trkpt>
      <trkpt lat="43.60894" lon="3.43517">
        <ele>156.5</ele>
        <time>2016-02-21T12:29:53Z</time>
      </trkpt>
      <trkpt lat="43.60893" lon="3.43511">
        <ele>157</ele>
        <time>2016-02-21T12:29:54Z</time>
      </trkpt>
      <trkpt lat="43.60891" lon="3.43505">
        <ele>158</ele>
        <time>2016-02-21T12:29:55Z</time>
      </trkpt>
      <trkpt lat="43.60889" lon="3.43499">
        <ele>158.5</ele>
        <time>2016-02-21T12:29:56Z</time>
      </trkpt>
      <trkpt lat="43.60888" lon="3.43494">
        <ele>159</ele>
        <time>2016-02-21T12:29:57Z</time>
      </trkpt>
      <trkpt lat="43.60886" lon="3.43489">
        <ele>159</ele>
        <time>2016-02-21T12:29:58Z</time>
      </trkpt>
      <trkpt lat="43.60884" lon="3.43484">
        <ele>159.5</ele>
        <time>2016-02-21T12:29:59Z</time>
      </trkpt>
      <trkpt lat="43.60881" lon="3.4348">
        <ele>159.5</ele>
        <time>2016-02-21T12:30:00Z</time>
      </trkpt>
      <trkpt lat="43.60878" lon="3.43476">
        <ele>160</ele>
        <time>2016-02-21T12:30:01Z</time>
      </trkpt>
      <trkpt lat="43.60873" lon="3.43471">
        <ele>161.5</ele>
        <time>2016-02-21T12:30:02Z</time>
      </trkpt>
      <trkpt lat="43.6087" lon="3.43466">
        <ele>161.5</ele>
        <time>2016-02-21T12:30:03Z</time>
      </trkpt>
      <trkpt lat="43.60868" lon="3.4346">
        <ele>161.5</ele>
        <time>2016-02-21T12:30:04Z</time>
      </trkpt>
      <trkpt lat="43.60866" lon="3.43456">
        <ele>162.5</ele>
        <time>2016-02-21T12:30:05Z</time>
      </trkpt>
      <trkpt lat="43.60865" lon="3.43449">
        <ele>161.5</ele>
        <time>2016-02-21T12:30:06Z</time>
      </trkpt>
      <trkpt lat="43.60864" lon="3.43444">
        <ele>161.5</ele>
        <time>2016-02-21T12:30:07Z</time>
      </trkpt>
      <trkpt lat="43.60863" lon="3.43441">
        <ele>164</ele>
        <time>2016-02-21T12:30:08Z</time>
      </trkpt>
      <trkpt lat="43.60863" lon="3.43437">
        <ele>165</ele>
        <time>2016-02-21T12:30:09Z</time>
      </trkpt>
      <trkpt lat="43.60863" lon="3.43432">
        <ele>165</ele>
        <time>2016-02-21T12:30:10Z</time>
      </trkpt>
      <trkpt lat="43.60864" lon="3.43426">
        <ele>165</ele>
        <time>2016-02-21T12:30:11Z</time>
      </trkpt>
      <trkpt lat="43.60863" lon="3.43419">
        <ele>165</ele>
        <time>2016-02-21T12:30:12Z</time>
      </trkpt>
      <trkpt lat="43.60865" lon="3.43412">
        <ele>168.5</ele>
        <time>2016-02-21T12:30:14Z</time>
      </trkpt>
      <trkpt lat="43.60866" lon="3.43408">
        <ele>168.5</ele>
        <time>2016-02-21T12:30:15Z</time>
      </trkpt>
      <trkpt lat="43.60867" lon="3.43404">
        <ele>168</ele>
        <time>2016-02-21T12:30:16Z</time>
      </trkpt>
      <trkpt lat="43.60868" lon="3.43399">
        <ele>168.5</ele>
        <time>2016-02-21T12:30:17Z</time>
      </trkpt>
      <trkpt lat="43.60867" lon="3.43395">
        <ele>169</ele>
        <time>2016-02-21T12:30:18Z</time>
      </trkpt>
      <trkpt lat="43.60866" lon="3.4339">
        <ele>170</ele>
        <time>2016-02-21T12:30:19Z</time>
      </trkpt>
      <trkpt lat="43.60865" lon="3.43385">
        <ele>170.5</ele>
        <time>2016-02-21T12:30:20Z</time>
      </trkpt>
      <trkpt lat="43.60863" lon="3.4338">
        <ele>169.5</ele>
        <time>2016-02-21T12:30:21Z</time>
      </trkpt>
      <trkpt lat="43.60862" lon="3.43375">
        <ele>170</ele>
        <time>2016-02-21T12:30:22Z</time>
      </trkpt>
      <trkpt lat="43.60863" lon="3.43369">
        <ele>172</ele>
        <time>2016-02-21T12:30:23Z</time>
      </trkpt>
      <trkpt lat="43.6086" lon="3.43365">
        <ele>172</ele>
        <time>2016-02-21T12:30:24Z</time>
      </trkpt>
      <trkpt lat="43.6086" lon="3.4336">
        <ele>172</ele>
        <time>2016-02-21T12:30:25Z</time>
      </trkpt>
      <trkpt lat="43.6086" lon="3.43355">
        <ele>172</ele>
        <time>2016-02-21T12:30:26Z</time>
      </trkpt>
      <trkpt lat="43.6086" lon="3.43352">
        <ele>173.5</ele>
        <time>2016-02-21T12:30:27Z</time>
      </trkpt>
      <trkpt lat="43.60858" lon="3.43349">
        <ele>173</ele>
        <time>2016-02-21T12:30:28Z</time>
      </trkpt>
      <trkpt lat="43.60856" lon="3.43347">
        <ele>173</ele>
        <time>2016-02-21T12:30:29Z</time>
      </trkpt>
      <trkpt lat="43.60854" lon="3.43343">
        <ele>174</ele>
        <time>2016-02-21T12:30:30Z</time>
      </trkpt>
      <trkpt lat="43.60853" lon="3.4334">
        <ele>174.5</ele>
        <time>2016-02-21T12:30:31Z</time>
      </trkpt>
      <trkpt lat="43.60851" lon="3.43337">
        <ele>175.5</ele>
        <time>2016-02-21T12:30:32Z</time>
      </trkpt>
      <trkpt lat="43.6085" lon="3.43334">
        <ele>176</ele>
        <time>2016-02-21T12:30:33Z</time>
      </trkpt>
      <trkpt lat="43.6085" lon="3.4333">
        <ele>176.5</ele>
        <time>2016-02-21T12:30:34Z</time>
      </trkpt>
      <trkpt lat="43.6085" lon="3.43327">
        <ele>176.5</ele>
        <time>2016-02-21T12:30:35Z</time>
      </trkpt>
      <trkpt lat="43.6085" lon="3.43323">
        <ele>176.5</ele>
        <time>2016-02-21T12:30:36Z</time>
      </trkpt>
      <trkpt lat="43.60851" lon="3.4332">
        <ele>176.5</ele>
        <time>2016-02-21T12:30:37Z</time>
      </trkpt>
      <trkpt lat="43.60852" lon="3.43317">
        <ele>176</ele>
        <time>2016-02-21T12:30:38Z</time>
      </trkpt>
      <trkpt lat="43.60853" lon="3.43314">
        <ele>175.5</ele>
        <time>2016-02-21T12:30:39Z</time>
      </trkpt>
      <trkpt lat="43.60853" lon="3.43311">
        <ele>175.5</ele>
        <time>2016-02-21T12:30:40Z</time>
      </trkpt>
      <trkpt lat="43.60852" lon="3.43308">
        <ele>175.5</ele>
        <time>2016-02-21T12:30:41Z</time>
      </trkpt>
      <trkpt lat="43.6085" lon="3.43306">
        <ele>175.5</ele>
        <time>2016-02-21T12:30:42Z</time>
      </trkpt>
      <trkpt lat="43.6085" lon="3.43303">
        <ele>175.5</ele>
        <time>2016-02-21T12:30:43Z</time>
      </trkpt>
      <trkpt lat="43.6085" lon="3.433">
        <ele>175.5</ele>
        <time>2016-02-21T12:30:44Z</time>
      </trkpt>
      <trkpt lat="43.60854" lon="3.433">
        <ele>176.5</ele>
        <time>2016-02-21T12:30:45Z</time>
      </trkpt>
      <trkpt lat="43.60856" lon="3.43299">
        <ele>176.5</ele>
        <time>2016-02-21T12:30:46Z</time>
      </trkpt>
      <trkpt lat="43.60856" lon="3.43296">
        <ele>176.5</ele>
        <time>2016-02-21T12:30:47Z</time>
      </trkpt>
      <trkpt lat="43.60857" lon="3.43292">
        <ele>176.5</ele>
        <time>2016-02-21T12:30:48Z</time>
      </trkpt>
      <trkpt lat="43.60858" lon="3.43288">
        <ele>176.5</ele>
        <time>2016-02-21T12:30:49Z</time>
      </trkpt>
      <trkpt lat="43.60859" lon="3.43285">
        <ele>176.5</ele>
        <time>2016-02-21T12:30:50Z</time>
      </trkpt>
      <trkpt lat="43.6086" lon="3.43282">
        <ele>176.5</ele>
        <time>2016-02-21T12:30:51Z</time>
      </trkpt>
      <trkpt lat="43.60861" lon="3.43279">
        <ele>176.5</ele>
        <time>2016-02-21T12:30:52Z</time>
      </trkpt>
      <trkpt lat="43.60863" lon="3.43277">
        <ele>175.5</ele>
        <time>2016-02-21T12:30:53Z</time>
      </trkpt>
      <trkpt lat="43.60865" lon="3.43274">
        <ele>176</ele>
        <time>2016-02-21T12:30:54Z</time>
      </trkpt>
      <trkpt lat="43.60866" lon="3.43272">
        <ele>176</ele>
        <time>2016-02-21T12:30:55Z</time>
      </trkpt>
      <trkpt lat="43.60867" lon="3.43269">
        <ele>176</ele>
        <time>2016-02-21T12:30:56Z</time>
      </trkpt>
      <trkpt lat="43.60868" lon="3.43266">
        <ele>176.5</ele>
        <time>2016-02-21T12:30:57Z</time>
      </trkpt>
      <trkpt lat="43.60869" lon="3.43263">
        <ele>176.5</ele>
        <time>2016-02-21T12:30:58Z</time>
      </trkpt>
      <trkpt lat="43.6087" lon="3.4326">
        <ele>177.5</ele>
        <time>2016-02-21T12:30:59Z</time>
      </trkpt>
      <trkpt lat="43.60871" lon="3.43257">
        <ele>177.5</ele>
        <time>2016-02-21T12:31:00Z</time>
      </trkpt>
      <trkpt lat="43.60872" lon="3.43255">
        <ele>177.5</ele>
        <time>2016-02-21T12:31:01Z</time>
      </trkpt>
      <trkpt lat="43.60873" lon="3.43252">
        <ele>178</ele>
        <time>2016-02-21T12:31:02Z</time>
      </trkpt>
      <trkpt lat="43.60874" lon="3.4325">
        <ele>178</ele>
        <time>2016-02-21T12:31:03Z</time>
      </trkpt>
      <trkpt lat="43.60874" lon="3.43248">
        <ele>178</ele>
        <time>2016-02-21T12:31:04Z</time>
      </trkpt>
      <trkpt lat="43.60873" lon="3.43246">
        <ele>178</ele>
        <time>2016-02-21T12:31:05Z</time>
      </trkpt>
      <trkpt lat="43.60871" lon="3.43245">
        <ele>178</ele>
        <time>2016-02-21T12:31:06Z</time>
      </trkpt>
      <trkpt lat="43.6087" lon="3.43242">
        <ele>179</ele>
        <time>2016-02-21T12:31:07Z</time>
      </trkpt>
      <trkpt lat="43.60868" lon="3.43241">
        <ele>179</ele>
        <time>2016-02-21T12:31:08Z</time>
      </trkpt>
      <trkpt lat="43.60865" lon="3.43239">
        <ele>179.5</ele>
        <time>2016-02-21T12:31:09Z</time>
      </trkpt>
      <trkpt lat="43.60862" lon="3.43237">
        <ele>179.5</ele>
        <time>2016-02-21T12:31:10Z</time>
      </trkpt>
      <trkpt lat="43.60859" lon="3.43235">
        <ele>179.5</ele>
        <time>2016-02-21T12:31:11Z</time>
      </trkpt>
      <trkpt lat="43.60856" lon="3.43233">
        <ele>179.5</ele>
        <time>2016-02-21T12:31:12Z</time>
      </trkpt>
      <trkpt lat="43.60852" lon="3.4323">
        <ele>179.5</ele>
        <time>2016-02-21T12:31:13Z</time>
      </trkpt>
      <trkpt lat="43.60849" lon="3.43228">
        <ele>179.5</ele>
        <time>2016-02-21T12:31:14Z</time>
      </trkpt>
      <trkpt lat="43.60845" lon="3.43224">
        <ele>180</ele>
        <time>2016-02-21T12:31:15Z</time>
      </trkpt>
      <trkpt lat="43.60841" lon="3.43221">
        <ele>180</ele>
        <time>2016-02-21T12:31:16Z</time>
      </trkpt>
      <trkpt lat="43.60837" lon="3.43218">
        <ele>181</ele>
        <time>2016-02-21T12:31:17Z</time>
      </trkpt>
      <trkpt lat="43.60834" lon="3.43215">
        <ele>181</ele>
        <time>2016-02-21T12:31:18Z</time>
      </trkpt>
      <trkpt lat="43.6083" lon="3.43212">
        <ele>181</ele>
        <time>2016-02-21T12:31:19Z</time>
      </trkpt>
      <trkpt lat="43.60826" lon="3.43209">
        <ele>181</ele>
        <time>2016-02-21T12:31:20Z</time>
      </trkpt>
      <trkpt lat="43.60822" lon="3.43207">
        <ele>181</ele>
        <time>2016-02-21T12:31:21Z</time>
      </trkpt>
      <trkpt lat="43.60818" lon="3.43204">
        <ele>181</ele>
        <time>2016-02-21T12:31:22Z</time>
      </trkpt>
      <trkpt lat="43.60814" lon="3.43201">
        <ele>181</ele>
        <time>2016-02-21T12:31:23Z</time>
      </trkpt>
      <trkpt lat="43.6081" lon="3.43199">
        <ele>181</ele>
        <time>2016-02-21T12:31:24Z</time>
      </trkpt>
      <trkpt lat="43.60807" lon="3.43196">
        <ele>181</ele>
        <time>2016-02-21T12:31:25Z</time>
      </trkpt>
      <trkpt lat="43.60803" lon="3.43194">
        <ele>180.5</ele>
        <time>2016-02-21T12:31:26Z</time>
      </trkpt>
      <trkpt lat="43.60799" lon="3.43191">
        <ele>180.5</ele>
        <time>2016-02-21T12:31:27Z</time>
      </trkpt>
      <trkpt lat="43.60795" lon="3.43188">
        <ele>180.5</ele>
        <time>2016-02-21T12:31:28Z</time>
      </trkpt>
      <trkpt lat="43.60792" lon="3.43185">
        <ele>180.5</ele>
        <time>2016-02-21T12:31:29Z</time>
      </trkpt>
      <trkpt lat="43.60788" lon="3.43182">
        <ele>179</ele>
        <time>2016-02-21T12:31:30Z</time>
      </trkpt>
      <trkpt lat="43.60786" lon="3.43177">
        <ele>179</ele>
        <time>2016-02-21T12:31:31Z</time>
      </trkpt>
      <trkpt lat="43.60787" lon="3.43172">
        <ele>179</ele>
        <time>2016-02-21T12:31:32Z</time>
      </trkpt>
      <trkpt lat="43.60789" lon="3.43167">
        <ele>178</ele>
        <time>2016-02-21T12:31:33Z</time>
      </trkpt>
      <trkpt lat="43.60789" lon="3.43163">
        <ele>178</ele>
        <time>2016-02-21T12:31:34Z</time>
      </trkpt>
      <trkpt lat="43.60791" lon="3.4316">
        <ele>178</ele>
        <time>2016-02-21T12:31:35Z</time>
      </trkpt>
      <trkpt lat="43.60793" lon="3.43158">
        <ele>179</ele>
        <time>2016-02-21T12:31:36Z</time>
      </trkpt>
      <trkpt lat="43.60795" lon="3.43155">
        <ele>179.5</ele>
        <time>2016-02-21T12:31:37Z</time>
      </trkpt>
      <trkpt lat="43.60796" lon="3.43152">
        <ele>180.5</ele>
        <time>2016-02-21T12:31:38Z</time>
      </trkpt>
      <trkpt lat="43.60797" lon="3.43149">
        <ele>181</ele>
        <time>2016-02-21T12:31:39Z</time>
      </trkpt>
      <trkpt lat="43.60797" lon="3.43146">
        <ele>181</ele>
        <time>2016-02-21T12:31:40Z</time>
      </trkpt>
      <trkpt lat="43.60797" lon="3.43144">
        <ele>180.5</ele>
        <time>2016-02-21T12:31:41Z</time>
      </trkpt>
      <trkpt lat="43.60796" lon="3.43142">
        <ele>181</ele>
        <time>2016-02-21T12:31:42Z</time>
      </trkpt>
      <trkpt lat="43.60795" lon="3.43139">
        <ele>180.5</ele>
        <time>2016-02-21T12:31:43Z</time>
      </trkpt>
      <trkpt lat="43.60794" lon="3.43137">
        <ele>180.5</ele>
        <time>2016-02-21T12:31:44Z</time>
      </trkpt>
      <trkpt lat="43.60792" lon="3.43134">
        <ele>180</ele>
        <time>2016-02-21T12:31:45Z</time>
      </trkpt>
      <trkpt lat="43.60792" lon="3.43131">
        <ele>180.5</ele>
        <time>2016-02-21T12:31:46Z</time>
      </trkpt>
      <trkpt lat="43.60791" lon="3.43129">
        <ele>181</ele>
        <time>2016-02-21T12:31:47Z</time>
      </trkpt>
      <trkpt lat="43.6079" lon="3.43126">
        <ele>181.5</ele>
        <time>2016-02-21T12:31:48Z</time>
      </trkpt>
      <trkpt lat="43.60787" lon="3.43125">
        <ele>180</ele>
        <time>2016-02-21T12:31:49Z</time>
      </trkpt>
      <trkpt lat="43.60784" lon="3.43123">
        <ele>181</ele>
        <time>2016-02-21T12:31:50Z</time>
      </trkpt>
      <trkpt lat="43.6078" lon="3.43121">
        <ele>182</ele>
        <time>2016-02-21T12:31:51Z</time>
      </trkpt>
      <trkpt lat="43.60777" lon="3.43119">
        <ele>182.5</ele>
        <time>2016-02-21T12:31:52Z</time>
      </trkpt>
      <trkpt lat="43.60773" lon="3.43117">
        <ele>183</ele>
        <time>2016-02-21T12:31:53Z</time>
      </trkpt>
      <trkpt lat="43.60769" lon="3.43115">
        <ele>183.5</ele>
        <time>2016-02-21T12:31:54Z</time>
      </trkpt>
      <trkpt lat="43.60765" lon="3.43112">
        <ele>183.5</ele>
        <time>2016-02-21T12:31:55Z</time>
      </trkpt>
      <trkpt lat="43.60761" lon="3.43109">
        <ele>183.5</ele>
        <time>2016-02-21T12:31:56Z</time>
      </trkpt>
      <trkpt lat="43.60757" lon="3.43106">
        <ele>183.5</ele>
        <time>2016-02-21T12:31:57Z</time>
      </trkpt>
      <trkpt lat="43.60753" lon="3.43102">
        <ele>183</ele>
        <time>2016-02-21T12:31:58Z</time>
      </trkpt>
      <trkpt lat="43.60749" lon="3.43098">
        <ele>183</ele>
        <time>2016-02-21T12:31:59Z</time>
      </trkpt>
      <trkpt lat="43.60745" lon="3.43092">
        <ele>183</ele>
        <time>2016-02-21T12:32:00Z</time>
      </trkpt>
      <trkpt lat="43.60741" lon="3.43087">
        <ele>182.5</ele>
        <time>2016-02-21T12:32:01Z</time>
      </trkpt>
      <trkpt lat="43.60737" lon="3.43083">
        <ele>182.5</ele>
        <time>2016-02-21T12:32:02Z</time>
      </trkpt>
      <trkpt lat="43.60735" lon="3.43077">
        <ele>182</ele>
        <time>2016-02-21T12:32:03Z</time>
      </trkpt>
      <trkpt lat="43.60726" lon="3.43066">
        <ele>182</ele>
        <time>2016-02-21T12:32:05Z</time>
      </trkpt>
      <trkpt lat="43.60721" lon="3.43058">
        <ele>182</ele>
        <time>2016-02-21T12:32:07Z</time>
      </trkpt>
      <trkpt lat="43.6072" lon="3.43055">
        <ele>181.5</ele>
        <time>2016-02-21T12:32:08Z</time>
      </trkpt>
      <trkpt lat="43.6072" lon="3.43052">
        <ele>181.5</ele>
        <time>2016-02-21T12:32:09Z</time>
      </trkpt>
      <trkpt lat="43.60717" lon="3.43049">
        <ele>181</ele>
        <time>2016-02-21T12:32:10Z</time>
      </trkpt>
      <trkpt lat="43.60715" lon="3.43046">
        <ele>181.5</ele>
        <time>2016-02-21T12:32:11Z</time>
      </trkpt>
      <trkpt lat="43.60713" lon="3.43047">
        <ele>181.5</ele>
        <time>2016-02-21T12:32:12Z</time>
      </trkpt>
      <trkpt lat="43.60698" lon="3.43026">
        <ele>181.5</ele>
        <time>2016-02-21T12:32:16Z</time>
      </trkpt>
      <trkpt lat="43.60697" lon="3.4302">
        <ele>181.5</ele>
        <time>2016-02-21T12:32:17Z</time>
      </trkpt>
      <trkpt lat="43.60697" lon="3.43014">
        <ele>181</ele>
        <time>2016-02-21T12:32:18Z</time>
      </trkpt>
      <trkpt lat="43.60695" lon="3.43004">
        <ele>181.5</ele>
        <time>2016-02-21T12:32:20Z</time>
      </trkpt>
      <trkpt lat="43.60696" lon="3.42995">
        <ele>181.5</ele>
        <time>2016-02-21T12:32:22Z</time>
      </trkpt>
      <trkpt lat="43.60696" lon="3.42989">
        <ele>181.5</ele>
        <time>2016-02-21T12:32:23Z</time>
      </trkpt>
      <trkpt lat="43.60694" lon="3.42983">
        <ele>181</ele>
        <time>2016-02-21T12:32:24Z</time>
      </trkpt>
      <trkpt lat="43.60693" lon="3.42979">
        <ele>180.5</ele>
        <time>2016-02-21T12:32:25Z</time>
      </trkpt>
      <trkpt lat="43.60693" lon="3.42967">
        <ele>181</ele>
        <time>2016-02-21T12:32:27Z</time>
      </trkpt>
      <trkpt lat="43.60692" lon="3.42964">
        <ele>181</ele>
        <time>2016-02-21T12:32:28Z</time>
      </trkpt>
      <trkpt lat="43.60692" lon="3.42962">
        <ele>181.5</ele>
        <time>2016-02-21T12:32:29Z</time>
      </trkpt>
      <trkpt lat="43.60699" lon="3.4294">
        <ele>180.5</ele>
        <time>2016-02-21T12:32:32Z</time>
      </trkpt>
      <trkpt lat="43.60701" lon="3.42937">
        <ele>180.5</ele>
        <time>2016-02-21T12:32:33Z</time>
      </trkpt>
      <trkpt lat="43.60703" lon="3.42934">
        <ele>180.5</ele>
        <time>2016-02-21T12:32:34Z</time>
      </trkpt>
      <trkpt lat="43.60704" lon="3.42933">
        <ele>181</ele>
        <time>2016-02-21T12:32:35Z</time>
      </trkpt>
      <trkpt lat="43.60704" lon="3.42931">
        <ele>181.5</ele>
        <time>2016-02-21T12:32:36Z</time>
      </trkpt>
      <trkpt lat="43.60705" lon="3.42928">
        <ele>182</ele>
        <time>2016-02-21T12:32:37Z</time>
      </trkpt>
      <trkpt lat="43.60705" lon="3.42927">
        <ele>182.5</ele>
        <time>2016-02-21T12:32:41Z</time>
      </trkpt>
      <trkpt lat="43.60704" lon="3.42928">
        <ele>182.5</ele>
        <time>2016-02-21T12:32:42Z</time>
      </trkpt>
      <trkpt lat="43.60703" lon="3.42928">
        <ele>182.5</ele>
        <time>2016-02-21T12:32:43Z</time>
      </trkpt>
      <trkpt lat="43.60707" lon="3.42925">
        <ele>183</ele>
        <time>2016-02-21T12:32:45Z</time>
      </trkpt>
      <trkpt lat="43.60708" lon="3.42925">
        <ele>183</ele>
        <time>2016-02-21T12:32:46Z</time>
      </trkpt>
      <trkpt lat="43.6071" lon="3.42924">
        <ele>183</ele>
        <time>2016-02-21T12:32:47Z</time>
      </trkpt>
      <trkpt lat="43.60712" lon="3.42925">
        <ele>183.5</ele>
        <time>2016-02-21T12:32:48Z</time>
      </trkpt>
      <trkpt lat="43.60714" lon="3.42925">
        <ele>183.5</ele>
        <time>2016-02-21T12:32:49Z</time>
      </trkpt>
      <trkpt lat="43.60714" lon="3.42926">
        <ele>184</ele>
        <time>2016-02-21T12:32:50Z</time>
      </trkpt>
      <trkpt lat="43.60715" lon="3.42927">
        <ele>183.5</ele>
        <time>2016-02-21T12:32:51Z</time>
      </trkpt>
      <trkpt lat="43.60714" lon="3.42927">
        <ele>183.5</ele>
        <time>2016-02-21T12:32:52Z</time>
      </trkpt>
      <trkpt lat="43.60719" lon="3.42919">
        <ele>183.5</ele>
        <time>2016-02-21T12:32:54Z</time>
      </trkpt>
      <trkpt lat="43.60721" lon="3.42917">
        <ele>183.5</ele>
        <time>2016-02-21T12:32:55Z</time>
      </trkpt>
      <trkpt lat="43.60723" lon="3.42915">
        <ele>183</ele>
        <time>2016-02-21T12:32:56Z</time>
      </trkpt>
      <trkpt lat="43.60725" lon="3.42911">
        <ele>183</ele>
        <time>2016-02-21T12:32:57Z</time>
      </trkpt>
      <trkpt lat="43.60723" lon="3.42911">
        <ele>183</ele>
        <time>2016-02-21T12:32:58Z</time>
      </trkpt>
      <trkpt lat="43.60724" lon="3.42911">
        <ele>183</ele>
        <time>2016-02-21T12:32:59Z</time>
      </trkpt>
      <trkpt lat="43.60724" lon="3.4291">
        <ele>183.5</ele>
        <time>2016-02-21T12:33:00Z</time>
      </trkpt>
      <trkpt lat="43.60727" lon="3.4291">
        <ele>184</ele>
        <time>2016-02-21T12:33:01Z</time>
      </trkpt>
      <trkpt lat="43.60724" lon="3.42911">
        <ele>184</ele>
        <time>2016-02-21T12:33:02Z</time>
      </trkpt>
      <trkpt lat="43.60722" lon="3.42912">
        <ele>183.5</ele>
        <time>2016-02-21T12:33:03Z</time>
      </trkpt>
      <trkpt lat="43.6072" lon="3.42911">
        <ele>183.5</ele>
        <time>2016-02-21T12:33:04Z</time>
      </trkpt>
      <trkpt lat="43.60719" lon="3.42911">
        <ele>183.5</ele>
        <time>2016-02-21T12:33:05Z</time>
      </trkpt>
      <trkpt lat="43.60718" lon="3.42912">
        <ele>183.5</ele>
        <time>2016-02-21T12:33:06Z</time>
      </trkpt>
      <trkpt lat="43.60718" lon="3.4291">
        <ele>183.5</ele>
        <time>2016-02-21T12:33:07Z</time>
      </trkpt>
      <trkpt lat="43.60718" lon="3.42907">
        <ele>183.5</ele>
        <time>2016-02-21T12:33:08Z</time>
      </trkpt>
      <trkpt lat="43.60719" lon="3.42905">
        <ele>183.5</ele>
        <time>2016-02-21T12:33:09Z</time>
      </trkpt>
      <trkpt lat="43.60719" lon="3.42904">
        <ele>183.5</ele>
        <time>2016-02-21T12:33:10Z</time>
      </trkpt>
      <trkpt lat="43.60719" lon="3.42903">
        <ele>183.5</ele>
        <time>2016-02-21T12:33:11Z</time>
      </trkpt>
      <trkpt lat="43.60718" lon="3.42901">
        <ele>183.5</ele>
        <time>2016-02-21T12:33:12Z</time>
      </trkpt>
      <trkpt lat="43.60717" lon="3.429">
        <ele>183.5</ele>
        <time>2016-02-21T12:33:13Z</time>
      </trkpt>
      <trkpt lat="43.60716" lon="3.42897">
        <ele>183.5</ele>
        <time>2016-02-21T12:33:14Z</time>
      </trkpt>
      <trkpt lat="43.60715" lon="3.42896">
        <ele>183.5</ele>
        <time>2016-02-21T12:33:15Z</time>
      </trkpt>
      <trkpt lat="43.60714" lon="3.42893">
        <ele>184</ele>
        <time>2016-02-21T12:33:16Z</time>
      </trkpt>
      <trkpt lat="43.60708" lon="3.42887">
        <ele>183.5</ele>
        <time>2016-02-21T12:33:18Z</time>
      </trkpt>
      <trkpt lat="43.60699" lon="3.42885">
        <ele>177</ele>
        <time>2016-02-21T12:33:20Z</time>
      </trkpt>
      <trkpt lat="43.60697" lon="3.42884">
        <ele>177</ele>
        <time>2016-02-21T12:33:21Z</time>
      </trkpt>
      <trkpt lat="43.60694" lon="3.42882">
        <ele>177.5</ele>
        <time>2016-02-21T12:33:22Z</time>
      </trkpt>
      <trkpt lat="43.60693" lon="3.42881">
        <ele>178</ele>
        <time>2016-02-21T12:33:23Z</time>
      </trkpt>
      <trkpt lat="43.60692" lon="3.4288">
        <ele>179</ele>
        <time>2016-02-21T12:33:24Z</time>
      </trkpt>
      <trkpt lat="43.60691" lon="3.42878">
        <ele>179.5</ele>
        <time>2016-02-21T12:33:25Z</time>
      </trkpt>
      <trkpt lat="43.60691" lon="3.42876">
        <ele>179</ele>
        <time>2016-02-21T12:33:26Z</time>
      </trkpt>
      <trkpt lat="43.60691" lon="3.42875">
        <ele>179</ele>
        <time>2016-02-21T12:33:27Z</time>
      </trkpt>
      <trkpt lat="43.60692" lon="3.42874">
        <ele>179.5</ele>
        <time>2016-02-21T12:33:28Z</time>
      </trkpt>
      <trkpt lat="43.60693" lon="3.42872">
        <ele>180.5</ele>
        <time>2016-02-21T12:33:29Z</time>
      </trkpt>
      <trkpt lat="43.60694" lon="3.42872">
        <ele>180.5</ele>
        <time>2016-02-21T12:33:30Z</time>
      </trkpt>
      <trkpt lat="43.60695" lon="3.42871">
        <ele>181</ele>
        <time>2016-02-21T12:33:31Z</time>
      </trkpt>
      <trkpt lat="43.60695" lon="3.42869">
        <ele>181</ele>
        <time>2016-02-21T12:33:32Z</time>
      </trkpt>
      <trkpt lat="43.60696" lon="3.42869">
        <ele>184</ele>
        <time>2016-02-21T12:33:33Z</time>
      </trkpt>
      <trkpt lat="43.60698" lon="3.42868">
        <ele>184.5</ele>
        <time>2016-02-21T12:33:34Z</time>
      </trkpt>
      <trkpt lat="43.607" lon="3.42868">
        <ele>184.5</ele>
        <time>2016-02-21T12:33:35Z</time>
      </trkpt>
      <trkpt lat="43.60702" lon="3.42867">
        <ele>184.5</ele>
        <time>2016-02-21T12:33:36Z</time>
      </trkpt>
      <trkpt lat="43.60703" lon="3.42866">
        <ele>183.5</ele>
        <time>2016-02-21T12:33:37Z</time>
      </trkpt>
      <trkpt lat="43.60704" lon="3.42864">
        <ele>182.5</ele>
        <time>2016-02-21T12:33:38Z</time>
      </trkpt>
      <trkpt lat="43.60706" lon="3.42862">
        <ele>182</ele>
        <time>2016-02-21T12:33:39Z</time>
      </trkpt>
      <trkpt lat="43.60708" lon="3.4286">
        <ele>182</ele>
        <time>2016-02-21T12:33:40Z</time>
      </trkpt>
      <trkpt lat="43.6071" lon="3.42858">
        <ele>181.5</ele>
        <time>2016-02-21T12:33:41Z</time>
      </trkpt>
      <trkpt lat="43.60711" lon="3.42857">
        <ele>181.5</ele>
        <time>2016-02-21T12:33:42Z</time>
      </trkpt>
      <trkpt lat="43.60714" lon="3.42857">
        <ele>182.5</ele>
        <time>2016-02-21T12:33:43Z</time>
      </trkpt>
      <trkpt lat="43.60715" lon="3.42855">
        <ele>183</ele>
        <time>2016-02-21T12:33:44Z</time>
      </trkpt>
      <trkpt lat="43.60715" lon="3.42854">
        <ele>181</ele>
        <time>2016-02-21T12:33:45Z</time>
      </trkpt>
      <trkpt lat="43.60718" lon="3.42852">
        <ele>182</ele>
        <time>2016-02-21T12:33:46Z</time>
      </trkpt>
      <trkpt lat="43.60719" lon="3.42852">
        <ele>181.5</ele>
        <time>2016-02-21T12:33:47Z</time>
      </trkpt>
      <trkpt lat="43.6072" lon="3.42849">
        <ele>181.5</ele>
        <time>2016-02-21T12:33:48Z</time>
      </trkpt>
      <trkpt lat="43.60722" lon="3.42847">
        <ele>181.5</ele>
        <time>2016-02-21T12:33:49Z</time>
      </trkpt>
      <trkpt lat="43.60723" lon="3.42845">
        <ele>181</ele>
        <time>2016-02-21T12:33:50Z</time>
      </trkpt>
      <trkpt lat="43.60725" lon="3.42843">
        <ele>180.5</ele>
        <time>2016-02-21T12:33:51Z</time>
      </trkpt>
      <trkpt lat="43.60726" lon="3.42841">
        <ele>180</ele>
        <time>2016-02-21T12:33:52Z</time>
      </trkpt>
      <trkpt lat="43.60728" lon="3.42839">
        <ele>181</ele>
        <time>2016-02-21T12:33:53Z</time>
      </trkpt>
      <trkpt lat="43.6073" lon="3.42837">
        <ele>182.5</ele>
        <time>2016-02-21T12:33:54Z</time>
      </trkpt>
      <trkpt lat="43.60731" lon="3.42835">
        <ele>182.5</ele>
        <time>2016-02-21T12:33:55Z</time>
      </trkpt>
      <trkpt lat="43.60733" lon="3.42832">
        <ele>183.5</ele>
        <time>2016-02-21T12:33:56Z</time>
      </trkpt>
      <trkpt lat="43.60735" lon="3.4283">
        <ele>184.5</ele>
        <time>2016-02-21T12:33:57Z</time>
      </trkpt>
      <trkpt lat="43.60738" lon="3.42831">
        <ele>185</ele>
        <time>2016-02-21T12:33:58Z</time>
      </trkpt>
      <trkpt lat="43.6074" lon="3.42829">
        <ele>185.5</ele>
        <time>2016-02-21T12:33:59Z</time>
      </trkpt>
      <trkpt lat="43.60741" lon="3.42827">
        <ele>186</ele>
        <time>2016-02-21T12:34:00Z</time>
      </trkpt>
      <trkpt lat="43.60743" lon="3.42826">
        <ele>186.5</ele>
        <time>2016-02-21T12:34:01Z</time>
      </trkpt>
      <trkpt lat="43.60745" lon="3.42824">
        <ele>188</ele>
        <time>2016-02-21T12:34:02Z</time>
      </trkpt>
      <trkpt lat="43.60747" lon="3.42821">
        <ele>188</ele>
        <time>2016-02-21T12:34:03Z</time>
      </trkpt>
      <trkpt lat="43.60748" lon="3.4282">
        <ele>188.5</ele>
        <time>2016-02-21T12:34:04Z</time>
      </trkpt>
      <trkpt lat="43.60751" lon="3.42819">
        <ele>189</ele>
        <time>2016-02-21T12:34:05Z</time>
      </trkpt>
      <trkpt lat="43.60752" lon="3.42818">
        <ele>188.5</ele>
        <time>2016-02-21T12:34:06Z</time>
      </trkpt>
      <trkpt lat="43.60753" lon="3.42816">
        <ele>188.5</ele>
        <time>2016-02-21T12:34:07Z</time>
      </trkpt>
      <trkpt lat="43.60755" lon="3.42815">
        <ele>189</ele>
        <time>2016-02-21T12:34:08Z</time>
      </trkpt>
      <trkpt lat="43.60757" lon="3.42813">
        <ele>189</ele>
        <time>2016-02-21T12:34:09Z</time>
      </trkpt>
      <trkpt lat="43.60759" lon="3.42811">
        <ele>190</ele>
        <time>2016-02-21T12:34:10Z</time>
      </trkpt>
      <trkpt lat="43.60761" lon="3.42809">
        <ele>191</ele>
        <time>2016-02-21T12:34:11Z</time>
      </trkpt>
      <trkpt lat="43.60763" lon="3.42807">
        <ele>192</ele>
        <time>2016-02-21T12:34:12Z</time>
      </trkpt>
      <trkpt lat="43.60765" lon="3.42805">
        <ele>192.5</ele>
        <time>2016-02-21T12:34:13Z</time>
      </trkpt>
      <trkpt lat="43.60766" lon="3.42803">
        <ele>193.5</ele>
        <time>2016-02-21T12:34:14Z</time>
      </trkpt>
      <trkpt lat="43.60768" lon="3.42802">
        <ele>194.5</ele>
        <time>2016-02-21T12:34:15Z</time>
      </trkpt>
      <trkpt lat="43.60769" lon="3.42799">
        <ele>195</ele>
        <time>2016-02-21T12:34:16Z</time>
      </trkpt>
      <trkpt lat="43.6077" lon="3.42797">
        <ele>194.5</ele>
        <time>2016-02-21T12:34:17Z</time>
      </trkpt>
      <trkpt lat="43.60771" lon="3.42795">
        <ele>195</ele>
        <time>2016-02-21T12:34:18Z</time>
      </trkpt>
      <trkpt lat="43.60773" lon="3.42793">
        <ele>195</ele>
        <time>2016-02-21T12:34:19Z</time>
      </trkpt>
      <trkpt lat="43.60773" lon="3.42791">
        <ele>195</ele>
        <time>2016-02-21T12:34:20Z</time>
      </trkpt>
      <trkpt lat="43.60774" lon="3.42789">
        <ele>195</ele>
        <time>2016-02-21T12:34:21Z</time>
      </trkpt>
      <trkpt lat="43.60775" lon="3.42786">
        <ele>195.5</ele>
        <time>2016-02-21T12:34:22Z</time>
      </trkpt>
      <trkpt lat="43.60776" lon="3.42784">
        <ele>196</ele>
        <time>2016-02-21T12:34:23Z</time>
      </trkpt>
      <trkpt lat="43.60778" lon="3.42782">
        <ele>196.5</ele>
        <time>2016-02-21T12:34:24Z</time>
      </trkpt>
      <trkpt lat="43.60779" lon="3.4278">
        <ele>196</ele>
        <time>2016-02-21T12:34:25Z</time>
      </trkpt>
      <trkpt lat="43.60781" lon="3.42778">
        <ele>196</ele>
        <time>2016-02-21T12:34:26Z</time>
      </trkpt>
      <trkpt lat="43.60783" lon="3.42776">
        <ele>196.5</ele>
        <time>2016-02-21T12:34:27Z</time>
      </trkpt>
      <trkpt lat="43.60784" lon="3.42774">
        <ele>196.5</ele>
        <time>2016-02-21T12:34:28Z</time>
      </trkpt>
      <trkpt lat="43.60786" lon="3.42772">
        <ele>196.5</ele>
        <time>2016-02-21T12:34:29Z</time>
      </trkpt>
      <trkpt lat="43.60787" lon="3.42771">
        <ele>196.5</ele>
        <time>2016-02-21T12:34:30Z</time>
      </trkpt>
      <trkpt lat="43.60789" lon="3.42769">
        <ele>197</ele>
        <time>2016-02-21T12:34:31Z</time>
      </trkpt>
      <trkpt lat="43.6079" lon="3.42767">
        <ele>196.5</ele>
        <time>2016-02-21T12:34:32Z</time>
      </trkpt>
      <trkpt lat="43.60793" lon="3.42766">
        <ele>197.5</ele>
        <time>2016-02-21T12:34:33Z</time>
      </trkpt>
      <trkpt lat="43.60793" lon="3.42763">
        <ele>197</ele>
        <time>2016-02-21T12:34:34Z</time>
      </trkpt>
      <trkpt lat="43.60795" lon="3.42762">
        <ele>197.5</ele>
        <time>2016-02-21T12:34:35Z</time>
      </trkpt>
      <trkpt lat="43.60796" lon="3.42759">
        <ele>197</ele>
        <time>2016-02-21T12:34:36Z</time>
      </trkpt>
      <trkpt lat="43.60798" lon="3.42757">
        <ele>197</ele>
        <time>2016-02-21T12:34:37Z</time>
      </trkpt>
      <trkpt lat="43.608" lon="3.42755">
        <ele>197</ele>
        <time>2016-02-21T12:34:38Z</time>
      </trkpt>
      <trkpt lat="43.60802" lon="3.42754">
        <ele>196.5</ele>
        <time>2016-02-21T12:34:39Z</time>
      </trkpt>
      <trkpt lat="43.60804" lon="3.42752">
        <ele>196.5</ele>
        <time>2016-02-21T12:34:40Z</time>
      </trkpt>
      <trkpt lat="43.60806" lon="3.42749">
        <ele>196</ele>
        <time>2016-02-21T12:34:41Z</time>
      </trkpt>
      <trkpt lat="43.60808" lon="3.42747">
        <ele>196.5</ele>
        <time>2016-02-21T12:34:42Z</time>
      </trkpt>
      <trkpt lat="43.6081" lon="3.42743">
        <ele>196</ele>
        <time>2016-02-21T12:34:43Z</time>
      </trkpt>
      <trkpt lat="43.60812" lon="3.42741">
        <ele>197.5</ele>
        <time>2016-02-21T12:34:44Z</time>
      </trkpt>
      <trkpt lat="43.60815" lon="3.42739">
        <ele>198</ele>
        <time>2016-02-21T12:34:45Z</time>
      </trkpt>
      <trkpt lat="43.60817" lon="3.42737">
        <ele>199</ele>
        <time>2016-02-21T12:34:46Z</time>
      </trkpt>
      <trkpt lat="43.60819" lon="3.42734">
        <ele>199</ele>
        <time>2016-02-21T12:34:47Z</time>
      </trkpt>
      <trkpt lat="43.60821" lon="3.42732">
        <ele>199.5</ele>
        <time>2016-02-21T12:34:48Z</time>
      </trkpt>
      <trkpt lat="43.60823" lon="3.42729">
        <ele>200.5</ele>
        <time>2016-02-21T12:34:49Z</time>
      </trkpt>
      <trkpt lat="43.60826" lon="3.42728">
        <ele>201.5</ele>
        <time>2016-02-21T12:34:50Z</time>
      </trkpt>
      <trkpt lat="43.60827" lon="3.42725">
        <ele>201</ele>
        <time>2016-02-21T12:34:51Z</time>
      </trkpt>
      <trkpt lat="43.6083" lon="3.42722">
        <ele>201</ele>
        <time>2016-02-21T12:34:52Z</time>
      </trkpt>
      <trkpt lat="43.60832" lon="3.4272">
        <ele>200.5</ele>
        <time>2016-02-21T12:34:53Z</time>
      </trkpt>
      <trkpt lat="43.60834" lon="3.42716">
        <ele>200.5</ele>
        <time>2016-02-21T12:34:54Z</time>
      </trkpt>
      <trkpt lat="43.60837" lon="3.42712">
        <ele>200</ele>
        <time>2016-02-21T12:34:55Z</time>
      </trkpt>
      <trkpt lat="43.60839" lon="3.42706">
        <ele>200</ele>
        <time>2016-02-21T12:34:56Z</time>
      </trkpt>
      <trkpt lat="43.6084" lon="3.427">
        <ele>200</ele>
        <time>2016-02-21T12:34:57Z</time>
      </trkpt>
      <trkpt lat="43.60841" lon="3.42693">
        <ele>200</ele>
        <time>2016-02-21T12:34:58Z</time>
      </trkpt>
      <trkpt lat="43.60843" lon="3.42685">
        <ele>200</ele>
        <time>2016-02-21T12:34:59Z</time>
      </trkpt>
      <trkpt lat="43.60845" lon="3.42677">
        <ele>199.5</ele>
        <time>2016-02-21T12:35:00Z</time>
      </trkpt>
      <trkpt lat="43.60848" lon="3.42669">
        <ele>199.5</ele>
        <time>2016-02-21T12:35:01Z</time>
      </trkpt>
      <trkpt lat="43.60852" lon="3.42661">
        <ele>199</ele>
        <time>2016-02-21T12:35:02Z</time>
      </trkpt>
      <trkpt lat="43.60856" lon="3.42654">
        <ele>199.5</ele>
        <time>2016-02-21T12:35:03Z</time>
      </trkpt>
      <trkpt lat="43.60858" lon="3.42645">
        <ele>198.5</ele>
        <time>2016-02-21T12:35:04Z</time>
      </trkpt>
      <trkpt lat="43.60862" lon="3.42638">
        <ele>198.5</ele>
        <time>2016-02-21T12:35:05Z</time>
      </trkpt>
      <trkpt lat="43.60864" lon="3.4263">
        <ele>198.5</ele>
        <time>2016-02-21T12:35:06Z</time>
      </trkpt>
      <trkpt lat="43.60866" lon="3.42625">
        <ele>199</ele>
        <time>2016-02-21T12:35:07Z</time>
      </trkpt>
      <trkpt lat="43.60862" lon="3.4262">
        <ele>199</ele>
        <time>2016-02-21T12:35:09Z</time>
      </trkpt>
      <trkpt lat="43.6086" lon="3.42618">
        <ele>199</ele>
        <time>2016-02-21T12:35:10Z</time>
      </trkpt>
      <trkpt lat="43.60857" lon="3.42616">
        <ele>199</ele>
        <time>2016-02-21T12:35:11Z</time>
      </trkpt>
      <trkpt lat="43.60856" lon="3.42615">
        <ele>199</ele>
        <time>2016-02-21T12:35:12Z</time>
      </trkpt>
      <trkpt lat="43.6085" lon="3.42609">
        <ele>198</ele>
        <time>2016-02-21T12:35:14Z</time>
      </trkpt>
      <trkpt lat="43.60848" lon="3.42608">
        <ele>199</ele>
        <time>2016-02-21T12:35:15Z</time>
      </trkpt>
      <trkpt lat="43.60846" lon="3.42605">
        <ele>199</ele>
        <time>2016-02-21T12:35:16Z</time>
      </trkpt>
      <trkpt lat="43.60844" lon="3.42604">
        <ele>199.5</ele>
        <time>2016-02-21T12:35:17Z</time>
      </trkpt>
      <trkpt lat="43.60842" lon="3.42602">
        <ele>200</ele>
        <time>2016-02-21T12:35:18Z</time>
      </trkpt>
      <trkpt lat="43.60841" lon="3.42599">
        <ele>200.5</ele>
        <time>2016-02-21T12:35:19Z</time>
      </trkpt>
      <trkpt lat="43.60839" lon="3.42596">
        <ele>201.5</ele>
        <time>2016-02-21T12:35:20Z</time>
      </trkpt>
      <trkpt lat="43.60839" lon="3.42593">
        <ele>202.5</ele>
        <time>2016-02-21T12:35:21Z</time>
      </trkpt>
      <trkpt lat="43.60837" lon="3.42589">
        <ele>202.5</ele>
        <time>2016-02-21T12:35:22Z</time>
      </trkpt>
      <trkpt lat="43.60838" lon="3.42586">
        <ele>201.5</ele>
        <time>2016-02-21T12:35:23Z</time>
      </trkpt>
      <trkpt lat="43.60838" lon="3.42583">
        <ele>202</ele>
        <time>2016-02-21T12:35:24Z</time>
      </trkpt>
      <trkpt lat="43.60838" lon="3.42579">
        <ele>202.5</ele>
        <time>2016-02-21T12:35:25Z</time>
      </trkpt>
      <trkpt lat="43.60838" lon="3.42576">
        <ele>203</ele>
        <time>2016-02-21T12:35:26Z</time>
      </trkpt>
      <trkpt lat="43.60839" lon="3.42572">
        <ele>203</ele>
        <time>2016-02-21T12:35:27Z</time>
      </trkpt>
      <trkpt lat="43.60839" lon="3.42569">
        <ele>204</ele>
        <time>2016-02-21T12:35:28Z</time>
      </trkpt>
      <trkpt lat="43.60839" lon="3.42566">
        <ele>205</ele>
        <time>2016-02-21T12:35:29Z</time>
      </trkpt>
      <trkpt lat="43.6084" lon="3.42563">
        <ele>206.5</ele>
        <time>2016-02-21T12:35:30Z</time>
      </trkpt>
      <trkpt lat="43.6084" lon="3.42559">
        <ele>207</ele>
        <time>2016-02-21T12:35:31Z</time>
      </trkpt>
      <trkpt lat="43.60841" lon="3.42556">
        <ele>207</ele>
        <time>2016-02-21T12:35:32Z</time>
      </trkpt>
      <trkpt lat="43.60841" lon="3.42553">
        <ele>207.5</ele>
        <time>2016-02-21T12:35:33Z</time>
      </trkpt>
      <trkpt lat="43.60841" lon="3.4255">
        <ele>209</ele>
        <time>2016-02-21T12:35:34Z</time>
      </trkpt>
      <trkpt lat="43.60842" lon="3.42547">
        <ele>210.5</ele>
        <time>2016-02-21T12:35:35Z</time>
      </trkpt>
      <trkpt lat="43.60842" lon="3.42545">
        <ele>212</ele>
        <time>2016-02-21T12:35:36Z</time>
      </trkpt>
      <trkpt lat="43.60843" lon="3.42542">
        <ele>213</ele>
        <time>2016-02-21T12:35:37Z</time>
      </trkpt>
      <trkpt lat="43.60846" lon="3.42542">
        <ele>213</ele>
        <time>2016-02-21T12:35:38Z</time>
      </trkpt>
      <trkpt lat="43.6085" lon="3.42541">
        <ele>213</ele>
        <time>2016-02-21T12:35:39Z</time>
      </trkpt>
      <trkpt lat="43.60851" lon="3.42538">
        <ele>213</ele>
        <time>2016-02-21T12:35:40Z</time>
      </trkpt>
      <trkpt lat="43.60852" lon="3.42535">
        <ele>213</ele>
        <time>2016-02-21T12:35:41Z</time>
      </trkpt>
      <trkpt lat="43.60852" lon="3.42531">
        <ele>211.5</ele>
        <time>2016-02-21T12:35:42Z</time>
      </trkpt>
      <trkpt lat="43.60853" lon="3.42528">
        <ele>212</ele>
        <time>2016-02-21T12:35:43Z</time>
      </trkpt>
      <trkpt lat="43.60854" lon="3.42525">
        <ele>212</ele>
        <time>2016-02-21T12:35:44Z</time>
      </trkpt>
      <trkpt lat="43.60855" lon="3.42522">
        <ele>212</ele>
        <time>2016-02-21T12:35:45Z</time>
      </trkpt>
      <trkpt lat="43.60855" lon="3.4252">
        <ele>211.5</ele>
        <time>2016-02-21T12:35:46Z</time>
      </trkpt>
      <trkpt lat="43.60856" lon="3.42517">
        <ele>212</ele>
        <time>2016-02-21T12:35:47Z</time>
      </trkpt>
      <trkpt lat="43.60856" lon="3.42513">
        <ele>212</ele>
        <time>2016-02-21T12:35:48Z</time>
      </trkpt>
      <trkpt lat="43.60856" lon="3.4251">
        <ele>212</ele>
        <time>2016-02-21T12:35:49Z</time>
      </trkpt>
      <trkpt lat="43.60856" lon="3.42506">
        <ele>211</ele>
        <time>2016-02-21T12:35:50Z</time>
      </trkpt>
      <trkpt lat="43.60857" lon="3.42503">
        <ele>211</ele>
        <time>2016-02-21T12:35:51Z</time>
      </trkpt>
      <trkpt lat="43.60857" lon="3.425">
        <ele>210.5</ele>
        <time>2016-02-21T12:35:52Z</time>
      </trkpt>
      <trkpt lat="43.60859" lon="3.42497">
        <ele>209.5</ele>
        <time>2016-02-21T12:35:53Z</time>
      </trkpt>
      <trkpt lat="43.6086" lon="3.42494">
        <ele>210.5</ele>
        <time>2016-02-21T12:35:54Z</time>
      </trkpt>
      <trkpt lat="43.6086" lon="3.4249">
        <ele>210.5</ele>
        <time>2016-02-21T12:35:55Z</time>
      </trkpt>
      <trkpt lat="43.60861" lon="3.42487">
        <ele>210</ele>
        <time>2016-02-21T12:35:56Z</time>
      </trkpt>
      <trkpt lat="43.60861" lon="3.42483">
        <ele>210.5</ele>
        <time>2016-02-21T12:35:57Z</time>
      </trkpt>
      <trkpt lat="43.60862" lon="3.42479">
        <ele>211</ele>
        <time>2016-02-21T12:35:58Z</time>
      </trkpt>
      <trkpt lat="43.60864" lon="3.42477">
        <ele>211.5</ele>
        <time>2016-02-21T12:35:59Z</time>
      </trkpt>
      <trkpt lat="43.60865" lon="3.42473">
        <ele>211.5</ele>
        <time>2016-02-21T12:36:00Z</time>
      </trkpt>
      <trkpt lat="43.60865" lon="3.42469">
        <ele>211</ele>
        <time>2016-02-21T12:36:01Z</time>
      </trkpt>
      <trkpt lat="43.60866" lon="3.42465">
        <ele>211.5</ele>
        <time>2016-02-21T12:36:02Z</time>
      </trkpt>
      <trkpt lat="43.60866" lon="3.42461">
        <ele>212</ele>
        <time>2016-02-21T12:36:03Z</time>
      </trkpt>
      <trkpt lat="43.60867" lon="3.42457">
        <ele>212.5</ele>
        <time>2016-02-21T12:36:04Z</time>
      </trkpt>
      <trkpt lat="43.60867" lon="3.42454">
        <ele>213.5</ele>
        <time>2016-02-21T12:36:05Z</time>
      </trkpt>
      <trkpt lat="43.60868" lon="3.42451">
        <ele>214</ele>
        <time>2016-02-21T12:36:06Z</time>
      </trkpt>
      <trkpt lat="43.60868" lon="3.42448">
        <ele>213.5</ele>
        <time>2016-02-21T12:36:06Z</time>
      </trkpt>
      <trkpt lat="43.60869" lon="3.42445">
        <ele>214</ele>
        <time>2016-02-21T12:36:07Z</time>
      </trkpt>
      <trkpt lat="43.6087" lon="3.42442">
        <ele>214</ele>
        <time>2016-02-21T12:36:08Z</time>
      </trkpt>
      <trkpt lat="43.60872" lon="3.4244">
        <ele>214</ele>
        <time>2016-02-21T12:36:09Z</time>
      </trkpt>
      <trkpt lat="43.60872" lon="3.42437">
        <ele>213.5</ele>
        <time>2016-02-21T12:36:10Z</time>
      </trkpt>
      <trkpt lat="43.60873" lon="3.42433">
        <ele>213.5</ele>
        <time>2016-02-21T12:36:11Z</time>
      </trkpt>
      <trkpt lat="43.60873" lon="3.4243">
        <ele>213</ele>
        <time>2016-02-21T12:36:12Z</time>
      </trkpt>
      <trkpt lat="43.60875" lon="3.42426">
        <ele>213</ele>
        <time>2016-02-21T12:36:13Z</time>
      </trkpt>
      <trkpt lat="43.60876" lon="3.42422">
        <ele>213.5</ele>
        <time>2016-02-21T12:36:14Z</time>
      </trkpt>
      <trkpt lat="43.60877" lon="3.42417">
        <ele>212.5</ele>
        <time>2016-02-21T12:36:15Z</time>
      </trkpt>
      <trkpt lat="43.60877" lon="3.42413">
        <ele>212.5</ele>
        <time>2016-02-21T12:36:16Z</time>
      </trkpt>
      <trkpt lat="43.60879" lon="3.42408">
        <ele>214</ele>
        <time>2016-02-21T12:36:17Z</time>
      </trkpt>
      <trkpt lat="43.6088" lon="3.42404">
        <ele>214</ele>
        <time>2016-02-21T12:36:18Z</time>
      </trkpt>
      <trkpt lat="43.60882" lon="3.424">
        <ele>214.5</ele>
        <time>2016-02-21T12:36:19Z</time>
      </trkpt>
      <trkpt lat="43.60883" lon="3.42396">
        <ele>214.5</ele>
        <time>2016-02-21T12:36:20Z</time>
      </trkpt>
      <trkpt lat="43.60884" lon="3.4239">
        <ele>214</ele>
        <time>2016-02-21T12:36:21Z</time>
      </trkpt>
      <trkpt lat="43.60884" lon="3.42386">
        <ele>214</ele>
        <time>2016-02-21T12:36:22Z</time>
      </trkpt>
      <trkpt lat="43.60885" lon="3.42382">
        <ele>214.5</ele>
        <time>2016-02-21T12:36:23Z</time>
      </trkpt>
      <trkpt lat="43.60884" lon="3.42377">
        <ele>216</ele>
        <time>2016-02-21T12:36:24Z</time>
      </trkpt>
      <trkpt lat="43.60885" lon="3.42374">
        <ele>217</ele>
        <time>2016-02-21T12:36:25Z</time>
      </trkpt>
      <trkpt lat="43.60885" lon="3.4237">
        <ele>218</ele>
        <time>2016-02-21T12:36:26Z</time>
      </trkpt>
      <trkpt lat="43.60886" lon="3.42366">
        <ele>219</ele>
        <time>2016-02-21T12:36:27Z</time>
      </trkpt>
      <trkpt lat="43.60886" lon="3.42362">
        <ele>219</ele>
        <time>2016-02-21T12:36:28Z</time>
      </trkpt>
      <trkpt lat="43.60886" lon="3.42358">
        <ele>219.5</ele>
        <time>2016-02-21T12:36:29Z</time>
      </trkpt>
      <trkpt lat="43.60887" lon="3.42354">
        <ele>219.5</ele>
        <time>2016-02-21T12:36:30Z</time>
      </trkpt>
      <trkpt lat="43.60887" lon="3.42351">
        <ele>220.5</ele>
        <time>2016-02-21T12:36:31Z</time>
      </trkpt>
      <trkpt lat="43.60888" lon="3.42347">
        <ele>221</ele>
        <time>2016-02-21T12:36:32Z</time>
      </trkpt>
      <trkpt lat="43.60889" lon="3.42344">
        <ele>221.5</ele>
        <time>2016-02-21T12:36:33Z</time>
      </trkpt>
      <trkpt lat="43.60889" lon="3.42341">
        <ele>221.5</ele>
        <time>2016-02-21T12:36:34Z</time>
      </trkpt>
      <trkpt lat="43.60892" lon="3.42339">
        <ele>220.5</ele>
        <time>2016-02-21T12:36:35Z</time>
      </trkpt>
      <trkpt lat="43.60893" lon="3.42336">
        <ele>221</ele>
        <time>2016-02-21T12:36:36Z</time>
      </trkpt>
      <trkpt lat="43.60894" lon="3.42331">
        <ele>219.5</ele>
        <time>2016-02-21T12:36:37Z</time>
      </trkpt>
      <trkpt lat="43.60895" lon="3.42328">
        <ele>219</ele>
        <time>2016-02-21T12:36:38Z</time>
      </trkpt>
      <trkpt lat="43.60896" lon="3.42325">
        <ele>219</ele>
        <time>2016-02-21T12:36:39Z</time>
      </trkpt>
      <trkpt lat="43.60898" lon="3.42321">
        <ele>219</ele>
        <time>2016-02-21T12:36:40Z</time>
      </trkpt>
      <trkpt lat="43.609" lon="3.42318">
        <ele>219.5</ele>
        <time>2016-02-21T12:36:41Z</time>
      </trkpt>
      <trkpt lat="43.60901" lon="3.42314">
        <ele>219</ele>
        <time>2016-02-21T12:36:42Z</time>
      </trkpt>
      <trkpt lat="43.60901" lon="3.4231">
        <ele>219</ele>
        <time>2016-02-21T12:36:43Z</time>
      </trkpt>
      <trkpt lat="43.60902" lon="3.42306">
        <ele>219</ele>
        <time>2016-02-21T12:36:44Z</time>
      </trkpt>
      <trkpt lat="43.60904" lon="3.42303">
        <ele>218.5</ele>
        <time>2016-02-21T12:36:45Z</time>
      </trkpt>
      <trkpt lat="43.60905" lon="3.42299">
        <ele>217.5</ele>
        <time>2016-02-21T12:36:46Z</time>
      </trkpt>
      <trkpt lat="43.60907" lon="3.42297">
        <ele>217</ele>
        <time>2016-02-21T12:36:47Z</time>
      </trkpt>
      <trkpt lat="43.60909" lon="3.42294">
        <ele>216.5</ele>
        <time>2016-02-21T12:36:48Z</time>
      </trkpt>
      <trkpt lat="43.6091" lon="3.42292">
        <ele>215</ele>
        <time>2016-02-21T12:36:49Z</time>
      </trkpt>
      <trkpt lat="43.60912" lon="3.42289">
        <ele>214.5</ele>
        <time>2016-02-21T12:36:50Z</time>
      </trkpt>
      <trkpt lat="43.60914" lon="3.42287">
        <ele>214</ele>
        <time>2016-02-21T12:36:51Z</time>
      </trkpt>
      <trkpt lat="43.60916" lon="3.42286">
        <ele>214</ele>
        <time>2016-02-21T12:36:52Z</time>
      </trkpt>
      <trkpt lat="43.60918" lon="3.42284">
        <ele>213.5</ele>
        <time>2016-02-21T12:36:53Z</time>
      </trkpt>
      <trkpt lat="43.6092" lon="3.42282">
        <ele>213.5</ele>
        <time>2016-02-21T12:36:54Z</time>
      </trkpt>
      <trkpt lat="43.60923" lon="3.4228">
        <ele>213.5</ele>
        <time>2016-02-21T12:36:55Z</time>
      </trkpt>
      <trkpt lat="43.60925" lon="3.42278">
        <ele>213.5</ele>
        <time>2016-02-21T12:36:56Z</time>
      </trkpt>
      <trkpt lat="43.60926" lon="3.42276">
        <ele>213.5</ele>
        <time>2016-02-21T12:36:57Z</time>
      </trkpt>
      <trkpt lat="43.60928" lon="3.42274">
        <ele>213</ele>
        <time>2016-02-21T12:36:58Z</time>
      </trkpt>
      <trkpt lat="43.6093" lon="3.42273">
        <ele>213</ele>
        <time>2016-02-21T12:36:59Z</time>
      </trkpt>
      <trkpt lat="43.60932" lon="3.42271">
        <ele>212.5</ele>
        <time>2016-02-21T12:37:00Z</time>
      </trkpt>
      <trkpt lat="43.60934" lon="3.4227">
        <ele>212</ele>
        <time>2016-02-21T12:37:01Z</time>
      </trkpt>
      <trkpt lat="43.60936" lon="3.42268">
        <ele>212</ele>
        <time>2016-02-21T12:37:02Z</time>
      </trkpt>
      <trkpt lat="43.60938" lon="3.42267">
        <ele>212</ele>
        <time>2016-02-21T12:37:03Z</time>
      </trkpt>
      <trkpt lat="43.6094" lon="3.42266">
        <ele>212</ele>
        <time>2016-02-21T12:37:04Z</time>
      </trkpt>
      <trkpt lat="43.60942" lon="3.42266">
        <ele>212.5</ele>
        <time>2016-02-21T12:37:05Z</time>
      </trkpt>
      <trkpt lat="43.60944" lon="3.42264">
        <ele>212.5</ele>
        <time>2016-02-21T12:37:06Z</time>
      </trkpt>
      <trkpt lat="43.60945" lon="3.42263">
        <ele>212</ele>
        <time>2016-02-21T12:37:07Z</time>
      </trkpt>
      <trkpt lat="43.60947" lon="3.42262">
        <ele>211</ele>
        <time>2016-02-21T12:37:08Z</time>
      </trkpt>
      <trkpt lat="43.60948" lon="3.42261">
        <ele>210.5</ele>
        <time>2016-02-21T12:37:09Z</time>
      </trkpt>
      <trkpt lat="43.6095" lon="3.42259">
        <ele>210</ele>
        <time>2016-02-21T12:37:10Z</time>
      </trkpt>
      <trkpt lat="43.60952" lon="3.42258">
        <ele>209.5</ele>
        <time>2016-02-21T12:37:11Z</time>
      </trkpt>
      <trkpt lat="43.60955" lon="3.42257">
        <ele>209.5</ele>
        <time>2016-02-21T12:37:12Z</time>
      </trkpt>
      <trkpt lat="43.60957" lon="3.42256">
        <ele>209.5</ele>
        <time>2016-02-21T12:37:13Z</time>
      </trkpt>
      <trkpt lat="43.6096" lon="3.42255">
        <ele>209.5</ele>
        <time>2016-02-21T12:37:14Z</time>
      </trkpt>
      <trkpt lat="43.60962" lon="3.42254">
        <ele>210.5</ele>
        <time>2016-02-21T12:37:15Z</time>
      </trkpt>
      <trkpt lat="43.60965" lon="3.42252">
        <ele>211</ele>
        <time>2016-02-21T12:37:16Z</time>
      </trkpt>
      <trkpt lat="43.60967" lon="3.4225">
        <ele>211</ele>
        <time>2016-02-21T12:37:17Z</time>
      </trkpt>
      <trkpt lat="43.60969" lon="3.42248">
        <ele>212</ele>
        <time>2016-02-21T12:37:18Z</time>
      </trkpt>
      <trkpt lat="43.6097" lon="3.42246">
        <ele>212</ele>
        <time>2016-02-21T12:37:19Z</time>
      </trkpt>
      <trkpt lat="43.60971" lon="3.42243">
        <ele>212.5</ele>
        <time>2016-02-21T12:37:20Z</time>
      </trkpt>
      <trkpt lat="43.60972" lon="3.42242">
        <ele>212.5</ele>
        <time>2016-02-21T12:37:21Z</time>
      </trkpt>
      <trkpt lat="43.60973" lon="3.4224">
        <ele>213.5</ele>
        <time>2016-02-21T12:37:22Z</time>
      </trkpt>
      <trkpt lat="43.60975" lon="3.42238">
        <ele>213.5</ele>
        <time>2016-02-21T12:37:23Z</time>
      </trkpt>
      <trkpt lat="43.60976" lon="3.42236">
        <ele>213.5</ele>
        <time>2016-02-21T12:37:24Z</time>
      </trkpt>
      <trkpt lat="43.60977" lon="3.42234">
        <ele>214</ele>
        <time>2016-02-21T12:37:25Z</time>
      </trkpt>
      <trkpt lat="43.60978" lon="3.42232">
        <ele>214</ele>
        <time>2016-02-21T12:37:26Z</time>
      </trkpt>
      <trkpt lat="43.60979" lon="3.4223">
        <ele>214</ele>
        <time>2016-02-21T12:37:27Z</time>
      </trkpt>
      <trkpt lat="43.60981" lon="3.42229">
        <ele>214</ele>
        <time>2016-02-21T12:37:28Z</time>
      </trkpt>
      <trkpt lat="43.60982" lon="3.42227">
        <ele>214.5</ele>
        <time>2016-02-21T12:37:29Z</time>
      </trkpt>
      <trkpt lat="43.60984" lon="3.42226">
        <ele>214.5</ele>
        <time>2016-02-21T12:37:30Z</time>
      </trkpt>
      <trkpt lat="43.60986" lon="3.42225">
        <ele>214.5</ele>
        <time>2016-02-21T12:37:31Z</time>
      </trkpt>
      <trkpt lat="43.60988" lon="3.42223">
        <ele>215</ele>
        <time>2016-02-21T12:37:32Z</time>
      </trkpt>
      <trkpt lat="43.6099" lon="3.42222">
        <ele>215</ele>
        <time>2016-02-21T12:37:33Z</time>
      </trkpt>
      <trkpt lat="43.60992" lon="3.42221">
        <ele>216</ele>
        <time>2016-02-21T12:37:34Z</time>
      </trkpt>
      <trkpt lat="43.60995" lon="3.4222">
        <ele>216.5</ele>
        <time>2016-02-21T12:37:35Z</time>
      </trkpt>
      <trkpt lat="43.60997" lon="3.42219">
        <ele>217</ele>
        <time>2016-02-21T12:37:36Z</time>
      </trkpt>
      <trkpt lat="43.60999" lon="3.42217">
        <ele>217.5</ele>
        <time>2016-02-21T12:37:37Z</time>
      </trkpt>
      <trkpt lat="43.61001" lon="3.42216">
        <ele>218</ele>
        <time>2016-02-21T12:37:38Z</time>
      </trkpt>
      <trkpt lat="43.61002" lon="3.42214">
        <ele>218</ele>
        <time>2016-02-21T12:37:39Z</time>
      </trkpt>
      <trkpt lat="43.61004" lon="3.42213">
        <ele>218.5</ele>
        <time>2016-02-21T12:37:40Z</time>
      </trkpt>
      <trkpt lat="43.61006" lon="3.42212">
        <ele>218.5</ele>
        <time>2016-02-21T12:37:41Z</time>
      </trkpt>
      <trkpt lat="43.61008" lon="3.4221">
        <ele>218.5</ele>
        <time>2016-02-21T12:37:42Z</time>
      </trkpt>
      <trkpt lat="43.61009" lon="3.42209">
        <ele>218.5</ele>
        <time>2016-02-21T12:37:43Z</time>
      </trkpt>
      <trkpt lat="43.61012" lon="3.42208">
        <ele>219.5</ele>
        <time>2016-02-21T12:37:44Z</time>
      </trkpt>
      <trkpt lat="43.61014" lon="3.42206">
        <ele>220</ele>
        <time>2016-02-21T12:37:45Z</time>
      </trkpt>
      <trkpt lat="43.61015" lon="3.42204">
        <ele>221</ele>
        <time>2016-02-21T12:37:46Z</time>
      </trkpt>
      <trkpt lat="43.61017" lon="3.42202">
        <ele>221</ele>
        <time>2016-02-21T12:37:47Z</time>
      </trkpt>
      <trkpt lat="43.61018" lon="3.422">
        <ele>221</ele>
        <time>2016-02-21T12:37:48Z</time>
      </trkpt>
      <trkpt lat="43.61019" lon="3.42198">
        <ele>221</ele>
        <time>2016-02-21T12:37:49Z</time>
      </trkpt>
      <trkpt lat="43.61021" lon="3.42196">
        <ele>221</ele>
        <time>2016-02-21T12:37:50Z</time>
      </trkpt>
      <trkpt lat="43.61023" lon="3.42194">
        <ele>221</ele>
        <time>2016-02-21T12:37:51Z</time>
      </trkpt>
      <trkpt lat="43.61025" lon="3.42192">
        <ele>221.5</ele>
        <time>2016-02-21T12:37:52Z</time>
      </trkpt>
      <trkpt lat="43.61026" lon="3.42189">
        <ele>221</ele>
        <time>2016-02-21T12:37:53Z</time>
      </trkpt>
      <trkpt lat="43.61027" lon="3.42187">
        <ele>221</ele>
        <time>2016-02-21T12:37:54Z</time>
      </trkpt>
      <trkpt lat="43.61028" lon="3.42184">
        <ele>220.5</ele>
        <time>2016-02-21T12:37:55Z</time>
      </trkpt>
      <trkpt lat="43.6103" lon="3.42182">
        <ele>220.5</ele>
        <time>2016-02-21T12:37:56Z</time>
      </trkpt>
      <trkpt lat="43.61032" lon="3.42179">
        <ele>221</ele>
        <time>2016-02-21T12:37:57Z</time>
      </trkpt>
      <trkpt lat="43.61034" lon="3.42176">
        <ele>221.5</ele>
        <time>2016-02-21T12:37:58Z</time>
      </trkpt>
      <trkpt lat="43.61037" lon="3.42174">
        <ele>223</ele>
        <time>2016-02-21T12:37:59Z</time>
      </trkpt>
      <trkpt lat="43.61038" lon="3.42171">
        <ele>223.5</ele>
        <time>2016-02-21T12:38:00Z</time>
      </trkpt>
      <trkpt lat="43.6104" lon="3.42168">
        <ele>224</ele>
        <time>2016-02-21T12:38:01Z</time>
      </trkpt>
      <trkpt lat="43.6104" lon="3.42165">
        <ele>224</ele>
        <time>2016-02-21T12:38:02Z</time>
      </trkpt>
      <trkpt lat="43.61042" lon="3.42162">
        <ele>224</ele>
        <time>2016-02-21T12:38:03Z</time>
      </trkpt>
      <trkpt lat="43.61043" lon="3.42158">
        <ele>224</ele>
        <time>2016-02-21T12:38:04Z</time>
      </trkpt>
      <trkpt lat="43.61044" lon="3.42155">
        <ele>224</ele>
        <time>2016-02-21T12:38:05Z</time>
      </trkpt>
      <trkpt lat="43.61045" lon="3.42152">
        <ele>224</ele>
        <time>2016-02-21T12:38:06Z</time>
      </trkpt>
      <trkpt lat="43.61046" lon="3.4215">
        <ele>226</ele>
        <time>2016-02-21T12:38:07Z</time>
      </trkpt>
      <trkpt lat="43.61048" lon="3.42148">
        <ele>224.5</ele>
        <time>2016-02-21T12:38:08Z</time>
      </trkpt>
      <trkpt lat="43.61049" lon="3.42145">
        <ele>224</ele>
        <time>2016-02-21T12:38:09Z</time>
      </trkpt>
      <trkpt lat="43.6105" lon="3.42143">
        <ele>224.5</ele>
        <time>2016-02-21T12:38:10Z</time>
      </trkpt>
      <trkpt lat="43.6105" lon="3.42141">
        <ele>223.5</ele>
        <time>2016-02-21T12:38:11Z</time>
      </trkpt>
      <trkpt lat="43.61051" lon="3.42139">
        <ele>223.5</ele>
        <time>2016-02-21T12:38:12Z</time>
      </trkpt>
      <trkpt lat="43.61052" lon="3.42137">
        <ele>223.5</ele>
        <time>2016-02-21T12:38:13Z</time>
      </trkpt>
      <trkpt lat="43.61053" lon="3.42135">
        <ele>223.5</ele>
        <time>2016-02-21T12:38:14Z</time>
      </trkpt>
      <trkpt lat="43.61055" lon="3.42131">
        <ele>226</ele>
        <time>2016-02-21T12:38:15Z</time>
      </trkpt>
      <trkpt lat="43.61055" lon="3.42129">
        <ele>226</ele>
        <time>2016-02-21T12:38:16Z</time>
      </trkpt>
      <trkpt lat="43.61056" lon="3.42126">
        <ele>226</ele>
        <time>2016-02-21T12:38:17Z</time>
      </trkpt>
      <trkpt lat="43.61056" lon="3.42124">
        <ele>226</ele>
        <time>2016-02-21T12:38:18Z</time>
      </trkpt>
      <trkpt lat="43.61057" lon="3.42121">
        <ele>226</ele>
        <time>2016-02-21T12:38:19Z</time>
      </trkpt>
      <trkpt lat="43.61057" lon="3.42118">
        <ele>226.5</ele>
        <time>2016-02-21T12:38:20Z</time>
      </trkpt>
      <trkpt lat="43.61058" lon="3.42115">
        <ele>226.5</ele>
        <time>2016-02-21T12:38:21Z</time>
      </trkpt>
      <trkpt lat="43.61059" lon="3.42112">
        <ele>226.5</ele>
        <time>2016-02-21T12:38:22Z</time>
      </trkpt>
      <trkpt lat="43.6106" lon="3.42109">
        <ele>227</ele>
        <time>2016-02-21T12:38:23Z</time>
      </trkpt>
      <trkpt lat="43.61061" lon="3.42105">
        <ele>227</ele>
        <time>2016-02-21T12:38:24Z</time>
      </trkpt>
      <trkpt lat="43.61062" lon="3.42102">
        <ele>227.5</ele>
        <time>2016-02-21T12:38:25Z</time>
      </trkpt>
      <trkpt lat="43.61061" lon="3.421">
        <ele>226</ele>
        <time>2016-02-21T12:38:26Z</time>
      </trkpt>
      <trkpt lat="43.61063" lon="3.42098">
        <ele>226</ele>
        <time>2016-02-21T12:38:27Z</time>
      </trkpt>
      <trkpt lat="43.61063" lon="3.42096">
        <ele>227</ele>
        <time>2016-02-21T12:38:28Z</time>
      </trkpt>
      <trkpt lat="43.61064" lon="3.42094">
        <ele>228</ele>
        <time>2016-02-21T12:38:29Z</time>
      </trkpt>
      <trkpt lat="43.61065" lon="3.42092">
        <ele>227.5</ele>
        <time>2016-02-21T12:38:30Z</time>
      </trkpt>
      <trkpt lat="43.61066" lon="3.4209">
        <ele>227.5</ele>
        <time>2016-02-21T12:38:31Z</time>
      </trkpt>
      <trkpt lat="43.61067" lon="3.42087">
        <ele>229</ele>
        <time>2016-02-21T12:38:32Z</time>
      </trkpt>
      <trkpt lat="43.61068" lon="3.42085">
        <ele>229</ele>
        <time>2016-02-21T12:38:33Z</time>
      </trkpt>
      <trkpt lat="43.61069" lon="3.42083">
        <ele>229</ele>
        <time>2016-02-21T12:38:34Z</time>
      </trkpt>
      <trkpt lat="43.6107" lon="3.4208">
        <ele>229</ele>
        <time>2016-02-21T12:38:35Z</time>
      </trkpt>
      <trkpt lat="43.61071" lon="3.42079">
        <ele>228.5</ele>
        <time>2016-02-21T12:38:36Z</time>
      </trkpt>
      <trkpt lat="43.61071" lon="3.42077">
        <ele>228</ele>
        <time>2016-02-21T12:38:37Z</time>
      </trkpt>
      <trkpt lat="43.61072" lon="3.42075">
        <ele>228</ele>
        <time>2016-02-21T12:38:38Z</time>
      </trkpt>
      <trkpt lat="43.61073" lon="3.42073">
        <ele>228.5</ele>
        <time>2016-02-21T12:38:39Z</time>
      </trkpt>
      <trkpt lat="43.61074" lon="3.42071">
        <ele>229</ele>
        <time>2016-02-21T12:38:40Z</time>
      </trkpt>
      <trkpt lat="43.61076" lon="3.42067">
        <ele>228.5</ele>
        <time>2016-02-21T12:38:41Z</time>
      </trkpt>
      <trkpt lat="43.61077" lon="3.42065">
        <ele>229</ele>
        <time>2016-02-21T12:38:42Z</time>
      </trkpt>
      <trkpt lat="43.61078" lon="3.42063">
        <ele>229.5</ele>
        <time>2016-02-21T12:38:43Z</time>
      </trkpt>
      <trkpt lat="43.61079" lon="3.42061">
        <ele>229</ele>
        <time>2016-02-21T12:38:44Z</time>
      </trkpt>
      <trkpt lat="43.6108" lon="3.42059">
        <ele>228.5</ele>
        <time>2016-02-21T12:38:45Z</time>
      </trkpt>
      <trkpt lat="43.61081" lon="3.42057">
        <ele>228.5</ele>
        <time>2016-02-21T12:38:46Z</time>
      </trkpt>
      <trkpt lat="43.61083" lon="3.42054">
        <ele>229</ele>
        <time>2016-02-21T12:38:47Z</time>
      </trkpt>
      <trkpt lat="43.61083" lon="3.42052">
        <ele>229</ele>
        <time>2016-02-21T12:38:48Z</time>
      </trkpt>
      <trkpt lat="43.61084" lon="3.4205">
        <ele>229</ele>
        <time>2016-02-21T12:38:49Z</time>
      </trkpt>
      <trkpt lat="43.61085" lon="3.42048">
        <ele>227.5</ele>
        <time>2016-02-21T12:38:50Z</time>
      </trkpt>
      <trkpt lat="43.61086" lon="3.42045">
        <ele>227</ele>
        <time>2016-02-21T12:38:51Z</time>
      </trkpt>
      <trkpt lat="43.61088" lon="3.42042">
        <ele>226.5</ele>
        <time>2016-02-21T12:38:52Z</time>
      </trkpt>
      <trkpt lat="43.61089" lon="3.42039">
        <ele>226.5</ele>
        <time>2016-02-21T12:38:53Z</time>
      </trkpt>
      <trkpt lat="43.6109" lon="3.42037">
        <ele>225</ele>
        <time>2016-02-21T12:38:54Z</time>
      </trkpt>
      <trkpt lat="43.6109" lon="3.42034">
        <ele>225</ele>
        <time>2016-02-21T12:38:55Z</time>
      </trkpt>
      <trkpt lat="43.6109" lon="3.42032">
        <ele>223.5</ele>
        <time>2016-02-21T12:38:56Z</time>
      </trkpt>
      <trkpt lat="43.6109" lon="3.4203">
        <ele>222</ele>
        <time>2016-02-21T12:38:57Z</time>
      </trkpt>
      <trkpt lat="43.61091" lon="3.42028">
        <ele>220.5</ele>
        <time>2016-02-21T12:38:58Z</time>
      </trkpt>
      <trkpt lat="43.61092" lon="3.42024">
        <ele>220.5</ele>
        <time>2016-02-21T12:38:59Z</time>
      </trkpt>
      <trkpt lat="43.61093" lon="3.42021">
        <ele>220.5</ele>
        <time>2016-02-21T12:39:00Z</time>
      </trkpt>
      <trkpt lat="43.61095" lon="3.42018">
        <ele>221</ele>
        <time>2016-02-21T12:39:01Z</time>
      </trkpt>
      <trkpt lat="43.61096" lon="3.42014">
        <ele>221.5</ele>
        <time>2016-02-21T12:39:02Z</time>
      </trkpt>
      <trkpt lat="43.61098" lon="3.4201">
        <ele>222</ele>
        <time>2016-02-21T12:39:03Z</time>
      </trkpt>
      <trkpt lat="43.611" lon="3.42005">
        <ele>223.5</ele>
        <time>2016-02-21T12:39:04Z</time>
      </trkpt>
      <trkpt lat="43.61101" lon="3.42002">
        <ele>225</ele>
        <time>2016-02-21T12:39:05Z</time>
      </trkpt>
      <trkpt lat="43.61107" lon="3.41994">
        <ele>232</ele>
        <time>2016-02-21T12:39:07Z</time>
      </trkpt>
      <trkpt lat="43.6111" lon="3.41991">
        <ele>236.5</ele>
        <time>2016-02-21T12:39:08Z</time>
      </trkpt>
      <trkpt lat="43.61114" lon="3.41986">
        <ele>242.5</ele>
        <time>2016-02-21T12:39:10Z</time>
      </trkpt>
      <trkpt lat="43.61114" lon="3.41983">
        <ele>245</ele>
        <time>2016-02-21T12:39:11Z</time>
      </trkpt>
      <trkpt lat="43.61115" lon="3.4198">
        <ele>246</ele>
        <time>2016-02-21T12:39:12Z</time>
      </trkpt>
      <trkpt lat="43.61116" lon="3.41977">
        <ele>247.5</ele>
        <time>2016-02-21T12:39:13Z</time>
      </trkpt>
      <trkpt lat="43.61116" lon="3.41975">
        <ele>248</ele>
        <time>2016-02-21T12:39:14Z</time>
      </trkpt>
      <trkpt lat="43.61117" lon="3.41971">
        <ele>248</ele>
        <time>2016-02-21T12:39:15Z</time>
      </trkpt>
      <trkpt lat="43.61118" lon="3.41968">
        <ele>249</ele>
        <time>2016-02-21T12:39:16Z</time>
      </trkpt>
      <trkpt lat="43.61119" lon="3.41966">
        <ele>247.5</ele>
        <time>2016-02-21T12:39:17Z</time>
      </trkpt>
      <trkpt lat="43.6112" lon="3.41963">
        <ele>249</ele>
        <time>2016-02-21T12:39:18Z</time>
      </trkpt>
      <trkpt lat="43.6112" lon="3.4196">
        <ele>250</ele>
        <time>2016-02-21T12:39:19Z</time>
      </trkpt>
      <trkpt lat="43.6112" lon="3.41956">
        <ele>250.5</ele>
        <time>2016-02-21T12:39:20Z</time>
      </trkpt>
      <trkpt lat="43.6112" lon="3.41954">
        <ele>251.5</ele>
        <time>2016-02-21T12:39:21Z</time>
      </trkpt>
      <trkpt lat="43.6112" lon="3.41951">
        <ele>252.5</ele>
        <time>2016-02-21T12:39:22Z</time>
      </trkpt>
      <trkpt lat="43.6112" lon="3.41948">
        <ele>254.5</ele>
        <time>2016-02-21T12:39:23Z</time>
      </trkpt>
      <trkpt lat="43.6112" lon="3.41945">
        <ele>255</ele>
        <time>2016-02-21T12:39:23Z</time>
      </trkpt>
      <trkpt lat="43.6112" lon="3.41942">
        <ele>255.5</ele>
        <time>2016-02-21T12:39:25Z</time>
      </trkpt>
      <trkpt lat="43.6112" lon="3.4194">
        <ele>256.5</ele>
        <time>2016-02-21T12:39:25Z</time>
      </trkpt>
      <trkpt lat="43.6112" lon="3.41938">
        <ele>257</ele>
        <time>2016-02-21T12:39:26Z</time>
      </trkpt>
      <trkpt lat="43.6112" lon="3.41935">
        <ele>257.5</ele>
        <time>2016-02-21T12:39:27Z</time>
      </trkpt>
      <trkpt lat="43.6112" lon="3.41933">
        <ele>258.5</ele>
        <time>2016-02-21T12:39:28Z</time>
      </trkpt>
      <trkpt lat="43.6112" lon="3.41929">
        <ele>259</ele>
        <time>2016-02-21T12:39:29Z</time>
      </trkpt>
      <trkpt lat="43.6112" lon="3.41925">
        <ele>258.5</ele>
        <time>2016-02-21T12:39:30Z</time>
      </trkpt>
      <trkpt lat="43.61121" lon="3.41921">
        <ele>259</ele>
        <time>2016-02-21T12:39:31Z</time>
      </trkpt>
      <trkpt lat="43.61121" lon="3.41917">
        <ele>258.5</ele>
        <time>2016-02-21T12:39:32Z</time>
      </trkpt>
      <trkpt lat="43.61122" lon="3.41913">
        <ele>258.5</ele>
        <time>2016-02-21T12:39:33Z</time>
      </trkpt>
      <trkpt lat="43.61122" lon="3.41908">
        <ele>259</ele>
        <time>2016-02-21T12:39:34Z</time>
      </trkpt>
      <trkpt lat="43.61123" lon="3.41904">
        <ele>260</ele>
        <time>2016-02-21T12:39:35Z</time>
      </trkpt>
      <trkpt lat="43.61123" lon="3.41901">
        <ele>260.5</ele>
        <time>2016-02-21T12:39:36Z</time>
      </trkpt>
      <trkpt lat="43.61123" lon="3.41897">
        <ele>261</ele>
        <time>2016-02-21T12:39:37Z</time>
      </trkpt>
      <trkpt lat="43.61124" lon="3.41895">
        <ele>261</ele>
        <time>2016-02-21T12:39:38Z</time>
      </trkpt>
      <trkpt lat="43.61125" lon="3.41893">
        <ele>261</ele>
        <time>2016-02-21T12:39:39Z</time>
      </trkpt>
      <trkpt lat="43.61125" lon="3.41891">
        <ele>261</ele>
        <time>2016-02-21T12:39:40Z</time>
      </trkpt>
      <trkpt lat="43.61126" lon="3.41889">
        <ele>261</ele>
        <time>2016-02-21T12:39:41Z</time>
      </trkpt>
      <trkpt lat="43.61126" lon="3.41886">
        <ele>261</ele>
        <time>2016-02-21T12:39:42Z</time>
      </trkpt>
      <trkpt lat="43.61127" lon="3.41882">
        <ele>260</ele>
        <time>2016-02-21T12:39:43Z</time>
      </trkpt>
      <trkpt lat="43.61128" lon="3.41878">
        <ele>258.5</ele>
        <time>2016-02-21T12:39:44Z</time>
      </trkpt>
      <trkpt lat="43.61129" lon="3.41876">
        <ele>259</ele>
        <time>2016-02-21T12:39:45Z</time>
      </trkpt>
      <trkpt lat="43.61129" lon="3.41871">
        <ele>257.5</ele>
        <time>2016-02-21T12:39:46Z</time>
      </trkpt>
      <trkpt lat="43.6113" lon="3.41868">
        <ele>256.5</ele>
        <time>2016-02-21T12:39:47Z</time>
      </trkpt>
      <trkpt lat="43.61129" lon="3.41865">
        <ele>256</ele>
        <time>2016-02-21T12:39:48Z</time>
      </trkpt>
      <trkpt lat="43.61131" lon="3.41862">
        <ele>257</ele>
        <time>2016-02-21T12:39:49Z</time>
      </trkpt>
      <trkpt lat="43.61132" lon="3.41859">
        <ele>257.5</ele>
        <time>2016-02-21T12:39:50Z</time>
      </trkpt>
      <trkpt lat="43.61133" lon="3.41856">
        <ele>256.5</ele>
        <time>2016-02-21T12:39:51Z</time>
      </trkpt>
      <trkpt lat="43.61134" lon="3.41854">
        <ele>256.5</ele>
        <time>2016-02-21T12:39:52Z</time>
      </trkpt>
      <trkpt lat="43.61134" lon="3.41851">
        <ele>257</ele>
        <time>2016-02-21T12:39:53Z</time>
      </trkpt>
      <trkpt lat="43.61135" lon="3.41848">
        <ele>258</ele>
        <time>2016-02-21T12:39:54Z</time>
      </trkpt>
      <trkpt lat="43.61135" lon="3.41846">
        <ele>258.5</ele>
        <time>2016-02-21T12:39:55Z</time>
      </trkpt>
      <trkpt lat="43.61136" lon="3.41843">
        <ele>259</ele>
        <time>2016-02-21T12:39:56Z</time>
      </trkpt>
      <trkpt lat="43.61137" lon="3.4184">
        <ele>259</ele>
        <time>2016-02-21T12:39:57Z</time>
      </trkpt>
      <trkpt lat="43.61138" lon="3.41838">
        <ele>258</ele>
        <time>2016-02-21T12:39:58Z</time>
      </trkpt>
      <trkpt lat="43.61138" lon="3.41835">
        <ele>260</ele>
        <time>2016-02-21T12:39:59Z</time>
      </trkpt>
      <trkpt lat="43.61138" lon="3.41833">
        <ele>261</ele>
        <time>2016-02-21T12:40:00Z</time>
      </trkpt>
      <trkpt lat="43.61139" lon="3.41831">
        <ele>261.5</ele>
        <time>2016-02-21T12:40:01Z</time>
      </trkpt>
      <trkpt lat="43.61139" lon="3.41829">
        <ele>262.5</ele>
        <time>2016-02-21T12:40:02Z</time>
      </trkpt>
      <trkpt lat="43.61139" lon="3.41825">
        <ele>260.5</ele>
        <time>2016-02-21T12:40:03Z</time>
      </trkpt>
      <trkpt lat="43.61139" lon="3.41822">
        <ele>260</ele>
        <time>2016-02-21T12:40:04Z</time>
      </trkpt>
      <trkpt lat="43.6114" lon="3.41819">
        <ele>260</ele>
        <time>2016-02-21T12:40:05Z</time>
      </trkpt>
      <trkpt lat="43.61139" lon="3.41816">
        <ele>259.5</ele>
        <time>2016-02-21T12:40:06Z</time>
      </trkpt>
      <trkpt lat="43.61139" lon="3.41814">
        <ele>259.5</ele>
        <time>2016-02-21T12:40:07Z</time>
      </trkpt>
      <trkpt lat="43.6114" lon="3.41811">
        <ele>259.5</ele>
        <time>2016-02-21T12:40:08Z</time>
      </trkpt>
      <trkpt lat="43.6114" lon="3.41808">
        <ele>259.5</ele>
        <time>2016-02-21T12:40:09Z</time>
      </trkpt>
      <trkpt lat="43.61139" lon="3.41805">
        <ele>259.5</ele>
        <time>2016-02-21T12:40:10Z</time>
      </trkpt>
      <trkpt lat="43.61139" lon="3.41802">
        <ele>258</ele>
        <time>2016-02-21T12:40:11Z</time>
      </trkpt>
      <trkpt lat="43.61139" lon="3.41799">
        <ele>258</ele>
        <time>2016-02-21T12:40:12Z</time>
      </trkpt>
      <trkpt lat="43.61139" lon="3.41797">
        <ele>258.5</ele>
        <time>2016-02-21T12:40:13Z</time>
      </trkpt>
      <trkpt lat="43.61139" lon="3.41795">
        <ele>259.5</ele>
        <time>2016-02-21T12:40:14Z</time>
      </trkpt>
      <trkpt lat="43.6114" lon="3.41793">
        <ele>260</ele>
        <time>2016-02-21T12:40:15Z</time>
      </trkpt>
      <trkpt lat="43.6114" lon="3.41792">
        <ele>261</ele>
        <time>2016-02-21T12:40:16Z</time>
      </trkpt>
      <trkpt lat="43.6114" lon="3.4179">
        <ele>262</ele>
        <time>2016-02-21T12:40:17Z</time>
      </trkpt>
      <trkpt lat="43.6114" lon="3.41788">
        <ele>262</ele>
        <time>2016-02-21T12:40:18Z</time>
      </trkpt>
      <trkpt lat="43.6114" lon="3.41785">
        <ele>262.5</ele>
        <time>2016-02-21T12:40:19Z</time>
      </trkpt>
      <trkpt lat="43.6114" lon="3.41783">
        <ele>263</ele>
        <time>2016-02-21T12:40:20Z</time>
      </trkpt>
      <trkpt lat="43.6114" lon="3.41781">
        <ele>264</ele>
        <time>2016-02-21T12:40:21Z</time>
      </trkpt>
      <trkpt lat="43.6114" lon="3.41779">
        <ele>265</ele>
        <time>2016-02-21T12:40:22Z</time>
      </trkpt>
      <trkpt lat="43.61141" lon="3.41777">
        <ele>265</ele>
        <time>2016-02-21T12:40:23Z</time>
      </trkpt>
      <trkpt lat="43.61142" lon="3.41775">
        <ele>265.5</ele>
        <time>2016-02-21T12:40:24Z</time>
      </trkpt>
      <trkpt lat="43.61142" lon="3.41772">
        <ele>265.5</ele>
        <time>2016-02-21T12:40:25Z</time>
      </trkpt>
      <trkpt lat="43.61142" lon="3.4177">
        <ele>265.5</ele>
        <time>2016-02-21T12:40:26Z</time>
      </trkpt>
      <trkpt lat="43.61143" lon="3.41767">
        <ele>265.5</ele>
        <time>2016-02-21T12:40:27Z</time>
      </trkpt>
      <trkpt lat="43.61144" lon="3.41765">
        <ele>265.5</ele>
        <time>2016-02-21T12:40:28Z</time>
      </trkpt>
      <trkpt lat="43.61144" lon="3.41763">
        <ele>267</ele>
        <time>2016-02-21T12:40:29Z</time>
      </trkpt>
      <trkpt lat="43.61144" lon="3.4176">
        <ele>266.5</ele>
        <time>2016-02-21T12:40:30Z</time>
      </trkpt>
      <trkpt lat="43.61144" lon="3.41757">
        <ele>266</ele>
        <time>2016-02-21T12:40:31Z</time>
      </trkpt>
      <trkpt lat="43.61145" lon="3.41754">
        <ele>265.5</ele>
        <time>2016-02-21T12:40:32Z</time>
      </trkpt>
      <trkpt lat="43.61145" lon="3.4175">
        <ele>265</ele>
        <time>2016-02-21T12:40:33Z</time>
      </trkpt>
      <trkpt lat="43.61146" lon="3.41748">
        <ele>265.5</ele>
        <time>2016-02-21T12:40:34Z</time>
      </trkpt>
      <trkpt lat="43.61146" lon="3.41745">
        <ele>265</ele>
        <time>2016-02-21T12:40:35Z</time>
      </trkpt>
      <trkpt lat="43.61147" lon="3.41743">
        <ele>265.5</ele>
        <time>2016-02-21T12:40:36Z</time>
      </trkpt>
      <trkpt lat="43.61147" lon="3.4174">
        <ele>265.5</ele>
        <time>2016-02-21T12:40:37Z</time>
      </trkpt>
      <trkpt lat="43.61147" lon="3.41738">
        <ele>265.5</ele>
        <time>2016-02-21T12:40:38Z</time>
      </trkpt>
      <trkpt lat="43.61148" lon="3.41735">
        <ele>266</ele>
        <time>2016-02-21T12:40:39Z</time>
      </trkpt>
      <trkpt lat="43.61148" lon="3.41733">
        <ele>266.5</ele>
        <time>2016-02-21T12:40:40Z</time>
      </trkpt>
      <trkpt lat="43.61148" lon="3.41731">
        <ele>266.5</ele>
        <time>2016-02-21T12:40:41Z</time>
      </trkpt>
      <trkpt lat="43.61149" lon="3.41728">
        <ele>267</ele>
        <time>2016-02-21T12:40:42Z</time>
      </trkpt>
      <trkpt lat="43.61149" lon="3.41726">
        <ele>268</ele>
        <time>2016-02-21T12:40:43Z</time>
      </trkpt>
      <trkpt lat="43.6115" lon="3.41724">
        <ele>269</ele>
        <time>2016-02-21T12:40:44Z</time>
      </trkpt>
      <trkpt lat="43.6115" lon="3.41721">
        <ele>269.5</ele>
        <time>2016-02-21T12:40:45Z</time>
      </trkpt>
      <trkpt lat="43.61151" lon="3.41719">
        <ele>270</ele>
        <time>2016-02-21T12:40:46Z</time>
      </trkpt>
      <trkpt lat="43.61151" lon="3.41717">
        <ele>270.5</ele>
        <time>2016-02-21T12:40:47Z</time>
      </trkpt>
      <trkpt lat="43.61151" lon="3.41713">
        <ele>269.5</ele>
        <time>2016-02-21T12:40:48Z</time>
      </trkpt>
      <trkpt lat="43.61152" lon="3.41711">
        <ele>270.5</ele>
        <time>2016-02-21T12:40:49Z</time>
      </trkpt>
      <trkpt lat="43.61152" lon="3.41708">
        <ele>271</ele>
        <time>2016-02-21T12:40:50Z</time>
      </trkpt>
      <trkpt lat="43.61152" lon="3.41706">
        <ele>271</ele>
        <time>2016-02-21T12:40:51Z</time>
      </trkpt>
      <trkpt lat="43.61155" lon="3.41704">
        <ele>271.5</ele>
        <time>2016-02-21T12:40:52Z</time>
      </trkpt>
      <trkpt lat="43.61155" lon="3.41701">
        <ele>271</ele>
        <time>2016-02-21T12:40:53Z</time>
      </trkpt>
      <trkpt lat="43.61155" lon="3.41698">
        <ele>270.5</ele>
        <time>2016-02-21T12:40:54Z</time>
      </trkpt>
      <trkpt lat="43.61155" lon="3.41694">
        <ele>269.5</ele>
        <time>2016-02-21T12:40:55Z</time>
      </trkpt>
      <trkpt lat="43.61155" lon="3.41691">
        <ele>269</ele>
        <time>2016-02-21T12:40:56Z</time>
      </trkpt>
      <trkpt lat="43.61155" lon="3.41687">
        <ele>268</ele>
        <time>2016-02-21T12:40:57Z</time>
      </trkpt>
      <trkpt lat="43.61156" lon="3.41684">
        <ele>268</ele>
        <time>2016-02-21T12:40:58Z</time>
      </trkpt>
      <trkpt lat="43.61156" lon="3.41681">
        <ele>268</ele>
        <time>2016-02-21T12:40:59Z</time>
      </trkpt>
      <trkpt lat="43.61157" lon="3.41679">
        <ele>268.5</ele>
        <time>2016-02-21T12:41:00Z</time>
      </trkpt>
      <trkpt lat="43.61158" lon="3.41676">
        <ele>268.5</ele>
        <time>2016-02-21T12:41:01Z</time>
      </trkpt>
      <trkpt lat="43.61158" lon="3.41674">
        <ele>268.5</ele>
        <time>2016-02-21T12:41:02Z</time>
      </trkpt>
      <trkpt lat="43.61159" lon="3.4167">
        <ele>268.5</ele>
        <time>2016-02-21T12:41:03Z</time>
      </trkpt>
      <trkpt lat="43.61159" lon="3.41667">
        <ele>268.5</ele>
        <time>2016-02-21T12:41:04Z</time>
      </trkpt>
      <trkpt lat="43.6116" lon="3.41664">
        <ele>269</ele>
        <time>2016-02-21T12:41:05Z</time>
      </trkpt>
      <trkpt lat="43.61161" lon="3.41662">
        <ele>269.5</ele>
        <time>2016-02-21T12:41:06Z</time>
      </trkpt>
      <trkpt lat="43.61163" lon="3.41659">
        <ele>270</ele>
        <time>2016-02-21T12:41:07Z</time>
      </trkpt>
      <trkpt lat="43.61164" lon="3.41656">
        <ele>270</ele>
        <time>2016-02-21T12:41:08Z</time>
      </trkpt>
      <trkpt lat="43.61165" lon="3.41654">
        <ele>270</ele>
        <time>2016-02-21T12:41:09Z</time>
      </trkpt>
      <trkpt lat="43.61166" lon="3.41651">
        <ele>270</ele>
        <time>2016-02-21T12:41:10Z</time>
      </trkpt>
      <trkpt lat="43.61167" lon="3.41648">
        <ele>270</ele>
        <time>2016-02-21T12:41:11Z</time>
      </trkpt>
      <trkpt lat="43.61167" lon="3.41645">
        <ele>270.5</ele>
        <time>2016-02-21T12:41:12Z</time>
      </trkpt>
      <trkpt lat="43.61168" lon="3.41642">
        <ele>271</ele>
        <time>2016-02-21T12:41:13Z</time>
      </trkpt>
      <trkpt lat="43.61169" lon="3.41639">
        <ele>271</ele>
        <time>2016-02-21T12:41:14Z</time>
      </trkpt>
      <trkpt lat="43.61169" lon="3.41639">
        <ele>271</ele>
        <time>2016-02-21T12:41:15Z</time>
      </trkpt>
      <trkpt lat="43.61169" lon="3.41632">
        <ele>270</ele>
        <time>2016-02-21T12:41:17Z</time>
      </trkpt>
      <trkpt lat="43.61169" lon="3.41629">
        <ele>269.5</ele>
        <time>2016-02-21T12:41:18Z</time>
      </trkpt>
      <trkpt lat="43.61171" lon="3.41626">
        <ele>269.5</ele>
        <time>2016-02-21T12:41:19Z</time>
      </trkpt>
      <trkpt lat="43.6117" lon="3.41622">
        <ele>269</ele>
        <time>2016-02-21T12:41:20Z</time>
      </trkpt>
      <trkpt lat="43.61171" lon="3.41618">
        <ele>269</ele>
        <time>2016-02-21T12:41:21Z</time>
      </trkpt>
      <trkpt lat="43.61169" lon="3.41613">
        <ele>269</ele>
        <time>2016-02-21T12:41:22Z</time>
      </trkpt>
      <trkpt lat="43.6117" lon="3.4161">
        <ele>269.5</ele>
        <time>2016-02-21T12:41:23Z</time>
      </trkpt>
      <trkpt lat="43.61172" lon="3.41606">
        <ele>270</ele>
        <time>2016-02-21T12:41:24Z</time>
      </trkpt>
      <trkpt lat="43.61172" lon="3.41604">
        <ele>270</ele>
        <time>2016-02-21T12:41:25Z</time>
      </trkpt>
      <trkpt lat="43.61173" lon="3.416">
        <ele>270.5</ele>
        <time>2016-02-21T12:41:26Z</time>
      </trkpt>
      <trkpt lat="43.61175" lon="3.41596">
        <ele>270.5</ele>
        <time>2016-02-21T12:41:27Z</time>
      </trkpt>
      <trkpt lat="43.61176" lon="3.41593">
        <ele>271</ele>
        <time>2016-02-21T12:41:28Z</time>
      </trkpt>
      <trkpt lat="43.61177" lon="3.41589">
        <ele>272</ele>
        <time>2016-02-21T12:41:29Z</time>
      </trkpt>
      <trkpt lat="43.61178" lon="3.41585">
        <ele>272.5</ele>
        <time>2016-02-21T12:41:30Z</time>
      </trkpt>
      <trkpt lat="43.61179" lon="3.4158">
        <ele>273</ele>
        <time>2016-02-21T12:41:31Z</time>
      </trkpt>
      <trkpt lat="43.61179" lon="3.41576">
        <ele>274.5</ele>
        <time>2016-02-21T12:41:32Z</time>
      </trkpt>
      <trkpt lat="43.6118" lon="3.41572">
        <ele>275</ele>
        <time>2016-02-21T12:41:33Z</time>
      </trkpt>
      <trkpt lat="43.61181" lon="3.41569">
        <ele>276.5</ele>
        <time>2016-02-21T12:41:34Z</time>
      </trkpt>
      <trkpt lat="43.61179" lon="3.4156">
        <ele>276.5</ele>
        <time>2016-02-21T12:41:36Z</time>
      </trkpt>
      <trkpt lat="43.61179" lon="3.41556">
        <ele>276</ele>
        <time>2016-02-21T12:41:37Z</time>
      </trkpt>
      <trkpt lat="43.6118" lon="3.41552">
        <ele>276</ele>
        <time>2016-02-21T12:41:38Z</time>
      </trkpt>
      <trkpt lat="43.61181" lon="3.41548">
        <ele>276</ele>
        <time>2016-02-21T12:41:39Z</time>
      </trkpt>
      <trkpt lat="43.61182" lon="3.41545">
        <ele>276</ele>
        <time>2016-02-21T12:41:40Z</time>
      </trkpt>
      <trkpt lat="43.61182" lon="3.41541">
        <ele>276.5</ele>
        <time>2016-02-21T12:41:41Z</time>
      </trkpt>
      <trkpt lat="43.61183" lon="3.41538">
        <ele>277</ele>
        <time>2016-02-21T12:41:42Z</time>
      </trkpt>
      <trkpt lat="43.61184" lon="3.41534">
        <ele>277.5</ele>
        <time>2016-02-21T12:41:43Z</time>
      </trkpt>
      <trkpt lat="43.61185" lon="3.41531">
        <ele>277.5</ele>
        <time>2016-02-21T12:41:44Z</time>
      </trkpt>
      <trkpt lat="43.61185" lon="3.41527">
        <ele>276</ele>
        <time>2016-02-21T12:41:45Z</time>
      </trkpt>
      <trkpt lat="43.61186" lon="3.41522">
        <ele>275.5</ele>
        <time>2016-02-21T12:41:46Z</time>
      </trkpt>
      <trkpt lat="43.61187" lon="3.41518">
        <ele>274.5</ele>
        <time>2016-02-21T12:41:47Z</time>
      </trkpt>
      <trkpt lat="43.61188" lon="3.41514">
        <ele>274.5</ele>
        <time>2016-02-21T12:41:48Z</time>
      </trkpt>
      <trkpt lat="43.61189" lon="3.41511">
        <ele>273</ele>
        <time>2016-02-21T12:41:49Z</time>
      </trkpt>
      <trkpt lat="43.6119" lon="3.41507">
        <ele>272</ele>
        <time>2016-02-21T12:41:50Z</time>
      </trkpt>
      <trkpt lat="43.61192" lon="3.41504">
        <ele>272</ele>
        <time>2016-02-21T12:41:51Z</time>
      </trkpt>
      <trkpt lat="43.61193" lon="3.41501">
        <ele>271.5</ele>
        <time>2016-02-21T12:41:52Z</time>
      </trkpt>
      <trkpt lat="43.61195" lon="3.41497">
        <ele>272.5</ele>
        <time>2016-02-21T12:41:53Z</time>
      </trkpt>
      <trkpt lat="43.61195" lon="3.41493">
        <ele>273</ele>
        <time>2016-02-21T12:41:54Z</time>
      </trkpt>
      <trkpt lat="43.61196" lon="3.41489">
        <ele>273</ele>
        <time>2016-02-21T12:41:55Z</time>
      </trkpt>
      <trkpt lat="43.61197" lon="3.41486">
        <ele>273</ele>
        <time>2016-02-21T12:41:56Z</time>
      </trkpt>
      <trkpt lat="43.61197" lon="3.41482">
        <ele>273</ele>
        <time>2016-02-21T12:41:57Z</time>
      </trkpt>
      <trkpt lat="43.61198" lon="3.41479">
        <ele>273</ele>
        <time>2016-02-21T12:41:58Z</time>
      </trkpt>
      <trkpt lat="43.61199" lon="3.41477">
        <ele>273.5</ele>
        <time>2016-02-21T12:41:59Z</time>
      </trkpt>
      <trkpt lat="43.612" lon="3.41475">
        <ele>272</ele>
        <time>2016-02-21T12:42:00Z</time>
      </trkpt>
      <trkpt lat="43.61201" lon="3.41472">
        <ele>273</ele>
        <time>2016-02-21T12:42:01Z</time>
      </trkpt>
      <trkpt lat="43.61201" lon="3.41468">
        <ele>273</ele>
        <time>2016-02-21T12:42:02Z</time>
      </trkpt>
      <trkpt lat="43.61201" lon="3.41465">
        <ele>273.5</ele>
        <time>2016-02-21T12:42:03Z</time>
      </trkpt>
      <trkpt lat="43.61203" lon="3.41462">
        <ele>274</ele>
        <time>2016-02-21T12:42:04Z</time>
      </trkpt>
      <trkpt lat="43.61205" lon="3.4146">
        <ele>275</ele>
        <time>2016-02-21T12:42:05Z</time>
      </trkpt>
      <trkpt lat="43.61205" lon="3.41456">
        <ele>274.5</ele>
        <time>2016-02-21T12:42:06Z</time>
      </trkpt>
      <trkpt lat="43.61207" lon="3.41452">
        <ele>275</ele>
        <time>2016-02-21T12:42:07Z</time>
      </trkpt>
      <trkpt lat="43.6121" lon="3.41448">
        <ele>275.5</ele>
        <time>2016-02-21T12:42:08Z</time>
      </trkpt>
      <trkpt lat="43.61214" lon="3.41444">
        <ele>276</ele>
        <time>2016-02-21T12:42:09Z</time>
      </trkpt>
      <trkpt lat="43.61217" lon="3.41439">
        <ele>276.5</ele>
        <time>2016-02-21T12:42:10Z</time>
      </trkpt>
      <trkpt lat="43.61222" lon="3.41433">
        <ele>276.5</ele>
        <time>2016-02-21T12:42:11Z</time>
      </trkpt>
      <trkpt lat="43.61226" lon="3.41428">
        <ele>275</ele>
        <time>2016-02-21T12:42:12Z</time>
      </trkpt>
      <trkpt lat="43.61231" lon="3.41421">
        <ele>276.5</ele>
        <time>2016-02-21T12:42:13Z</time>
      </trkpt>
      <trkpt lat="43.61236" lon="3.41415">
        <ele>275</ele>
        <time>2016-02-21T12:42:14Z</time>
      </trkpt>
      <trkpt lat="43.61242" lon="3.4141">
        <ele>273</ele>
        <time>2016-02-21T12:42:15Z</time>
      </trkpt>
      <trkpt lat="43.6125" lon="3.41406">
        <ele>272.5</ele>
        <time>2016-02-21T12:42:16Z</time>
      </trkpt>
      <trkpt lat="43.61256" lon="3.41402">
        <ele>271</ele>
        <time>2016-02-21T12:42:17Z</time>
      </trkpt>
      <trkpt lat="43.61262" lon="3.41399">
        <ele>270</ele>
        <time>2016-02-21T12:42:18Z</time>
      </trkpt>
      <trkpt lat="43.61267" lon="3.41395">
        <ele>269</ele>
        <time>2016-02-21T12:42:19Z</time>
      </trkpt>
      <trkpt lat="43.61271" lon="3.41389">
        <ele>268</ele>
        <time>2016-02-21T12:42:20Z</time>
      </trkpt>
      <trkpt lat="43.61275" lon="3.41384">
        <ele>267</ele>
        <time>2016-02-21T12:42:21Z</time>
      </trkpt>
      <trkpt lat="43.61279" lon="3.41377">
        <ele>266</ele>
        <time>2016-02-21T12:42:22Z</time>
      </trkpt>
      <trkpt lat="43.61281" lon="3.41369">
        <ele>265.5</ele>
        <time>2016-02-21T12:42:23Z</time>
      </trkpt>
      <trkpt lat="43.61284" lon="3.4136">
        <ele>264.5</ele>
        <time>2016-02-21T12:42:24Z</time>
      </trkpt>
      <trkpt lat="43.61286" lon="3.4135">
        <ele>262</ele>
        <time>2016-02-21T12:42:25Z</time>
      </trkpt>
      <trkpt lat="43.61288" lon="3.4134">
        <ele>261</ele>
        <time>2016-02-21T12:42:26Z</time>
      </trkpt>
      <trkpt lat="43.6129" lon="3.41332">
        <ele>262</ele>
        <time>2016-02-21T12:42:27Z</time>
      </trkpt>
      <trkpt lat="43.6129" lon="3.41325">
        <ele>260.5</ele>
        <time>2016-02-21T12:42:28Z</time>
      </trkpt>
      <trkpt lat="43.6129" lon="3.41318">
        <ele>260.5</ele>
        <time>2016-02-21T12:42:29Z</time>
      </trkpt>
      <trkpt lat="43.6129" lon="3.41311">
        <ele>260.5</ele>
        <time>2016-02-21T12:42:30Z</time>
      </trkpt>
      <trkpt lat="43.61288" lon="3.41304">
        <ele>259</ele>
        <time>2016-02-21T12:42:31Z</time>
      </trkpt>
      <trkpt lat="43.61288" lon="3.41297">
        <ele>258.5</ele>
        <time>2016-02-21T12:42:32Z</time>
      </trkpt>
      <trkpt lat="43.61289" lon="3.4129">
        <ele>258</ele>
        <time>2016-02-21T12:42:33Z</time>
      </trkpt>
      <trkpt lat="43.61289" lon="3.41282">
        <ele>257.5</ele>
        <time>2016-02-21T12:42:34Z</time>
      </trkpt>
      <trkpt lat="43.61289" lon="3.41274">
        <ele>256.5</ele>
        <time>2016-02-21T12:42:35Z</time>
      </trkpt>
      <trkpt lat="43.61288" lon="3.41267">
        <ele>258.5</ele>
        <time>2016-02-21T12:42:36Z</time>
      </trkpt>
      <trkpt lat="43.61287" lon="3.41259">
        <ele>258</ele>
        <time>2016-02-21T12:42:36Z</time>
      </trkpt>
      <trkpt lat="43.61286" lon="3.41251">
        <ele>256.5</ele>
        <time>2016-02-21T12:42:38Z</time>
      </trkpt>
      <trkpt lat="43.61285" lon="3.41246">
        <ele>257</ele>
        <time>2016-02-21T12:42:38Z</time>
      </trkpt>
      <trkpt lat="43.61285" lon="3.41241">
        <ele>257</ele>
        <time>2016-02-21T12:42:39Z</time>
      </trkpt>
      <trkpt lat="43.61284" lon="3.41238">
        <ele>257.5</ele>
        <time>2016-02-21T12:42:40Z</time>
      </trkpt>
      <trkpt lat="43.61283" lon="3.41233">
        <ele>255.5</ele>
        <time>2016-02-21T12:42:41Z</time>
      </trkpt>
      <trkpt lat="43.61282" lon="3.41229">
        <ele>255.5</ele>
        <time>2016-02-21T12:42:42Z</time>
      </trkpt>
      <trkpt lat="43.6128" lon="3.41224">
        <ele>255</ele>
        <time>2016-02-21T12:42:43Z</time>
      </trkpt>
      <trkpt lat="43.61278" lon="3.41221">
        <ele>253.5</ele>
        <time>2016-02-21T12:42:44Z</time>
      </trkpt>
      <trkpt lat="43.61275" lon="3.41216">
        <ele>255</ele>
        <time>2016-02-21T12:42:46Z</time>
      </trkpt>
      <trkpt lat="43.61272" lon="3.4121">
        <ele>253.5</ele>
        <time>2016-02-21T12:42:46Z</time>
      </trkpt>
      <trkpt lat="43.61268" lon="3.41204">
        <ele>253</ele>
        <time>2016-02-21T12:42:47Z</time>
      </trkpt>
      <trkpt lat="43.61265" lon="3.41197">
        <ele>253.5</ele>
        <time>2016-02-21T12:42:48Z</time>
      </trkpt>
      <trkpt lat="43.61265" lon="3.41191">
        <ele>251.5</ele>
        <time>2016-02-21T12:42:49Z</time>
      </trkpt>
      <trkpt lat="43.61265" lon="3.41186">
        <ele>251.5</ele>
        <time>2016-02-21T12:42:50Z</time>
      </trkpt>
      <trkpt lat="43.61265" lon="3.41182">
        <ele>251.5</ele>
        <time>2016-02-21T12:42:51Z</time>
      </trkpt>
      <trkpt lat="43.61266" lon="3.41179">
        <ele>251.5</ele>
        <time>2016-02-21T12:42:52Z</time>
      </trkpt>
      <trkpt lat="43.61265" lon="3.41174">
        <ele>250.5</ele>
        <time>2016-02-21T12:42:53Z</time>
      </trkpt>
      <trkpt lat="43.61266" lon="3.41169">
        <ele>249</ele>
        <time>2016-02-21T12:42:54Z</time>
      </trkpt>
      <trkpt lat="43.61269" lon="3.41156">
        <ele>248</ele>
        <time>2016-02-21T12:42:56Z</time>
      </trkpt>
      <trkpt lat="43.61269" lon="3.41149">
        <ele>247</ele>
        <time>2016-02-21T12:42:57Z</time>
      </trkpt>
      <trkpt lat="43.61271" lon="3.41142">
        <ele>245.5</ele>
        <time>2016-02-21T12:42:58Z</time>
      </trkpt>
      <trkpt lat="43.61273" lon="3.41133">
        <ele>244</ele>
        <time>2016-02-21T12:42:59Z</time>
      </trkpt>
      <trkpt lat="43.61275" lon="3.41124">
        <ele>242.5</ele>
        <time>2016-02-21T12:43:00Z</time>
      </trkpt>
      <trkpt lat="43.61277" lon="3.41116">
        <ele>241</ele>
        <time>2016-02-21T12:43:01Z</time>
      </trkpt>
      <trkpt lat="43.6128" lon="3.41107">
        <ele>240</ele>
        <time>2016-02-21T12:43:02Z</time>
      </trkpt>
      <trkpt lat="43.61283" lon="3.411">
        <ele>239.5</ele>
        <time>2016-02-21T12:43:03Z</time>
      </trkpt>
      <trkpt lat="43.61287" lon="3.41094">
        <ele>238.5</ele>
        <time>2016-02-21T12:43:04Z</time>
      </trkpt>
      <trkpt lat="43.61289" lon="3.41089">
        <ele>237.5</ele>
        <time>2016-02-21T12:43:05Z</time>
      </trkpt>
      <trkpt lat="43.61291" lon="3.41084">
        <ele>236.5</ele>
        <time>2016-02-21T12:43:06Z</time>
      </trkpt>
      <trkpt lat="43.61292" lon="3.41078">
        <ele>236</ele>
        <time>2016-02-21T12:43:07Z</time>
      </trkpt>
      <trkpt lat="43.61293" lon="3.41073">
        <ele>235</ele>
        <time>2016-02-21T12:43:08Z</time>
      </trkpt>
      <trkpt lat="43.61294" lon="3.41067">
        <ele>233.5</ele>
        <time>2016-02-21T12:43:09Z</time>
      </trkpt>
      <trkpt lat="43.61294" lon="3.41062">
        <ele>233.5</ele>
        <time>2016-02-21T12:43:10Z</time>
      </trkpt>
      <trkpt lat="43.61295" lon="3.41057">
        <ele>233.5</ele>
        <time>2016-02-21T12:43:11Z</time>
      </trkpt>
      <trkpt lat="43.61295" lon="3.41053">
        <ele>234</ele>
        <time>2016-02-21T12:43:12Z</time>
      </trkpt>
      <trkpt lat="43.61294" lon="3.41051">
        <ele>233.5</ele>
        <time>2016-02-21T12:43:13Z</time>
      </trkpt>
      <trkpt lat="43.61293" lon="3.4105">
        <ele>233.5</ele>
        <time>2016-02-21T12:43:14Z</time>
      </trkpt>
      <trkpt lat="43.61292" lon="3.41051">
        <ele>235</ele>
        <time>2016-02-21T12:43:15Z</time>
      </trkpt>
      <trkpt lat="43.6129" lon="3.41052">
        <ele>235</ele>
        <time>2016-02-21T12:43:16Z</time>
      </trkpt>
      <trkpt lat="43.61288" lon="3.41053">
        <ele>235</ele>
        <time>2016-02-21T12:43:17Z</time>
      </trkpt>
      <trkpt lat="43.61285" lon="3.41055">
        <ele>235</ele>
        <time>2016-02-21T12:43:18Z</time>
      </trkpt>
      <trkpt lat="43.61283" lon="3.41056">
        <ele>234.5</ele>
        <time>2016-02-21T12:43:19Z</time>
      </trkpt>
      <trkpt lat="43.6128" lon="3.41057">
        <ele>234.5</ele>
        <time>2016-02-21T12:43:20Z</time>
      </trkpt>
      <trkpt lat="43.61275" lon="3.41059">
        <ele>233.5</ele>
        <time>2016-02-21T12:43:22Z</time>
      </trkpt>
      <trkpt lat="43.61273" lon="3.4106">
        <ele>233.5</ele>
        <time>2016-02-21T12:43:23Z</time>
      </trkpt>
      <trkpt lat="43.61271" lon="3.41061">
        <ele>233</ele>
        <time>2016-02-21T12:43:24Z</time>
      </trkpt>
      <trkpt lat="43.61268" lon="3.41062">
        <ele>233</ele>
        <time>2016-02-21T12:43:25Z</time>
      </trkpt>
      <trkpt lat="43.61266" lon="3.41063">
        <ele>232.5</ele>
        <time>2016-02-21T12:43:26Z</time>
      </trkpt>
      <trkpt lat="43.61259" lon="3.41063">
        <ele>231</ele>
        <time>2016-02-21T12:43:28Z</time>
      </trkpt>
      <trkpt lat="43.61256" lon="3.4106">
        <ele>229</ele>
        <time>2016-02-21T12:43:29Z</time>
      </trkpt>
      <trkpt lat="43.61253" lon="3.41058">
        <ele>229</ele>
        <time>2016-02-21T12:43:30Z</time>
      </trkpt>
      <trkpt lat="43.61249" lon="3.41057">
        <ele>228.5</ele>
        <time>2016-02-21T12:43:31Z</time>
      </trkpt>
      <trkpt lat="43.61245" lon="3.41056">
        <ele>228.5</ele>
        <time>2016-02-21T12:43:32Z</time>
      </trkpt>
      <trkpt lat="43.61241" lon="3.41051">
        <ele>228</ele>
        <time>2016-02-21T12:43:33Z</time>
      </trkpt>
      <trkpt lat="43.61237" lon="3.41049">
        <ele>228</ele>
        <time>2016-02-21T12:43:34Z</time>
      </trkpt>
      <trkpt lat="43.61232" lon="3.41048">
        <ele>228</ele>
        <time>2016-02-21T12:43:35Z</time>
      </trkpt>
      <trkpt lat="43.61228" lon="3.41046">
        <ele>227.5</ele>
        <time>2016-02-21T12:43:36Z</time>
      </trkpt>
      <trkpt lat="43.61224" lon="3.41044">
        <ele>227.5</ele>
        <time>2016-02-21T12:43:38Z</time>
      </trkpt>
      <trkpt lat="43.61221" lon="3.41041">
        <ele>227.5</ele>
        <time>2016-02-21T12:43:39Z</time>
      </trkpt>
      <trkpt lat="43.61219" lon="3.4104">
        <ele>227</ele>
        <time>2016-02-21T12:43:40Z</time>
      </trkpt>
      <trkpt lat="43.61215" lon="3.41037">
        <ele>227</ele>
        <time>2016-02-21T12:43:41Z</time>
      </trkpt>
      <trkpt lat="43.6121" lon="3.41036">
        <ele>226.5</ele>
        <time>2016-02-21T12:43:43Z</time>
      </trkpt>
      <trkpt lat="43.61207" lon="3.41035">
        <ele>226.5</ele>
        <time>2016-02-21T12:43:44Z</time>
      </trkpt>
      <trkpt lat="43.61205" lon="3.41036">
        <ele>227</ele>
        <time>2016-02-21T12:43:45Z</time>
      </trkpt>
      <trkpt lat="43.61204" lon="3.41035">
        <ele>227</ele>
        <time>2016-02-21T12:43:46Z</time>
      </trkpt>
      <trkpt lat="43.61202" lon="3.41035">
        <ele>227</ele>
        <time>2016-02-21T12:43:47Z</time>
      </trkpt>
      <trkpt lat="43.61201" lon="3.41034">
        <ele>226.5</ele>
        <time>2016-02-21T12:43:48Z</time>
      </trkpt>
      <trkpt lat="43.61198" lon="3.41034">
        <ele>226</ele>
        <time>2016-02-21T12:43:49Z</time>
      </trkpt>
      <trkpt lat="43.61196" lon="3.41033">
        <ele>226</ele>
        <time>2016-02-21T12:43:50Z</time>
      </trkpt>
      <trkpt lat="43.61194" lon="3.41032">
        <ele>226</ele>
        <time>2016-02-21T12:43:51Z</time>
      </trkpt>
      <trkpt lat="43.61191" lon="3.41031">
        <ele>225.5</ele>
        <time>2016-02-21T12:43:52Z</time>
      </trkpt>
      <trkpt lat="43.61189" lon="3.41032">
        <ele>225.5</ele>
        <time>2016-02-21T12:43:53Z</time>
      </trkpt>
      <trkpt lat="43.61187" lon="3.41032">
        <ele>225</ele>
        <time>2016-02-21T12:43:54Z</time>
      </trkpt>
      <trkpt lat="43.61185" lon="3.41031">
        <ele>225.5</ele>
        <time>2016-02-21T12:43:55Z</time>
      </trkpt>
      <trkpt lat="43.61183" lon="3.41029">
        <ele>225</ele>
        <time>2016-02-21T12:43:56Z</time>
      </trkpt>
      <trkpt lat="43.61181" lon="3.41028">
        <ele>226</ele>
        <time>2016-02-21T12:43:57Z</time>
      </trkpt>
      <trkpt lat="43.61179" lon="3.41026">
        <ele>225.5</ele>
        <time>2016-02-21T12:43:58Z</time>
      </trkpt>
      <trkpt lat="43.61177" lon="3.41025">
        <ele>224</ele>
        <time>2016-02-21T12:43:59Z</time>
      </trkpt>
      <trkpt lat="43.61174" lon="3.41022">
        <ele>224</ele>
        <time>2016-02-21T12:44:00Z</time>
      </trkpt>
      <trkpt lat="43.61172" lon="3.41021">
        <ele>223</ele>
        <time>2016-02-21T12:44:01Z</time>
      </trkpt>
      <trkpt lat="43.61169" lon="3.41019">
        <ele>223.5</ele>
        <time>2016-02-21T12:44:02Z</time>
      </trkpt>
      <trkpt lat="43.61167" lon="3.41017">
        <ele>223</ele>
        <time>2016-02-21T12:44:03Z</time>
      </trkpt>
      <trkpt lat="43.61164" lon="3.41015">
        <ele>223</ele>
        <time>2016-02-21T12:44:04Z</time>
      </trkpt>
      <trkpt lat="43.61161" lon="3.41013">
        <ele>224</ele>
        <time>2016-02-21T12:44:05Z</time>
      </trkpt>
      <trkpt lat="43.61158" lon="3.41011">
        <ele>224.5</ele>
        <time>2016-02-21T12:44:06Z</time>
      </trkpt>
      <trkpt lat="43.61155" lon="3.41007">
        <ele>223.5</ele>
        <time>2016-02-21T12:44:07Z</time>
      </trkpt>
      <trkpt lat="43.61152" lon="3.41005">
        <ele>223.5</ele>
        <time>2016-02-21T12:44:08Z</time>
      </trkpt>
      <trkpt lat="43.61149" lon="3.41003">
        <ele>224</ele>
        <time>2016-02-21T12:44:09Z</time>
      </trkpt>
      <trkpt lat="43.61147" lon="3.41003">
        <ele>224</ele>
        <time>2016-02-21T12:44:10Z</time>
      </trkpt>
      <trkpt lat="43.61144" lon="3.41003">
        <ele>224</ele>
        <time>2016-02-21T12:44:11Z</time>
      </trkpt>
      <trkpt lat="43.61142" lon="3.41002">
        <ele>224.5</ele>
        <time>2016-02-21T12:44:12Z</time>
      </trkpt>
      <trkpt lat="43.61139" lon="3.41">
        <ele>225</ele>
        <time>2016-02-21T12:44:13Z</time>
      </trkpt>
      <trkpt lat="43.61136" lon="3.40999">
        <ele>226</ele>
        <time>2016-02-21T12:44:14Z</time>
      </trkpt>
      <trkpt lat="43.61133" lon="3.40995">
        <ele>226</ele>
        <time>2016-02-21T12:44:15Z</time>
      </trkpt>
      <trkpt lat="43.6113" lon="3.40992">
        <ele>226</ele>
        <time>2016-02-21T12:44:16Z</time>
      </trkpt>
      <trkpt lat="43.61128" lon="3.40989">
        <ele>227.5</ele>
        <time>2016-02-21T12:44:17Z</time>
      </trkpt>
      <trkpt lat="43.61126" lon="3.40985">
        <ele>226.5</ele>
        <time>2016-02-21T12:44:18Z</time>
      </trkpt>
      <trkpt lat="43.61124" lon="3.40981">
        <ele>226.5</ele>
        <time>2016-02-21T12:44:19Z</time>
      </trkpt>
      <trkpt lat="43.61121" lon="3.40978">
        <ele>227</ele>
        <time>2016-02-21T12:44:20Z</time>
      </trkpt>
      <trkpt lat="43.61118" lon="3.40976">
        <ele>227</ele>
        <time>2016-02-21T12:44:21Z</time>
      </trkpt>
      <trkpt lat="43.61117" lon="3.40973">
        <ele>227</ele>
        <time>2016-02-21T12:44:22Z</time>
      </trkpt>
      <trkpt lat="43.6111" lon="3.40966">
        <ele>225.5</ele>
        <time>2016-02-21T12:44:24Z</time>
      </trkpt>
      <trkpt lat="43.61107" lon="3.40964">
        <ele>226</ele>
        <time>2016-02-21T12:44:25Z</time>
      </trkpt>
      <trkpt lat="43.61105" lon="3.40962">
        <ele>225.5</ele>
        <time>2016-02-21T12:44:26Z</time>
      </trkpt>
      <trkpt lat="43.61104" lon="3.40961">
        <ele>227</ele>
        <time>2016-02-21T12:44:27Z</time>
      </trkpt>
      <trkpt lat="43.61102" lon="3.40961">
        <ele>228.5</ele>
        <time>2016-02-21T12:44:28Z</time>
      </trkpt>
      <trkpt lat="43.61097" lon="3.40961">
        <ele>227</ele>
        <time>2016-02-21T12:44:30Z</time>
      </trkpt>
      <trkpt lat="43.61095" lon="3.40961">
        <ele>227</ele>
        <time>2016-02-21T12:44:31Z</time>
      </trkpt>
      <trkpt lat="43.61092" lon="3.4096">
        <ele>227</ele>
        <time>2016-02-21T12:44:32Z</time>
      </trkpt>
      <trkpt lat="43.61091" lon="3.4096">
        <ele>227.5</ele>
        <time>2016-02-21T12:44:33Z</time>
      </trkpt>
      <trkpt lat="43.61093" lon="3.4096">
        <ele>227.5</ele>
        <time>2016-02-21T12:44:34Z</time>
      </trkpt>
      <trkpt lat="43.61092" lon="3.40958">
        <ele>229</ele>
        <time>2016-02-21T12:44:35Z</time>
      </trkpt>
      <trkpt lat="43.61087" lon="3.4096">
        <ele>229</ele>
        <time>2016-02-21T12:44:37Z</time>
      </trkpt>
      <trkpt lat="43.61079" lon="3.40959">
        <ele>228.5</ele>
        <time>2016-02-21T12:44:39Z</time>
      </trkpt>
      <trkpt lat="43.61075" lon="3.4096">
        <ele>228.5</ele>
        <time>2016-02-21T12:44:40Z</time>
      </trkpt>
      <trkpt lat="43.61072" lon="3.40956">
        <ele>227</ele>
        <time>2016-02-21T12:44:42Z</time>
      </trkpt>
      <trkpt lat="43.6107" lon="3.40953">
        <ele>227.5</ele>
        <time>2016-02-21T12:44:43Z</time>
      </trkpt>
      <trkpt lat="43.61068" lon="3.40953">
        <ele>228.5</ele>
        <time>2016-02-21T12:44:44Z</time>
      </trkpt>
      <trkpt lat="43.61067" lon="3.40951">
        <ele>229</ele>
        <time>2016-02-21T12:44:45Z</time>
      </trkpt>
      <trkpt lat="43.61065" lon="3.40949">
        <ele>231</ele>
        <time>2016-02-21T12:44:46Z</time>
      </trkpt>
      <trkpt lat="43.61064" lon="3.40948">
        <ele>231</ele>
        <time>2016-02-21T12:44:47Z</time>
      </trkpt>
      <trkpt lat="43.61065" lon="3.40945">
        <ele>230.5</ele>
        <time>2016-02-21T12:44:48Z</time>
      </trkpt>
      <trkpt lat="43.61067" lon="3.40942">
        <ele>231.5</ele>
        <time>2016-02-21T12:44:49Z</time>
      </trkpt>
      <trkpt lat="43.61067" lon="3.4094">
        <ele>231.5</ele>
        <time>2016-02-21T12:44:50Z</time>
      </trkpt>
      <trkpt lat="43.6106" lon="3.40936">
        <ele>232</ele>
        <time>2016-02-21T12:44:52Z</time>
      </trkpt>
      <trkpt lat="43.61051" lon="3.4093">
        <ele>230</ele>
        <time>2016-02-21T12:44:54Z</time>
      </trkpt>
      <trkpt lat="43.61042" lon="3.40923">
        <ele>227.5</ele>
        <time>2016-02-21T12:44:56Z</time>
      </trkpt>
      <trkpt lat="43.61038" lon="3.40922">
        <ele>228.5</ele>
        <time>2016-02-21T12:44:57Z</time>
      </trkpt>
      <trkpt lat="43.61034" lon="3.40921">
        <ele>228</ele>
        <time>2016-02-21T12:44:58Z</time>
      </trkpt>
      <trkpt lat="43.6103" lon="3.4092">
        <ele>227</ele>
        <time>2016-02-21T12:44:59Z</time>
      </trkpt>
      <trkpt lat="43.61026" lon="3.40919">
        <ele>226</ele>
        <time>2016-02-21T12:45:00Z</time>
      </trkpt>
      <trkpt lat="43.61023" lon="3.40918">
        <ele>225.5</ele>
        <time>2016-02-21T12:45:01Z</time>
      </trkpt>
      <trkpt lat="43.61019" lon="3.40916">
        <ele>224.5</ele>
        <time>2016-02-21T12:45:02Z</time>
      </trkpt>
      <trkpt lat="43.61016" lon="3.40915">
        <ele>224.5</ele>
        <time>2016-02-21T12:45:03Z</time>
      </trkpt>
      <trkpt lat="43.61012" lon="3.40914">
        <ele>223.5</ele>
        <time>2016-02-21T12:45:04Z</time>
      </trkpt>
      <trkpt lat="43.6101" lon="3.40914">
        <ele>223</ele>
        <time>2016-02-21T12:45:05Z</time>
      </trkpt>
      <trkpt lat="43.61007" lon="3.40913">
        <ele>222.5</ele>
        <time>2016-02-21T12:45:06Z</time>
      </trkpt>
      <trkpt lat="43.61" lon="3.40913">
        <ele>223</ele>
        <time>2016-02-21T12:45:08Z</time>
      </trkpt>
      <trkpt lat="43.60997" lon="3.40912">
        <ele>223</ele>
        <time>2016-02-21T12:45:09Z</time>
      </trkpt>
      <trkpt lat="43.60996" lon="3.40911">
        <ele>223</ele>
        <time>2016-02-21T12:45:10Z</time>
      </trkpt>
      <trkpt lat="43.60982" lon="3.4091">
        <ele>223.5</ele>
        <time>2016-02-21T12:45:16Z</time>
      </trkpt>
      <trkpt lat="43.60978" lon="3.40908">
        <ele>223.5</ele>
        <time>2016-02-21T12:45:17Z</time>
      </trkpt>
      <trkpt lat="43.60974" lon="3.40906">
        <ele>223</ele>
        <time>2016-02-21T12:45:18Z</time>
      </trkpt>
      <trkpt lat="43.60971" lon="3.40907">
        <ele>223</ele>
        <time>2016-02-21T12:45:19Z</time>
      </trkpt>
      <trkpt lat="43.6097" lon="3.40905">
        <ele>222.5</ele>
        <time>2016-02-21T12:45:21Z</time>
      </trkpt>
      <trkpt lat="43.60957" lon="3.40911">
        <ele>222.5</ele>
        <time>2016-02-21T12:45:24Z</time>
      </trkpt>
      <trkpt lat="43.60953" lon="3.40915">
        <ele>223</ele>
        <time>2016-02-21T12:45:25Z</time>
      </trkpt>
      <trkpt lat="43.60949" lon="3.40918">
        <ele>225</ele>
        <time>2016-02-21T12:45:27Z</time>
      </trkpt>
      <trkpt lat="43.60946" lon="3.40919">
        <ele>225</ele>
        <time>2016-02-21T12:45:28Z</time>
      </trkpt>
      <trkpt lat="43.60943" lon="3.40919">
        <ele>225.5</ele>
        <time>2016-02-21T12:45:29Z</time>
      </trkpt>
      <trkpt lat="43.60939" lon="3.40919">
        <ele>225.5</ele>
        <time>2016-02-21T12:45:30Z</time>
      </trkpt>
      <trkpt lat="43.60937" lon="3.4092">
        <ele>224.5</ele>
        <time>2016-02-21T12:45:31Z</time>
      </trkpt>
      <trkpt lat="43.60934" lon="3.40921">
        <ele>224</ele>
        <time>2016-02-21T12:45:32Z</time>
      </trkpt>
      <trkpt lat="43.60932" lon="3.40923">
        <ele>226</ele>
        <time>2016-02-21T12:45:33Z</time>
      </trkpt>
      <trkpt lat="43.6093" lon="3.40924">
        <ele>225.5</ele>
        <time>2016-02-21T12:45:34Z</time>
      </trkpt>
      <trkpt lat="43.60928" lon="3.40927">
        <ele>226.5</ele>
        <time>2016-02-21T12:45:35Z</time>
      </trkpt>
      <trkpt lat="43.60927" lon="3.40928">
        <ele>226.5</ele>
        <time>2016-02-21T12:45:36Z</time>
      </trkpt>
      <trkpt lat="43.60925" lon="3.40929">
        <ele>226.5</ele>
        <time>2016-02-21T12:45:37Z</time>
      </trkpt>
      <trkpt lat="43.60922" lon="3.40931">
        <ele>226.5</ele>
        <time>2016-02-21T12:45:38Z</time>
      </trkpt>
      <trkpt lat="43.60918" lon="3.4093">
        <ele>227.5</ele>
        <time>2016-02-21T12:45:40Z</time>
      </trkpt>
      <trkpt lat="43.60916" lon="3.40931">
        <ele>228</ele>
        <time>2016-02-21T12:45:41Z</time>
      </trkpt>
      <trkpt lat="43.60907" lon="3.40931">
        <ele>227</ele>
        <time>2016-02-21T12:45:43Z</time>
      </trkpt>
      <trkpt lat="43.60904" lon="3.40931">
        <ele>227</ele>
        <time>2016-02-21T12:45:44Z</time>
      </trkpt>
      <trkpt lat="43.60897" lon="3.40932">
        <ele>227.5</ele>
        <time>2016-02-21T12:45:46Z</time>
      </trkpt>
      <trkpt lat="43.60894" lon="3.40932">
        <ele>227.5</ele>
        <time>2016-02-21T12:45:47Z</time>
      </trkpt>
      <trkpt lat="43.6089" lon="3.40932">
        <ele>227.5</ele>
        <time>2016-02-21T12:45:48Z</time>
      </trkpt>
      <trkpt lat="43.60883" lon="3.40934">
        <ele>227.5</ele>
        <time>2016-02-21T12:45:50Z</time>
      </trkpt>
      <trkpt lat="43.60881" lon="3.40932">
        <ele>227.5</ele>
        <time>2016-02-21T12:45:51Z</time>
      </trkpt>
      <trkpt lat="43.60878" lon="3.40931">
        <ele>227</ele>
        <time>2016-02-21T12:45:52Z</time>
      </trkpt>
      <trkpt lat="43.60878" lon="3.40932">
        <ele>226</ele>
        <time>2016-02-21T12:45:54Z</time>
      </trkpt>
      <trkpt lat="43.60877" lon="3.40932">
        <ele>226.5</ele>
        <time>2016-02-21T12:45:55Z</time>
      </trkpt>
      <trkpt lat="43.60867" lon="3.40937">
        <ele>228</ele>
        <time>2016-02-21T12:45:58Z</time>
      </trkpt>
      <trkpt lat="43.60864" lon="3.40937">
        <ele>227.5</ele>
        <time>2016-02-21T12:45:59Z</time>
      </trkpt>
      <trkpt lat="43.6086" lon="3.40938">
        <ele>226.5</ele>
        <time>2016-02-21T12:46:00Z</time>
      </trkpt>
      <trkpt lat="43.60859" lon="3.40936">
        <ele>226.5</ele>
        <time>2016-02-21T12:46:01Z</time>
      </trkpt>
      <trkpt lat="43.60856" lon="3.40937">
        <ele>226</ele>
        <time>2016-02-21T12:46:02Z</time>
      </trkpt>
      <trkpt lat="43.6085" lon="3.4094">
        <ele>225.5</ele>
        <time>2016-02-21T12:46:04Z</time>
      </trkpt>
      <trkpt lat="43.60842" lon="3.40942">
        <ele>224</ele>
        <time>2016-02-21T12:46:06Z</time>
      </trkpt>
      <trkpt lat="43.6084" lon="3.40943">
        <ele>224</ele>
        <time>2016-02-21T12:46:07Z</time>
      </trkpt>
      <trkpt lat="43.60838" lon="3.40944">
        <ele>224.5</ele>
        <time>2016-02-21T12:46:08Z</time>
      </trkpt>
      <trkpt lat="43.60836" lon="3.40943">
        <ele>223.5</ele>
        <time>2016-02-21T12:46:09Z</time>
      </trkpt>
      <trkpt lat="43.60833" lon="3.40946">
        <ele>225.5</ele>
        <time>2016-02-21T12:46:10Z</time>
      </trkpt>
      <trkpt lat="43.60831" lon="3.40947">
        <ele>225.5</ele>
        <time>2016-02-21T12:46:11Z</time>
      </trkpt>
      <trkpt lat="43.60828" lon="3.40948">
        <ele>226</ele>
        <time>2016-02-21T12:46:12Z</time>
      </trkpt>
      <trkpt lat="43.60825" lon="3.4095">
        <ele>226</ele>
        <time>2016-02-21T12:46:13Z</time>
      </trkpt>
      <trkpt lat="43.60823" lon="3.40952">
        <ele>226</ele>
        <time>2016-02-21T12:46:14Z</time>
      </trkpt>
      <trkpt lat="43.60821" lon="3.40953">
        <ele>225.5</ele>
        <time>2016-02-21T12:46:15Z</time>
      </trkpt>
      <trkpt lat="43.60819" lon="3.40954">
        <ele>225</ele>
        <time>2016-02-21T12:46:16Z</time>
      </trkpt>
      <trkpt lat="43.60817" lon="3.40955">
        <ele>224.5</ele>
        <time>2016-02-21T12:46:17Z</time>
      </trkpt>
      <trkpt lat="43.60816" lon="3.40955">
        <ele>223.5</ele>
        <time>2016-02-21T12:46:18Z</time>
      </trkpt>
      <trkpt lat="43.60814" lon="3.40956">
        <ele>224</ele>
        <time>2016-02-21T12:46:19Z</time>
      </trkpt>
      <trkpt lat="43.60813" lon="3.40957">
        <ele>224</ele>
        <time>2016-02-21T12:46:20Z</time>
      </trkpt>
      <trkpt lat="43.60811" lon="3.40957">
        <ele>223</ele>
        <time>2016-02-21T12:46:21Z</time>
      </trkpt>
      <trkpt lat="43.60809" lon="3.40956">
        <ele>222.5</ele>
        <time>2016-02-21T12:46:22Z</time>
      </trkpt>
      <trkpt lat="43.60806" lon="3.40956">
        <ele>222</ele>
        <time>2016-02-21T12:46:23Z</time>
      </trkpt>
      <trkpt lat="43.60802" lon="3.40955">
        <ele>222.5</ele>
        <time>2016-02-21T12:46:24Z</time>
      </trkpt>
      <trkpt lat="43.60798" lon="3.40955">
        <ele>222</ele>
        <time>2016-02-21T12:46:25Z</time>
      </trkpt>
      <trkpt lat="43.60792" lon="3.40954">
        <ele>222</ele>
        <time>2016-02-21T12:46:26Z</time>
      </trkpt>
      <trkpt lat="43.60787" lon="3.40951">
        <ele>221.5</ele>
        <time>2016-02-21T12:46:27Z</time>
      </trkpt>
      <trkpt lat="43.60782" lon="3.4095">
        <ele>221</ele>
        <time>2016-02-21T12:46:28Z</time>
      </trkpt>
      <trkpt lat="43.60777" lon="3.40947">
        <ele>221</ele>
        <time>2016-02-21T12:46:29Z</time>
      </trkpt>
      <trkpt lat="43.60773" lon="3.40942">
        <ele>219.5</ele>
        <time>2016-02-21T12:46:30Z</time>
      </trkpt>
      <trkpt lat="43.60768" lon="3.40937">
        <ele>219.5</ele>
        <time>2016-02-21T12:46:31Z</time>
      </trkpt>
      <trkpt lat="43.60763" lon="3.40933">
        <ele>218</ele>
        <time>2016-02-21T12:46:32Z</time>
      </trkpt>
      <trkpt lat="43.60758" lon="3.40929">
        <ele>216.5</ele>
        <time>2016-02-21T12:46:33Z</time>
      </trkpt>
      <trkpt lat="43.60753" lon="3.40926">
        <ele>215.5</ele>
        <time>2016-02-21T12:46:34Z</time>
      </trkpt>
      <trkpt lat="43.60748" lon="3.40926">
        <ele>218</ele>
        <time>2016-02-21T12:46:35Z</time>
      </trkpt>
      <trkpt lat="43.60744" lon="3.40924">
        <ele>220.5</ele>
        <time>2016-02-21T12:46:36Z</time>
      </trkpt>
      <trkpt lat="43.60739" lon="3.40922">
        <ele>220.5</ele>
        <time>2016-02-21T12:46:37Z</time>
      </trkpt>
      <trkpt lat="43.60714" lon="3.40913">
        <ele>221</ele>
        <time>2016-02-21T12:46:40Z</time>
      </trkpt>
      <trkpt lat="43.60707" lon="3.40916">
        <ele>221.5</ele>
        <time>2016-02-21T12:46:41Z</time>
      </trkpt>
      <trkpt lat="43.607" lon="3.4092">
        <ele>221.5</ele>
        <time>2016-02-21T12:46:42Z</time>
      </trkpt>
      <trkpt lat="43.60693" lon="3.40922">
        <ele>221.5</ele>
        <time>2016-02-21T12:46:43Z</time>
      </trkpt>
      <trkpt lat="43.60687" lon="3.40924">
        <ele>222</ele>
        <time>2016-02-21T12:46:44Z</time>
      </trkpt>
      <trkpt lat="43.60679" lon="3.40928">
        <ele>222.5</ele>
        <time>2016-02-21T12:46:46Z</time>
      </trkpt>
      <trkpt lat="43.60675" lon="3.4093">
        <ele>222.5</ele>
        <time>2016-02-21T12:46:47Z</time>
      </trkpt>
      <trkpt lat="43.6067" lon="3.40932">
        <ele>223</ele>
        <time>2016-02-21T12:46:48Z</time>
      </trkpt>
      <trkpt lat="43.60666" lon="3.40934">
        <ele>222</ele>
        <time>2016-02-21T12:46:49Z</time>
      </trkpt>
      <trkpt lat="43.60662" lon="3.40939">
        <ele>223</ele>
        <time>2016-02-21T12:46:50Z</time>
      </trkpt>
      <trkpt lat="43.60659" lon="3.40943">
        <ele>224</ele>
        <time>2016-02-21T12:46:51Z</time>
      </trkpt>
      <trkpt lat="43.60659" lon="3.40947">
        <ele>224.5</ele>
        <time>2016-02-21T12:46:52Z</time>
      </trkpt>
      <trkpt lat="43.60656" lon="3.40951">
        <ele>225.5</ele>
        <time>2016-02-21T12:46:53Z</time>
      </trkpt>
      <trkpt lat="43.60654" lon="3.40954">
        <ele>226</ele>
        <time>2016-02-21T12:46:54Z</time>
      </trkpt>
      <trkpt lat="43.60646" lon="3.40959">
        <ele>225</ele>
        <time>2016-02-21T12:46:56Z</time>
      </trkpt>
      <trkpt lat="43.60642" lon="3.40961">
        <ele>224.5</ele>
        <time>2016-02-21T12:46:57Z</time>
      </trkpt>
      <trkpt lat="43.60638" lon="3.40964">
        <ele>224.5</ele>
        <time>2016-02-21T12:46:58Z</time>
      </trkpt>
      <trkpt lat="43.6063" lon="3.40964">
        <ele>224.5</ele>
        <time>2016-02-21T12:47:00Z</time>
      </trkpt>
      <trkpt lat="43.60624" lon="3.40963">
        <ele>222.5</ele>
        <time>2016-02-21T12:47:01Z</time>
      </trkpt>
      <trkpt lat="43.60617" lon="3.40959">
        <ele>221.5</ele>
        <time>2016-02-21T12:47:03Z</time>
      </trkpt>
      <trkpt lat="43.60613" lon="3.40956">
        <ele>220</ele>
        <time>2016-02-21T12:47:04Z</time>
      </trkpt>
      <trkpt lat="43.60599" lon="3.4095">
        <ele>220</ele>
        <time>2016-02-21T12:47:06Z</time>
      </trkpt>
      <trkpt lat="43.60592" lon="3.40947">
        <ele>221</ele>
        <time>2016-02-21T12:47:07Z</time>
      </trkpt>
      <trkpt lat="43.60586" lon="3.40943">
        <ele>220</ele>
        <time>2016-02-21T12:47:08Z</time>
      </trkpt>
      <trkpt lat="43.60581" lon="3.40938">
        <ele>219</ele>
        <time>2016-02-21T12:47:09Z</time>
      </trkpt>
      <trkpt lat="43.60577" lon="3.40934">
        <ele>217.5</ele>
        <time>2016-02-21T12:47:10Z</time>
      </trkpt>
      <trkpt lat="43.60576" lon="3.4093">
        <ele>217</ele>
        <time>2016-02-21T12:47:12Z</time>
      </trkpt>
      <trkpt lat="43.60576" lon="3.40924">
        <ele>215.5</ele>
        <time>2016-02-21T12:47:13Z</time>
      </trkpt>
      <trkpt lat="43.60577" lon="3.40919">
        <ele>213</ele>
        <time>2016-02-21T12:47:14Z</time>
      </trkpt>
      <trkpt lat="43.60579" lon="3.40915">
        <ele>213</ele>
        <time>2016-02-21T12:47:15Z</time>
      </trkpt>
      <trkpt lat="43.60582" lon="3.40911">
        <ele>212.5</ele>
        <time>2016-02-21T12:47:17Z</time>
      </trkpt>
      <trkpt lat="43.60585" lon="3.40913">
        <ele>211</ele>
        <time>2016-02-21T12:47:18Z</time>
      </trkpt>
      <trkpt lat="43.60587" lon="3.4091">
        <ele>212</ele>
        <time>2016-02-21T12:47:19Z</time>
      </trkpt>
      <trkpt lat="43.60587" lon="3.40913">
        <ele>212</ele>
        <time>2016-02-21T12:47:20Z</time>
      </trkpt>
      <trkpt lat="43.60589" lon="3.4091">
        <ele>212</ele>
        <time>2016-02-21T12:47:21Z</time>
      </trkpt>
      <trkpt lat="43.60589" lon="3.40904">
        <ele>212</ele>
        <time>2016-02-21T12:47:22Z</time>
      </trkpt>
      <trkpt lat="43.6059" lon="3.4088">
        <ele>211.5</ele>
        <time>2016-02-21T12:47:25Z</time>
      </trkpt>
      <trkpt lat="43.6059" lon="3.40873">
        <ele>212</ele>
        <time>2016-02-21T12:47:26Z</time>
      </trkpt>
      <trkpt lat="43.60593" lon="3.40867">
        <ele>210</ele>
        <time>2016-02-21T12:47:27Z</time>
      </trkpt>
      <trkpt lat="43.60593" lon="3.40862">
        <ele>209.5</ele>
        <time>2016-02-21T12:47:28Z</time>
      </trkpt>
      <trkpt lat="43.60587" lon="3.40847">
        <ele>209.5</ele>
        <time>2016-02-21T12:47:30Z</time>
      </trkpt>
      <trkpt lat="43.60587" lon="3.40839">
        <ele>208.5</ele>
        <time>2016-02-21T12:47:31Z</time>
      </trkpt>
      <trkpt lat="43.60586" lon="3.40831">
        <ele>208.5</ele>
        <time>2016-02-21T12:47:32Z</time>
      </trkpt>
      <trkpt lat="43.60586" lon="3.40826">
        <ele>208.5</ele>
        <time>2016-02-21T12:47:33Z</time>
      </trkpt>
      <trkpt lat="43.60586" lon="3.40821">
        <ele>208</ele>
        <time>2016-02-21T12:47:34Z</time>
      </trkpt>
      <trkpt lat="43.60586" lon="3.40818">
        <ele>207</ele>
        <time>2016-02-21T12:47:35Z</time>
      </trkpt>
      <trkpt lat="43.60589" lon="3.40815">
        <ele>207</ele>
        <time>2016-02-21T12:47:36Z</time>
      </trkpt>
      <trkpt lat="43.60592" lon="3.40812">
        <ele>206.5</ele>
        <time>2016-02-21T12:47:37Z</time>
      </trkpt>
      <trkpt lat="43.60595" lon="3.40809">
        <ele>207</ele>
        <time>2016-02-21T12:47:38Z</time>
      </trkpt>
      <trkpt lat="43.60599" lon="3.40805">
        <ele>207</ele>
        <time>2016-02-21T12:47:39Z</time>
      </trkpt>
      <trkpt lat="43.60602" lon="3.40799">
        <ele>205</ele>
        <time>2016-02-21T12:47:40Z</time>
      </trkpt>
      <trkpt lat="43.60605" lon="3.40793">
        <ele>205.5</ele>
        <time>2016-02-21T12:47:41Z</time>
      </trkpt>
      <trkpt lat="43.60608" lon="3.40786">
        <ele>206.5</ele>
        <time>2016-02-21T12:47:42Z</time>
      </trkpt>
      <trkpt lat="43.60612" lon="3.4078">
        <ele>205.5</ele>
        <time>2016-02-21T12:47:43Z</time>
      </trkpt>
      <trkpt lat="43.60613" lon="3.40772">
        <ele>206</ele>
        <time>2016-02-21T12:47:44Z</time>
      </trkpt>
      <trkpt lat="43.60615" lon="3.40765">
        <ele>206</ele>
        <time>2016-02-21T12:47:45Z</time>
      </trkpt>
      <trkpt lat="43.60616" lon="3.40758">
        <ele>206</ele>
        <time>2016-02-21T12:47:46Z</time>
      </trkpt>
      <trkpt lat="43.60618" lon="3.40752">
        <ele>206</ele>
        <time>2016-02-21T12:47:47Z</time>
      </trkpt>
      <trkpt lat="43.60621" lon="3.40745">
        <ele>206</ele>
        <time>2016-02-21T12:47:48Z</time>
      </trkpt>
      <trkpt lat="43.60622" lon="3.40738">
        <ele>204.5</ele>
        <time>2016-02-21T12:47:49Z</time>
      </trkpt>
      <trkpt lat="43.60624" lon="3.40732">
        <ele>205</ele>
        <time>2016-02-21T12:47:50Z</time>
      </trkpt>
      <trkpt lat="43.60626" lon="3.40726">
        <ele>205</ele>
        <time>2016-02-21T12:47:51Z</time>
      </trkpt>
      <trkpt lat="43.60629" lon="3.4072">
        <ele>204</ele>
        <time>2016-02-21T12:47:52Z</time>
      </trkpt>
      <trkpt lat="43.6063" lon="3.40715">
        <ele>204</ele>
        <time>2016-02-21T12:47:53Z</time>
      </trkpt>
      <trkpt lat="43.60631" lon="3.40708">
        <ele>204</ele>
        <time>2016-02-21T12:47:54Z</time>
      </trkpt>
      <trkpt lat="43.60634" lon="3.40702">
        <ele>203</ele>
        <time>2016-02-21T12:47:55Z</time>
      </trkpt>
      <trkpt lat="43.60635" lon="3.40696">
        <ele>202.5</ele>
        <time>2016-02-21T12:47:56Z</time>
      </trkpt>
      <trkpt lat="43.60639" lon="3.40689">
        <ele>201</ele>
        <time>2016-02-21T12:47:57Z</time>
      </trkpt>
      <trkpt lat="43.60643" lon="3.40684">
        <ele>200</ele>
        <time>2016-02-21T12:47:58Z</time>
      </trkpt>
      <trkpt lat="43.60647" lon="3.40679">
        <ele>200</ele>
        <time>2016-02-21T12:47:59Z</time>
      </trkpt>
      <trkpt lat="43.60651" lon="3.40673">
        <ele>199.5</ele>
        <time>2016-02-21T12:48:00Z</time>
      </trkpt>
      <trkpt lat="43.60654" lon="3.40668">
        <ele>200</ele>
        <time>2016-02-21T12:48:01Z</time>
      </trkpt>
      <trkpt lat="43.60657" lon="3.40665">
        <ele>202</ele>
        <time>2016-02-21T12:48:02Z</time>
      </trkpt>
      <trkpt lat="43.60657" lon="3.40659">
        <ele>203</ele>
        <time>2016-02-21T12:48:03Z</time>
      </trkpt>
      <trkpt lat="43.60658" lon="3.40655">
        <ele>202.5</ele>
        <time>2016-02-21T12:48:04Z</time>
      </trkpt>
      <trkpt lat="43.6066" lon="3.4065">
        <ele>203.5</ele>
        <time>2016-02-21T12:48:05Z</time>
      </trkpt>
      <trkpt lat="43.60663" lon="3.40645">
        <ele>202.5</ele>
        <time>2016-02-21T12:48:06Z</time>
      </trkpt>
      <trkpt lat="43.60668" lon="3.40642">
        <ele>202.5</ele>
        <time>2016-02-21T12:48:07Z</time>
      </trkpt>
      <trkpt lat="43.60672" lon="3.40639">
        <ele>202</ele>
        <time>2016-02-21T12:48:08Z</time>
      </trkpt>
      <trkpt lat="43.60676" lon="3.40637">
        <ele>203</ele>
        <time>2016-02-21T12:48:09Z</time>
      </trkpt>
      <trkpt lat="43.60681" lon="3.40639">
        <ele>202</ele>
        <time>2016-02-21T12:48:10Z</time>
      </trkpt>
      <trkpt lat="43.60686" lon="3.40641">
        <ele>201.5</ele>
        <time>2016-02-21T12:48:11Z</time>
      </trkpt>
      <trkpt lat="43.6069" lon="3.4064">
        <ele>199.5</ele>
        <time>2016-02-21T12:48:12Z</time>
      </trkpt>
      <trkpt lat="43.60697" lon="3.40637">
        <ele>198</ele>
        <time>2016-02-21T12:48:14Z</time>
      </trkpt>
      <trkpt lat="43.607" lon="3.40635">
        <ele>198</ele>
        <time>2016-02-21T12:48:15Z</time>
      </trkpt>
      <trkpt lat="43.60704" lon="3.40636">
        <ele>197</ele>
        <time>2016-02-21T12:48:16Z</time>
      </trkpt>
      <trkpt lat="43.60706" lon="3.40635">
        <ele>197</ele>
        <time>2016-02-21T12:48:17Z</time>
      </trkpt>
      <trkpt lat="43.60707" lon="3.40634">
        <ele>197</ele>
        <time>2016-02-21T12:48:18Z</time>
      </trkpt>
      <trkpt lat="43.60708" lon="3.40632">
        <ele>197</ele>
        <time>2016-02-21T12:48:19Z</time>
      </trkpt>
      <trkpt lat="43.60708" lon="3.40631">
        <ele>197.5</ele>
        <time>2016-02-21T12:48:20Z</time>
      </trkpt>
      <trkpt lat="43.60707" lon="3.40629">
        <ele>197.5</ele>
        <time>2016-02-21T12:48:21Z</time>
      </trkpt>
      <trkpt lat="43.60706" lon="3.40627">
        <ele>197.5</ele>
        <time>2016-02-21T12:48:22Z</time>
      </trkpt>
      <trkpt lat="43.60704" lon="3.40626">
        <ele>198</ele>
        <time>2016-02-21T12:48:23Z</time>
      </trkpt>
      <trkpt lat="43.60702" lon="3.40625">
        <ele>196.5</ele>
        <time>2016-02-21T12:48:24Z</time>
      </trkpt>
      <trkpt lat="43.60699" lon="3.40626">
        <ele>198</ele>
        <time>2016-02-21T12:48:25Z</time>
      </trkpt>
      <trkpt lat="43.60695" lon="3.40625">
        <ele>197.5</ele>
        <time>2016-02-21T12:48:26Z</time>
      </trkpt>
      <trkpt lat="43.60691" lon="3.40623">
        <ele>198.5</ele>
        <time>2016-02-21T12:48:27Z</time>
      </trkpt>
      <trkpt lat="43.60688" lon="3.40621">
        <ele>198.5</ele>
        <time>2016-02-21T12:48:28Z</time>
      </trkpt>
      <trkpt lat="43.60683" lon="3.40619">
        <ele>198</ele>
        <time>2016-02-21T12:48:29Z</time>
      </trkpt>
      <trkpt lat="43.60679" lon="3.40619">
        <ele>198</ele>
        <time>2016-02-21T12:48:30Z</time>
      </trkpt>
      <trkpt lat="43.60675" lon="3.40618">
        <ele>197.5</ele>
        <time>2016-02-21T12:48:31Z</time>
      </trkpt>
      <trkpt lat="43.60671" lon="3.40616">
        <ele>197</ele>
        <time>2016-02-21T12:48:32Z</time>
      </trkpt>
      <trkpt lat="43.60666" lon="3.40614">
        <ele>196</ele>
        <time>2016-02-21T12:48:33Z</time>
      </trkpt>
      <trkpt lat="43.60661" lon="3.40611">
        <ele>195.5</ele>
        <time>2016-02-21T12:48:34Z</time>
      </trkpt>
      <trkpt lat="43.60657" lon="3.40608">
        <ele>195.5</ele>
        <time>2016-02-21T12:48:35Z</time>
      </trkpt>
      <trkpt lat="43.60653" lon="3.40605">
        <ele>195.5</ele>
        <time>2016-02-21T12:48:36Z</time>
      </trkpt>
      <trkpt lat="43.60648" lon="3.40603">
        <ele>194.5</ele>
        <time>2016-02-21T12:48:37Z</time>
      </trkpt>
      <trkpt lat="43.60643" lon="3.40601">
        <ele>194.5</ele>
        <time>2016-02-21T12:48:38Z</time>
      </trkpt>
      <trkpt lat="43.60638" lon="3.40599">
        <ele>195</ele>
        <time>2016-02-21T12:48:39Z</time>
      </trkpt>
      <trkpt lat="43.60634" lon="3.40598">
        <ele>195.5</ele>
        <time>2016-02-21T12:48:40Z</time>
      </trkpt>
      <trkpt lat="43.60632" lon="3.40592">
        <ele>196</ele>
        <time>2016-02-21T12:48:42Z</time>
      </trkpt>
      <trkpt lat="43.60632" lon="3.4059">
        <ele>196.5</ele>
        <time>2016-02-21T12:48:43Z</time>
      </trkpt>
      <trkpt lat="43.60633" lon="3.40589">
        <ele>196</ele>
        <time>2016-02-21T12:48:44Z</time>
      </trkpt>
      <trkpt lat="43.60635" lon="3.40588">
        <ele>195</ele>
        <time>2016-02-21T12:48:45Z</time>
      </trkpt>
      <trkpt lat="43.60637" lon="3.40587">
        <ele>195.5</ele>
        <time>2016-02-21T12:48:46Z</time>
      </trkpt>
      <trkpt lat="43.60639" lon="3.40585">
        <ele>197</ele>
        <time>2016-02-21T12:48:47Z</time>
      </trkpt>
      <trkpt lat="43.60641" lon="3.40583">
        <ele>196.5</ele>
        <time>2016-02-21T12:48:48Z</time>
      </trkpt>
      <trkpt lat="43.60644" lon="3.4058">
        <ele>197</ele>
        <time>2016-02-21T12:48:49Z</time>
      </trkpt>
      <trkpt lat="43.60647" lon="3.40577">
        <ele>196.5</ele>
        <time>2016-02-21T12:48:50Z</time>
      </trkpt>
      <trkpt lat="43.60651" lon="3.40575">
        <ele>196</ele>
        <time>2016-02-21T12:48:51Z</time>
      </trkpt>
      <trkpt lat="43.60654" lon="3.40573">
        <ele>196</ele>
        <time>2016-02-21T12:48:52Z</time>
      </trkpt>
      <trkpt lat="43.60657" lon="3.40571">
        <ele>197.5</ele>
        <time>2016-02-21T12:48:53Z</time>
      </trkpt>
      <trkpt lat="43.6066" lon="3.40568">
        <ele>197.5</ele>
        <time>2016-02-21T12:48:54Z</time>
      </trkpt>
      <trkpt lat="43.60663" lon="3.40565">
        <ele>197.5</ele>
        <time>2016-02-21T12:48:55Z</time>
      </trkpt>
      <trkpt lat="43.60666" lon="3.40563">
        <ele>199</ele>
        <time>2016-02-21T12:48:56Z</time>
      </trkpt>
      <trkpt lat="43.60668" lon="3.4056">
        <ele>199.5</ele>
        <time>2016-02-21T12:48:57Z</time>
      </trkpt>
      <trkpt lat="43.60671" lon="3.40557">
        <ele>200.5</ele>
        <time>2016-02-21T12:48:58Z</time>
      </trkpt>
      <trkpt lat="43.60674" lon="3.40554">
        <ele>200.5</ele>
        <time>2016-02-21T12:48:59Z</time>
      </trkpt>
      <trkpt lat="43.60678" lon="3.40551">
        <ele>198.5</ele>
        <time>2016-02-21T12:49:00Z</time>
      </trkpt>
      <trkpt lat="43.60681" lon="3.40548">
        <ele>198</ele>
        <time>2016-02-21T12:49:01Z</time>
      </trkpt>
      <trkpt lat="43.60683" lon="3.40545">
        <ele>197</ele>
        <time>2016-02-21T12:49:02Z</time>
      </trkpt>
      <trkpt lat="43.60687" lon="3.40542">
        <ele>197</ele>
        <time>2016-02-21T12:49:03Z</time>
      </trkpt>
      <trkpt lat="43.6069" lon="3.4054">
        <ele>197.5</ele>
        <time>2016-02-21T12:49:04Z</time>
      </trkpt>
      <trkpt lat="43.60693" lon="3.40537">
        <ele>197.5</ele>
        <time>2016-02-21T12:49:05Z</time>
      </trkpt>
      <trkpt lat="43.60697" lon="3.40535">
        <ele>199</ele>
        <time>2016-02-21T12:49:06Z</time>
      </trkpt>
      <trkpt lat="43.60701" lon="3.40532">
        <ele>200</ele>
        <time>2016-02-21T12:49:07Z</time>
      </trkpt>
      <trkpt lat="43.60705" lon="3.40529">
        <ele>201</ele>
        <time>2016-02-21T12:49:08Z</time>
      </trkpt>
      <trkpt lat="43.60708" lon="3.40526">
        <ele>201</ele>
        <time>2016-02-21T12:49:09Z</time>
      </trkpt>
      <trkpt lat="43.60712" lon="3.40523">
        <ele>201.5</ele>
        <time>2016-02-21T12:49:10Z</time>
      </trkpt>
      <trkpt lat="43.60716" lon="3.4052">
        <ele>201.5</ele>
        <time>2016-02-21T12:49:11Z</time>
      </trkpt>
      <trkpt lat="43.60719" lon="3.40517">
        <ele>201.5</ele>
        <time>2016-02-21T12:49:12Z</time>
      </trkpt>
      <trkpt lat="43.60722" lon="3.40514">
        <ele>202</ele>
        <time>2016-02-21T12:49:13Z</time>
      </trkpt>
      <trkpt lat="43.60726" lon="3.40512">
        <ele>202.5</ele>
        <time>2016-02-21T12:49:14Z</time>
      </trkpt>
      <trkpt lat="43.60729" lon="3.4051">
        <ele>203.5</ele>
        <time>2016-02-21T12:49:15Z</time>
      </trkpt>
      <trkpt lat="43.60733" lon="3.40507">
        <ele>204</ele>
        <time>2016-02-21T12:49:16Z</time>
      </trkpt>
      <trkpt lat="43.60736" lon="3.40504">
        <ele>205</ele>
        <time>2016-02-21T12:49:17Z</time>
      </trkpt>
      <trkpt lat="43.60739" lon="3.40502">
        <ele>206</ele>
        <time>2016-02-21T12:49:18Z</time>
      </trkpt>
      <trkpt lat="43.60742" lon="3.40498">
        <ele>204</ele>
        <time>2016-02-21T12:49:19Z</time>
      </trkpt>
      <trkpt lat="43.60744" lon="3.40495">
        <ele>203</ele>
        <time>2016-02-21T12:49:20Z</time>
      </trkpt>
      <trkpt lat="43.60747" lon="3.40492">
        <ele>203</ele>
        <time>2016-02-21T12:49:21Z</time>
      </trkpt>
      <trkpt lat="43.60751" lon="3.40491">
        <ele>203</ele>
        <time>2016-02-21T12:49:22Z</time>
      </trkpt>
      <trkpt lat="43.60754" lon="3.40488">
        <ele>202.5</ele>
        <time>2016-02-21T12:49:23Z</time>
      </trkpt>
      <trkpt lat="43.60757" lon="3.40487">
        <ele>202.5</ele>
        <time>2016-02-21T12:49:24Z</time>
      </trkpt>
      <trkpt lat="43.6076" lon="3.40484">
        <ele>202.5</ele>
        <time>2016-02-21T12:49:25Z</time>
      </trkpt>
      <trkpt lat="43.60762" lon="3.40481">
        <ele>202</ele>
        <time>2016-02-21T12:49:26Z</time>
      </trkpt>
      <trkpt lat="43.60766" lon="3.40479">
        <ele>201.5</ele>
        <time>2016-02-21T12:49:27Z</time>
      </trkpt>
      <trkpt lat="43.60768" lon="3.40474">
        <ele>198</ele>
        <time>2016-02-21T12:49:28Z</time>
      </trkpt>
      <trkpt lat="43.60771" lon="3.4047">
        <ele>197.5</ele>
        <time>2016-02-21T12:49:29Z</time>
      </trkpt>
      <trkpt lat="43.60774" lon="3.40466">
        <ele>197</ele>
        <time>2016-02-21T12:49:30Z</time>
      </trkpt>
      <trkpt lat="43.60777" lon="3.40462">
        <ele>196</ele>
        <time>2016-02-21T12:49:31Z</time>
      </trkpt>
      <trkpt lat="43.6078" lon="3.40459">
        <ele>196</ele>
        <time>2016-02-21T12:49:32Z</time>
      </trkpt>
      <trkpt lat="43.60783" lon="3.40455">
        <ele>196</ele>
        <time>2016-02-21T12:49:33Z</time>
      </trkpt>
      <trkpt lat="43.60787" lon="3.40452">
        <ele>194.5</ele>
        <time>2016-02-21T12:49:34Z</time>
      </trkpt>
      <trkpt lat="43.6079" lon="3.40448">
        <ele>195</ele>
        <time>2016-02-21T12:49:35Z</time>
      </trkpt>
      <trkpt lat="43.60793" lon="3.40444">
        <ele>195.5</ele>
        <time>2016-02-21T12:49:36Z</time>
      </trkpt>
      <trkpt lat="43.60796" lon="3.4044">
        <ele>195.5</ele>
        <time>2016-02-21T12:49:36Z</time>
      </trkpt>
      <trkpt lat="43.60799" lon="3.40436">
        <ele>195.5</ele>
        <time>2016-02-21T12:49:38Z</time>
      </trkpt>
      <trkpt lat="43.60801" lon="3.40432">
        <ele>196</ele>
        <time>2016-02-21T12:49:38Z</time>
      </trkpt>
      <trkpt lat="43.60804" lon="3.40429">
        <ele>196.5</ele>
        <time>2016-02-21T12:49:39Z</time>
      </trkpt>
      <trkpt lat="43.60807" lon="3.40425">
        <ele>197</ele>
        <time>2016-02-21T12:49:41Z</time>
      </trkpt>
      <trkpt lat="43.6081" lon="3.40422">
        <ele>197</ele>
        <time>2016-02-21T12:49:41Z</time>
      </trkpt>
      <trkpt lat="43.60811" lon="3.40418">
        <ele>196</ele>
        <time>2016-02-21T12:49:42Z</time>
      </trkpt>
      <trkpt lat="43.60813" lon="3.40414">
        <ele>194.5</ele>
        <time>2016-02-21T12:49:43Z</time>
      </trkpt>
      <trkpt lat="43.60816" lon="3.40411">
        <ele>196</ele>
        <time>2016-02-21T12:49:44Z</time>
      </trkpt>
      <trkpt lat="43.60819" lon="3.40408">
        <ele>197</ele>
        <time>2016-02-21T12:49:45Z</time>
      </trkpt>
      <trkpt lat="43.60821" lon="3.40405">
        <ele>198</ele>
        <time>2016-02-21T12:49:46Z</time>
      </trkpt>
      <trkpt lat="43.60824" lon="3.40402">
        <ele>198.5</ele>
        <time>2016-02-21T12:49:47Z</time>
      </trkpt>
      <trkpt lat="43.60826" lon="3.404">
        <ele>199.5</ele>
        <time>2016-02-21T12:49:48Z</time>
      </trkpt>
      <trkpt lat="43.60829" lon="3.40397">
        <ele>200.5</ele>
        <time>2016-02-21T12:49:49Z</time>
      </trkpt>
      <trkpt lat="43.60831" lon="3.40394">
        <ele>201</ele>
        <time>2016-02-21T12:49:50Z</time>
      </trkpt>
      <trkpt lat="43.60833" lon="3.40389">
        <ele>198.5</ele>
        <time>2016-02-21T12:49:51Z</time>
      </trkpt>
      <trkpt lat="43.60836" lon="3.40386">
        <ele>198</ele>
        <time>2016-02-21T12:49:52Z</time>
      </trkpt>
      <trkpt lat="43.60839" lon="3.40384">
        <ele>198.5</ele>
        <time>2016-02-21T12:49:53Z</time>
      </trkpt>
      <trkpt lat="43.60841" lon="3.40381">
        <ele>197</ele>
        <time>2016-02-21T12:49:54Z</time>
      </trkpt>
      <trkpt lat="43.60843" lon="3.40378">
        <ele>197.5</ele>
        <time>2016-02-21T12:49:55Z</time>
      </trkpt>
      <trkpt lat="43.60846" lon="3.40376">
        <ele>197.5</ele>
        <time>2016-02-21T12:49:56Z</time>
      </trkpt>
      <trkpt lat="43.60848" lon="3.40374">
        <ele>199.5</ele>
        <time>2016-02-21T12:49:57Z</time>
      </trkpt>
      <trkpt lat="43.60851" lon="3.40372">
        <ele>201</ele>
        <time>2016-02-21T12:49:58Z</time>
      </trkpt>
      <trkpt lat="43.60853" lon="3.4037">
        <ele>202</ele>
        <time>2016-02-21T12:49:59Z</time>
      </trkpt>
      <trkpt lat="43.60855" lon="3.40368">
        <ele>202.5</ele>
        <time>2016-02-21T12:50:00Z</time>
      </trkpt>
      <trkpt lat="43.60857" lon="3.40366">
        <ele>204</ele>
        <time>2016-02-21T12:50:01Z</time>
      </trkpt>
      <trkpt lat="43.60859" lon="3.40363">
        <ele>204.5</ele>
        <time>2016-02-21T12:50:02Z</time>
      </trkpt>
      <trkpt lat="43.60861" lon="3.40362">
        <ele>206</ele>
        <time>2016-02-21T12:50:03Z</time>
      </trkpt>
      <trkpt lat="43.60864" lon="3.4036">
        <ele>207.5</ele>
        <time>2016-02-21T12:50:04Z</time>
      </trkpt>
      <trkpt lat="43.60866" lon="3.40358">
        <ele>208.5</ele>
        <time>2016-02-21T12:50:05Z</time>
      </trkpt>
      <trkpt lat="43.60868" lon="3.40357">
        <ele>209.5</ele>
        <time>2016-02-21T12:50:06Z</time>
      </trkpt>
      <trkpt lat="43.6087" lon="3.40354">
        <ele>209.5</ele>
        <time>2016-02-21T12:50:07Z</time>
      </trkpt>
      <trkpt lat="43.60871" lon="3.40351">
        <ele>207</ele>
        <time>2016-02-21T12:50:08Z</time>
      </trkpt>
      <trkpt lat="43.60874" lon="3.40348">
        <ele>205</ele>
        <time>2016-02-21T12:50:09Z</time>
      </trkpt>
      <trkpt lat="43.60875" lon="3.40344">
        <ele>201.5</ele>
        <time>2016-02-21T12:50:10Z</time>
      </trkpt>
      <trkpt lat="43.60877" lon="3.40339">
        <ele>197</ele>
        <time>2016-02-21T12:50:11Z</time>
      </trkpt>
      <trkpt lat="43.60878" lon="3.40336">
        <ele>196</ele>
        <time>2016-02-21T12:50:12Z</time>
      </trkpt>
      <trkpt lat="43.60881" lon="3.40334">
        <ele>195.5</ele>
        <time>2016-02-21T12:50:13Z</time>
      </trkpt>
      <trkpt lat="43.60883" lon="3.40331">
        <ele>195.5</ele>
        <time>2016-02-21T12:50:14Z</time>
      </trkpt>
      <trkpt lat="43.60885" lon="3.40329">
        <ele>196.5</ele>
        <time>2016-02-21T12:50:15Z</time>
      </trkpt>
      <trkpt lat="43.60887" lon="3.40327">
        <ele>197.5</ele>
        <time>2016-02-21T12:50:16Z</time>
      </trkpt>
      <trkpt lat="43.60888" lon="3.40324">
        <ele>197</ele>
        <time>2016-02-21T12:50:17Z</time>
      </trkpt>
      <trkpt lat="43.6089" lon="3.40321">
        <ele>196</ele>
        <time>2016-02-21T12:50:18Z</time>
      </trkpt>
      <trkpt lat="43.60892" lon="3.40318">
        <ele>196</ele>
        <time>2016-02-21T12:50:19Z</time>
      </trkpt>
      <trkpt lat="43.60894" lon="3.40315">
        <ele>196</ele>
        <time>2016-02-21T12:50:20Z</time>
      </trkpt>
      <trkpt lat="43.60894" lon="3.40311">
        <ele>196</ele>
        <time>2016-02-21T12:50:21Z</time>
      </trkpt>
      <trkpt lat="43.60894" lon="3.40307">
        <ele>196</ele>
        <time>2016-02-21T12:50:22Z</time>
      </trkpt>
      <trkpt lat="43.60896" lon="3.40304">
        <ele>196</ele>
        <time>2016-02-21T12:50:23Z</time>
      </trkpt>
      <trkpt lat="43.60898" lon="3.40301">
        <ele>195.5</ele>
        <time>2016-02-21T12:50:24Z</time>
      </trkpt>
      <trkpt lat="43.60898" lon="3.40297">
        <ele>194.5</ele>
        <time>2016-02-21T12:50:25Z</time>
      </trkpt>
      <trkpt lat="43.60899" lon="3.40294">
        <ele>193.5</ele>
        <time>2016-02-21T12:50:26Z</time>
      </trkpt>
      <trkpt lat="43.60901" lon="3.40292">
        <ele>193.5</ele>
        <time>2016-02-21T12:50:27Z</time>
      </trkpt>
      <trkpt lat="43.60903" lon="3.40289">
        <ele>194</ele>
        <time>2016-02-21T12:50:28Z</time>
      </trkpt>
      <trkpt lat="43.60906" lon="3.40287">
        <ele>195</ele>
        <time>2016-02-21T12:50:29Z</time>
      </trkpt>
      <trkpt lat="43.60909" lon="3.40284">
        <ele>197.5</ele>
        <time>2016-02-21T12:50:30Z</time>
      </trkpt>
      <trkpt lat="43.60912" lon="3.40282">
        <ele>199.5</ele>
        <time>2016-02-21T12:50:31Z</time>
      </trkpt>
      <trkpt lat="43.60915" lon="3.40279">
        <ele>200</ele>
        <time>2016-02-21T12:50:32Z</time>
      </trkpt>
      <trkpt lat="43.60917" lon="3.40276">
        <ele>201</ele>
        <time>2016-02-21T12:50:33Z</time>
      </trkpt>
      <trkpt lat="43.60919" lon="3.40273">
        <ele>201.5</ele>
        <time>2016-02-21T12:50:34Z</time>
      </trkpt>
      <trkpt lat="43.60922" lon="3.4027">
        <ele>201</ele>
        <time>2016-02-21T12:50:35Z</time>
      </trkpt>
      <trkpt lat="43.60925" lon="3.40268">
        <ele>202</ele>
        <time>2016-02-21T12:50:36Z</time>
      </trkpt>
      <trkpt lat="43.60928" lon="3.40265">
        <ele>202.5</ele>
        <time>2016-02-21T12:50:37Z</time>
      </trkpt>
      <trkpt lat="43.60931" lon="3.40262">
        <ele>203.5</ele>
        <time>2016-02-21T12:50:38Z</time>
      </trkpt>
      <trkpt lat="43.60933" lon="3.40258">
        <ele>200.5</ele>
        <time>2016-02-21T12:50:39Z</time>
      </trkpt>
      <trkpt lat="43.60935" lon="3.40253">
        <ele>197</ele>
        <time>2016-02-21T12:50:40Z</time>
      </trkpt>
      <trkpt lat="43.60935" lon="3.40248">
        <ele>193</ele>
        <time>2016-02-21T12:50:41Z</time>
      </trkpt>
      <trkpt lat="43.60937" lon="3.40243">
        <ele>187</ele>
        <time>2016-02-21T12:50:42Z</time>
      </trkpt>
      <trkpt lat="43.60937" lon="3.40238">
        <ele>181</ele>
        <time>2016-02-21T12:50:43Z</time>
      </trkpt>
      <trkpt lat="43.60938" lon="3.40233">
        <ele>175.5</ele>
        <time>2016-02-21T12:50:44Z</time>
      </trkpt>
      <trkpt lat="43.60939" lon="3.40229">
        <ele>175</ele>
        <time>2016-02-21T12:50:45Z</time>
      </trkpt>
      <trkpt lat="43.60941" lon="3.40227">
        <ele>174.5</ele>
        <time>2016-02-21T12:50:46Z</time>
      </trkpt>
      <trkpt lat="43.60943" lon="3.40225">
        <ele>174</ele>
        <time>2016-02-21T12:50:47Z</time>
      </trkpt>
      <trkpt lat="43.60945" lon="3.40222">
        <ele>172</ele>
        <time>2016-02-21T12:50:48Z</time>
      </trkpt>
      <trkpt lat="43.60947" lon="3.4022">
        <ele>172.5</ele>
        <time>2016-02-21T12:50:49Z</time>
      </trkpt>
      <trkpt lat="43.60948" lon="3.40217">
        <ele>172.5</ele>
        <time>2016-02-21T12:50:50Z</time>
      </trkpt>
      <trkpt lat="43.60949" lon="3.40213">
        <ele>172.5</ele>
        <time>2016-02-21T12:50:51Z</time>
      </trkpt>
      <trkpt lat="43.60952" lon="3.40209">
        <ele>174.5</ele>
        <time>2016-02-21T12:50:52Z</time>
      </trkpt>
      <trkpt lat="43.60954" lon="3.40205">
        <ele>175</ele>
        <time>2016-02-21T12:50:53Z</time>
      </trkpt>
      <trkpt lat="43.60957" lon="3.40201">
        <ele>175.5</ele>
        <time>2016-02-21T12:50:54Z</time>
      </trkpt>
      <trkpt lat="43.6096" lon="3.40198">
        <ele>176.5</ele>
        <time>2016-02-21T12:50:55Z</time>
      </trkpt>
      <trkpt lat="43.60962" lon="3.40195">
        <ele>177</ele>
        <time>2016-02-21T12:50:56Z</time>
      </trkpt>
      <trkpt lat="43.60965" lon="3.40193">
        <ele>177.5</ele>
        <time>2016-02-21T12:50:57Z</time>
      </trkpt>
      <trkpt lat="43.60967" lon="3.4019">
        <ele>178</ele>
        <time>2016-02-21T12:50:58Z</time>
      </trkpt>
      <trkpt lat="43.60969" lon="3.40188">
        <ele>178.5</ele>
        <time>2016-02-21T12:50:59Z</time>
      </trkpt>
      <trkpt lat="43.60979" lon="3.40186">
        <ele>179.5</ele>
        <time>2016-02-21T12:51:01Z</time>
      </trkpt>
      <trkpt lat="43.60982" lon="3.40185">
        <ele>180</ele>
        <time>2016-02-21T12:51:02Z</time>
      </trkpt>
      <trkpt lat="43.60986" lon="3.40184">
        <ele>182</ele>
        <time>2016-02-21T12:51:03Z</time>
      </trkpt>
      <trkpt lat="43.60989" lon="3.40183">
        <ele>183.5</ele>
        <time>2016-02-21T12:51:04Z</time>
      </trkpt>
      <trkpt lat="43.60992" lon="3.40181">
        <ele>184</ele>
        <time>2016-02-21T12:51:05Z</time>
      </trkpt>
      <trkpt lat="43.60995" lon="3.4018">
        <ele>185</ele>
        <time>2016-02-21T12:51:06Z</time>
      </trkpt>
      <trkpt lat="43.60998" lon="3.40177">
        <ele>184.5</ele>
        <time>2016-02-21T12:51:07Z</time>
      </trkpt>
      <trkpt lat="43.60999" lon="3.40173">
        <ele>185</ele>
        <time>2016-02-21T12:51:08Z</time>
      </trkpt>
      <trkpt lat="43.61001" lon="3.40171">
        <ele>185</ele>
        <time>2016-02-21T12:51:09Z</time>
      </trkpt>
      <trkpt lat="43.61003" lon="3.40169">
        <ele>185.5</ele>
        <time>2016-02-21T12:51:10Z</time>
      </trkpt>
      <trkpt lat="43.61006" lon="3.40166">
        <ele>186</ele>
        <time>2016-02-21T12:51:11Z</time>
      </trkpt>
      <trkpt lat="43.61008" lon="3.40165">
        <ele>187.5</ele>
        <time>2016-02-21T12:51:12Z</time>
      </trkpt>
      <trkpt lat="43.6101" lon="3.40163">
        <ele>187.5</ele>
        <time>2016-02-21T12:51:13Z</time>
      </trkpt>
      <trkpt lat="43.61012" lon="3.4016">
        <ele>187</ele>
        <time>2016-02-21T12:51:14Z</time>
      </trkpt>
      <trkpt lat="43.61021" lon="3.4016">
        <ele>185.5</ele>
        <time>2016-02-21T12:51:16Z</time>
      </trkpt>
      <trkpt lat="43.61023" lon="3.40157">
        <ele>186</ele>
        <time>2016-02-21T12:51:17Z</time>
      </trkpt>
      <trkpt lat="43.61025" lon="3.40154">
        <ele>186</ele>
        <time>2016-02-21T12:51:18Z</time>
      </trkpt>
      <trkpt lat="43.61026" lon="3.40151">
        <ele>186</ele>
        <time>2016-02-21T12:51:19Z</time>
      </trkpt>
      <trkpt lat="43.61027" lon="3.40147">
        <ele>186</ele>
        <time>2016-02-21T12:51:20Z</time>
      </trkpt>
      <trkpt lat="43.61029" lon="3.40144">
        <ele>186</ele>
        <time>2016-02-21T12:51:21Z</time>
      </trkpt>
      <trkpt lat="43.61031" lon="3.4014">
        <ele>185.5</ele>
        <time>2016-02-21T12:51:22Z</time>
      </trkpt>
      <trkpt lat="43.61034" lon="3.40136">
        <ele>185.5</ele>
        <time>2016-02-21T12:51:23Z</time>
      </trkpt>
      <trkpt lat="43.61036" lon="3.40133">
        <ele>186</ele>
        <time>2016-02-21T12:51:24Z</time>
      </trkpt>
      <trkpt lat="43.61038" lon="3.40129">
        <ele>186</ele>
        <time>2016-02-21T12:51:25Z</time>
      </trkpt>
      <trkpt lat="43.6104" lon="3.40126">
        <ele>185</ele>
        <time>2016-02-21T12:51:26Z</time>
      </trkpt>
      <trkpt lat="43.61042" lon="3.40121">
        <ele>184.5</ele>
        <time>2016-02-21T12:51:27Z</time>
      </trkpt>
      <trkpt lat="43.61044" lon="3.40118">
        <ele>184.5</ele>
        <time>2016-02-21T12:51:28Z</time>
      </trkpt>
      <trkpt lat="43.61044" lon="3.40113">
        <ele>183</ele>
        <time>2016-02-21T12:51:29Z</time>
      </trkpt>
      <trkpt lat="43.61046" lon="3.40109">
        <ele>181.5</ele>
        <time>2016-02-21T12:51:30Z</time>
      </trkpt>
      <trkpt lat="43.61046" lon="3.40104">
        <ele>178.5</ele>
        <time>2016-02-21T12:51:31Z</time>
      </trkpt>
      <trkpt lat="43.61048" lon="3.401">
        <ele>178.5</ele>
        <time>2016-02-21T12:51:32Z</time>
      </trkpt>
      <trkpt lat="43.61049" lon="3.40097">
        <ele>177.5</ele>
        <time>2016-02-21T12:51:33Z</time>
      </trkpt>
      <trkpt lat="43.61051" lon="3.40093">
        <ele>176.5</ele>
        <time>2016-02-21T12:51:34Z</time>
      </trkpt>
      <trkpt lat="43.61053" lon="3.40089">
        <ele>176</ele>
        <time>2016-02-21T12:51:35Z</time>
      </trkpt>
      <trkpt lat="43.61055" lon="3.40086">
        <ele>176.5</ele>
        <time>2016-02-21T12:51:36Z</time>
      </trkpt>
      <trkpt lat="43.61058" lon="3.40084">
        <ele>176.5</ele>
        <time>2016-02-21T12:51:37Z</time>
      </trkpt>
      <trkpt lat="43.61062" lon="3.40082">
        <ele>177</ele>
        <time>2016-02-21T12:51:38Z</time>
      </trkpt>
      <trkpt lat="43.61065" lon="3.40079">
        <ele>177.5</ele>
        <time>2016-02-21T12:51:39Z</time>
      </trkpt>
      <trkpt lat="43.61069" lon="3.40077">
        <ele>178</ele>
        <time>2016-02-21T12:51:40Z</time>
      </trkpt>
      <trkpt lat="43.61072" lon="3.40074">
        <ele>177.5</ele>
        <time>2016-02-21T12:51:41Z</time>
      </trkpt>
      <trkpt lat="43.61076" lon="3.40072">
        <ele>177.5</ele>
        <time>2016-02-21T12:51:42Z</time>
      </trkpt>
      <trkpt lat="43.6108" lon="3.4007">
        <ele>177.5</ele>
        <time>2016-02-21T12:51:43Z</time>
      </trkpt>
      <trkpt lat="43.61083" lon="3.40066">
        <ele>177.5</ele>
        <time>2016-02-21T12:51:44Z</time>
      </trkpt>
      <trkpt lat="43.61085" lon="3.40064">
        <ele>177</ele>
        <time>2016-02-21T12:51:45Z</time>
      </trkpt>
      <trkpt lat="43.61083" lon="3.4006">
        <ele>177</ele>
        <time>2016-02-21T12:51:46Z</time>
      </trkpt>
      <trkpt lat="43.61081" lon="3.40058">
        <ele>177.5</ele>
        <time>2016-02-21T12:51:48Z</time>
      </trkpt>
      <trkpt lat="43.61088" lon="3.40054">
        <ele>177.5</ele>
        <time>2016-02-21T12:51:50Z</time>
      </trkpt>
      <trkpt lat="43.61091" lon="3.40052">
        <ele>177.5</ele>
        <time>2016-02-21T12:51:51Z</time>
      </trkpt>
      <trkpt lat="43.61093" lon="3.40049">
        <ele>177.5</ele>
        <time>2016-02-21T12:51:52Z</time>
      </trkpt>
      <trkpt lat="43.61094" lon="3.40049">
        <ele>177.5</ele>
        <time>2016-02-21T12:51:53Z</time>
      </trkpt>
      <trkpt lat="43.61094" lon="3.40048">
        <ele>177.5</ele>
        <time>2016-02-21T12:51:54Z</time>
      </trkpt>
      <trkpt lat="43.61097" lon="3.40048">
        <ele>176.5</ele>
        <time>2016-02-21T12:51:55Z</time>
      </trkpt>
      <trkpt lat="43.61099" lon="3.40047">
        <ele>176.5</ele>
        <time>2016-02-21T12:51:56Z</time>
      </trkpt>
      <trkpt lat="43.61101" lon="3.40048">
        <ele>177.5</ele>
        <time>2016-02-21T12:51:57Z</time>
      </trkpt>
      <trkpt lat="43.61103" lon="3.4005">
        <ele>178</ele>
        <time>2016-02-21T12:51:58Z</time>
      </trkpt>
      <trkpt lat="43.61107" lon="3.40051">
        <ele>178</ele>
        <time>2016-02-21T12:51:59Z</time>
      </trkpt>
      <trkpt lat="43.61117" lon="3.40058">
        <ele>178</ele>
        <time>2016-02-21T12:52:01Z</time>
      </trkpt>
      <trkpt lat="43.61123" lon="3.40059">
        <ele>178</ele>
        <time>2016-02-21T12:52:02Z</time>
      </trkpt>
      <trkpt lat="43.61127" lon="3.40056">
        <ele>180</ele>
        <time>2016-02-21T12:52:03Z</time>
      </trkpt>
      <trkpt lat="43.61132" lon="3.40055">
        <ele>180.5</ele>
        <time>2016-02-21T12:52:04Z</time>
      </trkpt>
      <trkpt lat="43.6114" lon="3.40041">
        <ele>186.5</ele>
        <time>2016-02-21T12:52:06Z</time>
      </trkpt>
      <trkpt lat="43.61143" lon="3.40038">
        <ele>186.5</ele>
        <time>2016-02-21T12:52:07Z</time>
      </trkpt>
      <trkpt lat="43.61146" lon="3.40037">
        <ele>187</ele>
        <time>2016-02-21T12:52:08Z</time>
      </trkpt>
      <trkpt lat="43.61154" lon="3.40032">
        <ele>186</ele>
        <time>2016-02-21T12:52:10Z</time>
      </trkpt>
      <trkpt lat="43.61157" lon="3.40029">
        <ele>186</ele>
        <time>2016-02-21T12:52:11Z</time>
      </trkpt>
      <trkpt lat="43.61162" lon="3.40026">
        <ele>187.5</ele>
        <time>2016-02-21T12:52:12Z</time>
      </trkpt>
      <trkpt lat="43.61166" lon="3.40024">
        <ele>187.5</ele>
        <time>2016-02-21T12:52:13Z</time>
      </trkpt>
      <trkpt lat="43.6117" lon="3.40019">
        <ele>189.5</ele>
        <time>2016-02-21T12:52:14Z</time>
      </trkpt>
      <trkpt lat="43.61175" lon="3.40015">
        <ele>191</ele>
        <time>2016-02-21T12:52:15Z</time>
      </trkpt>
      <trkpt lat="43.6118" lon="3.40012">
        <ele>190.5</ele>
        <time>2016-02-21T12:52:16Z</time>
      </trkpt>
      <trkpt lat="43.61184" lon="3.4001">
        <ele>190</ele>
        <time>2016-02-21T12:52:17Z</time>
      </trkpt>
      <trkpt lat="43.61188" lon="3.40007">
        <ele>190.5</ele>
        <time>2016-02-21T12:52:18Z</time>
      </trkpt>
      <trkpt lat="43.61191" lon="3.40003">
        <ele>190.5</ele>
        <time>2016-02-21T12:52:19Z</time>
      </trkpt>
      <trkpt lat="43.61194" lon="3.39999">
        <ele>189</ele>
        <time>2016-02-21T12:52:20Z</time>
      </trkpt>
      <trkpt lat="43.61198" lon="3.39995">
        <ele>189.5</ele>
        <time>2016-02-21T12:52:21Z</time>
      </trkpt>
      <trkpt lat="43.61201" lon="3.39991">
        <ele>190.5</ele>
        <time>2016-02-21T12:52:22Z</time>
      </trkpt>
      <trkpt lat="43.61205" lon="3.39988">
        <ele>193</ele>
        <time>2016-02-21T12:52:24Z</time>
      </trkpt>
      <trkpt lat="43.6121" lon="3.39987">
        <ele>193.5</ele>
        <time>2016-02-21T12:52:25Z</time>
      </trkpt>
      <trkpt lat="43.61214" lon="3.39986">
        <ele>193.5</ele>
        <time>2016-02-21T12:52:26Z</time>
      </trkpt>
      <trkpt lat="43.61215" lon="3.39988">
        <ele>194</ele>
        <time>2016-02-21T12:52:27Z</time>
      </trkpt>
      <trkpt lat="43.61219" lon="3.39987">
        <ele>194</ele>
        <time>2016-02-21T12:52:28Z</time>
      </trkpt>
      <trkpt lat="43.61223" lon="3.39989">
        <ele>194.5</ele>
        <time>2016-02-21T12:52:29Z</time>
      </trkpt>
      <trkpt lat="43.61227" lon="3.3999">
        <ele>195</ele>
        <time>2016-02-21T12:52:30Z</time>
      </trkpt>
      <trkpt lat="43.61231" lon="3.3999">
        <ele>195.5</ele>
        <time>2016-02-21T12:52:31Z</time>
      </trkpt>
      <trkpt lat="43.61236" lon="3.39992">
        <ele>196</ele>
        <time>2016-02-21T12:52:32Z</time>
      </trkpt>
      <trkpt lat="43.6124" lon="3.39993">
        <ele>195.5</ele>
        <time>2016-02-21T12:52:33Z</time>
      </trkpt>
      <trkpt lat="43.61248" lon="3.3999">
        <ele>196</ele>
        <time>2016-02-21T12:52:35Z</time>
      </trkpt>
      <trkpt lat="43.61252" lon="3.3999">
        <ele>197</ele>
        <time>2016-02-21T12:52:37Z</time>
      </trkpt>
      <trkpt lat="43.61256" lon="3.39991">
        <ele>197.5</ele>
        <time>2016-02-21T12:52:38Z</time>
      </trkpt>
      <trkpt lat="43.61259" lon="3.39993">
        <ele>198</ele>
        <time>2016-02-21T12:52:39Z</time>
      </trkpt>
      <trkpt lat="43.61264" lon="3.39993">
        <ele>198.5</ele>
        <time>2016-02-21T12:52:40Z</time>
      </trkpt>
      <trkpt lat="43.61267" lon="3.39994">
        <ele>198</ele>
        <time>2016-02-21T12:52:41Z</time>
      </trkpt>
      <trkpt lat="43.6127" lon="3.39994">
        <ele>198</ele>
        <time>2016-02-21T12:52:42Z</time>
      </trkpt>
      <trkpt lat="43.61274" lon="3.39994">
        <ele>198</ele>
        <time>2016-02-21T12:52:43Z</time>
      </trkpt>
      <trkpt lat="43.61283" lon="3.3999">
        <ele>196</ele>
        <time>2016-02-21T12:52:45Z</time>
      </trkpt>
      <trkpt lat="43.61287" lon="3.3999">
        <ele>194.5</ele>
        <time>2016-02-21T12:52:46Z</time>
      </trkpt>
      <trkpt lat="43.6129" lon="3.39991">
        <ele>194</ele>
        <time>2016-02-21T12:52:47Z</time>
      </trkpt>
      <trkpt lat="43.61293" lon="3.39991">
        <ele>194.5</ele>
        <time>2016-02-21T12:52:48Z</time>
      </trkpt>
      <trkpt lat="43.61297" lon="3.3999">
        <ele>194.5</ele>
        <time>2016-02-21T12:52:49Z</time>
      </trkpt>
      <trkpt lat="43.613" lon="3.39988">
        <ele>195</ele>
        <time>2016-02-21T12:52:50Z</time>
      </trkpt>
      <trkpt lat="43.61305" lon="3.39977">
        <ele>200</ele>
        <time>2016-02-21T12:52:52Z</time>
      </trkpt>
      <trkpt lat="43.61309" lon="3.39977">
        <ele>199.5</ele>
        <time>2016-02-21T12:52:53Z</time>
      </trkpt>
      <trkpt lat="43.61313" lon="3.39976">
        <ele>199.5</ele>
        <time>2016-02-21T12:52:54Z</time>
      </trkpt>
      <trkpt lat="43.61316" lon="3.39973">
        <ele>199.5</ele>
        <time>2016-02-21T12:52:55Z</time>
      </trkpt>
      <trkpt lat="43.61317" lon="3.39971">
        <ele>199.5</ele>
        <time>2016-02-21T12:52:56Z</time>
      </trkpt>
      <trkpt lat="43.6132" lon="3.39969">
        <ele>199.5</ele>
        <time>2016-02-21T12:52:57Z</time>
      </trkpt>
      <trkpt lat="43.61322" lon="3.39967">
        <ele>199.5</ele>
        <time>2016-02-21T12:52:58Z</time>
      </trkpt>
      <trkpt lat="43.61324" lon="3.39965">
        <ele>199.5</ele>
        <time>2016-02-21T12:52:59Z</time>
      </trkpt>
      <trkpt lat="43.61325" lon="3.39963">
        <ele>200</ele>
        <time>2016-02-21T12:53:00Z</time>
      </trkpt>
      <trkpt lat="43.61327" lon="3.3996">
        <ele>200</ele>
        <time>2016-02-21T12:53:01Z</time>
      </trkpt>
      <trkpt lat="43.6133" lon="3.39958">
        <ele>201</ele>
        <time>2016-02-21T12:53:02Z</time>
      </trkpt>
      <trkpt lat="43.6133" lon="3.39958">
        <ele>200.5</ele>
        <time>2016-02-21T12:53:03Z</time>
      </trkpt>
      <trkpt lat="43.61338" lon="3.39932">
        <ele>199</ele>
        <time>2016-02-21T12:53:08Z</time>
      </trkpt>
      <trkpt lat="43.6134" lon="3.39931">
        <ele>199</ele>
        <time>2016-02-21T12:53:09Z</time>
      </trkpt>
      <trkpt lat="43.61342" lon="3.39927">
        <ele>196</ele>
        <time>2016-02-21T12:53:10Z</time>
      </trkpt>
      <trkpt lat="43.61344" lon="3.39925">
        <ele>194.5</ele>
        <time>2016-02-21T12:53:11Z</time>
      </trkpt>
      <trkpt lat="43.61343" lon="3.39924">
        <ele>194.5</ele>
        <time>2016-02-21T12:53:12Z</time>
      </trkpt>
      <trkpt lat="43.61342" lon="3.39923">
        <ele>195</ele>
        <time>2016-02-21T12:53:13Z</time>
      </trkpt>
      <trkpt lat="43.6134" lon="3.39921">
        <ele>195.5</ele>
        <time>2016-02-21T12:53:14Z</time>
      </trkpt>
      <trkpt lat="43.61339" lon="3.39919">
        <ele>196.5</ele>
        <time>2016-02-21T12:53:15Z</time>
      </trkpt>
      <trkpt lat="43.61337" lon="3.39915">
        <ele>198</ele>
        <time>2016-02-21T12:53:16Z</time>
      </trkpt>
      <trkpt lat="43.61336" lon="3.39911">
        <ele>198.5</ele>
        <time>2016-02-21T12:53:17Z</time>
      </trkpt>
      <trkpt lat="43.61335" lon="3.39906">
        <ele>199.5</ele>
        <time>2016-02-21T12:53:19Z</time>
      </trkpt>
      <trkpt lat="43.61336" lon="3.39903">
        <ele>199.5</ele>
        <time>2016-02-21T12:53:20Z</time>
      </trkpt>
      <trkpt lat="43.61337" lon="3.399">
        <ele>199</ele>
        <time>2016-02-21T12:53:21Z</time>
      </trkpt>
      <trkpt lat="43.61336" lon="3.39899">
        <ele>199</ele>
        <time>2016-02-21T12:53:22Z</time>
      </trkpt>
      <trkpt lat="43.61336" lon="3.39896">
        <ele>198</ele>
        <time>2016-02-21T12:53:23Z</time>
      </trkpt>
      <trkpt lat="43.61335" lon="3.39893">
        <ele>198</ele>
        <time>2016-02-21T12:53:24Z</time>
      </trkpt>
      <trkpt lat="43.61335" lon="3.39892">
        <ele>196</ele>
        <time>2016-02-21T12:53:25Z</time>
      </trkpt>
      <trkpt lat="43.61333" lon="3.39889">
        <ele>195.5</ele>
        <time>2016-02-21T12:53:26Z</time>
      </trkpt>
      <trkpt lat="43.61332" lon="3.39886">
        <ele>197.5</ele>
        <time>2016-02-21T12:53:27Z</time>
      </trkpt>
      <trkpt lat="43.61331" lon="3.39882">
        <ele>197</ele>
        <time>2016-02-21T12:53:28Z</time>
      </trkpt>
      <trkpt lat="43.61329" lon="3.39878">
        <ele>197</ele>
        <time>2016-02-21T12:53:29Z</time>
      </trkpt>
      <trkpt lat="43.61327" lon="3.39874">
        <ele>197</ele>
        <time>2016-02-21T12:53:30Z</time>
      </trkpt>
      <trkpt lat="43.61327" lon="3.39871">
        <ele>196.5</ele>
        <time>2016-02-21T12:53:31Z</time>
      </trkpt>
      <trkpt lat="43.61326" lon="3.39867">
        <ele>197</ele>
        <time>2016-02-21T12:53:32Z</time>
      </trkpt>
      <trkpt lat="43.61325" lon="3.39863">
        <ele>195</ele>
        <time>2016-02-21T12:53:33Z</time>
      </trkpt>
      <trkpt lat="43.61324" lon="3.3986">
        <ele>194.5</ele>
        <time>2016-02-21T12:53:34Z</time>
      </trkpt>
      <trkpt lat="43.61322" lon="3.39857">
        <ele>194.5</ele>
        <time>2016-02-21T12:53:35Z</time>
      </trkpt>
      <trkpt lat="43.61321" lon="3.39854">
        <ele>194.5</ele>
        <time>2016-02-21T12:53:36Z</time>
      </trkpt>
      <trkpt lat="43.6132" lon="3.39851">
        <ele>194</ele>
        <time>2016-02-21T12:53:37Z</time>
      </trkpt>
      <trkpt lat="43.61319" lon="3.39848">
        <ele>195</ele>
        <time>2016-02-21T12:53:38Z</time>
      </trkpt>
      <trkpt lat="43.61319" lon="3.39846">
        <ele>194.5</ele>
        <time>2016-02-21T12:53:39Z</time>
      </trkpt>
      <trkpt lat="43.61315" lon="3.39845">
        <ele>193</ele>
        <time>2016-02-21T12:53:40Z</time>
      </trkpt>
      <trkpt lat="43.61315" lon="3.39842">
        <ele>193.5</ele>
        <time>2016-02-21T12:53:41Z</time>
      </trkpt>
      <trkpt lat="43.61315" lon="3.39839">
        <ele>193.5</ele>
        <time>2016-02-21T12:53:42Z</time>
      </trkpt>
      <trkpt lat="43.61316" lon="3.39837">
        <ele>193.5</ele>
        <time>2016-02-21T12:53:43Z</time>
      </trkpt>
      <trkpt lat="43.61314" lon="3.39836">
        <ele>192.5</ele>
        <time>2016-02-21T12:53:44Z</time>
      </trkpt>
      <trkpt lat="43.61314" lon="3.39833">
        <ele>192</ele>
        <time>2016-02-21T12:53:45Z</time>
      </trkpt>
      <trkpt lat="43.61313" lon="3.3983">
        <ele>191</ele>
        <time>2016-02-21T12:53:46Z</time>
      </trkpt>
      <trkpt lat="43.61312" lon="3.39827">
        <ele>191</ele>
        <time>2016-02-21T12:53:47Z</time>
      </trkpt>
      <trkpt lat="43.61312" lon="3.39824">
        <ele>193</ele>
        <time>2016-02-21T12:53:48Z</time>
      </trkpt>
      <trkpt lat="43.61312" lon="3.39822">
        <ele>193.5</ele>
        <time>2016-02-21T12:53:49Z</time>
      </trkpt>
      <trkpt lat="43.61311" lon="3.39819">
        <ele>192</ele>
        <time>2016-02-21T12:53:50Z</time>
      </trkpt>
      <trkpt lat="43.6131" lon="3.39817">
        <ele>192.5</ele>
        <time>2016-02-21T12:53:51Z</time>
      </trkpt>
      <trkpt lat="43.61309" lon="3.39814">
        <ele>193</ele>
        <time>2016-02-21T12:53:52Z</time>
      </trkpt>
      <trkpt lat="43.61307" lon="3.39812">
        <ele>194.5</ele>
        <time>2016-02-21T12:53:53Z</time>
      </trkpt>
      <trkpt lat="43.61306" lon="3.39806">
        <ele>194.5</ele>
        <time>2016-02-21T12:53:55Z</time>
      </trkpt>
      <trkpt lat="43.61305" lon="3.39802">
        <ele>195</ele>
        <time>2016-02-21T12:53:56Z</time>
      </trkpt>
      <trkpt lat="43.61304" lon="3.398">
        <ele>195.5</ele>
        <time>2016-02-21T12:53:57Z</time>
      </trkpt>
      <trkpt lat="43.61301" lon="3.39792">
        <ele>196</ele>
        <time>2016-02-21T12:53:59Z</time>
      </trkpt>
      <trkpt lat="43.61299" lon="3.39784">
        <ele>196.5</ele>
        <time>2016-02-21T12:54:01Z</time>
      </trkpt>
      <trkpt lat="43.61299" lon="3.39781">
        <ele>196</ele>
        <time>2016-02-21T12:54:02Z</time>
      </trkpt>
      <trkpt lat="43.613" lon="3.39779">
        <ele>196.5</ele>
        <time>2016-02-21T12:54:03Z</time>
      </trkpt>
      <trkpt lat="43.613" lon="3.39776">
        <ele>196.5</ele>
        <time>2016-02-21T12:54:04Z</time>
      </trkpt>
      <trkpt lat="43.613" lon="3.39774">
        <ele>196.5</ele>
        <time>2016-02-21T12:54:05Z</time>
      </trkpt>
      <trkpt lat="43.61301" lon="3.39773">
        <ele>197</ele>
        <time>2016-02-21T12:54:06Z</time>
      </trkpt>
      <trkpt lat="43.61302" lon="3.39771">
        <ele>196.5</ele>
        <time>2016-02-21T12:54:07Z</time>
      </trkpt>
      <trkpt lat="43.61303" lon="3.3977">
        <ele>196.5</ele>
        <time>2016-02-21T12:54:08Z</time>
      </trkpt>
      <trkpt lat="43.61305" lon="3.3977">
        <ele>197.5</ele>
        <time>2016-02-21T12:54:09Z</time>
      </trkpt>
      <trkpt lat="43.61307" lon="3.3977">
        <ele>197</ele>
        <time>2016-02-21T12:54:10Z</time>
      </trkpt>
      <trkpt lat="43.61309" lon="3.3977">
        <ele>196.5</ele>
        <time>2016-02-21T12:54:11Z</time>
      </trkpt>
      <trkpt lat="43.61309" lon="3.39761">
        <ele>193</ele>
        <time>2016-02-21T12:54:13Z</time>
      </trkpt>
      <trkpt lat="43.6131" lon="3.39753">
        <ele>193</ele>
        <time>2016-02-21T12:54:15Z</time>
      </trkpt>
      <trkpt lat="43.61312" lon="3.3975">
        <ele>193</ele>
        <time>2016-02-21T12:54:16Z</time>
      </trkpt>
      <trkpt lat="43.61314" lon="3.39748">
        <ele>193.5</ele>
        <time>2016-02-21T12:54:17Z</time>
      </trkpt>
      <trkpt lat="43.61317" lon="3.39747">
        <ele>193</ele>
        <time>2016-02-21T12:54:18Z</time>
      </trkpt>
      <trkpt lat="43.61318" lon="3.39745">
        <ele>193.5</ele>
        <time>2016-02-21T12:54:19Z</time>
      </trkpt>
      <trkpt lat="43.6132" lon="3.39742">
        <ele>194</ele>
        <time>2016-02-21T12:54:20Z</time>
      </trkpt>
      <trkpt lat="43.61322" lon="3.39741">
        <ele>194.5</ele>
        <time>2016-02-21T12:54:21Z</time>
      </trkpt>
      <trkpt lat="43.61323" lon="3.39737">
        <ele>194.5</ele>
        <time>2016-02-21T12:54:22Z</time>
      </trkpt>
      <trkpt lat="43.61325" lon="3.39735">
        <ele>194</ele>
        <time>2016-02-21T12:54:23Z</time>
      </trkpt>
      <trkpt lat="43.61327" lon="3.39734">
        <ele>194</ele>
        <time>2016-02-21T12:54:24Z</time>
      </trkpt>
      <trkpt lat="43.61327" lon="3.39732">
        <ele>193</ele>
        <time>2016-02-21T12:54:25Z</time>
      </trkpt>
      <trkpt lat="43.61329" lon="3.3973">
        <ele>193</ele>
        <time>2016-02-21T12:54:26Z</time>
      </trkpt>
      <trkpt lat="43.61331" lon="3.39729">
        <ele>194</ele>
        <time>2016-02-21T12:54:27Z</time>
      </trkpt>
      <trkpt lat="43.61334" lon="3.39728">
        <ele>194</ele>
        <time>2016-02-21T12:54:28Z</time>
      </trkpt>
      <trkpt lat="43.61337" lon="3.39726">
        <ele>195</ele>
        <time>2016-02-21T12:54:29Z</time>
      </trkpt>
      <trkpt lat="43.61339" lon="3.39724">
        <ele>196</ele>
        <time>2016-02-21T12:54:30Z</time>
      </trkpt>
      <trkpt lat="43.6134" lon="3.39722">
        <ele>196</ele>
        <time>2016-02-21T12:54:31Z</time>
      </trkpt>
      <trkpt lat="43.61341" lon="3.39721">
        <ele>196</ele>
        <time>2016-02-21T12:54:32Z</time>
      </trkpt>
      <trkpt lat="43.61343" lon="3.3972">
        <ele>197</ele>
        <time>2016-02-21T12:54:33Z</time>
      </trkpt>
      <trkpt lat="43.61345" lon="3.39719">
        <ele>197</ele>
        <time>2016-02-21T12:54:34Z</time>
      </trkpt>
      <trkpt lat="43.61346" lon="3.39717">
        <ele>196.5</ele>
        <time>2016-02-21T12:54:35Z</time>
      </trkpt>
      <trkpt lat="43.61349" lon="3.39718">
        <ele>196.5</ele>
        <time>2016-02-21T12:54:36Z</time>
      </trkpt>
      <trkpt lat="43.6135" lon="3.39716">
        <ele>194.5</ele>
        <time>2016-02-21T12:54:37Z</time>
      </trkpt>
      <trkpt lat="43.61352" lon="3.39715">
        <ele>195</ele>
        <time>2016-02-21T12:54:38Z</time>
      </trkpt>
      <trkpt lat="43.61353" lon="3.39715">
        <ele>197</ele>
        <time>2016-02-21T12:54:39Z</time>
      </trkpt>
      <trkpt lat="43.61355" lon="3.39714">
        <ele>197</ele>
        <time>2016-02-21T12:54:40Z</time>
      </trkpt>
      <trkpt lat="43.61357" lon="3.39713">
        <ele>197</ele>
        <time>2016-02-21T12:54:41Z</time>
      </trkpt>
      <trkpt lat="43.61358" lon="3.39712">
        <ele>196.5</ele>
        <time>2016-02-21T12:54:42Z</time>
      </trkpt>
      <trkpt lat="43.61359" lon="3.3971">
        <ele>196.5</ele>
        <time>2016-02-21T12:54:43Z</time>
      </trkpt>
      <trkpt lat="43.61362" lon="3.3971">
        <ele>196.5</ele>
        <time>2016-02-21T12:54:44Z</time>
      </trkpt>
      <trkpt lat="43.61364" lon="3.39711">
        <ele>196.5</ele>
        <time>2016-02-21T12:54:45Z</time>
      </trkpt>
      <trkpt lat="43.61365" lon="3.39712">
        <ele>196.5</ele>
        <time>2016-02-21T12:54:46Z</time>
      </trkpt>
      <trkpt lat="43.61366" lon="3.39712">
        <ele>197</ele>
        <time>2016-02-21T12:54:47Z</time>
      </trkpt>
      <trkpt lat="43.61366" lon="3.39711">
        <ele>197.5</ele>
        <time>2016-02-21T12:54:48Z</time>
      </trkpt>
      <trkpt lat="43.61365" lon="3.3971">
        <ele>198</ele>
        <time>2016-02-21T12:54:49Z</time>
      </trkpt>
      <trkpt lat="43.61364" lon="3.3971">
        <ele>198.5</ele>
        <time>2016-02-21T12:54:50Z</time>
      </trkpt>
      <trkpt lat="43.61363" lon="3.39709">
        <ele>199</ele>
        <time>2016-02-21T12:54:51Z</time>
      </trkpt>
      <trkpt lat="43.61361" lon="3.39709">
        <ele>200</ele>
        <time>2016-02-21T12:54:52Z</time>
      </trkpt>
      <trkpt lat="43.6136" lon="3.39709">
        <ele>200.5</ele>
        <time>2016-02-21T12:54:53Z</time>
      </trkpt>
      <trkpt lat="43.61359" lon="3.39708">
        <ele>200.5</ele>
        <time>2016-02-21T12:54:54Z</time>
      </trkpt>
      <trkpt lat="43.61358" lon="3.39707">
        <ele>201</ele>
        <time>2016-02-21T12:54:55Z</time>
      </trkpt>
      <trkpt lat="43.61357" lon="3.39707">
        <ele>202</ele>
        <time>2016-02-21T12:54:56Z</time>
      </trkpt>
      <trkpt lat="43.61356" lon="3.39707">
        <ele>202</ele>
        <time>2016-02-21T12:54:57Z</time>
      </trkpt>
      <trkpt lat="43.61355" lon="3.39707">
        <ele>202.5</ele>
        <time>2016-02-21T12:54:58Z</time>
      </trkpt>
      <trkpt lat="43.61353" lon="3.39705">
        <ele>203</ele>
        <time>2016-02-21T12:54:59Z</time>
      </trkpt>
      <trkpt lat="43.61352" lon="3.39706">
        <ele>204</ele>
        <time>2016-02-21T12:55:00Z</time>
      </trkpt>
      <trkpt lat="43.61351" lon="3.39705">
        <ele>204</ele>
        <time>2016-02-21T12:55:01Z</time>
      </trkpt>
      <trkpt lat="43.6135" lon="3.39704">
        <ele>204</ele>
        <time>2016-02-21T12:55:02Z</time>
      </trkpt>
      <trkpt lat="43.6135" lon="3.39704">
        <ele>205</ele>
        <time>2016-02-21T12:55:03Z</time>
      </trkpt>
      <trkpt lat="43.61349" lon="3.39704">
        <ele>205.5</ele>
        <time>2016-02-21T12:55:04Z</time>
      </trkpt>
      <trkpt lat="43.61348" lon="3.39704">
        <ele>205.5</ele>
        <time>2016-02-21T12:55:05Z</time>
      </trkpt>
      <trkpt lat="43.61347" lon="3.39704">
        <ele>205.5</ele>
        <time>2016-02-21T12:55:06Z</time>
      </trkpt>
      <trkpt lat="43.61345" lon="3.39704">
        <ele>205</ele>
        <time>2016-02-21T12:55:07Z</time>
      </trkpt>
      <trkpt lat="43.61344" lon="3.39703">
        <ele>205.5</ele>
        <time>2016-02-21T12:55:08Z</time>
      </trkpt>
      <trkpt lat="43.61344" lon="3.39703">
        <ele>206</ele>
        <time>2016-02-21T12:55:09Z</time>
      </trkpt>
      <trkpt lat="43.61342" lon="3.39704">
        <ele>207</ele>
        <time>2016-02-21T12:55:10Z</time>
      </trkpt>
      <trkpt lat="43.61341" lon="3.39704">
        <ele>207</ele>
        <time>2016-02-21T12:55:11Z</time>
      </trkpt>
      <trkpt lat="43.61339" lon="3.39703">
        <ele>207.5</ele>
        <time>2016-02-21T12:55:12Z</time>
      </trkpt>
      <trkpt lat="43.61337" lon="3.39703">
        <ele>207</ele>
        <time>2016-02-21T12:55:13Z</time>
      </trkpt>
      <trkpt lat="43.61336" lon="3.39702">
        <ele>206.5</ele>
        <time>2016-02-21T12:55:14Z</time>
      </trkpt>
      <trkpt lat="43.61334" lon="3.39703">
        <ele>207.5</ele>
        <time>2016-02-21T12:55:15Z</time>
      </trkpt>
      <trkpt lat="43.61332" lon="3.39703">
        <ele>207.5</ele>
        <time>2016-02-21T12:55:16Z</time>
      </trkpt>
      <trkpt lat="43.6133" lon="3.39703">
        <ele>207.5</ele>
        <time>2016-02-21T12:55:17Z</time>
      </trkpt>
      <trkpt lat="43.61328" lon="3.39704">
        <ele>208</ele>
        <time>2016-02-21T12:55:18Z</time>
      </trkpt>
      <trkpt lat="43.61327" lon="3.39704">
        <ele>208</ele>
        <time>2016-02-21T12:55:19Z</time>
      </trkpt>
      <trkpt lat="43.61325" lon="3.39704">
        <ele>208</ele>
        <time>2016-02-21T12:55:20Z</time>
      </trkpt>
      <trkpt lat="43.61322" lon="3.39704">
        <ele>207.5</ele>
        <time>2016-02-21T12:55:21Z</time>
      </trkpt>
      <trkpt lat="43.6132" lon="3.39703">
        <ele>207.5</ele>
        <time>2016-02-21T12:55:22Z</time>
      </trkpt>
      <trkpt lat="43.61318" lon="3.39703">
        <ele>207.5</ele>
        <time>2016-02-21T12:55:23Z</time>
      </trkpt>
      <trkpt lat="43.61316" lon="3.39703">
        <ele>208</ele>
        <time>2016-02-21T12:55:24Z</time>
      </trkpt>
      <trkpt lat="43.61314" lon="3.39703">
        <ele>208</ele>
        <time>2016-02-21T12:55:25Z</time>
      </trkpt>
      <trkpt lat="43.61313" lon="3.39704">
        <ele>208.5</ele>
        <time>2016-02-21T12:55:26Z</time>
      </trkpt>
      <trkpt lat="43.61311" lon="3.39705">
        <ele>208.5</ele>
        <time>2016-02-21T12:55:27Z</time>
      </trkpt>
      <trkpt lat="43.61309" lon="3.39705">
        <ele>208.5</ele>
        <time>2016-02-21T12:55:27Z</time>
      </trkpt>
      <trkpt lat="43.61308" lon="3.39705">
        <ele>209</ele>
        <time>2016-02-21T12:55:28Z</time>
      </trkpt>
      <trkpt lat="43.61305" lon="3.39705">
        <ele>209</ele>
        <time>2016-02-21T12:55:29Z</time>
      </trkpt>
      <trkpt lat="43.61304" lon="3.39705">
        <ele>208.5</ele>
        <time>2016-02-21T12:55:30Z</time>
      </trkpt>
      <trkpt lat="43.61302" lon="3.39705">
        <ele>209</ele>
        <time>2016-02-21T12:55:32Z</time>
      </trkpt>
      <trkpt lat="43.613" lon="3.39705">
        <ele>209.5</ele>
        <time>2016-02-21T12:55:33Z</time>
      </trkpt>
      <trkpt lat="43.61298" lon="3.39705">
        <ele>209.5</ele>
        <time>2016-02-21T12:55:34Z</time>
      </trkpt>
      <trkpt lat="43.61295" lon="3.39705">
        <ele>209.5</ele>
        <time>2016-02-21T12:55:34Z</time>
      </trkpt>
      <trkpt lat="43.61294" lon="3.39705">
        <ele>209.5</ele>
        <time>2016-02-21T12:55:35Z</time>
      </trkpt>
      <trkpt lat="43.61293" lon="3.39706">
        <ele>209.5</ele>
        <time>2016-02-21T12:55:36Z</time>
      </trkpt>
      <trkpt lat="43.61291" lon="3.39706">
        <ele>209.5</ele>
        <time>2016-02-21T12:55:37Z</time>
      </trkpt>
      <trkpt lat="43.6129" lon="3.39706">
        <ele>210</ele>
        <time>2016-02-21T12:55:39Z</time>
      </trkpt>
      <trkpt lat="43.61289" lon="3.39706">
        <ele>209.5</ele>
        <time>2016-02-21T12:55:39Z</time>
      </trkpt>
      <trkpt lat="43.61287" lon="3.39706">
        <ele>209.5</ele>
        <time>2016-02-21T12:55:40Z</time>
      </trkpt>
      <trkpt lat="43.61285" lon="3.39705">
        <ele>209.5</ele>
        <time>2016-02-21T12:55:42Z</time>
      </trkpt>
      <trkpt lat="43.61284" lon="3.39706">
        <ele>211</ele>
        <time>2016-02-21T12:55:43Z</time>
      </trkpt>
      <trkpt lat="43.61282" lon="3.39705">
        <ele>210.5</ele>
        <time>2016-02-21T12:55:43Z</time>
      </trkpt>
      <trkpt lat="43.61281" lon="3.39704">
        <ele>212</ele>
        <time>2016-02-21T12:55:44Z</time>
      </trkpt>
      <trkpt lat="43.61278" lon="3.39704">
        <ele>212</ele>
        <time>2016-02-21T12:55:45Z</time>
      </trkpt>
      <trkpt lat="43.61276" lon="3.39704">
        <ele>212</ele>
        <time>2016-02-21T12:55:47Z</time>
      </trkpt>
      <trkpt lat="43.61276" lon="3.39703">
        <ele>212</ele>
        <time>2016-02-21T12:55:47Z</time>
      </trkpt>
      <trkpt lat="43.61271" lon="3.39703">
        <ele>212</ele>
        <time>2016-02-21T12:55:49Z</time>
      </trkpt>
      <trkpt lat="43.61269" lon="3.39702">
        <ele>212</ele>
        <time>2016-02-21T12:55:50Z</time>
      </trkpt>
      <trkpt lat="43.61268" lon="3.39702">
        <ele>211.5</ele>
        <time>2016-02-21T12:55:51Z</time>
      </trkpt>
      <trkpt lat="43.61266" lon="3.39701">
        <ele>211</ele>
        <time>2016-02-21T12:55:52Z</time>
      </trkpt>
      <trkpt lat="43.61264" lon="3.397">
        <ele>211.5</ele>
        <time>2016-02-21T12:55:53Z</time>
      </trkpt>
      <trkpt lat="43.61263" lon="3.39699">
        <ele>211.5</ele>
        <time>2016-02-21T12:55:54Z</time>
      </trkpt>
      <trkpt lat="43.61261" lon="3.39699">
        <ele>211.5</ele>
        <time>2016-02-21T12:55:55Z</time>
      </trkpt>
      <trkpt lat="43.61259" lon="3.39697">
        <ele>211.5</ele>
        <time>2016-02-21T12:55:56Z</time>
      </trkpt>
      <trkpt lat="43.61257" lon="3.39695">
        <ele>211</ele>
        <time>2016-02-21T12:55:57Z</time>
      </trkpt>
      <trkpt lat="43.61255" lon="3.39692">
        <ele>211</ele>
        <time>2016-02-21T12:55:58Z</time>
      </trkpt>
      <trkpt lat="43.61254" lon="3.39692">
        <ele>211</ele>
        <time>2016-02-21T12:55:59Z</time>
      </trkpt>
      <trkpt lat="43.61252" lon="3.39693">
        <ele>211.5</ele>
        <time>2016-02-21T12:56:00Z</time>
      </trkpt>
      <trkpt lat="43.6125" lon="3.39692">
        <ele>211</ele>
        <time>2016-02-21T12:56:01Z</time>
      </trkpt>
      <trkpt lat="43.61249" lon="3.39692">
        <ele>211.5</ele>
        <time>2016-02-21T12:56:02Z</time>
      </trkpt>
      <trkpt lat="43.61247" lon="3.39691">
        <ele>212.5</ele>
        <time>2016-02-21T12:56:03Z</time>
      </trkpt>
      <trkpt lat="43.61245" lon="3.39691">
        <ele>213.5</ele>
        <time>2016-02-21T12:56:04Z</time>
      </trkpt>
      <trkpt lat="43.61243" lon="3.3969">
        <ele>214</ele>
        <time>2016-02-21T12:56:06Z</time>
      </trkpt>
      <trkpt lat="43.61242" lon="3.39689">
        <ele>215</ele>
        <time>2016-02-21T12:56:06Z</time>
      </trkpt>
      <trkpt lat="43.6124" lon="3.39689">
        <ele>214.5</ele>
        <time>2016-02-21T12:56:07Z</time>
      </trkpt>
      <trkpt lat="43.61238" lon="3.39688">
        <ele>215</ele>
        <time>2016-02-21T12:56:08Z</time>
      </trkpt>
      <trkpt lat="43.61237" lon="3.39688">
        <ele>215</ele>
        <time>2016-02-21T12:56:10Z</time>
      </trkpt>
      <trkpt lat="43.61235" lon="3.39687">
        <ele>214.5</ele>
        <time>2016-02-21T12:56:10Z</time>
      </trkpt>
      <trkpt lat="43.61234" lon="3.39686">
        <ele>215</ele>
        <time>2016-02-21T12:56:11Z</time>
      </trkpt>
      <trkpt lat="43.61232" lon="3.39684">
        <ele>215</ele>
        <time>2016-02-21T12:56:12Z</time>
      </trkpt>
      <trkpt lat="43.61231" lon="3.39683">
        <ele>215.5</ele>
        <time>2016-02-21T12:56:14Z</time>
      </trkpt>
      <trkpt lat="43.6123" lon="3.39681">
        <ele>216.5</ele>
        <time>2016-02-21T12:56:14Z</time>
      </trkpt>
      <trkpt lat="43.61229" lon="3.39679">
        <ele>218</ele>
        <time>2016-02-21T12:56:15Z</time>
      </trkpt>
      <trkpt lat="43.61228" lon="3.39677">
        <ele>217.5</ele>
        <time>2016-02-21T12:56:16Z</time>
      </trkpt>
      <trkpt lat="43.61227" lon="3.39675">
        <ele>217.5</ele>
        <time>2016-02-21T12:56:18Z</time>
      </trkpt>
      <trkpt lat="43.61227" lon="3.39671">
        <ele>217</ele>
        <time>2016-02-21T12:56:19Z</time>
      </trkpt>
      <trkpt lat="43.61228" lon="3.3967">
        <ele>218.5</ele>
        <time>2016-02-21T12:56:20Z</time>
      </trkpt>
      <trkpt lat="43.61228" lon="3.39669">
        <ele>219</ele>
        <time>2016-02-21T12:56:21Z</time>
      </trkpt>
      <trkpt lat="43.61229" lon="3.39667">
        <ele>219</ele>
        <time>2016-02-21T12:56:22Z</time>
      </trkpt>
      <trkpt lat="43.6123" lon="3.39665">
        <ele>218.5</ele>
        <time>2016-02-21T12:56:23Z</time>
      </trkpt>
      <trkpt lat="43.6123" lon="3.39663">
        <ele>217.5</ele>
        <time>2016-02-21T12:56:24Z</time>
      </trkpt>
      <trkpt lat="43.61231" lon="3.39662">
        <ele>216.5</ele>
        <time>2016-02-21T12:56:25Z</time>
      </trkpt>
      <trkpt lat="43.61231" lon="3.39659">
        <ele>215.5</ele>
        <time>2016-02-21T12:56:26Z</time>
      </trkpt>
      <trkpt lat="43.61232" lon="3.39657">
        <ele>214</ele>
        <time>2016-02-21T12:56:27Z</time>
      </trkpt>
      <trkpt lat="43.61233" lon="3.39656">
        <ele>214</ele>
        <time>2016-02-21T12:56:28Z</time>
      </trkpt>
      <trkpt lat="43.61233" lon="3.39653">
        <ele>214.5</ele>
        <time>2016-02-21T12:56:30Z</time>
      </trkpt>
      <trkpt lat="43.61233" lon="3.39651">
        <ele>214</ele>
        <time>2016-02-21T12:56:30Z</time>
      </trkpt>
      <trkpt lat="43.61234" lon="3.39649">
        <ele>215</ele>
        <time>2016-02-21T12:56:31Z</time>
      </trkpt>
      <trkpt lat="43.61234" lon="3.39648">
        <ele>216</ele>
        <time>2016-02-21T12:56:32Z</time>
      </trkpt>
      <trkpt lat="43.61235" lon="3.39646">
        <ele>216</ele>
        <time>2016-02-21T12:56:33Z</time>
      </trkpt>
      <trkpt lat="43.61235" lon="3.39644">
        <ele>216.5</ele>
        <time>2016-02-21T12:56:34Z</time>
      </trkpt>
      <trkpt lat="43.61234" lon="3.39643">
        <ele>216.5</ele>
        <time>2016-02-21T12:56:35Z</time>
      </trkpt>
      <trkpt lat="43.61233" lon="3.39642">
        <ele>217</ele>
        <time>2016-02-21T12:56:36Z</time>
      </trkpt>
      <trkpt lat="43.61233" lon="3.3964">
        <ele>217</ele>
        <time>2016-02-21T12:56:37Z</time>
      </trkpt>
      <trkpt lat="43.61232" lon="3.39639">
        <ele>217.5</ele>
        <time>2016-02-21T12:56:38Z</time>
      </trkpt>
      <trkpt lat="43.61231" lon="3.39636">
        <ele>217</ele>
        <time>2016-02-21T12:56:39Z</time>
      </trkpt>
      <trkpt lat="43.6123" lon="3.39634">
        <ele>217.5</ele>
        <time>2016-02-21T12:56:40Z</time>
      </trkpt>
      <trkpt lat="43.6123" lon="3.39632">
        <ele>217.5</ele>
        <time>2016-02-21T12:56:41Z</time>
      </trkpt>
      <trkpt lat="43.6123" lon="3.3963">
        <ele>217.5</ele>
        <time>2016-02-21T12:56:42Z</time>
      </trkpt>
      <trkpt lat="43.6123" lon="3.39629">
        <ele>218</ele>
        <time>2016-02-21T12:56:43Z</time>
      </trkpt>
      <trkpt lat="43.6123" lon="3.39627">
        <ele>218</ele>
        <time>2016-02-21T12:56:44Z</time>
      </trkpt>
      <trkpt lat="43.6123" lon="3.39625">
        <ele>217</ele>
        <time>2016-02-21T12:56:45Z</time>
      </trkpt>
      <trkpt lat="43.61231" lon="3.39623">
        <ele>216</ele>
        <time>2016-02-21T12:56:46Z</time>
      </trkpt>
      <trkpt lat="43.61233" lon="3.39621">
        <ele>215</ele>
        <time>2016-02-21T12:56:47Z</time>
      </trkpt>
      <trkpt lat="43.61234" lon="3.3962">
        <ele>215</ele>
        <time>2016-02-21T12:56:48Z</time>
      </trkpt>
      <trkpt lat="43.61235" lon="3.39619">
        <ele>215</ele>
        <time>2016-02-21T12:56:49Z</time>
      </trkpt>
      <trkpt lat="43.61236" lon="3.39617">
        <ele>215</ele>
        <time>2016-02-21T12:56:50Z</time>
      </trkpt>
      <trkpt lat="43.61237" lon="3.39615">
        <ele>214.5</ele>
        <time>2016-02-21T12:56:51Z</time>
      </trkpt>
      <trkpt lat="43.61238" lon="3.39613">
        <ele>215</ele>
        <time>2016-02-21T12:56:52Z</time>
      </trkpt>
      <trkpt lat="43.61238" lon="3.3961">
        <ele>215.5</ele>
        <time>2016-02-21T12:56:53Z</time>
      </trkpt>
      <trkpt lat="43.61239" lon="3.39608">
        <ele>216</ele>
        <time>2016-02-21T12:56:54Z</time>
      </trkpt>
      <trkpt lat="43.61239" lon="3.39607">
        <ele>216</ele>
        <time>2016-02-21T12:56:55Z</time>
      </trkpt>
      <trkpt lat="43.6124" lon="3.39605">
        <ele>216</ele>
        <time>2016-02-21T12:56:56Z</time>
      </trkpt>
      <trkpt lat="43.6124" lon="3.39603">
        <ele>215.5</ele>
        <time>2016-02-21T12:56:57Z</time>
      </trkpt>
      <trkpt lat="43.61241" lon="3.39602">
        <ele>216</ele>
        <time>2016-02-21T12:56:58Z</time>
      </trkpt>
      <trkpt lat="43.61241" lon="3.39601">
        <ele>216</ele>
        <time>2016-02-21T12:56:59Z</time>
      </trkpt>
      <trkpt lat="43.61241" lon="3.39599">
        <ele>216</ele>
        <time>2016-02-21T12:57:00Z</time>
      </trkpt>
      <trkpt lat="43.61242" lon="3.39597">
        <ele>216</ele>
        <time>2016-02-21T12:57:01Z</time>
      </trkpt>
      <trkpt lat="43.61242" lon="3.39595">
        <ele>216</ele>
        <time>2016-02-21T12:57:02Z</time>
      </trkpt>
      <trkpt lat="43.61243" lon="3.39593">
        <ele>216</ele>
        <time>2016-02-21T12:57:03Z</time>
      </trkpt>
      <trkpt lat="43.61243" lon="3.3959">
        <ele>215.5</ele>
        <time>2016-02-21T12:57:04Z</time>
      </trkpt>
      <trkpt lat="43.61244" lon="3.39589">
        <ele>215.5</ele>
        <time>2016-02-21T12:57:05Z</time>
      </trkpt>
      <trkpt lat="43.61244" lon="3.39586">
        <ele>215.5</ele>
        <time>2016-02-21T12:57:06Z</time>
      </trkpt>
      <trkpt lat="43.61245" lon="3.39584">
        <ele>216.5</ele>
        <time>2016-02-21T12:57:07Z</time>
      </trkpt>
      <trkpt lat="43.61246" lon="3.39582">
        <ele>217.5</ele>
        <time>2016-02-21T12:57:08Z</time>
      </trkpt>
      <trkpt lat="43.61246" lon="3.3958">
        <ele>218</ele>
        <time>2016-02-21T12:57:09Z</time>
      </trkpt>
      <trkpt lat="43.61246" lon="3.39578">
        <ele>218.5</ele>
        <time>2016-02-21T12:57:10Z</time>
      </trkpt>
      <trkpt lat="43.61247" lon="3.39576">
        <ele>219.5</ele>
        <time>2016-02-21T12:57:11Z</time>
      </trkpt>
      <trkpt lat="43.61248" lon="3.39574">
        <ele>221</ele>
        <time>2016-02-21T12:57:12Z</time>
      </trkpt>
      <trkpt lat="43.61249" lon="3.39572">
        <ele>222</ele>
        <time>2016-02-21T12:57:13Z</time>
      </trkpt>
      <trkpt lat="43.6125" lon="3.3957">
        <ele>222</ele>
        <time>2016-02-21T12:57:14Z</time>
      </trkpt>
      <trkpt lat="43.61252" lon="3.39571">
        <ele>222.5</ele>
        <time>2016-02-21T12:57:15Z</time>
      </trkpt>
      <trkpt lat="43.61252" lon="3.3957">
        <ele>222</ele>
        <time>2016-02-21T12:57:16Z</time>
      </trkpt>
      <trkpt lat="43.61253" lon="3.3957">
        <ele>221</ele>
        <time>2016-02-21T12:57:17Z</time>
      </trkpt>
      <trkpt lat="43.61255" lon="3.39569">
        <ele>221</ele>
        <time>2016-02-21T12:57:18Z</time>
      </trkpt>
      <trkpt lat="43.61256" lon="3.39569">
        <ele>220.5</ele>
        <time>2016-02-21T12:57:19Z</time>
      </trkpt>
      <trkpt lat="43.61258" lon="3.39569">
        <ele>220</ele>
        <time>2016-02-21T12:57:20Z</time>
      </trkpt>
      <trkpt lat="43.61259" lon="3.39569">
        <ele>220</ele>
        <time>2016-02-21T12:57:21Z</time>
      </trkpt>
      <trkpt lat="43.6126" lon="3.39568">
        <ele>220</ele>
        <time>2016-02-21T12:57:22Z</time>
      </trkpt>
      <trkpt lat="43.61261" lon="3.39568">
        <ele>220</ele>
        <time>2016-02-21T12:57:23Z</time>
      </trkpt>
      <trkpt lat="43.61262" lon="3.39567">
        <ele>219.5</ele>
        <time>2016-02-21T12:57:24Z</time>
      </trkpt>
      <trkpt lat="43.61264" lon="3.39566">
        <ele>220.5</ele>
        <time>2016-02-21T12:57:25Z</time>
      </trkpt>
      <trkpt lat="43.61264" lon="3.39561">
        <ele>220.5</ele>
        <time>2016-02-21T12:57:26Z</time>
      </trkpt>
      <trkpt lat="43.61266" lon="3.39562">
        <ele>221</ele>
        <time>2016-02-21T12:57:27Z</time>
      </trkpt>
      <trkpt lat="43.61267" lon="3.39562">
        <ele>222.5</ele>
        <time>2016-02-21T12:57:28Z</time>
      </trkpt>
      <trkpt lat="43.61268" lon="3.39561">
        <ele>223.5</ele>
        <time>2016-02-21T12:57:29Z</time>
      </trkpt>
      <trkpt lat="43.6127" lon="3.3956">
        <ele>224.5</ele>
        <time>2016-02-21T12:57:30Z</time>
      </trkpt>
      <trkpt lat="43.61272" lon="3.39561">
        <ele>226.5</ele>
        <time>2016-02-21T12:57:31Z</time>
      </trkpt>
      <trkpt lat="43.61274" lon="3.39561">
        <ele>228.5</ele>
        <time>2016-02-21T12:57:32Z</time>
      </trkpt>
      <trkpt lat="43.61276" lon="3.3956">
        <ele>228.5</ele>
        <time>2016-02-21T12:57:33Z</time>
      </trkpt>
      <trkpt lat="43.61276" lon="3.39557">
        <ele>228</ele>
        <time>2016-02-21T12:57:34Z</time>
      </trkpt>
      <trkpt lat="43.61278" lon="3.39556">
        <ele>228</ele>
        <time>2016-02-21T12:57:35Z</time>
      </trkpt>
      <trkpt lat="43.61276" lon="3.39555">
        <ele>228</ele>
        <time>2016-02-21T12:57:36Z</time>
      </trkpt>
      <trkpt lat="43.61277" lon="3.39555">
        <ele>227.5</ele>
        <time>2016-02-21T12:57:37Z</time>
      </trkpt>
      <trkpt lat="43.61278" lon="3.39555">
        <ele>227.5</ele>
        <time>2016-02-21T12:57:38Z</time>
      </trkpt>
      <trkpt lat="43.61279" lon="3.39555">
        <ele>227.5</ele>
        <time>2016-02-21T12:57:39Z</time>
      </trkpt>
      <trkpt lat="43.6128" lon="3.39554">
        <ele>227.5</ele>
        <time>2016-02-21T12:57:40Z</time>
      </trkpt>
      <trkpt lat="43.61282" lon="3.39555">
        <ele>227.5</ele>
        <time>2016-02-21T12:57:41Z</time>
      </trkpt>
      <trkpt lat="43.61283" lon="3.39555">
        <ele>227.5</ele>
        <time>2016-02-21T12:57:42Z</time>
      </trkpt>
      <trkpt lat="43.61285" lon="3.39556">
        <ele>228.5</ele>
        <time>2016-02-21T12:57:43Z</time>
      </trkpt>
      <trkpt lat="43.61286" lon="3.39555">
        <ele>228</ele>
        <time>2016-02-21T12:57:44Z</time>
      </trkpt>
      <trkpt lat="43.61288" lon="3.39555">
        <ele>228</ele>
        <time>2016-02-21T12:57:45Z</time>
      </trkpt>
      <trkpt lat="43.61291" lon="3.39554">
        <ele>229</ele>
        <time>2016-02-21T12:57:46Z</time>
      </trkpt>
      <trkpt lat="43.61293" lon="3.39553">
        <ele>229</ele>
        <time>2016-02-21T12:57:47Z</time>
      </trkpt>
      <trkpt lat="43.61295" lon="3.39551">
        <ele>229</ele>
        <time>2016-02-21T12:57:48Z</time>
      </trkpt>
      <trkpt lat="43.61297" lon="3.3955">
        <ele>229</ele>
        <time>2016-02-21T12:57:49Z</time>
      </trkpt>
      <trkpt lat="43.61298" lon="3.39549">
        <ele>229.5</ele>
        <time>2016-02-21T12:57:50Z</time>
      </trkpt>
      <trkpt lat="43.613" lon="3.39548">
        <ele>229.5</ele>
        <time>2016-02-21T12:57:51Z</time>
      </trkpt>
      <trkpt lat="43.61302" lon="3.39547">
        <ele>229.5</ele>
        <time>2016-02-21T12:57:52Z</time>
      </trkpt>
      <trkpt lat="43.61303" lon="3.39546">
        <ele>229.5</ele>
        <time>2016-02-21T12:57:53Z</time>
      </trkpt>
      <trkpt lat="43.61304" lon="3.39544">
        <ele>229</ele>
        <time>2016-02-21T12:57:54Z</time>
      </trkpt>
      <trkpt lat="43.61305" lon="3.39543">
        <ele>228.5</ele>
        <time>2016-02-21T12:57:55Z</time>
      </trkpt>
      <trkpt lat="43.61306" lon="3.39541">
        <ele>227</ele>
        <time>2016-02-21T12:57:56Z</time>
      </trkpt>
      <trkpt lat="43.61307" lon="3.3954">
        <ele>227</ele>
        <time>2016-02-21T12:57:57Z</time>
      </trkpt>
      <trkpt lat="43.61308" lon="3.39536">
        <ele>226</ele>
        <time>2016-02-21T12:57:59Z</time>
      </trkpt>
      <trkpt lat="43.61309" lon="3.39535">
        <ele>227</ele>
        <time>2016-02-21T12:58:00Z</time>
      </trkpt>
      <trkpt lat="43.6131" lon="3.39534">
        <ele>227.5</ele>
        <time>2016-02-21T12:58:01Z</time>
      </trkpt>
      <trkpt lat="43.61311" lon="3.39533">
        <ele>228</ele>
        <time>2016-02-21T12:58:02Z</time>
      </trkpt>
      <trkpt lat="43.61312" lon="3.39532">
        <ele>228</ele>
        <time>2016-02-21T12:58:03Z</time>
      </trkpt>
      <trkpt lat="43.61313" lon="3.3953">
        <ele>227.5</ele>
        <time>2016-02-21T12:58:04Z</time>
      </trkpt>
      <trkpt lat="43.61314" lon="3.39527">
        <ele>226</ele>
        <time>2016-02-21T12:58:05Z</time>
      </trkpt>
      <trkpt lat="43.61312" lon="3.39523">
        <ele>224</ele>
        <time>2016-02-21T12:58:06Z</time>
      </trkpt>
      <trkpt lat="43.61312" lon="3.39521">
        <ele>224</ele>
        <time>2016-02-21T12:58:07Z</time>
      </trkpt>
      <trkpt lat="43.61313" lon="3.39519">
        <ele>224.5</ele>
        <time>2016-02-21T12:58:08Z</time>
      </trkpt>
      <trkpt lat="43.61314" lon="3.39518">
        <ele>225.5</ele>
        <time>2016-02-21T12:58:09Z</time>
      </trkpt>
      <trkpt lat="43.61315" lon="3.39516">
        <ele>226</ele>
        <time>2016-02-21T12:58:10Z</time>
      </trkpt>
      <trkpt lat="43.61315" lon="3.39514">
        <ele>226.5</ele>
        <time>2016-02-21T12:58:11Z</time>
      </trkpt>
      <trkpt lat="43.61316" lon="3.39512">
        <ele>226.5</ele>
        <time>2016-02-21T12:58:12Z</time>
      </trkpt>
      <trkpt lat="43.61316" lon="3.3951">
        <ele>226</ele>
        <time>2016-02-21T12:58:13Z</time>
      </trkpt>
      <trkpt lat="43.61317" lon="3.39508">
        <ele>226.5</ele>
        <time>2016-02-21T12:58:14Z</time>
      </trkpt>
      <trkpt lat="43.61318" lon="3.39507">
        <ele>227</ele>
        <time>2016-02-21T12:58:15Z</time>
      </trkpt>
      <trkpt lat="43.61318" lon="3.39505">
        <ele>227</ele>
        <time>2016-02-21T12:58:16Z</time>
      </trkpt>
      <trkpt lat="43.61318" lon="3.39504">
        <ele>228.5</ele>
        <time>2016-02-21T12:58:17Z</time>
      </trkpt>
      <trkpt lat="43.61319" lon="3.39503">
        <ele>228</ele>
        <time>2016-02-21T12:58:18Z</time>
      </trkpt>
      <trkpt lat="43.61319" lon="3.39501">
        <ele>228</ele>
        <time>2016-02-21T12:58:19Z</time>
      </trkpt>
      <trkpt lat="43.6132" lon="3.39499">
        <ele>228.5</ele>
        <time>2016-02-21T12:58:20Z</time>
      </trkpt>
      <trkpt lat="43.6132" lon="3.39498">
        <ele>230</ele>
        <time>2016-02-21T12:58:21Z</time>
      </trkpt>
      <trkpt lat="43.6132" lon="3.39497">
        <ele>232</ele>
        <time>2016-02-21T12:58:22Z</time>
      </trkpt>
      <trkpt lat="43.61321" lon="3.39495">
        <ele>233.5</ele>
        <time>2016-02-21T12:58:23Z</time>
      </trkpt>
      <trkpt lat="43.61321" lon="3.39494">
        <ele>235</ele>
        <time>2016-02-21T12:58:24Z</time>
      </trkpt>
      <trkpt lat="43.61322" lon="3.39492">
        <ele>236</ele>
        <time>2016-02-21T12:58:25Z</time>
      </trkpt>
      <trkpt lat="43.61322" lon="3.39491">
        <ele>236.5</ele>
        <time>2016-02-21T12:58:26Z</time>
      </trkpt>
      <trkpt lat="43.61323" lon="3.39489">
        <ele>235.5</ele>
        <time>2016-02-21T12:58:27Z</time>
      </trkpt>
      <trkpt lat="43.61323" lon="3.39487">
        <ele>235.5</ele>
        <time>2016-02-21T12:58:28Z</time>
      </trkpt>
      <trkpt lat="43.61324" lon="3.39484">
        <ele>235</ele>
        <time>2016-02-21T12:58:29Z</time>
      </trkpt>
      <trkpt lat="43.61324" lon="3.39483">
        <ele>235.5</ele>
        <time>2016-02-21T12:58:30Z</time>
      </trkpt>
      <trkpt lat="43.61324" lon="3.3948">
        <ele>235.5</ele>
        <time>2016-02-21T12:58:31Z</time>
      </trkpt>
      <trkpt lat="43.61324" lon="3.39479">
        <ele>236</ele>
        <time>2016-02-21T12:58:32Z</time>
      </trkpt>
      <trkpt lat="43.61324" lon="3.39477">
        <ele>236.5</ele>
        <time>2016-02-21T12:58:33Z</time>
      </trkpt>
      <trkpt lat="43.61324" lon="3.39475">
        <ele>237</ele>
        <time>2016-02-21T12:58:34Z</time>
      </trkpt>
      <trkpt lat="43.61323" lon="3.39474">
        <ele>237.5</ele>
        <time>2016-02-21T12:58:35Z</time>
      </trkpt>
      <trkpt lat="43.61324" lon="3.39471">
        <ele>239.5</ele>
        <time>2016-02-21T12:58:37Z</time>
      </trkpt>
      <trkpt lat="43.61324" lon="3.39469">
        <ele>240</ele>
        <time>2016-02-21T12:58:38Z</time>
      </trkpt>
      <trkpt lat="43.61324" lon="3.39468">
        <ele>239.5</ele>
        <time>2016-02-21T12:58:39Z</time>
      </trkpt>
      <trkpt lat="43.61325" lon="3.39466">
        <ele>240</ele>
        <time>2016-02-21T12:58:40Z</time>
      </trkpt>
      <trkpt lat="43.61325" lon="3.39464">
        <ele>240.5</ele>
        <time>2016-02-21T12:58:41Z</time>
      </trkpt>
      <trkpt lat="43.61325" lon="3.39461">
        <ele>239.5</ele>
        <time>2016-02-21T12:58:43Z</time>
      </trkpt>
      <trkpt lat="43.61325" lon="3.39458">
        <ele>238.5</ele>
        <time>2016-02-21T12:58:44Z</time>
      </trkpt>
      <trkpt lat="43.61326" lon="3.39454">
        <ele>237.5</ele>
        <time>2016-02-21T12:58:46Z</time>
      </trkpt>
      <trkpt lat="43.61326" lon="3.39452">
        <ele>238</ele>
        <time>2016-02-21T12:58:47Z</time>
      </trkpt>
      <trkpt lat="43.61327" lon="3.3945">
        <ele>238</ele>
        <time>2016-02-21T12:58:48Z</time>
      </trkpt>
      <trkpt lat="43.61328" lon="3.39446">
        <ele>239</ele>
        <time>2016-02-21T12:58:50Z</time>
      </trkpt>
      <trkpt lat="43.61329" lon="3.39444">
        <ele>240</ele>
        <time>2016-02-21T12:58:51Z</time>
      </trkpt>
      <trkpt lat="43.6133" lon="3.39442">
        <ele>240</ele>
        <time>2016-02-21T12:58:52Z</time>
      </trkpt>
      <trkpt lat="43.61331" lon="3.39441">
        <ele>240.5</ele>
        <time>2016-02-21T12:58:53Z</time>
      </trkpt>
      <trkpt lat="43.61332" lon="3.39439">
        <ele>241</ele>
        <time>2016-02-21T12:58:54Z</time>
      </trkpt>
      <trkpt lat="43.61333" lon="3.39437">
        <ele>240.5</ele>
        <time>2016-02-21T12:58:55Z</time>
      </trkpt>
      <trkpt lat="43.61333" lon="3.39435">
        <ele>240</ele>
        <time>2016-02-21T12:58:56Z</time>
      </trkpt>
      <trkpt lat="43.61334" lon="3.39433">
        <ele>240.5</ele>
        <time>2016-02-21T12:58:57Z</time>
      </trkpt>
      <trkpt lat="43.61334" lon="3.39431">
        <ele>240.5</ele>
        <time>2016-02-21T12:58:58Z</time>
      </trkpt>
      <trkpt lat="43.61335" lon="3.39429">
        <ele>242</ele>
        <time>2016-02-21T12:58:59Z</time>
      </trkpt>
      <trkpt lat="43.61335" lon="3.39427">
        <ele>243.5</ele>
        <time>2016-02-21T12:58:59Z</time>
      </trkpt>
      <trkpt lat="43.61335" lon="3.39426">
        <ele>245</ele>
        <time>2016-02-21T12:59:00Z</time>
      </trkpt>
      <trkpt lat="43.61335" lon="3.39423">
        <ele>245</ele>
        <time>2016-02-21T12:59:01Z</time>
      </trkpt>
      <trkpt lat="43.61335" lon="3.39421">
        <ele>246</ele>
        <time>2016-02-21T12:59:03Z</time>
      </trkpt>
      <trkpt lat="43.61336" lon="3.39419">
        <ele>246.5</ele>
        <time>2016-02-21T12:59:03Z</time>
      </trkpt>
      <trkpt lat="43.61336" lon="3.39417">
        <ele>246.5</ele>
        <time>2016-02-21T12:59:04Z</time>
      </trkpt>
      <trkpt lat="43.61336" lon="3.39415">
        <ele>247</ele>
        <time>2016-02-21T12:59:05Z</time>
      </trkpt>
      <trkpt lat="43.61336" lon="3.39413">
        <ele>247.5</ele>
        <time>2016-02-21T12:59:06Z</time>
      </trkpt>
      <trkpt lat="43.61336" lon="3.39411">
        <ele>248</ele>
        <time>2016-02-21T12:59:07Z</time>
      </trkpt>
      <trkpt lat="43.61335" lon="3.39409">
        <ele>248.5</ele>
        <time>2016-02-21T12:59:08Z</time>
      </trkpt>
      <trkpt lat="43.61335" lon="3.39407">
        <ele>249</ele>
        <time>2016-02-21T12:59:09Z</time>
      </trkpt>
      <trkpt lat="43.61335" lon="3.39404">
        <ele>248</ele>
        <time>2016-02-21T12:59:10Z</time>
      </trkpt>
      <trkpt lat="43.61335" lon="3.39403">
        <ele>248</ele>
        <time>2016-02-21T12:59:11Z</time>
      </trkpt>
      <trkpt lat="43.61335" lon="3.39401">
        <ele>248</ele>
        <time>2016-02-21T12:59:12Z</time>
      </trkpt>
      <trkpt lat="43.61335" lon="3.39399">
        <ele>248</ele>
        <time>2016-02-21T12:59:13Z</time>
      </trkpt>
      <trkpt lat="43.61335" lon="3.39398">
        <ele>250</ele>
        <time>2016-02-21T12:59:14Z</time>
      </trkpt>
      <trkpt lat="43.61335" lon="3.39396">
        <ele>251</ele>
        <time>2016-02-21T12:59:15Z</time>
      </trkpt>
      <trkpt lat="43.61335" lon="3.39394">
        <ele>251</ele>
        <time>2016-02-21T12:59:16Z</time>
      </trkpt>
      <trkpt lat="43.61335" lon="3.39392">
        <ele>251</ele>
        <time>2016-02-21T12:59:17Z</time>
      </trkpt>
      <trkpt lat="43.61335" lon="3.3939">
        <ele>250.5</ele>
        <time>2016-02-21T12:59:18Z</time>
      </trkpt>
      <trkpt lat="43.61334" lon="3.39387">
        <ele>250.5</ele>
        <time>2016-02-21T12:59:20Z</time>
      </trkpt>
      <trkpt lat="43.61334" lon="3.39386">
        <ele>251</ele>
        <time>2016-02-21T12:59:21Z</time>
      </trkpt>
      <trkpt lat="43.61334" lon="3.39385">
        <ele>251.5</ele>
        <time>2016-02-21T12:59:22Z</time>
      </trkpt>
      <trkpt lat="43.61333" lon="3.39383">
        <ele>251.5</ele>
        <time>2016-02-21T12:59:23Z</time>
      </trkpt>
      <trkpt lat="43.61333" lon="3.39381">
        <ele>251</ele>
        <time>2016-02-21T12:59:24Z</time>
      </trkpt>
      <trkpt lat="43.61333" lon="3.39379">
        <ele>251</ele>
        <time>2016-02-21T12:59:25Z</time>
      </trkpt>
      <trkpt lat="43.61332" lon="3.39376">
        <ele>251</ele>
        <time>2016-02-21T12:59:27Z</time>
      </trkpt>
      <trkpt lat="43.61332" lon="3.3937">
        <ele>251</ele>
        <time>2016-02-21T12:59:28Z</time>
      </trkpt>
      <trkpt lat="43.61331" lon="3.39366">
        <ele>251.5</ele>
        <time>2016-02-21T12:59:29Z</time>
      </trkpt>
      <trkpt lat="43.61331" lon="3.39364">
        <ele>251.5</ele>
        <time>2016-02-21T12:59:30Z</time>
      </trkpt>
      <trkpt lat="43.61331" lon="3.39362">
        <ele>252</ele>
        <time>2016-02-21T12:59:32Z</time>
      </trkpt>
      <trkpt lat="43.61329" lon="3.3936">
        <ele>251.5</ele>
        <time>2016-02-21T12:59:32Z</time>
      </trkpt>
      <trkpt lat="43.61328" lon="3.39359">
        <ele>251</ele>
        <time>2016-02-21T12:59:33Z</time>
      </trkpt>
      <trkpt lat="43.61327" lon="3.3936">
        <ele>251.5</ele>
        <time>2016-02-21T12:59:34Z</time>
      </trkpt>
      <trkpt lat="43.61326" lon="3.3936">
        <ele>251.5</ele>
        <time>2016-02-21T12:59:35Z</time>
      </trkpt>
      <trkpt lat="43.61325" lon="3.39361">
        <ele>251.5</ele>
        <time>2016-02-21T12:59:37Z</time>
      </trkpt>
      <trkpt lat="43.61324" lon="3.39363">
        <ele>251.5</ele>
        <time>2016-02-21T12:59:37Z</time>
      </trkpt>
      <trkpt lat="43.61325" lon="3.39364">
        <ele>251.5</ele>
        <time>2016-02-21T12:59:39Z</time>
      </trkpt>
      <trkpt lat="43.61326" lon="3.39364">
        <ele>251.5</ele>
        <time>2016-02-21T12:59:39Z</time>
      </trkpt>
      <trkpt lat="43.61327" lon="3.39365">
        <ele>251</ele>
        <time>2016-02-21T12:59:40Z</time>
      </trkpt>
      <trkpt lat="43.61329" lon="3.39364">
        <ele>250.5</ele>
        <time>2016-02-21T12:59:41Z</time>
      </trkpt>
      <trkpt lat="43.6133" lon="3.39363">
        <ele>250.5</ele>
        <time>2016-02-21T12:59:42Z</time>
      </trkpt>
      <trkpt lat="43.61331" lon="3.39359">
        <ele>251</ele>
        <time>2016-02-21T12:59:43Z</time>
      </trkpt>
      <trkpt lat="43.61332" lon="3.39357">
        <ele>251</ele>
        <time>2016-02-21T12:59:44Z</time>
      </trkpt>
      <trkpt lat="43.61331" lon="3.39355">
        <ele>249.5</ele>
        <time>2016-02-21T12:59:45Z</time>
      </trkpt>
      <trkpt lat="43.61331" lon="3.39353">
        <ele>249.5</ele>
        <time>2016-02-21T12:59:46Z</time>
      </trkpt>
      <trkpt lat="43.6133" lon="3.39352">
        <ele>249.5</ele>
        <time>2016-02-21T12:59:47Z</time>
      </trkpt>
      <trkpt lat="43.6133" lon="3.3935">
        <ele>249.5</ele>
        <time>2016-02-21T12:59:48Z</time>
      </trkpt>
      <trkpt lat="43.61329" lon="3.39348">
        <ele>249.5</ele>
        <time>2016-02-21T12:59:49Z</time>
      </trkpt>
      <trkpt lat="43.61328" lon="3.39347">
        <ele>249.5</ele>
        <time>2016-02-21T12:59:50Z</time>
      </trkpt>
      <trkpt lat="43.61327" lon="3.39344">
        <ele>249.5</ele>
        <time>2016-02-21T12:59:51Z</time>
      </trkpt>
      <trkpt lat="43.61325" lon="3.39341">
        <ele>249.5</ele>
        <time>2016-02-21T12:59:52Z</time>
      </trkpt>
      <trkpt lat="43.61323" lon="3.39337">
        <ele>249.5</ele>
        <time>2016-02-21T12:59:53Z</time>
      </trkpt>
      <trkpt lat="43.61321" lon="3.39332">
        <ele>251</ele>
        <time>2016-02-21T12:59:54Z</time>
      </trkpt>
      <trkpt lat="43.61319" lon="3.39325">
        <ele>251</ele>
        <time>2016-02-21T12:59:55Z</time>
      </trkpt>
      <trkpt lat="43.61316" lon="3.39318">
        <ele>251</ele>
        <time>2016-02-21T12:59:56Z</time>
      </trkpt>
      <trkpt lat="43.61314" lon="3.3931">
        <ele>251</ele>
        <time>2016-02-21T12:59:57Z</time>
      </trkpt>
      <trkpt lat="43.61312" lon="3.39301">
        <ele>251</ele>
        <time>2016-02-21T12:59:58Z</time>
      </trkpt>
      <trkpt lat="43.6131" lon="3.39291">
        <ele>251</ele>
        <time>2016-02-21T12:59:59Z</time>
      </trkpt>
      <trkpt lat="43.61307" lon="3.39282">
        <ele>251.5</ele>
        <time>2016-02-21T13:00:00Z</time>
      </trkpt>
      <trkpt lat="43.61308" lon="3.39272">
        <ele>252</ele>
        <time>2016-02-21T13:00:01Z</time>
      </trkpt>
      <trkpt lat="43.61309" lon="3.39264">
        <ele>252</ele>
        <time>2016-02-21T13:00:03Z</time>
      </trkpt>
      <trkpt lat="43.61308" lon="3.39242">
        <ele>254.5</ele>
        <time>2016-02-21T13:00:04Z</time>
      </trkpt>
      <trkpt lat="43.61306" lon="3.39228">
        <ele>254</ele>
        <time>2016-02-21T13:00:05Z</time>
      </trkpt>
      <trkpt lat="43.61305" lon="3.39214">
        <ele>253</ele>
        <time>2016-02-21T13:00:06Z</time>
      </trkpt>
      <trkpt lat="43.61306" lon="3.392">
        <ele>252.5</ele>
        <time>2016-02-21T13:00:07Z</time>
      </trkpt>
      <trkpt lat="43.6131" lon="3.39185">
        <ele>252</ele>
        <time>2016-02-21T13:00:08Z</time>
      </trkpt>
      <trkpt lat="43.61312" lon="3.39171">
        <ele>251.5</ele>
        <time>2016-02-21T13:00:09Z</time>
      </trkpt>
      <trkpt lat="43.61315" lon="3.39159">
        <ele>250</ele>
        <time>2016-02-21T13:00:10Z</time>
      </trkpt>
      <trkpt lat="43.6132" lon="3.3915">
        <ele>248.5</ele>
        <time>2016-02-21T13:00:11Z</time>
      </trkpt>
      <trkpt lat="43.61325" lon="3.39143">
        <ele>247.5</ele>
        <time>2016-02-21T13:00:12Z</time>
      </trkpt>
      <trkpt lat="43.61332" lon="3.39139">
        <ele>244.5</ele>
        <time>2016-02-21T13:00:13Z</time>
      </trkpt>
      <trkpt lat="43.6134" lon="3.39135">
        <ele>244.5</ele>
        <time>2016-02-21T13:00:14Z</time>
      </trkpt>
      <trkpt lat="43.61348" lon="3.39129">
        <ele>244.5</ele>
        <time>2016-02-21T13:00:15Z</time>
      </trkpt>
      <trkpt lat="43.61355" lon="3.39119">
        <ele>243</ele>
        <time>2016-02-21T13:00:16Z</time>
      </trkpt>
      <trkpt lat="43.61358" lon="3.39107">
        <ele>244</ele>
        <time>2016-02-21T13:00:17Z</time>
      </trkpt>
      <trkpt lat="43.61364" lon="3.39096">
        <ele>244.5</ele>
        <time>2016-02-21T13:00:18Z</time>
      </trkpt>
      <trkpt lat="43.61372" lon="3.39091">
        <ele>244</ele>
        <time>2016-02-21T13:00:19Z</time>
      </trkpt>
      <trkpt lat="43.6138" lon="3.39088">
        <ele>245</ele>
        <time>2016-02-21T13:00:20Z</time>
      </trkpt>
      <trkpt lat="43.61389" lon="3.39086">
        <ele>244.5</ele>
        <time>2016-02-21T13:00:21Z</time>
      </trkpt>
      <trkpt lat="43.61396" lon="3.39083">
        <ele>241.5</ele>
        <time>2016-02-21T13:00:22Z</time>
      </trkpt>
      <trkpt lat="43.61404" lon="3.39079">
        <ele>240.5</ele>
        <time>2016-02-21T13:00:23Z</time>
      </trkpt>
      <trkpt lat="43.6141" lon="3.39073">
        <ele>239.5</ele>
        <time>2016-02-21T13:00:24Z</time>
      </trkpt>
      <trkpt lat="43.61417" lon="3.39068">
        <ele>239</ele>
        <time>2016-02-21T13:00:25Z</time>
      </trkpt>
      <trkpt lat="43.61424" lon="3.39063">
        <ele>240</ele>
        <time>2016-02-21T13:00:26Z</time>
      </trkpt>
      <trkpt lat="43.6143" lon="3.39057">
        <ele>239.5</ele>
        <time>2016-02-21T13:00:27Z</time>
      </trkpt>
      <trkpt lat="43.61435" lon="3.39052">
        <ele>239</ele>
        <time>2016-02-21T13:00:28Z</time>
      </trkpt>
      <trkpt lat="43.61439" lon="3.39045">
        <ele>237</ele>
        <time>2016-02-21T13:00:29Z</time>
      </trkpt>
      <trkpt lat="43.61443" lon="3.39039">
        <ele>236</ele>
        <time>2016-02-21T13:00:30Z</time>
      </trkpt>
      <trkpt lat="43.61448" lon="3.39032">
        <ele>236</ele>
        <time>2016-02-21T13:00:31Z</time>
      </trkpt>
      <trkpt lat="43.61452" lon="3.39026">
        <ele>236</ele>
        <time>2016-02-21T13:00:32Z</time>
      </trkpt>
      <trkpt lat="43.61456" lon="3.39019">
        <ele>235.5</ele>
        <time>2016-02-21T13:00:33Z</time>
      </trkpt>
      <trkpt lat="43.6146" lon="3.39012">
        <ele>234.5</ele>
        <time>2016-02-21T13:00:34Z</time>
      </trkpt>
      <trkpt lat="43.61463" lon="3.39005">
        <ele>233</ele>
        <time>2016-02-21T13:00:35Z</time>
      </trkpt>
      <trkpt lat="43.61467" lon="3.38999">
        <ele>232.5</ele>
        <time>2016-02-21T13:00:36Z</time>
      </trkpt>
      <trkpt lat="43.61471" lon="3.38992">
        <ele>232.5</ele>
        <time>2016-02-21T13:00:37Z</time>
      </trkpt>
      <trkpt lat="43.61475" lon="3.38989">
        <ele>232</ele>
        <time>2016-02-21T13:00:38Z</time>
      </trkpt>
      <trkpt lat="43.61478" lon="3.38984">
        <ele>231.5</ele>
        <time>2016-02-21T13:00:39Z</time>
      </trkpt>
      <trkpt lat="43.61481" lon="3.38979">
        <ele>231</ele>
        <time>2016-02-21T13:00:40Z</time>
      </trkpt>
      <trkpt lat="43.61484" lon="3.38975">
        <ele>230.5</ele>
        <time>2016-02-21T13:00:41Z</time>
      </trkpt>
      <trkpt lat="43.61487" lon="3.38971">
        <ele>230</ele>
        <time>2016-02-21T13:00:42Z</time>
      </trkpt>
      <trkpt lat="43.61491" lon="3.38968">
        <ele>231</ele>
        <time>2016-02-21T13:00:43Z</time>
      </trkpt>
      <trkpt lat="43.61494" lon="3.38964">
        <ele>231.5</ele>
        <time>2016-02-21T13:00:44Z</time>
      </trkpt>
      <trkpt lat="43.61497" lon="3.3896">
        <ele>231.5</ele>
        <time>2016-02-21T13:00:45Z</time>
      </trkpt>
      <trkpt lat="43.615" lon="3.38957">
        <ele>231.5</ele>
        <time>2016-02-21T13:00:46Z</time>
      </trkpt>
      <trkpt lat="43.61503" lon="3.38954">
        <ele>231.5</ele>
        <time>2016-02-21T13:00:47Z</time>
      </trkpt>
      <trkpt lat="43.61506" lon="3.38951">
        <ele>230.5</ele>
        <time>2016-02-21T13:00:48Z</time>
      </trkpt>
      <trkpt lat="43.6151" lon="3.38948">
        <ele>229.5</ele>
        <time>2016-02-21T13:00:49Z</time>
      </trkpt>
      <trkpt lat="43.61514" lon="3.38945">
        <ele>228</ele>
        <time>2016-02-21T13:00:50Z</time>
      </trkpt>
      <trkpt lat="43.61519" lon="3.38942">
        <ele>227</ele>
        <time>2016-02-21T13:00:51Z</time>
      </trkpt>
      <trkpt lat="43.61523" lon="3.38937">
        <ele>226.5</ele>
        <time>2016-02-21T13:00:52Z</time>
      </trkpt>
      <trkpt lat="43.61528" lon="3.38933">
        <ele>226</ele>
        <time>2016-02-21T13:00:53Z</time>
      </trkpt>
      <trkpt lat="43.61533" lon="3.38929">
        <ele>225</ele>
        <time>2016-02-21T13:00:54Z</time>
      </trkpt>
      <trkpt lat="43.61538" lon="3.38924">
        <ele>225</ele>
        <time>2016-02-21T13:00:55Z</time>
      </trkpt>
      <trkpt lat="43.61544" lon="3.38918">
        <ele>225.5</ele>
        <time>2016-02-21T13:00:56Z</time>
      </trkpt>
      <trkpt lat="43.61549" lon="3.38912">
        <ele>227</ele>
        <time>2016-02-21T13:00:57Z</time>
      </trkpt>
      <trkpt lat="43.61552" lon="3.38904">
        <ele>226.5</ele>
        <time>2016-02-21T13:00:58Z</time>
      </trkpt>
      <trkpt lat="43.61557" lon="3.38896">
        <ele>228</ele>
        <time>2016-02-21T13:00:59Z</time>
      </trkpt>
      <trkpt lat="43.61562" lon="3.38884">
        <ele>228</ele>
        <time>2016-02-21T13:01:01Z</time>
      </trkpt>
      <trkpt lat="43.61569" lon="3.38874">
        <ele>228</ele>
        <time>2016-02-21T13:01:03Z</time>
      </trkpt>
      <trkpt lat="43.61572" lon="3.38869">
        <ele>228</ele>
        <time>2016-02-21T13:01:04Z</time>
      </trkpt>
      <trkpt lat="43.61573" lon="3.38863">
        <ele>226.5</ele>
        <time>2016-02-21T13:01:05Z</time>
      </trkpt>
      <trkpt lat="43.61573" lon="3.38856">
        <ele>227.5</ele>
        <time>2016-02-21T13:01:06Z</time>
      </trkpt>
      <trkpt lat="43.61572" lon="3.3885">
        <ele>229</ele>
        <time>2016-02-21T13:01:07Z</time>
      </trkpt>
      <trkpt lat="43.61563" lon="3.38842">
        <ele>228.5</ele>
        <time>2016-02-21T13:01:09Z</time>
      </trkpt>
      <trkpt lat="43.6156" lon="3.38841">
        <ele>229.5</ele>
        <time>2016-02-21T13:01:10Z</time>
      </trkpt>
      <trkpt lat="43.61556" lon="3.3884">
        <ele>229.5</ele>
        <time>2016-02-21T13:01:11Z</time>
      </trkpt>
      <trkpt lat="43.61552" lon="3.38839">
        <ele>229.5</ele>
        <time>2016-02-21T13:01:12Z</time>
      </trkpt>
      <trkpt lat="43.61549" lon="3.38838">
        <ele>229</ele>
        <time>2016-02-21T13:01:13Z</time>
      </trkpt>
      <trkpt lat="43.61547" lon="3.38838">
        <ele>229</ele>
        <time>2016-02-21T13:01:14Z</time>
      </trkpt>
      <trkpt lat="43.61545" lon="3.38837">
        <ele>229</ele>
        <time>2016-02-21T13:01:15Z</time>
      </trkpt>
      <trkpt lat="43.61543" lon="3.38836">
        <ele>228.5</ele>
        <time>2016-02-21T13:01:16Z</time>
      </trkpt>
      <trkpt lat="43.61541" lon="3.38835">
        <ele>228.5</ele>
        <time>2016-02-21T13:01:17Z</time>
      </trkpt>
      <trkpt lat="43.61539" lon="3.38835">
        <ele>229</ele>
        <time>2016-02-21T13:01:18Z</time>
      </trkpt>
      <trkpt lat="43.61537" lon="3.38834">
        <ele>229.5</ele>
        <time>2016-02-21T13:01:19Z</time>
      </trkpt>
      <trkpt lat="43.61534" lon="3.38834">
        <ele>230</ele>
        <time>2016-02-21T13:01:20Z</time>
      </trkpt>
      <trkpt lat="43.61532" lon="3.38833">
        <ele>230.5</ele>
        <time>2016-02-21T13:01:21Z</time>
      </trkpt>
      <trkpt lat="43.6153" lon="3.38832">
        <ele>230.5</ele>
        <time>2016-02-21T13:01:22Z</time>
      </trkpt>
      <trkpt lat="43.61528" lon="3.38831">
        <ele>230.5</ele>
        <time>2016-02-21T13:01:23Z</time>
      </trkpt>
      <trkpt lat="43.61527" lon="3.3883">
        <ele>231.5</ele>
        <time>2016-02-21T13:01:24Z</time>
      </trkpt>
      <trkpt lat="43.61525" lon="3.38828">
        <ele>231.5</ele>
        <time>2016-02-21T13:01:25Z</time>
      </trkpt>
      <trkpt lat="43.61522" lon="3.38827">
        <ele>232.5</ele>
        <time>2016-02-21T13:01:26Z</time>
      </trkpt>
      <trkpt lat="43.6152" lon="3.38825">
        <ele>232.5</ele>
        <time>2016-02-21T13:01:27Z</time>
      </trkpt>
      <trkpt lat="43.61519" lon="3.38824">
        <ele>232.5</ele>
        <time>2016-02-21T13:01:28Z</time>
      </trkpt>
      <trkpt lat="43.61517" lon="3.38823">
        <ele>232</ele>
        <time>2016-02-21T13:01:29Z</time>
      </trkpt>
      <trkpt lat="43.61516" lon="3.38822">
        <ele>232</ele>
        <time>2016-02-21T13:01:30Z</time>
      </trkpt>
      <trkpt lat="43.61515" lon="3.3882">
        <ele>231.5</ele>
        <time>2016-02-21T13:01:31Z</time>
      </trkpt>
      <trkpt lat="43.61515" lon="3.38817">
        <ele>232</ele>
        <time>2016-02-21T13:01:32Z</time>
      </trkpt>
      <trkpt lat="43.61514" lon="3.38815">
        <ele>232.5</ele>
        <time>2016-02-21T13:01:33Z</time>
      </trkpt>
      <trkpt lat="43.61514" lon="3.38812">
        <ele>232.5</ele>
        <time>2016-02-21T13:01:34Z</time>
      </trkpt>
      <trkpt lat="43.61515" lon="3.3881">
        <ele>233.5</ele>
        <time>2016-02-21T13:01:35Z</time>
      </trkpt>
      <trkpt lat="43.61515" lon="3.38807">
        <ele>234</ele>
        <time>2016-02-21T13:01:36Z</time>
      </trkpt>
      <trkpt lat="43.61516" lon="3.38805">
        <ele>233.5</ele>
        <time>2016-02-21T13:01:37Z</time>
      </trkpt>
      <trkpt lat="43.61517" lon="3.38803">
        <ele>233.5</ele>
        <time>2016-02-21T13:01:38Z</time>
      </trkpt>
      <trkpt lat="43.61518" lon="3.38801">
        <ele>233</ele>
        <time>2016-02-21T13:01:39Z</time>
      </trkpt>
      <trkpt lat="43.61519" lon="3.38799">
        <ele>232</ele>
        <time>2016-02-21T13:01:40Z</time>
      </trkpt>
      <trkpt lat="43.6152" lon="3.38797">
        <ele>231.5</ele>
        <time>2016-02-21T13:01:41Z</time>
      </trkpt>
      <trkpt lat="43.61522" lon="3.38795">
        <ele>230.5</ele>
        <time>2016-02-21T13:01:42Z</time>
      </trkpt>
      <trkpt lat="43.61523" lon="3.38794">
        <ele>230.5</ele>
        <time>2016-02-21T13:01:43Z</time>
      </trkpt>
      <trkpt lat="43.61525" lon="3.38793">
        <ele>230</ele>
        <time>2016-02-21T13:01:44Z</time>
      </trkpt>
      <trkpt lat="43.61527" lon="3.38791">
        <ele>230</ele>
        <time>2016-02-21T13:01:45Z</time>
      </trkpt>
      <trkpt lat="43.61528" lon="3.38791">
        <ele>230</ele>
        <time>2016-02-21T13:01:46Z</time>
      </trkpt>
      <trkpt lat="43.6153" lon="3.3879">
        <ele>229.5</ele>
        <time>2016-02-21T13:01:47Z</time>
      </trkpt>
      <trkpt lat="43.61531" lon="3.38789">
        <ele>229</ele>
        <time>2016-02-21T13:01:48Z</time>
      </trkpt>
      <trkpt lat="43.61533" lon="3.38789">
        <ele>229</ele>
        <time>2016-02-21T13:01:49Z</time>
      </trkpt>
      <trkpt lat="43.61535" lon="3.38789">
        <ele>229.5</ele>
        <time>2016-02-21T13:01:50Z</time>
      </trkpt>
      <trkpt lat="43.61537" lon="3.38789">
        <ele>229</ele>
        <time>2016-02-21T13:01:51Z</time>
      </trkpt>
      <trkpt lat="43.61539" lon="3.38789">
        <ele>228.5</ele>
        <time>2016-02-21T13:01:52Z</time>
      </trkpt>
      <trkpt lat="43.61541" lon="3.38788">
        <ele>228</ele>
        <time>2016-02-21T13:01:53Z</time>
      </trkpt>
      <trkpt lat="43.61543" lon="3.38788">
        <ele>228</ele>
        <time>2016-02-21T13:01:54Z</time>
      </trkpt>
      <trkpt lat="43.61545" lon="3.38787">
        <ele>228.5</ele>
        <time>2016-02-21T13:01:55Z</time>
      </trkpt>
      <trkpt lat="43.61547" lon="3.38785">
        <ele>228</ele>
        <time>2016-02-21T13:01:56Z</time>
      </trkpt>
      <trkpt lat="43.61549" lon="3.38783">
        <ele>229</ele>
        <time>2016-02-21T13:01:57Z</time>
      </trkpt>
      <trkpt lat="43.61551" lon="3.38779">
        <ele>230</ele>
        <time>2016-02-21T13:01:58Z</time>
      </trkpt>
      <trkpt lat="43.61553" lon="3.38775">
        <ele>231</ele>
        <time>2016-02-21T13:01:59Z</time>
      </trkpt>
      <trkpt lat="43.61554" lon="3.38772">
        <ele>231.5</ele>
        <time>2016-02-21T13:02:00Z</time>
      </trkpt>
      <trkpt lat="43.61555" lon="3.38769">
        <ele>232</ele>
        <time>2016-02-21T13:02:01Z</time>
      </trkpt>
      <trkpt lat="43.61557" lon="3.38765">
        <ele>233</ele>
        <time>2016-02-21T13:02:02Z</time>
      </trkpt>
      <trkpt lat="43.61558" lon="3.38762">
        <ele>233.5</ele>
        <time>2016-02-21T13:02:03Z</time>
      </trkpt>
      <trkpt lat="43.61559" lon="3.38758">
        <ele>233.5</ele>
        <time>2016-02-21T13:02:04Z</time>
      </trkpt>
      <trkpt lat="43.6156" lon="3.38754">
        <ele>234</ele>
        <time>2016-02-21T13:02:05Z</time>
      </trkpt>
      <trkpt lat="43.61561" lon="3.38751">
        <ele>234.5</ele>
        <time>2016-02-21T13:02:06Z</time>
      </trkpt>
      <trkpt lat="43.61562" lon="3.38748">
        <ele>234.5</ele>
        <time>2016-02-21T13:02:07Z</time>
      </trkpt>
      <trkpt lat="43.61564" lon="3.38745">
        <ele>234.5</ele>
        <time>2016-02-21T13:02:08Z</time>
      </trkpt>
      <trkpt lat="43.61565" lon="3.38742">
        <ele>235</ele>
        <time>2016-02-21T13:02:09Z</time>
      </trkpt>
      <trkpt lat="43.61567" lon="3.3874">
        <ele>235</ele>
        <time>2016-02-21T13:02:10Z</time>
      </trkpt>
      <trkpt lat="43.61568" lon="3.38737">
        <ele>234.5</ele>
        <time>2016-02-21T13:02:11Z</time>
      </trkpt>
      <trkpt lat="43.61569" lon="3.38734">
        <ele>234.5</ele>
        <time>2016-02-21T13:02:12Z</time>
      </trkpt>
      <trkpt lat="43.61569" lon="3.38731">
        <ele>233.5</ele>
        <time>2016-02-21T13:02:13Z</time>
      </trkpt>
      <trkpt lat="43.6157" lon="3.38728">
        <ele>233</ele>
        <time>2016-02-21T13:02:14Z</time>
      </trkpt>
      <trkpt lat="43.6157" lon="3.38725">
        <ele>232.5</ele>
        <time>2016-02-21T13:02:15Z</time>
      </trkpt>
      <trkpt lat="43.61571" lon="3.38723">
        <ele>231.5</ele>
        <time>2016-02-21T13:02:15Z</time>
      </trkpt>
      <trkpt lat="43.61574" lon="3.3872">
        <ele>233.5</ele>
        <time>2016-02-21T13:02:16Z</time>
      </trkpt>
      <trkpt lat="43.61576" lon="3.38718">
        <ele>234</ele>
        <time>2016-02-21T13:02:18Z</time>
      </trkpt>
      <trkpt lat="43.61577" lon="3.38715">
        <ele>233.5</ele>
        <time>2016-02-21T13:02:19Z</time>
      </trkpt>
      <trkpt lat="43.61578" lon="3.3871">
        <ele>233.5</ele>
        <time>2016-02-21T13:02:20Z</time>
      </trkpt>
      <trkpt lat="43.61579" lon="3.38707">
        <ele>232.5</ele>
        <time>2016-02-21T13:02:21Z</time>
      </trkpt>
      <trkpt lat="43.61579" lon="3.38705">
        <ele>233</ele>
        <time>2016-02-21T13:02:23Z</time>
      </trkpt>
      <trkpt lat="43.61578" lon="3.38702">
        <ele>232.5</ele>
        <time>2016-02-21T13:02:24Z</time>
      </trkpt>
      <trkpt lat="43.61578" lon="3.38699">
        <ele>232.5</ele>
        <time>2016-02-21T13:02:24Z</time>
      </trkpt>
      <trkpt lat="43.61578" lon="3.38696">
        <ele>233</ele>
        <time>2016-02-21T13:02:25Z</time>
      </trkpt>
      <trkpt lat="43.61578" lon="3.38695">
        <ele>233</ele>
        <time>2016-02-21T13:02:26Z</time>
      </trkpt>
      <trkpt lat="43.61578" lon="3.38693">
        <ele>233.5</ele>
        <time>2016-02-21T13:02:27Z</time>
      </trkpt>
      <trkpt lat="43.61577" lon="3.3869">
        <ele>233.5</ele>
        <time>2016-02-21T13:02:29Z</time>
      </trkpt>
      <trkpt lat="43.61576" lon="3.38688">
        <ele>233.5</ele>
        <time>2016-02-21T13:02:30Z</time>
      </trkpt>
      <trkpt lat="43.61576" lon="3.38686">
        <ele>234</ele>
        <time>2016-02-21T13:02:30Z</time>
      </trkpt>
      <trkpt lat="43.61575" lon="3.38684">
        <ele>233.5</ele>
        <time>2016-02-21T13:02:31Z</time>
      </trkpt>
      <trkpt lat="43.61574" lon="3.38681">
        <ele>235.5</ele>
        <time>2016-02-21T13:02:32Z</time>
      </trkpt>
      <trkpt lat="43.61574" lon="3.38679">
        <ele>236</ele>
        <time>2016-02-21T13:02:33Z</time>
      </trkpt>
      <trkpt lat="43.61574" lon="3.38676">
        <ele>237</ele>
        <time>2016-02-21T13:02:34Z</time>
      </trkpt>
      <trkpt lat="43.61573" lon="3.38673">
        <ele>237</ele>
        <time>2016-02-21T13:02:35Z</time>
      </trkpt>
      <trkpt lat="43.61573" lon="3.3867">
        <ele>236.5</ele>
        <time>2016-02-21T13:02:36Z</time>
      </trkpt>
      <trkpt lat="43.61572" lon="3.38667">
        <ele>235.5</ele>
        <time>2016-02-21T13:02:37Z</time>
      </trkpt>
      <trkpt lat="43.61572" lon="3.38663">
        <ele>235.5</ele>
        <time>2016-02-21T13:02:38Z</time>
      </trkpt>
      <trkpt lat="43.61571" lon="3.3866">
        <ele>236</ele>
        <time>2016-02-21T13:02:39Z</time>
      </trkpt>
      <trkpt lat="43.61571" lon="3.38656">
        <ele>236</ele>
        <time>2016-02-21T13:02:40Z</time>
      </trkpt>
      <trkpt lat="43.61571" lon="3.38652">
        <ele>237</ele>
        <time>2016-02-21T13:02:41Z</time>
      </trkpt>
      <trkpt lat="43.61573" lon="3.38649">
        <ele>237.5</ele>
        <time>2016-02-21T13:02:42Z</time>
      </trkpt>
      <trkpt lat="43.61573" lon="3.38644">
        <ele>237.5</ele>
        <time>2016-02-21T13:02:43Z</time>
      </trkpt>
      <trkpt lat="43.61574" lon="3.3864">
        <ele>239.5</ele>
        <time>2016-02-21T13:02:45Z</time>
      </trkpt>
      <trkpt lat="43.61574" lon="3.38636">
        <ele>242</ele>
        <time>2016-02-21T13:02:45Z</time>
      </trkpt>
      <trkpt lat="43.61578" lon="3.38633">
        <ele>242</ele>
        <time>2016-02-21T13:02:46Z</time>
      </trkpt>
      <trkpt lat="43.61579" lon="3.38629">
        <ele>241.5</ele>
        <time>2016-02-21T13:02:47Z</time>
      </trkpt>
      <trkpt lat="43.61581" lon="3.38627">
        <ele>242.5</ele>
        <time>2016-02-21T13:02:48Z</time>
      </trkpt>
      <trkpt lat="43.61581" lon="3.38624">
        <ele>242</ele>
        <time>2016-02-21T13:02:49Z</time>
      </trkpt>
      <trkpt lat="43.61582" lon="3.38621">
        <ele>241.5</ele>
        <time>2016-02-21T13:02:50Z</time>
      </trkpt>
      <trkpt lat="43.61584" lon="3.38619">
        <ele>240.5</ele>
        <time>2016-02-21T13:02:51Z</time>
      </trkpt>
      <trkpt lat="43.61585" lon="3.38617">
        <ele>238</ele>
        <time>2016-02-21T13:02:52Z</time>
      </trkpt>
      <trkpt lat="43.61586" lon="3.38614">
        <ele>236</ele>
        <time>2016-02-21T13:02:53Z</time>
      </trkpt>
      <trkpt lat="43.61588" lon="3.38613">
        <ele>235</ele>
        <time>2016-02-21T13:02:54Z</time>
      </trkpt>
      <trkpt lat="43.61591" lon="3.38611">
        <ele>234</ele>
        <time>2016-02-21T13:02:55Z</time>
      </trkpt>
      <trkpt lat="43.61592" lon="3.3861">
        <ele>232.5</ele>
        <time>2016-02-21T13:02:56Z</time>
      </trkpt>
      <trkpt lat="43.61593" lon="3.38607">
        <ele>231</ele>
        <time>2016-02-21T13:02:57Z</time>
      </trkpt>
      <trkpt lat="43.61596" lon="3.38604">
        <ele>230.5</ele>
        <time>2016-02-21T13:02:58Z</time>
      </trkpt>
      <trkpt lat="43.61598" lon="3.38602">
        <ele>229.5</ele>
        <time>2016-02-21T13:03:00Z</time>
      </trkpt>
      <trkpt lat="43.61601" lon="3.38598">
        <ele>228</ele>
        <time>2016-02-21T13:03:00Z</time>
      </trkpt>
      <trkpt lat="43.61604" lon="3.38595">
        <ele>228</ele>
        <time>2016-02-21T13:03:01Z</time>
      </trkpt>
      <trkpt lat="43.61607" lon="3.38591">
        <ele>226.5</ele>
        <time>2016-02-21T13:03:02Z</time>
      </trkpt>
      <trkpt lat="43.61611" lon="3.38587">
        <ele>227</ele>
        <time>2016-02-21T13:03:03Z</time>
      </trkpt>
      <trkpt lat="43.61615" lon="3.38584">
        <ele>226.5</ele>
        <time>2016-02-21T13:03:04Z</time>
      </trkpt>
      <trkpt lat="43.61619" lon="3.38581">
        <ele>226</ele>
        <time>2016-02-21T13:03:05Z</time>
      </trkpt>
      <trkpt lat="43.61623" lon="3.3858">
        <ele>225.5</ele>
        <time>2016-02-21T13:03:06Z</time>
      </trkpt>
      <trkpt lat="43.61628" lon="3.3858">
        <ele>226</ele>
        <time>2016-02-21T13:03:07Z</time>
      </trkpt>
      <trkpt lat="43.61632" lon="3.38584">
        <ele>226.5</ele>
        <time>2016-02-21T13:03:08Z</time>
      </trkpt>
      <trkpt lat="43.61636" lon="3.38592">
        <ele>227</ele>
        <time>2016-02-21T13:03:10Z</time>
      </trkpt>
      <trkpt lat="43.61639" lon="3.38597">
        <ele>227</ele>
        <time>2016-02-21T13:03:11Z</time>
      </trkpt>
      <trkpt lat="43.61641" lon="3.38602">
        <ele>226.5</ele>
        <time>2016-02-21T13:03:12Z</time>
      </trkpt>
      <trkpt lat="43.61644" lon="3.38607">
        <ele>226.5</ele>
        <time>2016-02-21T13:03:13Z</time>
      </trkpt>
      <trkpt lat="43.61647" lon="3.3861">
        <ele>227</ele>
        <time>2016-02-21T13:03:14Z</time>
      </trkpt>
      <trkpt lat="43.6165" lon="3.38612">
        <ele>227</ele>
        <time>2016-02-21T13:03:15Z</time>
      </trkpt>
      <trkpt lat="43.61655" lon="3.38614">
        <ele>227.5</ele>
        <time>2016-02-21T13:03:16Z</time>
      </trkpt>
      <trkpt lat="43.61659" lon="3.38614">
        <ele>227.5</ele>
        <time>2016-02-21T13:03:17Z</time>
      </trkpt>
      <trkpt lat="43.61663" lon="3.38613">
        <ele>227.5</ele>
        <time>2016-02-21T13:03:18Z</time>
      </trkpt>
      <trkpt lat="43.61666" lon="3.38611">
        <ele>226.5</ele>
        <time>2016-02-21T13:03:19Z</time>
      </trkpt>
      <trkpt lat="43.6167" lon="3.38608">
        <ele>226</ele>
        <time>2016-02-21T13:03:20Z</time>
      </trkpt>
      <trkpt lat="43.61675" lon="3.38605">
        <ele>226</ele>
        <time>2016-02-21T13:03:21Z</time>
      </trkpt>
      <trkpt lat="43.6168" lon="3.38601">
        <ele>226</ele>
        <time>2016-02-21T13:03:22Z</time>
      </trkpt>
      <trkpt lat="43.61684" lon="3.38597">
        <ele>226.5</ele>
        <time>2016-02-21T13:03:23Z</time>
      </trkpt>
      <trkpt lat="43.61689" lon="3.38593">
        <ele>228</ele>
        <time>2016-02-21T13:03:24Z</time>
      </trkpt>
      <trkpt lat="43.61695" lon="3.38591">
        <ele>228.5</ele>
        <time>2016-02-21T13:03:25Z</time>
      </trkpt>
      <trkpt lat="43.617" lon="3.38588">
        <ele>229</ele>
        <time>2016-02-21T13:03:26Z</time>
      </trkpt>
      <trkpt lat="43.61702" lon="3.38584">
        <ele>227.5</ele>
        <time>2016-02-21T13:03:27Z</time>
      </trkpt>
      <trkpt lat="43.61704" lon="3.3858">
        <ele>227.5</ele>
        <time>2016-02-21T13:03:28Z</time>
      </trkpt>
      <trkpt lat="43.61706" lon="3.38576">
        <ele>227.5</ele>
        <time>2016-02-21T13:03:29Z</time>
      </trkpt>
      <trkpt lat="43.61707" lon="3.38571">
        <ele>227.5</ele>
        <time>2016-02-21T13:03:30Z</time>
      </trkpt>
      <trkpt lat="43.61707" lon="3.38567">
        <ele>227.5</ele>
        <time>2016-02-21T13:03:31Z</time>
      </trkpt>
      <trkpt lat="43.61707" lon="3.38563">
        <ele>228</ele>
        <time>2016-02-21T13:03:32Z</time>
      </trkpt>
      <trkpt lat="43.61706" lon="3.38558">
        <ele>228</ele>
        <time>2016-02-21T13:03:33Z</time>
      </trkpt>
      <trkpt lat="43.61705" lon="3.38553">
        <ele>228</ele>
        <time>2016-02-21T13:03:34Z</time>
      </trkpt>
      <trkpt lat="43.61705" lon="3.38548">
        <ele>228</ele>
        <time>2016-02-21T13:03:35Z</time>
      </trkpt>
      <trkpt lat="43.61704" lon="3.38544">
        <ele>228.5</ele>
        <time>2016-02-21T13:03:36Z</time>
      </trkpt>
      <trkpt lat="43.61703" lon="3.38539">
        <ele>228</ele>
        <time>2016-02-21T13:03:37Z</time>
      </trkpt>
      <trkpt lat="43.61701" lon="3.38535">
        <ele>228.5</ele>
        <time>2016-02-21T13:03:38Z</time>
      </trkpt>
      <trkpt lat="43.61698" lon="3.38531">
        <ele>228.5</ele>
        <time>2016-02-21T13:03:39Z</time>
      </trkpt>
      <trkpt lat="43.61696" lon="3.38527">
        <ele>228.5</ele>
        <time>2016-02-21T13:03:40Z</time>
      </trkpt>
      <trkpt lat="43.61692" lon="3.38523">
        <ele>231.5</ele>
        <time>2016-02-21T13:03:42Z</time>
      </trkpt>
      <trkpt lat="43.61691" lon="3.38518">
        <ele>231.5</ele>
        <time>2016-02-21T13:03:43Z</time>
      </trkpt>
      <trkpt lat="43.61691" lon="3.38513">
        <ele>232</ele>
        <time>2016-02-21T13:03:44Z</time>
      </trkpt>
      <trkpt lat="43.61691" lon="3.38509">
        <ele>232</ele>
        <time>2016-02-21T13:03:45Z</time>
      </trkpt>
      <trkpt lat="43.61693" lon="3.38505">
        <ele>232.5</ele>
        <time>2016-02-21T13:03:46Z</time>
      </trkpt>
      <trkpt lat="43.61696" lon="3.38502">
        <ele>232.5</ele>
        <time>2016-02-21T13:03:47Z</time>
      </trkpt>
      <trkpt lat="43.61699" lon="3.38499">
        <ele>232.5</ele>
        <time>2016-02-21T13:03:48Z</time>
      </trkpt>
      <trkpt lat="43.61703" lon="3.38497">
        <ele>233.5</ele>
        <time>2016-02-21T13:03:49Z</time>
      </trkpt>
      <trkpt lat="43.61706" lon="3.38495">
        <ele>233.5</ele>
        <time>2016-02-21T13:03:50Z</time>
      </trkpt>
      <trkpt lat="43.61709" lon="3.38493">
        <ele>233.5</ele>
        <time>2016-02-21T13:03:51Z</time>
      </trkpt>
      <trkpt lat="43.61711" lon="3.3849">
        <ele>233</ele>
        <time>2016-02-21T13:03:52Z</time>
      </trkpt>
      <trkpt lat="43.61714" lon="3.38488">
        <ele>233.5</ele>
        <time>2016-02-21T13:03:54Z</time>
      </trkpt>
      <trkpt lat="43.61719" lon="3.38485">
        <ele>235.5</ele>
        <time>2016-02-21T13:03:55Z</time>
      </trkpt>
      <trkpt lat="43.61723" lon="3.3848">
        <ele>235.5</ele>
        <time>2016-02-21T13:03:57Z</time>
      </trkpt>
      <trkpt lat="43.61725" lon="3.38478">
        <ele>235.5</ele>
        <time>2016-02-21T13:03:58Z</time>
      </trkpt>
      <trkpt lat="43.61727" lon="3.38476">
        <ele>235.5</ele>
        <time>2016-02-21T13:04:00Z</time>
      </trkpt>
      <trkpt lat="43.61731" lon="3.38473">
        <ele>236</ele>
        <time>2016-02-21T13:04:01Z</time>
      </trkpt>
      <trkpt lat="43.61733" lon="3.3847">
        <ele>236.5</ele>
        <time>2016-02-21T13:04:03Z</time>
      </trkpt>
      <trkpt lat="43.61736" lon="3.38466">
        <ele>237</ele>
        <time>2016-02-21T13:04:04Z</time>
      </trkpt>
      <trkpt lat="43.61738" lon="3.38462">
        <ele>236.5</ele>
        <time>2016-02-21T13:04:06Z</time>
      </trkpt>
      <trkpt lat="43.6174" lon="3.3846">
        <ele>236</ele>
        <time>2016-02-21T13:04:08Z</time>
      </trkpt>
      <trkpt lat="43.61743" lon="3.38457">
        <ele>236</ele>
        <time>2016-02-21T13:04:09Z</time>
      </trkpt>
      <trkpt lat="43.61747" lon="3.38454">
        <ele>236.5</ele>
        <time>2016-02-21T13:04:11Z</time>
      </trkpt>
      <trkpt lat="43.61749" lon="3.38452">
        <ele>237</ele>
        <time>2016-02-21T13:04:13Z</time>
      </trkpt>
      <trkpt lat="43.61753" lon="3.38449">
        <ele>236.5</ele>
        <time>2016-02-21T13:04:14Z</time>
      </trkpt>
      <trkpt lat="43.61754" lon="3.38448">
        <ele>236</ele>
        <time>2016-02-21T13:04:16Z</time>
      </trkpt>
      <trkpt lat="43.61756" lon="3.38443">
        <ele>235</ele>
        <time>2016-02-21T13:04:17Z</time>
      </trkpt>
      <trkpt lat="43.61756" lon="3.3844">
        <ele>234</ele>
        <time>2016-02-21T13:04:18Z</time>
      </trkpt>
      <trkpt lat="43.61756" lon="3.38438">
        <ele>234</ele>
        <time>2016-02-21T13:04:20Z</time>
      </trkpt>
      <trkpt lat="43.61758" lon="3.38435">
        <ele>235</ele>
        <time>2016-02-21T13:04:21Z</time>
      </trkpt>
      <trkpt lat="43.61758" lon="3.38433">
        <ele>235.5</ele>
        <time>2016-02-21T13:04:23Z</time>
      </trkpt>
      <trkpt lat="43.61758" lon="3.38428">
        <ele>236</ele>
        <time>2016-02-21T13:04:24Z</time>
      </trkpt>
      <trkpt lat="43.61758" lon="3.38426">
        <ele>236</ele>
        <time>2016-02-21T13:04:25Z</time>
      </trkpt>
      <trkpt lat="43.61758" lon="3.38425">
        <ele>236</ele>
        <time>2016-02-21T13:04:27Z</time>
      </trkpt>
      <trkpt lat="43.61759" lon="3.38422">
        <ele>236.5</ele>
        <time>2016-02-21T13:04:28Z</time>
      </trkpt>
      <trkpt lat="43.61759" lon="3.3842">
        <ele>237</ele>
        <time>2016-02-21T13:04:30Z</time>
      </trkpt>
      <trkpt lat="43.6176" lon="3.38416">
        <ele>239.5</ele>
        <time>2016-02-21T13:04:31Z</time>
      </trkpt>
      <trkpt lat="43.61761" lon="3.38412">
        <ele>242.5</ele>
        <time>2016-02-21T13:04:33Z</time>
      </trkpt>
      <trkpt lat="43.61761" lon="3.3841">
        <ele>243.5</ele>
        <time>2016-02-21T13:04:34Z</time>
      </trkpt>
      <trkpt lat="43.61762" lon="3.38405">
        <ele>244.5</ele>
        <time>2016-02-21T13:04:36Z</time>
      </trkpt>
      <trkpt lat="43.61762" lon="3.38403">
        <ele>245</ele>
        <time>2016-02-21T13:04:37Z</time>
      </trkpt>
      <trkpt lat="43.61763" lon="3.38398">
        <ele>245</ele>
        <time>2016-02-21T13:04:39Z</time>
      </trkpt>
      <trkpt lat="43.61764" lon="3.38394">
        <ele>245.5</ele>
        <time>2016-02-21T13:04:41Z</time>
      </trkpt>
      <trkpt lat="43.61765" lon="3.38392">
        <ele>246</ele>
        <time>2016-02-21T13:04:43Z</time>
      </trkpt>
      <trkpt lat="43.61767" lon="3.38387">
        <ele>246.5</ele>
        <time>2016-02-21T13:04:44Z</time>
      </trkpt>
      <trkpt lat="43.61767" lon="3.38385">
        <ele>246.5</ele>
        <time>2016-02-21T13:04:45Z</time>
      </trkpt>
      <trkpt lat="43.61767" lon="3.38382">
        <ele>246</ele>
        <time>2016-02-21T13:04:46Z</time>
      </trkpt>
      <trkpt lat="43.61768" lon="3.3838">
        <ele>247</ele>
        <time>2016-02-21T13:04:47Z</time>
      </trkpt>
      <trkpt lat="43.61769" lon="3.38378">
        <ele>247</ele>
        <time>2016-02-21T13:04:48Z</time>
      </trkpt>
      <trkpt lat="43.6177" lon="3.38376">
        <ele>245.5</ele>
        <time>2016-02-21T13:04:49Z</time>
      </trkpt>
      <trkpt lat="43.61771" lon="3.38372">
        <ele>246.5</ele>
        <time>2016-02-21T13:04:51Z</time>
      </trkpt>
      <trkpt lat="43.61771" lon="3.38368">
        <ele>246</ele>
        <time>2016-02-21T13:04:53Z</time>
      </trkpt>
      <trkpt lat="43.61773" lon="3.38365">
        <ele>246</ele>
        <time>2016-02-21T13:04:55Z</time>
      </trkpt>
      <trkpt lat="43.61774" lon="3.38362">
        <ele>246</ele>
        <time>2016-02-21T13:04:56Z</time>
      </trkpt>
      <trkpt lat="43.61776" lon="3.38361">
        <ele>246</ele>
        <time>2016-02-21T13:04:57Z</time>
      </trkpt>
      <trkpt lat="43.61778" lon="3.38357">
        <ele>247</ele>
        <time>2016-02-21T13:04:59Z</time>
      </trkpt>
      <trkpt lat="43.61781" lon="3.38354">
        <ele>248.5</ele>
        <time>2016-02-21T13:05:01Z</time>
      </trkpt>
      <trkpt lat="43.61782" lon="3.38352">
        <ele>249</ele>
        <time>2016-02-21T13:05:02Z</time>
      </trkpt>
      <trkpt lat="43.61784" lon="3.38348">
        <ele>250</ele>
        <time>2016-02-21T13:05:04Z</time>
      </trkpt>
      <trkpt lat="43.61786" lon="3.38345">
        <ele>250</ele>
        <time>2016-02-21T13:05:06Z</time>
      </trkpt>
      <trkpt lat="43.61787" lon="3.38343">
        <ele>250.5</ele>
        <time>2016-02-21T13:05:07Z</time>
      </trkpt>
      <trkpt lat="43.61788" lon="3.38341">
        <ele>249.5</ele>
        <time>2016-02-21T13:05:08Z</time>
      </trkpt>
      <trkpt lat="43.61789" lon="3.38339">
        <ele>249</ele>
        <time>2016-02-21T13:05:09Z</time>
      </trkpt>
      <trkpt lat="43.61792" lon="3.38336">
        <ele>248.5</ele>
        <time>2016-02-21T13:05:11Z</time>
      </trkpt>
      <trkpt lat="43.61793" lon="3.38334">
        <ele>248.5</ele>
        <time>2016-02-21T13:05:12Z</time>
      </trkpt>
      <trkpt lat="43.61796" lon="3.38332">
        <ele>249.5</ele>
        <time>2016-02-21T13:05:14Z</time>
      </trkpt>
      <trkpt lat="43.61797" lon="3.38331">
        <ele>249.5</ele>
        <time>2016-02-21T13:05:15Z</time>
      </trkpt>
      <trkpt lat="43.61798" lon="3.38331">
        <ele>249</ele>
        <time>2016-02-21T13:05:16Z</time>
      </trkpt>
      <trkpt lat="43.61801" lon="3.3833">
        <ele>250</ele>
        <time>2016-02-21T13:05:18Z</time>
      </trkpt>
      <trkpt lat="43.61803" lon="3.38329">
        <ele>250</ele>
        <time>2016-02-21T13:05:19Z</time>
      </trkpt>
      <trkpt lat="43.61807" lon="3.3833">
        <ele>250</ele>
        <time>2016-02-21T13:05:21Z</time>
      </trkpt>
      <trkpt lat="43.61811" lon="3.38332">
        <ele>250</ele>
        <time>2016-02-21T13:05:23Z</time>
      </trkpt>
      <trkpt lat="43.61816" lon="3.38333">
        <ele>250</ele>
        <time>2016-02-21T13:05:25Z</time>
      </trkpt>
      <trkpt lat="43.61821" lon="3.38332">
        <ele>251</ele>
        <time>2016-02-21T13:05:27Z</time>
      </trkpt>
      <trkpt lat="43.61823" lon="3.38331">
        <ele>251.5</ele>
        <time>2016-02-21T13:05:28Z</time>
      </trkpt>
      <trkpt lat="43.61825" lon="3.3833">
        <ele>251.5</ele>
        <time>2016-02-21T13:05:29Z</time>
      </trkpt>
      <trkpt lat="43.61826" lon="3.38329">
        <ele>251.5</ele>
        <time>2016-02-21T13:05:30Z</time>
      </trkpt>
      <trkpt lat="43.61828" lon="3.38328">
        <ele>251.5</ele>
        <time>2016-02-21T13:05:31Z</time>
      </trkpt>
      <trkpt lat="43.61831" lon="3.38326">
        <ele>251</ele>
        <time>2016-02-21T13:05:33Z</time>
      </trkpt>
      <trkpt lat="43.61832" lon="3.38324">
        <ele>251</ele>
        <time>2016-02-21T13:05:34Z</time>
      </trkpt>
      <trkpt lat="43.61835" lon="3.3832">
        <ele>250.5</ele>
        <time>2016-02-21T13:05:36Z</time>
      </trkpt>
      <trkpt lat="43.61836" lon="3.38318">
        <ele>251</ele>
        <time>2016-02-21T13:05:37Z</time>
      </trkpt>
      <trkpt lat="43.61838" lon="3.38316">
        <ele>251</ele>
        <time>2016-02-21T13:05:38Z</time>
      </trkpt>
      <trkpt lat="43.61839" lon="3.38315">
        <ele>251</ele>
        <time>2016-02-21T13:05:39Z</time>
      </trkpt>
      <trkpt lat="43.6184" lon="3.38313">
        <ele>251</ele>
        <time>2016-02-21T13:05:40Z</time>
      </trkpt>
      <trkpt lat="43.61842" lon="3.38311">
        <ele>251</ele>
        <time>2016-02-21T13:05:41Z</time>
      </trkpt>
      <trkpt lat="43.61844" lon="3.38309">
        <ele>250.5</ele>
        <time>2016-02-21T13:05:42Z</time>
      </trkpt>
      <trkpt lat="43.61847" lon="3.38306">
        <ele>250.5</ele>
        <time>2016-02-21T13:05:44Z</time>
      </trkpt>
      <trkpt lat="43.61851" lon="3.38302">
        <ele>250.5</ele>
        <time>2016-02-21T13:05:46Z</time>
      </trkpt>
      <trkpt lat="43.61852" lon="3.383">
        <ele>250.5</ele>
        <time>2016-02-21T13:05:47Z</time>
      </trkpt>
      <trkpt lat="43.61854" lon="3.38297">
        <ele>250</ele>
        <time>2016-02-21T13:05:48Z</time>
      </trkpt>
      <trkpt lat="43.61856" lon="3.38295">
        <ele>250.5</ele>
        <time>2016-02-21T13:05:49Z</time>
      </trkpt>
      <trkpt lat="43.61862" lon="3.38289">
        <ele>250</ele>
        <time>2016-02-21T13:05:51Z</time>
      </trkpt>
      <trkpt lat="43.61867" lon="3.38282">
        <ele>248.5</ele>
        <time>2016-02-21T13:05:53Z</time>
      </trkpt>
      <trkpt lat="43.61873" lon="3.38276">
        <ele>249</ele>
        <time>2016-02-21T13:05:55Z</time>
      </trkpt>
      <trkpt lat="43.61879" lon="3.38271">
        <ele>249</ele>
        <time>2016-02-21T13:05:57Z</time>
      </trkpt>
      <trkpt lat="43.61882" lon="3.38269">
        <ele>249.5</ele>
        <time>2016-02-21T13:05:58Z</time>
      </trkpt>
      <trkpt lat="43.61887" lon="3.38264">
        <ele>250</ele>
        <time>2016-02-21T13:06:00Z</time>
      </trkpt>
      <trkpt lat="43.61892" lon="3.3826">
        <ele>251.5</ele>
        <time>2016-02-21T13:06:02Z</time>
      </trkpt>
      <trkpt lat="43.61896" lon="3.38257">
        <ele>252</ele>
        <time>2016-02-21T13:06:04Z</time>
      </trkpt>
      <trkpt lat="43.61899" lon="3.38253">
        <ele>252.5</ele>
        <time>2016-02-21T13:06:06Z</time>
      </trkpt>
      <trkpt lat="43.61899" lon="3.38251">
        <ele>252.5</ele>
        <time>2016-02-21T13:06:07Z</time>
      </trkpt>
      <trkpt lat="43.619" lon="3.38249">
        <ele>252.5</ele>
        <time>2016-02-21T13:06:08Z</time>
      </trkpt>
      <trkpt lat="43.61903" lon="3.38246">
        <ele>252.5</ele>
        <time>2016-02-21T13:06:10Z</time>
      </trkpt>
      <trkpt lat="43.61907" lon="3.38244">
        <ele>253.5</ele>
        <time>2016-02-21T13:06:12Z</time>
      </trkpt>
      <trkpt lat="43.61908" lon="3.38243">
        <ele>254.5</ele>
        <time>2016-02-21T13:06:13Z</time>
      </trkpt>
      <trkpt lat="43.61912" lon="3.38241">
        <ele>255.5</ele>
        <time>2016-02-21T13:06:15Z</time>
      </trkpt>
      <trkpt lat="43.61914" lon="3.38239">
        <ele>255.5</ele>
        <time>2016-02-21T13:06:16Z</time>
      </trkpt>
      <trkpt lat="43.61917" lon="3.38237">
        <ele>256</ele>
        <time>2016-02-21T13:06:18Z</time>
      </trkpt>
      <trkpt lat="43.6192" lon="3.38234">
        <ele>257</ele>
        <time>2016-02-21T13:06:20Z</time>
      </trkpt>
      <trkpt lat="43.61922" lon="3.38233">
        <ele>257</ele>
        <time>2016-02-21T13:06:21Z</time>
      </trkpt>
      <trkpt lat="43.61924" lon="3.38231">
        <ele>257.5</ele>
        <time>2016-02-21T13:06:22Z</time>
      </trkpt>
      <trkpt lat="43.61925" lon="3.3823">
        <ele>257.5</ele>
        <time>2016-02-21T13:06:23Z</time>
      </trkpt>
      <trkpt lat="43.6193" lon="3.38226">
        <ele>258</ele>
        <time>2016-02-21T13:06:25Z</time>
      </trkpt>
      <trkpt lat="43.61933" lon="3.38224">
        <ele>258</ele>
        <time>2016-02-21T13:06:26Z</time>
      </trkpt>
      <trkpt lat="43.61939" lon="3.38217">
        <ele>257.5</ele>
        <time>2016-02-21T13:06:28Z</time>
      </trkpt>
      <trkpt lat="43.61946" lon="3.38211">
        <ele>256.5</ele>
        <time>2016-02-21T13:06:30Z</time>
      </trkpt>
      <trkpt lat="43.6195" lon="3.38207">
        <ele>255.5</ele>
        <time>2016-02-21T13:06:31Z</time>
      </trkpt>
      <trkpt lat="43.61959" lon="3.38198">
        <ele>254</ele>
        <time>2016-02-21T13:06:33Z</time>
      </trkpt>
      <trkpt lat="43.61969" lon="3.3819">
        <ele>256</ele>
        <time>2016-02-21T13:06:35Z</time>
      </trkpt>
      <trkpt lat="43.61974" lon="3.38188">
        <ele>257.5</ele>
        <time>2016-02-21T13:06:36Z</time>
      </trkpt>
      <trkpt lat="43.61979" lon="3.38187">
        <ele>257.5</ele>
        <time>2016-02-21T13:06:37Z</time>
      </trkpt>
      <trkpt lat="43.61985" lon="3.38182">
        <ele>258.5</ele>
        <time>2016-02-21T13:06:39Z</time>
      </trkpt>
      <trkpt lat="43.61991" lon="3.38177">
        <ele>259.5</ele>
        <time>2016-02-21T13:06:41Z</time>
      </trkpt>
      <trkpt lat="43.61996" lon="3.38173">
        <ele>259.5</ele>
        <time>2016-02-21T13:06:43Z</time>
      </trkpt>
      <trkpt lat="43.61998" lon="3.38171">
        <ele>259</ele>
        <time>2016-02-21T13:06:44Z</time>
      </trkpt>
      <trkpt lat="43.62001" lon="3.38167">
        <ele>259.5</ele>
        <time>2016-02-21T13:06:46Z</time>
      </trkpt>
      <trkpt lat="43.62005" lon="3.38164">
        <ele>260.5</ele>
        <time>2016-02-21T13:06:48Z</time>
      </trkpt>
      <trkpt lat="43.62007" lon="3.38162">
        <ele>260.5</ele>
        <time>2016-02-21T13:06:48Z</time>
      </trkpt>
      <trkpt lat="43.62008" lon="3.3816">
        <ele>260.5</ele>
        <time>2016-02-21T13:06:49Z</time>
      </trkpt>
      <trkpt lat="43.6201" lon="3.38159">
        <ele>261.5</ele>
        <time>2016-02-21T13:06:51Z</time>
      </trkpt>
      <trkpt lat="43.62012" lon="3.38155">
        <ele>260</ele>
        <time>2016-02-21T13:06:53Z</time>
      </trkpt>
      <trkpt lat="43.62015" lon="3.38151">
        <ele>260</ele>
        <time>2016-02-21T13:06:54Z</time>
      </trkpt>
      <trkpt lat="43.62017" lon="3.38149">
        <ele>260.5</ele>
        <time>2016-02-21T13:06:56Z</time>
      </trkpt>
      <trkpt lat="43.62021" lon="3.38144">
        <ele>261.5</ele>
        <time>2016-02-21T13:06:58Z</time>
      </trkpt>
      <trkpt lat="43.62025" lon="3.3814">
        <ele>261</ele>
        <time>2016-02-21T13:06:59Z</time>
      </trkpt>
      <trkpt lat="43.62029" lon="3.38136">
        <ele>261.5</ele>
        <time>2016-02-21T13:07:01Z</time>
      </trkpt>
      <trkpt lat="43.62031" lon="3.38134">
        <ele>262</ele>
        <time>2016-02-21T13:07:02Z</time>
      </trkpt>
      <trkpt lat="43.62033" lon="3.38131">
        <ele>262</ele>
        <time>2016-02-21T13:07:03Z</time>
      </trkpt>
      <trkpt lat="43.62033" lon="3.38128">
        <ele>261</ele>
        <time>2016-02-21T13:07:04Z</time>
      </trkpt>
      <trkpt lat="43.62035" lon="3.38126">
        <ele>261</ele>
        <time>2016-02-21T13:07:05Z</time>
      </trkpt>
      <trkpt lat="43.62037" lon="3.38124">
        <ele>261</ele>
        <time>2016-02-21T13:07:07Z</time>
      </trkpt>
      <trkpt lat="43.62041" lon="3.38119">
        <ele>261.5</ele>
        <time>2016-02-21T13:07:08Z</time>
      </trkpt>
      <trkpt lat="43.62044" lon="3.38113">
        <ele>262</ele>
        <time>2016-02-21T13:07:10Z</time>
      </trkpt>
      <trkpt lat="43.62045" lon="3.3811">
        <ele>262</ele>
        <time>2016-02-21T13:07:12Z</time>
      </trkpt>
      <trkpt lat="43.62047" lon="3.38105">
        <ele>263</ele>
        <time>2016-02-21T13:07:13Z</time>
      </trkpt>
      <trkpt lat="43.62047" lon="3.38103">
        <ele>263</ele>
        <time>2016-02-21T13:07:14Z</time>
      </trkpt>
      <trkpt lat="43.62048" lon="3.381">
        <ele>263</ele>
        <time>2016-02-21T13:07:15Z</time>
      </trkpt>
      <trkpt lat="43.62047" lon="3.38097">
        <ele>263</ele>
        <time>2016-02-21T13:07:16Z</time>
      </trkpt>
      <trkpt lat="43.62047" lon="3.38094">
        <ele>263.5</ele>
        <time>2016-02-21T13:07:17Z</time>
      </trkpt>
      <trkpt lat="43.62047" lon="3.38092">
        <ele>263.5</ele>
        <time>2016-02-21T13:07:18Z</time>
      </trkpt>
      <trkpt lat="43.62047" lon="3.38089">
        <ele>263.5</ele>
        <time>2016-02-21T13:07:20Z</time>
      </trkpt>
      <trkpt lat="43.62046" lon="3.38083">
        <ele>264</ele>
        <time>2016-02-21T13:07:21Z</time>
      </trkpt>
      <trkpt lat="43.62045" lon="3.3808">
        <ele>264</ele>
        <time>2016-02-21T13:07:22Z</time>
      </trkpt>
      <trkpt lat="43.62044" lon="3.38077">
        <ele>264</ele>
        <time>2016-02-21T13:07:23Z</time>
      </trkpt>
      <trkpt lat="43.62044" lon="3.38073">
        <ele>264</ele>
        <time>2016-02-21T13:07:24Z</time>
      </trkpt>
      <trkpt lat="43.62037" lon="3.38065">
        <ele>266</ele>
        <time>2016-02-21T13:07:26Z</time>
      </trkpt>
      <trkpt lat="43.62035" lon="3.38059">
        <ele>266</ele>
        <time>2016-02-21T13:07:28Z</time>
      </trkpt>
      <trkpt lat="43.62032" lon="3.38047">
        <ele>266.5</ele>
        <time>2016-02-21T13:07:30Z</time>
      </trkpt>
      <trkpt lat="43.6203" lon="3.38035">
        <ele>268</ele>
        <time>2016-02-21T13:07:31Z</time>
      </trkpt>
      <trkpt lat="43.6203" lon="3.38028">
        <ele>268</ele>
        <time>2016-02-21T13:07:33Z</time>
      </trkpt>
      <trkpt lat="43.62029" lon="3.38017">
        <ele>268.5</ele>
        <time>2016-02-21T13:07:34Z</time>
      </trkpt>
      <trkpt lat="43.62025" lon="3.38007">
        <ele>269</ele>
        <time>2016-02-21T13:07:36Z</time>
      </trkpt>
      <trkpt lat="43.62024" lon="3.38002">
        <ele>269</ele>
        <time>2016-02-21T13:07:37Z</time>
      </trkpt>
      <trkpt lat="43.62022" lon="3.37999">
        <ele>270</ele>
        <time>2016-02-21T13:07:38Z</time>
      </trkpt>
      <trkpt lat="43.62021" lon="3.37994">
        <ele>270</ele>
        <time>2016-02-21T13:07:39Z</time>
      </trkpt>
      <trkpt lat="43.6202" lon="3.3799">
        <ele>270</ele>
        <time>2016-02-21T13:07:40Z</time>
      </trkpt>
      <trkpt lat="43.62018" lon="3.37985">
        <ele>270.5</ele>
        <time>2016-02-21T13:07:41Z</time>
      </trkpt>
      <trkpt lat="43.62017" lon="3.37981">
        <ele>270.5</ele>
        <time>2016-02-21T13:07:42Z</time>
      </trkpt>
      <trkpt lat="43.62016" lon="3.37977">
        <ele>270.5</ele>
        <time>2016-02-21T13:07:43Z</time>
      </trkpt>
      <trkpt lat="43.62015" lon="3.37973">
        <ele>270.5</ele>
        <time>2016-02-21T13:07:45Z</time>
      </trkpt>
      <trkpt lat="43.62013" lon="3.37966">
        <ele>271.5</ele>
        <time>2016-02-21T13:07:46Z</time>
      </trkpt>
      <trkpt lat="43.62011" lon="3.37958">
        <ele>271</ele>
        <time>2016-02-21T13:07:48Z</time>
      </trkpt>
      <trkpt lat="43.6201" lon="3.37955">
        <ele>272.5</ele>
        <time>2016-02-21T13:07:50Z</time>
      </trkpt>
      <trkpt lat="43.62007" lon="3.37948">
        <ele>274</ele>
        <time>2016-02-21T13:07:51Z</time>
      </trkpt>
      <trkpt lat="43.62006" lon="3.37939">
        <ele>274.5</ele>
        <time>2016-02-21T13:07:53Z</time>
      </trkpt>
      <trkpt lat="43.62005" lon="3.37935">
        <ele>275</ele>
        <time>2016-02-21T13:07:55Z</time>
      </trkpt>
      <trkpt lat="43.62003" lon="3.37924">
        <ele>275</ele>
        <time>2016-02-21T13:07:56Z</time>
      </trkpt>
      <trkpt lat="43.62001" lon="3.37914">
        <ele>275.5</ele>
        <time>2016-02-21T13:07:58Z</time>
      </trkpt>
      <trkpt lat="43.62" lon="3.37909">
        <ele>274</ele>
        <time>2016-02-21T13:08:00Z</time>
      </trkpt>
      <trkpt lat="43.61998" lon="3.379">
        <ele>274</ele>
        <time>2016-02-21T13:08:01Z</time>
      </trkpt>
      <trkpt lat="43.61997" lon="3.37892">
        <ele>275.5</ele>
        <time>2016-02-21T13:08:03Z</time>
      </trkpt>
      <trkpt lat="43.61997" lon="3.37888">
        <ele>276</ele>
        <time>2016-02-21T13:08:05Z</time>
      </trkpt>
      <trkpt lat="43.61996" lon="3.37879">
        <ele>276.5</ele>
        <time>2016-02-21T13:08:06Z</time>
      </trkpt>
      <trkpt lat="43.61996" lon="3.37875">
        <ele>277</ele>
        <time>2016-02-21T13:08:07Z</time>
      </trkpt>
      <trkpt lat="43.61997" lon="3.37871">
        <ele>277.5</ele>
        <time>2016-02-21T13:08:09Z</time>
      </trkpt>
      <trkpt lat="43.61996" lon="3.37863">
        <ele>277.5</ele>
        <time>2016-02-21T13:08:10Z</time>
      </trkpt>
      <trkpt lat="43.61994" lon="3.37855">
        <ele>278</ele>
        <time>2016-02-21T13:08:12Z</time>
      </trkpt>
      <trkpt lat="43.61993" lon="3.37847">
        <ele>278</ele>
        <time>2016-02-21T13:08:14Z</time>
      </trkpt>
      <trkpt lat="43.61992" lon="3.37843">
        <ele>278</ele>
        <time>2016-02-21T13:08:15Z</time>
      </trkpt>
      <trkpt lat="43.61991" lon="3.37839">
        <ele>278</ele>
        <time>2016-02-21T13:08:16Z</time>
      </trkpt>
      <trkpt lat="43.6199" lon="3.37836">
        <ele>278</ele>
        <time>2016-02-21T13:08:17Z</time>
      </trkpt>
      <trkpt lat="43.61989" lon="3.37833">
        <ele>278</ele>
        <time>2016-02-21T13:08:18Z</time>
      </trkpt>
      <trkpt lat="43.61988" lon="3.37831">
        <ele>278</ele>
        <time>2016-02-21T13:08:20Z</time>
      </trkpt>
      <trkpt lat="43.61986" lon="3.37824">
        <ele>278</ele>
        <time>2016-02-21T13:08:21Z</time>
      </trkpt>
      <trkpt lat="43.61983" lon="3.37818">
        <ele>278.5</ele>
        <time>2016-02-21T13:08:23Z</time>
      </trkpt>
      <trkpt lat="43.61982" lon="3.37815">
        <ele>278</ele>
        <time>2016-02-21T13:08:25Z</time>
      </trkpt>
      <trkpt lat="43.6198" lon="3.3781">
        <ele>283</ele>
        <time>2016-02-21T13:08:26Z</time>
      </trkpt>
      <trkpt lat="43.6198" lon="3.37812">
        <ele>285.5</ele>
        <time>2016-02-21T13:08:28Z</time>
      </trkpt>
      <trkpt lat="43.61979" lon="3.37809">
        <ele>290.5</ele>
        <time>2016-02-21T13:08:29Z</time>
      </trkpt>
      <trkpt lat="43.61977" lon="3.37806">
        <ele>292.5</ele>
        <time>2016-02-21T13:08:31Z</time>
      </trkpt>
      <trkpt lat="43.61977" lon="3.37804">
        <ele>293</ele>
        <time>2016-02-21T13:08:32Z</time>
      </trkpt>
      <trkpt lat="43.61976" lon="3.37802">
        <ele>293.5</ele>
        <time>2016-02-21T13:08:33Z</time>
      </trkpt>
      <trkpt lat="43.61975" lon="3.378">
        <ele>294</ele>
        <time>2016-02-21T13:08:34Z</time>
      </trkpt>
      <trkpt lat="43.61975" lon="3.37797">
        <ele>293.5</ele>
        <time>2016-02-21T13:08:35Z</time>
      </trkpt>
      <trkpt lat="43.61974" lon="3.37794">
        <ele>293.5</ele>
        <time>2016-02-21T13:08:36Z</time>
      </trkpt>
      <trkpt lat="43.61973" lon="3.37791">
        <ele>293.5</ele>
        <time>2016-02-21T13:08:37Z</time>
      </trkpt>
      <trkpt lat="43.61972" lon="3.37787">
        <ele>293.5</ele>
        <time>2016-02-21T13:08:39Z</time>
      </trkpt>
      <trkpt lat="43.61968" lon="3.37776">
        <ele>293</ele>
        <time>2016-02-21T13:08:40Z</time>
      </trkpt>
      <trkpt lat="43.61966" lon="3.3777">
        <ele>292.5</ele>
        <time>2016-02-21T13:08:42Z</time>
      </trkpt>
      <trkpt lat="43.61959" lon="3.37759">
        <ele>291.5</ele>
        <time>2016-02-21T13:08:43Z</time>
      </trkpt>
      <trkpt lat="43.61951" lon="3.37751">
        <ele>289</ele>
        <time>2016-02-21T13:08:45Z</time>
      </trkpt>
      <trkpt lat="43.61948" lon="3.37747">
        <ele>288</ele>
        <time>2016-02-21T13:08:46Z</time>
      </trkpt>
      <trkpt lat="43.61944" lon="3.37743">
        <ele>286</ele>
        <time>2016-02-21T13:08:47Z</time>
      </trkpt>
      <trkpt lat="43.61941" lon="3.37739">
        <ele>285.5</ele>
        <time>2016-02-21T13:08:48Z</time>
      </trkpt>
      <trkpt lat="43.61937" lon="3.37735">
        <ele>285</ele>
        <time>2016-02-21T13:08:49Z</time>
      </trkpt>
      <trkpt lat="43.61932" lon="3.37733">
        <ele>285</ele>
        <time>2016-02-21T13:08:50Z</time>
      </trkpt>
      <trkpt lat="43.61928" lon="3.3773">
        <ele>285</ele>
        <time>2016-02-21T13:08:51Z</time>
      </trkpt>
      <trkpt lat="43.61923" lon="3.37727">
        <ele>285</ele>
        <time>2016-02-21T13:08:52Z</time>
      </trkpt>
      <trkpt lat="43.61919" lon="3.37723">
        <ele>284.5</ele>
        <time>2016-02-21T13:08:53Z</time>
      </trkpt>
      <trkpt lat="43.61914" lon="3.37722">
        <ele>284</ele>
        <time>2016-02-21T13:08:54Z</time>
      </trkpt>
      <trkpt lat="43.6191" lon="3.37718">
        <ele>284</ele>
        <time>2016-02-21T13:08:56Z</time>
      </trkpt>
      <trkpt lat="43.61903" lon="3.37711">
        <ele>283.5</ele>
        <time>2016-02-21T13:08:57Z</time>
      </trkpt>
      <trkpt lat="43.61899" lon="3.37707">
        <ele>283.5</ele>
        <time>2016-02-21T13:08:58Z</time>
      </trkpt>
      <trkpt lat="43.61896" lon="3.37704">
        <ele>284</ele>
        <time>2016-02-21T13:08:59Z</time>
      </trkpt>
      <trkpt lat="43.61893" lon="3.37701">
        <ele>284</ele>
        <time>2016-02-21T13:09:00Z</time>
      </trkpt>
      <trkpt lat="43.6189" lon="3.37698">
        <ele>284</ele>
        <time>2016-02-21T13:09:01Z</time>
      </trkpt>
      <trkpt lat="43.61887" lon="3.37694">
        <ele>284</ele>
        <time>2016-02-21T13:09:02Z</time>
      </trkpt>
      <trkpt lat="43.61884" lon="3.37691">
        <ele>284</ele>
        <time>2016-02-21T13:09:03Z</time>
      </trkpt>
      <trkpt lat="43.61882" lon="3.37688">
        <ele>284</ele>
        <time>2016-02-21T13:09:04Z</time>
      </trkpt>
      <trkpt lat="43.61879" lon="3.37684">
        <ele>284</ele>
        <time>2016-02-21T13:09:05Z</time>
      </trkpt>
      <trkpt lat="43.61877" lon="3.3768">
        <ele>284</ele>
        <time>2016-02-21T13:09:06Z</time>
      </trkpt>
      <trkpt lat="43.61875" lon="3.37675">
        <ele>284</ele>
        <time>2016-02-21T13:09:07Z</time>
      </trkpt>
      <trkpt lat="43.61873" lon="3.37671">
        <ele>283.5</ele>
        <time>2016-02-21T13:09:08Z</time>
      </trkpt>
      <trkpt lat="43.61872" lon="3.37664">
        <ele>283.5</ele>
        <time>2016-02-21T13:09:09Z</time>
      </trkpt>
      <trkpt lat="43.61871" lon="3.37656">
        <ele>283.5</ele>
        <time>2016-02-21T13:09:10Z</time>
      </trkpt>
      <trkpt lat="43.61872" lon="3.37649">
        <ele>283.5</ele>
        <time>2016-02-21T13:09:11Z</time>
      </trkpt>
      <trkpt lat="43.61872" lon="3.37641">
        <ele>283</ele>
        <time>2016-02-21T13:09:12Z</time>
      </trkpt>
      <trkpt lat="43.61872" lon="3.37632">
        <ele>283</ele>
        <time>2016-02-21T13:09:13Z</time>
      </trkpt>
      <trkpt lat="43.61872" lon="3.37622">
        <ele>282.5</ele>
        <time>2016-02-21T13:09:14Z</time>
      </trkpt>
      <trkpt lat="43.61871" lon="3.37613">
        <ele>282.5</ele>
        <time>2016-02-21T13:09:15Z</time>
      </trkpt>
      <trkpt lat="43.6187" lon="3.37604">
        <ele>282</ele>
        <time>2016-02-21T13:09:16Z</time>
      </trkpt>
      <trkpt lat="43.6187" lon="3.37594">
        <ele>283</ele>
        <time>2016-02-21T13:09:17Z</time>
      </trkpt>
      <trkpt lat="43.61866" lon="3.37573">
        <ele>281</ele>
        <time>2016-02-21T13:09:19Z</time>
      </trkpt>
      <trkpt lat="43.61855" lon="3.37559">
        <ele>281</ele>
        <time>2016-02-21T13:09:21Z</time>
      </trkpt>
      <trkpt lat="43.61849" lon="3.37552">
        <ele>280.5</ele>
        <time>2016-02-21T13:09:23Z</time>
      </trkpt>
      <trkpt lat="43.61836" lon="3.37539">
        <ele>280</ele>
        <time>2016-02-21T13:09:24Z</time>
      </trkpt>
      <trkpt lat="43.61829" lon="3.37534">
        <ele>280</ele>
        <time>2016-02-21T13:09:26Z</time>
      </trkpt>
      <trkpt lat="43.61819" lon="3.3752">
        <ele>279.5</ele>
        <time>2016-02-21T13:09:27Z</time>
      </trkpt>
      <trkpt lat="43.61808" lon="3.37504">
        <ele>279.5</ele>
        <time>2016-02-21T13:09:29Z</time>
      </trkpt>
      <trkpt lat="43.61803" lon="3.37495">
        <ele>279</ele>
        <time>2016-02-21T13:09:30Z</time>
      </trkpt>
      <trkpt lat="43.61799" lon="3.37485">
        <ele>278.5</ele>
        <time>2016-02-21T13:09:31Z</time>
      </trkpt>
      <trkpt lat="43.61794" lon="3.37476">
        <ele>278.5</ele>
        <time>2016-02-21T13:09:32Z</time>
      </trkpt>
      <trkpt lat="43.6179" lon="3.37467">
        <ele>279</ele>
        <time>2016-02-21T13:09:33Z</time>
      </trkpt>
      <trkpt lat="43.61785" lon="3.37457">
        <ele>278</ele>
        <time>2016-02-21T13:09:34Z</time>
      </trkpt>
      <trkpt lat="43.61781" lon="3.37447">
        <ele>277.5</ele>
        <time>2016-02-21T13:09:35Z</time>
      </trkpt>
      <trkpt lat="43.61777" lon="3.37437">
        <ele>276.5</ele>
        <time>2016-02-21T13:09:36Z</time>
      </trkpt>
      <trkpt lat="43.61774" lon="3.37426">
        <ele>276.5</ele>
        <time>2016-02-21T13:09:37Z</time>
      </trkpt>
      <trkpt lat="43.61772" lon="3.37415">
        <ele>276</ele>
        <time>2016-02-21T13:09:38Z</time>
      </trkpt>
      <trkpt lat="43.61774" lon="3.37388">
        <ele>276</ele>
        <time>2016-02-21T13:09:40Z</time>
      </trkpt>
      <trkpt lat="43.61775" lon="3.37376">
        <ele>276</ele>
        <time>2016-02-21T13:09:41Z</time>
      </trkpt>
      <trkpt lat="43.61776" lon="3.37363">
        <ele>276</ele>
        <time>2016-02-21T13:09:42Z</time>
      </trkpt>
      <trkpt lat="43.61775" lon="3.3735">
        <ele>275.5</ele>
        <time>2016-02-21T13:09:43Z</time>
      </trkpt>
      <trkpt lat="43.61775" lon="3.37336">
        <ele>275.5</ele>
        <time>2016-02-21T13:09:44Z</time>
      </trkpt>
      <trkpt lat="43.61771" lon="3.37322">
        <ele>275.5</ele>
        <time>2016-02-21T13:09:45Z</time>
      </trkpt>
      <trkpt lat="43.61765" lon="3.37292">
        <ele>275</ele>
        <time>2016-02-21T13:09:47Z</time>
      </trkpt>
      <trkpt lat="43.61758" lon="3.37265">
        <ele>275</ele>
        <time>2016-02-21T13:09:49Z</time>
      </trkpt>
      <trkpt lat="43.61756" lon="3.37252">
        <ele>275</ele>
        <time>2016-02-21T13:09:50Z</time>
      </trkpt>
      <trkpt lat="43.61754" lon="3.37239">
        <ele>274.5</ele>
        <time>2016-02-21T13:09:51Z</time>
      </trkpt>
      <trkpt lat="43.61753" lon="3.37227">
        <ele>274</ele>
        <time>2016-02-21T13:09:52Z</time>
      </trkpt>
      <trkpt lat="43.6175" lon="3.37217">
        <ele>274</ele>
        <time>2016-02-21T13:09:53Z</time>
      </trkpt>
      <trkpt lat="43.61747" lon="3.37206">
        <ele>272.5</ele>
        <time>2016-02-21T13:09:54Z</time>
      </trkpt>
      <trkpt lat="43.61743" lon="3.37196">
        <ele>272</ele>
        <time>2016-02-21T13:09:55Z</time>
      </trkpt>
      <trkpt lat="43.61739" lon="3.37188">
        <ele>272</ele>
        <time>2016-02-21T13:09:56Z</time>
      </trkpt>
      <trkpt lat="43.61736" lon="3.37177">
        <ele>270</ele>
        <time>2016-02-21T13:09:57Z</time>
      </trkpt>
      <trkpt lat="43.61734" lon="3.37166">
        <ele>270</ele>
        <time>2016-02-21T13:09:58Z</time>
      </trkpt>
      <trkpt lat="43.61731" lon="3.37141">
        <ele>270</ele>
        <time>2016-02-21T13:10:00Z</time>
      </trkpt>
      <trkpt lat="43.6173" lon="3.37128">
        <ele>272.5</ele>
        <time>2016-02-21T13:10:01Z</time>
      </trkpt>
      <trkpt lat="43.61728" lon="3.37113">
        <ele>272</ele>
        <time>2016-02-21T13:10:02Z</time>
      </trkpt>
      <trkpt lat="43.61721" lon="3.37083">
        <ele>272</ele>
        <time>2016-02-21T13:10:04Z</time>
      </trkpt>
      <trkpt lat="43.61715" lon="3.37048">
        <ele>270</ele>
        <time>2016-02-21T13:10:06Z</time>
      </trkpt>
      <trkpt lat="43.61713" lon="3.37031">
        <ele>271</ele>
        <time>2016-02-21T13:10:07Z</time>
      </trkpt>
      <trkpt lat="43.61711" lon="3.37013">
        <ele>270.5</ele>
        <time>2016-02-21T13:10:08Z</time>
      </trkpt>
      <trkpt lat="43.61708" lon="3.36996">
        <ele>269.5</ele>
        <time>2016-02-21T13:10:09Z</time>
      </trkpt>
      <trkpt lat="43.61706" lon="3.3698">
        <ele>268</ele>
        <time>2016-02-21T13:10:10Z</time>
      </trkpt>
      <trkpt lat="43.61703" lon="3.36964">
        <ele>267.5</ele>
        <time>2016-02-21T13:10:11Z</time>
      </trkpt>
      <trkpt lat="43.61701" lon="3.36948">
        <ele>266.5</ele>
        <time>2016-02-21T13:10:12Z</time>
      </trkpt>
      <trkpt lat="43.61699" lon="3.36933">
        <ele>265.5</ele>
        <time>2016-02-21T13:10:13Z</time>
      </trkpt>
      <trkpt lat="43.61696" lon="3.36918">
        <ele>263.5</ele>
        <time>2016-02-21T13:10:14Z</time>
      </trkpt>
      <trkpt lat="43.61691" lon="3.3689">
        <ele>264</ele>
        <time>2016-02-21T13:10:16Z</time>
      </trkpt>
      <trkpt lat="43.61687" lon="3.36862">
        <ele>263</ele>
        <time>2016-02-21T13:10:18Z</time>
      </trkpt>
      <trkpt lat="43.61686" lon="3.36847">
        <ele>262.5</ele>
        <time>2016-02-21T13:10:19Z</time>
      </trkpt>
      <trkpt lat="43.61686" lon="3.36832">
        <ele>262</ele>
        <time>2016-02-21T13:10:20Z</time>
      </trkpt>
      <trkpt lat="43.61686" lon="3.36802">
        <ele>261.5</ele>
        <time>2016-02-21T13:10:22Z</time>
      </trkpt>
      <trkpt lat="43.61687" lon="3.36787">
        <ele>261.5</ele>
        <time>2016-02-21T13:10:23Z</time>
      </trkpt>
      <trkpt lat="43.61688" lon="3.36772">
        <ele>261.5</ele>
        <time>2016-02-21T13:10:24Z</time>
      </trkpt>
      <trkpt lat="43.61688" lon="3.36757">
        <ele>261.5</ele>
        <time>2016-02-21T13:10:25Z</time>
      </trkpt>
      <trkpt lat="43.61687" lon="3.36743">
        <ele>261.5</ele>
        <time>2016-02-21T13:10:26Z</time>
      </trkpt>
      <trkpt lat="43.61679" lon="3.3672">
        <ele>261</ele>
        <time>2016-02-21T13:10:28Z</time>
      </trkpt>
      <trkpt lat="43.61675" lon="3.3671">
        <ele>261</ele>
        <time>2016-02-21T13:10:29Z</time>
      </trkpt>
      <trkpt lat="43.61672" lon="3.36701">
        <ele>260.5</ele>
        <time>2016-02-21T13:10:30Z</time>
      </trkpt>
      <trkpt lat="43.61665" lon="3.36697">
        <ele>259.5</ele>
        <time>2016-02-21T13:10:31Z</time>
      </trkpt>
      <trkpt lat="43.6166" lon="3.36693">
        <ele>259</ele>
        <time>2016-02-21T13:10:32Z</time>
      </trkpt>
      <trkpt lat="43.61655" lon="3.36687">
        <ele>259.5</ele>
        <time>2016-02-21T13:10:33Z</time>
      </trkpt>
      <trkpt lat="43.61652" lon="3.36677">
        <ele>262.5</ele>
        <time>2016-02-21T13:10:35Z</time>
      </trkpt>
      <trkpt lat="43.61652" lon="3.36668">
        <ele>262</ele>
        <time>2016-02-21T13:10:37Z</time>
      </trkpt>
      <trkpt lat="43.61653" lon="3.36664">
        <ele>263.5</ele>
        <time>2016-02-21T13:10:38Z</time>
      </trkpt>
      <trkpt lat="43.61654" lon="3.36659">
        <ele>265</ele>
        <time>2016-02-21T13:10:39Z</time>
      </trkpt>
      <trkpt lat="43.61658" lon="3.3665">
        <ele>262</ele>
        <time>2016-02-21T13:10:41Z</time>
      </trkpt>
      <trkpt lat="43.61659" lon="3.36645">
        <ele>261</ele>
        <time>2016-02-21T13:10:42Z</time>
      </trkpt>
      <trkpt lat="43.61662" lon="3.3664">
        <ele>262.5</ele>
        <time>2016-02-21T13:10:43Z</time>
      </trkpt>
      <trkpt lat="43.61664" lon="3.36631">
        <ele>259</ele>
        <time>2016-02-21T13:10:45Z</time>
      </trkpt>
      <trkpt lat="43.61665" lon="3.36626">
        <ele>258.5</ele>
        <time>2016-02-21T13:10:46Z</time>
      </trkpt>
      <trkpt lat="43.61667" lon="3.36617">
        <ele>257</ele>
        <time>2016-02-21T13:10:48Z</time>
      </trkpt>
      <trkpt lat="43.61671" lon="3.36608">
        <ele>257.5</ele>
        <time>2016-02-21T13:10:50Z</time>
      </trkpt>
      <trkpt lat="43.61672" lon="3.36603">
        <ele>257.5</ele>
        <time>2016-02-21T13:10:51Z</time>
      </trkpt>
      <trkpt lat="43.61675" lon="3.36593">
        <ele>259</ele>
        <time>2016-02-21T13:10:53Z</time>
      </trkpt>
      <trkpt lat="43.61678" lon="3.36583">
        <ele>251</ele>
        <time>2016-02-21T13:10:55Z</time>
      </trkpt>
      <trkpt lat="43.61678" lon="3.36578">
        <ele>247</ele>
        <time>2016-02-21T13:10:56Z</time>
      </trkpt>
      <trkpt lat="43.61681" lon="3.36568">
        <ele>244</ele>
        <time>2016-02-21T13:10:58Z</time>
      </trkpt>
      <trkpt lat="43.61682" lon="3.36564">
        <ele>244</ele>
        <time>2016-02-21T13:10:59Z</time>
      </trkpt>
      <trkpt lat="43.61684" lon="3.36555">
        <ele>245</ele>
        <time>2016-02-21T13:11:01Z</time>
      </trkpt>
      <trkpt lat="43.61686" lon="3.36546">
        <ele>245</ele>
        <time>2016-02-21T13:11:03Z</time>
      </trkpt>
      <trkpt lat="43.61688" lon="3.36538">
        <ele>244.5</ele>
        <time>2016-02-21T13:11:05Z</time>
      </trkpt>
      <trkpt lat="43.61691" lon="3.36528">
        <ele>244.5</ele>
        <time>2016-02-21T13:11:07Z</time>
      </trkpt>
      <trkpt lat="43.6169" lon="3.36524">
        <ele>245</ele>
        <time>2016-02-21T13:11:08Z</time>
      </trkpt>
      <trkpt lat="43.61692" lon="3.36519">
        <ele>245</ele>
        <time>2016-02-21T13:11:09Z</time>
      </trkpt>
      <trkpt lat="43.61693" lon="3.3651">
        <ele>244.5</ele>
        <time>2016-02-21T13:11:11Z</time>
      </trkpt>
      <trkpt lat="43.61693" lon="3.36501">
        <ele>244</ele>
        <time>2016-02-21T13:11:13Z</time>
      </trkpt>
      <trkpt lat="43.61694" lon="3.36496">
        <ele>244</ele>
        <time>2016-02-21T13:11:14Z</time>
      </trkpt>
      <trkpt lat="43.61694" lon="3.36487">
        <ele>245</ele>
        <time>2016-02-21T13:11:16Z</time>
      </trkpt>
      <trkpt lat="43.61695" lon="3.36478">
        <ele>246.5</ele>
        <time>2016-02-21T13:11:18Z</time>
      </trkpt>
      <trkpt lat="43.61696" lon="3.36473">
        <ele>248.5</ele>
        <time>2016-02-21T13:11:19Z</time>
      </trkpt>
      <trkpt lat="43.61698" lon="3.36463">
        <ele>251.5</ele>
        <time>2016-02-21T13:11:21Z</time>
      </trkpt>
      <trkpt lat="43.61699" lon="3.36454">
        <ele>251</ele>
        <time>2016-02-21T13:11:23Z</time>
      </trkpt>
      <trkpt lat="43.617" lon="3.36449">
        <ele>251.5</ele>
        <time>2016-02-21T13:11:24Z</time>
      </trkpt>
      <trkpt lat="43.61701" lon="3.36441">
        <ele>251</ele>
        <time>2016-02-21T13:11:26Z</time>
      </trkpt>
      <trkpt lat="43.61701" lon="3.36432">
        <ele>250</ele>
        <time>2016-02-21T13:11:28Z</time>
      </trkpt>
      <trkpt lat="43.617" lon="3.36424">
        <ele>249.5</ele>
        <time>2016-02-21T13:11:30Z</time>
      </trkpt>
      <trkpt lat="43.61698" lon="3.36415">
        <ele>250.5</ele>
        <time>2016-02-21T13:11:31Z</time>
      </trkpt>
      <trkpt lat="43.61697" lon="3.3641">
        <ele>252.5</ele>
        <time>2016-02-21T13:11:32Z</time>
      </trkpt>
      <trkpt lat="43.61697" lon="3.36405">
        <ele>252.5</ele>
        <time>2016-02-21T13:11:34Z</time>
      </trkpt>
      <trkpt lat="43.61696" lon="3.36396">
        <ele>255</ele>
        <time>2016-02-21T13:11:36Z</time>
      </trkpt>
      <trkpt lat="43.61697" lon="3.36386">
        <ele>257.5</ele>
        <time>2016-02-21T13:11:37Z</time>
      </trkpt>
      <trkpt lat="43.61697" lon="3.36382">
        <ele>258</ele>
        <time>2016-02-21T13:11:39Z</time>
      </trkpt>
      <trkpt lat="43.61696" lon="3.36374">
        <ele>258.5</ele>
        <time>2016-02-21T13:11:41Z</time>
      </trkpt>
      <trkpt lat="43.61695" lon="3.36365">
        <ele>259</ele>
        <time>2016-02-21T13:11:43Z</time>
      </trkpt>
      <trkpt lat="43.61694" lon="3.36356">
        <ele>255</ele>
        <time>2016-02-21T13:11:44Z</time>
      </trkpt>
      <trkpt lat="43.61694" lon="3.36351">
        <ele>253.5</ele>
        <time>2016-02-21T13:11:45Z</time>
      </trkpt>
      <trkpt lat="43.61695" lon="3.36346">
        <ele>252.5</ele>
        <time>2016-02-21T13:11:47Z</time>
      </trkpt>
      <trkpt lat="43.61698" lon="3.36336">
        <ele>251</ele>
        <time>2016-02-21T13:11:49Z</time>
      </trkpt>
      <trkpt lat="43.61702" lon="3.36328">
        <ele>249.5</ele>
        <time>2016-02-21T13:11:51Z</time>
      </trkpt>
      <trkpt lat="43.61707" lon="3.3632">
        <ele>248</ele>
        <time>2016-02-21T13:11:53Z</time>
      </trkpt>
      <trkpt lat="43.61713" lon="3.36311">
        <ele>247</ele>
        <time>2016-02-21T13:11:54Z</time>
      </trkpt>
      <trkpt lat="43.61716" lon="3.36306">
        <ele>244.5</ele>
        <time>2016-02-21T13:11:56Z</time>
      </trkpt>
      <trkpt lat="43.6172" lon="3.36297">
        <ele>243</ele>
        <time>2016-02-21T13:11:58Z</time>
      </trkpt>
      <trkpt lat="43.61725" lon="3.36287">
        <ele>241.5</ele>
        <time>2016-02-21T13:12:00Z</time>
      </trkpt>
      <trkpt lat="43.61727" lon="3.36277">
        <ele>242.5</ele>
        <time>2016-02-21T13:12:02Z</time>
      </trkpt>
      <trkpt lat="43.61726" lon="3.36267">
        <ele>242</ele>
        <time>2016-02-21T13:12:04Z</time>
      </trkpt>
      <trkpt lat="43.61726" lon="3.36257">
        <ele>242</ele>
        <time>2016-02-21T13:12:05Z</time>
      </trkpt>
      <trkpt lat="43.61726" lon="3.36247">
        <ele>243</ele>
        <time>2016-02-21T13:12:07Z</time>
      </trkpt>
      <trkpt lat="43.61726" lon="3.36242">
        <ele>243</ele>
        <time>2016-02-21T13:12:09Z</time>
      </trkpt>
      <trkpt lat="43.61725" lon="3.36232">
        <ele>241.5</ele>
        <time>2016-02-21T13:12:11Z</time>
      </trkpt>
      <trkpt lat="43.61725" lon="3.36224">
        <ele>242</ele>
        <time>2016-02-21T13:12:13Z</time>
      </trkpt>
      <trkpt lat="43.61723" lon="3.36215">
        <ele>241.5</ele>
        <time>2016-02-21T13:12:15Z</time>
      </trkpt>
      <trkpt lat="43.61722" lon="3.36206">
        <ele>242</ele>
        <time>2016-02-21T13:12:16Z</time>
      </trkpt>
      <trkpt lat="43.61722" lon="3.36197">
        <ele>241.5</ele>
        <time>2016-02-21T13:12:18Z</time>
      </trkpt>
      <trkpt lat="43.61721" lon="3.36193">
        <ele>241.5</ele>
        <time>2016-02-21T13:12:19Z</time>
      </trkpt>
      <trkpt lat="43.61721" lon="3.36188">
        <ele>241.5</ele>
        <time>2016-02-21T13:12:20Z</time>
      </trkpt>
      <trkpt lat="43.6172" lon="3.36184">
        <ele>241.5</ele>
        <time>2016-02-21T13:12:21Z</time>
      </trkpt>
      <trkpt lat="43.6172" lon="3.36179">
        <ele>242.5</ele>
        <time>2016-02-21T13:12:23Z</time>
      </trkpt>
      <trkpt lat="43.61719" lon="3.3617">
        <ele>241.5</ele>
        <time>2016-02-21T13:12:24Z</time>
      </trkpt>
      <trkpt lat="43.61718" lon="3.36166">
        <ele>241</ele>
        <time>2016-02-21T13:12:25Z</time>
      </trkpt>
      <trkpt lat="43.61718" lon="3.36162">
        <ele>242.5</ele>
        <time>2016-02-21T13:12:26Z</time>
      </trkpt>
      <trkpt lat="43.61718" lon="3.36158">
        <ele>242.5</ele>
        <time>2016-02-21T13:12:27Z</time>
      </trkpt>
      <trkpt lat="43.61719" lon="3.36153">
        <ele>243</ele>
        <time>2016-02-21T13:12:28Z</time>
      </trkpt>
      <trkpt lat="43.61719" lon="3.36148">
        <ele>243</ele>
        <time>2016-02-21T13:12:29Z</time>
      </trkpt>
      <trkpt lat="43.61719" lon="3.36143">
        <ele>241.5</ele>
        <time>2016-02-21T13:12:31Z</time>
      </trkpt>
      <trkpt lat="43.61721" lon="3.36135">
        <ele>242</ele>
        <time>2016-02-21T13:12:32Z</time>
      </trkpt>
      <trkpt lat="43.61723" lon="3.36126">
        <ele>241.5</ele>
        <time>2016-02-21T13:12:34Z</time>
      </trkpt>
      <trkpt lat="43.61724" lon="3.36122">
        <ele>241</ele>
        <time>2016-02-21T13:12:35Z</time>
      </trkpt>
      <trkpt lat="43.61725" lon="3.36117">
        <ele>241.5</ele>
        <time>2016-02-21T13:12:37Z</time>
      </trkpt>
      <trkpt lat="43.61727" lon="3.36108">
        <ele>241.5</ele>
        <time>2016-02-21T13:12:38Z</time>
      </trkpt>
      <trkpt lat="43.61728" lon="3.361">
        <ele>241</ele>
        <time>2016-02-21T13:12:40Z</time>
      </trkpt>
      <trkpt lat="43.61729" lon="3.36096">
        <ele>240.5</ele>
        <time>2016-02-21T13:12:41Z</time>
      </trkpt>
      <trkpt lat="43.6173" lon="3.36092">
        <ele>239</ele>
        <time>2016-02-21T13:12:43Z</time>
      </trkpt>
      <trkpt lat="43.61731" lon="3.36085">
        <ele>237</ele>
        <time>2016-02-21T13:12:45Z</time>
      </trkpt>
      <trkpt lat="43.61732" lon="3.36076">
        <ele>235</ele>
        <time>2016-02-21T13:12:46Z</time>
      </trkpt>
      <trkpt lat="43.61733" lon="3.36072">
        <ele>237</ele>
        <time>2016-02-21T13:12:48Z</time>
      </trkpt>
      <trkpt lat="43.61735" lon="3.36064">
        <ele>239.5</ele>
        <time>2016-02-21T13:12:49Z</time>
      </trkpt>
      <trkpt lat="43.61736" lon="3.3606">
        <ele>239</ele>
        <time>2016-02-21T13:12:51Z</time>
      </trkpt>
      <trkpt lat="43.61738" lon="3.36051">
        <ele>239.5</ele>
        <time>2016-02-21T13:12:52Z</time>
      </trkpt>
      <trkpt lat="43.61739" lon="3.36046">
        <ele>239</ele>
        <time>2016-02-21T13:12:54Z</time>
      </trkpt>
      <trkpt lat="43.6174" lon="3.36037">
        <ele>237.5</ele>
        <time>2016-02-21T13:12:55Z</time>
      </trkpt>
      <trkpt lat="43.61741" lon="3.36028">
        <ele>237.5</ele>
        <time>2016-02-21T13:12:57Z</time>
      </trkpt>
      <trkpt lat="43.61742" lon="3.36023">
        <ele>239</ele>
        <time>2016-02-21T13:12:59Z</time>
      </trkpt>
      <trkpt lat="43.61746" lon="3.36014">
        <ele>239.5</ele>
        <time>2016-02-21T13:13:00Z</time>
      </trkpt>
      <trkpt lat="43.61744" lon="3.36006">
        <ele>237.5</ele>
        <time>2016-02-21T13:13:02Z</time>
      </trkpt>
      <trkpt lat="43.61746" lon="3.35997">
        <ele>237.5</ele>
        <time>2016-02-21T13:13:04Z</time>
      </trkpt>
      <trkpt lat="43.61747" lon="3.35993">
        <ele>237.5</ele>
        <time>2016-02-21T13:13:05Z</time>
      </trkpt>
      <trkpt lat="43.61748" lon="3.35988">
        <ele>239.5</ele>
        <time>2016-02-21T13:13:07Z</time>
      </trkpt>
      <trkpt lat="43.6175" lon="3.35979">
        <ele>242</ele>
        <time>2016-02-21T13:13:08Z</time>
      </trkpt>
      <trkpt lat="43.61753" lon="3.3597">
        <ele>243</ele>
        <time>2016-02-21T13:13:10Z</time>
      </trkpt>
      <trkpt lat="43.61753" lon="3.35965">
        <ele>242.5</ele>
        <time>2016-02-21T13:13:11Z</time>
      </trkpt>
      <trkpt lat="43.61755" lon="3.35961">
        <ele>242.5</ele>
        <time>2016-02-21T13:13:13Z</time>
      </trkpt>
      <trkpt lat="43.61757" lon="3.35954">
        <ele>245</ele>
        <time>2016-02-21T13:13:14Z</time>
      </trkpt>
      <trkpt lat="43.61759" lon="3.35946">
        <ele>246.5</ele>
        <time>2016-02-21T13:13:16Z</time>
      </trkpt>
      <trkpt lat="43.6176" lon="3.35942">
        <ele>246</ele>
        <time>2016-02-21T13:13:17Z</time>
      </trkpt>
      <trkpt lat="43.61762" lon="3.35938">
        <ele>244</ele>
        <time>2016-02-21T13:13:18Z</time>
      </trkpt>
      <trkpt lat="43.61762" lon="3.35934">
        <ele>244</ele>
        <time>2016-02-21T13:13:19Z</time>
      </trkpt>
      <trkpt lat="43.61764" lon="3.3593">
        <ele>244.5</ele>
        <time>2016-02-21T13:13:21Z</time>
      </trkpt>
      <trkpt lat="43.61765" lon="3.35921">
        <ele>245.5</ele>
        <time>2016-02-21T13:13:22Z</time>
      </trkpt>
      <trkpt lat="43.61766" lon="3.35917">
        <ele>244</ele>
        <time>2016-02-21T13:13:23Z</time>
      </trkpt>
      <trkpt lat="43.61767" lon="3.35913">
        <ele>244.5</ele>
        <time>2016-02-21T13:13:25Z</time>
      </trkpt>
      <trkpt lat="43.6177" lon="3.35904">
        <ele>243.5</ele>
        <time>2016-02-21T13:13:26Z</time>
      </trkpt>
      <trkpt lat="43.61773" lon="3.35895">
        <ele>246</ele>
        <time>2016-02-21T13:13:28Z</time>
      </trkpt>
      <trkpt lat="43.61774" lon="3.35891">
        <ele>247</ele>
        <time>2016-02-21T13:13:29Z</time>
      </trkpt>
      <trkpt lat="43.61776" lon="3.35886">
        <ele>246.5</ele>
        <time>2016-02-21T13:13:31Z</time>
      </trkpt>
      <trkpt lat="43.61779" lon="3.35877">
        <ele>246.5</ele>
        <time>2016-02-21T13:13:32Z</time>
      </trkpt>
      <trkpt lat="43.61782" lon="3.35868">
        <ele>247</ele>
        <time>2016-02-21T13:13:34Z</time>
      </trkpt>
      <trkpt lat="43.61783" lon="3.35864">
        <ele>247</ele>
        <time>2016-02-21T13:13:36Z</time>
      </trkpt>
      <trkpt lat="43.61786" lon="3.35854">
        <ele>246</ele>
        <time>2016-02-21T13:13:37Z</time>
      </trkpt>
      <trkpt lat="43.6179" lon="3.35845">
        <ele>248</ele>
        <time>2016-02-21T13:13:39Z</time>
      </trkpt>
      <trkpt lat="43.61791" lon="3.35841">
        <ele>248</ele>
        <time>2016-02-21T13:13:40Z</time>
      </trkpt>
      <trkpt lat="43.61793" lon="3.35836">
        <ele>248</ele>
        <time>2016-02-21T13:13:42Z</time>
      </trkpt>
      <trkpt lat="43.61796" lon="3.35827">
        <ele>247.5</ele>
        <time>2016-02-21T13:13:43Z</time>
      </trkpt>
      <trkpt lat="43.61798" lon="3.35818">
        <ele>247</ele>
        <time>2016-02-21T13:13:45Z</time>
      </trkpt>
      <trkpt lat="43.61799" lon="3.35813">
        <ele>246.5</ele>
        <time>2016-02-21T13:13:47Z</time>
      </trkpt>
      <trkpt lat="43.61804" lon="3.35803">
        <ele>246</ele>
        <time>2016-02-21T13:13:48Z</time>
      </trkpt>
      <trkpt lat="43.61807" lon="3.35794">
        <ele>245.5</ele>
        <time>2016-02-21T13:13:50Z</time>
      </trkpt>
      <trkpt lat="43.61808" lon="3.3579">
        <ele>245.5</ele>
        <time>2016-02-21T13:13:52Z</time>
      </trkpt>
      <trkpt lat="43.6181" lon="3.35781">
        <ele>245</ele>
        <time>2016-02-21T13:13:53Z</time>
      </trkpt>
      <trkpt lat="43.61811" lon="3.35777">
        <ele>245</ele>
        <time>2016-02-21T13:13:54Z</time>
      </trkpt>
      <trkpt lat="43.61812" lon="3.35772">
        <ele>244.5</ele>
        <time>2016-02-21T13:13:56Z</time>
      </trkpt>
      <trkpt lat="43.61813" lon="3.35764">
        <ele>242</ele>
        <time>2016-02-21T13:13:57Z</time>
      </trkpt>
      <trkpt lat="43.61815" lon="3.35756">
        <ele>242</ele>
        <time>2016-02-21T13:13:59Z</time>
      </trkpt>
      <trkpt lat="43.61816" lon="3.35752">
        <ele>242</ele>
        <time>2016-02-21T13:14:01Z</time>
      </trkpt>
      <trkpt lat="43.61818" lon="3.35744">
        <ele>239.5</ele>
        <time>2016-02-21T13:14:02Z</time>
      </trkpt>
      <trkpt lat="43.6182" lon="3.35734">
        <ele>236.5</ele>
        <time>2016-02-21T13:14:04Z</time>
      </trkpt>
      <trkpt lat="43.6182" lon="3.35729">
        <ele>233.5</ele>
        <time>2016-02-21T13:14:05Z</time>
      </trkpt>
      <trkpt lat="43.61821" lon="3.35724">
        <ele>232</ele>
        <time>2016-02-21T13:14:07Z</time>
      </trkpt>
      <trkpt lat="43.61823" lon="3.35715">
        <ele>230</ele>
        <time>2016-02-21T13:14:08Z</time>
      </trkpt>
      <trkpt lat="43.61825" lon="3.35707">
        <ele>227.5</ele>
        <time>2016-02-21T13:14:10Z</time>
      </trkpt>
      <trkpt lat="43.61827" lon="3.35703">
        <ele>227.5</ele>
        <time>2016-02-21T13:14:12Z</time>
      </trkpt>
      <trkpt lat="43.61829" lon="3.35696">
        <ele>225.5</ele>
        <time>2016-02-21T13:14:13Z</time>
      </trkpt>
      <trkpt lat="43.6183" lon="3.35689">
        <ele>224</ele>
        <time>2016-02-21T13:14:15Z</time>
      </trkpt>
      <trkpt lat="43.61831" lon="3.35686">
        <ele>224</ele>
        <time>2016-02-21T13:14:17Z</time>
      </trkpt>
      <trkpt lat="43.61832" lon="3.35678">
        <ele>224.5</ele>
        <time>2016-02-21T13:14:18Z</time>
      </trkpt>
      <trkpt lat="43.61835" lon="3.3567">
        <ele>224.5</ele>
        <time>2016-02-21T13:14:20Z</time>
      </trkpt>
      <trkpt lat="43.61836" lon="3.35666">
        <ele>224.5</ele>
        <time>2016-02-21T13:14:21Z</time>
      </trkpt>
      <trkpt lat="43.61837" lon="3.35661">
        <ele>224.5</ele>
        <time>2016-02-21T13:14:22Z</time>
      </trkpt>
      <trkpt lat="43.61838" lon="3.35656">
        <ele>224.5</ele>
        <time>2016-02-21T13:14:23Z</time>
      </trkpt>
      <trkpt lat="43.61838" lon="3.35651">
        <ele>224.5</ele>
        <time>2016-02-21T13:14:24Z</time>
      </trkpt>
      <trkpt lat="43.61838" lon="3.35646">
        <ele>224.5</ele>
        <time>2016-02-21T13:14:25Z</time>
      </trkpt>
      <trkpt lat="43.61841" lon="3.35639">
        <ele>224.5</ele>
        <time>2016-02-21T13:14:26Z</time>
      </trkpt>
      <trkpt lat="43.61841" lon="3.35633">
        <ele>225</ele>
        <time>2016-02-21T13:14:27Z</time>
      </trkpt>
      <trkpt lat="43.61842" lon="3.35628">
        <ele>225</ele>
        <time>2016-02-21T13:14:28Z</time>
      </trkpt>
      <trkpt lat="43.61841" lon="3.35623">
        <ele>225</ele>
        <time>2016-02-21T13:14:29Z</time>
      </trkpt>
      <trkpt lat="43.6184" lon="3.3562">
        <ele>225</ele>
        <time>2016-02-21T13:14:30Z</time>
      </trkpt>
      <trkpt lat="43.61839" lon="3.35616">
        <ele>225</ele>
        <time>2016-02-21T13:14:31Z</time>
      </trkpt>
      <trkpt lat="43.61833" lon="3.35603">
        <ele>225.5</ele>
        <time>2016-02-21T13:14:33Z</time>
      </trkpt>
      <trkpt lat="43.6183" lon="3.35598">
        <ele>225.5</ele>
        <time>2016-02-21T13:14:34Z</time>
      </trkpt>
      <trkpt lat="43.61827" lon="3.35593">
        <ele>227</ele>
        <time>2016-02-21T13:14:35Z</time>
      </trkpt>
      <trkpt lat="43.61824" lon="3.35588">
        <ele>228</ele>
        <time>2016-02-21T13:14:37Z</time>
      </trkpt>
      <trkpt lat="43.61821" lon="3.35574">
        <ele>229.5</ele>
        <time>2016-02-21T13:14:38Z</time>
      </trkpt>
      <trkpt lat="43.61823" lon="3.35564">
        <ele>231</ele>
        <time>2016-02-21T13:14:40Z</time>
      </trkpt>
      <trkpt lat="43.61826" lon="3.35559">
        <ele>232</ele>
        <time>2016-02-21T13:14:42Z</time>
      </trkpt>
      <trkpt lat="43.6183" lon="3.35551">
        <ele>234</ele>
        <time>2016-02-21T13:14:43Z</time>
      </trkpt>
      <trkpt lat="43.61834" lon="3.35543">
        <ele>236.5</ele>
        <time>2016-02-21T13:14:45Z</time>
      </trkpt>
      <trkpt lat="43.61836" lon="3.35539">
        <ele>238</ele>
        <time>2016-02-21T13:14:46Z</time>
      </trkpt>
      <trkpt lat="43.61837" lon="3.35536">
        <ele>238</ele>
        <time>2016-02-21T13:14:47Z</time>
      </trkpt>
      <trkpt lat="43.6184" lon="3.35529">
        <ele>240</ele>
        <time>2016-02-21T13:14:49Z</time>
      </trkpt>
      <trkpt lat="43.61842" lon="3.35525">
        <ele>242</ele>
        <time>2016-02-21T13:14:50Z</time>
      </trkpt>
      <trkpt lat="43.61843" lon="3.35521">
        <ele>243</ele>
        <time>2016-02-21T13:14:52Z</time>
      </trkpt>
      <trkpt lat="43.61846" lon="3.35514">
        <ele>244.5</ele>
        <time>2016-02-21T13:14:53Z</time>
      </trkpt>
      <trkpt lat="43.61849" lon="3.35507">
        <ele>247.5</ele>
        <time>2016-02-21T13:14:55Z</time>
      </trkpt>
      <trkpt lat="43.61851" lon="3.35499">
        <ele>249</ele>
        <time>2016-02-21T13:14:57Z</time>
      </trkpt>
      <trkpt lat="43.61854" lon="3.35491">
        <ele>251.5</ele>
        <time>2016-02-21T13:14:59Z</time>
      </trkpt>
      <trkpt lat="43.61854" lon="3.35487">
        <ele>251.5</ele>
        <time>2016-02-21T13:15:00Z</time>
      </trkpt>
      <trkpt lat="43.61855" lon="3.35483">
        <ele>254</ele>
        <time>2016-02-21T13:15:01Z</time>
      </trkpt>
      <trkpt lat="43.61856" lon="3.35474">
        <ele>257.5</ele>
        <time>2016-02-21T13:15:03Z</time>
      </trkpt>
      <trkpt lat="43.61853" lon="3.35465">
        <ele>257.5</ele>
        <time>2016-02-21T13:15:05Z</time>
      </trkpt>
      <trkpt lat="43.61852" lon="3.35461">
        <ele>258.5</ele>
        <time>2016-02-21T13:15:06Z</time>
      </trkpt>
      <trkpt lat="43.61847" lon="3.35455">
        <ele>258</ele>
        <time>2016-02-21T13:15:08Z</time>
      </trkpt>
      <trkpt lat="43.61845" lon="3.35452">
        <ele>258</ele>
        <time>2016-02-21T13:15:09Z</time>
      </trkpt>
      <trkpt lat="43.61841" lon="3.35445">
        <ele>258.5</ele>
        <time>2016-02-21T13:15:11Z</time>
      </trkpt>
      <trkpt lat="43.61837" lon="3.35437">
        <ele>260.5</ele>
        <time>2016-02-21T13:15:13Z</time>
      </trkpt>
      <trkpt lat="43.61834" lon="3.35429">
        <ele>262.5</ele>
        <time>2016-02-21T13:15:15Z</time>
      </trkpt>
      <trkpt lat="43.61832" lon="3.35421">
        <ele>266</ele>
        <time>2016-02-21T13:15:17Z</time>
      </trkpt>
      <trkpt lat="43.61831" lon="3.35417">
        <ele>266</ele>
        <time>2016-02-21T13:15:18Z</time>
      </trkpt>
      <trkpt lat="43.61829" lon="3.35409">
        <ele>267</ele>
        <time>2016-02-21T13:15:20Z</time>
      </trkpt>
      <trkpt lat="43.61827" lon="3.35401">
        <ele>268</ele>
        <time>2016-02-21T13:15:22Z</time>
      </trkpt>
      <trkpt lat="43.61826" lon="3.35398">
        <ele>269</ele>
        <time>2016-02-21T13:15:23Z</time>
      </trkpt>
      <trkpt lat="43.61826" lon="3.35393">
        <ele>270</ele>
        <time>2016-02-21T13:15:24Z</time>
      </trkpt>
      <trkpt lat="43.61825" lon="3.35385">
        <ele>271</ele>
        <time>2016-02-21T13:15:26Z</time>
      </trkpt>
      <trkpt lat="43.61824" lon="3.35377">
        <ele>271</ele>
        <time>2016-02-21T13:15:28Z</time>
      </trkpt>
      <trkpt lat="43.61824" lon="3.35373">
        <ele>271</ele>
        <time>2016-02-21T13:15:29Z</time>
      </trkpt>
      <trkpt lat="43.61825" lon="3.35363">
        <ele>268.5</ele>
        <time>2016-02-21T13:15:31Z</time>
      </trkpt>
      <trkpt lat="43.61826" lon="3.35356">
        <ele>272</ele>
        <time>2016-02-21T13:15:33Z</time>
      </trkpt>
      <trkpt lat="43.61826" lon="3.35352">
        <ele>272</ele>
        <time>2016-02-21T13:15:34Z</time>
      </trkpt>
      <trkpt lat="43.61826" lon="3.35348">
        <ele>272</ele>
        <time>2016-02-21T13:15:35Z</time>
      </trkpt>
      <trkpt lat="43.61826" lon="3.3534">
        <ele>275</ele>
        <time>2016-02-21T13:15:37Z</time>
      </trkpt>
      <trkpt lat="43.61823" lon="3.35331">
        <ele>267.5</ele>
        <time>2016-02-21T13:15:39Z</time>
      </trkpt>
      <trkpt lat="43.61822" lon="3.35328">
        <ele>267.5</ele>
        <time>2016-02-21T13:15:40Z</time>
      </trkpt>
      <trkpt lat="43.61823" lon="3.35318">
        <ele>267.5</ele>
        <time>2016-02-21T13:15:42Z</time>
      </trkpt>
      <trkpt lat="43.61822" lon="3.3531">
        <ele>269.5</ele>
        <time>2016-02-21T13:15:44Z</time>
      </trkpt>
      <trkpt lat="43.61821" lon="3.35306">
        <ele>268.5</ele>
        <time>2016-02-21T13:15:45Z</time>
      </trkpt>
      <trkpt lat="43.61822" lon="3.35297">
        <ele>269.5</ele>
        <time>2016-02-21T13:15:47Z</time>
      </trkpt>
      <trkpt lat="43.61821" lon="3.35292">
        <ele>273.5</ele>
        <time>2016-02-21T13:15:49Z</time>
      </trkpt>
      <trkpt lat="43.61819" lon="3.35289">
        <ele>273</ele>
        <time>2016-02-21T13:15:50Z</time>
      </trkpt>
      <trkpt lat="43.61817" lon="3.35286">
        <ele>273.5</ele>
        <time>2016-02-21T13:15:51Z</time>
      </trkpt>
      <trkpt lat="43.61815" lon="3.3528">
        <ele>274.5</ele>
        <time>2016-02-21T13:15:53Z</time>
      </trkpt>
      <trkpt lat="43.61814" lon="3.35276">
        <ele>275.5</ele>
        <time>2016-02-21T13:15:54Z</time>
      </trkpt>
      <trkpt lat="43.61813" lon="3.35273">
        <ele>276</ele>
        <time>2016-02-21T13:15:55Z</time>
      </trkpt>
      <trkpt lat="43.61812" lon="3.35268">
        <ele>278</ele>
        <time>2016-02-21T13:15:57Z</time>
      </trkpt>
      <trkpt lat="43.61809" lon="3.35262">
        <ele>276.5</ele>
        <time>2016-02-21T13:15:59Z</time>
      </trkpt>
      <trkpt lat="43.61806" lon="3.35256">
        <ele>273.5</ele>
        <time>2016-02-21T13:16:01Z</time>
      </trkpt>
      <trkpt lat="43.61805" lon="3.35253">
        <ele>273</ele>
        <time>2016-02-21T13:16:02Z</time>
      </trkpt>
      <trkpt lat="43.61803" lon="3.3525">
        <ele>273.5</ele>
        <time>2016-02-21T13:16:03Z</time>
      </trkpt>
      <trkpt lat="43.61801" lon="3.35244">
        <ele>275</ele>
        <time>2016-02-21T13:16:05Z</time>
      </trkpt>
      <trkpt lat="43.61798" lon="3.35239">
        <ele>275.5</ele>
        <time>2016-02-21T13:16:07Z</time>
      </trkpt>
      <trkpt lat="43.61797" lon="3.35237">
        <ele>276</ele>
        <time>2016-02-21T13:16:08Z</time>
      </trkpt>
      <trkpt lat="43.61796" lon="3.35234">
        <ele>276</ele>
        <time>2016-02-21T13:16:09Z</time>
      </trkpt>
      <trkpt lat="43.61794" lon="3.35232">
        <ele>276</ele>
        <time>2016-02-21T13:16:10Z</time>
      </trkpt>
      <trkpt lat="43.61793" lon="3.35229">
        <ele>276.5</ele>
        <time>2016-02-21T13:16:11Z</time>
      </trkpt>
      <trkpt lat="43.61792" lon="3.35227">
        <ele>277</ele>
        <time>2016-02-21T13:16:12Z</time>
      </trkpt>
      <trkpt lat="43.6179" lon="3.35225">
        <ele>277.5</ele>
        <time>2016-02-21T13:16:13Z</time>
      </trkpt>
      <trkpt lat="43.61787" lon="3.35221">
        <ele>277</ele>
        <time>2016-02-21T13:16:15Z</time>
      </trkpt>
      <trkpt lat="43.61786" lon="3.3522">
        <ele>277.5</ele>
        <time>2016-02-21T13:16:16Z</time>
      </trkpt>
      <trkpt lat="43.61785" lon="3.35218">
        <ele>277.5</ele>
        <time>2016-02-21T13:16:17Z</time>
      </trkpt>
      <trkpt lat="43.61785" lon="3.35216">
        <ele>278</ele>
        <time>2016-02-21T13:16:18Z</time>
      </trkpt>
      <trkpt lat="43.61784" lon="3.35214">
        <ele>279.5</ele>
        <time>2016-02-21T13:16:19Z</time>
      </trkpt>
      <trkpt lat="43.61783" lon="3.35212">
        <ele>279.5</ele>
        <time>2016-02-21T13:16:20Z</time>
      </trkpt>
      <trkpt lat="43.61782" lon="3.35213">
        <ele>279.5</ele>
        <time>2016-02-21T13:16:21Z</time>
      </trkpt>
      <trkpt lat="43.61781" lon="3.35212">
        <ele>280</ele>
        <time>2016-02-21T13:16:22Z</time>
      </trkpt>
      <trkpt lat="43.61779" lon="3.3521">
        <ele>280</ele>
        <time>2016-02-21T13:16:23Z</time>
      </trkpt>
      <trkpt lat="43.61777" lon="3.35206">
        <ele>280</ele>
        <time>2016-02-21T13:16:24Z</time>
      </trkpt>
      <trkpt lat="43.61775" lon="3.35201">
        <ele>280.5</ele>
        <time>2016-02-21T13:16:26Z</time>
      </trkpt>
      <trkpt lat="43.61773" lon="3.35198">
        <ele>280</ele>
        <time>2016-02-21T13:16:27Z</time>
      </trkpt>
      <trkpt lat="43.61772" lon="3.35195">
        <ele>280</ele>
        <time>2016-02-21T13:16:28Z</time>
      </trkpt>
      <trkpt lat="43.61771" lon="3.35191">
        <ele>280</ele>
        <time>2016-02-21T13:16:29Z</time>
      </trkpt>
      <trkpt lat="43.61769" lon="3.35188">
        <ele>279.5</ele>
        <time>2016-02-21T13:16:30Z</time>
      </trkpt>
      <trkpt lat="43.61767" lon="3.35183">
        <ele>279</ele>
        <time>2016-02-21T13:16:31Z</time>
      </trkpt>
      <trkpt lat="43.61766" lon="3.35179">
        <ele>279</ele>
        <time>2016-02-21T13:16:32Z</time>
      </trkpt>
      <trkpt lat="43.61766" lon="3.35175">
        <ele>280.5</ele>
        <time>2016-02-21T13:16:33Z</time>
      </trkpt>
      <trkpt lat="43.61769" lon="3.35171">
        <ele>280.5</ele>
        <time>2016-02-21T13:16:34Z</time>
      </trkpt>
      <trkpt lat="43.61772" lon="3.35169">
        <ele>281</ele>
        <time>2016-02-21T13:16:35Z</time>
      </trkpt>
      <trkpt lat="43.61776" lon="3.35167">
        <ele>280.5</ele>
        <time>2016-02-21T13:16:37Z</time>
      </trkpt>
      <trkpt lat="43.6178" lon="3.35166">
        <ele>280</ele>
        <time>2016-02-21T13:16:39Z</time>
      </trkpt>
      <trkpt lat="43.61782" lon="3.35166">
        <ele>280.5</ele>
        <time>2016-02-21T13:16:40Z</time>
      </trkpt>
      <trkpt lat="43.61787" lon="3.35165">
        <ele>283.5</ele>
        <time>2016-02-21T13:16:42Z</time>
      </trkpt>
      <trkpt lat="43.61789" lon="3.35165">
        <ele>283.5</ele>
        <time>2016-02-21T13:16:43Z</time>
      </trkpt>
      <trkpt lat="43.61791" lon="3.35165">
        <ele>283.5</ele>
        <time>2016-02-21T13:16:43Z</time>
      </trkpt>
      <trkpt lat="43.61794" lon="3.35165">
        <ele>284</ele>
        <time>2016-02-21T13:16:45Z</time>
      </trkpt>
      <trkpt lat="43.61799" lon="3.35164">
        <ele>284.5</ele>
        <time>2016-02-21T13:16:47Z</time>
      </trkpt>
      <trkpt lat="43.61801" lon="3.35161">
        <ele>285</ele>
        <time>2016-02-21T13:16:48Z</time>
      </trkpt>
      <trkpt lat="43.61802" lon="3.35158">
        <ele>285</ele>
        <time>2016-02-21T13:16:49Z</time>
      </trkpt>
      <trkpt lat="43.61804" lon="3.35155">
        <ele>284</ele>
        <time>2016-02-21T13:16:51Z</time>
      </trkpt>
      <trkpt lat="43.61804" lon="3.35149">
        <ele>282.5</ele>
        <time>2016-02-21T13:16:53Z</time>
      </trkpt>
      <trkpt lat="43.61808" lon="3.35145">
        <ele>281</ele>
        <time>2016-02-21T13:16:55Z</time>
      </trkpt>
      <trkpt lat="43.61812" lon="3.3514">
        <ele>280</ele>
        <time>2016-02-21T13:16:57Z</time>
      </trkpt>
      <trkpt lat="43.61816" lon="3.35135">
        <ele>276</ele>
        <time>2016-02-21T13:16:58Z</time>
      </trkpt>
      <trkpt lat="43.61819" lon="3.35134">
        <ele>277</ele>
        <time>2016-02-21T13:16:59Z</time>
      </trkpt>
      <trkpt lat="43.61821" lon="3.35133">
        <ele>277</ele>
        <time>2016-02-21T13:17:01Z</time>
      </trkpt>
      <trkpt lat="43.61825" lon="3.3513">
        <ele>275</ele>
        <time>2016-02-21T13:17:03Z</time>
      </trkpt>
      <trkpt lat="43.61829" lon="3.35127">
        <ele>273</ele>
        <time>2016-02-21T13:17:04Z</time>
      </trkpt>
      <trkpt lat="43.61831" lon="3.35126">
        <ele>273</ele>
        <time>2016-02-21T13:17:06Z</time>
      </trkpt>
      <trkpt lat="43.61836" lon="3.35123">
        <ele>272.5</ele>
        <time>2016-02-21T13:17:08Z</time>
      </trkpt>
      <trkpt lat="43.6184" lon="3.35119">
        <ele>272.5</ele>
        <time>2016-02-21T13:17:10Z</time>
      </trkpt>
      <trkpt lat="43.61849" lon="3.35121">
        <ele>272</ele>
        <time>2016-02-21T13:17:18Z</time>
      </trkpt>
      <trkpt lat="43.61851" lon="3.35118">
        <ele>271.5</ele>
        <time>2016-02-21T13:17:19Z</time>
      </trkpt>
      <trkpt lat="43.61854" lon="3.35119">
        <ele>271</ele>
        <time>2016-02-21T13:17:21Z</time>
      </trkpt>
      <trkpt lat="43.61859" lon="3.35117">
        <ele>270.5</ele>
        <time>2016-02-21T13:17:22Z</time>
      </trkpt>
      <trkpt lat="43.61863" lon="3.35111">
        <ele>269</ele>
        <time>2016-02-21T13:17:24Z</time>
      </trkpt>
      <trkpt lat="43.61865" lon="3.35108">
        <ele>270.5</ele>
        <time>2016-02-21T13:17:26Z</time>
      </trkpt>
      <trkpt lat="43.6187" lon="3.35104">
        <ele>270</ele>
        <time>2016-02-21T13:17:27Z</time>
      </trkpt>
      <trkpt lat="43.61873" lon="3.35098">
        <ele>269</ele>
        <time>2016-02-21T13:17:29Z</time>
      </trkpt>
      <trkpt lat="43.61875" lon="3.35093">
        <ele>268</ele>
        <time>2016-02-21T13:17:31Z</time>
      </trkpt>
      <trkpt lat="43.61879" lon="3.35085">
        <ele>270.5</ele>
        <time>2016-02-21T13:17:32Z</time>
      </trkpt>
      <trkpt lat="43.61882" lon="3.35078">
        <ele>271</ele>
        <time>2016-02-21T13:17:34Z</time>
      </trkpt>
      <trkpt lat="43.61887" lon="3.35072">
        <ele>273</ele>
        <time>2016-02-21T13:17:36Z</time>
      </trkpt>
      <trkpt lat="43.61888" lon="3.35069">
        <ele>273.5</ele>
        <time>2016-02-21T13:17:38Z</time>
      </trkpt>
      <trkpt lat="43.61893" lon="3.35066">
        <ele>273</ele>
        <time>2016-02-21T13:17:40Z</time>
      </trkpt>
      <trkpt lat="43.61897" lon="3.35061">
        <ele>275</ele>
        <time>2016-02-21T13:17:41Z</time>
      </trkpt>
      <trkpt lat="43.61901" lon="3.35057">
        <ele>276</ele>
        <time>2016-02-21T13:17:43Z</time>
      </trkpt>
      <trkpt lat="43.61903" lon="3.35055">
        <ele>276</ele>
        <time>2016-02-21T13:17:44Z</time>
      </trkpt>
      <trkpt lat="43.61904" lon="3.35052">
        <ele>276.5</ele>
        <time>2016-02-21T13:17:46Z</time>
      </trkpt>
      <trkpt lat="43.61909" lon="3.3505">
        <ele>277</ele>
        <time>2016-02-21T13:17:47Z</time>
      </trkpt>
      <trkpt lat="43.61911" lon="3.3505">
        <ele>277.5</ele>
        <time>2016-02-21T13:17:49Z</time>
      </trkpt>
      <trkpt lat="43.61915" lon="3.35049">
        <ele>279.5</ele>
        <time>2016-02-21T13:17:50Z</time>
      </trkpt>
      <trkpt lat="43.61917" lon="3.35049">
        <ele>280.5</ele>
        <time>2016-02-21T13:17:51Z</time>
      </trkpt>
      <trkpt lat="43.6192" lon="3.35049">
        <ele>281</ele>
        <time>2016-02-21T13:17:53Z</time>
      </trkpt>
      <trkpt lat="43.61924" lon="3.35049">
        <ele>283</ele>
        <time>2016-02-21T13:17:54Z</time>
      </trkpt>
      <trkpt lat="43.61928" lon="3.3505">
        <ele>284</ele>
        <time>2016-02-21T13:17:56Z</time>
      </trkpt>
      <trkpt lat="43.61931" lon="3.3505">
        <ele>285.5</ele>
        <time>2016-02-21T13:17:57Z</time>
      </trkpt>
      <trkpt lat="43.61933" lon="3.3505">
        <ele>286.5</ele>
        <time>2016-02-21T13:17:58Z</time>
      </trkpt>
      <trkpt lat="43.61935" lon="3.35049">
        <ele>289</ele>
        <time>2016-02-21T13:18:00Z</time>
      </trkpt>
      <trkpt lat="43.61939" lon="3.35048">
        <ele>293</ele>
        <time>2016-02-21T13:18:01Z</time>
      </trkpt>
      <trkpt lat="43.61943" lon="3.35048">
        <ele>294</ele>
        <time>2016-02-21T13:18:03Z</time>
      </trkpt>
      <trkpt lat="43.61944" lon="3.35048">
        <ele>294</ele>
        <time>2016-02-21T13:18:04Z</time>
      </trkpt>
      <trkpt lat="43.61947" lon="3.35049">
        <ele>293</ele>
        <time>2016-02-21T13:18:06Z</time>
      </trkpt>
      <trkpt lat="43.6195" lon="3.35049">
        <ele>293</ele>
        <time>2016-02-21T13:18:07Z</time>
      </trkpt>
      <trkpt lat="43.61954" lon="3.35049">
        <ele>293</ele>
        <time>2016-02-21T13:18:09Z</time>
      </trkpt>
      <trkpt lat="43.61956" lon="3.35049">
        <ele>294</ele>
        <time>2016-02-21T13:18:10Z</time>
      </trkpt>
      <trkpt lat="43.61958" lon="3.35048">
        <ele>294</ele>
        <time>2016-02-21T13:18:11Z</time>
      </trkpt>
      <trkpt lat="43.6196" lon="3.35049">
        <ele>294</ele>
        <time>2016-02-21T13:18:13Z</time>
      </trkpt>
      <trkpt lat="43.61963" lon="3.35049">
        <ele>293.5</ele>
        <time>2016-02-21T13:18:14Z</time>
      </trkpt>
      <trkpt lat="43.61964" lon="3.35049">
        <ele>293.5</ele>
        <time>2016-02-21T13:18:16Z</time>
      </trkpt>
      <trkpt lat="43.61967" lon="3.35047">
        <ele>292.5</ele>
        <time>2016-02-21T13:18:17Z</time>
      </trkpt>
      <trkpt lat="43.61969" lon="3.35047">
        <ele>292.5</ele>
        <time>2016-02-21T13:18:18Z</time>
      </trkpt>
      <trkpt lat="43.61971" lon="3.35046">
        <ele>292.5</ele>
        <time>2016-02-21T13:18:19Z</time>
      </trkpt>
      <trkpt lat="43.61973" lon="3.35046">
        <ele>292.5</ele>
        <time>2016-02-21T13:18:21Z</time>
      </trkpt>
      <trkpt lat="43.61977" lon="3.35046">
        <ele>292</ele>
        <time>2016-02-21T13:18:22Z</time>
      </trkpt>
      <trkpt lat="43.61981" lon="3.35044">
        <ele>292.5</ele>
        <time>2016-02-21T13:18:24Z</time>
      </trkpt>
      <trkpt lat="43.61985" lon="3.35043">
        <ele>292.5</ele>
        <time>2016-02-21T13:18:26Z</time>
      </trkpt>
      <trkpt lat="43.61986" lon="3.35043">
        <ele>294</ele>
        <time>2016-02-21T13:18:28Z</time>
      </trkpt>
      <trkpt lat="43.61989" lon="3.35043">
        <ele>293.5</ele>
        <time>2016-02-21T13:18:29Z</time>
      </trkpt>
      <trkpt lat="43.61991" lon="3.35042">
        <ele>293</ele>
        <time>2016-02-21T13:18:32Z</time>
      </trkpt>
      <trkpt lat="43.61994" lon="3.35041">
        <ele>293</ele>
        <time>2016-02-21T13:18:33Z</time>
      </trkpt>
      <trkpt lat="43.61996" lon="3.3504">
        <ele>293</ele>
        <time>2016-02-21T13:18:34Z</time>
      </trkpt>
      <trkpt lat="43.61998" lon="3.35041">
        <ele>292.5</ele>
        <time>2016-02-21T13:18:35Z</time>
      </trkpt>
      <trkpt lat="43.62001" lon="3.35041">
        <ele>292</ele>
        <time>2016-02-21T13:18:37Z</time>
      </trkpt>
      <trkpt lat="43.62003" lon="3.35041">
        <ele>292.5</ele>
        <time>2016-02-21T13:18:38Z</time>
      </trkpt>
      <trkpt lat="43.62007" lon="3.35041">
        <ele>292.5</ele>
        <time>2016-02-21T13:18:40Z</time>
      </trkpt>
      <trkpt lat="43.62009" lon="3.35041">
        <ele>293.5</ele>
        <time>2016-02-21T13:18:41Z</time>
      </trkpt>
      <trkpt lat="43.62011" lon="3.35041">
        <ele>293</ele>
        <time>2016-02-21T13:18:42Z</time>
      </trkpt>
      <trkpt lat="43.62014" lon="3.35041">
        <ele>293.5</ele>
        <time>2016-02-21T13:18:44Z</time>
      </trkpt>
      <trkpt lat="43.62018" lon="3.35041">
        <ele>294</ele>
        <time>2016-02-21T13:18:46Z</time>
      </trkpt>
      <trkpt lat="43.62019" lon="3.35042">
        <ele>294.5</ele>
        <time>2016-02-21T13:18:47Z</time>
      </trkpt>
      <trkpt lat="43.62021" lon="3.35042">
        <ele>295</ele>
        <time>2016-02-21T13:18:48Z</time>
      </trkpt>
      <trkpt lat="43.62024" lon="3.35043">
        <ele>295.5</ele>
        <time>2016-02-21T13:18:49Z</time>
      </trkpt>
      <trkpt lat="43.62028" lon="3.35043">
        <ele>298</ele>
        <time>2016-02-21T13:18:51Z</time>
      </trkpt>
      <trkpt lat="43.62032" lon="3.35043">
        <ele>299</ele>
        <time>2016-02-21T13:18:53Z</time>
      </trkpt>
      <trkpt lat="43.62034" lon="3.35043">
        <ele>300</ele>
        <time>2016-02-21T13:18:54Z</time>
      </trkpt>
      <trkpt lat="43.62036" lon="3.35043">
        <ele>301</ele>
        <time>2016-02-21T13:18:55Z</time>
      </trkpt>
      <trkpt lat="43.62038" lon="3.35043">
        <ele>300.5</ele>
        <time>2016-02-21T13:18:56Z</time>
      </trkpt>
      <trkpt lat="43.62042" lon="3.35043">
        <ele>300</ele>
        <time>2016-02-21T13:18:58Z</time>
      </trkpt>
      <trkpt lat="43.62045" lon="3.35041">
        <ele>299</ele>
        <time>2016-02-21T13:19:00Z</time>
      </trkpt>
      <trkpt lat="43.62048" lon="3.35039">
        <ele>299</ele>
        <time>2016-02-21T13:19:02Z</time>
      </trkpt>
      <trkpt lat="43.62049" lon="3.35038">
        <ele>299</ele>
        <time>2016-02-21T13:19:03Z</time>
      </trkpt>
      <trkpt lat="43.62051" lon="3.35037">
        <ele>298</ele>
        <time>2016-02-21T13:19:04Z</time>
      </trkpt>
      <trkpt lat="43.62054" lon="3.35034">
        <ele>296.5</ele>
        <time>2016-02-21T13:19:06Z</time>
      </trkpt>
      <trkpt lat="43.62057" lon="3.35031">
        <ele>296</ele>
        <time>2016-02-21T13:19:08Z</time>
      </trkpt>
      <trkpt lat="43.62059" lon="3.3503">
        <ele>295.5</ele>
        <time>2016-02-21T13:19:09Z</time>
      </trkpt>
      <trkpt lat="43.62061" lon="3.35028">
        <ele>295</ele>
        <time>2016-02-21T13:19:11Z</time>
      </trkpt>
      <trkpt lat="43.62063" lon="3.35025">
        <ele>293.5</ele>
        <time>2016-02-21T13:19:13Z</time>
      </trkpt>
      <trkpt lat="43.62065" lon="3.35024">
        <ele>292</ele>
        <time>2016-02-21T13:19:14Z</time>
      </trkpt>
      <trkpt lat="43.62067" lon="3.35022">
        <ele>291.5</ele>
        <time>2016-02-21T13:19:16Z</time>
      </trkpt>
      <trkpt lat="43.62068" lon="3.3502">
        <ele>290.5</ele>
        <time>2016-02-21T13:19:17Z</time>
      </trkpt>
      <trkpt lat="43.62069" lon="3.35018">
        <ele>290.5</ele>
        <time>2016-02-21T13:19:18Z</time>
      </trkpt>
      <trkpt lat="43.62069" lon="3.35017">
        <ele>290.5</ele>
        <time>2016-02-21T13:19:19Z</time>
      </trkpt>
      <trkpt lat="43.6207" lon="3.35015">
        <ele>291.5</ele>
        <time>2016-02-21T13:19:20Z</time>
      </trkpt>
      <trkpt lat="43.62071" lon="3.35013">
        <ele>291.5</ele>
        <time>2016-02-21T13:19:21Z</time>
      </trkpt>
      <trkpt lat="43.62073" lon="3.35009">
        <ele>290.5</ele>
        <time>2016-02-21T13:19:23Z</time>
      </trkpt>
      <trkpt lat="43.62074" lon="3.35006">
        <ele>290.5</ele>
        <time>2016-02-21T13:19:24Z</time>
      </trkpt>
      <trkpt lat="43.62076" lon="3.35004">
        <ele>291</ele>
        <time>2016-02-21T13:19:25Z</time>
      </trkpt>
      <trkpt lat="43.62078" lon="3.35002">
        <ele>292</ele>
        <time>2016-02-21T13:19:26Z</time>
      </trkpt>
      <trkpt lat="43.62081" lon="3.34999">
        <ele>291</ele>
        <time>2016-02-21T13:19:28Z</time>
      </trkpt>
      <trkpt lat="43.62083" lon="3.34997">
        <ele>291</ele>
        <time>2016-02-21T13:19:30Z</time>
      </trkpt>
      <trkpt lat="43.62086" lon="3.34994">
        <ele>291</ele>
        <time>2016-02-21T13:19:32Z</time>
      </trkpt>
      <trkpt lat="43.62087" lon="3.34993">
        <ele>291</ele>
        <time>2016-02-21T13:19:33Z</time>
      </trkpt>
      <trkpt lat="43.62089" lon="3.34989">
        <ele>289.5</ele>
        <time>2016-02-21T13:19:35Z</time>
      </trkpt>
      <trkpt lat="43.62091" lon="3.34987">
        <ele>288</ele>
        <time>2016-02-21T13:19:37Z</time>
      </trkpt>
      <trkpt lat="43.62091" lon="3.34985">
        <ele>286.5</ele>
        <time>2016-02-21T13:19:38Z</time>
      </trkpt>
      <trkpt lat="43.62092" lon="3.34983">
        <ele>286.5</ele>
        <time>2016-02-21T13:19:39Z</time>
      </trkpt>
      <trkpt lat="43.62093" lon="3.34982">
        <ele>285.5</ele>
        <time>2016-02-21T13:19:40Z</time>
      </trkpt>
      <trkpt lat="43.62094" lon="3.34978">
        <ele>284.5</ele>
        <time>2016-02-21T13:19:42Z</time>
      </trkpt>
      <trkpt lat="43.62095" lon="3.34976">
        <ele>285.5</ele>
        <time>2016-02-21T13:19:43Z</time>
      </trkpt>
      <trkpt lat="43.62096" lon="3.34973">
        <ele>286.5</ele>
        <time>2016-02-21T13:19:45Z</time>
      </trkpt>
      <trkpt lat="43.62097" lon="3.34971">
        <ele>289</ele>
        <time>2016-02-21T13:19:46Z</time>
      </trkpt>
      <trkpt lat="43.62098" lon="3.34967">
        <ele>289.5</ele>
        <time>2016-02-21T13:19:48Z</time>
      </trkpt>
      <trkpt lat="43.62099" lon="3.34964">
        <ele>289</ele>
        <time>2016-02-21T13:19:50Z</time>
      </trkpt>
      <trkpt lat="43.62101" lon="3.34962">
        <ele>289.5</ele>
        <time>2016-02-21T13:19:51Z</time>
      </trkpt>
      <trkpt lat="43.62101" lon="3.3496">
        <ele>290</ele>
        <time>2016-02-21T13:19:52Z</time>
      </trkpt>
      <trkpt lat="43.62103" lon="3.34957">
        <ele>292</ele>
        <time>2016-02-21T13:19:54Z</time>
      </trkpt>
      <trkpt lat="43.62106" lon="3.34954">
        <ele>292</ele>
        <time>2016-02-21T13:19:56Z</time>
      </trkpt>
      <trkpt lat="43.62107" lon="3.34952">
        <ele>292.5</ele>
        <time>2016-02-21T13:19:57Z</time>
      </trkpt>
      <trkpt lat="43.62109" lon="3.34948">
        <ele>293.5</ele>
        <time>2016-02-21T13:19:59Z</time>
      </trkpt>
      <trkpt lat="43.62111" lon="3.34946">
        <ele>295</ele>
        <time>2016-02-21T13:20:00Z</time>
      </trkpt>
      <trkpt lat="43.62112" lon="3.34944">
        <ele>294.5</ele>
        <time>2016-02-21T13:20:01Z</time>
      </trkpt>
      <trkpt lat="43.62114" lon="3.34943">
        <ele>294</ele>
        <time>2016-02-21T13:20:02Z</time>
      </trkpt>
      <trkpt lat="43.62115" lon="3.34941">
        <ele>294.5</ele>
        <time>2016-02-21T13:20:03Z</time>
      </trkpt>
      <trkpt lat="43.62116" lon="3.34939">
        <ele>293.5</ele>
        <time>2016-02-21T13:20:04Z</time>
      </trkpt>
      <trkpt lat="43.62119" lon="3.34936">
        <ele>290</ele>
        <time>2016-02-21T13:20:06Z</time>
      </trkpt>
      <trkpt lat="43.6212" lon="3.34934">
        <ele>290.5</ele>
        <time>2016-02-21T13:20:07Z</time>
      </trkpt>
      <trkpt lat="43.62122" lon="3.34933">
        <ele>291</ele>
        <time>2016-02-21T13:20:08Z</time>
      </trkpt>
      <trkpt lat="43.62124" lon="3.34931">
        <ele>292</ele>
        <time>2016-02-21T13:20:09Z</time>
      </trkpt>
      <trkpt lat="43.62127" lon="3.34929">
        <ele>292</ele>
        <time>2016-02-21T13:20:11Z</time>
      </trkpt>
      <trkpt lat="43.62128" lon="3.34927">
        <ele>292</ele>
        <time>2016-02-21T13:20:12Z</time>
      </trkpt>
      <trkpt lat="43.62131" lon="3.34927">
        <ele>293.5</ele>
        <time>2016-02-21T13:20:14Z</time>
      </trkpt>
      <trkpt lat="43.62134" lon="3.34924">
        <ele>294</ele>
        <time>2016-02-21T13:20:16Z</time>
      </trkpt>
      <trkpt lat="43.62136" lon="3.34923">
        <ele>294</ele>
        <time>2016-02-21T13:20:19Z</time>
      </trkpt>
      <trkpt lat="43.62139" lon="3.34921">
        <ele>294</ele>
        <time>2016-02-21T13:20:21Z</time>
      </trkpt>
      <trkpt lat="43.62142" lon="3.34918">
        <ele>295</ele>
        <time>2016-02-21T13:20:23Z</time>
      </trkpt>
      <trkpt lat="43.62145" lon="3.34914">
        <ele>294.5</ele>
        <time>2016-02-21T13:20:25Z</time>
      </trkpt>
      <trkpt lat="43.62147" lon="3.34912">
        <ele>293.5</ele>
        <time>2016-02-21T13:20:26Z</time>
      </trkpt>
      <trkpt lat="43.62148" lon="3.34911">
        <ele>293</ele>
        <time>2016-02-21T13:20:27Z</time>
      </trkpt>
      <trkpt lat="43.62149" lon="3.3491">
        <ele>293.5</ele>
        <time>2016-02-21T13:20:28Z</time>
      </trkpt>
      <trkpt lat="43.6215" lon="3.34909">
        <ele>295</ele>
        <time>2016-02-21T13:20:29Z</time>
      </trkpt>
      <trkpt lat="43.62154" lon="3.34906">
        <ele>297.5</ele>
        <time>2016-02-21T13:20:31Z</time>
      </trkpt>
      <trkpt lat="43.62155" lon="3.34904">
        <ele>295.5</ele>
        <time>2016-02-21T13:20:32Z</time>
      </trkpt>
      <trkpt lat="43.62157" lon="3.34903">
        <ele>295.5</ele>
        <time>2016-02-21T13:20:32Z</time>
      </trkpt>
      <trkpt lat="43.62157" lon="3.34901">
        <ele>292</ele>
        <time>2016-02-21T13:20:34Z</time>
      </trkpt>
      <trkpt lat="43.62161" lon="3.34898">
        <ele>291.5</ele>
        <time>2016-02-21T13:20:36Z</time>
      </trkpt>
      <trkpt lat="43.62166" lon="3.34895">
        <ele>291.5</ele>
        <time>2016-02-21T13:20:37Z</time>
      </trkpt>
      <trkpt lat="43.6217" lon="3.34893">
        <ele>293.5</ele>
        <time>2016-02-21T13:20:38Z</time>
      </trkpt>
      <trkpt lat="43.62173" lon="3.34892">
        <ele>293.5</ele>
        <time>2016-02-21T13:20:40Z</time>
      </trkpt>
      <trkpt lat="43.62178" lon="3.3489">
        <ele>294</ele>
        <time>2016-02-21T13:20:42Z</time>
      </trkpt>
      <trkpt lat="43.62183" lon="3.34887">
        <ele>294.5</ele>
        <time>2016-02-21T13:20:43Z</time>
      </trkpt>
      <trkpt lat="43.62186" lon="3.34886">
        <ele>295.5</ele>
        <time>2016-02-21T13:20:45Z</time>
      </trkpt>
      <trkpt lat="43.62188" lon="3.34883">
        <ele>294.5</ele>
        <time>2016-02-21T13:20:47Z</time>
      </trkpt>
      <trkpt lat="43.62191" lon="3.34879">
        <ele>293.5</ele>
        <time>2016-02-21T13:20:48Z</time>
      </trkpt>
      <trkpt lat="43.62192" lon="3.34878">
        <ele>292.5</ele>
        <time>2016-02-21T13:20:49Z</time>
      </trkpt>
      <trkpt lat="43.62194" lon="3.34877">
        <ele>292</ele>
        <time>2016-02-21T13:20:51Z</time>
      </trkpt>
      <trkpt lat="43.62198" lon="3.34877">
        <ele>294</ele>
        <time>2016-02-21T13:20:53Z</time>
      </trkpt>
      <trkpt lat="43.62203" lon="3.34878">
        <ele>295.5</ele>
        <time>2016-02-21T13:20:54Z</time>
      </trkpt>
      <trkpt lat="43.62205" lon="3.3488">
        <ele>295.5</ele>
        <time>2016-02-21T13:20:56Z</time>
      </trkpt>
      <trkpt lat="43.62209" lon="3.34883">
        <ele>296</ele>
        <time>2016-02-21T13:20:58Z</time>
      </trkpt>
      <trkpt lat="43.62211" lon="3.34886">
        <ele>298</ele>
        <time>2016-02-21T13:21:00Z</time>
      </trkpt>
      <trkpt lat="43.62214" lon="3.34889">
        <ele>298.5</ele>
        <time>2016-02-21T13:21:01Z</time>
      </trkpt>
      <trkpt lat="43.62217" lon="3.34891">
        <ele>299.5</ele>
        <time>2016-02-21T13:21:03Z</time>
      </trkpt>
      <trkpt lat="43.62219" lon="3.34892">
        <ele>300.5</ele>
        <time>2016-02-21T13:21:05Z</time>
      </trkpt>
      <trkpt lat="43.62222" lon="3.34893">
        <ele>302</ele>
        <time>2016-02-21T13:21:07Z</time>
      </trkpt>
      <trkpt lat="43.62225" lon="3.34894">
        <ele>305.5</ele>
        <time>2016-02-21T13:21:08Z</time>
      </trkpt>
      <trkpt lat="43.62226" lon="3.34895">
        <ele>306.5</ele>
        <time>2016-02-21T13:21:09Z</time>
      </trkpt>
      <trkpt lat="43.62228" lon="3.34896">
        <ele>307.5</ele>
        <time>2016-02-21T13:21:10Z</time>
      </trkpt>
      <trkpt lat="43.6223" lon="3.34897">
        <ele>308</ele>
        <time>2016-02-21T13:21:11Z</time>
      </trkpt>
      <trkpt lat="43.62231" lon="3.34897">
        <ele>309.5</ele>
        <time>2016-02-21T13:21:13Z</time>
      </trkpt>
      <trkpt lat="43.62234" lon="3.349">
        <ele>310.5</ele>
        <time>2016-02-21T13:21:15Z</time>
      </trkpt>
      <trkpt lat="43.62238" lon="3.34901">
        <ele>312</ele>
        <time>2016-02-21T13:21:16Z</time>
      </trkpt>
      <trkpt lat="43.6224" lon="3.34901">
        <ele>312.5</ele>
        <time>2016-02-21T13:21:17Z</time>
      </trkpt>
      <trkpt lat="43.62241" lon="3.34901">
        <ele>312.5</ele>
        <time>2016-02-21T13:21:19Z</time>
      </trkpt>
      <trkpt lat="43.62244" lon="3.34901">
        <ele>313</ele>
        <time>2016-02-21T13:21:21Z</time>
      </trkpt>
      <trkpt lat="43.62246" lon="3.34901">
        <ele>313.5</ele>
        <time>2016-02-21T13:21:22Z</time>
      </trkpt>
      <trkpt lat="43.62248" lon="3.34901">
        <ele>313</ele>
        <time>2016-02-21T13:21:23Z</time>
      </trkpt>
      <trkpt lat="43.6225" lon="3.34899">
        <ele>315</ele>
        <time>2016-02-21T13:21:25Z</time>
      </trkpt>
      <trkpt lat="43.62254" lon="3.34898">
        <ele>316</ele>
        <time>2016-02-21T13:21:26Z</time>
      </trkpt>
      <trkpt lat="43.62255" lon="3.34898">
        <ele>316.5</ele>
        <time>2016-02-21T13:21:28Z</time>
      </trkpt>
      <trkpt lat="43.62259" lon="3.34896">
        <ele>318.5</ele>
        <time>2016-02-21T13:21:29Z</time>
      </trkpt>
      <trkpt lat="43.62264" lon="3.34896">
        <ele>319.5</ele>
        <time>2016-02-21T13:21:31Z</time>
      </trkpt>
      <trkpt lat="43.62265" lon="3.34894">
        <ele>319.5</ele>
        <time>2016-02-21T13:21:33Z</time>
      </trkpt>
      <trkpt lat="43.6227" lon="3.34894">
        <ele>319.5</ele>
        <time>2016-02-21T13:21:34Z</time>
      </trkpt>
      <trkpt lat="43.62274" lon="3.34894">
        <ele>319.5</ele>
        <time>2016-02-21T13:21:37Z</time>
      </trkpt>
      <trkpt lat="43.62277" lon="3.34894">
        <ele>320</ele>
        <time>2016-02-21T13:21:38Z</time>
      </trkpt>
      <trkpt lat="43.62278" lon="3.34893">
        <ele>320</ele>
        <time>2016-02-21T13:21:39Z</time>
      </trkpt>
      <trkpt lat="43.62279" lon="3.3489">
        <ele>321.5</ele>
        <time>2016-02-21T13:21:40Z</time>
      </trkpt>
      <trkpt lat="43.62281" lon="3.34889">
        <ele>321.5</ele>
        <time>2016-02-21T13:21:42Z</time>
      </trkpt>
      <trkpt lat="43.62284" lon="3.34886">
        <ele>321.5</ele>
        <time>2016-02-21T13:21:43Z</time>
      </trkpt>
      <trkpt lat="43.62286" lon="3.34883">
        <ele>320.5</ele>
        <time>2016-02-21T13:21:45Z</time>
      </trkpt>
      <trkpt lat="43.62287" lon="3.34882">
        <ele>320.5</ele>
        <time>2016-02-21T13:21:46Z</time>
      </trkpt>
      <trkpt lat="43.62288" lon="3.3488">
        <ele>320.5</ele>
        <time>2016-02-21T13:21:47Z</time>
      </trkpt>
      <trkpt lat="43.62289" lon="3.34878">
        <ele>321</ele>
        <time>2016-02-21T13:21:48Z</time>
      </trkpt>
      <trkpt lat="43.6229" lon="3.34876">
        <ele>321</ele>
        <time>2016-02-21T13:21:49Z</time>
      </trkpt>
      <trkpt lat="43.62291" lon="3.34875">
        <ele>322.5</ele>
        <time>2016-02-21T13:21:50Z</time>
      </trkpt>
      <trkpt lat="43.62293" lon="3.34873">
        <ele>322.5</ele>
        <time>2016-02-21T13:21:51Z</time>
      </trkpt>
      <trkpt lat="43.62294" lon="3.34872">
        <ele>322.5</ele>
        <time>2016-02-21T13:21:52Z</time>
      </trkpt>
      <trkpt lat="43.62295" lon="3.3487">
        <ele>322.5</ele>
        <time>2016-02-21T13:21:53Z</time>
      </trkpt>
      <trkpt lat="43.62296" lon="3.34869">
        <ele>322.5</ele>
        <time>2016-02-21T13:21:54Z</time>
      </trkpt>
      <trkpt lat="43.62298" lon="3.34867">
        <ele>322.5</ele>
        <time>2016-02-21T13:21:56Z</time>
      </trkpt>
      <trkpt lat="43.623" lon="3.34863">
        <ele>322.5</ele>
        <time>2016-02-21T13:21:58Z</time>
      </trkpt>
      <trkpt lat="43.62302" lon="3.3486">
        <ele>321</ele>
        <time>2016-02-21T13:21:59Z</time>
      </trkpt>
      <trkpt lat="43.62305" lon="3.34855">
        <ele>319.5</ele>
        <time>2016-02-21T13:22:01Z</time>
      </trkpt>
      <trkpt lat="43.62307" lon="3.34852">
        <ele>319.5</ele>
        <time>2016-02-21T13:22:02Z</time>
      </trkpt>
      <trkpt lat="43.62309" lon="3.3485">
        <ele>319.5</ele>
        <time>2016-02-21T13:22:04Z</time>
      </trkpt>
      <trkpt lat="43.62313" lon="3.34846">
        <ele>318.5</ele>
        <time>2016-02-21T13:22:05Z</time>
      </trkpt>
      <trkpt lat="43.62315" lon="3.34843">
        <ele>317.5</ele>
        <time>2016-02-21T13:22:07Z</time>
      </trkpt>
      <trkpt lat="43.6232" lon="3.34839">
        <ele>316.5</ele>
        <time>2016-02-21T13:22:08Z</time>
      </trkpt>
      <trkpt lat="43.62321" lon="3.34838">
        <ele>316</ele>
        <time>2016-02-21T13:22:10Z</time>
      </trkpt>
      <trkpt lat="43.62326" lon="3.34834">
        <ele>316</ele>
        <time>2016-02-21T13:22:11Z</time>
      </trkpt>
      <trkpt lat="43.62331" lon="3.34832">
        <ele>316</ele>
        <time>2016-02-21T13:22:13Z</time>
      </trkpt>
      <trkpt lat="43.62333" lon="3.34831">
        <ele>317</ele>
        <time>2016-02-21T13:22:14Z</time>
      </trkpt>
      <trkpt lat="43.62335" lon="3.34831">
        <ele>317.5</ele>
        <time>2016-02-21T13:22:15Z</time>
      </trkpt>
      <trkpt lat="43.62338" lon="3.34831">
        <ele>317.5</ele>
        <time>2016-02-21T13:22:17Z</time>
      </trkpt>
      <trkpt lat="43.62343" lon="3.34831">
        <ele>318</ele>
        <time>2016-02-21T13:22:18Z</time>
      </trkpt>
      <trkpt lat="43.62348" lon="3.3483">
        <ele>320.5</ele>
        <time>2016-02-21T13:22:20Z</time>
      </trkpt>
      <trkpt lat="43.62351" lon="3.34828">
        <ele>322</ele>
        <time>2016-02-21T13:22:22Z</time>
      </trkpt>
      <trkpt lat="43.62355" lon="3.34825">
        <ele>323</ele>
        <time>2016-02-21T13:22:23Z</time>
      </trkpt>
      <trkpt lat="43.62357" lon="3.34824">
        <ele>323</ele>
        <time>2016-02-21T13:22:25Z</time>
      </trkpt>
      <trkpt lat="43.62361" lon="3.3482">
        <ele>323.5</ele>
        <time>2016-02-21T13:22:26Z</time>
      </trkpt>
      <trkpt lat="43.62363" lon="3.34816">
        <ele>324</ele>
        <time>2016-02-21T13:22:28Z</time>
      </trkpt>
      <trkpt lat="43.62365" lon="3.34814">
        <ele>323.5</ele>
        <time>2016-02-21T13:22:30Z</time>
      </trkpt>
      <trkpt lat="43.62367" lon="3.34809">
        <ele>324.5</ele>
        <time>2016-02-21T13:22:31Z</time>
      </trkpt>
      <trkpt lat="43.62369" lon="3.34807">
        <ele>325.5</ele>
        <time>2016-02-21T13:22:33Z</time>
      </trkpt>
      <trkpt lat="43.62372" lon="3.34803">
        <ele>329</ele>
        <time>2016-02-21T13:22:34Z</time>
      </trkpt>
      <trkpt lat="43.62374" lon="3.34801">
        <ele>329</ele>
        <time>2016-02-21T13:22:36Z</time>
      </trkpt>
      <trkpt lat="43.62378" lon="3.34797">
        <ele>329</ele>
        <time>2016-02-21T13:22:37Z</time>
      </trkpt>
      <trkpt lat="43.62382" lon="3.34793">
        <ele>329.5</ele>
        <time>2016-02-21T13:22:39Z</time>
      </trkpt>
      <trkpt lat="43.62384" lon="3.34791">
        <ele>330</ele>
        <time>2016-02-21T13:22:41Z</time>
      </trkpt>
      <trkpt lat="43.62388" lon="3.34786">
        <ele>332.5</ele>
        <time>2016-02-21T13:22:42Z</time>
      </trkpt>
      <trkpt lat="43.62392" lon="3.34782">
        <ele>334</ele>
        <time>2016-02-21T13:22:44Z</time>
      </trkpt>
      <trkpt lat="43.62394" lon="3.3478">
        <ele>334.5</ele>
        <time>2016-02-21T13:22:45Z</time>
      </trkpt>
      <trkpt lat="43.62395" lon="3.34777">
        <ele>335.5</ele>
        <time>2016-02-21T13:22:46Z</time>
      </trkpt>
      <trkpt lat="43.62397" lon="3.34776">
        <ele>335.5</ele>
        <time>2016-02-21T13:22:48Z</time>
      </trkpt>
      <trkpt lat="43.62401" lon="3.34773">
        <ele>336.5</ele>
        <time>2016-02-21T13:22:49Z</time>
      </trkpt>
      <trkpt lat="43.62404" lon="3.34771">
        <ele>337.5</ele>
        <time>2016-02-21T13:22:51Z</time>
      </trkpt>
      <trkpt lat="43.62409" lon="3.34769">
        <ele>337.5</ele>
        <time>2016-02-21T13:22:52Z</time>
      </trkpt>
      <trkpt lat="43.62413" lon="3.34771">
        <ele>337</ele>
        <time>2016-02-21T13:22:53Z</time>
      </trkpt>
      <trkpt lat="43.62417" lon="3.34771">
        <ele>337.5</ele>
        <time>2016-02-21T13:22:55Z</time>
      </trkpt>
      <trkpt lat="43.62427" lon="3.34772">
        <ele>339</ele>
        <time>2016-02-21T13:22:56Z</time>
      </trkpt>
      <trkpt lat="43.62436" lon="3.34773">
        <ele>340</ele>
        <time>2016-02-21T13:22:58Z</time>
      </trkpt>
      <trkpt lat="43.62441" lon="3.34774">
        <ele>339.5</ele>
        <time>2016-02-21T13:22:59Z</time>
      </trkpt>
      <trkpt lat="43.62446" lon="3.34776">
        <ele>339.5</ele>
        <time>2016-02-21T13:23:01Z</time>
      </trkpt>
      <trkpt lat="43.62454" lon="3.34782">
        <ele>339</ele>
        <time>2016-02-21T13:23:02Z</time>
      </trkpt>
      <trkpt lat="43.6246" lon="3.34785">
        <ele>341.5</ele>
        <time>2016-02-21T13:23:04Z</time>
      </trkpt>
      <trkpt lat="43.62463" lon="3.34786">
        <ele>343</ele>
        <time>2016-02-21T13:23:06Z</time>
      </trkpt>
      <trkpt lat="43.62467" lon="3.3479">
        <ele>343</ele>
        <time>2016-02-21T13:23:07Z</time>
      </trkpt>
      <trkpt lat="43.6247" lon="3.34793">
        <ele>343</ele>
        <time>2016-02-21T13:23:09Z</time>
      </trkpt>
      <trkpt lat="43.62472" lon="3.34794">
        <ele>343.5</ele>
        <time>2016-02-21T13:23:10Z</time>
      </trkpt>
      <trkpt lat="43.62473" lon="3.34795">
        <ele>344.5</ele>
        <time>2016-02-21T13:23:11Z</time>
      </trkpt>
      <trkpt lat="43.62475" lon="3.34796">
        <ele>345</ele>
        <time>2016-02-21T13:23:12Z</time>
      </trkpt>
      <trkpt lat="43.62477" lon="3.34797">
        <ele>345.5</ele>
        <time>2016-02-21T13:23:13Z</time>
      </trkpt>
      <trkpt lat="43.62479" lon="3.34798">
        <ele>346</ele>
        <time>2016-02-21T13:23:15Z</time>
      </trkpt>
      <trkpt lat="43.62483" lon="3.348">
        <ele>347</ele>
        <time>2016-02-21T13:23:16Z</time>
      </trkpt>
      <trkpt lat="43.62485" lon="3.34802">
        <ele>346</ele>
        <time>2016-02-21T13:23:18Z</time>
      </trkpt>
      <trkpt lat="43.62486" lon="3.34801">
        <ele>346</ele>
        <time>2016-02-21T13:23:19Z</time>
      </trkpt>
      <trkpt lat="43.62487" lon="3.34802">
        <ele>345</ele>
        <time>2016-02-21T13:23:21Z</time>
      </trkpt>
      <trkpt lat="43.6249" lon="3.34801">
        <ele>346</ele>
        <time>2016-02-21T13:23:22Z</time>
      </trkpt>
      <trkpt lat="43.62492" lon="3.34802">
        <ele>346</ele>
        <time>2016-02-21T13:23:24Z</time>
      </trkpt>
      <trkpt lat="43.62499" lon="3.34799">
        <ele>347.5</ele>
        <time>2016-02-21T13:23:25Z</time>
      </trkpt>
      <trkpt lat="43.62505" lon="3.34798">
        <ele>347</ele>
        <time>2016-02-21T13:23:27Z</time>
      </trkpt>
      <trkpt lat="43.62508" lon="3.34799">
        <ele>347.5</ele>
        <time>2016-02-21T13:23:29Z</time>
      </trkpt>
      <trkpt lat="43.62514" lon="3.34805">
        <ele>346.5</ele>
        <time>2016-02-21T13:23:30Z</time>
      </trkpt>
      <trkpt lat="43.62522" lon="3.34808">
        <ele>346.5</ele>
        <time>2016-02-21T13:23:32Z</time>
      </trkpt>
      <trkpt lat="43.6253" lon="3.34813">
        <ele>346</ele>
        <time>2016-02-21T13:23:34Z</time>
      </trkpt>
      <trkpt lat="43.62532" lon="3.34814">
        <ele>346.5</ele>
        <time>2016-02-21T13:23:36Z</time>
      </trkpt>
      <trkpt lat="43.62535" lon="3.34817">
        <ele>347</ele>
        <time>2016-02-21T13:23:37Z</time>
      </trkpt>
      <trkpt lat="43.62537" lon="3.34818">
        <ele>347.5</ele>
        <time>2016-02-21T13:23:39Z</time>
      </trkpt>
      <trkpt lat="43.62541" lon="3.34821">
        <ele>347</ele>
        <time>2016-02-21T13:23:40Z</time>
      </trkpt>
      <trkpt lat="43.62545" lon="3.34822">
        <ele>347</ele>
        <time>2016-02-21T13:23:43Z</time>
      </trkpt>
      <trkpt lat="43.62549" lon="3.34822">
        <ele>347</ele>
        <time>2016-02-21T13:23:44Z</time>
      </trkpt>
      <trkpt lat="43.62554" lon="3.34821">
        <ele>346.5</ele>
        <time>2016-02-21T13:23:46Z</time>
      </trkpt>
      <trkpt lat="43.62557" lon="3.34821">
        <ele>346.5</ele>
        <time>2016-02-21T13:23:48Z</time>
      </trkpt>
      <trkpt lat="43.62561" lon="3.3482">
        <ele>347.5</ele>
        <time>2016-02-21T13:23:49Z</time>
      </trkpt>
      <trkpt lat="43.62563" lon="3.3482">
        <ele>347.5</ele>
        <time>2016-02-21T13:23:51Z</time>
      </trkpt>
      <trkpt lat="43.62566" lon="3.34817">
        <ele>348</ele>
        <time>2016-02-21T13:23:52Z</time>
      </trkpt>
      <trkpt lat="43.62571" lon="3.34817">
        <ele>345.5</ele>
        <time>2016-02-21T13:23:54Z</time>
      </trkpt>
      <trkpt lat="43.62574" lon="3.34818">
        <ele>344.5</ele>
        <time>2016-02-21T13:23:55Z</time>
      </trkpt>
      <trkpt lat="43.62579" lon="3.34818">
        <ele>344</ele>
        <time>2016-02-21T13:23:57Z</time>
      </trkpt>
      <trkpt lat="43.62584" lon="3.34819">
        <ele>343.5</ele>
        <time>2016-02-21T13:23:59Z</time>
      </trkpt>
      <trkpt lat="43.62586" lon="3.3482">
        <ele>343.5</ele>
        <time>2016-02-21T13:24:00Z</time>
      </trkpt>
      <trkpt lat="43.6259" lon="3.34823">
        <ele>343</ele>
        <time>2016-02-21T13:24:02Z</time>
      </trkpt>
      <trkpt lat="43.62593" lon="3.34829">
        <ele>343</ele>
        <time>2016-02-21T13:24:04Z</time>
      </trkpt>
      <trkpt lat="43.62594" lon="3.34831">
        <ele>343</ele>
        <time>2016-02-21T13:24:05Z</time>
      </trkpt>
      <trkpt lat="43.62594" lon="3.34836">
        <ele>343.5</ele>
        <time>2016-02-21T13:24:07Z</time>
      </trkpt>
      <trkpt lat="43.62595" lon="3.34838">
        <ele>344</ele>
        <time>2016-02-21T13:24:08Z</time>
      </trkpt>
      <trkpt lat="43.62595" lon="3.34843">
        <ele>344</ele>
        <time>2016-02-21T13:24:10Z</time>
      </trkpt>
      <trkpt lat="43.62596" lon="3.34845">
        <ele>346.5</ele>
        <time>2016-02-21T13:24:12Z</time>
      </trkpt>
      <trkpt lat="43.62596" lon="3.34848">
        <ele>346.5</ele>
        <time>2016-02-21T13:24:13Z</time>
      </trkpt>
      <trkpt lat="43.62597" lon="3.34852">
        <ele>346.5</ele>
        <time>2016-02-21T13:24:15Z</time>
      </trkpt>
      <trkpt lat="43.62598" lon="3.34857">
        <ele>346</ele>
        <time>2016-02-21T13:24:17Z</time>
      </trkpt>
      <trkpt lat="43.626" lon="3.34859">
        <ele>346</ele>
        <time>2016-02-21T13:24:18Z</time>
      </trkpt>
      <trkpt lat="43.626" lon="3.34861">
        <ele>346</ele>
        <time>2016-02-21T13:24:19Z</time>
      </trkpt>
      <trkpt lat="43.62603" lon="3.34863">
        <ele>347</ele>
        <time>2016-02-21T13:24:20Z</time>
      </trkpt>
      <trkpt lat="43.62603" lon="3.34866">
        <ele>347.5</ele>
        <time>2016-02-21T13:24:21Z</time>
      </trkpt>
      <trkpt lat="43.62604" lon="3.34869">
        <ele>346.5</ele>
        <time>2016-02-21T13:24:22Z</time>
      </trkpt>
      <trkpt lat="43.62606" lon="3.34877">
        <ele>346</ele>
        <time>2016-02-21T13:24:24Z</time>
      </trkpt>
      <trkpt lat="43.62607" lon="3.34882">
        <ele>346</ele>
        <time>2016-02-21T13:24:25Z</time>
      </trkpt>
      <trkpt lat="43.62608" lon="3.34887">
        <ele>344.5</ele>
        <time>2016-02-21T13:24:26Z</time>
      </trkpt>
      <trkpt lat="43.62611" lon="3.34892">
        <ele>345</ele>
        <time>2016-02-21T13:24:27Z</time>
      </trkpt>
      <trkpt lat="43.62618" lon="3.34898">
        <ele>346</ele>
        <time>2016-02-21T13:24:29Z</time>
      </trkpt>
      <trkpt lat="43.62622" lon="3.34902">
        <ele>346.5</ele>
        <time>2016-02-21T13:24:30Z</time>
      </trkpt>
      <trkpt lat="43.62625" lon="3.34908">
        <ele>347</ele>
        <time>2016-02-21T13:24:31Z</time>
      </trkpt>
      <trkpt lat="43.62632" lon="3.34918">
        <ele>349</ele>
        <time>2016-02-21T13:24:33Z</time>
      </trkpt>
      <trkpt lat="43.62635" lon="3.34921">
        <ele>349.5</ele>
        <time>2016-02-21T13:24:34Z</time>
      </trkpt>
      <trkpt lat="43.6264" lon="3.34924">
        <ele>349.5</ele>
        <time>2016-02-21T13:24:35Z</time>
      </trkpt>
      <trkpt lat="43.62642" lon="3.34925">
        <ele>351.5</ele>
        <time>2016-02-21T13:24:36Z</time>
      </trkpt>
      <trkpt lat="43.62645" lon="3.34926">
        <ele>353</ele>
        <time>2016-02-21T13:24:37Z</time>
      </trkpt>
      <trkpt lat="43.6265" lon="3.3493">
        <ele>353</ele>
        <time>2016-02-21T13:24:39Z</time>
      </trkpt>
      <trkpt lat="43.62655" lon="3.34932">
        <ele>353.5</ele>
        <time>2016-02-21T13:24:41Z</time>
      </trkpt>
      <trkpt lat="43.62657" lon="3.34933">
        <ele>354</ele>
        <time>2016-02-21T13:24:42Z</time>
      </trkpt>
      <trkpt lat="43.62663" lon="3.34934">
        <ele>355</ele>
        <time>2016-02-21T13:24:44Z</time>
      </trkpt>
      <trkpt lat="43.62669" lon="3.34938">
        <ele>355</ele>
        <time>2016-02-21T13:24:46Z</time>
      </trkpt>
      <trkpt lat="43.62672" lon="3.34941">
        <ele>355</ele>
        <time>2016-02-21T13:24:47Z</time>
      </trkpt>
      <trkpt lat="43.62677" lon="3.34945">
        <ele>356</ele>
        <time>2016-02-21T13:24:49Z</time>
      </trkpt>
      <trkpt lat="43.62682" lon="3.34948">
        <ele>356.5</ele>
        <time>2016-02-21T13:24:51Z</time>
      </trkpt>
      <trkpt lat="43.62685" lon="3.34949">
        <ele>356</ele>
        <time>2016-02-21T13:24:52Z</time>
      </trkpt>
      <trkpt lat="43.62692" lon="3.34946">
        <ele>357</ele>
        <time>2016-02-21T13:24:54Z</time>
      </trkpt>
      <trkpt lat="43.62696" lon="3.34946">
        <ele>357</ele>
        <time>2016-02-21T13:24:55Z</time>
      </trkpt>
      <trkpt lat="43.62705" lon="3.34949">
        <ele>354.5</ele>
        <time>2016-02-21T13:24:57Z</time>
      </trkpt>
      <trkpt lat="43.62709" lon="3.34949">
        <ele>354</ele>
        <time>2016-02-21T13:24:58Z</time>
      </trkpt>
      <trkpt lat="43.62713" lon="3.34948">
        <ele>353.5</ele>
        <time>2016-02-21T13:24:59Z</time>
      </trkpt>
      <trkpt lat="43.62718" lon="3.34947">
        <ele>352.5</ele>
        <time>2016-02-21T13:25:01Z</time>
      </trkpt>
      <trkpt lat="43.62723" lon="3.34948">
        <ele>352.5</ele>
        <time>2016-02-21T13:25:03Z</time>
      </trkpt>
      <trkpt lat="43.62727" lon="3.34952">
        <ele>352.5</ele>
        <time>2016-02-21T13:25:05Z</time>
      </trkpt>
      <trkpt lat="43.6273" lon="3.34956">
        <ele>352.5</ele>
        <time>2016-02-21T13:25:07Z</time>
      </trkpt>
      <trkpt lat="43.62732" lon="3.34957">
        <ele>352.5</ele>
        <time>2016-02-21T13:25:08Z</time>
      </trkpt>
      <trkpt lat="43.62735" lon="3.34961">
        <ele>352.5</ele>
        <time>2016-02-21T13:25:10Z</time>
      </trkpt>
      <trkpt lat="43.62736" lon="3.34963">
        <ele>352.5</ele>
        <time>2016-02-21T13:25:11Z</time>
      </trkpt>
      <trkpt lat="43.62738" lon="3.34967">
        <ele>353</ele>
        <time>2016-02-21T13:25:13Z</time>
      </trkpt>
      <trkpt lat="43.62742" lon="3.3497">
        <ele>351.5</ele>
        <time>2016-02-21T13:25:15Z</time>
      </trkpt>
      <trkpt lat="43.62747" lon="3.34973">
        <ele>351.5</ele>
        <time>2016-02-21T13:25:17Z</time>
      </trkpt>
      <trkpt lat="43.62751" lon="3.34976">
        <ele>351</ele>
        <time>2016-02-21T13:25:19Z</time>
      </trkpt>
      <trkpt lat="43.62755" lon="3.34979">
        <ele>350.5</ele>
        <time>2016-02-21T13:25:21Z</time>
      </trkpt>
      <trkpt lat="43.62758" lon="3.3498">
        <ele>351</ele>
        <time>2016-02-21T13:25:23Z</time>
      </trkpt>
      <trkpt lat="43.6276" lon="3.3498">
        <ele>351.5</ele>
        <time>2016-02-21T13:25:24Z</time>
      </trkpt>
      <trkpt lat="43.62764" lon="3.3498">
        <ele>352.5</ele>
        <time>2016-02-21T13:25:26Z</time>
      </trkpt>
      <trkpt lat="43.62765" lon="3.3498">
        <ele>353</ele>
        <time>2016-02-21T13:25:27Z</time>
      </trkpt>
      <trkpt lat="43.62769" lon="3.34981">
        <ele>353.5</ele>
        <time>2016-02-21T13:25:29Z</time>
      </trkpt>
      <trkpt lat="43.62773" lon="3.34981">
        <ele>353.5</ele>
        <time>2016-02-21T13:25:31Z</time>
      </trkpt>
      <trkpt lat="43.62775" lon="3.34982">
        <ele>354</ele>
        <time>2016-02-21T13:25:32Z</time>
      </trkpt>
      <trkpt lat="43.62779" lon="3.34982">
        <ele>354.5</ele>
        <time>2016-02-21T13:25:34Z</time>
      </trkpt>
      <trkpt lat="43.62781" lon="3.34982">
        <ele>355.5</ele>
        <time>2016-02-21T13:25:35Z</time>
      </trkpt>
      <trkpt lat="43.62783" lon="3.34982">
        <ele>355.5</ele>
        <time>2016-02-21T13:25:36Z</time>
      </trkpt>
      <trkpt lat="43.62785" lon="3.34983">
        <ele>355</ele>
        <time>2016-02-21T13:25:37Z</time>
      </trkpt>
      <trkpt lat="43.6279" lon="3.34984">
        <ele>354.5</ele>
        <time>2016-02-21T13:25:39Z</time>
      </trkpt>
      <trkpt lat="43.62792" lon="3.34984">
        <ele>354.5</ele>
        <time>2016-02-21T13:25:40Z</time>
      </trkpt>
      <trkpt lat="43.62799" lon="3.34988">
        <ele>354</ele>
        <time>2016-02-21T13:25:42Z</time>
      </trkpt>
      <trkpt lat="43.62803" lon="3.34988">
        <ele>354</ele>
        <time>2016-02-21T13:25:44Z</time>
      </trkpt>
      <trkpt lat="43.62805" lon="3.34988">
        <ele>354</ele>
        <time>2016-02-21T13:25:45Z</time>
      </trkpt>
      <trkpt lat="43.62807" lon="3.3499">
        <ele>354</ele>
        <time>2016-02-21T13:25:46Z</time>
      </trkpt>
      <trkpt lat="43.62812" lon="3.34993">
        <ele>353</ele>
        <time>2016-02-21T13:25:48Z</time>
      </trkpt>
      <trkpt lat="43.62817" lon="3.34994">
        <ele>353.5</ele>
        <time>2016-02-21T13:25:50Z</time>
      </trkpt>
      <trkpt lat="43.62819" lon="3.34994">
        <ele>353</ele>
        <time>2016-02-21T13:25:51Z</time>
      </trkpt>
      <trkpt lat="43.62824" lon="3.34993">
        <ele>354</ele>
        <time>2016-02-21T13:25:53Z</time>
      </trkpt>
      <trkpt lat="43.62829" lon="3.34993">
        <ele>357</ele>
        <time>2016-02-21T13:25:55Z</time>
      </trkpt>
      <trkpt lat="43.62834" lon="3.34995">
        <ele>356.5</ele>
        <time>2016-02-21T13:25:57Z</time>
      </trkpt>
      <trkpt lat="43.62838" lon="3.34996">
        <ele>356.5</ele>
        <time>2016-02-21T13:25:59Z</time>
      </trkpt>
      <trkpt lat="43.62841" lon="3.34993">
        <ele>356.5</ele>
        <time>2016-02-21T13:26:01Z</time>
      </trkpt>
      <trkpt lat="43.62845" lon="3.34992">
        <ele>356.5</ele>
        <time>2016-02-21T13:26:03Z</time>
      </trkpt>
      <trkpt lat="43.62848" lon="3.34993">
        <ele>358.5</ele>
        <time>2016-02-21T13:26:04Z</time>
      </trkpt>
      <trkpt lat="43.6285" lon="3.34993">
        <ele>358.5</ele>
        <time>2016-02-21T13:26:06Z</time>
      </trkpt>
      <trkpt lat="43.62853" lon="3.34994">
        <ele>358.5</ele>
        <time>2016-02-21T13:26:08Z</time>
      </trkpt>
      <trkpt lat="43.62856" lon="3.34996">
        <ele>359</ele>
        <time>2016-02-21T13:26:10Z</time>
      </trkpt>
      <trkpt lat="43.6286" lon="3.34997">
        <ele>361</ele>
        <time>2016-02-21T13:26:11Z</time>
      </trkpt>
      <trkpt lat="43.62862" lon="3.34997">
        <ele>361</ele>
        <time>2016-02-21T13:26:13Z</time>
      </trkpt>
      <trkpt lat="43.62866" lon="3.35">
        <ele>361.5</ele>
        <time>2016-02-21T13:26:15Z</time>
      </trkpt>
      <trkpt lat="43.62869" lon="3.35">
        <ele>363.5</ele>
        <time>2016-02-21T13:26:16Z</time>
      </trkpt>
      <trkpt lat="43.6287" lon="3.35">
        <ele>363.5</ele>
        <time>2016-02-21T13:26:18Z</time>
      </trkpt>
      <trkpt lat="43.62874" lon="3.35001">
        <ele>364.5</ele>
        <time>2016-02-21T13:26:20Z</time>
      </trkpt>
      <trkpt lat="43.62876" lon="3.35002">
        <ele>369</ele>
        <time>2016-02-21T13:26:21Z</time>
      </trkpt>
      <trkpt lat="43.62876" lon="3.35003">
        <ele>369</ele>
        <time>2016-02-21T13:26:23Z</time>
      </trkpt>
      <trkpt lat="43.62877" lon="3.35006">
        <ele>369</ele>
        <time>2016-02-21T13:26:25Z</time>
      </trkpt>
      <trkpt lat="43.62876" lon="3.3501">
        <ele>368</ele>
        <time>2016-02-21T13:26:26Z</time>
      </trkpt>
      <trkpt lat="43.62877" lon="3.35011">
        <ele>368</ele>
        <time>2016-02-21T13:26:28Z</time>
      </trkpt>
      <trkpt lat="43.62878" lon="3.35016">
        <ele>366</ele>
        <time>2016-02-21T13:26:29Z</time>
      </trkpt>
      <trkpt lat="43.62878" lon="3.35019">
        <ele>363.5</ele>
        <time>2016-02-21T13:26:31Z</time>
      </trkpt>
      <trkpt lat="43.62878" lon="3.35024">
        <ele>361.5</ele>
        <time>2016-02-21T13:26:32Z</time>
      </trkpt>
      <trkpt lat="43.62878" lon="3.35028">
        <ele>361</ele>
        <time>2016-02-21T13:26:33Z</time>
      </trkpt>
      <trkpt lat="43.62878" lon="3.35031">
        <ele>360.5</ele>
        <time>2016-02-21T13:26:35Z</time>
      </trkpt>
      <trkpt lat="43.62878" lon="3.35036">
        <ele>359.5</ele>
        <time>2016-02-21T13:26:37Z</time>
      </trkpt>
      <trkpt lat="43.62878" lon="3.35041">
        <ele>359</ele>
        <time>2016-02-21T13:26:38Z</time>
      </trkpt>
      <trkpt lat="43.62878" lon="3.35043">
        <ele>360</ele>
        <time>2016-02-21T13:26:40Z</time>
      </trkpt>
      <trkpt lat="43.62878" lon="3.35047">
        <ele>359</ele>
        <time>2016-02-21T13:26:41Z</time>
      </trkpt>
      <trkpt lat="43.62879" lon="3.3505">
        <ele>358.5</ele>
        <time>2016-02-21T13:26:43Z</time>
      </trkpt>
      <trkpt lat="43.6288" lon="3.35056">
        <ele>356.5</ele>
        <time>2016-02-21T13:26:45Z</time>
      </trkpt>
      <trkpt lat="43.62882" lon="3.35061">
        <ele>356.5</ele>
        <time>2016-02-21T13:26:46Z</time>
      </trkpt>
      <trkpt lat="43.62882" lon="3.35065">
        <ele>356.5</ele>
        <time>2016-02-21T13:26:49Z</time>
      </trkpt>
      <trkpt lat="43.62883" lon="3.3507">
        <ele>357</ele>
        <time>2016-02-21T13:26:50Z</time>
      </trkpt>
      <trkpt lat="43.62885" lon="3.35076">
        <ele>357.5</ele>
        <time>2016-02-21T13:26:52Z</time>
      </trkpt>
      <trkpt lat="43.62885" lon="3.35078">
        <ele>358</ele>
        <time>2016-02-21T13:26:53Z</time>
      </trkpt>
      <trkpt lat="43.62885" lon="3.3508">
        <ele>357.5</ele>
        <time>2016-02-21T13:26:55Z</time>
      </trkpt>
      <trkpt lat="43.62883" lon="3.35083">
        <ele>358.5</ele>
        <time>2016-02-21T13:26:57Z</time>
      </trkpt>
      <trkpt lat="43.6288" lon="3.35085">
        <ele>359</ele>
        <time>2016-02-21T13:26:58Z</time>
      </trkpt>
      <trkpt lat="43.6288" lon="3.35085">
        <ele>359</ele>
        <time>2016-02-21T13:27:00Z</time>
      </trkpt>
      <trkpt lat="43.62881" lon="3.35087">
        <ele>358</ele>
        <time>2016-02-21T13:27:06Z</time>
      </trkpt>
      <trkpt lat="43.6288" lon="3.35088">
        <ele>357.5</ele>
        <time>2016-02-21T13:27:09Z</time>
      </trkpt>
      <trkpt lat="43.62879" lon="3.3509">
        <ele>357</ele>
        <time>2016-02-21T13:27:11Z</time>
      </trkpt>
      <trkpt lat="43.62878" lon="3.35091">
        <ele>357.5</ele>
        <time>2016-02-21T13:27:12Z</time>
      </trkpt>
      <trkpt lat="43.62878" lon="3.35092">
        <ele>357</ele>
        <time>2016-02-21T13:27:14Z</time>
      </trkpt>
      <trkpt lat="43.62878" lon="3.35094">
        <ele>357.5</ele>
        <time>2016-02-21T13:27:15Z</time>
      </trkpt>
      <trkpt lat="43.62878" lon="3.35095">
        <ele>357</ele>
        <time>2016-02-21T13:27:16Z</time>
      </trkpt>
      <trkpt lat="43.62878" lon="3.35096">
        <ele>356</ele>
        <time>2016-02-21T13:27:18Z</time>
      </trkpt>
      <trkpt lat="43.62878" lon="3.35099">
        <ele>355.5</ele>
        <time>2016-02-21T13:27:20Z</time>
      </trkpt>
      <trkpt lat="43.62878" lon="3.35102">
        <ele>354.5</ele>
        <time>2016-02-21T13:27:21Z</time>
      </trkpt>
      <trkpt lat="43.62878" lon="3.35104">
        <ele>354.5</ele>
        <time>2016-02-21T13:27:23Z</time>
      </trkpt>
      <trkpt lat="43.62878" lon="3.35106">
        <ele>354</ele>
        <time>2016-02-21T13:27:24Z</time>
      </trkpt>
      <trkpt lat="43.62877" lon="3.35109">
        <ele>353.5</ele>
        <time>2016-02-21T13:27:26Z</time>
      </trkpt>
      <trkpt lat="43.62877" lon="3.3511">
        <ele>353.5</ele>
        <time>2016-02-21T13:27:28Z</time>
      </trkpt>
      <trkpt lat="43.62876" lon="3.35113">
        <ele>353.5</ele>
        <time>2016-02-21T13:27:29Z</time>
      </trkpt>
      <trkpt lat="43.62877" lon="3.35116">
        <ele>353.5</ele>
        <time>2016-02-21T13:27:31Z</time>
      </trkpt>
      <trkpt lat="43.62877" lon="3.35117">
        <ele>354.5</ele>
        <time>2016-02-21T13:27:33Z</time>
      </trkpt>
      <trkpt lat="43.62877" lon="3.35119">
        <ele>355.5</ele>
        <time>2016-02-21T13:27:34Z</time>
      </trkpt>
      <trkpt lat="43.62878" lon="3.35122">
        <ele>357</ele>
        <time>2016-02-21T13:27:36Z</time>
      </trkpt>
      <trkpt lat="43.62879" lon="3.35125">
        <ele>357.5</ele>
        <time>2016-02-21T13:27:38Z</time>
      </trkpt>
      <trkpt lat="43.6288" lon="3.35126">
        <ele>358</ele>
        <time>2016-02-21T13:27:40Z</time>
      </trkpt>
      <trkpt lat="43.62881" lon="3.35128">
        <ele>359.5</ele>
        <time>2016-02-21T13:27:41Z</time>
      </trkpt>
      <trkpt lat="43.62882" lon="3.3513">
        <ele>360.5</ele>
        <time>2016-02-21T13:27:43Z</time>
      </trkpt>
      <trkpt lat="43.62882" lon="3.35131">
        <ele>361</ele>
        <time>2016-02-21T13:27:45Z</time>
      </trkpt>
      <trkpt lat="43.62884" lon="3.35134">
        <ele>362.5</ele>
        <time>2016-02-21T13:27:46Z</time>
      </trkpt>
      <trkpt lat="43.62884" lon="3.35136">
        <ele>363</ele>
        <time>2016-02-21T13:27:48Z</time>
      </trkpt>
      <trkpt lat="43.62884" lon="3.35137">
        <ele>363.5</ele>
        <time>2016-02-21T13:27:50Z</time>
      </trkpt>
      <trkpt lat="43.62884" lon="3.35139">
        <ele>364</ele>
        <time>2016-02-21T13:27:51Z</time>
      </trkpt>
      <trkpt lat="43.62884" lon="3.35141">
        <ele>364</ele>
        <time>2016-02-21T13:27:54Z</time>
      </trkpt>
      <trkpt lat="43.62885" lon="3.35143">
        <ele>364.5</ele>
        <time>2016-02-21T13:27:55Z</time>
      </trkpt>
      <trkpt lat="43.62885" lon="3.35146">
        <ele>364.5</ele>
        <time>2016-02-21T13:27:57Z</time>
      </trkpt>
      <trkpt lat="43.62884" lon="3.35147">
        <ele>364</ele>
        <time>2016-02-21T13:27:58Z</time>
      </trkpt>
      <trkpt lat="43.62884" lon="3.35148">
        <ele>363.5</ele>
        <time>2016-02-21T13:27:59Z</time>
      </trkpt>
      <trkpt lat="43.62884" lon="3.35149">
        <ele>363</ele>
        <time>2016-02-21T13:28:00Z</time>
      </trkpt>
      <trkpt lat="43.62884" lon="3.3515">
        <ele>363</ele>
        <time>2016-02-21T13:28:02Z</time>
      </trkpt>
      <trkpt lat="43.62885" lon="3.35152">
        <ele>363.5</ele>
        <time>2016-02-21T13:28:03Z</time>
      </trkpt>
      <trkpt lat="43.62886" lon="3.35154">
        <ele>364.5</ele>
        <time>2016-02-21T13:28:05Z</time>
      </trkpt>
      <trkpt lat="43.62887" lon="3.35155">
        <ele>364.5</ele>
        <time>2016-02-21T13:28:06Z</time>
      </trkpt>
      <trkpt lat="43.62887" lon="3.35155">
        <ele>364.5</ele>
        <time>2016-02-21T13:28:08Z</time>
      </trkpt>
      <trkpt lat="43.62888" lon="3.35158">
        <ele>365.5</ele>
        <time>2016-02-21T13:28:09Z</time>
      </trkpt>
      <trkpt lat="43.62889" lon="3.3516">
        <ele>366.5</ele>
        <time>2016-02-21T13:28:11Z</time>
      </trkpt>
      <trkpt lat="43.62889" lon="3.35161">
        <ele>367</ele>
        <time>2016-02-21T13:28:13Z</time>
      </trkpt>
      <trkpt lat="43.6289" lon="3.35162">
        <ele>368</ele>
        <time>2016-02-21T13:28:14Z</time>
      </trkpt>
      <trkpt lat="43.62892" lon="3.35163">
        <ele>367.5</ele>
        <time>2016-02-21T13:28:16Z</time>
      </trkpt>
      <trkpt lat="43.62893" lon="3.35164">
        <ele>367.5</ele>
        <time>2016-02-21T13:28:17Z</time>
      </trkpt>
      <trkpt lat="43.62893" lon="3.35165">
        <ele>367.5</ele>
        <time>2016-02-21T13:28:19Z</time>
      </trkpt>
      <trkpt lat="43.62894" lon="3.35167">
        <ele>367.5</ele>
        <time>2016-02-21T13:28:20Z</time>
      </trkpt>
      <trkpt lat="43.62896" lon="3.35169">
        <ele>368</ele>
        <time>2016-02-21T13:28:22Z</time>
      </trkpt>
      <trkpt lat="43.62896" lon="3.35171">
        <ele>367.5</ele>
        <time>2016-02-21T13:28:24Z</time>
      </trkpt>
      <trkpt lat="43.62898" lon="3.35173">
        <ele>367</ele>
        <time>2016-02-21T13:28:25Z</time>
      </trkpt>
      <trkpt lat="43.62899" lon="3.35175">
        <ele>366.5</ele>
        <time>2016-02-21T13:28:27Z</time>
      </trkpt>
      <trkpt lat="43.629" lon="3.35176">
        <ele>366</ele>
        <time>2016-02-21T13:28:29Z</time>
      </trkpt>
      <trkpt lat="43.62901" lon="3.35177">
        <ele>366.5</ele>
        <time>2016-02-21T13:28:31Z</time>
      </trkpt>
      <trkpt lat="43.62903" lon="3.35178">
        <ele>368</ele>
        <time>2016-02-21T13:28:39Z</time>
      </trkpt>
      <trkpt lat="43.62905" lon="3.35178">
        <ele>370</ele>
        <time>2016-02-21T13:28:41Z</time>
      </trkpt>
      <trkpt lat="43.62907" lon="3.35179">
        <ele>370.5</ele>
        <time>2016-02-21T13:28:43Z</time>
      </trkpt>
      <trkpt lat="43.62907" lon="3.3518">
        <ele>370.5</ele>
        <time>2016-02-21T13:28:45Z</time>
      </trkpt>
      <trkpt lat="43.62909" lon="3.35181">
        <ele>372</ele>
        <time>2016-02-21T13:28:46Z</time>
      </trkpt>
      <trkpt lat="43.62911" lon="3.35182">
        <ele>373</ele>
        <time>2016-02-21T13:28:48Z</time>
      </trkpt>
      <trkpt lat="43.62914" lon="3.35182">
        <ele>373.5</ele>
        <time>2016-02-21T13:28:50Z</time>
      </trkpt>
      <trkpt lat="43.62916" lon="3.35183">
        <ele>375</ele>
        <time>2016-02-21T13:28:52Z</time>
      </trkpt>
      <trkpt lat="43.62917" lon="3.35182">
        <ele>374.5</ele>
        <time>2016-02-21T13:28:54Z</time>
      </trkpt>
      <trkpt lat="43.62919" lon="3.35182">
        <ele>374.5</ele>
        <time>2016-02-21T13:28:55Z</time>
      </trkpt>
      <trkpt lat="43.62921" lon="3.35182">
        <ele>375.5</ele>
        <time>2016-02-21T13:28:57Z</time>
      </trkpt>
      <trkpt lat="43.62922" lon="3.35183">
        <ele>375.5</ele>
        <time>2016-02-21T13:28:59Z</time>
      </trkpt>
      <trkpt lat="43.62923" lon="3.35183">
        <ele>376.5</ele>
        <time>2016-02-21T13:29:00Z</time>
      </trkpt>
      <trkpt lat="43.62924" lon="3.3518">
        <ele>377.5</ele>
        <time>2016-02-21T13:29:02Z</time>
      </trkpt>
      <trkpt lat="43.62925" lon="3.35179">
        <ele>379</ele>
        <time>2016-02-21T13:29:04Z</time>
      </trkpt>
      <trkpt lat="43.62925" lon="3.35178">
        <ele>378.5</ele>
        <time>2016-02-21T13:29:07Z</time>
      </trkpt>
      <trkpt lat="43.62926" lon="3.35178">
        <ele>377.5</ele>
        <time>2016-02-21T13:29:13Z</time>
      </trkpt>
      <trkpt lat="43.62928" lon="3.35178">
        <ele>377.5</ele>
        <time>2016-02-21T13:29:15Z</time>
      </trkpt>
      <trkpt lat="43.62931" lon="3.35179">
        <ele>377</ele>
        <time>2016-02-21T13:29:17Z</time>
      </trkpt>
      <trkpt lat="43.62933" lon="3.35178">
        <ele>378.5</ele>
        <time>2016-02-21T13:29:19Z</time>
      </trkpt>
      <trkpt lat="43.62937" lon="3.35177">
        <ele>379</ele>
        <time>2016-02-21T13:29:20Z</time>
      </trkpt>
      <trkpt lat="43.6294" lon="3.35176">
        <ele>377.5</ele>
        <time>2016-02-21T13:29:22Z</time>
      </trkpt>
      <trkpt lat="43.62942" lon="3.35176">
        <ele>378</ele>
        <time>2016-02-21T13:29:24Z</time>
      </trkpt>
      <trkpt lat="43.62944" lon="3.35176">
        <ele>378</ele>
        <time>2016-02-21T13:29:25Z</time>
      </trkpt>
      <trkpt lat="43.62946" lon="3.35175">
        <ele>378</ele>
        <time>2016-02-21T13:29:26Z</time>
      </trkpt>
      <trkpt lat="43.62947" lon="3.35175">
        <ele>379</ele>
        <time>2016-02-21T13:29:28Z</time>
      </trkpt>
      <trkpt lat="43.6295" lon="3.35176">
        <ele>378.5</ele>
        <time>2016-02-21T13:29:29Z</time>
      </trkpt>
      <trkpt lat="43.62951" lon="3.35177">
        <ele>378</ele>
        <time>2016-02-21T13:29:30Z</time>
      </trkpt>
      <trkpt lat="43.62952" lon="3.35178">
        <ele>378</ele>
        <time>2016-02-21T13:29:32Z</time>
      </trkpt>
      <trkpt lat="43.62955" lon="3.35179">
        <ele>378</ele>
        <time>2016-02-21T13:29:33Z</time>
      </trkpt>
      <trkpt lat="43.62956" lon="3.3518">
        <ele>378.5</ele>
        <time>2016-02-21T13:29:34Z</time>
      </trkpt>
      <trkpt lat="43.62957" lon="3.35181">
        <ele>378.5</ele>
        <time>2016-02-21T13:29:35Z</time>
      </trkpt>
      <trkpt lat="43.62958" lon="3.35183">
        <ele>379</ele>
        <time>2016-02-21T13:29:36Z</time>
      </trkpt>
      <trkpt lat="43.62959" lon="3.35184">
        <ele>379</ele>
        <time>2016-02-21T13:29:37Z</time>
      </trkpt>
      <trkpt lat="43.62961" lon="3.35185">
        <ele>379</ele>
        <time>2016-02-21T13:29:38Z</time>
      </trkpt>
      <trkpt lat="43.62965" lon="3.35187">
        <ele>380</ele>
        <time>2016-02-21T13:29:40Z</time>
      </trkpt>
      <trkpt lat="43.62967" lon="3.35188">
        <ele>382</ele>
        <time>2016-02-21T13:29:42Z</time>
      </trkpt>
      <trkpt lat="43.6297" lon="3.35189">
        <ele>383</ele>
        <time>2016-02-21T13:29:44Z</time>
      </trkpt>
      <trkpt lat="43.62972" lon="3.35191">
        <ele>382</ele>
        <time>2016-02-21T13:29:45Z</time>
      </trkpt>
      <trkpt lat="43.62975" lon="3.35193">
        <ele>382</ele>
        <time>2016-02-21T13:29:47Z</time>
      </trkpt>
      <trkpt lat="43.62977" lon="3.35196">
        <ele>383</ele>
        <time>2016-02-21T13:29:49Z</time>
      </trkpt>
      <trkpt lat="43.62979" lon="3.35197">
        <ele>383</ele>
        <time>2016-02-21T13:29:50Z</time>
      </trkpt>
      <trkpt lat="43.6298" lon="3.35198">
        <ele>383.5</ele>
        <time>2016-02-21T13:29:51Z</time>
      </trkpt>
      <trkpt lat="43.6298" lon="3.35198">
        <ele>383.5</ele>
        <time>2016-02-21T13:29:52Z</time>
      </trkpt>
      <trkpt lat="43.62982" lon="3.35199">
        <ele>384</ele>
        <time>2016-02-21T13:29:56Z</time>
      </trkpt>
      <trkpt lat="43.62983" lon="3.35202">
        <ele>383.5</ele>
        <time>2016-02-21T13:30:03Z</time>
      </trkpt>
      <trkpt lat="43.62984" lon="3.35203">
        <ele>383.5</ele>
        <time>2016-02-21T13:30:05Z</time>
      </trkpt>
      <trkpt lat="43.62984" lon="3.35203">
        <ele>384</ele>
        <time>2016-02-21T13:30:07Z</time>
      </trkpt>
      <trkpt lat="43.62986" lon="3.35205">
        <ele>383</ele>
        <time>2016-02-21T13:30:08Z</time>
      </trkpt>
      <trkpt lat="43.62987" lon="3.35206">
        <ele>383.5</ele>
        <time>2016-02-21T13:30:11Z</time>
      </trkpt>
      <trkpt lat="43.62989" lon="3.35208">
        <ele>383</ele>
        <time>2016-02-21T13:30:12Z</time>
      </trkpt>
      <trkpt lat="43.62989" lon="3.35209">
        <ele>383</ele>
        <time>2016-02-21T13:30:13Z</time>
      </trkpt>
      <trkpt lat="43.6299" lon="3.35209">
        <ele>383</ele>
        <time>2016-02-21T13:30:14Z</time>
      </trkpt>
      <trkpt lat="43.62991" lon="3.3521">
        <ele>382</ele>
        <time>2016-02-21T13:30:15Z</time>
      </trkpt>
      <trkpt lat="43.62992" lon="3.35211">
        <ele>382</ele>
        <time>2016-02-21T13:30:17Z</time>
      </trkpt>
      <trkpt lat="43.62994" lon="3.35213">
        <ele>381.5</ele>
        <time>2016-02-21T13:30:18Z</time>
      </trkpt>
      <trkpt lat="43.62995" lon="3.35213">
        <ele>382</ele>
        <time>2016-02-21T13:30:20Z</time>
      </trkpt>
      <trkpt lat="43.62996" lon="3.35214">
        <ele>382</ele>
        <time>2016-02-21T13:30:22Z</time>
      </trkpt>
      <trkpt lat="43.62997" lon="3.35215">
        <ele>382</ele>
        <time>2016-02-21T13:30:23Z</time>
      </trkpt>
      <trkpt lat="43.62999" lon="3.35215">
        <ele>381.5</ele>
        <time>2016-02-21T13:30:26Z</time>
      </trkpt>
      <trkpt lat="43.63" lon="3.35216">
        <ele>383</ele>
        <time>2016-02-21T13:30:27Z</time>
      </trkpt>
      <trkpt lat="43.63002" lon="3.35217">
        <ele>383</ele>
        <time>2016-02-21T13:30:30Z</time>
      </trkpt>
      <trkpt lat="43.63003" lon="3.35218">
        <ele>382.5</ele>
        <time>2016-02-21T13:30:31Z</time>
      </trkpt>
      <trkpt lat="43.63006" lon="3.3522">
        <ele>384.5</ele>
        <time>2016-02-21T13:30:35Z</time>
      </trkpt>
      <trkpt lat="43.63007" lon="3.35221">
        <ele>384.5</ele>
        <time>2016-02-21T13:30:38Z</time>
      </trkpt>
      <trkpt lat="43.63009" lon="3.35223">
        <ele>384</ele>
        <time>2016-02-21T13:30:39Z</time>
      </trkpt>
      <trkpt lat="43.63009" lon="3.35225">
        <ele>383.5</ele>
        <time>2016-02-21T13:30:41Z</time>
      </trkpt>
      <trkpt lat="43.6301" lon="3.35225">
        <ele>383</ele>
        <time>2016-02-21T13:30:42Z</time>
      </trkpt>
      <trkpt lat="43.6301" lon="3.35226">
        <ele>383</ele>
        <time>2016-02-21T13:30:43Z</time>
      </trkpt>
      <trkpt lat="43.63011" lon="3.35226">
        <ele>383</ele>
        <time>2016-02-21T13:30:44Z</time>
      </trkpt>
      <trkpt lat="43.63011" lon="3.35228">
        <ele>383</ele>
        <time>2016-02-21T13:30:47Z</time>
      </trkpt>
      <trkpt lat="43.63012" lon="3.35229">
        <ele>383</ele>
        <time>2016-02-21T13:30:49Z</time>
      </trkpt>
      <trkpt lat="43.63013" lon="3.3523">
        <ele>383</ele>
        <time>2016-02-21T13:30:50Z</time>
      </trkpt>
      <trkpt lat="43.63014" lon="3.3523">
        <ele>383</ele>
        <time>2016-02-21T13:30:51Z</time>
      </trkpt>
      <trkpt lat="43.63014" lon="3.35231">
        <ele>383</ele>
        <time>2016-02-21T13:30:53Z</time>
      </trkpt>
      <trkpt lat="43.63015" lon="3.35232">
        <ele>383.5</ele>
        <time>2016-02-21T13:30:55Z</time>
      </trkpt>
      <trkpt lat="43.63016" lon="3.35233">
        <ele>384.5</ele>
        <time>2016-02-21T13:30:56Z</time>
      </trkpt>
      <trkpt lat="43.63017" lon="3.35234">
        <ele>384</ele>
        <time>2016-02-21T13:30:58Z</time>
      </trkpt>
      <trkpt lat="43.63017" lon="3.35235">
        <ele>384</ele>
        <time>2016-02-21T13:31:00Z</time>
      </trkpt>
      <trkpt lat="43.63018" lon="3.35237">
        <ele>384.5</ele>
        <time>2016-02-21T13:31:01Z</time>
      </trkpt>
      <trkpt lat="43.63018" lon="3.35237">
        <ele>386</ele>
        <time>2016-02-21T13:31:03Z</time>
      </trkpt>
      <trkpt lat="43.63019" lon="3.35239">
        <ele>388.5</ele>
        <time>2016-02-21T13:31:07Z</time>
      </trkpt>
      <trkpt lat="43.63021" lon="3.35242">
        <ele>389</ele>
        <time>2016-02-21T13:31:12Z</time>
      </trkpt>
      <trkpt lat="43.63022" lon="3.35243">
        <ele>390</ele>
        <time>2016-02-21T13:31:14Z</time>
      </trkpt>
      <trkpt lat="43.63023" lon="3.35244">
        <ele>390.5</ele>
        <time>2016-02-21T13:31:34Z</time>
      </trkpt>
      <trkpt lat="43.63024" lon="3.35245">
        <ele>391.5</ele>
        <time>2016-02-21T13:31:36Z</time>
      </trkpt>
      <trkpt lat="43.63026" lon="3.35248">
        <ele>392.5</ele>
        <time>2016-02-21T13:31:40Z</time>
      </trkpt>
      <trkpt lat="43.63027" lon="3.35249">
        <ele>392.5</ele>
        <time>2016-02-21T13:31:43Z</time>
      </trkpt>
      <trkpt lat="43.63029" lon="3.35253">
        <ele>392.5</ele>
        <time>2016-02-21T13:31:46Z</time>
      </trkpt>
      <trkpt lat="43.6303" lon="3.35255">
        <ele>392</ele>
        <time>2016-02-21T13:31:48Z</time>
      </trkpt>
      <trkpt lat="43.63031" lon="3.35255">
        <ele>391.5</ele>
        <time>2016-02-21T13:31:50Z</time>
      </trkpt>
      <trkpt lat="43.63031" lon="3.35256">
        <ele>391</ele>
        <time>2016-02-21T13:31:52Z</time>
      </trkpt>
      <trkpt lat="43.63032" lon="3.35257">
        <ele>390</ele>
        <time>2016-02-21T13:31:53Z</time>
      </trkpt>
      <trkpt lat="43.63034" lon="3.35258">
        <ele>388.5</ele>
        <time>2016-02-21T13:31:55Z</time>
      </trkpt>
      <trkpt lat="43.63034" lon="3.35258">
        <ele>389.5</ele>
        <time>2016-02-21T13:31:57Z</time>
      </trkpt>
      <trkpt lat="43.63035" lon="3.35258">
        <ele>390</ele>
        <time>2016-02-21T13:31:59Z</time>
      </trkpt>
      <trkpt lat="43.63037" lon="3.35259">
        <ele>390.5</ele>
        <time>2016-02-21T13:32:00Z</time>
      </trkpt>
      <trkpt lat="43.63038" lon="3.3526">
        <ele>391.5</ele>
        <time>2016-02-21T13:32:02Z</time>
      </trkpt>
      <trkpt lat="43.6304" lon="3.3526">
        <ele>393</ele>
        <time>2016-02-21T13:32:04Z</time>
      </trkpt>
      <trkpt lat="43.63041" lon="3.3526">
        <ele>394</ele>
        <time>2016-02-21T13:32:06Z</time>
      </trkpt>
      <trkpt lat="43.63042" lon="3.35262">
        <ele>394.5</ele>
        <time>2016-02-21T13:32:07Z</time>
      </trkpt>
      <trkpt lat="43.63044" lon="3.35263">
        <ele>394</ele>
        <time>2016-02-21T13:32:09Z</time>
      </trkpt>
      <trkpt lat="43.63045" lon="3.35264">
        <ele>394</ele>
        <time>2016-02-21T13:32:11Z</time>
      </trkpt>
      <trkpt lat="43.63046" lon="3.35266">
        <ele>394</ele>
        <time>2016-02-21T13:32:12Z</time>
      </trkpt>
      <trkpt lat="43.63047" lon="3.35269">
        <ele>393</ele>
        <time>2016-02-21T13:32:14Z</time>
      </trkpt>
      <trkpt lat="43.63047" lon="3.3527">
        <ele>393</ele>
        <time>2016-02-21T13:32:16Z</time>
      </trkpt>
      <trkpt lat="43.63048" lon="3.35271">
        <ele>392.5</ele>
        <time>2016-02-21T13:32:17Z</time>
      </trkpt>
      <trkpt lat="43.63047" lon="3.35272">
        <ele>392.5</ele>
        <time>2016-02-21T13:32:20Z</time>
      </trkpt>
      <trkpt lat="43.63047" lon="3.35275">
        <ele>393.5</ele>
        <time>2016-02-21T13:32:23Z</time>
      </trkpt>
      <trkpt lat="43.63047" lon="3.35276">
        <ele>392.5</ele>
        <time>2016-02-21T13:32:25Z</time>
      </trkpt>
      <trkpt lat="43.63046" lon="3.35278">
        <ele>391</ele>
        <time>2016-02-21T13:32:27Z</time>
      </trkpt>
      <trkpt lat="43.63046" lon="3.35279">
        <ele>391</ele>
        <time>2016-02-21T13:32:29Z</time>
      </trkpt>
      <trkpt lat="43.63045" lon="3.35281">
        <ele>389</ele>
        <time>2016-02-21T13:32:30Z</time>
      </trkpt>
      <trkpt lat="43.63044" lon="3.35283">
        <ele>389.5</ele>
        <time>2016-02-21T13:32:32Z</time>
      </trkpt>
      <trkpt lat="43.63044" lon="3.35284">
        <ele>389</ele>
        <time>2016-02-21T13:32:34Z</time>
      </trkpt>
      <trkpt lat="43.63044" lon="3.35287">
        <ele>389.5</ele>
        <time>2016-02-21T13:32:35Z</time>
      </trkpt>
      <trkpt lat="43.63043" lon="3.35289">
        <ele>389.5</ele>
        <time>2016-02-21T13:32:37Z</time>
      </trkpt>
      <trkpt lat="43.63043" lon="3.35291">
        <ele>390</ele>
        <time>2016-02-21T13:32:39Z</time>
      </trkpt>
      <trkpt lat="43.63043" lon="3.35293">
        <ele>390</ele>
        <time>2016-02-21T13:32:40Z</time>
      </trkpt>
      <trkpt lat="43.63044" lon="3.35296">
        <ele>390.5</ele>
        <time>2016-02-21T13:32:42Z</time>
      </trkpt>
      <trkpt lat="43.63044" lon="3.35297">
        <ele>391.5</ele>
        <time>2016-02-21T13:32:44Z</time>
      </trkpt>
      <trkpt lat="43.63045" lon="3.353">
        <ele>392</ele>
        <time>2016-02-21T13:32:45Z</time>
      </trkpt>
      <trkpt lat="43.63045" lon="3.35302">
        <ele>392</ele>
        <time>2016-02-21T13:32:47Z</time>
      </trkpt>
      <trkpt lat="43.63047" lon="3.35304">
        <ele>393</ele>
        <time>2016-02-21T13:32:49Z</time>
      </trkpt>
      <trkpt lat="43.63049" lon="3.35307">
        <ele>394</ele>
        <time>2016-02-21T13:32:53Z</time>
      </trkpt>
      <trkpt lat="43.6305" lon="3.35308">
        <ele>395</ele>
        <time>2016-02-21T13:32:58Z</time>
      </trkpt>
      <trkpt lat="43.63052" lon="3.35309">
        <ele>396</ele>
        <time>2016-02-21T13:33:00Z</time>
      </trkpt>
      <trkpt lat="43.63054" lon="3.3531">
        <ele>397</ele>
        <time>2016-02-21T13:33:02Z</time>
      </trkpt>
      <trkpt lat="43.63056" lon="3.35313">
        <ele>397</ele>
        <time>2016-02-21T13:33:04Z</time>
      </trkpt>
      <trkpt lat="43.63058" lon="3.35314">
        <ele>398.5</ele>
        <time>2016-02-21T13:33:06Z</time>
      </trkpt>
      <trkpt lat="43.63059" lon="3.35315">
        <ele>399.5</ele>
        <time>2016-02-21T13:33:08Z</time>
      </trkpt>
      <trkpt lat="43.6306" lon="3.35315">
        <ele>400.5</ele>
        <time>2016-02-21T13:33:09Z</time>
      </trkpt>
      <trkpt lat="43.63061" lon="3.35316">
        <ele>402</ele>
        <time>2016-02-21T13:33:11Z</time>
      </trkpt>
      <trkpt lat="43.63062" lon="3.35317">
        <ele>404.5</ele>
        <time>2016-02-21T13:33:16Z</time>
      </trkpt>
      <trkpt lat="43.63064" lon="3.35317">
        <ele>406.5</ele>
        <time>2016-02-21T13:33:19Z</time>
      </trkpt>
      <trkpt lat="43.63065" lon="3.35317">
        <ele>406</ele>
        <time>2016-02-21T13:33:21Z</time>
      </trkpt>
      <trkpt lat="43.63068" lon="3.35317">
        <ele>405.5</ele>
        <time>2016-02-21T13:33:22Z</time>
      </trkpt>
      <trkpt lat="43.63071" lon="3.35319">
        <ele>405.5</ele>
        <time>2016-02-21T13:33:24Z</time>
      </trkpt>
      <trkpt lat="43.63072" lon="3.35319">
        <ele>404</ele>
        <time>2016-02-21T13:33:26Z</time>
      </trkpt>
      <trkpt lat="43.63073" lon="3.35317">
        <ele>405.5</ele>
        <time>2016-02-21T13:33:28Z</time>
      </trkpt>
      <trkpt lat="43.63074" lon="3.35316">
        <ele>405.5</ele>
        <time>2016-02-21T13:33:29Z</time>
      </trkpt>
      <trkpt lat="43.63076" lon="3.35316">
        <ele>405.5</ele>
        <time>2016-02-21T13:33:31Z</time>
      </trkpt>
      <trkpt lat="43.63078" lon="3.35317">
        <ele>405.5</ele>
        <time>2016-02-21T13:33:33Z</time>
      </trkpt>
      <trkpt lat="43.63078" lon="3.35318">
        <ele>405.5</ele>
        <time>2016-02-21T13:33:34Z</time>
      </trkpt>
      <trkpt lat="43.6308" lon="3.3532">
        <ele>405.5</ele>
        <time>2016-02-21T13:33:36Z</time>
      </trkpt>
      <trkpt lat="43.6308" lon="3.35322">
        <ele>405</ele>
        <time>2016-02-21T13:33:38Z</time>
      </trkpt>
      <trkpt lat="43.6308" lon="3.35322">
        <ele>405</ele>
        <time>2016-02-21T13:33:39Z</time>
      </trkpt>
      <trkpt lat="43.6308" lon="3.35324">
        <ele>405</ele>
        <time>2016-02-21T13:33:41Z</time>
      </trkpt>
      <trkpt lat="43.6308" lon="3.35325">
        <ele>405</ele>
        <time>2016-02-21T13:33:43Z</time>
      </trkpt>
      <trkpt lat="43.63081" lon="3.35327">
        <ele>404</ele>
        <time>2016-02-21T13:33:44Z</time>
      </trkpt>
      <trkpt lat="43.6308" lon="3.35328">
        <ele>403.5</ele>
        <time>2016-02-21T13:33:45Z</time>
      </trkpt>
      <trkpt lat="43.63079" lon="3.3533">
        <ele>403</ele>
        <time>2016-02-21T13:33:47Z</time>
      </trkpt>
      <trkpt lat="43.63079" lon="3.35333">
        <ele>402.5</ele>
        <time>2016-02-21T13:33:49Z</time>
      </trkpt>
      <trkpt lat="43.63079" lon="3.35333">
        <ele>402.5</ele>
        <time>2016-02-21T13:33:50Z</time>
      </trkpt>
      <trkpt lat="43.63079" lon="3.35335">
        <ele>403</ele>
        <time>2016-02-21T13:33:52Z</time>
      </trkpt>
      <trkpt lat="43.6308" lon="3.35337">
        <ele>404</ele>
        <time>2016-02-21T13:33:54Z</time>
      </trkpt>
      <trkpt lat="43.6308" lon="3.35338">
        <ele>404</ele>
        <time>2016-02-21T13:33:55Z</time>
      </trkpt>
      <trkpt lat="43.6308" lon="3.3534">
        <ele>404</ele>
        <time>2016-02-21T13:33:57Z</time>
      </trkpt>
      <trkpt lat="43.6308" lon="3.35342">
        <ele>404</ele>
        <time>2016-02-21T13:33:59Z</time>
      </trkpt>
      <trkpt lat="43.6308" lon="3.35343">
        <ele>404</ele>
        <time>2016-02-21T13:34:00Z</time>
      </trkpt>
      <trkpt lat="43.63081" lon="3.35346">
        <ele>404</ele>
        <time>2016-02-21T13:34:02Z</time>
      </trkpt>
      <trkpt lat="43.63079" lon="3.35347">
        <ele>404.5</ele>
        <time>2016-02-21T13:34:04Z</time>
      </trkpt>
      <trkpt lat="43.63078" lon="3.35348">
        <ele>404.5</ele>
        <time>2016-02-21T13:34:05Z</time>
      </trkpt>
      <trkpt lat="43.6308" lon="3.35351">
        <ele>405</ele>
        <time>2016-02-21T13:34:07Z</time>
      </trkpt>
      <trkpt lat="43.6308" lon="3.35353">
        <ele>406.5</ele>
        <time>2016-02-21T13:34:09Z</time>
      </trkpt>
      <trkpt lat="43.63082" lon="3.35354">
        <ele>406.5</ele>
        <time>2016-02-21T13:34:10Z</time>
      </trkpt>
      <trkpt lat="43.63082" lon="3.35356">
        <ele>405</ele>
        <time>2016-02-21T13:34:12Z</time>
      </trkpt>
      <trkpt lat="43.63082" lon="3.35358">
        <ele>404</ele>
        <time>2016-02-21T13:34:14Z</time>
      </trkpt>
      <trkpt lat="43.63082" lon="3.35359">
        <ele>404</ele>
        <time>2016-02-21T13:34:15Z</time>
      </trkpt>
      <trkpt lat="43.63083" lon="3.35359">
        <ele>406</ele>
        <time>2016-02-21T13:34:17Z</time>
      </trkpt>
      <trkpt lat="43.63083" lon="3.35361">
        <ele>407.5</ele>
        <time>2016-02-21T13:34:21Z</time>
      </trkpt>
      <trkpt lat="43.63082" lon="3.35362">
        <ele>408</ele>
        <time>2016-02-21T13:34:23Z</time>
      </trkpt>
      <trkpt lat="43.63082" lon="3.35363">
        <ele>409.5</ele>
        <time>2016-02-21T13:34:25Z</time>
      </trkpt>
      <trkpt lat="43.63081" lon="3.35365">
        <ele>410.5</ele>
        <time>2016-02-21T13:34:27Z</time>
      </trkpt>
      <trkpt lat="43.63081" lon="3.35368">
        <ele>410</ele>
        <time>2016-02-21T13:34:29Z</time>
      </trkpt>
      <trkpt lat="43.6308" lon="3.3537">
        <ele>409</ele>
        <time>2016-02-21T13:34:31Z</time>
      </trkpt>
      <trkpt lat="43.6308" lon="3.35372">
        <ele>409</ele>
        <time>2016-02-21T13:34:33Z</time>
      </trkpt>
      <trkpt lat="43.6308" lon="3.35374">
        <ele>409.5</ele>
        <time>2016-02-21T13:34:34Z</time>
      </trkpt>
      <trkpt lat="43.6308" lon="3.35376">
        <ele>411.5</ele>
        <time>2016-02-21T13:34:36Z</time>
      </trkpt>
      <trkpt lat="43.6308" lon="3.35378">
        <ele>412.5</ele>
        <time>2016-02-21T13:34:38Z</time>
      </trkpt>
      <trkpt lat="43.63081" lon="3.35378">
        <ele>413</ele>
        <time>2016-02-21T13:34:39Z</time>
      </trkpt>
      <trkpt lat="43.63081" lon="3.35379">
        <ele>413</ele>
        <time>2016-02-21T13:34:40Z</time>
      </trkpt>
      <trkpt lat="43.63083" lon="3.35379">
        <ele>415</ele>
        <time>2016-02-21T13:34:42Z</time>
      </trkpt>
      <trkpt lat="43.63084" lon="3.3538">
        <ele>417</ele>
        <time>2016-02-21T13:34:44Z</time>
      </trkpt>
      <trkpt lat="43.63085" lon="3.35381">
        <ele>417.5</ele>
        <time>2016-02-21T13:34:45Z</time>
      </trkpt>
      <trkpt lat="43.63086" lon="3.35382">
        <ele>418</ele>
        <time>2016-02-21T13:34:47Z</time>
      </trkpt>
      <trkpt lat="43.63087" lon="3.35383">
        <ele>419</ele>
        <time>2016-02-21T13:34:49Z</time>
      </trkpt>
      <trkpt lat="43.63087" lon="3.35384">
        <ele>419.5</ele>
        <time>2016-02-21T13:34:50Z</time>
      </trkpt>
      <trkpt lat="43.63088" lon="3.35385">
        <ele>420</ele>
        <time>2016-02-21T13:34:52Z</time>
      </trkpt>
      <trkpt lat="43.6309" lon="3.35386">
        <ele>421.5</ele>
        <time>2016-02-21T13:34:54Z</time>
      </trkpt>
      <trkpt lat="43.6309" lon="3.35385">
        <ele>423.5</ele>
        <time>2016-02-21T13:34:56Z</time>
      </trkpt>
      <trkpt lat="43.63091" lon="3.35386">
        <ele>424</ele>
        <time>2016-02-21T13:34:57Z</time>
      </trkpt>
      <trkpt lat="43.63091" lon="3.35387">
        <ele>424</ele>
        <time>2016-02-21T13:35:03Z</time>
      </trkpt>
      <trkpt lat="43.63092" lon="3.35387">
        <ele>424</ele>
        <time>2016-02-21T13:35:07Z</time>
      </trkpt>
      <trkpt lat="43.63093" lon="3.35388">
        <ele>424</ele>
        <time>2016-02-21T13:35:09Z</time>
      </trkpt>
      <trkpt lat="43.63092" lon="3.35388">
        <ele>424</ele>
        <time>2016-02-21T13:35:10Z</time>
      </trkpt>
      <trkpt lat="43.63092" lon="3.35389">
        <ele>423.5</ele>
        <time>2016-02-21T13:35:15Z</time>
      </trkpt>
      <trkpt lat="43.63093" lon="3.3539">
        <ele>423.5</ele>
        <time>2016-02-21T13:35:17Z</time>
      </trkpt>
      <trkpt lat="43.63095" lon="3.35392">
        <ele>425</ele>
        <time>2016-02-21T13:35:19Z</time>
      </trkpt>
      <trkpt lat="43.63098" lon="3.35395">
        <ele>426</ele>
        <time>2016-02-21T13:35:21Z</time>
      </trkpt>
      <trkpt lat="43.63099" lon="3.35396">
        <ele>426</ele>
        <time>2016-02-21T13:35:22Z</time>
      </trkpt>
      <trkpt lat="43.63102" lon="3.35399">
        <ele>426.5</ele>
        <time>2016-02-21T13:35:24Z</time>
      </trkpt>
      <trkpt lat="43.63105" lon="3.35403">
        <ele>427</ele>
        <time>2016-02-21T13:35:26Z</time>
      </trkpt>
      <trkpt lat="43.63106" lon="3.35405">
        <ele>428</ele>
        <time>2016-02-21T13:35:27Z</time>
      </trkpt>
      <trkpt lat="43.63106" lon="3.35409">
        <ele>429.5</ele>
        <time>2016-02-21T13:35:29Z</time>
      </trkpt>
      <trkpt lat="43.63107" lon="3.35416">
        <ele>429.5</ele>
        <time>2016-02-21T13:35:33Z</time>
      </trkpt>
      <trkpt lat="43.63107" lon="3.35419">
        <ele>429.5</ele>
        <time>2016-02-21T13:35:35Z</time>
      </trkpt>
      <trkpt lat="43.6311" lon="3.35422">
        <ele>430.5</ele>
        <time>2016-02-21T13:35:37Z</time>
      </trkpt>
      <trkpt lat="43.63111" lon="3.35423">
        <ele>430.5</ele>
        <time>2016-02-21T13:35:38Z</time>
      </trkpt>
      <trkpt lat="43.63115" lon="3.35424">
        <ele>432.5</ele>
        <time>2016-02-21T13:35:40Z</time>
      </trkpt>
      <trkpt lat="43.63117" lon="3.35427">
        <ele>433.5</ele>
        <time>2016-02-21T13:35:42Z</time>
      </trkpt>
      <trkpt lat="43.63118" lon="3.35427">
        <ele>435</ele>
        <time>2016-02-21T13:35:43Z</time>
      </trkpt>
      <trkpt lat="43.63119" lon="3.35428">
        <ele>435.5</ele>
        <time>2016-02-21T13:35:44Z</time>
      </trkpt>
      <trkpt lat="43.6312" lon="3.35429">
        <ele>435.5</ele>
        <time>2016-02-21T13:35:45Z</time>
      </trkpt>
      <trkpt lat="43.63121" lon="3.3543">
        <ele>435.5</ele>
        <time>2016-02-21T13:35:46Z</time>
      </trkpt>
      <trkpt lat="43.63121" lon="3.35431">
        <ele>436.5</ele>
        <time>2016-02-21T13:35:47Z</time>
      </trkpt>
      <trkpt lat="43.63122" lon="3.35432">
        <ele>437</ele>
        <time>2016-02-21T13:35:48Z</time>
      </trkpt>
      <trkpt lat="43.63122" lon="3.35434">
        <ele>437.5</ele>
        <time>2016-02-21T13:35:49Z</time>
      </trkpt>
      <trkpt lat="43.63122" lon="3.35436">
        <ele>438</ele>
        <time>2016-02-21T13:35:50Z</time>
      </trkpt>
      <trkpt lat="43.6312" lon="3.35445">
        <ele>438</ele>
        <time>2016-02-21T13:35:52Z</time>
      </trkpt>
      <trkpt lat="43.63121" lon="3.35459">
        <ele>436</ele>
        <time>2016-02-21T13:35:54Z</time>
      </trkpt>
      <trkpt lat="43.63123" lon="3.35467">
        <ele>436</ele>
        <time>2016-02-21T13:35:55Z</time>
      </trkpt>
      <trkpt lat="43.63133" lon="3.3548">
        <ele>434.5</ele>
        <time>2016-02-21T13:35:57Z</time>
      </trkpt>
      <trkpt lat="43.63138" lon="3.35487">
        <ele>434</ele>
        <time>2016-02-21T13:36:00Z</time>
      </trkpt>
      <trkpt lat="43.63141" lon="3.35486">
        <ele>433.5</ele>
        <time>2016-02-21T13:36:01Z</time>
      </trkpt>
      <trkpt lat="43.63143" lon="3.35482">
        <ele>433</ele>
        <time>2016-02-21T13:36:03Z</time>
      </trkpt>
      <trkpt lat="43.63149" lon="3.35475">
        <ele>433</ele>
        <time>2016-02-21T13:36:04Z</time>
      </trkpt>
      <trkpt lat="43.63155" lon="3.35474">
        <ele>433</ele>
        <time>2016-02-21T13:36:06Z</time>
      </trkpt>
      <trkpt lat="43.63156" lon="3.35476">
        <ele>432.5</ele>
        <time>2016-02-21T13:36:07Z</time>
      </trkpt>
      <trkpt lat="43.63155" lon="3.35479">
        <ele>434</ele>
        <time>2016-02-21T13:36:09Z</time>
      </trkpt>
      <trkpt lat="43.63155" lon="3.35478">
        <ele>433.5</ele>
        <time>2016-02-21T13:36:10Z</time>
      </trkpt>
      <trkpt lat="43.63154" lon="3.35479">
        <ele>432.5</ele>
        <time>2016-02-21T13:36:13Z</time>
      </trkpt>
      <trkpt lat="43.63153" lon="3.35487">
        <ele>432.5</ele>
        <time>2016-02-21T13:36:16Z</time>
      </trkpt>
      <trkpt lat="43.63159" lon="3.35496">
        <ele>432</ele>
        <time>2016-02-21T13:36:17Z</time>
      </trkpt>
      <trkpt lat="43.63162" lon="3.35512">
        <ele>430.5</ele>
        <time>2016-02-21T13:36:19Z</time>
      </trkpt>
      <trkpt lat="43.63163" lon="3.3552">
        <ele>429</ele>
        <time>2016-02-21T13:36:20Z</time>
      </trkpt>
      <trkpt lat="43.63168" lon="3.35527">
        <ele>429.5</ele>
        <time>2016-02-21T13:36:22Z</time>
      </trkpt>
      <trkpt lat="43.63174" lon="3.35542">
        <ele>426</ele>
        <time>2016-02-21T13:36:23Z</time>
      </trkpt>
      <trkpt lat="43.63179" lon="3.3555">
        <ele>426</ele>
        <time>2016-02-21T13:36:24Z</time>
      </trkpt>
      <trkpt lat="43.63184" lon="3.35561">
        <ele>417.5</ele>
        <time>2016-02-21T13:36:25Z</time>
      </trkpt>
      <trkpt lat="43.63187" lon="3.3557">
        <ele>416.5</ele>
        <time>2016-02-21T13:36:27Z</time>
      </trkpt>
      <trkpt lat="43.63195" lon="3.35586">
        <ele>413.5</ele>
        <time>2016-02-21T13:36:28Z</time>
      </trkpt>
      <trkpt lat="43.63198" lon="3.35595">
        <ele>412</ele>
        <time>2016-02-21T13:36:29Z</time>
      </trkpt>
      <trkpt lat="43.63201" lon="3.35604">
        <ele>411</ele>
        <time>2016-02-21T13:36:30Z</time>
      </trkpt>
      <trkpt lat="43.63204" lon="3.35613">
        <ele>410</ele>
        <time>2016-02-21T13:36:31Z</time>
      </trkpt>
      <trkpt lat="43.63207" lon="3.35623">
        <ele>409.5</ele>
        <time>2016-02-21T13:36:32Z</time>
      </trkpt>
      <trkpt lat="43.6321" lon="3.35633">
        <ele>407.5</ele>
        <time>2016-02-21T13:36:34Z</time>
      </trkpt>
      <trkpt lat="43.63218" lon="3.3565">
        <ele>409</ele>
        <time>2016-02-21T13:36:35Z</time>
      </trkpt>
      <trkpt lat="43.63218" lon="3.35661">
        <ele>407.5</ele>
        <time>2016-02-21T13:36:36Z</time>
      </trkpt>
      <trkpt lat="43.63218" lon="3.35671">
        <ele>407.5</ele>
        <time>2016-02-21T13:36:38Z</time>
      </trkpt>
      <trkpt lat="43.63219" lon="3.35691">
        <ele>403</ele>
        <time>2016-02-21T13:36:39Z</time>
      </trkpt>
      <trkpt lat="43.63219" lon="3.35703">
        <ele>402.5</ele>
        <time>2016-02-21T13:36:40Z</time>
      </trkpt>
      <trkpt lat="43.63219" lon="3.35715">
        <ele>402</ele>
        <time>2016-02-21T13:36:42Z</time>
      </trkpt>
      <trkpt lat="43.63221" lon="3.35736">
        <ele>401.5</ele>
        <time>2016-02-21T13:36:43Z</time>
      </trkpt>
      <trkpt lat="43.63224" lon="3.35746">
        <ele>398.5</ele>
        <time>2016-02-21T13:36:47Z</time>
      </trkpt>
      <trkpt lat="43.63223" lon="3.35745">
        <ele>400</ele>
        <time>2016-02-21T13:36:49Z</time>
      </trkpt>
      <trkpt lat="43.63225" lon="3.35734">
        <ele>399.5</ele>
        <time>2016-02-21T13:36:50Z</time>
      </trkpt>
      <trkpt lat="43.6323" lon="3.35719">
        <ele>396.5</ele>
        <time>2016-02-21T13:36:52Z</time>
      </trkpt>
      <trkpt lat="43.63234" lon="3.35711">
        <ele>397</ele>
        <time>2016-02-21T13:36:54Z</time>
      </trkpt>
      <trkpt lat="43.63244" lon="3.35696">
        <ele>395</ele>
        <time>2016-02-21T13:36:55Z</time>
      </trkpt>
      <trkpt lat="43.63253" lon="3.3568">
        <ele>394.5</ele>
        <time>2016-02-21T13:36:57Z</time>
      </trkpt>
      <trkpt lat="43.63257" lon="3.35671">
        <ele>394.5</ele>
        <time>2016-02-21T13:36:59Z</time>
      </trkpt>
      <trkpt lat="43.63267" lon="3.35654">
        <ele>392</ele>
        <time>2016-02-21T13:37:00Z</time>
      </trkpt>
      <trkpt lat="43.63273" lon="3.3565">
        <ele>391</ele>
        <time>2016-02-21T13:37:01Z</time>
      </trkpt>
      <trkpt lat="43.63278" lon="3.35646">
        <ele>391</ele>
        <time>2016-02-21T13:37:02Z</time>
      </trkpt>
      <trkpt lat="43.63284" lon="3.35648">
        <ele>391</ele>
        <time>2016-02-21T13:37:04Z</time>
      </trkpt>
      <trkpt lat="43.63302" lon="3.35663">
        <ele>389.5</ele>
        <time>2016-02-21T13:37:07Z</time>
      </trkpt>
      <trkpt lat="43.63315" lon="3.35671">
        <ele>386.5</ele>
        <time>2016-02-21T13:37:09Z</time>
      </trkpt>
      <trkpt lat="43.63328" lon="3.35686">
        <ele>387</ele>
        <time>2016-02-21T13:37:11Z</time>
      </trkpt>
      <trkpt lat="43.63335" lon="3.3569">
        <ele>386</ele>
        <time>2016-02-21T13:37:13Z</time>
      </trkpt>
      <trkpt lat="43.63349" lon="3.35705">
        <ele>384.5</ele>
        <time>2016-02-21T13:37:14Z</time>
      </trkpt>
      <trkpt lat="43.63359" lon="3.3572">
        <ele>382</ele>
        <time>2016-02-21T13:37:16Z</time>
      </trkpt>
      <trkpt lat="43.63364" lon="3.35727">
        <ele>380.5</ele>
        <time>2016-02-21T13:37:17Z</time>
      </trkpt>
      <trkpt lat="43.63368" lon="3.3573">
        <ele>380.5</ele>
        <time>2016-02-21T13:37:19Z</time>
      </trkpt>
      <trkpt lat="43.63375" lon="3.35737">
        <ele>379.5</ele>
        <time>2016-02-21T13:37:20Z</time>
      </trkpt>
      <trkpt lat="43.63377" lon="3.35742">
        <ele>379</ele>
        <time>2016-02-21T13:37:22Z</time>
      </trkpt>
      <trkpt lat="43.63386" lon="3.35751">
        <ele>376.5</ele>
        <time>2016-02-21T13:37:23Z</time>
      </trkpt>
      <trkpt lat="43.63391" lon="3.35754">
        <ele>373</ele>
        <time>2016-02-21T13:37:25Z</time>
      </trkpt>
      <trkpt lat="43.63402" lon="3.35763">
        <ele>369</ele>
        <time>2016-02-21T13:37:26Z</time>
      </trkpt>
      <trkpt lat="43.63406" lon="3.35767">
        <ele>368.5</ele>
        <time>2016-02-21T13:37:28Z</time>
      </trkpt>
      <trkpt lat="43.63414" lon="3.35769">
        <ele>368</ele>
        <time>2016-02-21T13:37:29Z</time>
      </trkpt>
      <trkpt lat="43.63418" lon="3.3577">
        <ele>366.5</ele>
        <time>2016-02-21T13:37:30Z</time>
      </trkpt>
      <trkpt lat="43.63422" lon="3.35774">
        <ele>366</ele>
        <time>2016-02-21T13:37:31Z</time>
      </trkpt>
      <trkpt lat="43.63425" lon="3.3578">
        <ele>365</ele>
        <time>2016-02-21T13:37:32Z</time>
      </trkpt>
      <trkpt lat="43.63434" lon="3.35779">
        <ele>364</ele>
        <time>2016-02-21T13:37:35Z</time>
      </trkpt>
      <trkpt lat="43.63447" lon="3.35784">
        <ele>361.5</ele>
        <time>2016-02-21T13:37:36Z</time>
      </trkpt>
      <trkpt lat="43.63454" lon="3.35794">
        <ele>356.5</ele>
        <time>2016-02-21T13:37:38Z</time>
      </trkpt>
      <trkpt lat="43.63455" lon="3.358">
        <ele>355</ele>
        <time>2016-02-21T13:37:39Z</time>
      </trkpt>
      <trkpt lat="43.63453" lon="3.35805">
        <ele>355</ele>
        <time>2016-02-21T13:37:41Z</time>
      </trkpt>
      <trkpt lat="43.63454" lon="3.35816">
        <ele>354.5</ele>
        <time>2016-02-21T13:37:42Z</time>
      </trkpt>
      <trkpt lat="43.63453" lon="3.35821">
        <ele>353.5</ele>
        <time>2016-02-21T13:37:43Z</time>
      </trkpt>
      <trkpt lat="43.6345" lon="3.35826">
        <ele>353.5</ele>
        <time>2016-02-21T13:37:44Z</time>
      </trkpt>
      <trkpt lat="43.63449" lon="3.35832">
        <ele>351.5</ele>
        <time>2016-02-21T13:37:45Z</time>
      </trkpt>
      <trkpt lat="43.63448" lon="3.35837">
        <ele>350</ele>
        <time>2016-02-21T13:37:47Z</time>
      </trkpt>
      <trkpt lat="43.6345" lon="3.35852">
        <ele>349.5</ele>
        <time>2016-02-21T13:37:48Z</time>
      </trkpt>
      <trkpt lat="43.63451" lon="3.35868">
        <ele>347.5</ele>
        <time>2016-02-21T13:37:50Z</time>
      </trkpt>
      <trkpt lat="43.63452" lon="3.35874">
        <ele>347</ele>
        <time>2016-02-21T13:37:52Z</time>
      </trkpt>
      <trkpt lat="43.63451" lon="3.35889">
        <ele>346</ele>
        <time>2016-02-21T13:37:53Z</time>
      </trkpt>
      <trkpt lat="43.63452" lon="3.35898">
        <ele>346.5</ele>
        <time>2016-02-21T13:37:55Z</time>
      </trkpt>
      <trkpt lat="43.6345" lon="3.35915">
        <ele>344</ele>
        <time>2016-02-21T13:37:56Z</time>
      </trkpt>
      <trkpt lat="43.63452" lon="3.35924">
        <ele>343</ele>
        <time>2016-02-21T13:37:58Z</time>
      </trkpt>
      <trkpt lat="43.63455" lon="3.3594">
        <ele>342.5</ele>
        <time>2016-02-21T13:37:59Z</time>
      </trkpt>
      <trkpt lat="43.63459" lon="3.35948">
        <ele>341.5</ele>
        <time>2016-02-21T13:38:00Z</time>
      </trkpt>
      <trkpt lat="43.63461" lon="3.35956">
        <ele>338.5</ele>
        <time>2016-02-21T13:38:01Z</time>
      </trkpt>
      <trkpt lat="43.63462" lon="3.35963">
        <ele>338.5</ele>
        <time>2016-02-21T13:38:02Z</time>
      </trkpt>
      <trkpt lat="43.63464" lon="3.3597">
        <ele>337.5</ele>
        <time>2016-02-21T13:38:04Z</time>
      </trkpt>
      <trkpt lat="43.63472" lon="3.35981">
        <ele>333.5</ele>
        <time>2016-02-21T13:38:05Z</time>
      </trkpt>
      <trkpt lat="43.63481" lon="3.35992">
        <ele>331.5</ele>
        <time>2016-02-21T13:38:07Z</time>
      </trkpt>
      <trkpt lat="43.63489" lon="3.36005">
        <ele>329</ele>
        <time>2016-02-21T13:38:09Z</time>
      </trkpt>
      <trkpt lat="43.63488" lon="3.36017">
        <ele>327.5</ele>
        <time>2016-02-21T13:38:11Z</time>
      </trkpt>
      <trkpt lat="43.63484" lon="3.36021">
        <ele>326.5</ele>
        <time>2016-02-21T13:38:12Z</time>
      </trkpt>
      <trkpt lat="43.6348" lon="3.36025">
        <ele>322.5</ele>
        <time>2016-02-21T13:38:13Z</time>
      </trkpt>
      <trkpt lat="43.63477" lon="3.36029">
        <ele>318</ele>
        <time>2016-02-21T13:38:14Z</time>
      </trkpt>
      <trkpt lat="43.63473" lon="3.36034">
        <ele>315</ele>
        <time>2016-02-21T13:38:15Z</time>
      </trkpt>
      <trkpt lat="43.63469" lon="3.36037">
        <ele>314.5</ele>
        <time>2016-02-21T13:38:16Z</time>
      </trkpt>
      <trkpt lat="43.63465" lon="3.36041">
        <ele>313.5</ele>
        <time>2016-02-21T13:38:18Z</time>
      </trkpt>
      <trkpt lat="43.63459" lon="3.36052">
        <ele>309</ele>
        <time>2016-02-21T13:38:19Z</time>
      </trkpt>
      <trkpt lat="43.63457" lon="3.3606">
        <ele>309.5</ele>
        <time>2016-02-21T13:38:20Z</time>
      </trkpt>
      <trkpt lat="43.63458" lon="3.36068">
        <ele>308</ele>
        <time>2016-02-21T13:38:21Z</time>
      </trkpt>
      <trkpt lat="43.63458" lon="3.36076">
        <ele>307</ele>
        <time>2016-02-21T13:38:22Z</time>
      </trkpt>
      <trkpt lat="43.63459" lon="3.36083">
        <ele>306</ele>
        <time>2016-02-21T13:38:23Z</time>
      </trkpt>
      <trkpt lat="43.6346" lon="3.3609">
        <ele>305</ele>
        <time>2016-02-21T13:38:24Z</time>
      </trkpt>
      <trkpt lat="43.6346" lon="3.36098">
        <ele>300.5</ele>
        <time>2016-02-21T13:38:25Z</time>
      </trkpt>
      <trkpt lat="43.63461" lon="3.36105">
        <ele>300</ele>
        <time>2016-02-21T13:38:26Z</time>
      </trkpt>
      <trkpt lat="43.63461" lon="3.36112">
        <ele>299.5</ele>
        <time>2016-02-21T13:38:28Z</time>
      </trkpt>
      <trkpt lat="43.63461" lon="3.36128">
        <ele>295.5</ele>
        <time>2016-02-21T13:38:29Z</time>
      </trkpt>
      <trkpt lat="43.63462" lon="3.36143">
        <ele>296</ele>
        <time>2016-02-21T13:38:31Z</time>
      </trkpt>
      <trkpt lat="43.63462" lon="3.36151">
        <ele>296</ele>
        <time>2016-02-21T13:38:32Z</time>
      </trkpt>
      <trkpt lat="43.63463" lon="3.36157">
        <ele>297</ele>
        <time>2016-02-21T13:38:34Z</time>
      </trkpt>
      <trkpt lat="43.63463" lon="3.3617">
        <ele>298</ele>
        <time>2016-02-21T13:38:35Z</time>
      </trkpt>
      <trkpt lat="43.63463" lon="3.36181">
        <ele>298.5</ele>
        <time>2016-02-21T13:38:37Z</time>
      </trkpt>
      <trkpt lat="43.63463" lon="3.36187">
        <ele>298</ele>
        <time>2016-02-21T13:38:38Z</time>
      </trkpt>
      <trkpt lat="43.63465" lon="3.36192">
        <ele>298.5</ele>
        <time>2016-02-21T13:38:40Z</time>
      </trkpt>
      <trkpt lat="43.63473" lon="3.36198">
        <ele>298</ele>
        <time>2016-02-21T13:38:41Z</time>
      </trkpt>
      <trkpt lat="43.63478" lon="3.36199">
        <ele>298.5</ele>
        <time>2016-02-21T13:38:43Z</time>
      </trkpt>
      <trkpt lat="43.6349" lon="3.36203">
        <ele>298</ele>
        <time>2016-02-21T13:38:44Z</time>
      </trkpt>
      <trkpt lat="43.63496" lon="3.36208">
        <ele>296.5</ele>
        <time>2016-02-21T13:38:45Z</time>
      </trkpt>
      <trkpt lat="43.63501" lon="3.36216">
        <ele>296.5</ele>
        <time>2016-02-21T13:38:46Z</time>
      </trkpt>
      <trkpt lat="43.63505" lon="3.36223">
        <ele>296.5</ele>
        <time>2016-02-21T13:38:47Z</time>
      </trkpt>
      <trkpt lat="43.63507" lon="3.36232">
        <ele>295</ele>
        <time>2016-02-21T13:38:48Z</time>
      </trkpt>
      <trkpt lat="43.63508" lon="3.36242">
        <ele>292.5</ele>
        <time>2016-02-21T13:38:49Z</time>
      </trkpt>
      <trkpt lat="43.63508" lon="3.36249">
        <ele>292</ele>
        <time>2016-02-21T13:38:50Z</time>
      </trkpt>
      <trkpt lat="43.63508" lon="3.36256">
        <ele>290.5</ele>
        <time>2016-02-21T13:38:51Z</time>
      </trkpt>
      <trkpt lat="43.63508" lon="3.36264">
        <ele>288.5</ele>
        <time>2016-02-21T13:38:52Z</time>
      </trkpt>
      <trkpt lat="43.63506" lon="3.36282">
        <ele>288.5</ele>
        <time>2016-02-21T13:38:54Z</time>
      </trkpt>
      <trkpt lat="43.63503" lon="3.363">
        <ele>285.5</ele>
        <time>2016-02-21T13:38:56Z</time>
      </trkpt>
      <trkpt lat="43.63503" lon="3.36309">
        <ele>284</ele>
        <time>2016-02-21T13:38:57Z</time>
      </trkpt>
      <trkpt lat="43.63503" lon="3.36319">
        <ele>284</ele>
        <time>2016-02-21T13:38:58Z</time>
      </trkpt>
      <trkpt lat="43.63504" lon="3.36338">
        <ele>282.5</ele>
        <time>2016-02-21T13:39:00Z</time>
      </trkpt>
      <trkpt lat="43.63514" lon="3.36361">
        <ele>281.5</ele>
        <time>2016-02-21T13:39:02Z</time>
      </trkpt>
      <trkpt lat="43.63524" lon="3.36383">
        <ele>280.5</ele>
        <time>2016-02-21T13:39:04Z</time>
      </trkpt>
      <trkpt lat="43.63529" lon="3.36394">
        <ele>280</ele>
        <time>2016-02-21T13:39:05Z</time>
      </trkpt>
      <trkpt lat="43.63534" lon="3.36416">
        <ele>279</ele>
        <time>2016-02-21T13:39:07Z</time>
      </trkpt>
      <trkpt lat="43.63535" lon="3.36428">
        <ele>279</ele>
        <time>2016-02-21T13:39:08Z</time>
      </trkpt>
      <trkpt lat="43.63536" lon="3.36438">
        <ele>278.5</ele>
        <time>2016-02-21T13:39:09Z</time>
      </trkpt>
      <trkpt lat="43.63538" lon="3.36456">
        <ele>279</ele>
        <time>2016-02-21T13:39:11Z</time>
      </trkpt>
      <trkpt lat="43.63538" lon="3.36466">
        <ele>277.5</ele>
        <time>2016-02-21T13:39:12Z</time>
      </trkpt>
      <trkpt lat="43.63538" lon="3.36474">
        <ele>276.5</ele>
        <time>2016-02-21T13:39:13Z</time>
      </trkpt>
      <trkpt lat="43.6354" lon="3.36482">
        <ele>275</ele>
        <time>2016-02-21T13:39:14Z</time>
      </trkpt>
      <trkpt lat="43.63548" lon="3.36494">
        <ele>274</ele>
        <time>2016-02-21T13:39:16Z</time>
      </trkpt>
      <trkpt lat="43.63552" lon="3.36499">
        <ele>273</ele>
        <time>2016-02-21T13:39:17Z</time>
      </trkpt>
      <trkpt lat="43.63555" lon="3.36504">
        <ele>271.5</ele>
        <time>2016-02-21T13:39:18Z</time>
      </trkpt>
      <trkpt lat="43.6356" lon="3.36514">
        <ele>271.5</ele>
        <time>2016-02-21T13:39:20Z</time>
      </trkpt>
      <trkpt lat="43.63563" lon="3.36518">
        <ele>272</ele>
        <time>2016-02-21T13:39:21Z</time>
      </trkpt>
      <trkpt lat="43.63565" lon="3.36522">
        <ele>271.5</ele>
        <time>2016-02-21T13:39:22Z</time>
      </trkpt>
      <trkpt lat="43.63569" lon="3.36533">
        <ele>271.5</ele>
        <time>2016-02-21T13:39:24Z</time>
      </trkpt>
      <trkpt lat="43.63571" lon="3.36538">
        <ele>271.5</ele>
        <time>2016-02-21T13:39:25Z</time>
      </trkpt>
      <trkpt lat="43.63575" lon="3.36548">
        <ele>272</ele>
        <time>2016-02-21T13:39:27Z</time>
      </trkpt>
      <trkpt lat="43.63578" lon="3.36558">
        <ele>272.5</ele>
        <time>2016-02-21T13:39:29Z</time>
      </trkpt>
      <trkpt lat="43.63578" lon="3.36563">
        <ele>272</ele>
        <time>2016-02-21T13:39:30Z</time>
      </trkpt>
      <trkpt lat="43.63579" lon="3.36568">
        <ele>272.5</ele>
        <time>2016-02-21T13:39:31Z</time>
      </trkpt>
      <trkpt lat="43.63579" lon="3.36578">
        <ele>272</ele>
        <time>2016-02-21T13:39:33Z</time>
      </trkpt>
      <trkpt lat="43.63579" lon="3.36582">
        <ele>272.5</ele>
        <time>2016-02-21T13:39:34Z</time>
      </trkpt>
      <trkpt lat="43.6358" lon="3.36586">
        <ele>273</ele>
        <time>2016-02-21T13:39:35Z</time>
      </trkpt>
      <trkpt lat="43.6358" lon="3.36589">
        <ele>274</ele>
        <time>2016-02-21T13:39:36Z</time>
      </trkpt>
      <trkpt lat="43.6358" lon="3.36599">
        <ele>274.5</ele>
        <time>2016-02-21T13:39:38Z</time>
      </trkpt>
      <trkpt lat="43.63579" lon="3.3661">
        <ele>275</ele>
        <time>2016-02-21T13:39:40Z</time>
      </trkpt>
      <trkpt lat="43.63579" lon="3.36615">
        <ele>275</ele>
        <time>2016-02-21T13:39:41Z</time>
      </trkpt>
      <trkpt lat="43.63579" lon="3.36626">
        <ele>275</ele>
        <time>2016-02-21T13:39:43Z</time>
      </trkpt>
      <trkpt lat="43.63578" lon="3.36629">
        <ele>274.5</ele>
        <time>2016-02-21T13:39:44Z</time>
      </trkpt>
      <trkpt lat="43.6358" lon="3.36633">
        <ele>274.5</ele>
        <time>2016-02-21T13:39:45Z</time>
      </trkpt>
      <trkpt lat="43.63581" lon="3.36637">
        <ele>273.5</ele>
        <time>2016-02-21T13:39:46Z</time>
      </trkpt>
      <trkpt lat="43.6358" lon="3.36643">
        <ele>272.5</ele>
        <time>2016-02-21T13:39:47Z</time>
      </trkpt>
      <trkpt lat="43.63579" lon="3.36649">
        <ele>272</ele>
        <time>2016-02-21T13:39:48Z</time>
      </trkpt>
      <trkpt lat="43.63578" lon="3.36656">
        <ele>271</ele>
        <time>2016-02-21T13:39:49Z</time>
      </trkpt>
      <trkpt lat="43.63577" lon="3.36663">
        <ele>269.5</ele>
        <time>2016-02-21T13:39:50Z</time>
      </trkpt>
      <trkpt lat="43.63576" lon="3.36671">
        <ele>268.5</ele>
        <time>2016-02-21T13:39:51Z</time>
      </trkpt>
      <trkpt lat="43.63576" lon="3.36679">
        <ele>268</ele>
        <time>2016-02-21T13:39:52Z</time>
      </trkpt>
      <trkpt lat="43.63576" lon="3.36688">
        <ele>267.5</ele>
        <time>2016-02-21T13:39:53Z</time>
      </trkpt>
      <trkpt lat="43.63576" lon="3.36697">
        <ele>266.5</ele>
        <time>2016-02-21T13:39:54Z</time>
      </trkpt>
      <trkpt lat="43.63577" lon="3.36704">
        <ele>266.5</ele>
        <time>2016-02-21T13:39:55Z</time>
      </trkpt>
      <trkpt lat="43.63578" lon="3.36713">
        <ele>265.5</ele>
        <time>2016-02-21T13:39:56Z</time>
      </trkpt>
      <trkpt lat="43.63579" lon="3.36722">
        <ele>265</ele>
        <time>2016-02-21T13:39:57Z</time>
      </trkpt>
      <trkpt lat="43.63582" lon="3.3673">
        <ele>265.5</ele>
        <time>2016-02-21T13:39:58Z</time>
      </trkpt>
      <trkpt lat="43.63586" lon="3.36738">
        <ele>266</ele>
        <time>2016-02-21T13:39:59Z</time>
      </trkpt>
      <trkpt lat="43.6359" lon="3.36746">
        <ele>265</ele>
        <time>2016-02-21T13:40:00Z</time>
      </trkpt>
      <trkpt lat="43.63592" lon="3.36755">
        <ele>266</ele>
        <time>2016-02-21T13:40:01Z</time>
      </trkpt>
      <trkpt lat="43.63592" lon="3.36773">
        <ele>267</ele>
        <time>2016-02-21T13:40:03Z</time>
      </trkpt>
      <trkpt lat="43.63591" lon="3.36781">
        <ele>268</ele>
        <time>2016-02-21T13:40:04Z</time>
      </trkpt>
      <trkpt lat="43.6359" lon="3.36795">
        <ele>269.5</ele>
        <time>2016-02-21T13:40:06Z</time>
      </trkpt>
      <trkpt lat="43.63588" lon="3.36809">
        <ele>270.5</ele>
        <time>2016-02-21T13:40:08Z</time>
      </trkpt>
      <trkpt lat="43.63586" lon="3.3682">
        <ele>271</ele>
        <time>2016-02-21T13:40:10Z</time>
      </trkpt>
      <trkpt lat="43.63587" lon="3.36827">
        <ele>274</ele>
        <time>2016-02-21T13:40:12Z</time>
      </trkpt>
      <trkpt lat="43.63586" lon="3.36832">
        <ele>273.5</ele>
        <time>2016-02-21T13:40:13Z</time>
      </trkpt>
      <trkpt lat="43.63585" lon="3.36838">
        <ele>275</ele>
        <time>2016-02-21T13:40:15Z</time>
      </trkpt>
      <trkpt lat="43.63584" lon="3.36841">
        <ele>275</ele>
        <time>2016-02-21T13:40:16Z</time>
      </trkpt>
      <trkpt lat="43.63584" lon="3.36846">
        <ele>274.5</ele>
        <time>2016-02-21T13:40:17Z</time>
      </trkpt>
      <trkpt lat="43.63583" lon="3.36849">
        <ele>274.5</ele>
        <time>2016-02-21T13:40:18Z</time>
      </trkpt>
      <trkpt lat="43.63586" lon="3.36853">
        <ele>274</ele>
        <time>2016-02-21T13:40:19Z</time>
      </trkpt>
      <trkpt lat="43.63585" lon="3.36857">
        <ele>273.5</ele>
        <time>2016-02-21T13:40:20Z</time>
      </trkpt>
      <trkpt lat="43.63585" lon="3.3686">
        <ele>272.5</ele>
        <time>2016-02-21T13:40:21Z</time>
      </trkpt>
      <trkpt lat="43.63584" lon="3.36864">
        <ele>272</ele>
        <time>2016-02-21T13:40:22Z</time>
      </trkpt>
      <trkpt lat="43.63585" lon="3.36868">
        <ele>272</ele>
        <time>2016-02-21T13:40:23Z</time>
      </trkpt>
      <trkpt lat="43.63584" lon="3.36871">
        <ele>272</ele>
        <time>2016-02-21T13:40:24Z</time>
      </trkpt>
      <trkpt lat="43.63585" lon="3.36874">
        <ele>272.5</ele>
        <time>2016-02-21T13:40:25Z</time>
      </trkpt>
      <trkpt lat="43.63584" lon="3.36878">
        <ele>273</ele>
        <time>2016-02-21T13:40:26Z</time>
      </trkpt>
      <trkpt lat="43.63585" lon="3.36884">
        <ele>273.5</ele>
        <time>2016-02-21T13:40:28Z</time>
      </trkpt>
      <trkpt lat="43.63584" lon="3.36891">
        <ele>274</ele>
        <time>2016-02-21T13:40:30Z</time>
      </trkpt>
      <trkpt lat="43.63584" lon="3.36895">
        <ele>274</ele>
        <time>2016-02-21T13:40:31Z</time>
      </trkpt>
      <trkpt lat="43.63583" lon="3.36899">
        <ele>274</ele>
        <time>2016-02-21T13:40:32Z</time>
      </trkpt>
      <trkpt lat="43.63583" lon="3.36903">
        <ele>275</ele>
        <time>2016-02-21T13:40:33Z</time>
      </trkpt>
      <trkpt lat="43.63582" lon="3.36906">
        <ele>275.5</ele>
        <time>2016-02-21T13:40:34Z</time>
      </trkpt>
      <trkpt lat="43.63582" lon="3.3691">
        <ele>276.5</ele>
        <time>2016-02-21T13:40:35Z</time>
      </trkpt>
      <trkpt lat="43.63579" lon="3.36918">
        <ele>277</ele>
        <time>2016-02-21T13:40:37Z</time>
      </trkpt>
      <trkpt lat="43.63578" lon="3.36926">
        <ele>277.5</ele>
        <time>2016-02-21T13:40:39Z</time>
      </trkpt>
      <trkpt lat="43.63577" lon="3.3693">
        <ele>277.5</ele>
        <time>2016-02-21T13:40:39Z</time>
      </trkpt>
      <trkpt lat="43.63576" lon="3.36933">
        <ele>278</ele>
        <time>2016-02-21T13:40:40Z</time>
      </trkpt>
      <trkpt lat="43.63575" lon="3.36937">
        <ele>278</ele>
        <time>2016-02-21T13:40:41Z</time>
      </trkpt>
      <trkpt lat="43.63575" lon="3.36941">
        <ele>278.5</ele>
        <time>2016-02-21T13:40:43Z</time>
      </trkpt>
      <trkpt lat="43.63573" lon="3.3695">
        <ele>278.5</ele>
        <time>2016-02-21T13:40:45Z</time>
      </trkpt>
      <trkpt lat="43.63572" lon="3.36959">
        <ele>278</ele>
        <time>2016-02-21T13:40:46Z</time>
      </trkpt>
      <trkpt lat="43.6357" lon="3.36967">
        <ele>278</ele>
        <time>2016-02-21T13:40:48Z</time>
      </trkpt>
      <trkpt lat="43.6357" lon="3.3697">
        <ele>278</ele>
        <time>2016-02-21T13:40:50Z</time>
      </trkpt>
      <trkpt lat="43.63568" lon="3.36975">
        <ele>279</ele>
        <time>2016-02-21T13:40:51Z</time>
      </trkpt>
      <trkpt lat="43.63565" lon="3.36978">
        <ele>278.5</ele>
        <time>2016-02-21T13:40:52Z</time>
      </trkpt>
      <trkpt lat="43.63564" lon="3.3698">
        <ele>278.5</ele>
        <time>2016-02-21T13:40:53Z</time>
      </trkpt>
      <trkpt lat="43.63563" lon="3.36983">
        <ele>278.5</ele>
        <time>2016-02-21T13:40:54Z</time>
      </trkpt>
      <trkpt lat="43.63563" lon="3.36986">
        <ele>279</ele>
        <time>2016-02-21T13:40:55Z</time>
      </trkpt>
      <trkpt lat="43.63562" lon="3.36989">
        <ele>278.5</ele>
        <time>2016-02-21T13:40:56Z</time>
      </trkpt>
      <trkpt lat="43.6356" lon="3.36992">
        <ele>278</ele>
        <time>2016-02-21T13:40:57Z</time>
      </trkpt>
      <trkpt lat="43.63559" lon="3.36995">
        <ele>277</ele>
        <time>2016-02-21T13:40:58Z</time>
      </trkpt>
      <trkpt lat="43.63558" lon="3.36998">
        <ele>277</ele>
        <time>2016-02-21T13:40:59Z</time>
      </trkpt>
      <trkpt lat="43.63558" lon="3.37001">
        <ele>277</ele>
        <time>2016-02-21T13:41:00Z</time>
      </trkpt>
      <trkpt lat="43.63558" lon="3.37003">
        <ele>277</ele>
        <time>2016-02-21T13:41:01Z</time>
      </trkpt>
      <trkpt lat="43.63558" lon="3.37006">
        <ele>277.5</ele>
        <time>2016-02-21T13:41:02Z</time>
      </trkpt>
      <trkpt lat="43.63557" lon="3.37008">
        <ele>278</ele>
        <time>2016-02-21T13:41:03Z</time>
      </trkpt>
      <trkpt lat="43.63557" lon="3.37011">
        <ele>278</ele>
        <time>2016-02-21T13:41:04Z</time>
      </trkpt>
      <trkpt lat="43.63556" lon="3.37013">
        <ele>279</ele>
        <time>2016-02-21T13:41:05Z</time>
      </trkpt>
      <trkpt lat="43.63555" lon="3.37016">
        <ele>279</ele>
        <time>2016-02-21T13:41:06Z</time>
      </trkpt>
      <trkpt lat="43.63554" lon="3.3702">
        <ele>278.5</ele>
        <time>2016-02-21T13:41:07Z</time>
      </trkpt>
      <trkpt lat="43.63553" lon="3.37024">
        <ele>279</ele>
        <time>2016-02-21T13:41:08Z</time>
      </trkpt>
      <trkpt lat="43.63552" lon="3.37029">
        <ele>278.5</ele>
        <time>2016-02-21T13:41:10Z</time>
      </trkpt>
      <trkpt lat="43.63549" lon="3.3704">
        <ele>277.5</ele>
        <time>2016-02-21T13:41:11Z</time>
      </trkpt>
      <trkpt lat="43.63547" lon="3.37046">
        <ele>277.5</ele>
        <time>2016-02-21T13:41:12Z</time>
      </trkpt>
      <trkpt lat="43.63545" lon="3.37054">
        <ele>277.5</ele>
        <time>2016-02-21T13:41:13Z</time>
      </trkpt>
      <trkpt lat="43.63542" lon="3.37061">
        <ele>277</ele>
        <time>2016-02-21T13:41:14Z</time>
      </trkpt>
      <trkpt lat="43.6354" lon="3.37069">
        <ele>277</ele>
        <time>2016-02-21T13:41:15Z</time>
      </trkpt>
      <trkpt lat="43.63538" lon="3.37078">
        <ele>276</ele>
        <time>2016-02-21T13:41:16Z</time>
      </trkpt>
      <trkpt lat="43.63536" lon="3.37087">
        <ele>275.5</ele>
        <time>2016-02-21T13:41:17Z</time>
      </trkpt>
      <trkpt lat="43.63534" lon="3.37095">
        <ele>275</ele>
        <time>2016-02-21T13:41:18Z</time>
      </trkpt>
      <trkpt lat="43.63531" lon="3.37104">
        <ele>274</ele>
        <time>2016-02-21T13:41:19Z</time>
      </trkpt>
      <trkpt lat="43.63528" lon="3.37114">
        <ele>273.5</ele>
        <time>2016-02-21T13:41:20Z</time>
      </trkpt>
      <trkpt lat="43.63525" lon="3.37123">
        <ele>273.5</ele>
        <time>2016-02-21T13:41:21Z</time>
      </trkpt>
      <trkpt lat="43.63522" lon="3.37133">
        <ele>273.5</ele>
        <time>2016-02-21T13:41:22Z</time>
      </trkpt>
      <trkpt lat="43.63519" lon="3.37143">
        <ele>273</ele>
        <time>2016-02-21T13:41:23Z</time>
      </trkpt>
      <trkpt lat="43.63518" lon="3.37153">
        <ele>274</ele>
        <time>2016-02-21T13:41:24Z</time>
      </trkpt>
      <trkpt lat="43.63514" lon="3.37163">
        <ele>273.5</ele>
        <time>2016-02-21T13:41:25Z</time>
      </trkpt>
      <trkpt lat="43.63511" lon="3.37173">
        <ele>273</ele>
        <time>2016-02-21T13:41:26Z</time>
      </trkpt>
      <trkpt lat="43.63509" lon="3.37182">
        <ele>273</ele>
        <time>2016-02-21T13:41:27Z</time>
      </trkpt>
      <trkpt lat="43.63512" lon="3.37189">
        <ele>273</ele>
        <time>2016-02-21T13:41:28Z</time>
      </trkpt>
      <trkpt lat="43.63511" lon="3.37195">
        <ele>272</ele>
        <time>2016-02-21T13:41:29Z</time>
      </trkpt>
      <trkpt lat="43.63513" lon="3.37198">
        <ele>272</ele>
        <time>2016-02-21T13:41:30Z</time>
      </trkpt>
      <trkpt lat="43.63514" lon="3.37204">
        <ele>272</ele>
        <time>2016-02-21T13:41:32Z</time>
      </trkpt>
      <trkpt lat="43.63516" lon="3.37219">
        <ele>272</ele>
        <time>2016-02-21T13:41:33Z</time>
      </trkpt>
      <trkpt lat="43.63516" lon="3.37227">
        <ele>272</ele>
        <time>2016-02-21T13:41:34Z</time>
      </trkpt>
      <trkpt lat="43.63519" lon="3.37234">
        <ele>272</ele>
        <time>2016-02-21T13:41:36Z</time>
      </trkpt>
      <trkpt lat="43.63528" lon="3.37248">
        <ele>271.5</ele>
        <time>2016-02-21T13:41:37Z</time>
      </trkpt>
      <trkpt lat="43.63538" lon="3.37261">
        <ele>271.5</ele>
        <time>2016-02-21T13:41:39Z</time>
      </trkpt>
      <trkpt lat="43.63542" lon="3.3727">
        <ele>272</ele>
        <time>2016-02-21T13:41:40Z</time>
      </trkpt>
      <trkpt lat="43.63543" lon="3.37282">
        <ele>272</ele>
        <time>2016-02-21T13:41:42Z</time>
      </trkpt>
      <trkpt lat="43.6354" lon="3.37307">
        <ele>271</ele>
        <time>2016-02-21T13:41:43Z</time>
      </trkpt>
      <trkpt lat="43.63537" lon="3.37319">
        <ele>270</ele>
        <time>2016-02-21T13:41:44Z</time>
      </trkpt>
      <trkpt lat="43.63535" lon="3.37331">
        <ele>269.5</ele>
        <time>2016-02-21T13:41:45Z</time>
      </trkpt>
      <trkpt lat="43.63533" lon="3.37344">
        <ele>268.5</ele>
        <time>2016-02-21T13:41:46Z</time>
      </trkpt>
      <trkpt lat="43.63532" lon="3.37357">
        <ele>269</ele>
        <time>2016-02-21T13:41:48Z</time>
      </trkpt>
      <trkpt lat="43.63531" lon="3.37382">
        <ele>267.5</ele>
        <time>2016-02-21T13:41:49Z</time>
      </trkpt>
      <trkpt lat="43.63535" lon="3.37405">
        <ele>265.5</ele>
        <time>2016-02-21T13:41:51Z</time>
      </trkpt>
      <trkpt lat="43.63539" lon="3.37414">
        <ele>264.5</ele>
        <time>2016-02-21T13:41:52Z</time>
      </trkpt>
      <trkpt lat="43.63548" lon="3.37438">
        <ele>263.5</ele>
        <time>2016-02-21T13:41:54Z</time>
      </trkpt>
      <trkpt lat="43.63552" lon="3.37451">
        <ele>262</ele>
        <time>2016-02-21T13:41:55Z</time>
      </trkpt>
      <trkpt lat="43.63555" lon="3.37464">
        <ele>260</ele>
        <time>2016-02-21T13:41:56Z</time>
      </trkpt>
      <trkpt lat="43.63558" lon="3.37477">
        <ele>258.5</ele>
        <time>2016-02-21T13:41:57Z</time>
      </trkpt>
      <trkpt lat="43.6356" lon="3.37488">
        <ele>257.5</ele>
        <time>2016-02-21T13:41:58Z</time>
      </trkpt>
      <trkpt lat="43.63564" lon="3.37499">
        <ele>257.5</ele>
        <time>2016-02-21T13:41:59Z</time>
      </trkpt>
      <trkpt lat="43.63566" lon="3.37508">
        <ele>256.5</ele>
        <time>2016-02-21T13:42:00Z</time>
      </trkpt>
      <trkpt lat="43.63567" lon="3.37518">
        <ele>255</ele>
        <time>2016-02-21T13:42:02Z</time>
      </trkpt>
      <trkpt lat="43.63568" lon="3.3754">
        <ele>253</ele>
        <time>2016-02-21T13:42:03Z</time>
      </trkpt>
      <trkpt lat="43.63571" lon="3.37565">
        <ele>253.5</ele>
        <time>2016-02-21T13:42:05Z</time>
      </trkpt>
      <trkpt lat="43.63573" lon="3.37578">
        <ele>252.5</ele>
        <time>2016-02-21T13:42:06Z</time>
      </trkpt>
      <trkpt lat="43.63575" lon="3.37591">
        <ele>251</ele>
        <time>2016-02-21T13:42:07Z</time>
      </trkpt>
      <trkpt lat="43.63577" lon="3.37605">
        <ele>249.5</ele>
        <time>2016-02-21T13:42:09Z</time>
      </trkpt>
      <trkpt lat="43.63587" lon="3.37629">
        <ele>247.5</ele>
        <time>2016-02-21T13:42:10Z</time>
      </trkpt>
      <trkpt lat="43.63593" lon="3.37639">
        <ele>245.5</ele>
        <time>2016-02-21T13:42:12Z</time>
      </trkpt>
      <trkpt lat="43.63611" lon="3.37653">
        <ele>242.5</ele>
        <time>2016-02-21T13:42:13Z</time>
      </trkpt>
      <trkpt lat="43.6362" lon="3.37658">
        <ele>240.5</ele>
        <time>2016-02-21T13:42:14Z</time>
      </trkpt>
      <trkpt lat="43.63629" lon="3.37663">
        <ele>240</ele>
        <time>2016-02-21T13:42:15Z</time>
      </trkpt>
      <trkpt lat="43.63638" lon="3.37668">
        <ele>239.5</ele>
        <time>2016-02-21T13:42:16Z</time>
      </trkpt>
      <trkpt lat="43.63645" lon="3.37675">
        <ele>239</ele>
        <time>2016-02-21T13:42:17Z</time>
      </trkpt>
      <trkpt lat="43.6365" lon="3.37686">
        <ele>238</ele>
        <time>2016-02-21T13:42:18Z</time>
      </trkpt>
      <trkpt lat="43.63654" lon="3.37697">
        <ele>236.5</ele>
        <time>2016-02-21T13:42:19Z</time>
      </trkpt>
      <trkpt lat="43.63652" lon="3.3771">
        <ele>235</ele>
        <time>2016-02-21T13:42:20Z</time>
      </trkpt>
      <trkpt lat="43.63653" lon="3.37721">
        <ele>234.5</ele>
        <time>2016-02-21T13:42:21Z</time>
      </trkpt>
      <trkpt lat="43.63654" lon="3.37733">
        <ele>234.5</ele>
        <time>2016-02-21T13:42:22Z</time>
      </trkpt>
      <trkpt lat="43.63655" lon="3.37744">
        <ele>234.5</ele>
        <time>2016-02-21T13:42:23Z</time>
      </trkpt>
      <trkpt lat="43.63656" lon="3.37764">
        <ele>235</ele>
        <time>2016-02-21T13:42:25Z</time>
      </trkpt>
      <trkpt lat="43.63656" lon="3.37774">
        <ele>234.5</ele>
        <time>2016-02-21T13:42:26Z</time>
      </trkpt>
      <trkpt lat="43.63655" lon="3.37784">
        <ele>233.5</ele>
        <time>2016-02-21T13:42:27Z</time>
      </trkpt>
      <trkpt lat="43.63653" lon="3.37793">
        <ele>232.5</ele>
        <time>2016-02-21T13:42:28Z</time>
      </trkpt>
      <trkpt lat="43.63653" lon="3.37802">
        <ele>232</ele>
        <time>2016-02-21T13:42:29Z</time>
      </trkpt>
      <trkpt lat="43.63652" lon="3.37811">
        <ele>230.5</ele>
        <time>2016-02-21T13:42:30Z</time>
      </trkpt>
      <trkpt lat="43.63651" lon="3.3782">
        <ele>230</ele>
        <time>2016-02-21T13:42:31Z</time>
      </trkpt>
      <trkpt lat="43.6365" lon="3.37829">
        <ele>229.5</ele>
        <time>2016-02-21T13:42:32Z</time>
      </trkpt>
      <trkpt lat="43.6365" lon="3.37839">
        <ele>229</ele>
        <time>2016-02-21T13:42:33Z</time>
      </trkpt>
      <trkpt lat="43.6365" lon="3.37848">
        <ele>229</ele>
        <time>2016-02-21T13:42:34Z</time>
      </trkpt>
      <trkpt lat="43.63649" lon="3.37857">
        <ele>228.5</ele>
        <time>2016-02-21T13:42:35Z</time>
      </trkpt>
      <trkpt lat="43.63648" lon="3.37866">
        <ele>228.5</ele>
        <time>2016-02-21T13:42:36Z</time>
      </trkpt>
      <trkpt lat="43.63647" lon="3.37875">
        <ele>228.5</ele>
        <time>2016-02-21T13:42:37Z</time>
      </trkpt>
      <trkpt lat="43.63645" lon="3.37883">
        <ele>228.5</ele>
        <time>2016-02-21T13:42:38Z</time>
      </trkpt>
      <trkpt lat="43.63643" lon="3.3789">
        <ele>229</ele>
        <time>2016-02-21T13:42:39Z</time>
      </trkpt>
      <trkpt lat="43.63641" lon="3.37897">
        <ele>229</ele>
        <time>2016-02-21T13:42:40Z</time>
      </trkpt>
      <trkpt lat="43.63639" lon="3.37904">
        <ele>229</ele>
        <time>2016-02-21T13:42:42Z</time>
      </trkpt>
      <trkpt lat="43.63634" lon="3.37916">
        <ele>229</ele>
        <time>2016-02-21T13:42:43Z</time>
      </trkpt>
      <trkpt lat="43.63632" lon="3.37921">
        <ele>229</ele>
        <time>2016-02-21T13:42:44Z</time>
      </trkpt>
      <trkpt lat="43.6363" lon="3.37927">
        <ele>228.5</ele>
        <time>2016-02-21T13:42:46Z</time>
      </trkpt>
      <trkpt lat="43.63625" lon="3.37937">
        <ele>227.5</ele>
        <time>2016-02-21T13:42:47Z</time>
      </trkpt>
      <trkpt lat="43.63619" lon="3.37946">
        <ele>226.5</ele>
        <time>2016-02-21T13:42:49Z</time>
      </trkpt>
      <trkpt lat="43.63616" lon="3.37951">
        <ele>226</ele>
        <time>2016-02-21T13:42:50Z</time>
      </trkpt>
      <trkpt lat="43.63614" lon="3.37956">
        <ele>226</ele>
        <time>2016-02-21T13:42:51Z</time>
      </trkpt>
      <trkpt lat="43.63614" lon="3.37961">
        <ele>226</ele>
        <time>2016-02-21T13:42:53Z</time>
      </trkpt>
      <trkpt lat="43.63611" lon="3.37973">
        <ele>225.5</ele>
        <time>2016-02-21T13:42:54Z</time>
      </trkpt>
      <trkpt lat="43.63609" lon="3.37979">
        <ele>225.5</ele>
        <time>2016-02-21T13:42:56Z</time>
      </trkpt>
      <trkpt lat="43.63606" lon="3.37992">
        <ele>225.5</ele>
        <time>2016-02-21T13:42:57Z</time>
      </trkpt>
      <trkpt lat="43.63598" lon="3.38002">
        <ele>223.5</ele>
        <time>2016-02-21T13:42:59Z</time>
      </trkpt>
      <trkpt lat="43.63591" lon="3.38007">
        <ele>223</ele>
        <time>2016-02-21T13:43:00Z</time>
      </trkpt>
      <trkpt lat="43.63593" lon="3.3802">
        <ele>220.5</ele>
        <time>2016-02-21T13:43:05Z</time>
      </trkpt>
      <trkpt lat="43.63597" lon="3.3802">
        <ele>222.5</ele>
        <time>2016-02-21T13:43:07Z</time>
      </trkpt>
      <trkpt lat="43.63604" lon="3.38026">
        <ele>221.5</ele>
        <time>2016-02-21T13:43:08Z</time>
      </trkpt>
      <trkpt lat="43.63608" lon="3.38035">
        <ele>224.5</ele>
        <time>2016-02-21T13:43:10Z</time>
      </trkpt>
      <trkpt lat="43.63609" lon="3.3804">
        <ele>224.5</ele>
        <time>2016-02-21T13:43:11Z</time>
      </trkpt>
      <trkpt lat="43.6361" lon="3.38045">
        <ele>225</ele>
        <time>2016-02-21T13:43:12Z</time>
      </trkpt>
      <trkpt lat="43.63609" lon="3.38049">
        <ele>225</ele>
        <time>2016-02-21T13:43:14Z</time>
      </trkpt>
      <trkpt lat="43.6361" lon="3.38057">
        <ele>222.5</ele>
        <time>2016-02-21T13:43:16Z</time>
      </trkpt>
      <trkpt lat="43.63614" lon="3.38067">
        <ele>221.5</ele>
        <time>2016-02-21T13:43:17Z</time>
      </trkpt>
      <trkpt lat="43.63618" lon="3.38072">
        <ele>223</ele>
        <time>2016-02-21T13:43:18Z</time>
      </trkpt>
      <trkpt lat="43.63622" lon="3.38078">
        <ele>223.5</ele>
        <time>2016-02-21T13:43:20Z</time>
      </trkpt>
      <trkpt lat="43.63628" lon="3.3809">
        <ele>224</ele>
        <time>2016-02-21T13:43:21Z</time>
      </trkpt>
      <trkpt lat="43.63631" lon="3.38101">
        <ele>224</ele>
        <time>2016-02-21T13:43:23Z</time>
      </trkpt>
      <trkpt lat="43.63633" lon="3.38107">
        <ele>224</ele>
        <time>2016-02-21T13:43:25Z</time>
      </trkpt>
      <trkpt lat="43.63635" lon="3.38118">
        <ele>225</ele>
        <time>2016-02-21T13:43:26Z</time>
      </trkpt>
      <trkpt lat="43.63638" lon="3.38128">
        <ele>225</ele>
        <time>2016-02-21T13:43:28Z</time>
      </trkpt>
      <trkpt lat="43.63641" lon="3.38139">
        <ele>225.5</ele>
        <time>2016-02-21T13:43:30Z</time>
      </trkpt>
      <trkpt lat="43.63642" lon="3.38144">
        <ele>225.5</ele>
        <time>2016-02-21T13:43:31Z</time>
      </trkpt>
      <trkpt lat="43.63642" lon="3.38149">
        <ele>225.5</ele>
        <time>2016-02-21T13:43:33Z</time>
      </trkpt>
      <trkpt lat="43.63643" lon="3.38161">
        <ele>223</ele>
        <time>2016-02-21T13:43:34Z</time>
      </trkpt>
      <trkpt lat="43.63642" lon="3.38176">
        <ele>224.5</ele>
        <time>2016-02-21T13:43:36Z</time>
      </trkpt>
      <trkpt lat="43.6364" lon="3.38181">
        <ele>224.5</ele>
        <time>2016-02-21T13:43:38Z</time>
      </trkpt>
      <trkpt lat="43.63636" lon="3.38192">
        <ele>224</ele>
        <time>2016-02-21T13:43:39Z</time>
      </trkpt>
      <trkpt lat="43.63635" lon="3.38197">
        <ele>224.5</ele>
        <time>2016-02-21T13:43:41Z</time>
      </trkpt>
      <trkpt lat="43.63636" lon="3.38208">
        <ele>224.5</ele>
        <time>2016-02-21T13:43:42Z</time>
      </trkpt>
      <trkpt lat="43.63638" lon="3.38219">
        <ele>224</ele>
        <time>2016-02-21T13:43:44Z</time>
      </trkpt>
      <trkpt lat="43.63643" lon="3.38222">
        <ele>223</ele>
        <time>2016-02-21T13:43:46Z</time>
      </trkpt>
      <trkpt lat="43.63651" lon="3.38217">
        <ele>223.5</ele>
        <time>2016-02-21T13:43:48Z</time>
      </trkpt>
      <trkpt lat="43.63661" lon="3.3821">
        <ele>224</ele>
        <time>2016-02-21T13:43:49Z</time>
      </trkpt>
      <trkpt lat="43.63666" lon="3.38207">
        <ele>224.5</ele>
        <time>2016-02-21T13:43:50Z</time>
      </trkpt>
      <trkpt lat="43.63672" lon="3.38204">
        <ele>224.5</ele>
        <time>2016-02-21T13:43:51Z</time>
      </trkpt>
      <trkpt lat="43.63678" lon="3.38203">
        <ele>224</ele>
        <time>2016-02-21T13:43:52Z</time>
      </trkpt>
      <trkpt lat="43.63684" lon="3.38202">
        <ele>224</ele>
        <time>2016-02-21T13:43:53Z</time>
      </trkpt>
      <trkpt lat="43.63691" lon="3.38201">
        <ele>224</ele>
        <time>2016-02-21T13:43:55Z</time>
      </trkpt>
      <trkpt lat="43.63702" lon="3.38209">
        <ele>224.5</ele>
        <time>2016-02-21T13:43:56Z</time>
      </trkpt>
      <trkpt lat="43.63708" lon="3.38213">
        <ele>224</ele>
        <time>2016-02-21T13:43:57Z</time>
      </trkpt>
      <trkpt lat="43.63713" lon="3.38214">
        <ele>224</ele>
        <time>2016-02-21T13:43:58Z</time>
      </trkpt>
      <trkpt lat="43.63719" lon="3.38216">
        <ele>223.5</ele>
        <time>2016-02-21T13:43:59Z</time>
      </trkpt>
      <trkpt lat="43.63726" lon="3.38218">
        <ele>223</ele>
        <time>2016-02-21T13:44:00Z</time>
      </trkpt>
      <trkpt lat="43.63732" lon="3.38219">
        <ele>223.5</ele>
        <time>2016-02-21T13:44:01Z</time>
      </trkpt>
      <trkpt lat="43.63738" lon="3.38218">
        <ele>224</ele>
        <time>2016-02-21T13:44:02Z</time>
      </trkpt>
      <trkpt lat="43.63745" lon="3.38215">
        <ele>224.5</ele>
        <time>2016-02-21T13:44:04Z</time>
      </trkpt>
      <trkpt lat="43.63755" lon="3.38213">
        <ele>225</ele>
        <time>2016-02-21T13:44:05Z</time>
      </trkpt>
      <trkpt lat="43.63765" lon="3.38222">
        <ele>226</ele>
        <time>2016-02-21T13:44:07Z</time>
      </trkpt>
      <trkpt lat="43.63773" lon="3.38233">
        <ele>226</ele>
        <time>2016-02-21T13:44:09Z</time>
      </trkpt>
      <trkpt lat="43.63782" lon="3.38239">
        <ele>227</ele>
        <time>2016-02-21T13:44:11Z</time>
      </trkpt>
      <trkpt lat="43.63786" lon="3.38247">
        <ele>226.5</ele>
        <time>2016-02-21T13:44:13Z</time>
      </trkpt>
      <trkpt lat="43.63789" lon="3.3825">
        <ele>226.5</ele>
        <time>2016-02-21T13:44:14Z</time>
      </trkpt>
      <trkpt lat="43.63801" lon="3.38252">
        <ele>226</ele>
        <time>2016-02-21T13:44:16Z</time>
      </trkpt>
      <trkpt lat="43.6381" lon="3.38266">
        <ele>222.5</ele>
        <time>2016-02-21T13:44:18Z</time>
      </trkpt>
      <trkpt lat="43.63814" lon="3.38273">
        <ele>221.5</ele>
        <time>2016-02-21T13:44:19Z</time>
      </trkpt>
      <trkpt lat="43.63825" lon="3.3828">
        <ele>221</ele>
        <time>2016-02-21T13:44:21Z</time>
      </trkpt>
      <trkpt lat="43.6383" lon="3.3828">
        <ele>221.5</ele>
        <time>2016-02-21T13:44:22Z</time>
      </trkpt>
      <trkpt lat="43.63835" lon="3.38282">
        <ele>221.5</ele>
        <time>2016-02-21T13:44:23Z</time>
      </trkpt>
      <trkpt lat="43.63843" lon="3.38287">
        <ele>221.5</ele>
        <time>2016-02-21T13:44:25Z</time>
      </trkpt>
      <trkpt lat="43.63847" lon="3.38292">
        <ele>221.5</ele>
        <time>2016-02-21T13:44:26Z</time>
      </trkpt>
      <trkpt lat="43.63851" lon="3.38297">
        <ele>220</ele>
        <time>2016-02-21T13:44:27Z</time>
      </trkpt>
      <trkpt lat="43.63861" lon="3.38302">
        <ele>218.5</ele>
        <time>2016-02-21T13:44:29Z</time>
      </trkpt>
      <trkpt lat="43.63865" lon="3.38298">
        <ele>219.5</ele>
        <time>2016-02-21T13:44:30Z</time>
      </trkpt>
      <trkpt lat="43.63868" lon="3.38295">
        <ele>220</ele>
        <time>2016-02-21T13:44:31Z</time>
      </trkpt>
      <trkpt lat="43.63872" lon="3.38295">
        <ele>220</ele>
        <time>2016-02-21T13:44:32Z</time>
      </trkpt>
      <trkpt lat="43.63876" lon="3.38296">
        <ele>218.5</ele>
        <time>2016-02-21T13:44:33Z</time>
      </trkpt>
      <trkpt lat="43.6388" lon="3.38299">
        <ele>219.5</ele>
        <time>2016-02-21T13:44:34Z</time>
      </trkpt>
      <trkpt lat="43.63884" lon="3.38302">
        <ele>219.5</ele>
        <time>2016-02-21T13:44:35Z</time>
      </trkpt>
      <trkpt lat="43.63888" lon="3.38306">
        <ele>219</ele>
        <time>2016-02-21T13:44:36Z</time>
      </trkpt>
      <trkpt lat="43.63896" lon="3.3831">
        <ele>217.5</ele>
        <time>2016-02-21T13:44:38Z</time>
      </trkpt>
      <trkpt lat="43.63906" lon="3.38317">
        <ele>217.5</ele>
        <time>2016-02-21T13:44:40Z</time>
      </trkpt>
      <trkpt lat="43.63912" lon="3.38315">
        <ele>217.5</ele>
        <time>2016-02-21T13:44:41Z</time>
      </trkpt>
      <trkpt lat="43.63918" lon="3.38313">
        <ele>220</ele>
        <time>2016-02-21T13:44:44Z</time>
      </trkpt>
      <trkpt lat="43.6392" lon="3.38312">
        <ele>220.5</ele>
        <time>2016-02-21T13:44:45Z</time>
      </trkpt>
      <trkpt lat="43.63921" lon="3.38311">
        <ele>221</ele>
        <time>2016-02-21T13:44:46Z</time>
      </trkpt>
      <trkpt lat="43.63924" lon="3.3831">
        <ele>221</ele>
        <time>2016-02-21T13:44:47Z</time>
      </trkpt>
      <trkpt lat="43.63927" lon="3.38308">
        <ele>221</ele>
        <time>2016-02-21T13:44:48Z</time>
      </trkpt>
      <trkpt lat="43.63931" lon="3.38304">
        <ele>222</ele>
        <time>2016-02-21T13:44:50Z</time>
      </trkpt>
      <trkpt lat="43.63937" lon="3.38302">
        <ele>222.5</ele>
        <time>2016-02-21T13:44:52Z</time>
      </trkpt>
      <trkpt lat="43.63939" lon="3.38301">
        <ele>222.5</ele>
        <time>2016-02-21T13:44:53Z</time>
      </trkpt>
      <trkpt lat="43.63943" lon="3.38298">
        <ele>222.5</ele>
        <time>2016-02-21T13:44:55Z</time>
      </trkpt>
      <trkpt lat="43.63945" lon="3.38296">
        <ele>221</ele>
        <time>2016-02-21T13:44:56Z</time>
      </trkpt>
      <trkpt lat="43.63947" lon="3.38295">
        <ele>219</ele>
        <time>2016-02-21T13:44:57Z</time>
      </trkpt>
      <trkpt lat="43.63948" lon="3.38294">
        <ele>219</ele>
        <time>2016-02-21T13:44:58Z</time>
      </trkpt>
      <trkpt lat="43.63949" lon="3.38293">
        <ele>220</ele>
        <time>2016-02-21T13:44:59Z</time>
      </trkpt>
      <trkpt lat="43.6395" lon="3.38292">
        <ele>220.5</ele>
        <time>2016-02-21T13:45:00Z</time>
      </trkpt>
      <trkpt lat="43.63951" lon="3.3829">
        <ele>221</ele>
        <time>2016-02-21T13:45:01Z</time>
      </trkpt>
      <trkpt lat="43.63953" lon="3.38289">
        <ele>221.5</ele>
        <time>2016-02-21T13:45:02Z</time>
      </trkpt>
      <trkpt lat="43.63956" lon="3.38286">
        <ele>223</ele>
        <time>2016-02-21T13:45:03Z</time>
      </trkpt>
      <trkpt lat="43.63964" lon="3.38281">
        <ele>224.5</ele>
        <time>2016-02-21T13:45:05Z</time>
      </trkpt>
      <trkpt lat="43.63974" lon="3.3828">
        <ele>224</ele>
        <time>2016-02-21T13:45:07Z</time>
      </trkpt>
      <trkpt lat="43.63981" lon="3.38281">
        <ele>223</ele>
        <time>2016-02-21T13:45:08Z</time>
      </trkpt>
      <trkpt lat="43.63987" lon="3.38286">
        <ele>223.5</ele>
        <time>2016-02-21T13:45:09Z</time>
      </trkpt>
      <trkpt lat="43.64" lon="3.38289">
        <ele>221.5</ele>
        <time>2016-02-21T13:45:11Z</time>
      </trkpt>
      <trkpt lat="43.64007" lon="3.38289">
        <ele>221.5</ele>
        <time>2016-02-21T13:45:12Z</time>
      </trkpt>
      <trkpt lat="43.6402" lon="3.38293">
        <ele>219.5</ele>
        <time>2016-02-21T13:45:14Z</time>
      </trkpt>
      <trkpt lat="43.64034" lon="3.38297">
        <ele>216.5</ele>
        <time>2016-02-21T13:45:16Z</time>
      </trkpt>
      <trkpt lat="43.64048" lon="3.38291">
        <ele>215.5</ele>
        <time>2016-02-21T13:45:18Z</time>
      </trkpt>
      <trkpt lat="43.64055" lon="3.38291">
        <ele>216.5</ele>
        <time>2016-02-21T13:45:19Z</time>
      </trkpt>
      <trkpt lat="43.64061" lon="3.38296">
        <ele>215.5</ele>
        <time>2016-02-21T13:45:20Z</time>
      </trkpt>
      <trkpt lat="43.64064" lon="3.38305">
        <ele>215</ele>
        <time>2016-02-21T13:45:22Z</time>
      </trkpt>
      <trkpt lat="43.64069" lon="3.38307">
        <ele>215</ele>
        <time>2016-02-21T13:45:24Z</time>
      </trkpt>
      <trkpt lat="43.64076" lon="3.38312">
        <ele>215</ele>
        <time>2016-02-21T13:45:26Z</time>
      </trkpt>
      <trkpt lat="43.64081" lon="3.38316">
        <ele>216</ele>
        <time>2016-02-21T13:45:27Z</time>
      </trkpt>
      <trkpt lat="43.64091" lon="3.3832">
        <ele>216</ele>
        <time>2016-02-21T13:45:29Z</time>
      </trkpt>
      <trkpt lat="43.64097" lon="3.38322">
        <ele>217</ele>
        <time>2016-02-21T13:45:30Z</time>
      </trkpt>
      <trkpt lat="43.64103" lon="3.38321">
        <ele>217</ele>
        <time>2016-02-21T13:45:31Z</time>
      </trkpt>
      <trkpt lat="43.64109" lon="3.3832">
        <ele>217.5</ele>
        <time>2016-02-21T13:45:32Z</time>
      </trkpt>
      <trkpt lat="43.64115" lon="3.38322">
        <ele>218</ele>
        <time>2016-02-21T13:45:33Z</time>
      </trkpt>
      <trkpt lat="43.6412" lon="3.38328">
        <ele>218</ele>
        <time>2016-02-21T13:45:34Z</time>
      </trkpt>
      <trkpt lat="43.64125" lon="3.38334">
        <ele>215.5</ele>
        <time>2016-02-21T13:45:35Z</time>
      </trkpt>
      <trkpt lat="43.64129" lon="3.3834">
        <ele>215</ele>
        <time>2016-02-21T13:45:36Z</time>
      </trkpt>
      <trkpt lat="43.64131" lon="3.3835">
        <ele>215</ele>
        <time>2016-02-21T13:45:37Z</time>
      </trkpt>
      <trkpt lat="43.64133" lon="3.38358">
        <ele>213.5</ele>
        <time>2016-02-21T13:45:38Z</time>
      </trkpt>
      <trkpt lat="43.64135" lon="3.38364">
        <ele>213</ele>
        <time>2016-02-21T13:45:39Z</time>
      </trkpt>
      <trkpt lat="43.64139" lon="3.38368">
        <ele>213</ele>
        <time>2016-02-21T13:45:40Z</time>
      </trkpt>
      <trkpt lat="43.64144" lon="3.38367">
        <ele>212.5</ele>
        <time>2016-02-21T13:45:41Z</time>
      </trkpt>
      <trkpt lat="43.64153" lon="3.38361">
        <ele>214</ele>
        <time>2016-02-21T13:45:43Z</time>
      </trkpt>
      <trkpt lat="43.64155" lon="3.38359">
        <ele>214</ele>
        <time>2016-02-21T13:45:44Z</time>
      </trkpt>
      <trkpt lat="43.64157" lon="3.38358">
        <ele>214.5</ele>
        <time>2016-02-21T13:45:45Z</time>
      </trkpt>
      <trkpt lat="43.64159" lon="3.38358">
        <ele>214.5</ele>
        <time>2016-02-21T13:45:46Z</time>
      </trkpt>
      <trkpt lat="43.64161" lon="3.38356">
        <ele>215.5</ele>
        <time>2016-02-21T13:45:47Z</time>
      </trkpt>
      <trkpt lat="43.64163" lon="3.38354">
        <ele>214</ele>
        <time>2016-02-21T13:45:48Z</time>
      </trkpt>
      <trkpt lat="43.64165" lon="3.3835">
        <ele>214</ele>
        <time>2016-02-21T13:45:49Z</time>
      </trkpt>
      <trkpt lat="43.64165" lon="3.38346">
        <ele>214.5</ele>
        <time>2016-02-21T13:45:50Z</time>
      </trkpt>
      <trkpt lat="43.64163" lon="3.38344">
        <ele>213</ele>
        <time>2016-02-21T13:45:51Z</time>
      </trkpt>
      <trkpt lat="43.64162" lon="3.38341">
        <ele>212.5</ele>
        <time>2016-02-21T13:45:52Z</time>
      </trkpt>
      <trkpt lat="43.64168" lon="3.38331">
        <ele>211.5</ele>
        <time>2016-02-21T13:45:54Z</time>
      </trkpt>
      <trkpt lat="43.64172" lon="3.38327">
        <ele>212</ele>
        <time>2016-02-21T13:45:55Z</time>
      </trkpt>
      <trkpt lat="43.64176" lon="3.38324">
        <ele>211.5</ele>
        <time>2016-02-21T13:45:56Z</time>
      </trkpt>
      <trkpt lat="43.64181" lon="3.38324">
        <ele>211.5</ele>
        <time>2016-02-21T13:45:57Z</time>
      </trkpt>
      <trkpt lat="43.64185" lon="3.38327">
        <ele>211.5</ele>
        <time>2016-02-21T13:45:58Z</time>
      </trkpt>
      <trkpt lat="43.64189" lon="3.3833">
        <ele>211</ele>
        <time>2016-02-21T13:45:59Z</time>
      </trkpt>
      <trkpt lat="43.64194" lon="3.38334">
        <ele>208.5</ele>
        <time>2016-02-21T13:46:00Z</time>
      </trkpt>
      <trkpt lat="43.64205" lon="3.38347">
        <ele>204.5</ele>
        <time>2016-02-21T13:46:01Z</time>
      </trkpt>
      <trkpt lat="43.64211" lon="3.38354">
        <ele>202</ele>
        <time>2016-02-21T13:46:02Z</time>
      </trkpt>
      <trkpt lat="43.64216" lon="3.38362">
        <ele>201</ele>
        <time>2016-02-21T13:46:03Z</time>
      </trkpt>
      <trkpt lat="43.64219" lon="3.38369">
        <ele>200</ele>
        <time>2016-02-21T13:46:04Z</time>
      </trkpt>
      <trkpt lat="43.64222" lon="3.38379">
        <ele>197</ele>
        <time>2016-02-21T13:46:05Z</time>
      </trkpt>
      <trkpt lat="43.64222" lon="3.38388">
        <ele>195.5</ele>
        <time>2016-02-21T13:46:06Z</time>
      </trkpt>
      <trkpt lat="43.64219" lon="3.38401">
        <ele>193</ele>
        <time>2016-02-21T13:46:08Z</time>
      </trkpt>
      <trkpt lat="43.64219" lon="3.38409">
        <ele>191</ele>
        <time>2016-02-21T13:46:09Z</time>
      </trkpt>
      <trkpt lat="43.64218" lon="3.38416">
        <ele>190.5</ele>
        <time>2016-02-21T13:46:10Z</time>
      </trkpt>
      <trkpt lat="43.64219" lon="3.38422">
        <ele>189.5</ele>
        <time>2016-02-21T13:46:11Z</time>
      </trkpt>
      <trkpt lat="43.64219" lon="3.38429">
        <ele>189</ele>
        <time>2016-02-21T13:46:12Z</time>
      </trkpt>
      <trkpt lat="43.64219" lon="3.38436">
        <ele>188</ele>
        <time>2016-02-21T13:46:13Z</time>
      </trkpt>
      <trkpt lat="43.64219" lon="3.38442">
        <ele>187.5</ele>
        <time>2016-02-21T13:46:14Z</time>
      </trkpt>
      <trkpt lat="43.64219" lon="3.38448">
        <ele>187</ele>
        <time>2016-02-21T13:46:15Z</time>
      </trkpt>
      <trkpt lat="43.64219" lon="3.38453">
        <ele>186.5</ele>
        <time>2016-02-21T13:46:16Z</time>
      </trkpt>
      <trkpt lat="43.64219" lon="3.38458">
        <ele>186</ele>
        <time>2016-02-21T13:46:17Z</time>
      </trkpt>
      <trkpt lat="43.64218" lon="3.38462">
        <ele>186</ele>
        <time>2016-02-21T13:46:18Z</time>
      </trkpt>
      <trkpt lat="43.64218" lon="3.38467">
        <ele>186</ele>
        <time>2016-02-21T13:46:19Z</time>
      </trkpt>
      <trkpt lat="43.64219" lon="3.38472">
        <ele>186</ele>
        <time>2016-02-21T13:46:20Z</time>
      </trkpt>
      <trkpt lat="43.64219" lon="3.38476">
        <ele>186</ele>
        <time>2016-02-21T13:46:21Z</time>
      </trkpt>
      <trkpt lat="43.64219" lon="3.38481">
        <ele>186</ele>
        <time>2016-02-21T13:46:22Z</time>
      </trkpt>
      <trkpt lat="43.64218" lon="3.38486">
        <ele>186</ele>
        <time>2016-02-21T13:46:23Z</time>
      </trkpt>
      <trkpt lat="43.64217" lon="3.3849">
        <ele>186</ele>
        <time>2016-02-21T13:46:24Z</time>
      </trkpt>
      <trkpt lat="43.64217" lon="3.38495">
        <ele>186</ele>
        <time>2016-02-21T13:46:25Z</time>
      </trkpt>
      <trkpt lat="43.64216" lon="3.385">
        <ele>186</ele>
        <time>2016-02-21T13:46:26Z</time>
      </trkpt>
      <trkpt lat="43.64216" lon="3.38504">
        <ele>186</ele>
        <time>2016-02-21T13:46:27Z</time>
      </trkpt>
      <trkpt lat="43.64215" lon="3.38508">
        <ele>186</ele>
        <time>2016-02-21T13:46:28Z</time>
      </trkpt>
      <trkpt lat="43.64215" lon="3.38513">
        <ele>186.5</ele>
        <time>2016-02-21T13:46:29Z</time>
      </trkpt>
      <trkpt lat="43.64215" lon="3.38517">
        <ele>186.5</ele>
        <time>2016-02-21T13:46:30Z</time>
      </trkpt>
      <trkpt lat="43.64216" lon="3.38521">
        <ele>187</ele>
        <time>2016-02-21T13:46:31Z</time>
      </trkpt>
      <trkpt lat="43.64216" lon="3.38526">
        <ele>187.5</ele>
        <time>2016-02-21T13:46:32Z</time>
      </trkpt>
      <trkpt lat="43.64216" lon="3.3853">
        <ele>187.5</ele>
        <time>2016-02-21T13:46:33Z</time>
      </trkpt>
      <trkpt lat="43.64216" lon="3.38535">
        <ele>188</ele>
        <time>2016-02-21T13:46:34Z</time>
      </trkpt>
      <trkpt lat="43.64217" lon="3.38539">
        <ele>188.5</ele>
        <time>2016-02-21T13:46:35Z</time>
      </trkpt>
      <trkpt lat="43.64217" lon="3.38543">
        <ele>189</ele>
        <time>2016-02-21T13:46:36Z</time>
      </trkpt>
      <trkpt lat="43.64218" lon="3.38548">
        <ele>189</ele>
        <time>2016-02-21T13:46:37Z</time>
      </trkpt>
      <trkpt lat="43.64218" lon="3.38552">
        <ele>189.5</ele>
        <time>2016-02-21T13:46:38Z</time>
      </trkpt>
      <trkpt lat="43.64219" lon="3.38557">
        <ele>189.5</ele>
        <time>2016-02-21T13:46:39Z</time>
      </trkpt>
      <trkpt lat="43.6422" lon="3.38562">
        <ele>190</ele>
        <time>2016-02-21T13:46:40Z</time>
      </trkpt>
      <trkpt lat="43.64221" lon="3.38566">
        <ele>190</ele>
        <time>2016-02-21T13:46:41Z</time>
      </trkpt>
      <trkpt lat="43.64222" lon="3.38571">
        <ele>190</ele>
        <time>2016-02-21T13:46:42Z</time>
      </trkpt>
      <trkpt lat="43.64223" lon="3.38575">
        <ele>190</ele>
        <time>2016-02-21T13:46:43Z</time>
      </trkpt>
      <trkpt lat="43.64224" lon="3.3858">
        <ele>190</ele>
        <time>2016-02-21T13:46:44Z</time>
      </trkpt>
      <trkpt lat="43.64226" lon="3.38584">
        <ele>190</ele>
        <time>2016-02-21T13:46:45Z</time>
      </trkpt>
      <trkpt lat="43.64228" lon="3.38589">
        <ele>190</ele>
        <time>2016-02-21T13:46:46Z</time>
      </trkpt>
      <trkpt lat="43.6423" lon="3.38594">
        <ele>190</ele>
        <time>2016-02-21T13:46:47Z</time>
      </trkpt>
      <trkpt lat="43.64232" lon="3.38599">
        <ele>190</ele>
        <time>2016-02-21T13:46:48Z</time>
      </trkpt>
      <trkpt lat="43.64237" lon="3.38604">
        <ele>191</ele>
        <time>2016-02-21T13:46:49Z</time>
      </trkpt>
      <trkpt lat="43.64239" lon="3.3861">
        <ele>190.5</ele>
        <time>2016-02-21T13:46:50Z</time>
      </trkpt>
      <trkpt lat="43.64242" lon="3.38615">
        <ele>191</ele>
        <time>2016-02-21T13:46:51Z</time>
      </trkpt>
      <trkpt lat="43.64246" lon="3.38621">
        <ele>191</ele>
        <time>2016-02-21T13:46:52Z</time>
      </trkpt>
      <trkpt lat="43.64249" lon="3.38627">
        <ele>191</ele>
        <time>2016-02-21T13:46:53Z</time>
      </trkpt>
      <trkpt lat="43.64252" lon="3.38632">
        <ele>191</ele>
        <time>2016-02-21T13:46:54Z</time>
      </trkpt>
      <trkpt lat="43.64255" lon="3.38638">
        <ele>191</ele>
        <time>2016-02-21T13:46:55Z</time>
      </trkpt>
      <trkpt lat="43.64258" lon="3.38644">
        <ele>191</ele>
        <time>2016-02-21T13:46:56Z</time>
      </trkpt>
      <trkpt lat="43.64262" lon="3.3865">
        <ele>191.5</ele>
        <time>2016-02-21T13:46:57Z</time>
      </trkpt>
      <trkpt lat="43.64265" lon="3.38656">
        <ele>191.5</ele>
        <time>2016-02-21T13:46:58Z</time>
      </trkpt>
      <trkpt lat="43.64268" lon="3.38662">
        <ele>192</ele>
        <time>2016-02-21T13:46:59Z</time>
      </trkpt>
      <trkpt lat="43.64271" lon="3.38668">
        <ele>192</ele>
        <time>2016-02-21T13:47:00Z</time>
      </trkpt>
      <trkpt lat="43.64274" lon="3.38674">
        <ele>192</ele>
        <time>2016-02-21T13:47:01Z</time>
      </trkpt>
      <trkpt lat="43.64276" lon="3.3868">
        <ele>192</ele>
        <time>2016-02-21T13:47:02Z</time>
      </trkpt>
      <trkpt lat="43.64279" lon="3.38686">
        <ele>192</ele>
        <time>2016-02-21T13:47:03Z</time>
      </trkpt>
      <trkpt lat="43.64282" lon="3.38692">
        <ele>192</ele>
        <time>2016-02-21T13:47:04Z</time>
      </trkpt>
      <trkpt lat="43.64285" lon="3.38698">
        <ele>192</ele>
        <time>2016-02-21T13:47:05Z</time>
      </trkpt>
      <trkpt lat="43.64288" lon="3.38703">
        <ele>192</ele>
        <time>2016-02-21T13:47:06Z</time>
      </trkpt>
      <trkpt lat="43.64291" lon="3.38708">
        <ele>192.5</ele>
        <time>2016-02-21T13:47:07Z</time>
      </trkpt>
      <trkpt lat="43.64295" lon="3.38713">
        <ele>192.5</ele>
        <time>2016-02-21T13:47:08Z</time>
      </trkpt>
      <trkpt lat="43.64298" lon="3.38717">
        <ele>192.5</ele>
        <time>2016-02-21T13:47:09Z</time>
      </trkpt>
      <trkpt lat="43.64302" lon="3.38722">
        <ele>192.5</ele>
        <time>2016-02-21T13:47:10Z</time>
      </trkpt>
      <trkpt lat="43.64306" lon="3.38726">
        <ele>193</ele>
        <time>2016-02-21T13:47:11Z</time>
      </trkpt>
      <trkpt lat="43.6431" lon="3.3873">
        <ele>193.5</ele>
        <time>2016-02-21T13:47:12Z</time>
      </trkpt>
      <trkpt lat="43.64314" lon="3.38734">
        <ele>193.5</ele>
        <time>2016-02-21T13:47:13Z</time>
      </trkpt>
      <trkpt lat="43.64318" lon="3.38738">
        <ele>193.5</ele>
        <time>2016-02-21T13:47:14Z</time>
      </trkpt>
      <trkpt lat="43.64322" lon="3.38742">
        <ele>193.5</ele>
        <time>2016-02-21T13:47:15Z</time>
      </trkpt>
      <trkpt lat="43.64326" lon="3.38747">
        <ele>194</ele>
        <time>2016-02-21T13:47:16Z</time>
      </trkpt>
      <trkpt lat="43.64329" lon="3.38752">
        <ele>194</ele>
        <time>2016-02-21T13:47:17Z</time>
      </trkpt>
      <trkpt lat="43.64331" lon="3.38758">
        <ele>194.5</ele>
        <time>2016-02-21T13:47:18Z</time>
      </trkpt>
      <trkpt lat="43.64333" lon="3.38764">
        <ele>194.5</ele>
        <time>2016-02-21T13:47:19Z</time>
      </trkpt>
      <trkpt lat="43.64335" lon="3.3877">
        <ele>194.5</ele>
        <time>2016-02-21T13:47:20Z</time>
      </trkpt>
      <trkpt lat="43.64336" lon="3.38777">
        <ele>195</ele>
        <time>2016-02-21T13:47:21Z</time>
      </trkpt>
      <trkpt lat="43.64336" lon="3.38783">
        <ele>195</ele>
        <time>2016-02-21T13:47:22Z</time>
      </trkpt>
      <trkpt lat="43.64337" lon="3.38789">
        <ele>195.5</ele>
        <time>2016-02-21T13:47:23Z</time>
      </trkpt>
      <trkpt lat="43.6434" lon="3.38792">
        <ele>195.5</ele>
        <time>2016-02-21T13:47:24Z</time>
      </trkpt>
      <trkpt lat="43.64343" lon="3.38794">
        <ele>195.5</ele>
        <time>2016-02-21T13:47:25Z</time>
      </trkpt>
      <trkpt lat="43.64345" lon="3.38794">
        <ele>194.5</ele>
        <time>2016-02-21T13:47:26Z</time>
      </trkpt>
      <trkpt lat="43.64349" lon="3.38793">
        <ele>194.5</ele>
        <time>2016-02-21T13:47:27Z</time>
      </trkpt>
      <trkpt lat="43.64352" lon="3.38793">
        <ele>194.5</ele>
        <time>2016-02-21T13:47:28Z</time>
      </trkpt>
      <trkpt lat="43.64357" lon="3.38791">
        <ele>194</ele>
        <time>2016-02-21T13:47:29Z</time>
      </trkpt>
      <trkpt lat="43.64361" lon="3.38791">
        <ele>194</ele>
        <time>2016-02-21T13:47:30Z</time>
      </trkpt>
      <trkpt lat="43.64365" lon="3.3879">
        <ele>194</ele>
        <time>2016-02-21T13:47:31Z</time>
      </trkpt>
      <trkpt lat="43.6437" lon="3.38789">
        <ele>194</ele>
        <time>2016-02-21T13:47:32Z</time>
      </trkpt>
      <trkpt lat="43.64374" lon="3.38787">
        <ele>194</ele>
        <time>2016-02-21T13:47:33Z</time>
      </trkpt>
      <trkpt lat="43.64379" lon="3.38786">
        <ele>194</ele>
        <time>2016-02-21T13:47:34Z</time>
      </trkpt>
      <trkpt lat="43.64383" lon="3.38784">
        <ele>194</ele>
        <time>2016-02-21T13:47:35Z</time>
      </trkpt>
      <trkpt lat="43.64387" lon="3.38782">
        <ele>194.5</ele>
        <time>2016-02-21T13:47:36Z</time>
      </trkpt>
      <trkpt lat="43.64392" lon="3.38781">
        <ele>194.5</ele>
        <time>2016-02-21T13:47:37Z</time>
      </trkpt>
      <trkpt lat="43.64396" lon="3.3878">
        <ele>194.5</ele>
        <time>2016-02-21T13:47:38Z</time>
      </trkpt>
      <trkpt lat="43.644" lon="3.38778">
        <ele>194.5</ele>
        <time>2016-02-21T13:47:39Z</time>
      </trkpt>
      <trkpt lat="43.64404" lon="3.38777">
        <ele>194.5</ele>
        <time>2016-02-21T13:47:40Z</time>
      </trkpt>
      <trkpt lat="43.64408" lon="3.38776">
        <ele>194</ele>
        <time>2016-02-21T13:47:41Z</time>
      </trkpt>
      <trkpt lat="43.64412" lon="3.38775">
        <ele>194</ele>
        <time>2016-02-21T13:47:42Z</time>
      </trkpt>
      <trkpt lat="43.64416" lon="3.38774">
        <ele>193.5</ele>
        <time>2016-02-21T13:47:43Z</time>
      </trkpt>
      <trkpt lat="43.6442" lon="3.38772">
        <ele>193.5</ele>
        <time>2016-02-21T13:47:44Z</time>
      </trkpt>
      <trkpt lat="43.64425" lon="3.38771">
        <ele>193.5</ele>
        <time>2016-02-21T13:47:45Z</time>
      </trkpt>
      <trkpt lat="43.64429" lon="3.38769">
        <ele>193</ele>
        <time>2016-02-21T13:47:46Z</time>
      </trkpt>
      <trkpt lat="43.64433" lon="3.38769">
        <ele>193</ele>
        <time>2016-02-21T13:47:47Z</time>
      </trkpt>
      <trkpt lat="43.64438" lon="3.38769">
        <ele>193</ele>
        <time>2016-02-21T13:47:48Z</time>
      </trkpt>
      <trkpt lat="43.64443" lon="3.38768">
        <ele>193</ele>
        <time>2016-02-21T13:47:49Z</time>
      </trkpt>
      <trkpt lat="43.64447" lon="3.38767">
        <ele>193</ele>
        <time>2016-02-21T13:47:50Z</time>
      </trkpt>
      <trkpt lat="43.64452" lon="3.38767">
        <ele>192.5</ele>
        <time>2016-02-21T13:47:51Z</time>
      </trkpt>
      <trkpt lat="43.64457" lon="3.38766">
        <ele>193.5</ele>
        <time>2016-02-21T13:47:52Z</time>
      </trkpt>
      <trkpt lat="43.64462" lon="3.38766">
        <ele>193.5</ele>
        <time>2016-02-21T13:47:53Z</time>
      </trkpt>
      <trkpt lat="43.64466" lon="3.38767">
        <ele>193.5</ele>
        <time>2016-02-21T13:47:54Z</time>
      </trkpt>
      <trkpt lat="43.6447" lon="3.3877">
        <ele>193</ele>
        <time>2016-02-21T13:47:55Z</time>
      </trkpt>
      <trkpt lat="43.64473" lon="3.38773">
        <ele>193.5</ele>
        <time>2016-02-21T13:47:56Z</time>
      </trkpt>
      <trkpt lat="43.64476" lon="3.38775">
        <ele>194</ele>
        <time>2016-02-21T13:47:57Z</time>
      </trkpt>
      <trkpt lat="43.64478" lon="3.38777">
        <ele>194</ele>
        <time>2016-02-21T13:47:58Z</time>
      </trkpt>
      <trkpt lat="43.6448" lon="3.38779">
        <ele>194.5</ele>
        <time>2016-02-21T13:47:59Z</time>
      </trkpt>
      <trkpt lat="43.64482" lon="3.3878">
        <ele>194.5</ele>
        <time>2016-02-21T13:48:00Z</time>
      </trkpt>
      <trkpt lat="43.64485" lon="3.38782">
        <ele>194.5</ele>
        <time>2016-02-21T13:48:01Z</time>
      </trkpt>
      <trkpt lat="43.64487" lon="3.38783">
        <ele>195</ele>
        <time>2016-02-21T13:48:02Z</time>
      </trkpt>
      <trkpt lat="43.64489" lon="3.38784">
        <ele>195.5</ele>
        <time>2016-02-21T13:48:03Z</time>
      </trkpt>
      <trkpt lat="43.64492" lon="3.38785">
        <ele>195.5</ele>
        <time>2016-02-21T13:48:04Z</time>
      </trkpt>
      <trkpt lat="43.64494" lon="3.38786">
        <ele>195.5</ele>
        <time>2016-02-21T13:48:05Z</time>
      </trkpt>
      <trkpt lat="43.64497" lon="3.38787">
        <ele>196</ele>
        <time>2016-02-21T13:48:06Z</time>
      </trkpt>
      <trkpt lat="43.64499" lon="3.38788">
        <ele>196</ele>
        <time>2016-02-21T13:48:07Z</time>
      </trkpt>
      <trkpt lat="43.64501" lon="3.38789">
        <ele>196</ele>
        <time>2016-02-21T13:48:08Z</time>
      </trkpt>
      <trkpt lat="43.64504" lon="3.3879">
        <ele>196</ele>
        <time>2016-02-21T13:48:09Z</time>
      </trkpt>
      <trkpt lat="43.64507" lon="3.3879">
        <ele>196.5</ele>
        <time>2016-02-21T13:48:10Z</time>
      </trkpt>
      <trkpt lat="43.64511" lon="3.3879">
        <ele>196.5</ele>
        <time>2016-02-21T13:48:11Z</time>
      </trkpt>
      <trkpt lat="43.64515" lon="3.38791">
        <ele>197</ele>
        <time>2016-02-21T13:48:12Z</time>
      </trkpt>
      <trkpt lat="43.64519" lon="3.38792">
        <ele>197</ele>
        <time>2016-02-21T13:48:13Z</time>
      </trkpt>
      <trkpt lat="43.64522" lon="3.38794">
        <ele>197</ele>
        <time>2016-02-21T13:48:14Z</time>
      </trkpt>
      <trkpt lat="43.64525" lon="3.38798">
        <ele>198</ele>
        <time>2016-02-21T13:48:15Z</time>
      </trkpt>
      <trkpt lat="43.64527" lon="3.38801">
        <ele>198.5</ele>
        <time>2016-02-21T13:48:16Z</time>
      </trkpt>
      <trkpt lat="43.64529" lon="3.38804">
        <ele>199</ele>
        <time>2016-02-21T13:48:17Z</time>
      </trkpt>
      <trkpt lat="43.6453" lon="3.38807">
        <ele>200</ele>
        <time>2016-02-21T13:48:18Z</time>
      </trkpt>
      <trkpt lat="43.64531" lon="3.38811">
        <ele>199.5</ele>
        <time>2016-02-21T13:48:19Z</time>
      </trkpt>
      <trkpt lat="43.64531" lon="3.38816">
        <ele>199.5</ele>
        <time>2016-02-21T13:48:20Z</time>
      </trkpt>
      <trkpt lat="43.64531" lon="3.38821">
        <ele>199.5</ele>
        <time>2016-02-21T13:48:21Z</time>
      </trkpt>
      <trkpt lat="43.64531" lon="3.38826">
        <ele>199</ele>
        <time>2016-02-21T13:48:22Z</time>
      </trkpt>
      <trkpt lat="43.6453" lon="3.38831">
        <ele>199</ele>
        <time>2016-02-21T13:48:23Z</time>
      </trkpt>
      <trkpt lat="43.64529" lon="3.38835">
        <ele>199</ele>
        <time>2016-02-21T13:48:24Z</time>
      </trkpt>
      <trkpt lat="43.64527" lon="3.38838">
        <ele>199.5</ele>
        <time>2016-02-21T13:48:25Z</time>
      </trkpt>
      <trkpt lat="43.64524" lon="3.38841">
        <ele>198.5</ele>
        <time>2016-02-21T13:48:26Z</time>
      </trkpt>
      <trkpt lat="43.64523" lon="3.38845">
        <ele>199.5</ele>
        <time>2016-02-21T13:48:27Z</time>
      </trkpt>
      <trkpt lat="43.64521" lon="3.38848">
        <ele>200</ele>
        <time>2016-02-21T13:48:28Z</time>
      </trkpt>
      <trkpt lat="43.6452" lon="3.38852">
        <ele>200.5</ele>
        <time>2016-02-21T13:48:29Z</time>
      </trkpt>
      <trkpt lat="43.64521" lon="3.38856">
        <ele>201</ele>
        <time>2016-02-21T13:48:30Z</time>
      </trkpt>
      <trkpt lat="43.64521" lon="3.3886">
        <ele>202</ele>
        <time>2016-02-21T13:48:31Z</time>
      </trkpt>
      <trkpt lat="43.6452" lon="3.38863">
        <ele>202.5</ele>
        <time>2016-02-21T13:48:32Z</time>
      </trkpt>
      <trkpt lat="43.64518" lon="3.38866">
        <ele>203</ele>
        <time>2016-02-21T13:48:33Z</time>
      </trkpt>
      <trkpt lat="43.64517" lon="3.3887">
        <ele>203</ele>
        <time>2016-02-21T13:48:34Z</time>
      </trkpt>
      <trkpt lat="43.64516" lon="3.38873">
        <ele>203</ele>
        <time>2016-02-21T13:48:35Z</time>
      </trkpt>
      <trkpt lat="43.64515" lon="3.38876">
        <ele>203</ele>
        <time>2016-02-21T13:48:36Z</time>
      </trkpt>
      <trkpt lat="43.64514" lon="3.3888">
        <ele>202.5</ele>
        <time>2016-02-21T13:48:37Z</time>
      </trkpt>
      <trkpt lat="43.64512" lon="3.38883">
        <ele>203</ele>
        <time>2016-02-21T13:48:38Z</time>
      </trkpt>
      <trkpt lat="43.64511" lon="3.38887">
        <ele>203.5</ele>
        <time>2016-02-21T13:48:39Z</time>
      </trkpt>
      <trkpt lat="43.64509" lon="3.3889">
        <ele>204</ele>
        <time>2016-02-21T13:48:40Z</time>
      </trkpt>
      <trkpt lat="43.64508" lon="3.38894">
        <ele>204.5</ele>
        <time>2016-02-21T13:48:41Z</time>
      </trkpt>
      <trkpt lat="43.64507" lon="3.38898">
        <ele>204.5</ele>
        <time>2016-02-21T13:48:42Z</time>
      </trkpt>
      <trkpt lat="43.64505" lon="3.38902">
        <ele>205</ele>
        <time>2016-02-21T13:48:43Z</time>
      </trkpt>
      <trkpt lat="43.64504" lon="3.38905">
        <ele>205</ele>
        <time>2016-02-21T13:48:44Z</time>
      </trkpt>
      <trkpt lat="43.64502" lon="3.38909">
        <ele>205</ele>
        <time>2016-02-21T13:48:45Z</time>
      </trkpt>
      <trkpt lat="43.64501" lon="3.38913">
        <ele>205</ele>
        <time>2016-02-21T13:48:46Z</time>
      </trkpt>
      <trkpt lat="43.645" lon="3.38917">
        <ele>205.5</ele>
        <time>2016-02-21T13:48:47Z</time>
      </trkpt>
      <trkpt lat="43.64499" lon="3.38921">
        <ele>206</ele>
        <time>2016-02-21T13:48:48Z</time>
      </trkpt>
      <trkpt lat="43.64498" lon="3.38925">
        <ele>206.5</ele>
        <time>2016-02-21T13:48:49Z</time>
      </trkpt>
      <trkpt lat="43.64497" lon="3.38929">
        <ele>207</ele>
        <time>2016-02-21T13:48:50Z</time>
      </trkpt>
      <trkpt lat="43.64496" lon="3.38932">
        <ele>207</ele>
        <time>2016-02-21T13:48:51Z</time>
      </trkpt>
      <trkpt lat="43.64494" lon="3.38936">
        <ele>207</ele>
        <time>2016-02-21T13:48:52Z</time>
      </trkpt>
      <trkpt lat="43.64492" lon="3.3894">
        <ele>207</ele>
        <time>2016-02-21T13:48:53Z</time>
      </trkpt>
      <trkpt lat="43.6449" lon="3.38944">
        <ele>206.5</ele>
        <time>2016-02-21T13:48:54Z</time>
      </trkpt>
      <trkpt lat="43.64489" lon="3.38947">
        <ele>206.5</ele>
        <time>2016-02-21T13:48:55Z</time>
      </trkpt>
      <trkpt lat="43.64487" lon="3.38951">
        <ele>206</ele>
        <time>2016-02-21T13:48:56Z</time>
      </trkpt>
      <trkpt lat="43.64485" lon="3.38955">
        <ele>206</ele>
        <time>2016-02-21T13:48:57Z</time>
      </trkpt>
      <trkpt lat="43.64483" lon="3.38958">
        <ele>206</ele>
        <time>2016-02-21T13:48:58Z</time>
      </trkpt>
      <trkpt lat="43.64482" lon="3.38962">
        <ele>206.5</ele>
        <time>2016-02-21T13:48:59Z</time>
      </trkpt>
      <trkpt lat="43.64481" lon="3.38966">
        <ele>206.5</ele>
        <time>2016-02-21T13:49:00Z</time>
      </trkpt>
      <trkpt lat="43.64479" lon="3.3897">
        <ele>206.5</ele>
        <time>2016-02-21T13:49:01Z</time>
      </trkpt>
      <trkpt lat="43.64477" lon="3.38973">
        <ele>206.5</ele>
        <time>2016-02-21T13:49:02Z</time>
      </trkpt>
      <trkpt lat="43.64477" lon="3.38977">
        <ele>207.5</ele>
        <time>2016-02-21T13:49:03Z</time>
      </trkpt>
      <trkpt lat="43.64476" lon="3.38981">
        <ele>208</ele>
        <time>2016-02-21T13:49:04Z</time>
      </trkpt>
      <trkpt lat="43.64474" lon="3.38984">
        <ele>208</ele>
        <time>2016-02-21T13:49:05Z</time>
      </trkpt>
      <trkpt lat="43.64473" lon="3.38988">
        <ele>208</ele>
        <time>2016-02-21T13:49:06Z</time>
      </trkpt>
      <trkpt lat="43.64471" lon="3.38991">
        <ele>208</ele>
        <time>2016-02-21T13:49:07Z</time>
      </trkpt>
      <trkpt lat="43.64469" lon="3.38995">
        <ele>208</ele>
        <time>2016-02-21T13:49:08Z</time>
      </trkpt>
      <trkpt lat="43.64468" lon="3.38999">
        <ele>209</ele>
        <time>2016-02-21T13:49:09Z</time>
      </trkpt>
      <trkpt lat="43.64466" lon="3.39002">
        <ele>209.5</ele>
        <time>2016-02-21T13:49:10Z</time>
      </trkpt>
      <trkpt lat="43.64464" lon="3.39006">
        <ele>208</ele>
        <time>2016-02-21T13:49:11Z</time>
      </trkpt>
      <trkpt lat="43.64462" lon="3.39009">
        <ele>208.5</ele>
        <time>2016-02-21T13:49:12Z</time>
      </trkpt>
      <trkpt lat="43.64461" lon="3.39013">
        <ele>209</ele>
        <time>2016-02-21T13:49:13Z</time>
      </trkpt>
      <trkpt lat="43.6446" lon="3.39017">
        <ele>209.5</ele>
        <time>2016-02-21T13:49:14Z</time>
      </trkpt>
      <trkpt lat="43.64459" lon="3.39021">
        <ele>210</ele>
        <time>2016-02-21T13:49:15Z</time>
      </trkpt>
      <trkpt lat="43.64458" lon="3.39024">
        <ele>210.5</ele>
        <time>2016-02-21T13:49:16Z</time>
      </trkpt>
      <trkpt lat="43.64456" lon="3.39028">
        <ele>211</ele>
        <time>2016-02-21T13:49:17Z</time>
      </trkpt>
      <trkpt lat="43.64455" lon="3.39032">
        <ele>211.5</ele>
        <time>2016-02-21T13:49:18Z</time>
      </trkpt>
      <trkpt lat="43.64453" lon="3.39036">
        <ele>211</ele>
        <time>2016-02-21T13:49:19Z</time>
      </trkpt>
      <trkpt lat="43.64452" lon="3.3904">
        <ele>211.5</ele>
        <time>2016-02-21T13:49:20Z</time>
      </trkpt>
      <trkpt lat="43.64451" lon="3.39044">
        <ele>211</ele>
        <time>2016-02-21T13:49:21Z</time>
      </trkpt>
      <trkpt lat="43.64449" lon="3.39047">
        <ele>211</ele>
        <time>2016-02-21T13:49:22Z</time>
      </trkpt>
      <trkpt lat="43.64448" lon="3.39051">
        <ele>211</ele>
        <time>2016-02-21T13:49:23Z</time>
      </trkpt>
      <trkpt lat="43.64447" lon="3.39055">
        <ele>211</ele>
        <time>2016-02-21T13:49:24Z</time>
      </trkpt>
      <trkpt lat="43.64446" lon="3.39059">
        <ele>211</ele>
        <time>2016-02-21T13:49:24Z</time>
      </trkpt>
      <trkpt lat="43.64445" lon="3.39062">
        <ele>211.5</ele>
        <time>2016-02-21T13:49:26Z</time>
      </trkpt>
      <trkpt lat="43.64443" lon="3.39066">
        <ele>211.5</ele>
        <time>2016-02-21T13:49:27Z</time>
      </trkpt>
      <trkpt lat="43.64442" lon="3.3907">
        <ele>211.5</ele>
        <time>2016-02-21T13:49:28Z</time>
      </trkpt>
      <trkpt lat="43.6444" lon="3.39074">
        <ele>211.5</ele>
        <time>2016-02-21T13:49:28Z</time>
      </trkpt>
      <trkpt lat="43.64438" lon="3.39077">
        <ele>211</ele>
        <time>2016-02-21T13:49:29Z</time>
      </trkpt>
      <trkpt lat="43.64437" lon="3.39081">
        <ele>211</ele>
        <time>2016-02-21T13:49:30Z</time>
      </trkpt>
      <trkpt lat="43.64435" lon="3.39085">
        <ele>211.5</ele>
        <time>2016-02-21T13:49:31Z</time>
      </trkpt>
      <trkpt lat="43.64434" lon="3.39089">
        <ele>211</ele>
        <time>2016-02-21T13:49:32Z</time>
      </trkpt>
      <trkpt lat="43.64432" lon="3.39092">
        <ele>210.5</ele>
        <time>2016-02-21T13:49:33Z</time>
      </trkpt>
      <trkpt lat="43.64429" lon="3.39096">
        <ele>210</ele>
        <time>2016-02-21T13:49:34Z</time>
      </trkpt>
      <trkpt lat="43.64427" lon="3.39099">
        <ele>209.5</ele>
        <time>2016-02-21T13:49:35Z</time>
      </trkpt>
      <trkpt lat="43.64426" lon="3.39103">
        <ele>209</ele>
        <time>2016-02-21T13:49:36Z</time>
      </trkpt>
      <trkpt lat="43.64424" lon="3.39107">
        <ele>209</ele>
        <time>2016-02-21T13:49:37Z</time>
      </trkpt>
      <trkpt lat="43.64423" lon="3.39111">
        <ele>208.5</ele>
        <time>2016-02-21T13:49:38Z</time>
      </trkpt>
      <trkpt lat="43.64421" lon="3.39114">
        <ele>208.5</ele>
        <time>2016-02-21T13:49:39Z</time>
      </trkpt>
      <trkpt lat="43.6442" lon="3.39118">
        <ele>209</ele>
        <time>2016-02-21T13:49:40Z</time>
      </trkpt>
      <trkpt lat="43.64418" lon="3.39122">
        <ele>209</ele>
        <time>2016-02-21T13:49:41Z</time>
      </trkpt>
      <trkpt lat="43.64416" lon="3.39125">
        <ele>209</ele>
        <time>2016-02-21T13:49:42Z</time>
      </trkpt>
      <trkpt lat="43.64415" lon="3.39129">
        <ele>210</ele>
        <time>2016-02-21T13:49:43Z</time>
      </trkpt>
      <trkpt lat="43.64413" lon="3.39133">
        <ele>210.5</ele>
        <time>2016-02-21T13:49:44Z</time>
      </trkpt>
      <trkpt lat="43.64412" lon="3.39137">
        <ele>210</ele>
        <time>2016-02-21T13:49:45Z</time>
      </trkpt>
      <trkpt lat="43.64411" lon="3.39141">
        <ele>210.5</ele>
        <time>2016-02-21T13:49:46Z</time>
      </trkpt>
      <trkpt lat="43.64409" lon="3.39144">
        <ele>210</ele>
        <time>2016-02-21T13:49:47Z</time>
      </trkpt>
      <trkpt lat="43.64407" lon="3.39148">
        <ele>210</ele>
        <time>2016-02-21T13:49:48Z</time>
      </trkpt>
      <trkpt lat="43.64406" lon="3.39152">
        <ele>209.5</ele>
        <time>2016-02-21T13:49:49Z</time>
      </trkpt>
      <trkpt lat="43.64404" lon="3.39156">
        <ele>210</ele>
        <time>2016-02-21T13:49:50Z</time>
      </trkpt>
      <trkpt lat="43.64403" lon="3.3916">
        <ele>209.5</ele>
        <time>2016-02-21T13:49:51Z</time>
      </trkpt>
      <trkpt lat="43.64401" lon="3.39164">
        <ele>210.5</ele>
        <time>2016-02-21T13:49:52Z</time>
      </trkpt>
      <trkpt lat="43.644" lon="3.39167">
        <ele>211</ele>
        <time>2016-02-21T13:49:53Z</time>
      </trkpt>
      <trkpt lat="43.64399" lon="3.39171">
        <ele>211</ele>
        <time>2016-02-21T13:49:54Z</time>
      </trkpt>
      <trkpt lat="43.64397" lon="3.39175">
        <ele>211</ele>
        <time>2016-02-21T13:49:55Z</time>
      </trkpt>
      <trkpt lat="43.64396" lon="3.39179">
        <ele>211.5</ele>
        <time>2016-02-21T13:49:56Z</time>
      </trkpt>
      <trkpt lat="43.64394" lon="3.39183">
        <ele>211.5</ele>
        <time>2016-02-21T13:49:57Z</time>
      </trkpt>
      <trkpt lat="43.64393" lon="3.39187">
        <ele>212</ele>
        <time>2016-02-21T13:49:58Z</time>
      </trkpt>
      <trkpt lat="43.64393" lon="3.39191">
        <ele>212</ele>
        <time>2016-02-21T13:49:59Z</time>
      </trkpt>
      <trkpt lat="43.64391" lon="3.39195">
        <ele>212</ele>
        <time>2016-02-21T13:50:00Z</time>
      </trkpt>
      <trkpt lat="43.6439" lon="3.39198">
        <ele>212.5</ele>
        <time>2016-02-21T13:50:01Z</time>
      </trkpt>
      <trkpt lat="43.64387" lon="3.39202">
        <ele>210.5</ele>
        <time>2016-02-21T13:50:02Z</time>
      </trkpt>
      <trkpt lat="43.64386" lon="3.39206">
        <ele>210.5</ele>
        <time>2016-02-21T13:50:03Z</time>
      </trkpt>
      <trkpt lat="43.64384" lon="3.3921">
        <ele>210</ele>
        <time>2016-02-21T13:50:04Z</time>
      </trkpt>
      <trkpt lat="43.64383" lon="3.39213">
        <ele>210</ele>
        <time>2016-02-21T13:50:05Z</time>
      </trkpt>
      <trkpt lat="43.64381" lon="3.39217">
        <ele>210.5</ele>
        <time>2016-02-21T13:50:06Z</time>
      </trkpt>
      <trkpt lat="43.6438" lon="3.39221">
        <ele>211</ele>
        <time>2016-02-21T13:50:07Z</time>
      </trkpt>
      <trkpt lat="43.64378" lon="3.39224">
        <ele>211.5</ele>
        <time>2016-02-21T13:50:08Z</time>
      </trkpt>
      <trkpt lat="43.64376" lon="3.39228">
        <ele>211.5</ele>
        <time>2016-02-21T13:50:09Z</time>
      </trkpt>
      <trkpt lat="43.64374" lon="3.39232">
        <ele>211.5</ele>
        <time>2016-02-21T13:50:10Z</time>
      </trkpt>
      <trkpt lat="43.64372" lon="3.39235">
        <ele>211.5</ele>
        <time>2016-02-21T13:50:11Z</time>
      </trkpt>
      <trkpt lat="43.64371" lon="3.39239">
        <ele>212</ele>
        <time>2016-02-21T13:50:12Z</time>
      </trkpt>
      <trkpt lat="43.64369" lon="3.39243">
        <ele>212</ele>
        <time>2016-02-21T13:50:13Z</time>
      </trkpt>
      <trkpt lat="43.64368" lon="3.39247">
        <ele>212.5</ele>
        <time>2016-02-21T13:50:14Z</time>
      </trkpt>
      <trkpt lat="43.64367" lon="3.39251">
        <ele>212.5</ele>
        <time>2016-02-21T13:50:15Z</time>
      </trkpt>
      <trkpt lat="43.64365" lon="3.39254">
        <ele>212.5</ele>
        <time>2016-02-21T13:50:16Z</time>
      </trkpt>
      <trkpt lat="43.64364" lon="3.39259">
        <ele>212.5</ele>
        <time>2016-02-21T13:50:17Z</time>
      </trkpt>
      <trkpt lat="43.64363" lon="3.39263">
        <ele>213</ele>
        <time>2016-02-21T13:50:18Z</time>
      </trkpt>
      <trkpt lat="43.64361" lon="3.39267">
        <ele>213</ele>
        <time>2016-02-21T13:50:19Z</time>
      </trkpt>
      <trkpt lat="43.64359" lon="3.39272">
        <ele>213</ele>
        <time>2016-02-21T13:50:20Z</time>
      </trkpt>
      <trkpt lat="43.64358" lon="3.39276">
        <ele>213.5</ele>
        <time>2016-02-21T13:50:21Z</time>
      </trkpt>
      <trkpt lat="43.64356" lon="3.39281">
        <ele>213.5</ele>
        <time>2016-02-21T13:50:22Z</time>
      </trkpt>
      <trkpt lat="43.64355" lon="3.39286">
        <ele>214</ele>
        <time>2016-02-21T13:50:23Z</time>
      </trkpt>
      <trkpt lat="43.64352" lon="3.3929">
        <ele>213.5</ele>
        <time>2016-02-21T13:50:24Z</time>
      </trkpt>
      <trkpt lat="43.6435" lon="3.39295">
        <ele>213</ele>
        <time>2016-02-21T13:50:25Z</time>
      </trkpt>
      <trkpt lat="43.64348" lon="3.393">
        <ele>213</ele>
        <time>2016-02-21T13:50:26Z</time>
      </trkpt>
      <trkpt lat="43.64346" lon="3.39304">
        <ele>213.5</ele>
        <time>2016-02-21T13:50:27Z</time>
      </trkpt>
      <trkpt lat="43.64344" lon="3.39309">
        <ele>213.5</ele>
        <time>2016-02-21T13:50:28Z</time>
      </trkpt>
      <trkpt lat="43.64343" lon="3.39314">
        <ele>213.5</ele>
        <time>2016-02-21T13:50:29Z</time>
      </trkpt>
      <trkpt lat="43.64341" lon="3.39318">
        <ele>214</ele>
        <time>2016-02-21T13:50:30Z</time>
      </trkpt>
      <trkpt lat="43.64339" lon="3.39323">
        <ele>213.5</ele>
        <time>2016-02-21T13:50:31Z</time>
      </trkpt>
      <trkpt lat="43.64337" lon="3.39328">
        <ele>213.5</ele>
        <time>2016-02-21T13:50:32Z</time>
      </trkpt>
      <trkpt lat="43.64335" lon="3.39332">
        <ele>213</ele>
        <time>2016-02-21T13:50:33Z</time>
      </trkpt>
      <trkpt lat="43.64333" lon="3.39336">
        <ele>213</ele>
        <time>2016-02-21T13:50:34Z</time>
      </trkpt>
      <trkpt lat="43.64331" lon="3.39341">
        <ele>213.5</ele>
        <time>2016-02-21T13:50:35Z</time>
      </trkpt>
      <trkpt lat="43.64329" lon="3.39345">
        <ele>213.5</ele>
        <time>2016-02-21T13:50:36Z</time>
      </trkpt>
      <trkpt lat="43.64327" lon="3.39349">
        <ele>213.5</ele>
        <time>2016-02-21T13:50:37Z</time>
      </trkpt>
      <trkpt lat="43.64325" lon="3.39353">
        <ele>213.5</ele>
        <time>2016-02-21T13:50:38Z</time>
      </trkpt>
      <trkpt lat="43.64323" lon="3.39357">
        <ele>213.5</ele>
        <time>2016-02-21T13:50:39Z</time>
      </trkpt>
      <trkpt lat="43.64321" lon="3.39361">
        <ele>212.5</ele>
        <time>2016-02-21T13:50:40Z</time>
      </trkpt>
      <trkpt lat="43.6432" lon="3.39365">
        <ele>213</ele>
        <time>2016-02-21T13:50:41Z</time>
      </trkpt>
      <trkpt lat="43.64318" lon="3.39369">
        <ele>214</ele>
        <time>2016-02-21T13:50:42Z</time>
      </trkpt>
      <trkpt lat="43.64316" lon="3.39373">
        <ele>214</ele>
        <time>2016-02-21T13:50:43Z</time>
      </trkpt>
      <trkpt lat="43.64315" lon="3.39377">
        <ele>214</ele>
        <time>2016-02-21T13:50:44Z</time>
      </trkpt>
      <trkpt lat="43.64313" lon="3.39381">
        <ele>214.5</ele>
        <time>2016-02-21T13:50:45Z</time>
      </trkpt>
      <trkpt lat="43.64311" lon="3.39385">
        <ele>214.5</ele>
        <time>2016-02-21T13:50:46Z</time>
      </trkpt>
      <trkpt lat="43.64309" lon="3.39389">
        <ele>214</ele>
        <time>2016-02-21T13:50:47Z</time>
      </trkpt>
      <trkpt lat="43.64307" lon="3.39393">
        <ele>214</ele>
        <time>2016-02-21T13:50:48Z</time>
      </trkpt>
      <trkpt lat="43.64305" lon="3.39397">
        <ele>213.5</ele>
        <time>2016-02-21T13:50:49Z</time>
      </trkpt>
      <trkpt lat="43.64303" lon="3.39401">
        <ele>213.5</ele>
        <time>2016-02-21T13:50:50Z</time>
      </trkpt>
      <trkpt lat="43.64301" lon="3.39405">
        <ele>213</ele>
        <time>2016-02-21T13:50:51Z</time>
      </trkpt>
      <trkpt lat="43.64299" lon="3.39409">
        <ele>212.5</ele>
        <time>2016-02-21T13:50:52Z</time>
      </trkpt>
      <trkpt lat="43.64297" lon="3.39413">
        <ele>212</ele>
        <time>2016-02-21T13:50:53Z</time>
      </trkpt>
      <trkpt lat="43.64294" lon="3.39417">
        <ele>211.5</ele>
        <time>2016-02-21T13:50:54Z</time>
      </trkpt>
      <trkpt lat="43.64292" lon="3.39421">
        <ele>211.5</ele>
        <time>2016-02-21T13:50:55Z</time>
      </trkpt>
      <trkpt lat="43.6429" lon="3.39425">
        <ele>211.5</ele>
        <time>2016-02-21T13:50:56Z</time>
      </trkpt>
      <trkpt lat="43.64288" lon="3.39429">
        <ele>212</ele>
        <time>2016-02-21T13:50:57Z</time>
      </trkpt>
      <trkpt lat="43.64286" lon="3.39434">
        <ele>212.5</ele>
        <time>2016-02-21T13:50:58Z</time>
      </trkpt>
      <trkpt lat="43.64285" lon="3.39438">
        <ele>212.5</ele>
        <time>2016-02-21T13:50:59Z</time>
      </trkpt>
      <trkpt lat="43.64283" lon="3.39442">
        <ele>212.5</ele>
        <time>2016-02-21T13:51:00Z</time>
      </trkpt>
      <trkpt lat="43.64281" lon="3.39446">
        <ele>212.5</ele>
        <time>2016-02-21T13:51:01Z</time>
      </trkpt>
      <trkpt lat="43.64279" lon="3.39451">
        <ele>213</ele>
        <time>2016-02-21T13:51:02Z</time>
      </trkpt>
      <trkpt lat="43.64277" lon="3.39455">
        <ele>213</ele>
        <time>2016-02-21T13:51:03Z</time>
      </trkpt>
      <trkpt lat="43.64276" lon="3.39459">
        <ele>213</ele>
        <time>2016-02-21T13:51:04Z</time>
      </trkpt>
      <trkpt lat="43.64274" lon="3.39463">
        <ele>213</ele>
        <time>2016-02-21T13:51:05Z</time>
      </trkpt>
      <trkpt lat="43.64272" lon="3.39467">
        <ele>213</ele>
        <time>2016-02-21T13:51:06Z</time>
      </trkpt>
      <trkpt lat="43.6427" lon="3.39471">
        <ele>213</ele>
        <time>2016-02-21T13:51:07Z</time>
      </trkpt>
      <trkpt lat="43.64269" lon="3.39475">
        <ele>213.5</ele>
        <time>2016-02-21T13:51:08Z</time>
      </trkpt>
      <trkpt lat="43.64267" lon="3.3948">
        <ele>213.5</ele>
        <time>2016-02-21T13:51:09Z</time>
      </trkpt>
      <trkpt lat="43.64266" lon="3.39484">
        <ele>213.5</ele>
        <time>2016-02-21T13:51:10Z</time>
      </trkpt>
      <trkpt lat="43.64264" lon="3.39488">
        <ele>214</ele>
        <time>2016-02-21T13:51:11Z</time>
      </trkpt>
      <trkpt lat="43.64262" lon="3.39492">
        <ele>214</ele>
        <time>2016-02-21T13:51:12Z</time>
      </trkpt>
      <trkpt lat="43.6426" lon="3.39496">
        <ele>214.5</ele>
        <time>2016-02-21T13:51:13Z</time>
      </trkpt>
      <trkpt lat="43.64259" lon="3.395">
        <ele>214.5</ele>
        <time>2016-02-21T13:51:14Z</time>
      </trkpt>
      <trkpt lat="43.64257" lon="3.39504">
        <ele>215</ele>
        <time>2016-02-21T13:51:15Z</time>
      </trkpt>
      <trkpt lat="43.64255" lon="3.39508">
        <ele>214.5</ele>
        <time>2016-02-21T13:51:16Z</time>
      </trkpt>
      <trkpt lat="43.64253" lon="3.39512">
        <ele>214.5</ele>
        <time>2016-02-21T13:51:17Z</time>
      </trkpt>
      <trkpt lat="43.64251" lon="3.39516">
        <ele>214.5</ele>
        <time>2016-02-21T13:51:18Z</time>
      </trkpt>
      <trkpt lat="43.64252" lon="3.3952">
        <ele>216.5</ele>
        <time>2016-02-21T13:51:19Z</time>
      </trkpt>
      <trkpt lat="43.6425" lon="3.39524">
        <ele>217</ele>
        <time>2016-02-21T13:51:20Z</time>
      </trkpt>
      <trkpt lat="43.64248" lon="3.39528">
        <ele>217</ele>
        <time>2016-02-21T13:51:21Z</time>
      </trkpt>
      <trkpt lat="43.64247" lon="3.39532">
        <ele>217</ele>
        <time>2016-02-21T13:51:22Z</time>
      </trkpt>
      <trkpt lat="43.64245" lon="3.39536">
        <ele>217.5</ele>
        <time>2016-02-21T13:51:23Z</time>
      </trkpt>
      <trkpt lat="43.64243" lon="3.3954">
        <ele>217.5</ele>
        <time>2016-02-21T13:51:24Z</time>
      </trkpt>
      <trkpt lat="43.64241" lon="3.39544">
        <ele>217</ele>
        <time>2016-02-21T13:51:25Z</time>
      </trkpt>
      <trkpt lat="43.64238" lon="3.39547">
        <ele>216.5</ele>
        <time>2016-02-21T13:51:26Z</time>
      </trkpt>
      <trkpt lat="43.64236" lon="3.3955">
        <ele>215.5</ele>
        <time>2016-02-21T13:51:27Z</time>
      </trkpt>
      <trkpt lat="43.64233" lon="3.39554">
        <ele>215</ele>
        <time>2016-02-21T13:51:28Z</time>
      </trkpt>
      <trkpt lat="43.6423" lon="3.39557">
        <ele>215.5</ele>
        <time>2016-02-21T13:51:29Z</time>
      </trkpt>
      <trkpt lat="43.64228" lon="3.39561">
        <ele>215</ele>
        <time>2016-02-21T13:51:30Z</time>
      </trkpt>
      <trkpt lat="43.64227" lon="3.39565">
        <ele>216</ele>
        <time>2016-02-21T13:51:31Z</time>
      </trkpt>
      <trkpt lat="43.64225" lon="3.39569">
        <ele>215.5</ele>
        <time>2016-02-21T13:51:32Z</time>
      </trkpt>
      <trkpt lat="43.64223" lon="3.39573">
        <ele>215</ele>
        <time>2016-02-21T13:51:33Z</time>
      </trkpt>
      <trkpt lat="43.6422" lon="3.39578">
        <ele>214</ele>
        <time>2016-02-21T13:51:34Z</time>
      </trkpt>
      <trkpt lat="43.6422" lon="3.39583">
        <ele>215.5</ele>
        <time>2016-02-21T13:51:35Z</time>
      </trkpt>
      <trkpt lat="43.64218" lon="3.39587">
        <ele>215.5</ele>
        <time>2016-02-21T13:51:36Z</time>
      </trkpt>
      <trkpt lat="43.64216" lon="3.39591">
        <ele>215.5</ele>
        <time>2016-02-21T13:51:37Z</time>
      </trkpt>
      <trkpt lat="43.64214" lon="3.39595">
        <ele>214.5</ele>
        <time>2016-02-21T13:51:38Z</time>
      </trkpt>
      <trkpt lat="43.64212" lon="3.39599">
        <ele>214.5</ele>
        <time>2016-02-21T13:51:39Z</time>
      </trkpt>
      <trkpt lat="43.64209" lon="3.39603">
        <ele>213.5</ele>
        <time>2016-02-21T13:51:40Z</time>
      </trkpt>
      <trkpt lat="43.64208" lon="3.39608">
        <ele>215</ele>
        <time>2016-02-21T13:51:41Z</time>
      </trkpt>
      <trkpt lat="43.64206" lon="3.39612">
        <ele>215</ele>
        <time>2016-02-21T13:51:42Z</time>
      </trkpt>
      <trkpt lat="43.64203" lon="3.39616">
        <ele>215.5</ele>
        <time>2016-02-21T13:51:43Z</time>
      </trkpt>
      <trkpt lat="43.64202" lon="3.3962">
        <ele>215</ele>
        <time>2016-02-21T13:51:44Z</time>
      </trkpt>
      <trkpt lat="43.642" lon="3.39624">
        <ele>216</ele>
        <time>2016-02-21T13:51:45Z</time>
      </trkpt>
      <trkpt lat="43.64199" lon="3.39628">
        <ele>216.5</ele>
        <time>2016-02-21T13:51:46Z</time>
      </trkpt>
      <trkpt lat="43.64196" lon="3.39632">
        <ele>216.5</ele>
        <time>2016-02-21T13:51:47Z</time>
      </trkpt>
      <trkpt lat="43.64195" lon="3.39636">
        <ele>217</ele>
        <time>2016-02-21T13:51:48Z</time>
      </trkpt>
      <trkpt lat="43.64193" lon="3.3964">
        <ele>217.5</ele>
        <time>2016-02-21T13:51:49Z</time>
      </trkpt>
      <trkpt lat="43.64191" lon="3.39644">
        <ele>217.5</ele>
        <time>2016-02-21T13:51:50Z</time>
      </trkpt>
      <trkpt lat="43.64189" lon="3.39648">
        <ele>219.5</ele>
        <time>2016-02-21T13:51:51Z</time>
      </trkpt>
      <trkpt lat="43.64188" lon="3.39653">
        <ele>221</ele>
        <time>2016-02-21T13:51:52Z</time>
      </trkpt>
      <trkpt lat="43.64186" lon="3.39657">
        <ele>222</ele>
        <time>2016-02-21T13:51:53Z</time>
      </trkpt>
      <trkpt lat="43.64184" lon="3.39661">
        <ele>222.5</ele>
        <time>2016-02-21T13:51:54Z</time>
      </trkpt>
      <trkpt lat="43.64182" lon="3.39665">
        <ele>223</ele>
        <time>2016-02-21T13:51:55Z</time>
      </trkpt>
      <trkpt lat="43.6418" lon="3.39669">
        <ele>222.5</ele>
        <time>2016-02-21T13:51:56Z</time>
      </trkpt>
      <trkpt lat="43.64179" lon="3.39673">
        <ele>223</ele>
        <time>2016-02-21T13:51:57Z</time>
      </trkpt>
      <trkpt lat="43.64177" lon="3.39678">
        <ele>223.5</ele>
        <time>2016-02-21T13:51:58Z</time>
      </trkpt>
      <trkpt lat="43.64175" lon="3.39682">
        <ele>224</ele>
        <time>2016-02-21T13:51:59Z</time>
      </trkpt>
      <trkpt lat="43.64174" lon="3.39686">
        <ele>225.5</ele>
        <time>2016-02-21T13:52:00Z</time>
      </trkpt>
      <trkpt lat="43.64172" lon="3.39691">
        <ele>225.5</ele>
        <time>2016-02-21T13:52:01Z</time>
      </trkpt>
      <trkpt lat="43.64171" lon="3.39695">
        <ele>225.5</ele>
        <time>2016-02-21T13:52:02Z</time>
      </trkpt>
      <trkpt lat="43.64169" lon="3.39699">
        <ele>226</ele>
        <time>2016-02-21T13:52:03Z</time>
      </trkpt>
      <trkpt lat="43.64167" lon="3.39703">
        <ele>226.5</ele>
        <time>2016-02-21T13:52:04Z</time>
      </trkpt>
      <trkpt lat="43.64165" lon="3.39707">
        <ele>227</ele>
        <time>2016-02-21T13:52:05Z</time>
      </trkpt>
      <trkpt lat="43.64164" lon="3.39712">
        <ele>227.5</ele>
        <time>2016-02-21T13:52:06Z</time>
      </trkpt>
      <trkpt lat="43.64162" lon="3.39716">
        <ele>227.5</ele>
        <time>2016-02-21T13:52:07Z</time>
      </trkpt>
      <trkpt lat="43.64161" lon="3.3972">
        <ele>227.5</ele>
        <time>2016-02-21T13:52:08Z</time>
      </trkpt>
      <trkpt lat="43.64159" lon="3.39724">
        <ele>227.5</ele>
        <time>2016-02-21T13:52:09Z</time>
      </trkpt>
      <trkpt lat="43.64158" lon="3.39729">
        <ele>228.5</ele>
        <time>2016-02-21T13:52:10Z</time>
      </trkpt>
      <trkpt lat="43.64156" lon="3.39733">
        <ele>229.5</ele>
        <time>2016-02-21T13:52:11Z</time>
      </trkpt>
      <trkpt lat="43.64156" lon="3.39737">
        <ele>230.5</ele>
        <time>2016-02-21T13:52:12Z</time>
      </trkpt>
      <trkpt lat="43.64153" lon="3.39742">
        <ele>230.5</ele>
        <time>2016-02-21T13:52:13Z</time>
      </trkpt>
      <trkpt lat="43.6415" lon="3.39746">
        <ele>228.5</ele>
        <time>2016-02-21T13:52:14Z</time>
      </trkpt>
      <trkpt lat="43.64148" lon="3.3975">
        <ele>228</ele>
        <time>2016-02-21T13:52:15Z</time>
      </trkpt>
      <trkpt lat="43.64146" lon="3.39754">
        <ele>228</ele>
        <time>2016-02-21T13:52:16Z</time>
      </trkpt>
      <trkpt lat="43.64145" lon="3.39758">
        <ele>228.5</ele>
        <time>2016-02-21T13:52:17Z</time>
      </trkpt>
      <trkpt lat="43.64143" lon="3.39762">
        <ele>228.5</ele>
        <time>2016-02-21T13:52:18Z</time>
      </trkpt>
      <trkpt lat="43.64142" lon="3.39766">
        <ele>229</ele>
        <time>2016-02-21T13:52:19Z</time>
      </trkpt>
      <trkpt lat="43.64141" lon="3.39771">
        <ele>229.5</ele>
        <time>2016-02-21T13:52:20Z</time>
      </trkpt>
      <trkpt lat="43.64139" lon="3.39775">
        <ele>229.5</ele>
        <time>2016-02-21T13:52:21Z</time>
      </trkpt>
      <trkpt lat="43.64138" lon="3.39779">
        <ele>230</ele>
        <time>2016-02-21T13:52:22Z</time>
      </trkpt>
      <trkpt lat="43.64136" lon="3.39783">
        <ele>230</ele>
        <time>2016-02-21T13:52:23Z</time>
      </trkpt>
      <trkpt lat="43.64134" lon="3.39787">
        <ele>230</ele>
        <time>2016-02-21T13:52:24Z</time>
      </trkpt>
      <trkpt lat="43.64132" lon="3.3979">
        <ele>229.5</ele>
        <time>2016-02-21T13:52:25Z</time>
      </trkpt>
      <trkpt lat="43.6413" lon="3.39795">
        <ele>230</ele>
        <time>2016-02-21T13:52:26Z</time>
      </trkpt>
      <trkpt lat="43.64129" lon="3.39799">
        <ele>229.5</ele>
        <time>2016-02-21T13:52:27Z</time>
      </trkpt>
      <trkpt lat="43.64127" lon="3.39803">
        <ele>229</ele>
        <time>2016-02-21T13:52:28Z</time>
      </trkpt>
      <trkpt lat="43.64125" lon="3.39807">
        <ele>229.5</ele>
        <time>2016-02-21T13:52:29Z</time>
      </trkpt>
      <trkpt lat="43.64124" lon="3.39811">
        <ele>229.5</ele>
        <time>2016-02-21T13:52:30Z</time>
      </trkpt>
      <trkpt lat="43.64123" lon="3.39815">
        <ele>229.5</ele>
        <time>2016-02-21T13:52:31Z</time>
      </trkpt>
      <trkpt lat="43.64121" lon="3.39819">
        <ele>229.5</ele>
        <time>2016-02-21T13:52:32Z</time>
      </trkpt>
      <trkpt lat="43.6412" lon="3.39823">
        <ele>230</ele>
        <time>2016-02-21T13:52:33Z</time>
      </trkpt>
      <trkpt lat="43.64119" lon="3.39827">
        <ele>230</ele>
        <time>2016-02-21T13:52:34Z</time>
      </trkpt>
      <trkpt lat="43.64118" lon="3.39831">
        <ele>230.5</ele>
        <time>2016-02-21T13:52:35Z</time>
      </trkpt>
      <trkpt lat="43.64117" lon="3.39835">
        <ele>231</ele>
        <time>2016-02-21T13:52:36Z</time>
      </trkpt>
      <trkpt lat="43.64116" lon="3.39839">
        <ele>231</ele>
        <time>2016-02-21T13:52:37Z</time>
      </trkpt>
      <trkpt lat="43.64115" lon="3.39842">
        <ele>231</ele>
        <time>2016-02-21T13:52:38Z</time>
      </trkpt>
      <trkpt lat="43.64113" lon="3.39846">
        <ele>231</ele>
        <time>2016-02-21T13:52:39Z</time>
      </trkpt>
      <trkpt lat="43.64114" lon="3.3985">
        <ele>232.5</ele>
        <time>2016-02-21T13:52:40Z</time>
      </trkpt>
      <trkpt lat="43.64113" lon="3.39853">
        <ele>233.5</ele>
        <time>2016-02-21T13:52:41Z</time>
      </trkpt>
      <trkpt lat="43.6411" lon="3.39855">
        <ele>233.5</ele>
        <time>2016-02-21T13:52:42Z</time>
      </trkpt>
      <trkpt lat="43.64108" lon="3.39856">
        <ele>234</ele>
        <time>2016-02-21T13:52:43Z</time>
      </trkpt>
      <trkpt lat="43.64106" lon="3.39857">
        <ele>234</ele>
        <time>2016-02-21T13:52:44Z</time>
      </trkpt>
      <trkpt lat="43.64104" lon="3.39858">
        <ele>234.5</ele>
        <time>2016-02-21T13:52:45Z</time>
      </trkpt>
      <trkpt lat="43.64102" lon="3.39858">
        <ele>234</ele>
        <time>2016-02-21T13:52:46Z</time>
      </trkpt>
      <trkpt lat="43.64099" lon="3.39859">
        <ele>234</ele>
        <time>2016-02-21T13:52:47Z</time>
      </trkpt>
      <trkpt lat="43.64096" lon="3.39859">
        <ele>234</ele>
        <time>2016-02-21T13:52:48Z</time>
      </trkpt>
      <trkpt lat="43.64094" lon="3.3986">
        <ele>234</ele>
        <time>2016-02-21T13:52:49Z</time>
      </trkpt>
      <trkpt lat="43.64092" lon="3.39862">
        <ele>234</ele>
        <time>2016-02-21T13:52:50Z</time>
      </trkpt>
      <trkpt lat="43.6409" lon="3.39863">
        <ele>235</ele>
        <time>2016-02-21T13:52:51Z</time>
      </trkpt>
      <trkpt lat="43.64089" lon="3.39863">
        <ele>235</ele>
        <time>2016-02-21T13:52:52Z</time>
      </trkpt>
      <trkpt lat="43.64087" lon="3.39865">
        <ele>235</ele>
        <time>2016-02-21T13:52:53Z</time>
      </trkpt>
      <trkpt lat="43.64084" lon="3.39865">
        <ele>234.5</ele>
        <time>2016-02-21T13:52:53Z</time>
      </trkpt>
      <trkpt lat="43.64082" lon="3.39865">
        <ele>234.5</ele>
        <time>2016-02-21T13:52:54Z</time>
      </trkpt>
      <trkpt lat="43.6408" lon="3.39866">
        <ele>235.5</ele>
        <time>2016-02-21T13:52:55Z</time>
      </trkpt>
      <trkpt lat="43.64079" lon="3.39867">
        <ele>235.5</ele>
        <time>2016-02-21T13:52:56Z</time>
      </trkpt>
      <trkpt lat="43.64076" lon="3.39868">
        <ele>235</ele>
        <time>2016-02-21T13:52:57Z</time>
      </trkpt>
      <trkpt lat="43.64073" lon="3.39868">
        <ele>234</ele>
        <time>2016-02-21T13:52:58Z</time>
      </trkpt>
      <trkpt lat="43.64071" lon="3.39868">
        <ele>233</ele>
        <time>2016-02-21T13:52:59Z</time>
      </trkpt>
      <trkpt lat="43.64068" lon="3.39868">
        <ele>232.5</ele>
        <time>2016-02-21T13:53:01Z</time>
      </trkpt>
      <trkpt lat="43.64067" lon="3.39869">
        <ele>232.5</ele>
        <time>2016-02-21T13:53:01Z</time>
      </trkpt>
      <trkpt lat="43.64065" lon="3.39869">
        <ele>233</ele>
        <time>2016-02-21T13:53:02Z</time>
      </trkpt>
      <trkpt lat="43.64064" lon="3.3987">
        <ele>233.5</ele>
        <time>2016-02-21T13:53:03Z</time>
      </trkpt>
      <trkpt lat="43.64062" lon="3.3987">
        <ele>235</ele>
        <time>2016-02-21T13:53:04Z</time>
      </trkpt>
      <trkpt lat="43.6406" lon="3.39871">
        <ele>235.5</ele>
        <time>2016-02-21T13:53:05Z</time>
      </trkpt>
      <trkpt lat="43.64057" lon="3.39872">
        <ele>236</ele>
        <time>2016-02-21T13:53:06Z</time>
      </trkpt>
      <trkpt lat="43.64053" lon="3.39871">
        <ele>234.5</ele>
        <time>2016-02-21T13:53:07Z</time>
      </trkpt>
      <trkpt lat="43.64051" lon="3.39871">
        <ele>233.5</ele>
        <time>2016-02-21T13:53:08Z</time>
      </trkpt>
      <trkpt lat="43.64047" lon="3.39872">
        <ele>233.5</ele>
        <time>2016-02-21T13:53:09Z</time>
      </trkpt>
      <trkpt lat="43.64045" lon="3.39873">
        <ele>233.5</ele>
        <time>2016-02-21T13:53:10Z</time>
      </trkpt>
      <trkpt lat="43.64041" lon="3.39873">
        <ele>232</ele>
        <time>2016-02-21T13:53:11Z</time>
      </trkpt>
      <trkpt lat="43.64039" lon="3.39873">
        <ele>231.5</ele>
        <time>2016-02-21T13:53:12Z</time>
      </trkpt>
      <trkpt lat="43.64036" lon="3.39873">
        <ele>231.5</ele>
        <time>2016-02-21T13:53:13Z</time>
      </trkpt>
      <trkpt lat="43.64034" lon="3.39874">
        <ele>231.5</ele>
        <time>2016-02-21T13:53:15Z</time>
      </trkpt>
      <trkpt lat="43.64032" lon="3.39875">
        <ele>232.5</ele>
        <time>2016-02-21T13:53:15Z</time>
      </trkpt>
      <trkpt lat="43.6403" lon="3.39877">
        <ele>233</ele>
        <time>2016-02-21T13:53:16Z</time>
      </trkpt>
      <trkpt lat="43.64028" lon="3.39878">
        <ele>233.5</ele>
        <time>2016-02-21T13:53:17Z</time>
      </trkpt>
      <trkpt lat="43.64025" lon="3.39879">
        <ele>234</ele>
        <time>2016-02-21T13:53:18Z</time>
      </trkpt>
      <trkpt lat="43.64022" lon="3.39879">
        <ele>233.5</ele>
        <time>2016-02-21T13:53:19Z</time>
      </trkpt>
      <trkpt lat="43.64018" lon="3.39882">
        <ele>235</ele>
        <time>2016-02-21T13:53:21Z</time>
      </trkpt>
      <trkpt lat="43.64015" lon="3.39883">
        <ele>235</ele>
        <time>2016-02-21T13:53:22Z</time>
      </trkpt>
      <trkpt lat="43.64013" lon="3.39884">
        <ele>235</ele>
        <time>2016-02-21T13:53:23Z</time>
      </trkpt>
      <trkpt lat="43.6401" lon="3.39884">
        <ele>234.5</ele>
        <time>2016-02-21T13:53:24Z</time>
      </trkpt>
      <trkpt lat="43.64008" lon="3.39886">
        <ele>234</ele>
        <time>2016-02-21T13:53:25Z</time>
      </trkpt>
      <trkpt lat="43.64007" lon="3.39887">
        <ele>234.5</ele>
        <time>2016-02-21T13:53:26Z</time>
      </trkpt>
      <trkpt lat="43.64004" lon="3.39891">
        <ele>233.5</ele>
        <time>2016-02-21T13:53:28Z</time>
      </trkpt>
      <trkpt lat="43.64001" lon="3.39893">
        <ele>234</ele>
        <time>2016-02-21T13:53:29Z</time>
      </trkpt>
      <trkpt lat="43.63999" lon="3.39895">
        <ele>235.5</ele>
        <time>2016-02-21T13:53:30Z</time>
      </trkpt>
      <trkpt lat="43.63995" lon="3.39896">
        <ele>234.5</ele>
        <time>2016-02-21T13:53:31Z</time>
      </trkpt>
      <trkpt lat="43.63992" lon="3.39898">
        <ele>234.5</ele>
        <time>2016-02-21T13:53:33Z</time>
      </trkpt>
      <trkpt lat="43.63989" lon="3.39899">
        <ele>234.5</ele>
        <time>2016-02-21T13:53:33Z</time>
      </trkpt>
      <trkpt lat="43.63985" lon="3.39901">
        <ele>234.5</ele>
        <time>2016-02-21T13:53:34Z</time>
      </trkpt>
      <trkpt lat="43.63983" lon="3.39903">
        <ele>234</ele>
        <time>2016-02-21T13:53:35Z</time>
      </trkpt>
      <trkpt lat="43.63979" lon="3.39904">
        <ele>233</ele>
        <time>2016-02-21T13:53:36Z</time>
      </trkpt>
      <trkpt lat="43.63974" lon="3.39905">
        <ele>232</ele>
        <time>2016-02-21T13:53:37Z</time>
      </trkpt>
      <trkpt lat="43.6397" lon="3.39906">
        <ele>231</ele>
        <time>2016-02-21T13:53:38Z</time>
      </trkpt>
      <trkpt lat="43.63965" lon="3.39908">
        <ele>230.5</ele>
        <time>2016-02-21T13:53:39Z</time>
      </trkpt>
      <trkpt lat="43.63962" lon="3.3991">
        <ele>233</ele>
        <time>2016-02-21T13:53:40Z</time>
      </trkpt>
      <trkpt lat="43.63958" lon="3.39911">
        <ele>233</ele>
        <time>2016-02-21T13:53:42Z</time>
      </trkpt>
      <trkpt lat="43.63952" lon="3.39916">
        <ele>233.5</ele>
        <time>2016-02-21T13:53:43Z</time>
      </trkpt>
      <trkpt lat="43.63949" lon="3.39917">
        <ele>233.5</ele>
        <time>2016-02-21T13:53:44Z</time>
      </trkpt>
      <trkpt lat="43.63948" lon="3.39915">
        <ele>233</ele>
        <time>2016-02-21T13:53:45Z</time>
      </trkpt>
      <trkpt lat="43.63939" lon="3.39915">
        <ele>232.5</ele>
        <time>2016-02-21T13:53:47Z</time>
      </trkpt>
      <trkpt lat="43.63935" lon="3.39916">
        <ele>232.5</ele>
        <time>2016-02-21T13:53:48Z</time>
      </trkpt>
      <trkpt lat="43.63925" lon="3.39917">
        <ele>233</ele>
        <time>2016-02-21T13:53:50Z</time>
      </trkpt>
      <trkpt lat="43.63922" lon="3.39918">
        <ele>233.5</ele>
        <time>2016-02-21T13:53:51Z</time>
      </trkpt>
      <trkpt lat="43.63919" lon="3.39919">
        <ele>234.5</ele>
        <time>2016-02-21T13:53:52Z</time>
      </trkpt>
      <trkpt lat="43.63915" lon="3.3992">
        <ele>234.5</ele>
        <time>2016-02-21T13:53:53Z</time>
      </trkpt>
      <trkpt lat="43.63912" lon="3.3992">
        <ele>234.5</ele>
        <time>2016-02-21T13:53:54Z</time>
      </trkpt>
      <trkpt lat="43.63911" lon="3.39919">
        <ele>235</ele>
        <time>2016-02-21T13:53:55Z</time>
      </trkpt>
      <trkpt lat="43.6391" lon="3.39918">
        <ele>234</ele>
        <time>2016-02-21T13:53:56Z</time>
      </trkpt>
      <trkpt lat="43.63908" lon="3.39916">
        <ele>233.5</ele>
        <time>2016-02-21T13:53:57Z</time>
      </trkpt>
      <trkpt lat="43.63907" lon="3.39916">
        <ele>234</ele>
        <time>2016-02-21T13:53:58Z</time>
      </trkpt>
      <trkpt lat="43.63902" lon="3.39917">
        <ele>233</ele>
        <time>2016-02-21T13:54:00Z</time>
      </trkpt>
      <trkpt lat="43.63897" lon="3.39924">
        <ele>238.5</ele>
        <time>2016-02-21T13:54:02Z</time>
      </trkpt>
      <trkpt lat="43.63894" lon="3.39926">
        <ele>240</ele>
        <time>2016-02-21T13:54:03Z</time>
      </trkpt>
      <trkpt lat="43.63891" lon="3.39928">
        <ele>240</ele>
        <time>2016-02-21T13:54:04Z</time>
      </trkpt>
      <trkpt lat="43.6389" lon="3.3993">
        <ele>240</ele>
        <time>2016-02-21T13:54:05Z</time>
      </trkpt>
      <trkpt lat="43.63888" lon="3.39932">
        <ele>240.5</ele>
        <time>2016-02-21T13:54:06Z</time>
      </trkpt>
      <trkpt lat="43.63885" lon="3.39933">
        <ele>241</ele>
        <time>2016-02-21T13:54:07Z</time>
      </trkpt>
      <trkpt lat="43.63884" lon="3.39935">
        <ele>243</ele>
        <time>2016-02-21T13:54:08Z</time>
      </trkpt>
      <trkpt lat="43.63883" lon="3.39936">
        <ele>243</ele>
        <time>2016-02-21T13:54:09Z</time>
      </trkpt>
      <trkpt lat="43.63881" lon="3.39937">
        <ele>243.5</ele>
        <time>2016-02-21T13:54:10Z</time>
      </trkpt>
      <trkpt lat="43.63881" lon="3.39937">
        <ele>243</ele>
        <time>2016-02-21T13:54:11Z</time>
      </trkpt>
      <trkpt lat="43.6388" lon="3.39939">
        <ele>241.5</ele>
        <time>2016-02-21T13:54:12Z</time>
      </trkpt>
      <trkpt lat="43.63879" lon="3.39939">
        <ele>241.5</ele>
        <time>2016-02-21T13:54:13Z</time>
      </trkpt>
      <trkpt lat="43.63877" lon="3.3994">
        <ele>241.5</ele>
        <time>2016-02-21T13:54:14Z</time>
      </trkpt>
      <trkpt lat="43.63879" lon="3.39942">
        <ele>242.5</ele>
        <time>2016-02-21T13:54:15Z</time>
      </trkpt>
      <trkpt lat="43.63878" lon="3.39944">
        <ele>242</ele>
        <time>2016-02-21T13:54:16Z</time>
      </trkpt>
      <trkpt lat="43.63877" lon="3.39945">
        <ele>242.5</ele>
        <time>2016-02-21T13:54:17Z</time>
      </trkpt>
      <trkpt lat="43.63875" lon="3.39945">
        <ele>242.5</ele>
        <time>2016-02-21T13:54:18Z</time>
      </trkpt>
      <trkpt lat="43.63874" lon="3.39946">
        <ele>242.5</ele>
        <time>2016-02-21T13:54:19Z</time>
      </trkpt>
      <trkpt lat="43.63872" lon="3.39947">
        <ele>242.5</ele>
        <time>2016-02-21T13:54:20Z</time>
      </trkpt>
      <trkpt lat="43.6387" lon="3.39947">
        <ele>241</ele>
        <time>2016-02-21T13:54:21Z</time>
      </trkpt>
      <trkpt lat="43.63863" lon="3.39948">
        <ele>239</ele>
        <time>2016-02-21T13:54:23Z</time>
      </trkpt>
      <trkpt lat="43.6386" lon="3.39949">
        <ele>238</ele>
        <time>2016-02-21T13:54:24Z</time>
      </trkpt>
      <trkpt lat="43.63859" lon="3.39951">
        <ele>238.5</ele>
        <time>2016-02-21T13:54:25Z</time>
      </trkpt>
      <trkpt lat="43.63857" lon="3.39952">
        <ele>238</ele>
        <time>2016-02-21T13:54:26Z</time>
      </trkpt>
      <trkpt lat="43.63852" lon="3.39954">
        <ele>238.5</ele>
        <time>2016-02-21T13:54:28Z</time>
      </trkpt>
      <trkpt lat="43.63851" lon="3.39955">
        <ele>238</ele>
        <time>2016-02-21T13:54:29Z</time>
      </trkpt>
      <trkpt lat="43.63848" lon="3.39956">
        <ele>237.5</ele>
        <time>2016-02-21T13:54:30Z</time>
      </trkpt>
      <trkpt lat="43.63841" lon="3.39958">
        <ele>239</ele>
        <time>2016-02-21T13:54:32Z</time>
      </trkpt>
      <trkpt lat="43.63838" lon="3.39958">
        <ele>239</ele>
        <time>2016-02-21T13:54:33Z</time>
      </trkpt>
      <trkpt lat="43.63835" lon="3.39958">
        <ele>238</ele>
        <time>2016-02-21T13:54:34Z</time>
      </trkpt>
      <trkpt lat="43.63833" lon="3.39959">
        <ele>238</ele>
        <time>2016-02-21T13:54:35Z</time>
      </trkpt>
      <trkpt lat="43.6383" lon="3.39961">
        <ele>238</ele>
        <time>2016-02-21T13:54:36Z</time>
      </trkpt>
      <trkpt lat="43.63827" lon="3.39962">
        <ele>237.5</ele>
        <time>2016-02-21T13:54:37Z</time>
      </trkpt>
      <trkpt lat="43.63824" lon="3.39964">
        <ele>237.5</ele>
        <time>2016-02-21T13:54:38Z</time>
      </trkpt>
      <trkpt lat="43.63821" lon="3.39964">
        <ele>238</ele>
        <time>2016-02-21T13:54:39Z</time>
      </trkpt>
      <trkpt lat="43.63819" lon="3.39965">
        <ele>237</ele>
        <time>2016-02-21T13:54:40Z</time>
      </trkpt>
      <trkpt lat="43.63816" lon="3.39965">
        <ele>237</ele>
        <time>2016-02-21T13:54:41Z</time>
      </trkpt>
      <trkpt lat="43.63808" lon="3.39965">
        <ele>234.5</ele>
        <time>2016-02-21T13:54:43Z</time>
      </trkpt>
      <trkpt lat="43.63805" lon="3.39965">
        <ele>234.5</ele>
        <time>2016-02-21T13:54:44Z</time>
      </trkpt>
      <trkpt lat="43.63803" lon="3.39964">
        <ele>234.5</ele>
        <time>2016-02-21T13:54:45Z</time>
      </trkpt>
      <trkpt lat="43.638" lon="3.39963">
        <ele>233.5</ele>
        <time>2016-02-21T13:54:46Z</time>
      </trkpt>
      <trkpt lat="43.63798" lon="3.39962">
        <ele>233</ele>
        <time>2016-02-21T13:54:47Z</time>
      </trkpt>
      <trkpt lat="43.63796" lon="3.39961">
        <ele>231</ele>
        <time>2016-02-21T13:54:48Z</time>
      </trkpt>
      <trkpt lat="43.63795" lon="3.39959">
        <ele>231</ele>
        <time>2016-02-21T13:54:49Z</time>
      </trkpt>
      <trkpt lat="43.63792" lon="3.39958">
        <ele>230.5</ele>
        <time>2016-02-21T13:54:50Z</time>
      </trkpt>
      <trkpt lat="43.63793" lon="3.39956">
        <ele>230.5</ele>
        <time>2016-02-21T13:54:51Z</time>
      </trkpt>
      <trkpt lat="43.63791" lon="3.39954">
        <ele>231</ele>
        <time>2016-02-21T13:54:52Z</time>
      </trkpt>
      <trkpt lat="43.6379" lon="3.39951">
        <ele>230.5</ele>
        <time>2016-02-21T13:54:53Z</time>
      </trkpt>
      <trkpt lat="43.63787" lon="3.39949">
        <ele>230.5</ele>
        <time>2016-02-21T13:54:54Z</time>
      </trkpt>
      <trkpt lat="43.63781" lon="3.39948">
        <ele>230.5</ele>
        <time>2016-02-21T13:54:56Z</time>
      </trkpt>
      <trkpt lat="43.63779" lon="3.39948">
        <ele>232</ele>
        <time>2016-02-21T13:54:57Z</time>
      </trkpt>
      <trkpt lat="43.63778" lon="3.39948">
        <ele>233</ele>
        <time>2016-02-21T13:54:58Z</time>
      </trkpt>
      <trkpt lat="43.63775" lon="3.39948">
        <ele>235.5</ele>
        <time>2016-02-21T13:55:00Z</time>
      </trkpt>
      <trkpt lat="43.63774" lon="3.39948">
        <ele>236</ele>
        <time>2016-02-21T13:55:02Z</time>
      </trkpt>
      <trkpt lat="43.63769" lon="3.39951">
        <ele>237.5</ele>
        <time>2016-02-21T13:55:04Z</time>
      </trkpt>
      <trkpt lat="43.63767" lon="3.39952">
        <ele>238</ele>
        <time>2016-02-21T13:55:05Z</time>
      </trkpt>
      <trkpt lat="43.63765" lon="3.39952">
        <ele>239</ele>
        <time>2016-02-21T13:55:06Z</time>
      </trkpt>
      <trkpt lat="43.63763" lon="3.39953">
        <ele>239</ele>
        <time>2016-02-21T13:55:07Z</time>
      </trkpt>
      <trkpt lat="43.63762" lon="3.39954">
        <ele>239</ele>
        <time>2016-02-21T13:55:08Z</time>
      </trkpt>
      <trkpt lat="43.63761" lon="3.39954">
        <ele>239.5</ele>
        <time>2016-02-21T13:55:09Z</time>
      </trkpt>
      <trkpt lat="43.6376" lon="3.39953">
        <ele>240.5</ele>
        <time>2016-02-21T13:55:10Z</time>
      </trkpt>
      <trkpt lat="43.63758" lon="3.39953">
        <ele>241</ele>
        <time>2016-02-21T13:55:11Z</time>
      </trkpt>
      <trkpt lat="43.63757" lon="3.39954">
        <ele>241</ele>
        <time>2016-02-21T13:55:12Z</time>
      </trkpt>
      <trkpt lat="43.63755" lon="3.39954">
        <ele>241.5</ele>
        <time>2016-02-21T13:55:13Z</time>
      </trkpt>
      <trkpt lat="43.63754" lon="3.39954">
        <ele>242.5</ele>
        <time>2016-02-21T13:55:14Z</time>
      </trkpt>
      <trkpt lat="43.63752" lon="3.39955">
        <ele>243</ele>
        <time>2016-02-21T13:55:15Z</time>
      </trkpt>
      <trkpt lat="43.63752" lon="3.39955">
        <ele>243</ele>
        <time>2016-02-21T13:55:16Z</time>
      </trkpt>
      <trkpt lat="43.6375" lon="3.39955">
        <ele>243</ele>
        <time>2016-02-21T13:55:17Z</time>
      </trkpt>
      <trkpt lat="43.63748" lon="3.39955">
        <ele>244</ele>
        <time>2016-02-21T13:55:18Z</time>
      </trkpt>
      <trkpt lat="43.63746" lon="3.39956">
        <ele>243.5</ele>
        <time>2016-02-21T13:55:19Z</time>
      </trkpt>
      <trkpt lat="43.63745" lon="3.39956">
        <ele>243.5</ele>
        <time>2016-02-21T13:55:20Z</time>
      </trkpt>
      <trkpt lat="43.63743" lon="3.39956">
        <ele>243.5</ele>
        <time>2016-02-21T13:55:21Z</time>
      </trkpt>
      <trkpt lat="43.63741" lon="3.39957">
        <ele>243.5</ele>
        <time>2016-02-21T13:55:22Z</time>
      </trkpt>
      <trkpt lat="43.63739" lon="3.39957">
        <ele>242.5</ele>
        <time>2016-02-21T13:55:23Z</time>
      </trkpt>
      <trkpt lat="43.63737" lon="3.39957">
        <ele>242</ele>
        <time>2016-02-21T13:55:24Z</time>
      </trkpt>
      <trkpt lat="43.63734" lon="3.39958">
        <ele>242.5</ele>
        <time>2016-02-21T13:55:25Z</time>
      </trkpt>
      <trkpt lat="43.63732" lon="3.39958">
        <ele>242.5</ele>
        <time>2016-02-21T13:55:26Z</time>
      </trkpt>
      <trkpt lat="43.63731" lon="3.39958">
        <ele>243.5</ele>
        <time>2016-02-21T13:55:27Z</time>
      </trkpt>
      <trkpt lat="43.6373" lon="3.39958">
        <ele>243.5</ele>
        <time>2016-02-21T13:55:28Z</time>
      </trkpt>
      <trkpt lat="43.63729" lon="3.39957">
        <ele>243</ele>
        <time>2016-02-21T13:55:29Z</time>
      </trkpt>
      <trkpt lat="43.63729" lon="3.39958">
        <ele>244.5</ele>
        <time>2016-02-21T13:55:30Z</time>
      </trkpt>
      <trkpt lat="43.63727" lon="3.39959">
        <ele>244</ele>
        <time>2016-02-21T13:55:31Z</time>
      </trkpt>
      <trkpt lat="43.63726" lon="3.3996">
        <ele>244.5</ele>
        <time>2016-02-21T13:55:32Z</time>
      </trkpt>
      <trkpt lat="43.63724" lon="3.39961">
        <ele>244</ele>
        <time>2016-02-21T13:55:33Z</time>
      </trkpt>
      <trkpt lat="43.63722" lon="3.39961">
        <ele>244</ele>
        <time>2016-02-21T13:55:34Z</time>
      </trkpt>
      <trkpt lat="43.6372" lon="3.39961">
        <ele>243.5</ele>
        <time>2016-02-21T13:55:35Z</time>
      </trkpt>
      <trkpt lat="43.63719" lon="3.39961">
        <ele>244</ele>
        <time>2016-02-21T13:55:36Z</time>
      </trkpt>
      <trkpt lat="43.63717" lon="3.39961">
        <ele>243.5</ele>
        <time>2016-02-21T13:55:37Z</time>
      </trkpt>
      <trkpt lat="43.63715" lon="3.39962">
        <ele>243.5</ele>
        <time>2016-02-21T13:55:38Z</time>
      </trkpt>
      <trkpt lat="43.63715" lon="3.39961">
        <ele>243</ele>
        <time>2016-02-21T13:55:39Z</time>
      </trkpt>
      <trkpt lat="43.63713" lon="3.3996">
        <ele>242</ele>
        <time>2016-02-21T13:55:40Z</time>
      </trkpt>
      <trkpt lat="43.63711" lon="3.3996">
        <ele>242</ele>
        <time>2016-02-21T13:55:41Z</time>
      </trkpt>
      <trkpt lat="43.63709" lon="3.39959">
        <ele>242</ele>
        <time>2016-02-21T13:55:42Z</time>
      </trkpt>
      <trkpt lat="43.63702" lon="3.3996">
        <ele>241</ele>
        <time>2016-02-21T13:55:44Z</time>
      </trkpt>
      <trkpt lat="43.63706" lon="3.39965">
        <ele>241</ele>
        <time>2016-02-21T13:55:46Z</time>
      </trkpt>
      <trkpt lat="43.63704" lon="3.39965">
        <ele>241</ele>
        <time>2016-02-21T13:55:47Z</time>
      </trkpt>
      <trkpt lat="43.63702" lon="3.39965">
        <ele>241</ele>
        <time>2016-02-21T13:55:48Z</time>
      </trkpt>
      <trkpt lat="43.637" lon="3.39966">
        <ele>241</ele>
        <time>2016-02-21T13:55:49Z</time>
      </trkpt>
      <trkpt lat="43.63694" lon="3.39969">
        <ele>241.5</ele>
        <time>2016-02-21T13:55:51Z</time>
      </trkpt>
      <trkpt lat="43.63693" lon="3.39971">
        <ele>243</ele>
        <time>2016-02-21T13:55:52Z</time>
      </trkpt>
      <trkpt lat="43.63691" lon="3.39972">
        <ele>243.5</ele>
        <time>2016-02-21T13:55:53Z</time>
      </trkpt>
      <trkpt lat="43.63689" lon="3.39974">
        <ele>243.5</ele>
        <time>2016-02-21T13:55:54Z</time>
      </trkpt>
      <trkpt lat="43.63687" lon="3.39975">
        <ele>244</ele>
        <time>2016-02-21T13:55:55Z</time>
      </trkpt>
      <trkpt lat="43.63684" lon="3.39976">
        <ele>244.5</ele>
        <time>2016-02-21T13:55:56Z</time>
      </trkpt>
      <trkpt lat="43.63683" lon="3.39977">
        <ele>245</ele>
        <time>2016-02-21T13:55:57Z</time>
      </trkpt>
      <trkpt lat="43.63682" lon="3.39979">
        <ele>245</ele>
        <time>2016-02-21T13:55:58Z</time>
      </trkpt>
      <trkpt lat="43.63679" lon="3.3998">
        <ele>244.5</ele>
        <time>2016-02-21T13:55:59Z</time>
      </trkpt>
      <trkpt lat="43.63678" lon="3.39981">
        <ele>245</ele>
        <time>2016-02-21T13:56:00Z</time>
      </trkpt>
      <trkpt lat="43.63676" lon="3.39982">
        <ele>245.5</ele>
        <time>2016-02-21T13:56:01Z</time>
      </trkpt>
      <trkpt lat="43.63674" lon="3.39984">
        <ele>247</ele>
        <time>2016-02-21T13:56:02Z</time>
      </trkpt>
      <trkpt lat="43.63671" lon="3.39985">
        <ele>247.5</ele>
        <time>2016-02-21T13:56:03Z</time>
      </trkpt>
      <trkpt lat="43.63669" lon="3.39986">
        <ele>248</ele>
        <time>2016-02-21T13:56:04Z</time>
      </trkpt>
      <trkpt lat="43.63667" lon="3.39988">
        <ele>247.5</ele>
        <time>2016-02-21T13:56:05Z</time>
      </trkpt>
      <trkpt lat="43.63665" lon="3.3999">
        <ele>247</ele>
        <time>2016-02-21T13:56:06Z</time>
      </trkpt>
      <trkpt lat="43.63663" lon="3.39992">
        <ele>247.5</ele>
        <time>2016-02-21T13:56:07Z</time>
      </trkpt>
      <trkpt lat="43.6366" lon="3.39994">
        <ele>248</ele>
        <time>2016-02-21T13:56:08Z</time>
      </trkpt>
      <trkpt lat="43.63659" lon="3.39996">
        <ele>249.5</ele>
        <time>2016-02-21T13:56:09Z</time>
      </trkpt>
      <trkpt lat="43.63657" lon="3.39997">
        <ele>250</ele>
        <time>2016-02-21T13:56:10Z</time>
      </trkpt>
      <trkpt lat="43.63655" lon="3.39998">
        <ele>250</ele>
        <time>2016-02-21T13:56:11Z</time>
      </trkpt>
      <trkpt lat="43.63654" lon="3.4">
        <ele>250.5</ele>
        <time>2016-02-21T13:56:12Z</time>
      </trkpt>
      <trkpt lat="43.63652" lon="3.4">
        <ele>251</ele>
        <time>2016-02-21T13:56:13Z</time>
      </trkpt>
      <trkpt lat="43.6365" lon="3.40001">
        <ele>251.5</ele>
        <time>2016-02-21T13:56:14Z</time>
      </trkpt>
      <trkpt lat="43.63648" lon="3.40003">
        <ele>251.5</ele>
        <time>2016-02-21T13:56:15Z</time>
      </trkpt>
      <trkpt lat="43.63645" lon="3.40005">
        <ele>251.5</ele>
        <time>2016-02-21T13:56:16Z</time>
      </trkpt>
      <trkpt lat="43.63643" lon="3.40007">
        <ele>251</ele>
        <time>2016-02-21T13:56:17Z</time>
      </trkpt>
      <trkpt lat="43.63642" lon="3.40008">
        <ele>251.5</ele>
        <time>2016-02-21T13:56:18Z</time>
      </trkpt>
      <trkpt lat="43.6364" lon="3.4001">
        <ele>251.5</ele>
        <time>2016-02-21T13:56:19Z</time>
      </trkpt>
      <trkpt lat="43.63637" lon="3.40011">
        <ele>251.5</ele>
        <time>2016-02-21T13:56:20Z</time>
      </trkpt>
      <trkpt lat="43.63638" lon="3.4001">
        <ele>250.5</ele>
        <time>2016-02-21T13:56:21Z</time>
      </trkpt>
      <trkpt lat="43.63636" lon="3.40011">
        <ele>251.5</ele>
        <time>2016-02-21T13:56:22Z</time>
      </trkpt>
      <trkpt lat="43.63634" lon="3.40012">
        <ele>252</ele>
        <time>2016-02-21T13:56:23Z</time>
      </trkpt>
      <trkpt lat="43.63631" lon="3.40013">
        <ele>252.5</ele>
        <time>2016-02-21T13:56:24Z</time>
      </trkpt>
      <trkpt lat="43.63629" lon="3.40014">
        <ele>252.5</ele>
        <time>2016-02-21T13:56:25Z</time>
      </trkpt>
      <trkpt lat="43.63627" lon="3.40015">
        <ele>254</ele>
        <time>2016-02-21T13:56:26Z</time>
      </trkpt>
      <trkpt lat="43.63624" lon="3.40017">
        <ele>254</ele>
        <time>2016-02-21T13:56:27Z</time>
      </trkpt>
      <trkpt lat="43.63621" lon="3.40018">
        <ele>255</ele>
        <time>2016-02-21T13:56:28Z</time>
      </trkpt>
      <trkpt lat="43.63618" lon="3.4002">
        <ele>255.5</ele>
        <time>2016-02-21T13:56:29Z</time>
      </trkpt>
      <trkpt lat="43.63616" lon="3.40021">
        <ele>255.5</ele>
        <time>2016-02-21T13:56:30Z</time>
      </trkpt>
      <trkpt lat="43.63613" lon="3.40023">
        <ele>256</ele>
        <time>2016-02-21T13:56:31Z</time>
      </trkpt>
      <trkpt lat="43.63611" lon="3.40025">
        <ele>256.5</ele>
        <time>2016-02-21T13:56:32Z</time>
      </trkpt>
      <trkpt lat="43.63609" lon="3.40026">
        <ele>256.5</ele>
        <time>2016-02-21T13:56:33Z</time>
      </trkpt>
      <trkpt lat="43.63607" lon="3.40028">
        <ele>257</ele>
        <time>2016-02-21T13:56:34Z</time>
      </trkpt>
      <trkpt lat="43.63605" lon="3.40029">
        <ele>257.5</ele>
        <time>2016-02-21T13:56:35Z</time>
      </trkpt>
      <trkpt lat="43.63598" lon="3.40031">
        <ele>257</ele>
        <time>2016-02-21T13:56:37Z</time>
      </trkpt>
      <trkpt lat="43.63596" lon="3.40032">
        <ele>257.5</ele>
        <time>2016-02-21T13:56:38Z</time>
      </trkpt>
      <trkpt lat="43.63595" lon="3.40033">
        <ele>258</ele>
        <time>2016-02-21T13:56:39Z</time>
      </trkpt>
      <trkpt lat="43.63595" lon="3.40033">
        <ele>258</ele>
        <time>2016-02-21T13:56:40Z</time>
      </trkpt>
      <trkpt lat="43.63593" lon="3.40033">
        <ele>257</ele>
        <time>2016-02-21T13:56:41Z</time>
      </trkpt>
      <trkpt lat="43.63593" lon="3.40033">
        <ele>257</ele>
        <time>2016-02-21T13:56:42Z</time>
      </trkpt>
      <trkpt lat="43.63591" lon="3.40033">
        <ele>257</ele>
        <time>2016-02-21T13:56:48Z</time>
      </trkpt>
      <trkpt lat="43.6359" lon="3.40033">
        <ele>256.5</ele>
        <time>2016-02-21T13:56:49Z</time>
      </trkpt>
      <trkpt lat="43.63586" lon="3.40036">
        <ele>258</ele>
        <time>2016-02-21T13:56:53Z</time>
      </trkpt>
      <trkpt lat="43.63585" lon="3.40037">
        <ele>257.5</ele>
        <time>2016-02-21T13:56:55Z</time>
      </trkpt>
      <trkpt lat="43.63583" lon="3.40039">
        <ele>258</ele>
        <time>2016-02-21T13:56:56Z</time>
      </trkpt>
      <trkpt lat="43.63581" lon="3.4004">
        <ele>258</ele>
        <time>2016-02-21T13:56:57Z</time>
      </trkpt>
      <trkpt lat="43.6358" lon="3.40043">
        <ele>258</ele>
        <time>2016-02-21T13:56:58Z</time>
      </trkpt>
      <trkpt lat="43.63578" lon="3.40045">
        <ele>258</ele>
        <time>2016-02-21T13:56:59Z</time>
      </trkpt>
      <trkpt lat="43.63577" lon="3.40048">
        <ele>258</ele>
        <time>2016-02-21T13:57:00Z</time>
      </trkpt>
      <trkpt lat="43.63577" lon="3.40051">
        <ele>257.5</ele>
        <time>2016-02-21T13:57:01Z</time>
      </trkpt>
      <trkpt lat="43.63578" lon="3.40053">
        <ele>258</ele>
        <time>2016-02-21T13:57:02Z</time>
      </trkpt>
      <trkpt lat="43.6358" lon="3.40056">
        <ele>258</ele>
        <time>2016-02-21T13:57:03Z</time>
      </trkpt>
      <trkpt lat="43.63581" lon="3.40059">
        <ele>258</ele>
        <time>2016-02-21T13:57:04Z</time>
      </trkpt>
      <trkpt lat="43.63582" lon="3.40062">
        <ele>258.5</ele>
        <time>2016-02-21T13:57:04Z</time>
      </trkpt>
      <trkpt lat="43.63583" lon="3.40065">
        <ele>258.5</ele>
        <time>2016-02-21T13:57:06Z</time>
      </trkpt>
      <trkpt lat="43.63584" lon="3.40068">
        <ele>259</ele>
        <time>2016-02-21T13:57:06Z</time>
      </trkpt>
      <trkpt lat="43.63585" lon="3.40071">
        <ele>259</ele>
        <time>2016-02-21T13:57:07Z</time>
      </trkpt>
      <trkpt lat="43.63587" lon="3.40074">
        <ele>259</ele>
        <time>2016-02-21T13:57:08Z</time>
      </trkpt>
      <trkpt lat="43.63588" lon="3.40076">
        <ele>259.5</ele>
        <time>2016-02-21T13:57:09Z</time>
      </trkpt>
      <trkpt lat="43.63589" lon="3.40079">
        <ele>259.5</ele>
        <time>2016-02-21T13:57:10Z</time>
      </trkpt>
      <trkpt lat="43.6359" lon="3.40082">
        <ele>260</ele>
        <time>2016-02-21T13:57:11Z</time>
      </trkpt>
      <trkpt lat="43.63591" lon="3.40085">
        <ele>261</ele>
        <time>2016-02-21T13:57:12Z</time>
      </trkpt>
      <trkpt lat="43.63592" lon="3.40088">
        <ele>261</ele>
        <time>2016-02-21T13:57:13Z</time>
      </trkpt>
      <trkpt lat="43.63593" lon="3.4009">
        <ele>261</ele>
        <time>2016-02-21T13:57:14Z</time>
      </trkpt>
      <trkpt lat="43.63594" lon="3.40093">
        <ele>261</ele>
        <time>2016-02-21T13:57:15Z</time>
      </trkpt>
      <trkpt lat="43.63596" lon="3.40096">
        <ele>260.5</ele>
        <time>2016-02-21T13:57:16Z</time>
      </trkpt>
      <trkpt lat="43.63596" lon="3.40099">
        <ele>261</ele>
        <time>2016-02-21T13:57:17Z</time>
      </trkpt>
      <trkpt lat="43.63597" lon="3.40102">
        <ele>261.5</ele>
        <time>2016-02-21T13:57:18Z</time>
      </trkpt>
      <trkpt lat="43.63597" lon="3.40104">
        <ele>261.5</ele>
        <time>2016-02-21T13:57:20Z</time>
      </trkpt>
      <trkpt lat="43.63598" lon="3.40106">
        <ele>263</ele>
        <time>2016-02-21T13:57:20Z</time>
      </trkpt>
      <trkpt lat="43.63598" lon="3.40109">
        <ele>263</ele>
        <time>2016-02-21T13:57:21Z</time>
      </trkpt>
      <trkpt lat="43.63598" lon="3.40112">
        <ele>263.5</ele>
        <time>2016-02-21T13:57:22Z</time>
      </trkpt>
      <trkpt lat="43.63599" lon="3.40115">
        <ele>263</ele>
        <time>2016-02-21T13:57:23Z</time>
      </trkpt>
      <trkpt lat="43.63599" lon="3.40118">
        <ele>263.5</ele>
        <time>2016-02-21T13:57:24Z</time>
      </trkpt>
      <trkpt lat="43.636" lon="3.4012">
        <ele>265</ele>
        <time>2016-02-21T13:57:25Z</time>
      </trkpt>
      <trkpt lat="43.63601" lon="3.40123">
        <ele>265</ele>
        <time>2016-02-21T13:57:27Z</time>
      </trkpt>
      <trkpt lat="43.63602" lon="3.4013">
        <ele>264.5</ele>
        <time>2016-02-21T13:57:28Z</time>
      </trkpt>
      <trkpt lat="43.63603" lon="3.40136">
        <ele>264.5</ele>
        <time>2016-02-21T13:57:30Z</time>
      </trkpt>
      <trkpt lat="43.63604" lon="3.40139">
        <ele>264.5</ele>
        <time>2016-02-21T13:57:31Z</time>
      </trkpt>
      <trkpt lat="43.63606" lon="3.40141">
        <ele>266</ele>
        <time>2016-02-21T13:57:32Z</time>
      </trkpt>
      <trkpt lat="43.63606" lon="3.40145">
        <ele>266</ele>
        <time>2016-02-21T13:57:33Z</time>
      </trkpt>
      <trkpt lat="43.63606" lon="3.40148">
        <ele>266</ele>
        <time>2016-02-21T13:57:34Z</time>
      </trkpt>
      <trkpt lat="43.63606" lon="3.40151">
        <ele>266.5</ele>
        <time>2016-02-21T13:57:36Z</time>
      </trkpt>
      <trkpt lat="43.63606" lon="3.40154">
        <ele>267.5</ele>
        <time>2016-02-21T13:57:36Z</time>
      </trkpt>
      <trkpt lat="43.63607" lon="3.40157">
        <ele>269</ele>
        <time>2016-02-21T13:57:38Z</time>
      </trkpt>
      <trkpt lat="43.63607" lon="3.40162">
        <ele>268.5</ele>
        <time>2016-02-21T13:57:38Z</time>
      </trkpt>
      <trkpt lat="43.63608" lon="3.40165">
        <ele>267.5</ele>
        <time>2016-02-21T13:57:40Z</time>
      </trkpt>
      <trkpt lat="43.63608" lon="3.40168">
        <ele>267</ele>
        <time>2016-02-21T13:57:40Z</time>
      </trkpt>
      <trkpt lat="43.63608" lon="3.40171">
        <ele>266.5</ele>
        <time>2016-02-21T13:57:41Z</time>
      </trkpt>
      <trkpt lat="43.63609" lon="3.40174">
        <ele>264.5</ele>
        <time>2016-02-21T13:57:42Z</time>
      </trkpt>
      <trkpt lat="43.6361" lon="3.40178">
        <ele>265</ele>
        <time>2016-02-21T13:57:43Z</time>
      </trkpt>
      <trkpt lat="43.63611" lon="3.40181">
        <ele>265</ele>
        <time>2016-02-21T13:57:44Z</time>
      </trkpt>
      <trkpt lat="43.63613" lon="3.40184">
        <ele>263</ele>
        <time>2016-02-21T13:57:45Z</time>
      </trkpt>
      <trkpt lat="43.63613" lon="3.40187">
        <ele>262.5</ele>
        <time>2016-02-21T13:57:46Z</time>
      </trkpt>
      <trkpt lat="43.63613" lon="3.40191">
        <ele>262.5</ele>
        <time>2016-02-21T13:57:47Z</time>
      </trkpt>
      <trkpt lat="43.63614" lon="3.40194">
        <ele>262.5</ele>
        <time>2016-02-21T13:57:48Z</time>
      </trkpt>
      <trkpt lat="43.63615" lon="3.40198">
        <ele>263.5</ele>
        <time>2016-02-21T13:57:49Z</time>
      </trkpt>
      <trkpt lat="43.63616" lon="3.40201">
        <ele>263</ele>
        <time>2016-02-21T13:57:50Z</time>
      </trkpt>
      <trkpt lat="43.63617" lon="3.40205">
        <ele>262.5</ele>
        <time>2016-02-21T13:57:51Z</time>
      </trkpt>
      <trkpt lat="43.63618" lon="3.40208">
        <ele>263</ele>
        <time>2016-02-21T13:57:52Z</time>
      </trkpt>
      <trkpt lat="43.63618" lon="3.40212">
        <ele>262.5</ele>
        <time>2016-02-21T13:57:53Z</time>
      </trkpt>
      <trkpt lat="43.63618" lon="3.40215">
        <ele>262.5</ele>
        <time>2016-02-21T13:57:54Z</time>
      </trkpt>
      <trkpt lat="43.63618" lon="3.40219">
        <ele>262</ele>
        <time>2016-02-21T13:57:55Z</time>
      </trkpt>
      <trkpt lat="43.63616" lon="3.40223">
        <ele>261.5</ele>
        <time>2016-02-21T13:57:56Z</time>
      </trkpt>
      <trkpt lat="43.63617" lon="3.40227">
        <ele>261.5</ele>
        <time>2016-02-21T13:57:57Z</time>
      </trkpt>
      <trkpt lat="43.63618" lon="3.4023">
        <ele>261</ele>
        <time>2016-02-21T13:57:58Z</time>
      </trkpt>
      <trkpt lat="43.6362" lon="3.40232">
        <ele>260.5</ele>
        <time>2016-02-21T13:57:59Z</time>
      </trkpt>
      <trkpt lat="43.63621" lon="3.40236">
        <ele>260.5</ele>
        <time>2016-02-21T13:58:00Z</time>
      </trkpt>
      <trkpt lat="43.63621" lon="3.40239">
        <ele>260.5</ele>
        <time>2016-02-21T13:58:01Z</time>
      </trkpt>
      <trkpt lat="43.63621" lon="3.40243">
        <ele>260</ele>
        <time>2016-02-21T13:58:02Z</time>
      </trkpt>
      <trkpt lat="43.63621" lon="3.40247">
        <ele>259.5</ele>
        <time>2016-02-21T13:58:03Z</time>
      </trkpt>
      <trkpt lat="43.63622" lon="3.40251">
        <ele>260</ele>
        <time>2016-02-21T13:58:04Z</time>
      </trkpt>
      <trkpt lat="43.63623" lon="3.40255">
        <ele>261</ele>
        <time>2016-02-21T13:58:05Z</time>
      </trkpt>
      <trkpt lat="43.63624" lon="3.40259">
        <ele>260.5</ele>
        <time>2016-02-21T13:58:06Z</time>
      </trkpt>
      <trkpt lat="43.63624" lon="3.40263">
        <ele>260</ele>
        <time>2016-02-21T13:58:07Z</time>
      </trkpt>
      <trkpt lat="43.63626" lon="3.40266">
        <ele>259.5</ele>
        <time>2016-02-21T13:58:08Z</time>
      </trkpt>
      <trkpt lat="43.63626" lon="3.4027">
        <ele>260</ele>
        <time>2016-02-21T13:58:09Z</time>
      </trkpt>
      <trkpt lat="43.63627" lon="3.40273">
        <ele>261</ele>
        <time>2016-02-21T13:58:10Z</time>
      </trkpt>
      <trkpt lat="43.63628" lon="3.40276">
        <ele>261.5</ele>
        <time>2016-02-21T13:58:11Z</time>
      </trkpt>
      <trkpt lat="43.63629" lon="3.40279">
        <ele>261.5</ele>
        <time>2016-02-21T13:58:12Z</time>
      </trkpt>
      <trkpt lat="43.6363" lon="3.40283">
        <ele>261.5</ele>
        <time>2016-02-21T13:58:13Z</time>
      </trkpt>
      <trkpt lat="43.63631" lon="3.40285">
        <ele>262.5</ele>
        <time>2016-02-21T13:58:14Z</time>
      </trkpt>
      <trkpt lat="43.63633" lon="3.40288">
        <ele>264</ele>
        <time>2016-02-21T13:58:15Z</time>
      </trkpt>
      <trkpt lat="43.63634" lon="3.40291">
        <ele>263</ele>
        <time>2016-02-21T13:58:16Z</time>
      </trkpt>
      <trkpt lat="43.63635" lon="3.40294">
        <ele>263.5</ele>
        <time>2016-02-21T13:58:17Z</time>
      </trkpt>
      <trkpt lat="43.63638" lon="3.40296">
        <ele>265</ele>
        <time>2016-02-21T13:58:18Z</time>
      </trkpt>
      <trkpt lat="43.63639" lon="3.40299">
        <ele>265</ele>
        <time>2016-02-21T13:58:19Z</time>
      </trkpt>
      <trkpt lat="43.63641" lon="3.40302">
        <ele>265</ele>
        <time>2016-02-21T13:58:20Z</time>
      </trkpt>
      <trkpt lat="43.63642" lon="3.40305">
        <ele>265.5</ele>
        <time>2016-02-21T13:58:21Z</time>
      </trkpt>
      <trkpt lat="43.63644" lon="3.40307">
        <ele>266.5</ele>
        <time>2016-02-21T13:58:22Z</time>
      </trkpt>
      <trkpt lat="43.63645" lon="3.40309">
        <ele>267</ele>
        <time>2016-02-21T13:58:23Z</time>
      </trkpt>
      <trkpt lat="43.63646" lon="3.40311">
        <ele>268</ele>
        <time>2016-02-21T13:58:24Z</time>
      </trkpt>
      <trkpt lat="43.63648" lon="3.40314">
        <ele>268</ele>
        <time>2016-02-21T13:58:25Z</time>
      </trkpt>
      <trkpt lat="43.63649" lon="3.40318">
        <ele>268</ele>
        <time>2016-02-21T13:58:26Z</time>
      </trkpt>
      <trkpt lat="43.6365" lon="3.40321">
        <ele>268</ele>
        <time>2016-02-21T13:58:27Z</time>
      </trkpt>
      <trkpt lat="43.63652" lon="3.40324">
        <ele>268</ele>
        <time>2016-02-21T13:58:28Z</time>
      </trkpt>
      <trkpt lat="43.63653" lon="3.40327">
        <ele>268.5</ele>
        <time>2016-02-21T13:58:29Z</time>
      </trkpt>
      <trkpt lat="43.63654" lon="3.4033">
        <ele>268.5</ele>
        <time>2016-02-21T13:58:30Z</time>
      </trkpt>
      <trkpt lat="43.63655" lon="3.40332">
        <ele>269</ele>
        <time>2016-02-21T13:58:31Z</time>
      </trkpt>
      <trkpt lat="43.63656" lon="3.40335">
        <ele>269</ele>
        <time>2016-02-21T13:58:32Z</time>
      </trkpt>
      <trkpt lat="43.63657" lon="3.40338">
        <ele>269</ele>
        <time>2016-02-21T13:58:33Z</time>
      </trkpt>
      <trkpt lat="43.63658" lon="3.4034">
        <ele>269</ele>
        <time>2016-02-21T13:58:34Z</time>
      </trkpt>
      <trkpt lat="43.6366" lon="3.40343">
        <ele>269.5</ele>
        <time>2016-02-21T13:58:35Z</time>
      </trkpt>
      <trkpt lat="43.63661" lon="3.40346">
        <ele>269</ele>
        <time>2016-02-21T13:58:36Z</time>
      </trkpt>
      <trkpt lat="43.63663" lon="3.40349">
        <ele>269.5</ele>
        <time>2016-02-21T13:58:37Z</time>
      </trkpt>
      <trkpt lat="43.63664" lon="3.40352">
        <ele>270</ele>
        <time>2016-02-21T13:58:38Z</time>
      </trkpt>
      <trkpt lat="43.63666" lon="3.40355">
        <ele>270</ele>
        <time>2016-02-21T13:58:39Z</time>
      </trkpt>
      <trkpt lat="43.63668" lon="3.40358">
        <ele>270</ele>
        <time>2016-02-21T13:58:40Z</time>
      </trkpt>
      <trkpt lat="43.63669" lon="3.4036">
        <ele>271</ele>
        <time>2016-02-21T13:58:41Z</time>
      </trkpt>
      <trkpt lat="43.6367" lon="3.40363">
        <ele>271.5</ele>
        <time>2016-02-21T13:58:42Z</time>
      </trkpt>
      <trkpt lat="43.63672" lon="3.40366">
        <ele>271</ele>
        <time>2016-02-21T13:58:43Z</time>
      </trkpt>
      <trkpt lat="43.63674" lon="3.40369">
        <ele>270.5</ele>
        <time>2016-02-21T13:58:44Z</time>
      </trkpt>
      <trkpt lat="43.63676" lon="3.40373">
        <ele>270</ele>
        <time>2016-02-21T13:58:45Z</time>
      </trkpt>
      <trkpt lat="43.63677" lon="3.40377">
        <ele>269</ele>
        <time>2016-02-21T13:58:46Z</time>
      </trkpt>
      <trkpt lat="43.6368" lon="3.4038">
        <ele>268</ele>
        <time>2016-02-21T13:58:47Z</time>
      </trkpt>
      <trkpt lat="43.63681" lon="3.40384">
        <ele>268</ele>
        <time>2016-02-21T13:58:48Z</time>
      </trkpt>
      <trkpt lat="43.63683" lon="3.40387">
        <ele>268</ele>
        <time>2016-02-21T13:58:49Z</time>
      </trkpt>
      <trkpt lat="43.63685" lon="3.40391">
        <ele>268</ele>
        <time>2016-02-21T13:58:50Z</time>
      </trkpt>
      <trkpt lat="43.63688" lon="3.40395">
        <ele>268</ele>
        <time>2016-02-21T13:58:51Z</time>
      </trkpt>
      <trkpt lat="43.6369" lon="3.404">
        <ele>267</ele>
        <time>2016-02-21T13:58:52Z</time>
      </trkpt>
      <trkpt lat="43.63692" lon="3.40405">
        <ele>266</ele>
        <time>2016-02-21T13:58:53Z</time>
      </trkpt>
      <trkpt lat="43.63694" lon="3.4041">
        <ele>266</ele>
        <time>2016-02-21T13:58:54Z</time>
      </trkpt>
      <trkpt lat="43.63696" lon="3.40415">
        <ele>266.5</ele>
        <time>2016-02-21T13:58:55Z</time>
      </trkpt>
      <trkpt lat="43.63698" lon="3.40422">
        <ele>265.5</ele>
        <time>2016-02-21T13:58:56Z</time>
      </trkpt>
      <trkpt lat="43.63701" lon="3.40427">
        <ele>265</ele>
        <time>2016-02-21T13:58:57Z</time>
      </trkpt>
      <trkpt lat="43.63703" lon="3.40434">
        <ele>265</ele>
        <time>2016-02-21T13:58:58Z</time>
      </trkpt>
      <trkpt lat="43.63706" lon="3.4044">
        <ele>265</ele>
        <time>2016-02-21T13:58:59Z</time>
      </trkpt>
      <trkpt lat="43.63708" lon="3.40447">
        <ele>265.5</ele>
        <time>2016-02-21T13:59:00Z</time>
      </trkpt>
      <trkpt lat="43.63711" lon="3.40454">
        <ele>265.5</ele>
        <time>2016-02-21T13:59:01Z</time>
      </trkpt>
      <trkpt lat="43.63714" lon="3.40461">
        <ele>265.5</ele>
        <time>2016-02-21T13:59:02Z</time>
      </trkpt>
      <trkpt lat="43.63717" lon="3.40469">
        <ele>265</ele>
        <time>2016-02-21T13:59:03Z</time>
      </trkpt>
      <trkpt lat="43.63721" lon="3.40476">
        <ele>264.5</ele>
        <time>2016-02-21T13:59:04Z</time>
      </trkpt>
      <trkpt lat="43.63724" lon="3.40484">
        <ele>264.5</ele>
        <time>2016-02-21T13:59:05Z</time>
      </trkpt>
      <trkpt lat="43.63727" lon="3.40492">
        <ele>264</ele>
        <time>2016-02-21T13:59:06Z</time>
      </trkpt>
      <trkpt lat="43.6373" lon="3.405">
        <ele>263.5</ele>
        <time>2016-02-21T13:59:07Z</time>
      </trkpt>
      <trkpt lat="43.63734" lon="3.40508">
        <ele>263.5</ele>
        <time>2016-02-21T13:59:08Z</time>
      </trkpt>
      <trkpt lat="43.63737" lon="3.40517">
        <ele>263.5</ele>
        <time>2016-02-21T13:59:09Z</time>
      </trkpt>
      <trkpt lat="43.63741" lon="3.40525">
        <ele>263</ele>
        <time>2016-02-21T13:59:10Z</time>
      </trkpt>
      <trkpt lat="43.63745" lon="3.40532">
        <ele>263</ele>
        <time>2016-02-21T13:59:11Z</time>
      </trkpt>
      <trkpt lat="43.63749" lon="3.4054">
        <ele>263</ele>
        <time>2016-02-21T13:59:12Z</time>
      </trkpt>
      <trkpt lat="43.63753" lon="3.40547">
        <ele>263</ele>
        <time>2016-02-21T13:59:13Z</time>
      </trkpt>
      <trkpt lat="43.63757" lon="3.40555">
        <ele>263</ele>
        <time>2016-02-21T13:59:14Z</time>
      </trkpt>
      <trkpt lat="43.63761" lon="3.40562">
        <ele>263</ele>
        <time>2016-02-21T13:59:15Z</time>
      </trkpt>
      <trkpt lat="43.63766" lon="3.40569">
        <ele>262.5</ele>
        <time>2016-02-21T13:59:16Z</time>
      </trkpt>
      <trkpt lat="43.6377" lon="3.40577">
        <ele>262.5</ele>
        <time>2016-02-21T13:59:17Z</time>
      </trkpt>
      <trkpt lat="43.63774" lon="3.40584">
        <ele>262.5</ele>
        <time>2016-02-21T13:59:18Z</time>
      </trkpt>
      <trkpt lat="43.63778" lon="3.40591">
        <ele>263</ele>
        <time>2016-02-21T13:59:19Z</time>
      </trkpt>
      <trkpt lat="43.63782" lon="3.40598">
        <ele>263</ele>
        <time>2016-02-21T13:59:20Z</time>
      </trkpt>
      <trkpt lat="43.63786" lon="3.40605">
        <ele>262.5</ele>
        <time>2016-02-21T13:59:21Z</time>
      </trkpt>
      <trkpt lat="43.6379" lon="3.40612">
        <ele>262.5</ele>
        <time>2016-02-21T13:59:22Z</time>
      </trkpt>
      <trkpt lat="43.63795" lon="3.40619">
        <ele>262.5</ele>
        <time>2016-02-21T13:59:23Z</time>
      </trkpt>
      <trkpt lat="43.63799" lon="3.40626">
        <ele>262</ele>
        <time>2016-02-21T13:59:24Z</time>
      </trkpt>
      <trkpt lat="43.63804" lon="3.40633">
        <ele>262</ele>
        <time>2016-02-21T13:59:25Z</time>
      </trkpt>
      <trkpt lat="43.63809" lon="3.4064">
        <ele>262</ele>
        <time>2016-02-21T13:59:26Z</time>
      </trkpt>
      <trkpt lat="43.63814" lon="3.40647">
        <ele>261.5</ele>
        <time>2016-02-21T13:59:27Z</time>
      </trkpt>
      <trkpt lat="43.63819" lon="3.40655">
        <ele>261.5</ele>
        <time>2016-02-21T13:59:28Z</time>
      </trkpt>
      <trkpt lat="43.63824" lon="3.40662">
        <ele>261</ele>
        <time>2016-02-21T13:59:29Z</time>
      </trkpt>
      <trkpt lat="43.63829" lon="3.4067">
        <ele>260.5</ele>
        <time>2016-02-21T13:59:30Z</time>
      </trkpt>
      <trkpt lat="43.63834" lon="3.40677">
        <ele>260</ele>
        <time>2016-02-21T13:59:31Z</time>
      </trkpt>
      <trkpt lat="43.63839" lon="3.40685">
        <ele>260</ele>
        <time>2016-02-21T13:59:32Z</time>
      </trkpt>
      <trkpt lat="43.63845" lon="3.40693">
        <ele>259.5</ele>
        <time>2016-02-21T13:59:33Z</time>
      </trkpt>
      <trkpt lat="43.6385" lon="3.407">
        <ele>259.5</ele>
        <time>2016-02-21T13:59:34Z</time>
      </trkpt>
      <trkpt lat="43.63855" lon="3.40708">
        <ele>259.5</ele>
        <time>2016-02-21T13:59:35Z</time>
      </trkpt>
      <trkpt lat="43.63861" lon="3.40716">
        <ele>259</ele>
        <time>2016-02-21T13:59:36Z</time>
      </trkpt>
      <trkpt lat="43.63866" lon="3.40725">
        <ele>259</ele>
        <time>2016-02-21T13:59:37Z</time>
      </trkpt>
      <trkpt lat="43.63871" lon="3.40732">
        <ele>260</ele>
        <time>2016-02-21T13:59:38Z</time>
      </trkpt>
      <trkpt lat="43.63877" lon="3.4074">
        <ele>260</ele>
        <time>2016-02-21T13:59:39Z</time>
      </trkpt>
      <trkpt lat="43.63882" lon="3.40749">
        <ele>260</ele>
        <time>2016-02-21T13:59:40Z</time>
      </trkpt>
      <trkpt lat="43.63888" lon="3.40758">
        <ele>259.5</ele>
        <time>2016-02-21T13:59:41Z</time>
      </trkpt>
      <trkpt lat="43.63894" lon="3.40767">
        <ele>259</ele>
        <time>2016-02-21T13:59:42Z</time>
      </trkpt>
      <trkpt lat="43.63899" lon="3.40776">
        <ele>258.5</ele>
        <time>2016-02-21T13:59:43Z</time>
      </trkpt>
      <trkpt lat="43.63905" lon="3.40784">
        <ele>258.5</ele>
        <time>2016-02-21T13:59:44Z</time>
      </trkpt>
      <trkpt lat="43.6391" lon="3.40793">
        <ele>258</ele>
        <time>2016-02-21T13:59:45Z</time>
      </trkpt>
      <trkpt lat="43.63916" lon="3.40802">
        <ele>257</ele>
        <time>2016-02-21T13:59:46Z</time>
      </trkpt>
      <trkpt lat="43.63922" lon="3.4081">
        <ele>257</ele>
        <time>2016-02-21T13:59:47Z</time>
      </trkpt>
      <trkpt lat="43.63928" lon="3.40819">
        <ele>256.5</ele>
        <time>2016-02-21T13:59:48Z</time>
      </trkpt>
      <trkpt lat="43.63933" lon="3.40828">
        <ele>256.5</ele>
        <time>2016-02-21T13:59:49Z</time>
      </trkpt>
      <trkpt lat="43.63939" lon="3.40837">
        <ele>256.5</ele>
        <time>2016-02-21T13:59:50Z</time>
      </trkpt>
      <trkpt lat="43.63945" lon="3.40846">
        <ele>255</ele>
        <time>2016-02-21T13:59:51Z</time>
      </trkpt>
      <trkpt lat="43.63951" lon="3.40855">
        <ele>254</ele>
        <time>2016-02-21T13:59:52Z</time>
      </trkpt>
      <trkpt lat="43.63957" lon="3.40864">
        <ele>253.5</ele>
        <time>2016-02-21T13:59:53Z</time>
      </trkpt>
      <trkpt lat="43.63962" lon="3.40872">
        <ele>253.5</ele>
        <time>2016-02-21T13:59:54Z</time>
      </trkpt>
      <trkpt lat="43.63968" lon="3.40881">
        <ele>253</ele>
        <time>2016-02-21T13:59:55Z</time>
      </trkpt>
      <trkpt lat="43.63974" lon="3.40889">
        <ele>253</ele>
        <time>2016-02-21T13:59:56Z</time>
      </trkpt>
      <trkpt lat="43.63979" lon="3.40897">
        <ele>253</ele>
        <time>2016-02-21T13:59:57Z</time>
      </trkpt>
      <trkpt lat="43.63985" lon="3.40905">
        <ele>253</ele>
        <time>2016-02-21T13:59:58Z</time>
      </trkpt>
      <trkpt lat="43.6399" lon="3.40914">
        <ele>253</ele>
        <time>2016-02-21T13:59:59Z</time>
      </trkpt>
      <trkpt lat="43.63995" lon="3.40923">
        <ele>252</ele>
        <time>2016-02-21T14:00:00Z</time>
      </trkpt>
      <trkpt lat="43.63999" lon="3.40932">
        <ele>252</ele>
        <time>2016-02-21T14:00:01Z</time>
      </trkpt>
      <trkpt lat="43.64" lon="3.40944">
        <ele>251.5</ele>
        <time>2016-02-21T14:00:02Z</time>
      </trkpt>
      <trkpt lat="43.64003" lon="3.40956">
        <ele>251</ele>
        <time>2016-02-21T14:00:03Z</time>
      </trkpt>
      <trkpt lat="43.64005" lon="3.40968">
        <ele>250</ele>
        <time>2016-02-21T14:00:04Z</time>
      </trkpt>
      <trkpt lat="43.64008" lon="3.40981">
        <ele>249</ele>
        <time>2016-02-21T14:00:05Z</time>
      </trkpt>
      <trkpt lat="43.64009" lon="3.40993">
        <ele>248</ele>
        <time>2016-02-21T14:00:06Z</time>
      </trkpt>
      <trkpt lat="43.6401" lon="3.41005">
        <ele>246.5</ele>
        <time>2016-02-21T14:00:07Z</time>
      </trkpt>
      <trkpt lat="43.64013" lon="3.41017">
        <ele>247</ele>
        <time>2016-02-21T14:00:08Z</time>
      </trkpt>
      <trkpt lat="43.64014" lon="3.41029">
        <ele>246.5</ele>
        <time>2016-02-21T14:00:09Z</time>
      </trkpt>
      <trkpt lat="43.64016" lon="3.41041">
        <ele>246</ele>
        <time>2016-02-21T14:00:10Z</time>
      </trkpt>
      <trkpt lat="43.64018" lon="3.41053">
        <ele>245.5</ele>
        <time>2016-02-21T14:00:11Z</time>
      </trkpt>
      <trkpt lat="43.6402" lon="3.41065">
        <ele>245.5</ele>
        <time>2016-02-21T14:00:12Z</time>
      </trkpt>
      <trkpt lat="43.64022" lon="3.41078">
        <ele>245</ele>
        <time>2016-02-21T14:00:13Z</time>
      </trkpt>
      <trkpt lat="43.64024" lon="3.4109">
        <ele>245</ele>
        <time>2016-02-21T14:00:14Z</time>
      </trkpt>
      <trkpt lat="43.64027" lon="3.41103">
        <ele>244.5</ele>
        <time>2016-02-21T14:00:15Z</time>
      </trkpt>
      <trkpt lat="43.64029" lon="3.41116">
        <ele>244.5</ele>
        <time>2016-02-21T14:00:16Z</time>
      </trkpt>
      <trkpt lat="43.64031" lon="3.41128">
        <ele>244</ele>
        <time>2016-02-21T14:00:17Z</time>
      </trkpt>
      <trkpt lat="43.64033" lon="3.41141">
        <ele>243.5</ele>
        <time>2016-02-21T14:00:18Z</time>
      </trkpt>
      <trkpt lat="43.64035" lon="3.41154">
        <ele>243</ele>
        <time>2016-02-21T14:00:19Z</time>
      </trkpt>
      <trkpt lat="43.64037" lon="3.41166">
        <ele>242.5</ele>
        <time>2016-02-21T14:00:20Z</time>
      </trkpt>
      <trkpt lat="43.64039" lon="3.41179">
        <ele>242</ele>
        <time>2016-02-21T14:00:21Z</time>
      </trkpt>
      <trkpt lat="43.64041" lon="3.41191">
        <ele>242</ele>
        <time>2016-02-21T14:00:22Z</time>
      </trkpt>
      <trkpt lat="43.64043" lon="3.41203">
        <ele>241.5</ele>
        <time>2016-02-21T14:00:23Z</time>
      </trkpt>
      <trkpt lat="43.64045" lon="3.41214">
        <ele>241</ele>
        <time>2016-02-21T14:00:24Z</time>
      </trkpt>
      <trkpt lat="43.64046" lon="3.41224">
        <ele>240.5</ele>
        <time>2016-02-21T14:00:25Z</time>
      </trkpt>
      <trkpt lat="43.64047" lon="3.41237">
        <ele>241.5</ele>
        <time>2016-02-21T14:00:27Z</time>
      </trkpt>
      <trkpt lat="43.64048" lon="3.41242">
        <ele>241</ele>
        <time>2016-02-21T14:00:28Z</time>
      </trkpt>
      <trkpt lat="43.64049" lon="3.41247">
        <ele>240</ele>
        <time>2016-02-21T14:00:29Z</time>
      </trkpt>
      <trkpt lat="43.64043" lon="3.41261">
        <ele>240.5</ele>
        <time>2016-02-21T14:00:31Z</time>
      </trkpt>
      <trkpt lat="43.64041" lon="3.41268">
        <ele>240.5</ele>
        <time>2016-02-21T14:00:32Z</time>
      </trkpt>
      <trkpt lat="43.64039" lon="3.41275">
        <ele>241</ele>
        <time>2016-02-21T14:00:33Z</time>
      </trkpt>
      <trkpt lat="43.64037" lon="3.41282">
        <ele>241</ele>
        <time>2016-02-21T14:00:34Z</time>
      </trkpt>
      <trkpt lat="43.64034" lon="3.4129">
        <ele>240</ele>
        <time>2016-02-21T14:00:35Z</time>
      </trkpt>
      <trkpt lat="43.64031" lon="3.41298">
        <ele>239.5</ele>
        <time>2016-02-21T14:00:36Z</time>
      </trkpt>
      <trkpt lat="43.64028" lon="3.41306">
        <ele>238.5</ele>
        <time>2016-02-21T14:00:37Z</time>
      </trkpt>
      <trkpt lat="43.64023" lon="3.41314">
        <ele>238.5</ele>
        <time>2016-02-21T14:00:38Z</time>
      </trkpt>
      <trkpt lat="43.64008" lon="3.41325">
        <ele>238</ele>
        <time>2016-02-21T14:00:40Z</time>
      </trkpt>
      <trkpt lat="43.64003" lon="3.4133">
        <ele>237.5</ele>
        <time>2016-02-21T14:00:40Z</time>
      </trkpt>
      <trkpt lat="43.63997" lon="3.41335">
        <ele>238</ele>
        <time>2016-02-21T14:00:42Z</time>
      </trkpt>
      <trkpt lat="43.63993" lon="3.41339">
        <ele>238</ele>
        <time>2016-02-21T14:00:42Z</time>
      </trkpt>
      <trkpt lat="43.63992" lon="3.41352">
        <ele>237.5</ele>
        <time>2016-02-21T14:00:44Z</time>
      </trkpt>
      <trkpt lat="43.63991" lon="3.41361">
        <ele>239</ele>
        <time>2016-02-21T14:00:45Z</time>
      </trkpt>
      <trkpt lat="43.63991" lon="3.4137">
        <ele>239</ele>
        <time>2016-02-21T14:00:46Z</time>
      </trkpt>
      <trkpt lat="43.63994" lon="3.41378">
        <ele>239.5</ele>
        <time>2016-02-21T14:00:48Z</time>
      </trkpt>
      <trkpt lat="43.63996" lon="3.41386">
        <ele>238.5</ele>
        <time>2016-02-21T14:00:48Z</time>
      </trkpt>
      <trkpt lat="43.63997" lon="3.41395">
        <ele>239</ele>
        <time>2016-02-21T14:00:49Z</time>
      </trkpt>
      <trkpt lat="43.63998" lon="3.41403">
        <ele>238</ele>
        <time>2016-02-21T14:00:50Z</time>
      </trkpt>
      <trkpt lat="43.64" lon="3.41412">
        <ele>238</ele>
        <time>2016-02-21T14:00:51Z</time>
      </trkpt>
      <trkpt lat="43.64002" lon="3.4142">
        <ele>238.5</ele>
        <time>2016-02-21T14:00:52Z</time>
      </trkpt>
      <trkpt lat="43.64004" lon="3.41429">
        <ele>239</ele>
        <time>2016-02-21T14:00:53Z</time>
      </trkpt>
      <trkpt lat="43.64006" lon="3.41437">
        <ele>239</ele>
        <time>2016-02-21T14:00:54Z</time>
      </trkpt>
      <trkpt lat="43.64007" lon="3.41445">
        <ele>239</ele>
        <time>2016-02-21T14:00:55Z</time>
      </trkpt>
      <trkpt lat="43.64008" lon="3.41454">
        <ele>239.5</ele>
        <time>2016-02-21T14:00:56Z</time>
      </trkpt>
      <trkpt lat="43.6401" lon="3.41463">
        <ele>240.5</ele>
        <time>2016-02-21T14:00:57Z</time>
      </trkpt>
      <trkpt lat="43.64011" lon="3.41471">
        <ele>241</ele>
        <time>2016-02-21T14:00:58Z</time>
      </trkpt>
      <trkpt lat="43.64013" lon="3.4148">
        <ele>241.5</ele>
        <time>2016-02-21T14:00:59Z</time>
      </trkpt>
      <trkpt lat="43.64014" lon="3.41489">
        <ele>244</ele>
        <time>2016-02-21T14:01:00Z</time>
      </trkpt>
      <trkpt lat="43.64015" lon="3.41497">
        <ele>244</ele>
        <time>2016-02-21T14:01:01Z</time>
      </trkpt>
      <trkpt lat="43.64015" lon="3.41506">
        <ele>244</ele>
        <time>2016-02-21T14:01:02Z</time>
      </trkpt>
      <trkpt lat="43.64015" lon="3.41515">
        <ele>244</ele>
        <time>2016-02-21T14:01:03Z</time>
      </trkpt>
      <trkpt lat="43.64015" lon="3.41524">
        <ele>243.5</ele>
        <time>2016-02-21T14:01:04Z</time>
      </trkpt>
      <trkpt lat="43.64015" lon="3.41533">
        <ele>244</ele>
        <time>2016-02-21T14:01:05Z</time>
      </trkpt>
      <trkpt lat="43.64016" lon="3.41542">
        <ele>244</ele>
        <time>2016-02-21T14:01:06Z</time>
      </trkpt>
      <trkpt lat="43.64017" lon="3.4155">
        <ele>244</ele>
        <time>2016-02-21T14:01:07Z</time>
      </trkpt>
      <trkpt lat="43.64018" lon="3.41559">
        <ele>243.5</ele>
        <time>2016-02-21T14:01:08Z</time>
      </trkpt>
      <trkpt lat="43.6402" lon="3.41567">
        <ele>244</ele>
        <time>2016-02-21T14:01:09Z</time>
      </trkpt>
      <trkpt lat="43.64022" lon="3.41575">
        <ele>244</ele>
        <time>2016-02-21T14:01:11Z</time>
      </trkpt>
      <trkpt lat="43.64024" lon="3.41583">
        <ele>243.5</ele>
        <time>2016-02-21T14:01:11Z</time>
      </trkpt>
      <trkpt lat="43.64026" lon="3.41592">
        <ele>243.5</ele>
        <time>2016-02-21T14:01:12Z</time>
      </trkpt>
      <trkpt lat="43.64028" lon="3.416">
        <ele>244</ele>
        <time>2016-02-21T14:01:14Z</time>
      </trkpt>
      <trkpt lat="43.64031" lon="3.41609">
        <ele>244</ele>
        <time>2016-02-21T14:01:14Z</time>
      </trkpt>
      <trkpt lat="43.64034" lon="3.41616">
        <ele>244.5</ele>
        <time>2016-02-21T14:01:15Z</time>
      </trkpt>
      <trkpt lat="43.64037" lon="3.41625">
        <ele>244.5</ele>
        <time>2016-02-21T14:01:17Z</time>
      </trkpt>
      <trkpt lat="43.64039" lon="3.41631">
        <ele>246.5</ele>
        <time>2016-02-21T14:01:17Z</time>
      </trkpt>
      <trkpt lat="43.64042" lon="3.41638">
        <ele>247</ele>
        <time>2016-02-21T14:01:18Z</time>
      </trkpt>
      <trkpt lat="43.64045" lon="3.41646">
        <ele>247</ele>
        <time>2016-02-21T14:01:19Z</time>
      </trkpt>
      <trkpt lat="43.64048" lon="3.41654">
        <ele>247.5</ele>
        <time>2016-02-21T14:01:20Z</time>
      </trkpt>
      <trkpt lat="43.64051" lon="3.41662">
        <ele>247.5</ele>
        <time>2016-02-21T14:01:21Z</time>
      </trkpt>
      <trkpt lat="43.64054" lon="3.4167">
        <ele>247.5</ele>
        <time>2016-02-21T14:01:22Z</time>
      </trkpt>
      <trkpt lat="43.64056" lon="3.41679">
        <ele>248</ele>
        <time>2016-02-21T14:01:23Z</time>
      </trkpt>
      <trkpt lat="43.64057" lon="3.41688">
        <ele>248</ele>
        <time>2016-02-21T14:01:24Z</time>
      </trkpt>
      <trkpt lat="43.64059" lon="3.41696">
        <ele>248</ele>
        <time>2016-02-21T14:01:25Z</time>
      </trkpt>
      <trkpt lat="43.6406" lon="3.41705">
        <ele>248</ele>
        <time>2016-02-21T14:01:26Z</time>
      </trkpt>
      <trkpt lat="43.64062" lon="3.41714">
        <ele>248</ele>
        <time>2016-02-21T14:01:27Z</time>
      </trkpt>
      <trkpt lat="43.64063" lon="3.41723">
        <ele>247.5</ele>
        <time>2016-02-21T14:01:28Z</time>
      </trkpt>
      <trkpt lat="43.64064" lon="3.41733">
        <ele>247.5</ele>
        <time>2016-02-21T14:01:29Z</time>
      </trkpt>
      <trkpt lat="43.64063" lon="3.41742">
        <ele>247.5</ele>
        <time>2016-02-21T14:01:30Z</time>
      </trkpt>
      <trkpt lat="43.64062" lon="3.41751">
        <ele>248</ele>
        <time>2016-02-21T14:01:31Z</time>
      </trkpt>
      <trkpt lat="43.64058" lon="3.41759">
        <ele>248</ele>
        <time>2016-02-21T14:01:32Z</time>
      </trkpt>
      <trkpt lat="43.64054" lon="3.41766">
        <ele>249</ele>
        <time>2016-02-21T14:01:33Z</time>
      </trkpt>
      <trkpt lat="43.64049" lon="3.41772">
        <ele>249.5</ele>
        <time>2016-02-21T14:01:34Z</time>
      </trkpt>
      <trkpt lat="43.64044" lon="3.41778">
        <ele>249</ele>
        <time>2016-02-21T14:01:35Z</time>
      </trkpt>
      <trkpt lat="43.64039" lon="3.41784">
        <ele>249</ele>
        <time>2016-02-21T14:01:36Z</time>
      </trkpt>
      <trkpt lat="43.64034" lon="3.4179">
        <ele>248</ele>
        <time>2016-02-21T14:01:37Z</time>
      </trkpt>
      <trkpt lat="43.64028" lon="3.41797">
        <ele>248</ele>
        <time>2016-02-21T14:01:38Z</time>
      </trkpt>
      <trkpt lat="43.64022" lon="3.41804">
        <ele>247</ele>
        <time>2016-02-21T14:01:39Z</time>
      </trkpt>
      <trkpt lat="43.64016" lon="3.41811">
        <ele>246.5</ele>
        <time>2016-02-21T14:01:40Z</time>
      </trkpt>
      <trkpt lat="43.6401" lon="3.41819">
        <ele>246</ele>
        <time>2016-02-21T14:01:41Z</time>
      </trkpt>
      <trkpt lat="43.64003" lon="3.41826">
        <ele>245</ele>
        <time>2016-02-21T14:01:42Z</time>
      </trkpt>
      <trkpt lat="43.63996" lon="3.41834">
        <ele>244</ele>
        <time>2016-02-21T14:01:43Z</time>
      </trkpt>
      <trkpt lat="43.63989" lon="3.41841">
        <ele>243.5</ele>
        <time>2016-02-21T14:01:44Z</time>
      </trkpt>
      <trkpt lat="43.63982" lon="3.41849">
        <ele>243</ele>
        <time>2016-02-21T14:01:45Z</time>
      </trkpt>
      <trkpt lat="43.63959" lon="3.41855">
        <ele>242</ele>
        <time>2016-02-21T14:01:47Z</time>
      </trkpt>
      <trkpt lat="43.63942" lon="3.41856">
        <ele>241</ele>
        <time>2016-02-21T14:01:49Z</time>
      </trkpt>
      <trkpt lat="43.63933" lon="3.41856">
        <ele>241</ele>
        <time>2016-02-21T14:01:50Z</time>
      </trkpt>
      <trkpt lat="43.63924" lon="3.41856">
        <ele>240.5</ele>
        <time>2016-02-21T14:01:51Z</time>
      </trkpt>
      <trkpt lat="43.63915" lon="3.41855">
        <ele>240</ele>
        <time>2016-02-21T14:01:52Z</time>
      </trkpt>
      <trkpt lat="43.63905" lon="3.41854">
        <ele>239</ele>
        <time>2016-02-21T14:01:53Z</time>
      </trkpt>
      <trkpt lat="43.63897" lon="3.41854">
        <ele>240</ele>
        <time>2016-02-21T14:01:54Z</time>
      </trkpt>
      <trkpt lat="43.63887" lon="3.41853">
        <ele>240</ele>
        <time>2016-02-21T14:01:55Z</time>
      </trkpt>
      <trkpt lat="43.63878" lon="3.41852">
        <ele>239.5</ele>
        <time>2016-02-21T14:01:56Z</time>
      </trkpt>
      <trkpt lat="43.63868" lon="3.41852">
        <ele>239</ele>
        <time>2016-02-21T14:01:57Z</time>
      </trkpt>
      <trkpt lat="43.63858" lon="3.41851">
        <ele>239</ele>
        <time>2016-02-21T14:01:58Z</time>
      </trkpt>
      <trkpt lat="43.63849" lon="3.41851">
        <ele>239</ele>
        <time>2016-02-21T14:01:59Z</time>
      </trkpt>
      <trkpt lat="43.63839" lon="3.4185">
        <ele>239</ele>
        <time>2016-02-21T14:02:00Z</time>
      </trkpt>
      <trkpt lat="43.63829" lon="3.41849">
        <ele>238</ele>
        <time>2016-02-21T14:02:01Z</time>
      </trkpt>
      <trkpt lat="43.63819" lon="3.41848">
        <ele>238</ele>
        <time>2016-02-21T14:02:02Z</time>
      </trkpt>
      <trkpt lat="43.63809" lon="3.41848">
        <ele>238</ele>
        <time>2016-02-21T14:02:03Z</time>
      </trkpt>
      <trkpt lat="43.63798" lon="3.41849">
        <ele>238</ele>
        <time>2016-02-21T14:02:04Z</time>
      </trkpt>
      <trkpt lat="43.63788" lon="3.41847">
        <ele>237</ele>
        <time>2016-02-21T14:02:05Z</time>
      </trkpt>
      <trkpt lat="43.63767" lon="3.41846">
        <ele>236.5</ele>
        <time>2016-02-21T14:02:07Z</time>
      </trkpt>
      <trkpt lat="43.63757" lon="3.41845">
        <ele>236</ele>
        <time>2016-02-21T14:02:08Z</time>
      </trkpt>
      <trkpt lat="43.63746" lon="3.41844">
        <ele>235.5</ele>
        <time>2016-02-21T14:02:09Z</time>
      </trkpt>
      <trkpt lat="43.63736" lon="3.41844">
        <ele>235</ele>
        <time>2016-02-21T14:02:10Z</time>
      </trkpt>
      <trkpt lat="43.63725" lon="3.41843">
        <ele>234</ele>
        <time>2016-02-21T14:02:11Z</time>
      </trkpt>
      <trkpt lat="43.63714" lon="3.41842">
        <ele>233</ele>
        <time>2016-02-21T14:02:12Z</time>
      </trkpt>
      <trkpt lat="43.63702" lon="3.41841">
        <ele>231.5</ele>
        <time>2016-02-21T14:02:13Z</time>
      </trkpt>
      <trkpt lat="43.63692" lon="3.41841">
        <ele>231.5</ele>
        <time>2016-02-21T14:02:14Z</time>
      </trkpt>
      <trkpt lat="43.63682" lon="3.4184">
        <ele>231</ele>
        <time>2016-02-21T14:02:15Z</time>
      </trkpt>
      <trkpt lat="43.63671" lon="3.41839">
        <ele>229.5</ele>
        <time>2016-02-21T14:02:16Z</time>
      </trkpt>
      <trkpt lat="43.63661" lon="3.41838">
        <ele>228.5</ele>
        <time>2016-02-21T14:02:17Z</time>
      </trkpt>
      <trkpt lat="43.63651" lon="3.41838">
        <ele>228</ele>
        <time>2016-02-21T14:02:18Z</time>
      </trkpt>
      <trkpt lat="43.63642" lon="3.41838">
        <ele>228</ele>
        <time>2016-02-21T14:02:19Z</time>
      </trkpt>
      <trkpt lat="43.63633" lon="3.41837">
        <ele>227.5</ele>
        <time>2016-02-21T14:02:20Z</time>
      </trkpt>
      <trkpt lat="43.63623" lon="3.41838">
        <ele>226.5</ele>
        <time>2016-02-21T14:02:21Z</time>
      </trkpt>
      <trkpt lat="43.63614" lon="3.41839">
        <ele>226</ele>
        <time>2016-02-21T14:02:22Z</time>
      </trkpt>
      <trkpt lat="43.63605" lon="3.41841">
        <ele>225.5</ele>
        <time>2016-02-21T14:02:23Z</time>
      </trkpt>
      <trkpt lat="43.63588" lon="3.41838">
        <ele>225.5</ele>
        <time>2016-02-21T14:02:25Z</time>
      </trkpt>
      <trkpt lat="43.6357" lon="3.41836">
        <ele>225.5</ele>
        <time>2016-02-21T14:02:27Z</time>
      </trkpt>
      <trkpt lat="43.63562" lon="3.41834">
        <ele>225</ele>
        <time>2016-02-21T14:02:28Z</time>
      </trkpt>
      <trkpt lat="43.63554" lon="3.41832">
        <ele>224.5</ele>
        <time>2016-02-21T14:02:29Z</time>
      </trkpt>
      <trkpt lat="43.63545" lon="3.4183">
        <ele>224</ele>
        <time>2016-02-21T14:02:30Z</time>
      </trkpt>
      <trkpt lat="43.63535" lon="3.41831">
        <ele>224</ele>
        <time>2016-02-21T14:02:31Z</time>
      </trkpt>
      <trkpt lat="43.63526" lon="3.41831">
        <ele>223.5</ele>
        <time>2016-02-21T14:02:32Z</time>
      </trkpt>
      <trkpt lat="43.63517" lon="3.41831">
        <ele>223.5</ele>
        <time>2016-02-21T14:02:33Z</time>
      </trkpt>
      <trkpt lat="43.63509" lon="3.41831">
        <ele>223</ele>
        <time>2016-02-21T14:02:34Z</time>
      </trkpt>
      <trkpt lat="43.635" lon="3.41832">
        <ele>223</ele>
        <time>2016-02-21T14:02:35Z</time>
      </trkpt>
      <trkpt lat="43.63493" lon="3.4183">
        <ele>222.5</ele>
        <time>2016-02-21T14:02:36Z</time>
      </trkpt>
      <trkpt lat="43.63485" lon="3.4183">
        <ele>223.5</ele>
        <time>2016-02-21T14:02:37Z</time>
      </trkpt>
      <trkpt lat="43.63477" lon="3.41828">
        <ele>223.5</ele>
        <time>2016-02-21T14:02:38Z</time>
      </trkpt>
      <trkpt lat="43.63469" lon="3.41828">
        <ele>223</ele>
        <time>2016-02-21T14:02:39Z</time>
      </trkpt>
      <trkpt lat="43.63461" lon="3.41827">
        <ele>223</ele>
        <time>2016-02-21T14:02:40Z</time>
      </trkpt>
      <trkpt lat="43.63453" lon="3.41823">
        <ele>223</ele>
        <time>2016-02-21T14:02:41Z</time>
      </trkpt>
      <trkpt lat="43.63447" lon="3.41816">
        <ele>223</ele>
        <time>2016-02-21T14:02:42Z</time>
      </trkpt>
      <trkpt lat="43.63439" lon="3.4181">
        <ele>222.5</ele>
        <time>2016-02-21T14:02:43Z</time>
      </trkpt>
      <trkpt lat="43.63431" lon="3.41807">
        <ele>222.5</ele>
        <time>2016-02-21T14:02:44Z</time>
      </trkpt>
      <trkpt lat="43.63423" lon="3.41804">
        <ele>222</ele>
        <time>2016-02-21T14:02:45Z</time>
      </trkpt>
      <trkpt lat="43.63414" lon="3.41803">
        <ele>221</ele>
        <time>2016-02-21T14:02:46Z</time>
      </trkpt>
      <trkpt lat="43.63405" lon="3.41803">
        <ele>221</ele>
        <time>2016-02-21T14:02:47Z</time>
      </trkpt>
      <trkpt lat="43.63397" lon="3.41803">
        <ele>221</ele>
        <time>2016-02-21T14:02:48Z</time>
      </trkpt>
      <trkpt lat="43.63388" lon="3.41802">
        <ele>220.5</ele>
        <time>2016-02-21T14:02:49Z</time>
      </trkpt>
      <trkpt lat="43.6338" lon="3.41802">
        <ele>220.5</ele>
        <time>2016-02-21T14:02:50Z</time>
      </trkpt>
      <trkpt lat="43.6337" lon="3.41801">
        <ele>219.5</ele>
        <time>2016-02-21T14:02:51Z</time>
      </trkpt>
      <trkpt lat="43.63356" lon="3.418">
        <ele>221.5</ele>
        <time>2016-02-21T14:02:53Z</time>
      </trkpt>
      <trkpt lat="43.63348" lon="3.41798">
        <ele>221</ele>
        <time>2016-02-21T14:02:54Z</time>
      </trkpt>
      <trkpt lat="43.63341" lon="3.41792">
        <ele>220.5</ele>
        <time>2016-02-21T14:02:55Z</time>
      </trkpt>
      <trkpt lat="43.63334" lon="3.41787">
        <ele>220.5</ele>
        <time>2016-02-21T14:02:56Z</time>
      </trkpt>
      <trkpt lat="43.63318" lon="3.41774">
        <ele>219.5</ele>
        <time>2016-02-21T14:02:58Z</time>
      </trkpt>
      <trkpt lat="43.63311" lon="3.41768">
        <ele>219.5</ele>
        <time>2016-02-21T14:02:59Z</time>
      </trkpt>
      <trkpt lat="43.63303" lon="3.41763">
        <ele>219</ele>
        <time>2016-02-21T14:03:00Z</time>
      </trkpt>
      <trkpt lat="43.63296" lon="3.41759">
        <ele>218.5</ele>
        <time>2016-02-21T14:03:01Z</time>
      </trkpt>
      <trkpt lat="43.63283" lon="3.41758">
        <ele>217.5</ele>
        <time>2016-02-21T14:03:03Z</time>
      </trkpt>
      <trkpt lat="43.63275" lon="3.41761">
        <ele>217.5</ele>
        <time>2016-02-21T14:03:04Z</time>
      </trkpt>
      <trkpt lat="43.63268" lon="3.41765">
        <ele>219</ele>
        <time>2016-02-21T14:03:05Z</time>
      </trkpt>
      <trkpt lat="43.63263" lon="3.4177">
        <ele>219</ele>
        <time>2016-02-21T14:03:06Z</time>
      </trkpt>
      <trkpt lat="43.63256" lon="3.41776">
        <ele>219</ele>
        <time>2016-02-21T14:03:07Z</time>
      </trkpt>
      <trkpt lat="43.63248" lon="3.41781">
        <ele>220</ele>
        <time>2016-02-21T14:03:08Z</time>
      </trkpt>
      <trkpt lat="43.63237" lon="3.41793">
        <ele>219.5</ele>
        <time>2016-02-21T14:03:10Z</time>
      </trkpt>
      <trkpt lat="43.6323" lon="3.41799">
        <ele>219.5</ele>
        <time>2016-02-21T14:03:11Z</time>
      </trkpt>
      <trkpt lat="43.63223" lon="3.41804">
        <ele>217.5</ele>
        <time>2016-02-21T14:03:12Z</time>
      </trkpt>
      <trkpt lat="43.63217" lon="3.41809">
        <ele>217</ele>
        <time>2016-02-21T14:03:13Z</time>
      </trkpt>
      <trkpt lat="43.6321" lon="3.41813">
        <ele>217</ele>
        <time>2016-02-21T14:03:14Z</time>
      </trkpt>
      <trkpt lat="43.63203" lon="3.41816">
        <ele>217</ele>
        <time>2016-02-21T14:03:15Z</time>
      </trkpt>
      <trkpt lat="43.63195" lon="3.41819">
        <ele>215</ele>
        <time>2016-02-21T14:03:16Z</time>
      </trkpt>
      <trkpt lat="43.63187" lon="3.41823">
        <ele>215</ele>
        <time>2016-02-21T14:03:17Z</time>
      </trkpt>
      <trkpt lat="43.63179" lon="3.41827">
        <ele>214</ele>
        <time>2016-02-21T14:03:18Z</time>
      </trkpt>
      <trkpt lat="43.63172" lon="3.4183">
        <ele>213.5</ele>
        <time>2016-02-21T14:03:19Z</time>
      </trkpt>
      <trkpt lat="43.63164" lon="3.41834">
        <ele>213</ele>
        <time>2016-02-21T14:03:20Z</time>
      </trkpt>
      <trkpt lat="43.63156" lon="3.41837">
        <ele>212.5</ele>
        <time>2016-02-21T14:03:21Z</time>
      </trkpt>
      <trkpt lat="43.63149" lon="3.41841">
        <ele>212</ele>
        <time>2016-02-21T14:03:22Z</time>
      </trkpt>
      <trkpt lat="43.63142" lon="3.41845">
        <ele>212</ele>
        <time>2016-02-21T14:03:23Z</time>
      </trkpt>
      <trkpt lat="43.63134" lon="3.41849">
        <ele>211.5</ele>
        <time>2016-02-21T14:03:24Z</time>
      </trkpt>
      <trkpt lat="43.63127" lon="3.41852">
        <ele>211</ele>
        <time>2016-02-21T14:03:25Z</time>
      </trkpt>
      <trkpt lat="43.63118" lon="3.41855">
        <ele>209.5</ele>
        <time>2016-02-21T14:03:26Z</time>
      </trkpt>
      <trkpt lat="43.63111" lon="3.41859">
        <ele>209</ele>
        <time>2016-02-21T14:03:27Z</time>
      </trkpt>
      <trkpt lat="43.63099" lon="3.41862">
        <ele>208.5</ele>
        <time>2016-02-21T14:03:29Z</time>
      </trkpt>
      <trkpt lat="43.63092" lon="3.41865">
        <ele>208</ele>
        <time>2016-02-21T14:03:30Z</time>
      </trkpt>
      <trkpt lat="43.63086" lon="3.41869">
        <ele>208</ele>
        <time>2016-02-21T14:03:31Z</time>
      </trkpt>
      <trkpt lat="43.6308" lon="3.41873">
        <ele>208</ele>
        <time>2016-02-21T14:03:32Z</time>
      </trkpt>
      <trkpt lat="43.63072" lon="3.41876">
        <ele>208</ele>
        <time>2016-02-21T14:03:33Z</time>
      </trkpt>
      <trkpt lat="43.63062" lon="3.41885">
        <ele>208.5</ele>
        <time>2016-02-21T14:03:35Z</time>
      </trkpt>
      <trkpt lat="43.63057" lon="3.41889">
        <ele>208.5</ele>
        <time>2016-02-21T14:03:36Z</time>
      </trkpt>
      <trkpt lat="43.63051" lon="3.41892">
        <ele>208.5</ele>
        <time>2016-02-21T14:03:37Z</time>
      </trkpt>
      <trkpt lat="43.63045" lon="3.41895">
        <ele>207.5</ele>
        <time>2016-02-21T14:03:38Z</time>
      </trkpt>
      <trkpt lat="43.63038" lon="3.41898">
        <ele>206.5</ele>
        <time>2016-02-21T14:03:39Z</time>
      </trkpt>
      <trkpt lat="43.63033" lon="3.41901">
        <ele>207</ele>
        <time>2016-02-21T14:03:40Z</time>
      </trkpt>
      <trkpt lat="43.63027" lon="3.41904">
        <ele>207</ele>
        <time>2016-02-21T14:03:41Z</time>
      </trkpt>
      <trkpt lat="43.63021" lon="3.41906">
        <ele>206</ele>
        <time>2016-02-21T14:03:42Z</time>
      </trkpt>
      <trkpt lat="43.63015" lon="3.41909">
        <ele>206.5</ele>
        <time>2016-02-21T14:03:43Z</time>
      </trkpt>
      <trkpt lat="43.6301" lon="3.41912">
        <ele>206</ele>
        <time>2016-02-21T14:03:44Z</time>
      </trkpt>
      <trkpt lat="43.63004" lon="3.41914">
        <ele>205</ele>
        <time>2016-02-21T14:03:45Z</time>
      </trkpt>
      <trkpt lat="43.63" lon="3.41917">
        <ele>204</ele>
        <time>2016-02-21T14:03:46Z</time>
      </trkpt>
      <trkpt lat="43.62996" lon="3.41919">
        <ele>204</ele>
        <time>2016-02-21T14:03:47Z</time>
      </trkpt>
      <trkpt lat="43.62993" lon="3.41921">
        <ele>204</ele>
        <time>2016-02-21T14:03:48Z</time>
      </trkpt>
      <trkpt lat="43.62988" lon="3.41922">
        <ele>204.5</ele>
        <time>2016-02-21T14:03:49Z</time>
      </trkpt>
      <trkpt lat="43.62985" lon="3.41922">
        <ele>204.5</ele>
        <time>2016-02-21T14:03:50Z</time>
      </trkpt>
      <trkpt lat="43.62979" lon="3.41915">
        <ele>204</ele>
        <time>2016-02-21T14:03:52Z</time>
      </trkpt>
      <trkpt lat="43.62971" lon="3.41915">
        <ele>204</ele>
        <time>2016-02-21T14:03:54Z</time>
      </trkpt>
      <trkpt lat="43.62967" lon="3.41918">
        <ele>202</ele>
        <time>2016-02-21T14:03:55Z</time>
      </trkpt>
      <trkpt lat="43.62965" lon="3.41924">
        <ele>202</ele>
        <time>2016-02-21T14:03:56Z</time>
      </trkpt>
      <trkpt lat="43.62963" lon="3.4193">
        <ele>202</ele>
        <time>2016-02-21T14:03:57Z</time>
      </trkpt>
      <trkpt lat="43.62962" lon="3.41935">
        <ele>201.5</ele>
        <time>2016-02-21T14:03:58Z</time>
      </trkpt>
      <trkpt lat="43.6296" lon="3.4194">
        <ele>201.5</ele>
        <time>2016-02-21T14:03:59Z</time>
      </trkpt>
      <trkpt lat="43.62957" lon="3.41944">
        <ele>201</ele>
        <time>2016-02-21T14:04:00Z</time>
      </trkpt>
      <trkpt lat="43.62953" lon="3.41947">
        <ele>199</ele>
        <time>2016-02-21T14:04:01Z</time>
      </trkpt>
      <trkpt lat="43.62949" lon="3.41949">
        <ele>198.5</ele>
        <time>2016-02-21T14:04:02Z</time>
      </trkpt>
      <trkpt lat="43.62945" lon="3.41952">
        <ele>198</ele>
        <time>2016-02-21T14:04:03Z</time>
      </trkpt>
      <trkpt lat="43.6294" lon="3.41955">
        <ele>197</ele>
        <time>2016-02-21T14:04:04Z</time>
      </trkpt>
      <trkpt lat="43.62936" lon="3.41957">
        <ele>196.5</ele>
        <time>2016-02-21T14:04:05Z</time>
      </trkpt>
      <trkpt lat="43.62932" lon="3.4196">
        <ele>196</ele>
        <time>2016-02-21T14:04:06Z</time>
      </trkpt>
      <trkpt lat="43.62927" lon="3.41963">
        <ele>195</ele>
        <time>2016-02-21T14:04:07Z</time>
      </trkpt>
      <trkpt lat="43.62922" lon="3.41967">
        <ele>194</ele>
        <time>2016-02-21T14:04:08Z</time>
      </trkpt>
      <trkpt lat="43.62919" lon="3.4197">
        <ele>193</ele>
        <time>2016-02-21T14:04:09Z</time>
      </trkpt>
      <trkpt lat="43.62915" lon="3.41975">
        <ele>192.5</ele>
        <time>2016-02-21T14:04:10Z</time>
      </trkpt>
      <trkpt lat="43.62911" lon="3.41981">
        <ele>192.5</ele>
        <time>2016-02-21T14:04:11Z</time>
      </trkpt>
      <trkpt lat="43.62902" lon="3.41992">
        <ele>191</ele>
        <time>2016-02-21T14:04:13Z</time>
      </trkpt>
      <trkpt lat="43.62897" lon="3.41999">
        <ele>191</ele>
        <time>2016-02-21T14:04:14Z</time>
      </trkpt>
      <trkpt lat="43.62892" lon="3.42005">
        <ele>190.5</ele>
        <time>2016-02-21T14:04:15Z</time>
      </trkpt>
      <trkpt lat="43.62888" lon="3.42011">
        <ele>190.5</ele>
        <time>2016-02-21T14:04:16Z</time>
      </trkpt>
      <trkpt lat="43.62883" lon="3.42017">
        <ele>190</ele>
        <time>2016-02-21T14:04:17Z</time>
      </trkpt>
      <trkpt lat="43.62878" lon="3.42024">
        <ele>189</ele>
        <time>2016-02-21T14:04:18Z</time>
      </trkpt>
      <trkpt lat="43.62873" lon="3.42031">
        <ele>188.5</ele>
        <time>2016-02-21T14:04:19Z</time>
      </trkpt>
      <trkpt lat="43.62869" lon="3.42037">
        <ele>188.5</ele>
        <time>2016-02-21T14:04:20Z</time>
      </trkpt>
      <trkpt lat="43.62864" lon="3.42043">
        <ele>190</ele>
        <time>2016-02-21T14:04:21Z</time>
      </trkpt>
      <trkpt lat="43.62859" lon="3.42049">
        <ele>190.5</ele>
        <time>2016-02-21T14:04:22Z</time>
      </trkpt>
      <trkpt lat="43.62855" lon="3.42055">
        <ele>191</ele>
        <time>2016-02-21T14:04:23Z</time>
      </trkpt>
      <trkpt lat="43.62851" lon="3.42062">
        <ele>191</ele>
        <time>2016-02-21T14:04:24Z</time>
      </trkpt>
      <trkpt lat="43.62847" lon="3.42068">
        <ele>189.5</ele>
        <time>2016-02-21T14:04:25Z</time>
      </trkpt>
      <trkpt lat="43.62843" lon="3.42074">
        <ele>189.5</ele>
        <time>2016-02-21T14:04:26Z</time>
      </trkpt>
      <trkpt lat="43.62839" lon="3.4208">
        <ele>189.5</ele>
        <time>2016-02-21T14:04:27Z</time>
      </trkpt>
      <trkpt lat="43.62834" lon="3.42086">
        <ele>189.5</ele>
        <time>2016-02-21T14:04:28Z</time>
      </trkpt>
      <trkpt lat="43.62829" lon="3.42092">
        <ele>188</ele>
        <time>2016-02-21T14:04:29Z</time>
      </trkpt>
      <trkpt lat="43.62824" lon="3.42099">
        <ele>187.5</ele>
        <time>2016-02-21T14:04:30Z</time>
      </trkpt>
      <trkpt lat="43.6282" lon="3.42105">
        <ele>188</ele>
        <time>2016-02-21T14:04:31Z</time>
      </trkpt>
      <trkpt lat="43.62816" lon="3.42112">
        <ele>187.5</ele>
        <time>2016-02-21T14:04:32Z</time>
      </trkpt>
      <trkpt lat="43.62812" lon="3.42119">
        <ele>187</ele>
        <time>2016-02-21T14:04:33Z</time>
      </trkpt>
      <trkpt lat="43.62808" lon="3.42126">
        <ele>186.5</ele>
        <time>2016-02-21T14:04:34Z</time>
      </trkpt>
      <trkpt lat="43.62804" lon="3.42134">
        <ele>185</ele>
        <time>2016-02-21T14:04:35Z</time>
      </trkpt>
      <trkpt lat="43.628" lon="3.42141">
        <ele>185</ele>
        <time>2016-02-21T14:04:36Z</time>
      </trkpt>
      <trkpt lat="43.62797" lon="3.42148">
        <ele>184.5</ele>
        <time>2016-02-21T14:04:37Z</time>
      </trkpt>
      <trkpt lat="43.62793" lon="3.42155">
        <ele>185.5</ele>
        <time>2016-02-21T14:04:38Z</time>
      </trkpt>
      <trkpt lat="43.62789" lon="3.42163">
        <ele>187</ele>
        <time>2016-02-21T14:04:39Z</time>
      </trkpt>
      <trkpt lat="43.62785" lon="3.42171">
        <ele>187</ele>
        <time>2016-02-21T14:04:40Z</time>
      </trkpt>
      <trkpt lat="43.62783" lon="3.42178">
        <ele>188</ele>
        <time>2016-02-21T14:04:41Z</time>
      </trkpt>
      <trkpt lat="43.62779" lon="3.42186">
        <ele>189</ele>
        <time>2016-02-21T14:04:42Z</time>
      </trkpt>
      <trkpt lat="43.62774" lon="3.42193">
        <ele>187.5</ele>
        <time>2016-02-21T14:04:43Z</time>
      </trkpt>
      <trkpt lat="43.62771" lon="3.42201">
        <ele>187.5</ele>
        <time>2016-02-21T14:04:44Z</time>
      </trkpt>
      <trkpt lat="43.62767" lon="3.42209">
        <ele>188.5</ele>
        <time>2016-02-21T14:04:45Z</time>
      </trkpt>
      <trkpt lat="43.62763" lon="3.42217">
        <ele>189</ele>
        <time>2016-02-21T14:04:46Z</time>
      </trkpt>
      <trkpt lat="43.62758" lon="3.42225">
        <ele>189</ele>
        <time>2016-02-21T14:04:47Z</time>
      </trkpt>
      <trkpt lat="43.62752" lon="3.42233">
        <ele>188</ele>
        <time>2016-02-21T14:04:48Z</time>
      </trkpt>
      <trkpt lat="43.62748" lon="3.42241">
        <ele>188.5</ele>
        <time>2016-02-21T14:04:49Z</time>
      </trkpt>
      <trkpt lat="43.62744" lon="3.42249">
        <ele>188</ele>
        <time>2016-02-21T14:04:49Z</time>
      </trkpt>
      <trkpt lat="43.6274" lon="3.42257">
        <ele>187</ele>
        <time>2016-02-21T14:04:50Z</time>
      </trkpt>
      <trkpt lat="43.62735" lon="3.42266">
        <ele>187</ele>
        <time>2016-02-21T14:04:51Z</time>
      </trkpt>
      <trkpt lat="43.62729" lon="3.42281">
        <ele>186.5</ele>
        <time>2016-02-21T14:04:53Z</time>
      </trkpt>
      <trkpt lat="43.62724" lon="3.42291">
        <ele>185</ele>
        <time>2016-02-21T14:04:54Z</time>
      </trkpt>
      <trkpt lat="43.6272" lon="3.423">
        <ele>184</ele>
        <time>2016-02-21T14:04:55Z</time>
      </trkpt>
      <trkpt lat="43.62715" lon="3.4231">
        <ele>184</ele>
        <time>2016-02-21T14:04:56Z</time>
      </trkpt>
      <trkpt lat="43.62711" lon="3.42319">
        <ele>184</ele>
        <time>2016-02-21T14:04:57Z</time>
      </trkpt>
      <trkpt lat="43.62706" lon="3.42328">
        <ele>182.5</ele>
        <time>2016-02-21T14:04:58Z</time>
      </trkpt>
      <trkpt lat="43.62701" lon="3.42338">
        <ele>182</ele>
        <time>2016-02-21T14:04:59Z</time>
      </trkpt>
      <trkpt lat="43.62697" lon="3.42348">
        <ele>181.5</ele>
        <time>2016-02-21T14:05:00Z</time>
      </trkpt>
      <trkpt lat="43.62692" lon="3.42357">
        <ele>181</ele>
        <time>2016-02-21T14:05:01Z</time>
      </trkpt>
      <trkpt lat="43.6269" lon="3.42367">
        <ele>182</ele>
        <time>2016-02-21T14:05:02Z</time>
      </trkpt>
      <trkpt lat="43.62686" lon="3.42377">
        <ele>182</ele>
        <time>2016-02-21T14:05:03Z</time>
      </trkpt>
      <trkpt lat="43.62683" lon="3.42387">
        <ele>182</ele>
        <time>2016-02-21T14:05:04Z</time>
      </trkpt>
      <trkpt lat="43.62678" lon="3.42397">
        <ele>181.5</ele>
        <time>2016-02-21T14:05:05Z</time>
      </trkpt>
      <trkpt lat="43.62673" lon="3.42407">
        <ele>181</ele>
        <time>2016-02-21T14:05:06Z</time>
      </trkpt>
      <trkpt lat="43.62668" lon="3.42416">
        <ele>181</ele>
        <time>2016-02-21T14:05:07Z</time>
      </trkpt>
      <trkpt lat="43.62664" lon="3.42426">
        <ele>181</ele>
        <time>2016-02-21T14:05:08Z</time>
      </trkpt>
      <trkpt lat="43.62661" lon="3.42436">
        <ele>180.5</ele>
        <time>2016-02-21T14:05:09Z</time>
      </trkpt>
      <trkpt lat="43.62656" lon="3.42446">
        <ele>180.5</ele>
        <time>2016-02-21T14:05:10Z</time>
      </trkpt>
      <trkpt lat="43.62652" lon="3.42456">
        <ele>180</ele>
        <time>2016-02-21T14:05:11Z</time>
      </trkpt>
      <trkpt lat="43.62648" lon="3.42466">
        <ele>179</ele>
        <time>2016-02-21T14:05:12Z</time>
      </trkpt>
      <trkpt lat="43.62644" lon="3.42477">
        <ele>177.5</ele>
        <time>2016-02-21T14:05:13Z</time>
      </trkpt>
      <trkpt lat="43.62642" lon="3.42487">
        <ele>177</ele>
        <time>2016-02-21T14:05:14Z</time>
      </trkpt>
      <trkpt lat="43.62639" lon="3.42497">
        <ele>177</ele>
        <time>2016-02-21T14:05:15Z</time>
      </trkpt>
      <trkpt lat="43.62636" lon="3.42507">
        <ele>176</ele>
        <time>2016-02-21T14:05:16Z</time>
      </trkpt>
      <trkpt lat="43.62632" lon="3.42517">
        <ele>175</ele>
        <time>2016-02-21T14:05:17Z</time>
      </trkpt>
      <trkpt lat="43.6263" lon="3.42527">
        <ele>176.5</ele>
        <time>2016-02-21T14:05:18Z</time>
      </trkpt>
      <trkpt lat="43.62626" lon="3.42535">
        <ele>176.5</ele>
        <time>2016-02-21T14:05:19Z</time>
      </trkpt>
      <trkpt lat="43.6262" lon="3.4254">
        <ele>176.5</ele>
        <time>2016-02-21T14:05:20Z</time>
      </trkpt>
      <trkpt lat="43.62614" lon="3.42545">
        <ele>176.5</ele>
        <time>2016-02-21T14:05:21Z</time>
      </trkpt>
      <trkpt lat="43.62608" lon="3.42549">
        <ele>177</ele>
        <time>2016-02-21T14:05:22Z</time>
      </trkpt>
      <trkpt lat="43.62603" lon="3.42552">
        <ele>176.5</ele>
        <time>2016-02-21T14:05:23Z</time>
      </trkpt>
      <trkpt lat="43.62598" lon="3.42554">
        <ele>176.5</ele>
        <time>2016-02-21T14:05:24Z</time>
      </trkpt>
      <trkpt lat="43.62592" lon="3.42549">
        <ele>176.5</ele>
        <time>2016-02-21T14:05:26Z</time>
      </trkpt>
      <trkpt lat="43.62588" lon="3.42547">
        <ele>177</ele>
        <time>2016-02-21T14:05:27Z</time>
      </trkpt>
      <trkpt lat="43.62586" lon="3.42542">
        <ele>176.5</ele>
        <time>2016-02-21T14:05:28Z</time>
      </trkpt>
      <trkpt lat="43.62585" lon="3.42537">
        <ele>177</ele>
        <time>2016-02-21T14:05:29Z</time>
      </trkpt>
      <trkpt lat="43.62584" lon="3.42533">
        <ele>176</ele>
        <time>2016-02-21T14:05:30Z</time>
      </trkpt>
      <trkpt lat="43.62583" lon="3.42527">
        <ele>176</ele>
        <time>2016-02-21T14:05:31Z</time>
      </trkpt>
      <trkpt lat="43.62583" lon="3.42522">
        <ele>175.5</ele>
        <time>2016-02-21T14:05:32Z</time>
      </trkpt>
      <trkpt lat="43.62584" lon="3.42516">
        <ele>175</ele>
        <time>2016-02-21T14:05:33Z</time>
      </trkpt>
      <trkpt lat="43.62584" lon="3.4251">
        <ele>174.5</ele>
        <time>2016-02-21T14:05:34Z</time>
      </trkpt>
      <trkpt lat="43.62583" lon="3.42505">
        <ele>174.5</ele>
        <time>2016-02-21T14:05:35Z</time>
      </trkpt>
      <trkpt lat="43.62583" lon="3.425">
        <ele>174.5</ele>
        <time>2016-02-21T14:05:36Z</time>
      </trkpt>
      <trkpt lat="43.62583" lon="3.42494">
        <ele>175</ele>
        <time>2016-02-21T14:05:37Z</time>
      </trkpt>
      <trkpt lat="43.62584" lon="3.42488">
        <ele>175</ele>
        <time>2016-02-21T14:05:38Z</time>
      </trkpt>
      <trkpt lat="43.62583" lon="3.42483">
        <ele>174.5</ele>
        <time>2016-02-21T14:05:39Z</time>
      </trkpt>
      <trkpt lat="43.62583" lon="3.42478">
        <ele>173.5</ele>
        <time>2016-02-21T14:05:40Z</time>
      </trkpt>
      <trkpt lat="43.62583" lon="3.42473">
        <ele>172.5</ele>
        <time>2016-02-21T14:05:41Z</time>
      </trkpt>
      <trkpt lat="43.62583" lon="3.42468">
        <ele>172.5</ele>
        <time>2016-02-21T14:05:42Z</time>
      </trkpt>
      <trkpt lat="43.62582" lon="3.42462">
        <ele>172.5</ele>
        <time>2016-02-21T14:05:43Z</time>
      </trkpt>
      <trkpt lat="43.6258" lon="3.4246">
        <ele>172</ele>
        <time>2016-02-21T14:05:44Z</time>
      </trkpt>
      <trkpt lat="43.62579" lon="3.42454">
        <ele>172.5</ele>
        <time>2016-02-21T14:05:45Z</time>
      </trkpt>
      <trkpt lat="43.62579" lon="3.42449">
        <ele>172.5</ele>
        <time>2016-02-21T14:05:46Z</time>
      </trkpt>
      <trkpt lat="43.62579" lon="3.42444">
        <ele>172</ele>
        <time>2016-02-21T14:05:47Z</time>
      </trkpt>
      <trkpt lat="43.62579" lon="3.42439">
        <ele>172</ele>
        <time>2016-02-21T14:05:48Z</time>
      </trkpt>
      <trkpt lat="43.62579" lon="3.42434">
        <ele>172.5</ele>
        <time>2016-02-21T14:05:49Z</time>
      </trkpt>
      <trkpt lat="43.62579" lon="3.42429">
        <ele>173</ele>
        <time>2016-02-21T14:05:50Z</time>
      </trkpt>
      <trkpt lat="43.62579" lon="3.42424">
        <ele>173.5</ele>
        <time>2016-02-21T14:05:51Z</time>
      </trkpt>
      <trkpt lat="43.62579" lon="3.42419">
        <ele>174.5</ele>
        <time>2016-02-21T14:05:52Z</time>
      </trkpt>
      <trkpt lat="43.62579" lon="3.42414">
        <ele>175.5</ele>
        <time>2016-02-21T14:05:53Z</time>
      </trkpt>
      <trkpt lat="43.62579" lon="3.42408">
        <ele>176.5</ele>
        <time>2016-02-21T14:05:54Z</time>
      </trkpt>
      <trkpt lat="43.62578" lon="3.42404">
        <ele>177</ele>
        <time>2016-02-21T14:05:55Z</time>
      </trkpt>
      <trkpt lat="43.62578" lon="3.42399">
        <ele>178.5</ele>
        <time>2016-02-21T14:05:56Z</time>
      </trkpt>
      <trkpt lat="43.62577" lon="3.42395">
        <ele>179</ele>
        <time>2016-02-21T14:05:57Z</time>
      </trkpt>
      <trkpt lat="43.62575" lon="3.42394">
        <ele>179</ele>
        <time>2016-02-21T14:05:58Z</time>
      </trkpt>
      <trkpt lat="43.62573" lon="3.42391">
        <ele>179.5</ele>
        <time>2016-02-21T14:05:59Z</time>
      </trkpt>
      <trkpt lat="43.62572" lon="3.42388">
        <ele>180</ele>
        <time>2016-02-21T14:06:00Z</time>
      </trkpt>
      <trkpt lat="43.62571" lon="3.42384">
        <ele>180.5</ele>
        <time>2016-02-21T14:06:01Z</time>
      </trkpt>
      <trkpt lat="43.62571" lon="3.42379">
        <ele>180.5</ele>
        <time>2016-02-21T14:06:02Z</time>
      </trkpt>
      <trkpt lat="43.62571" lon="3.42375">
        <ele>180.5</ele>
        <time>2016-02-21T14:06:03Z</time>
      </trkpt>
      <trkpt lat="43.62571" lon="3.4237">
        <ele>181</ele>
        <time>2016-02-21T14:06:04Z</time>
      </trkpt>
      <trkpt lat="43.62571" lon="3.42365">
        <ele>181</ele>
        <time>2016-02-21T14:06:05Z</time>
      </trkpt>
      <trkpt lat="43.62571" lon="3.42359">
        <ele>181</ele>
        <time>2016-02-21T14:06:06Z</time>
      </trkpt>
      <trkpt lat="43.6257" lon="3.42355">
        <ele>181</ele>
        <time>2016-02-21T14:06:07Z</time>
      </trkpt>
      <trkpt lat="43.62569" lon="3.42351">
        <ele>181</ele>
        <time>2016-02-21T14:06:08Z</time>
      </trkpt>
      <trkpt lat="43.62569" lon="3.42347">
        <ele>181</ele>
        <time>2016-02-21T14:06:09Z</time>
      </trkpt>
      <trkpt lat="43.62568" lon="3.42343">
        <ele>181.5</ele>
        <time>2016-02-21T14:06:10Z</time>
      </trkpt>
      <trkpt lat="43.62572" lon="3.4233">
        <ele>181.5</ele>
        <time>2016-02-21T14:06:12Z</time>
      </trkpt>
      <trkpt lat="43.62571" lon="3.42326">
        <ele>181.5</ele>
        <time>2016-02-21T14:06:13Z</time>
      </trkpt>
      <trkpt lat="43.62572" lon="3.42321">
        <ele>181</ele>
        <time>2016-02-21T14:06:14Z</time>
      </trkpt>
      <trkpt lat="43.62572" lon="3.42315">
        <ele>181</ele>
        <time>2016-02-21T14:06:15Z</time>
      </trkpt>
      <trkpt lat="43.62572" lon="3.42309">
        <ele>181</ele>
        <time>2016-02-21T14:06:16Z</time>
      </trkpt>
      <trkpt lat="43.62572" lon="3.42303">
        <ele>181</ele>
        <time>2016-02-21T14:06:17Z</time>
      </trkpt>
      <trkpt lat="43.62571" lon="3.42298">
        <ele>182</ele>
        <time>2016-02-21T14:06:18Z</time>
      </trkpt>
      <trkpt lat="43.62571" lon="3.42292">
        <ele>182</ele>
        <time>2016-02-21T14:06:19Z</time>
      </trkpt>
      <trkpt lat="43.6257" lon="3.42287">
        <ele>182.5</ele>
        <time>2016-02-21T14:06:20Z</time>
      </trkpt>
      <trkpt lat="43.62569" lon="3.42282">
        <ele>183</ele>
        <time>2016-02-21T14:06:21Z</time>
      </trkpt>
      <trkpt lat="43.62568" lon="3.42277">
        <ele>182.5</ele>
        <time>2016-02-21T14:06:22Z</time>
      </trkpt>
      <trkpt lat="43.62567" lon="3.42272">
        <ele>183</ele>
        <time>2016-02-21T14:06:23Z</time>
      </trkpt>
      <trkpt lat="43.62566" lon="3.42267">
        <ele>183.5</ele>
        <time>2016-02-21T14:06:24Z</time>
      </trkpt>
      <trkpt lat="43.62564" lon="3.42262">
        <ele>183.5</ele>
        <time>2016-02-21T14:06:25Z</time>
      </trkpt>
      <trkpt lat="43.62562" lon="3.42257">
        <ele>183.5</ele>
        <time>2016-02-21T14:06:26Z</time>
      </trkpt>
      <trkpt lat="43.62561" lon="3.42251">
        <ele>183</ele>
        <time>2016-02-21T14:06:27Z</time>
      </trkpt>
      <trkpt lat="43.62558" lon="3.42246">
        <ele>183</ele>
        <time>2016-02-21T14:06:28Z</time>
      </trkpt>
      <trkpt lat="43.62557" lon="3.42241">
        <ele>183.5</ele>
        <time>2016-02-21T14:06:29Z</time>
      </trkpt>
      <trkpt lat="43.62554" lon="3.42236">
        <ele>184</ele>
        <time>2016-02-21T14:06:30Z</time>
      </trkpt>
      <trkpt lat="43.62552" lon="3.42231">
        <ele>184.5</ele>
        <time>2016-02-21T14:06:31Z</time>
      </trkpt>
      <trkpt lat="43.62549" lon="3.42227">
        <ele>184.5</ele>
        <time>2016-02-21T14:06:32Z</time>
      </trkpt>
      <trkpt lat="43.62547" lon="3.42222">
        <ele>185</ele>
        <time>2016-02-21T14:06:33Z</time>
      </trkpt>
      <trkpt lat="43.62545" lon="3.42217">
        <ele>185</ele>
        <time>2016-02-21T14:06:34Z</time>
      </trkpt>
      <trkpt lat="43.62543" lon="3.42212">
        <ele>184.5</ele>
        <time>2016-02-21T14:06:35Z</time>
      </trkpt>
      <trkpt lat="43.6254" lon="3.42208">
        <ele>185</ele>
        <time>2016-02-21T14:06:36Z</time>
      </trkpt>
      <trkpt lat="43.62538" lon="3.42203">
        <ele>185</ele>
        <time>2016-02-21T14:06:37Z</time>
      </trkpt>
      <trkpt lat="43.62536" lon="3.42198">
        <ele>186</ele>
        <time>2016-02-21T14:06:38Z</time>
      </trkpt>
      <trkpt lat="43.62535" lon="3.42194">
        <ele>186.5</ele>
        <time>2016-02-21T14:06:39Z</time>
      </trkpt>
      <trkpt lat="43.62532" lon="3.4219">
        <ele>186.5</ele>
        <time>2016-02-21T14:06:40Z</time>
      </trkpt>
      <trkpt lat="43.6253" lon="3.42186">
        <ele>186.5</ele>
        <time>2016-02-21T14:06:41Z</time>
      </trkpt>
      <trkpt lat="43.6253" lon="3.42182">
        <ele>186</ele>
        <time>2016-02-21T14:06:42Z</time>
      </trkpt>
      <trkpt lat="43.62528" lon="3.42179">
        <ele>187.5</ele>
        <time>2016-02-21T14:06:43Z</time>
      </trkpt>
      <trkpt lat="43.62526" lon="3.42174">
        <ele>187</ele>
        <time>2016-02-21T14:06:44Z</time>
      </trkpt>
      <trkpt lat="43.62524" lon="3.42169">
        <ele>187</ele>
        <time>2016-02-21T14:06:45Z</time>
      </trkpt>
      <trkpt lat="43.62523" lon="3.42163">
        <ele>186</ele>
        <time>2016-02-21T14:06:46Z</time>
      </trkpt>
      <trkpt lat="43.6252" lon="3.4216">
        <ele>186.5</ele>
        <time>2016-02-21T14:06:47Z</time>
      </trkpt>
      <trkpt lat="43.6252" lon="3.42155">
        <ele>187</ele>
        <time>2016-02-21T14:06:48Z</time>
      </trkpt>
      <trkpt lat="43.62517" lon="3.4215">
        <ele>186.5</ele>
        <time>2016-02-21T14:06:49Z</time>
      </trkpt>
      <trkpt lat="43.62514" lon="3.42148">
        <ele>187</ele>
        <time>2016-02-21T14:06:50Z</time>
      </trkpt>
      <trkpt lat="43.62512" lon="3.42143">
        <ele>187</ele>
        <time>2016-02-21T14:06:51Z</time>
      </trkpt>
      <trkpt lat="43.62511" lon="3.42138">
        <ele>187</ele>
        <time>2016-02-21T14:06:52Z</time>
      </trkpt>
      <trkpt lat="43.62509" lon="3.42134">
        <ele>186.5</ele>
        <time>2016-02-21T14:06:53Z</time>
      </trkpt>
      <trkpt lat="43.62507" lon="3.4213">
        <ele>187</ele>
        <time>2016-02-21T14:06:54Z</time>
      </trkpt>
      <trkpt lat="43.62505" lon="3.42125">
        <ele>187</ele>
        <time>2016-02-21T14:06:55Z</time>
      </trkpt>
      <trkpt lat="43.62503" lon="3.42121">
        <ele>188</ele>
        <time>2016-02-21T14:06:56Z</time>
      </trkpt>
      <trkpt lat="43.62501" lon="3.42117">
        <ele>189</ele>
        <time>2016-02-21T14:06:57Z</time>
      </trkpt>
      <trkpt lat="43.62498" lon="3.42112">
        <ele>190</ele>
        <time>2016-02-21T14:06:58Z</time>
      </trkpt>
      <trkpt lat="43.62496" lon="3.42108">
        <ele>190</ele>
        <time>2016-02-21T14:06:59Z</time>
      </trkpt>
      <trkpt lat="43.62495" lon="3.42104">
        <ele>190.5</ele>
        <time>2016-02-21T14:07:00Z</time>
      </trkpt>
      <trkpt lat="43.62492" lon="3.421">
        <ele>190.5</ele>
        <time>2016-02-21T14:07:01Z</time>
      </trkpt>
      <trkpt lat="43.62491" lon="3.42095">
        <ele>190.5</ele>
        <time>2016-02-21T14:07:02Z</time>
      </trkpt>
      <trkpt lat="43.6249" lon="3.42091">
        <ele>189</ele>
        <time>2016-02-21T14:07:03Z</time>
      </trkpt>
      <trkpt lat="43.62489" lon="3.42088">
        <ele>188.5</ele>
        <time>2016-02-21T14:07:04Z</time>
      </trkpt>
      <trkpt lat="43.62487" lon="3.42085">
        <ele>188.5</ele>
        <time>2016-02-21T14:07:05Z</time>
      </trkpt>
      <trkpt lat="43.62486" lon="3.42081">
        <ele>188.5</ele>
        <time>2016-02-21T14:07:06Z</time>
      </trkpt>
      <trkpt lat="43.62484" lon="3.42079">
        <ele>188.5</ele>
        <time>2016-02-21T14:07:07Z</time>
      </trkpt>
      <trkpt lat="43.62482" lon="3.42077">
        <ele>189</ele>
        <time>2016-02-21T14:07:08Z</time>
      </trkpt>
      <trkpt lat="43.6248" lon="3.42074">
        <ele>190</ele>
        <time>2016-02-21T14:07:09Z</time>
      </trkpt>
      <trkpt lat="43.62478" lon="3.42072">
        <ele>191.5</ele>
        <time>2016-02-21T14:07:10Z</time>
      </trkpt>
      <trkpt lat="43.62476" lon="3.42068">
        <ele>192</ele>
        <time>2016-02-21T14:07:11Z</time>
      </trkpt>
      <trkpt lat="43.62475" lon="3.42066">
        <ele>192.5</ele>
        <time>2016-02-21T14:07:12Z</time>
      </trkpt>
      <trkpt lat="43.62473" lon="3.42062">
        <ele>194</ele>
        <time>2016-02-21T14:07:13Z</time>
      </trkpt>
      <trkpt lat="43.62472" lon="3.42058">
        <ele>194</ele>
        <time>2016-02-21T14:07:14Z</time>
      </trkpt>
      <trkpt lat="43.62471" lon="3.42054">
        <ele>193</ele>
        <time>2016-02-21T14:07:15Z</time>
      </trkpt>
      <trkpt lat="43.6247" lon="3.42051">
        <ele>193</ele>
        <time>2016-02-21T14:07:16Z</time>
      </trkpt>
      <trkpt lat="43.6247" lon="3.42046">
        <ele>193</ele>
        <time>2016-02-21T14:07:17Z</time>
      </trkpt>
      <trkpt lat="43.62469" lon="3.4204">
        <ele>193.5</ele>
        <time>2016-02-21T14:07:18Z</time>
      </trkpt>
      <trkpt lat="43.62465" lon="3.42039">
        <ele>193.5</ele>
        <time>2016-02-21T14:07:19Z</time>
      </trkpt>
      <trkpt lat="43.62462" lon="3.42038">
        <ele>193</ele>
        <time>2016-02-21T14:07:20Z</time>
      </trkpt>
      <trkpt lat="43.62459" lon="3.42037">
        <ele>193.5</ele>
        <time>2016-02-21T14:07:21Z</time>
      </trkpt>
      <trkpt lat="43.62452" lon="3.42041">
        <ele>197</ele>
        <time>2016-02-21T14:07:23Z</time>
      </trkpt>
      <trkpt lat="43.6245" lon="3.42042">
        <ele>198.5</ele>
        <time>2016-02-21T14:07:24Z</time>
      </trkpt>
      <trkpt lat="43.62448" lon="3.42044">
        <ele>199.5</ele>
        <time>2016-02-21T14:07:25Z</time>
      </trkpt>
      <trkpt lat="43.62446" lon="3.42045">
        <ele>199.5</ele>
        <time>2016-02-21T14:07:26Z</time>
      </trkpt>
      <trkpt lat="43.62444" lon="3.42046">
        <ele>199.5</ele>
        <time>2016-02-21T14:07:27Z</time>
      </trkpt>
      <trkpt lat="43.62442" lon="3.42047">
        <ele>199.5</ele>
        <time>2016-02-21T14:07:28Z</time>
      </trkpt>
      <trkpt lat="43.62439" lon="3.42048">
        <ele>199.5</ele>
        <time>2016-02-21T14:07:29Z</time>
      </trkpt>
      <trkpt lat="43.62436" lon="3.42048">
        <ele>199.5</ele>
        <time>2016-02-21T14:07:30Z</time>
      </trkpt>
      <trkpt lat="43.62435" lon="3.42049">
        <ele>200</ele>
        <time>2016-02-21T14:07:31Z</time>
      </trkpt>
      <trkpt lat="43.62433" lon="3.4205">
        <ele>201</ele>
        <time>2016-02-21T14:07:32Z</time>
      </trkpt>
      <trkpt lat="43.62429" lon="3.42049">
        <ele>201</ele>
        <time>2016-02-21T14:07:33Z</time>
      </trkpt>
      <trkpt lat="43.62427" lon="3.42047">
        <ele>201.5</ele>
        <time>2016-02-21T14:07:34Z</time>
      </trkpt>
      <trkpt lat="43.62425" lon="3.42045">
        <ele>202</ele>
        <time>2016-02-21T14:07:35Z</time>
      </trkpt>
      <trkpt lat="43.62424" lon="3.42043">
        <ele>202.5</ele>
        <time>2016-02-21T14:07:36Z</time>
      </trkpt>
      <trkpt lat="43.62422" lon="3.4204">
        <ele>202.5</ele>
        <time>2016-02-21T14:07:37Z</time>
      </trkpt>
      <trkpt lat="43.62421" lon="3.42037">
        <ele>203</ele>
        <time>2016-02-21T14:07:38Z</time>
      </trkpt>
      <trkpt lat="43.62419" lon="3.42034">
        <ele>202.5</ele>
        <time>2016-02-21T14:07:39Z</time>
      </trkpt>
      <trkpt lat="43.62417" lon="3.42031">
        <ele>202.5</ele>
        <time>2016-02-21T14:07:40Z</time>
      </trkpt>
      <trkpt lat="43.62415" lon="3.42028">
        <ele>202</ele>
        <time>2016-02-21T14:07:41Z</time>
      </trkpt>
      <trkpt lat="43.62417" lon="3.42024">
        <ele>203.5</ele>
        <time>2016-02-21T14:07:42Z</time>
      </trkpt>
      <trkpt lat="43.62416" lon="3.4202">
        <ele>203</ele>
        <time>2016-02-21T14:07:43Z</time>
      </trkpt>
      <trkpt lat="43.62415" lon="3.42017">
        <ele>203.5</ele>
        <time>2016-02-21T14:07:44Z</time>
      </trkpt>
      <trkpt lat="43.62416" lon="3.42014">
        <ele>205.5</ele>
        <time>2016-02-21T14:07:45Z</time>
      </trkpt>
      <trkpt lat="43.62414" lon="3.4201">
        <ele>204.5</ele>
        <time>2016-02-21T14:07:46Z</time>
      </trkpt>
      <trkpt lat="43.62409" lon="3.42001">
        <ele>199</ele>
        <time>2016-02-21T14:07:48Z</time>
      </trkpt>
      <trkpt lat="43.62409" lon="3.41998">
        <ele>200</ele>
        <time>2016-02-21T14:07:49Z</time>
      </trkpt>
      <trkpt lat="43.62407" lon="3.41995">
        <ele>199</ele>
        <time>2016-02-21T14:07:50Z</time>
      </trkpt>
      <trkpt lat="43.62406" lon="3.41991">
        <ele>199</ele>
        <time>2016-02-21T14:07:51Z</time>
      </trkpt>
      <trkpt lat="43.62405" lon="3.41988">
        <ele>199</ele>
        <time>2016-02-21T14:07:52Z</time>
      </trkpt>
      <trkpt lat="43.62405" lon="3.41985">
        <ele>199</ele>
        <time>2016-02-21T14:07:53Z</time>
      </trkpt>
      <trkpt lat="43.62403" lon="3.41981">
        <ele>198</ele>
        <time>2016-02-21T14:07:54Z</time>
      </trkpt>
      <trkpt lat="43.62401" lon="3.41977">
        <ele>197</ele>
        <time>2016-02-21T14:07:55Z</time>
      </trkpt>
      <trkpt lat="43.62399" lon="3.41973">
        <ele>196</ele>
        <time>2016-02-21T14:07:56Z</time>
      </trkpt>
      <trkpt lat="43.62398" lon="3.41969">
        <ele>195</ele>
        <time>2016-02-21T14:07:57Z</time>
      </trkpt>
      <trkpt lat="43.624" lon="3.41965">
        <ele>196.5</ele>
        <time>2016-02-21T14:07:58Z</time>
      </trkpt>
      <trkpt lat="43.624" lon="3.41962">
        <ele>196.5</ele>
        <time>2016-02-21T14:07:59Z</time>
      </trkpt>
      <trkpt lat="43.624" lon="3.41958">
        <ele>197</ele>
        <time>2016-02-21T14:08:00Z</time>
      </trkpt>
      <trkpt lat="43.624" lon="3.41954">
        <ele>197</ele>
        <time>2016-02-21T14:08:01Z</time>
      </trkpt>
      <trkpt lat="43.624" lon="3.4195">
        <ele>197</ele>
        <time>2016-02-21T14:08:02Z</time>
      </trkpt>
      <trkpt lat="43.624" lon="3.41946">
        <ele>197</ele>
        <time>2016-02-21T14:08:03Z</time>
      </trkpt>
      <trkpt lat="43.62399" lon="3.41943">
        <ele>196.5</ele>
        <time>2016-02-21T14:08:04Z</time>
      </trkpt>
      <trkpt lat="43.62399" lon="3.41939">
        <ele>196.5</ele>
        <time>2016-02-21T14:08:05Z</time>
      </trkpt>
      <trkpt lat="43.62398" lon="3.41937">
        <ele>197</ele>
        <time>2016-02-21T14:08:06Z</time>
      </trkpt>
      <trkpt lat="43.62397" lon="3.41934">
        <ele>198.5</ele>
        <time>2016-02-21T14:08:07Z</time>
      </trkpt>
      <trkpt lat="43.62396" lon="3.41931">
        <ele>198</ele>
        <time>2016-02-21T14:08:08Z</time>
      </trkpt>
      <trkpt lat="43.62395" lon="3.41929">
        <ele>198.5</ele>
        <time>2016-02-21T14:08:09Z</time>
      </trkpt>
      <trkpt lat="43.62393" lon="3.41927">
        <ele>198.5</ele>
        <time>2016-02-21T14:08:10Z</time>
      </trkpt>
      <trkpt lat="43.62391" lon="3.41925">
        <ele>198.5</ele>
        <time>2016-02-21T14:08:11Z</time>
      </trkpt>
      <trkpt lat="43.62388" lon="3.41924">
        <ele>198.5</ele>
        <time>2016-02-21T14:08:12Z</time>
      </trkpt>
      <trkpt lat="43.62386" lon="3.41922">
        <ele>198.5</ele>
        <time>2016-02-21T14:08:13Z</time>
      </trkpt>
      <trkpt lat="43.62384" lon="3.41921">
        <ele>199</ele>
        <time>2016-02-21T14:08:14Z</time>
      </trkpt>
      <trkpt lat="43.62382" lon="3.41919">
        <ele>199.5</ele>
        <time>2016-02-21T14:08:15Z</time>
      </trkpt>
      <trkpt lat="43.6238" lon="3.41918">
        <ele>199.5</ele>
        <time>2016-02-21T14:08:16Z</time>
      </trkpt>
      <trkpt lat="43.62377" lon="3.41917">
        <ele>199.5</ele>
        <time>2016-02-21T14:08:17Z</time>
      </trkpt>
      <trkpt lat="43.62375" lon="3.41916">
        <ele>199</ele>
        <time>2016-02-21T14:08:18Z</time>
      </trkpt>
      <trkpt lat="43.62373" lon="3.41915">
        <ele>199</ele>
        <time>2016-02-21T14:08:19Z</time>
      </trkpt>
      <trkpt lat="43.62371" lon="3.41915">
        <ele>198.5</ele>
        <time>2016-02-21T14:08:20Z</time>
      </trkpt>
      <trkpt lat="43.62369" lon="3.41914">
        <ele>198.5</ele>
        <time>2016-02-21T14:08:21Z</time>
      </trkpt>
      <trkpt lat="43.62366" lon="3.41913">
        <ele>198.5</ele>
        <time>2016-02-21T14:08:22Z</time>
      </trkpt>
      <trkpt lat="43.62365" lon="3.41912">
        <ele>199</ele>
        <time>2016-02-21T14:08:23Z</time>
      </trkpt>
      <trkpt lat="43.62363" lon="3.41911">
        <ele>199</ele>
        <time>2016-02-21T14:08:24Z</time>
      </trkpt>
      <trkpt lat="43.62361" lon="3.4191">
        <ele>199.5</ele>
        <time>2016-02-21T14:08:25Z</time>
      </trkpt>
      <trkpt lat="43.62358" lon="3.41908">
        <ele>198.5</ele>
        <time>2016-02-21T14:08:26Z</time>
      </trkpt>
      <trkpt lat="43.62356" lon="3.41907">
        <ele>198.5</ele>
        <time>2016-02-21T14:08:27Z</time>
      </trkpt>
      <trkpt lat="43.62354" lon="3.41906">
        <ele>199</ele>
        <time>2016-02-21T14:08:28Z</time>
      </trkpt>
      <trkpt lat="43.62351" lon="3.41906">
        <ele>199.5</ele>
        <time>2016-02-21T14:08:29Z</time>
      </trkpt>
      <trkpt lat="43.62349" lon="3.41905">
        <ele>200</ele>
        <time>2016-02-21T14:08:30Z</time>
      </trkpt>
      <trkpt lat="43.62347" lon="3.41905">
        <ele>200</ele>
        <time>2016-02-21T14:08:31Z</time>
      </trkpt>
      <trkpt lat="43.62345" lon="3.41904">
        <ele>200</ele>
        <time>2016-02-21T14:08:32Z</time>
      </trkpt>
      <trkpt lat="43.62343" lon="3.41903">
        <ele>200.5</ele>
        <time>2016-02-21T14:08:33Z</time>
      </trkpt>
      <trkpt lat="43.62341" lon="3.41903">
        <ele>201</ele>
        <time>2016-02-21T14:08:33Z</time>
      </trkpt>
      <trkpt lat="43.62339" lon="3.41902">
        <ele>201.5</ele>
        <time>2016-02-21T14:08:35Z</time>
      </trkpt>
      <trkpt lat="43.62337" lon="3.41901">
        <ele>201.5</ele>
        <time>2016-02-21T14:08:35Z</time>
      </trkpt>
      <trkpt lat="43.62334" lon="3.419">
        <ele>202</ele>
        <time>2016-02-21T14:08:36Z</time>
      </trkpt>
      <trkpt lat="43.62332" lon="3.41899">
        <ele>202</ele>
        <time>2016-02-21T14:08:37Z</time>
      </trkpt>
      <trkpt lat="43.6233" lon="3.41898">
        <ele>202.5</ele>
        <time>2016-02-21T14:08:39Z</time>
      </trkpt>
      <trkpt lat="43.62328" lon="3.41897">
        <ele>202.5</ele>
        <time>2016-02-21T14:08:39Z</time>
      </trkpt>
      <trkpt lat="43.62325" lon="3.41897">
        <ele>203.5</ele>
        <time>2016-02-21T14:08:41Z</time>
      </trkpt>
      <trkpt lat="43.62323" lon="3.41897">
        <ele>203.5</ele>
        <time>2016-02-21T14:08:41Z</time>
      </trkpt>
      <trkpt lat="43.62321" lon="3.41896">
        <ele>203.5</ele>
        <time>2016-02-21T14:08:42Z</time>
      </trkpt>
      <trkpt lat="43.62319" lon="3.41895">
        <ele>203</ele>
        <time>2016-02-21T14:08:43Z</time>
      </trkpt>
      <trkpt lat="43.62317" lon="3.41893">
        <ele>203</ele>
        <time>2016-02-21T14:08:44Z</time>
      </trkpt>
      <trkpt lat="43.62315" lon="3.41892">
        <ele>203</ele>
        <time>2016-02-21T14:08:45Z</time>
      </trkpt>
      <trkpt lat="43.62313" lon="3.4189">
        <ele>203</ele>
        <time>2016-02-21T14:08:46Z</time>
      </trkpt>
      <trkpt lat="43.62311" lon="3.41888">
        <ele>202.5</ele>
        <time>2016-02-21T14:08:47Z</time>
      </trkpt>
      <trkpt lat="43.6231" lon="3.41887">
        <ele>202.5</ele>
        <time>2016-02-21T14:08:48Z</time>
      </trkpt>
      <trkpt lat="43.62308" lon="3.41886">
        <ele>202.5</ele>
        <time>2016-02-21T14:08:49Z</time>
      </trkpt>
      <trkpt lat="43.62306" lon="3.41885">
        <ele>202.5</ele>
        <time>2016-02-21T14:08:50Z</time>
      </trkpt>
      <trkpt lat="43.62304" lon="3.41883">
        <ele>202.5</ele>
        <time>2016-02-21T14:08:51Z</time>
      </trkpt>
      <trkpt lat="43.62302" lon="3.41882">
        <ele>202.5</ele>
        <time>2016-02-21T14:08:52Z</time>
      </trkpt>
      <trkpt lat="43.623" lon="3.41881">
        <ele>202.5</ele>
        <time>2016-02-21T14:08:53Z</time>
      </trkpt>
      <trkpt lat="43.62298" lon="3.4188">
        <ele>202.5</ele>
        <time>2016-02-21T14:08:55Z</time>
      </trkpt>
      <trkpt lat="43.62297" lon="3.41879">
        <ele>202.5</ele>
        <time>2016-02-21T14:08:55Z</time>
      </trkpt>
      <trkpt lat="43.62292" lon="3.41876">
        <ele>203.5</ele>
        <time>2016-02-21T14:08:57Z</time>
      </trkpt>
      <trkpt lat="43.6229" lon="3.41875">
        <ele>204</ele>
        <time>2016-02-21T14:08:58Z</time>
      </trkpt>
      <trkpt lat="43.62288" lon="3.41872">
        <ele>204</ele>
        <time>2016-02-21T14:08:59Z</time>
      </trkpt>
      <trkpt lat="43.62287" lon="3.4187">
        <ele>203.5</ele>
        <time>2016-02-21T14:09:00Z</time>
      </trkpt>
      <trkpt lat="43.62286" lon="3.41868">
        <ele>203.5</ele>
        <time>2016-02-21T14:09:01Z</time>
      </trkpt>
      <trkpt lat="43.62285" lon="3.41867">
        <ele>203</ele>
        <time>2016-02-21T14:09:02Z</time>
      </trkpt>
      <trkpt lat="43.62283" lon="3.41866">
        <ele>203</ele>
        <time>2016-02-21T14:09:03Z</time>
      </trkpt>
      <trkpt lat="43.62281" lon="3.41864">
        <ele>203</ele>
        <time>2016-02-21T14:09:04Z</time>
      </trkpt>
      <trkpt lat="43.62279" lon="3.41864">
        <ele>202</ele>
        <time>2016-02-21T14:09:05Z</time>
      </trkpt>
      <trkpt lat="43.62277" lon="3.41862">
        <ele>201.5</ele>
        <time>2016-02-21T14:09:06Z</time>
      </trkpt>
      <trkpt lat="43.62274" lon="3.41861">
        <ele>201.5</ele>
        <time>2016-02-21T14:09:07Z</time>
      </trkpt>
      <trkpt lat="43.62273" lon="3.4186">
        <ele>202</ele>
        <time>2016-02-21T14:09:08Z</time>
      </trkpt>
      <trkpt lat="43.62271" lon="3.41859">
        <ele>202</ele>
        <time>2016-02-21T14:09:09Z</time>
      </trkpt>
      <trkpt lat="43.62269" lon="3.41858">
        <ele>202.5</ele>
        <time>2016-02-21T14:09:10Z</time>
      </trkpt>
      <trkpt lat="43.62267" lon="3.41856">
        <ele>203</ele>
        <time>2016-02-21T14:09:11Z</time>
      </trkpt>
      <trkpt lat="43.62265" lon="3.41855">
        <ele>203</ele>
        <time>2016-02-21T14:09:12Z</time>
      </trkpt>
      <trkpt lat="43.62262" lon="3.41854">
        <ele>203</ele>
        <time>2016-02-21T14:09:14Z</time>
      </trkpt>
      <trkpt lat="43.6226" lon="3.41853">
        <ele>203.5</ele>
        <time>2016-02-21T14:09:14Z</time>
      </trkpt>
      <trkpt lat="43.62258" lon="3.41852">
        <ele>204.5</ele>
        <time>2016-02-21T14:09:15Z</time>
      </trkpt>
      <trkpt lat="43.62256" lon="3.41851">
        <ele>205.5</ele>
        <time>2016-02-21T14:09:16Z</time>
      </trkpt>
      <trkpt lat="43.62254" lon="3.41849">
        <ele>205.5</ele>
        <time>2016-02-21T14:09:17Z</time>
      </trkpt>
      <trkpt lat="43.62247" lon="3.41848">
        <ele>205.5</ele>
        <time>2016-02-21T14:09:19Z</time>
      </trkpt>
      <trkpt lat="43.62246" lon="3.41846">
        <ele>206</ele>
        <time>2016-02-21T14:09:20Z</time>
      </trkpt>
      <trkpt lat="43.62245" lon="3.41844">
        <ele>205.5</ele>
        <time>2016-02-21T14:09:21Z</time>
      </trkpt>
      <trkpt lat="43.62244" lon="3.41841">
        <ele>206</ele>
        <time>2016-02-21T14:09:22Z</time>
      </trkpt>
      <trkpt lat="43.62242" lon="3.4184">
        <ele>206</ele>
        <time>2016-02-21T14:09:23Z</time>
      </trkpt>
      <trkpt lat="43.62241" lon="3.41837">
        <ele>206</ele>
        <time>2016-02-21T14:09:24Z</time>
      </trkpt>
      <trkpt lat="43.62239" lon="3.41836">
        <ele>206.5</ele>
        <time>2016-02-21T14:09:25Z</time>
      </trkpt>
      <trkpt lat="43.62237" lon="3.41835">
        <ele>206.5</ele>
        <time>2016-02-21T14:09:26Z</time>
      </trkpt>
      <trkpt lat="43.62235" lon="3.41835">
        <ele>207.5</ele>
        <time>2016-02-21T14:09:27Z</time>
      </trkpt>
      <trkpt lat="43.62234" lon="3.41835">
        <ele>207.5</ele>
        <time>2016-02-21T14:09:28Z</time>
      </trkpt>
      <trkpt lat="43.62231" lon="3.41835">
        <ele>209</ele>
        <time>2016-02-21T14:09:29Z</time>
      </trkpt>
      <trkpt lat="43.6223" lon="3.41835">
        <ele>209</ele>
        <time>2016-02-21T14:09:30Z</time>
      </trkpt>
      <trkpt lat="43.62228" lon="3.41834">
        <ele>209</ele>
        <time>2016-02-21T14:09:31Z</time>
      </trkpt>
      <trkpt lat="43.62226" lon="3.41834">
        <ele>209</ele>
        <time>2016-02-21T14:09:32Z</time>
      </trkpt>
      <trkpt lat="43.62224" lon="3.41833">
        <ele>209</ele>
        <time>2016-02-21T14:09:33Z</time>
      </trkpt>
      <trkpt lat="43.62223" lon="3.41831">
        <ele>209.5</ele>
        <time>2016-02-21T14:09:34Z</time>
      </trkpt>
      <trkpt lat="43.62222" lon="3.41829">
        <ele>209.5</ele>
        <time>2016-02-21T14:09:35Z</time>
      </trkpt>
      <trkpt lat="43.62221" lon="3.41827">
        <ele>209.5</ele>
        <time>2016-02-21T14:09:36Z</time>
      </trkpt>
      <trkpt lat="43.6222" lon="3.41826">
        <ele>209.5</ele>
        <time>2016-02-21T14:09:37Z</time>
      </trkpt>
      <trkpt lat="43.62218" lon="3.41825">
        <ele>209.5</ele>
        <time>2016-02-21T14:09:38Z</time>
      </trkpt>
      <trkpt lat="43.62217" lon="3.41824">
        <ele>209.5</ele>
        <time>2016-02-21T14:09:39Z</time>
      </trkpt>
      <trkpt lat="43.62215" lon="3.41822">
        <ele>209.5</ele>
        <time>2016-02-21T14:09:40Z</time>
      </trkpt>
      <trkpt lat="43.62213" lon="3.41821">
        <ele>209.5</ele>
        <time>2016-02-21T14:09:41Z</time>
      </trkpt>
      <trkpt lat="43.62211" lon="3.41819">
        <ele>209.5</ele>
        <time>2016-02-21T14:09:42Z</time>
      </trkpt>
      <trkpt lat="43.6221" lon="3.41818">
        <ele>209.5</ele>
        <time>2016-02-21T14:09:43Z</time>
      </trkpt>
      <trkpt lat="43.62207" lon="3.41818">
        <ele>210</ele>
        <time>2016-02-21T14:09:44Z</time>
      </trkpt>
      <trkpt lat="43.62205" lon="3.41818">
        <ele>210</ele>
        <time>2016-02-21T14:09:45Z</time>
      </trkpt>
      <trkpt lat="43.62203" lon="3.41816">
        <ele>210</ele>
        <time>2016-02-21T14:09:46Z</time>
      </trkpt>
      <trkpt lat="43.62201" lon="3.41814">
        <ele>210</ele>
        <time>2016-02-21T14:09:47Z</time>
      </trkpt>
      <trkpt lat="43.62199" lon="3.41813">
        <ele>210.5</ele>
        <time>2016-02-21T14:09:48Z</time>
      </trkpt>
      <trkpt lat="43.62197" lon="3.41813">
        <ele>211</ele>
        <time>2016-02-21T14:09:49Z</time>
      </trkpt>
      <trkpt lat="43.62195" lon="3.41812">
        <ele>211</ele>
        <time>2016-02-21T14:09:50Z</time>
      </trkpt>
      <trkpt lat="43.62194" lon="3.41811">
        <ele>211.5</ele>
        <time>2016-02-21T14:09:51Z</time>
      </trkpt>
      <trkpt lat="43.62192" lon="3.4181">
        <ele>212</ele>
        <time>2016-02-21T14:09:52Z</time>
      </trkpt>
      <trkpt lat="43.6219" lon="3.41809">
        <ele>212</ele>
        <time>2016-02-21T14:09:53Z</time>
      </trkpt>
      <trkpt lat="43.62188" lon="3.41808">
        <ele>212.5</ele>
        <time>2016-02-21T14:09:54Z</time>
      </trkpt>
      <trkpt lat="43.62187" lon="3.41807">
        <ele>212.5</ele>
        <time>2016-02-21T14:09:55Z</time>
      </trkpt>
      <trkpt lat="43.62185" lon="3.41805">
        <ele>212.5</ele>
        <time>2016-02-21T14:09:56Z</time>
      </trkpt>
      <trkpt lat="43.62184" lon="3.41804">
        <ele>213</ele>
        <time>2016-02-21T14:09:57Z</time>
      </trkpt>
      <trkpt lat="43.62182" lon="3.41803">
        <ele>213</ele>
        <time>2016-02-21T14:09:58Z</time>
      </trkpt>
      <trkpt lat="43.6218" lon="3.41802">
        <ele>213.5</ele>
        <time>2016-02-21T14:09:59Z</time>
      </trkpt>
      <trkpt lat="43.62178" lon="3.418">
        <ele>213.5</ele>
        <time>2016-02-21T14:10:00Z</time>
      </trkpt>
      <trkpt lat="43.62177" lon="3.41799">
        <ele>214</ele>
        <time>2016-02-21T14:10:01Z</time>
      </trkpt>
      <trkpt lat="43.62175" lon="3.41797">
        <ele>214</ele>
        <time>2016-02-21T14:10:02Z</time>
      </trkpt>
      <trkpt lat="43.62174" lon="3.41796">
        <ele>214.5</ele>
        <time>2016-02-21T14:10:03Z</time>
      </trkpt>
      <trkpt lat="43.62172" lon="3.41795">
        <ele>215</ele>
        <time>2016-02-21T14:10:04Z</time>
      </trkpt>
      <trkpt lat="43.6217" lon="3.41794">
        <ele>215.5</ele>
        <time>2016-02-21T14:10:05Z</time>
      </trkpt>
      <trkpt lat="43.62168" lon="3.41793">
        <ele>216</ele>
        <time>2016-02-21T14:10:06Z</time>
      </trkpt>
      <trkpt lat="43.62167" lon="3.41791">
        <ele>216.5</ele>
        <time>2016-02-21T14:10:07Z</time>
      </trkpt>
      <trkpt lat="43.62165" lon="3.41789">
        <ele>216.5</ele>
        <time>2016-02-21T14:10:08Z</time>
      </trkpt>
      <trkpt lat="43.62163" lon="3.41789">
        <ele>216</ele>
        <time>2016-02-21T14:10:09Z</time>
      </trkpt>
      <trkpt lat="43.62161" lon="3.41788">
        <ele>215.5</ele>
        <time>2016-02-21T14:10:10Z</time>
      </trkpt>
      <trkpt lat="43.62162" lon="3.41785">
        <ele>216</ele>
        <time>2016-02-21T14:10:11Z</time>
      </trkpt>
      <trkpt lat="43.6216" lon="3.41783">
        <ele>216</ele>
        <time>2016-02-21T14:10:12Z</time>
      </trkpt>
      <trkpt lat="43.62159" lon="3.41781">
        <ele>216.5</ele>
        <time>2016-02-21T14:10:13Z</time>
      </trkpt>
      <trkpt lat="43.62158" lon="3.4178">
        <ele>217</ele>
        <time>2016-02-21T14:10:14Z</time>
      </trkpt>
      <trkpt lat="43.62157" lon="3.41778">
        <ele>217.5</ele>
        <time>2016-02-21T14:10:15Z</time>
      </trkpt>
      <trkpt lat="43.62155" lon="3.41776">
        <ele>217.5</ele>
        <time>2016-02-21T14:10:16Z</time>
      </trkpt>
      <trkpt lat="43.62153" lon="3.41774">
        <ele>217.5</ele>
        <time>2016-02-21T14:10:17Z</time>
      </trkpt>
      <trkpt lat="43.62152" lon="3.41772">
        <ele>218</ele>
        <time>2016-02-21T14:10:18Z</time>
      </trkpt>
      <trkpt lat="43.6215" lon="3.4177">
        <ele>218</ele>
        <time>2016-02-21T14:10:19Z</time>
      </trkpt>
      <trkpt lat="43.62148" lon="3.41768">
        <ele>218.5</ele>
        <time>2016-02-21T14:10:20Z</time>
      </trkpt>
      <trkpt lat="43.62146" lon="3.41767">
        <ele>219</ele>
        <time>2016-02-21T14:10:21Z</time>
      </trkpt>
      <trkpt lat="43.62144" lon="3.41765">
        <ele>219</ele>
        <time>2016-02-21T14:10:22Z</time>
      </trkpt>
      <trkpt lat="43.62143" lon="3.41763">
        <ele>219</ele>
        <time>2016-02-21T14:10:23Z</time>
      </trkpt>
      <trkpt lat="43.62141" lon="3.41761">
        <ele>219</ele>
        <time>2016-02-21T14:10:24Z</time>
      </trkpt>
      <trkpt lat="43.62139" lon="3.41759">
        <ele>219.5</ele>
        <time>2016-02-21T14:10:25Z</time>
      </trkpt>
      <trkpt lat="43.62137" lon="3.41758">
        <ele>220</ele>
        <time>2016-02-21T14:10:26Z</time>
      </trkpt>
      <trkpt lat="43.62136" lon="3.41756">
        <ele>220.5</ele>
        <time>2016-02-21T14:10:27Z</time>
      </trkpt>
      <trkpt lat="43.62134" lon="3.41754">
        <ele>221</ele>
        <time>2016-02-21T14:10:28Z</time>
      </trkpt>
      <trkpt lat="43.62132" lon="3.41752">
        <ele>221.5</ele>
        <time>2016-02-21T14:10:29Z</time>
      </trkpt>
      <trkpt lat="43.6213" lon="3.4175">
        <ele>221.5</ele>
        <time>2016-02-21T14:10:30Z</time>
      </trkpt>
      <trkpt lat="43.62128" lon="3.41748">
        <ele>222</ele>
        <time>2016-02-21T14:10:31Z</time>
      </trkpt>
      <trkpt lat="43.62125" lon="3.41746">
        <ele>222.5</ele>
        <time>2016-02-21T14:10:32Z</time>
      </trkpt>
      <trkpt lat="43.62124" lon="3.41744">
        <ele>223</ele>
        <time>2016-02-21T14:10:33Z</time>
      </trkpt>
      <trkpt lat="43.62121" lon="3.41742">
        <ele>223</ele>
        <time>2016-02-21T14:10:34Z</time>
      </trkpt>
      <trkpt lat="43.62119" lon="3.41739">
        <ele>223</ele>
        <time>2016-02-21T14:10:35Z</time>
      </trkpt>
      <trkpt lat="43.62117" lon="3.41737">
        <ele>223</ele>
        <time>2016-02-21T14:10:36Z</time>
      </trkpt>
      <trkpt lat="43.62114" lon="3.41735">
        <ele>223.5</ele>
        <time>2016-02-21T14:10:37Z</time>
      </trkpt>
      <trkpt lat="43.62112" lon="3.41733">
        <ele>223.5</ele>
        <time>2016-02-21T14:10:38Z</time>
      </trkpt>
      <trkpt lat="43.62109" lon="3.41731">
        <ele>223.5</ele>
        <time>2016-02-21T14:10:39Z</time>
      </trkpt>
      <trkpt lat="43.62107" lon="3.41728">
        <ele>223</ele>
        <time>2016-02-21T14:10:40Z</time>
      </trkpt>
      <trkpt lat="43.62105" lon="3.41725">
        <ele>223</ele>
        <time>2016-02-21T14:10:41Z</time>
      </trkpt>
      <trkpt lat="43.62102" lon="3.41722">
        <ele>223</ele>
        <time>2016-02-21T14:10:42Z</time>
      </trkpt>
      <trkpt lat="43.621" lon="3.41719">
        <ele>223</ele>
        <time>2016-02-21T14:10:43Z</time>
      </trkpt>
      <trkpt lat="43.62097" lon="3.41716">
        <ele>223.5</ele>
        <time>2016-02-21T14:10:44Z</time>
      </trkpt>
      <trkpt lat="43.62094" lon="3.41714">
        <ele>223.5</ele>
        <time>2016-02-21T14:10:45Z</time>
      </trkpt>
      <trkpt lat="43.62092" lon="3.41711">
        <ele>223.5</ele>
        <time>2016-02-21T14:10:46Z</time>
      </trkpt>
      <trkpt lat="43.62089" lon="3.41708">
        <ele>223.5</ele>
        <time>2016-02-21T14:10:47Z</time>
      </trkpt>
      <trkpt lat="43.62087" lon="3.41705">
        <ele>223.5</ele>
        <time>2016-02-21T14:10:48Z</time>
      </trkpt>
      <trkpt lat="43.62084" lon="3.41704">
        <ele>224.5</ele>
        <time>2016-02-21T14:10:49Z</time>
      </trkpt>
      <trkpt lat="43.62081" lon="3.41701">
        <ele>224.5</ele>
        <time>2016-02-21T14:10:50Z</time>
      </trkpt>
      <trkpt lat="43.62079" lon="3.41698">
        <ele>225</ele>
        <time>2016-02-21T14:10:51Z</time>
      </trkpt>
      <trkpt lat="43.62076" lon="3.41696">
        <ele>225</ele>
        <time>2016-02-21T14:10:52Z</time>
      </trkpt>
      <trkpt lat="43.62074" lon="3.41693">
        <ele>225.5</ele>
        <time>2016-02-21T14:10:53Z</time>
      </trkpt>
      <trkpt lat="43.62072" lon="3.41691">
        <ele>225.5</ele>
        <time>2016-02-21T14:10:54Z</time>
      </trkpt>
      <trkpt lat="43.62069" lon="3.41688">
        <ele>225.5</ele>
        <time>2016-02-21T14:10:55Z</time>
      </trkpt>
      <trkpt lat="43.62067" lon="3.41685">
        <ele>225.5</ele>
        <time>2016-02-21T14:10:56Z</time>
      </trkpt>
      <trkpt lat="43.62064" lon="3.41683">
        <ele>225.5</ele>
        <time>2016-02-21T14:10:57Z</time>
      </trkpt>
      <trkpt lat="43.62062" lon="3.41681">
        <ele>226</ele>
        <time>2016-02-21T14:10:58Z</time>
      </trkpt>
      <trkpt lat="43.62059" lon="3.41678">
        <ele>226</ele>
        <time>2016-02-21T14:10:59Z</time>
      </trkpt>
      <trkpt lat="43.62057" lon="3.41675">
        <ele>226</ele>
        <time>2016-02-21T14:11:00Z</time>
      </trkpt>
      <trkpt lat="43.62054" lon="3.41672">
        <ele>226.5</ele>
        <time>2016-02-21T14:11:01Z</time>
      </trkpt>
      <trkpt lat="43.62052" lon="3.41669">
        <ele>226.5</ele>
        <time>2016-02-21T14:11:02Z</time>
      </trkpt>
      <trkpt lat="43.6205" lon="3.41666">
        <ele>226.5</ele>
        <time>2016-02-21T14:11:03Z</time>
      </trkpt>
      <trkpt lat="43.62048" lon="3.41663">
        <ele>226</ele>
        <time>2016-02-21T14:11:04Z</time>
      </trkpt>
      <trkpt lat="43.62046" lon="3.4166">
        <ele>226</ele>
        <time>2016-02-21T14:11:05Z</time>
      </trkpt>
      <trkpt lat="43.62044" lon="3.41657">
        <ele>225</ele>
        <time>2016-02-21T14:11:06Z</time>
      </trkpt>
      <trkpt lat="43.62041" lon="3.41654">
        <ele>225</ele>
        <time>2016-02-21T14:11:07Z</time>
      </trkpt>
      <trkpt lat="43.62039" lon="3.41652">
        <ele>225</ele>
        <time>2016-02-21T14:11:08Z</time>
      </trkpt>
      <trkpt lat="43.62036" lon="3.4165">
        <ele>225</ele>
        <time>2016-02-21T14:11:09Z</time>
      </trkpt>
      <trkpt lat="43.62033" lon="3.41648">
        <ele>225.5</ele>
        <time>2016-02-21T14:11:10Z</time>
      </trkpt>
      <trkpt lat="43.62031" lon="3.41646">
        <ele>226</ele>
        <time>2016-02-21T14:11:11Z</time>
      </trkpt>
      <trkpt lat="43.62028" lon="3.41643">
        <ele>226.5</ele>
        <time>2016-02-21T14:11:12Z</time>
      </trkpt>
      <trkpt lat="43.62025" lon="3.41642">
        <ele>227.5</ele>
        <time>2016-02-21T14:11:13Z</time>
      </trkpt>
      <trkpt lat="43.62023" lon="3.41639">
        <ele>227.5</ele>
        <time>2016-02-21T14:11:14Z</time>
      </trkpt>
      <trkpt lat="43.62021" lon="3.41636">
        <ele>227.5</ele>
        <time>2016-02-21T14:11:15Z</time>
      </trkpt>
      <trkpt lat="43.62019" lon="3.41633">
        <ele>227.5</ele>
        <time>2016-02-21T14:11:16Z</time>
      </trkpt>
      <trkpt lat="43.62017" lon="3.41631">
        <ele>227.5</ele>
        <time>2016-02-21T14:11:17Z</time>
      </trkpt>
      <trkpt lat="43.62015" lon="3.41628">
        <ele>227.5</ele>
        <time>2016-02-21T14:11:18Z</time>
      </trkpt>
      <trkpt lat="43.62013" lon="3.41624">
        <ele>227.5</ele>
        <time>2016-02-21T14:11:19Z</time>
      </trkpt>
      <trkpt lat="43.62011" lon="3.41622">
        <ele>228.5</ele>
        <time>2016-02-21T14:11:20Z</time>
      </trkpt>
      <trkpt lat="43.62009" lon="3.4162">
        <ele>228</ele>
        <time>2016-02-21T14:11:21Z</time>
      </trkpt>
      <trkpt lat="43.62007" lon="3.41617">
        <ele>228.5</ele>
        <time>2016-02-21T14:11:22Z</time>
      </trkpt>
      <trkpt lat="43.62005" lon="3.41614">
        <ele>228.5</ele>
        <time>2016-02-21T14:11:23Z</time>
      </trkpt>
      <trkpt lat="43.62003" lon="3.41611">
        <ele>228.5</ele>
        <time>2016-02-21T14:11:24Z</time>
      </trkpt>
      <trkpt lat="43.62002" lon="3.41608">
        <ele>228</ele>
        <time>2016-02-21T14:11:25Z</time>
      </trkpt>
      <trkpt lat="43.62" lon="3.41605">
        <ele>228</ele>
        <time>2016-02-21T14:11:26Z</time>
      </trkpt>
      <trkpt lat="43.61999" lon="3.41602">
        <ele>228</ele>
        <time>2016-02-21T14:11:27Z</time>
      </trkpt>
      <trkpt lat="43.61997" lon="3.41599">
        <ele>228</ele>
        <time>2016-02-21T14:11:28Z</time>
      </trkpt>
      <trkpt lat="43.61995" lon="3.41596">
        <ele>228</ele>
        <time>2016-02-21T14:11:29Z</time>
      </trkpt>
      <trkpt lat="43.61993" lon="3.41593">
        <ele>228</ele>
        <time>2016-02-21T14:11:30Z</time>
      </trkpt>
      <trkpt lat="43.61992" lon="3.41589">
        <ele>227.5</ele>
        <time>2016-02-21T14:11:31Z</time>
      </trkpt>
      <trkpt lat="43.61991" lon="3.41586">
        <ele>227.5</ele>
        <time>2016-02-21T14:11:32Z</time>
      </trkpt>
      <trkpt lat="43.6199" lon="3.41583">
        <ele>227.5</ele>
        <time>2016-02-21T14:11:33Z</time>
      </trkpt>
      <trkpt lat="43.61988" lon="3.4158">
        <ele>227.5</ele>
        <time>2016-02-21T14:11:34Z</time>
      </trkpt>
      <trkpt lat="43.61986" lon="3.41578">
        <ele>227.5</ele>
        <time>2016-02-21T14:11:35Z</time>
      </trkpt>
      <trkpt lat="43.61984" lon="3.41575">
        <ele>228</ele>
        <time>2016-02-21T14:11:36Z</time>
      </trkpt>
      <trkpt lat="43.61982" lon="3.41573">
        <ele>228</ele>
        <time>2016-02-21T14:11:37Z</time>
      </trkpt>
      <trkpt lat="43.6198" lon="3.4157">
        <ele>227.5</ele>
        <time>2016-02-21T14:11:38Z</time>
      </trkpt>
      <trkpt lat="43.61977" lon="3.41568">
        <ele>227.5</ele>
        <time>2016-02-21T14:11:39Z</time>
      </trkpt>
      <trkpt lat="43.61976" lon="3.41565">
        <ele>227.5</ele>
        <time>2016-02-21T14:11:40Z</time>
      </trkpt>
      <trkpt lat="43.61973" lon="3.41563">
        <ele>227</ele>
        <time>2016-02-21T14:11:41Z</time>
      </trkpt>
      <trkpt lat="43.61971" lon="3.41561">
        <ele>227</ele>
        <time>2016-02-21T14:11:42Z</time>
      </trkpt>
      <trkpt lat="43.61971" lon="3.41558">
        <ele>228.5</ele>
        <time>2016-02-21T14:11:43Z</time>
      </trkpt>
      <trkpt lat="43.61969" lon="3.41555">
        <ele>228</ele>
        <time>2016-02-21T14:11:44Z</time>
      </trkpt>
      <trkpt lat="43.61967" lon="3.41553">
        <ele>228.5</ele>
        <time>2016-02-21T14:11:45Z</time>
      </trkpt>
      <trkpt lat="43.61965" lon="3.4155">
        <ele>228.5</ele>
        <time>2016-02-21T14:11:46Z</time>
      </trkpt>
      <trkpt lat="43.61963" lon="3.41548">
        <ele>228</ele>
        <time>2016-02-21T14:11:47Z</time>
      </trkpt>
      <trkpt lat="43.61961" lon="3.41546">
        <ele>228.5</ele>
        <time>2016-02-21T14:11:48Z</time>
      </trkpt>
      <trkpt lat="43.61959" lon="3.41544">
        <ele>228.5</ele>
        <time>2016-02-21T14:11:49Z</time>
      </trkpt>
      <trkpt lat="43.61957" lon="3.41541">
        <ele>228.5</ele>
        <time>2016-02-21T14:11:50Z</time>
      </trkpt>
      <trkpt lat="43.61955" lon="3.41538">
        <ele>229</ele>
        <time>2016-02-21T14:11:51Z</time>
      </trkpt>
      <trkpt lat="43.61953" lon="3.41536">
        <ele>229</ele>
        <time>2016-02-21T14:11:52Z</time>
      </trkpt>
      <trkpt lat="43.61953" lon="3.41532">
        <ele>228.5</ele>
        <time>2016-02-21T14:11:53Z</time>
      </trkpt>
      <trkpt lat="43.6195" lon="3.4153">
        <ele>229</ele>
        <time>2016-02-21T14:11:54Z</time>
      </trkpt>
      <trkpt lat="43.61948" lon="3.41529">
        <ele>229.5</ele>
        <time>2016-02-21T14:11:54Z</time>
      </trkpt>
      <trkpt lat="43.61946" lon="3.41527">
        <ele>229.5</ele>
        <time>2016-02-21T14:11:56Z</time>
      </trkpt>
      <trkpt lat="43.61945" lon="3.41524">
        <ele>230</ele>
        <time>2016-02-21T14:11:56Z</time>
      </trkpt>
      <trkpt lat="43.61943" lon="3.41522">
        <ele>229.5</ele>
        <time>2016-02-21T14:11:57Z</time>
      </trkpt>
      <trkpt lat="43.6194" lon="3.4152">
        <ele>230</ele>
        <time>2016-02-21T14:11:58Z</time>
      </trkpt>
      <trkpt lat="43.61938" lon="3.41519">
        <ele>230.5</ele>
        <time>2016-02-21T14:11:59Z</time>
      </trkpt>
      <trkpt lat="43.61936" lon="3.41518">
        <ele>231.5</ele>
        <time>2016-02-21T14:12:00Z</time>
      </trkpt>
      <trkpt lat="43.61934" lon="3.41516">
        <ele>231.5</ele>
        <time>2016-02-21T14:12:01Z</time>
      </trkpt>
      <trkpt lat="43.61932" lon="3.41515">
        <ele>231</ele>
        <time>2016-02-21T14:12:02Z</time>
      </trkpt>
      <trkpt lat="43.6193" lon="3.41514">
        <ele>231.5</ele>
        <time>2016-02-21T14:12:03Z</time>
      </trkpt>
      <trkpt lat="43.61925" lon="3.41511">
        <ele>231.5</ele>
        <time>2016-02-21T14:12:06Z</time>
      </trkpt>
      <trkpt lat="43.61924" lon="3.41508">
        <ele>231</ele>
        <time>2016-02-21T14:12:06Z</time>
      </trkpt>
      <trkpt lat="43.61922" lon="3.41506">
        <ele>231</ele>
        <time>2016-02-21T14:12:07Z</time>
      </trkpt>
      <trkpt lat="43.6192" lon="3.41505">
        <ele>231.5</ele>
        <time>2016-02-21T14:12:08Z</time>
      </trkpt>
      <trkpt lat="43.61918" lon="3.41504">
        <ele>232</ele>
        <time>2016-02-21T14:12:09Z</time>
      </trkpt>
      <trkpt lat="43.61916" lon="3.41503">
        <ele>232.5</ele>
        <time>2016-02-21T14:12:10Z</time>
      </trkpt>
      <trkpt lat="43.61914" lon="3.41502">
        <ele>233</ele>
        <time>2016-02-21T14:12:11Z</time>
      </trkpt>
      <trkpt lat="43.61912" lon="3.41501">
        <ele>233</ele>
        <time>2016-02-21T14:12:13Z</time>
      </trkpt>
      <trkpt lat="43.61909" lon="3.41501">
        <ele>233.5</ele>
        <time>2016-02-21T14:12:13Z</time>
      </trkpt>
      <trkpt lat="43.61907" lon="3.41501">
        <ele>234</ele>
        <time>2016-02-21T14:12:15Z</time>
      </trkpt>
      <trkpt lat="43.61901" lon="3.41503">
        <ele>233.5</ele>
        <time>2016-02-21T14:12:16Z</time>
      </trkpt>
      <trkpt lat="43.619" lon="3.41506">
        <ele>234.5</ele>
        <time>2016-02-21T14:12:17Z</time>
      </trkpt>
      <trkpt lat="43.61899" lon="3.41509">
        <ele>235</ele>
        <time>2016-02-21T14:12:18Z</time>
      </trkpt>
      <trkpt lat="43.61898" lon="3.41513">
        <ele>236</ele>
        <time>2016-02-21T14:12:19Z</time>
      </trkpt>
      <trkpt lat="43.61897" lon="3.41515">
        <ele>237</ele>
        <time>2016-02-21T14:12:20Z</time>
      </trkpt>
      <trkpt lat="43.61896" lon="3.41518">
        <ele>238</ele>
        <time>2016-02-21T14:12:21Z</time>
      </trkpt>
      <trkpt lat="43.61896" lon="3.41519">
        <ele>240</ele>
        <time>2016-02-21T14:12:22Z</time>
      </trkpt>
      <trkpt lat="43.61894" lon="3.4152">
        <ele>240</ele>
        <time>2016-02-21T14:12:23Z</time>
      </trkpt>
      <trkpt lat="43.61893" lon="3.41522">
        <ele>240</ele>
        <time>2016-02-21T14:12:24Z</time>
      </trkpt>
      <trkpt lat="43.61892" lon="3.41523">
        <ele>240</ele>
        <time>2016-02-21T14:12:25Z</time>
      </trkpt>
      <trkpt lat="43.61889" lon="3.41526">
        <ele>240</ele>
        <time>2016-02-21T14:12:26Z</time>
      </trkpt>
      <trkpt lat="43.61887" lon="3.41529">
        <ele>240</ele>
        <time>2016-02-21T14:12:28Z</time>
      </trkpt>
      <trkpt lat="43.61886" lon="3.41531">
        <ele>240</ele>
        <time>2016-02-21T14:12:29Z</time>
      </trkpt>
      <trkpt lat="43.61885" lon="3.41533">
        <ele>240.5</ele>
        <time>2016-02-21T14:12:29Z</time>
      </trkpt>
      <trkpt lat="43.61884" lon="3.41535">
        <ele>240.5</ele>
        <time>2016-02-21T14:12:30Z</time>
      </trkpt>
      <trkpt lat="43.61884" lon="3.41537">
        <ele>241.5</ele>
        <time>2016-02-21T14:12:31Z</time>
      </trkpt>
      <trkpt lat="43.61885" lon="3.4154">
        <ele>242</ele>
        <time>2016-02-21T14:12:32Z</time>
      </trkpt>
      <trkpt lat="43.61885" lon="3.41542">
        <ele>242</ele>
        <time>2016-02-21T14:12:33Z</time>
      </trkpt>
      <trkpt lat="43.61885" lon="3.41545">
        <ele>241.5</ele>
        <time>2016-02-21T14:12:34Z</time>
      </trkpt>
      <trkpt lat="43.61885" lon="3.41547">
        <ele>241.5</ele>
        <time>2016-02-21T14:12:35Z</time>
      </trkpt>
      <trkpt lat="43.61885" lon="3.4155">
        <ele>241</ele>
        <time>2016-02-21T14:12:36Z</time>
      </trkpt>
      <trkpt lat="43.61885" lon="3.41553">
        <ele>241</ele>
        <time>2016-02-21T14:12:37Z</time>
      </trkpt>
      <trkpt lat="43.61885" lon="3.41556">
        <ele>241.5</ele>
        <time>2016-02-21T14:12:38Z</time>
      </trkpt>
      <trkpt lat="43.61886" lon="3.41559">
        <ele>241</ele>
        <time>2016-02-21T14:12:39Z</time>
      </trkpt>
      <trkpt lat="43.61886" lon="3.41561">
        <ele>241</ele>
        <time>2016-02-21T14:12:40Z</time>
      </trkpt>
      <trkpt lat="43.61886" lon="3.41564">
        <ele>241</ele>
        <time>2016-02-21T14:12:41Z</time>
      </trkpt>
      <trkpt lat="43.61887" lon="3.41567">
        <ele>241.5</ele>
        <time>2016-02-21T14:12:42Z</time>
      </trkpt>
      <trkpt lat="43.61887" lon="3.41569">
        <ele>241.5</ele>
        <time>2016-02-21T14:12:43Z</time>
      </trkpt>
      <trkpt lat="43.61887" lon="3.41571">
        <ele>241.5</ele>
        <time>2016-02-21T14:12:44Z</time>
      </trkpt>
      <trkpt lat="43.61888" lon="3.41573">
        <ele>241.5</ele>
        <time>2016-02-21T14:12:45Z</time>
      </trkpt>
      <trkpt lat="43.61888" lon="3.41575">
        <ele>242</ele>
        <time>2016-02-21T14:12:47Z</time>
      </trkpt>
      <trkpt lat="43.61889" lon="3.41579">
        <ele>241.5</ele>
        <time>2016-02-21T14:12:47Z</time>
      </trkpt>
      <trkpt lat="43.6189" lon="3.41582">
        <ele>241.5</ele>
        <time>2016-02-21T14:12:48Z</time>
      </trkpt>
      <trkpt lat="43.61892" lon="3.41585">
        <ele>241.5</ele>
        <time>2016-02-21T14:12:49Z</time>
      </trkpt>
      <trkpt lat="43.61893" lon="3.41588">
        <ele>242</ele>
        <time>2016-02-21T14:12:50Z</time>
      </trkpt>
      <trkpt lat="43.61894" lon="3.4159">
        <ele>242</ele>
        <time>2016-02-21T14:12:51Z</time>
      </trkpt>
      <trkpt lat="43.61896" lon="3.41593">
        <ele>242.5</ele>
        <time>2016-02-21T14:12:52Z</time>
      </trkpt>
      <trkpt lat="43.61898" lon="3.41595">
        <ele>242.5</ele>
        <time>2016-02-21T14:12:53Z</time>
      </trkpt>
      <trkpt lat="43.61899" lon="3.41598">
        <ele>242.5</ele>
        <time>2016-02-21T14:12:54Z</time>
      </trkpt>
      <trkpt lat="43.61901" lon="3.41602">
        <ele>242.5</ele>
        <time>2016-02-21T14:12:55Z</time>
      </trkpt>
      <trkpt lat="43.61902" lon="3.41605">
        <ele>243</ele>
        <time>2016-02-21T14:12:56Z</time>
      </trkpt>
      <trkpt lat="43.61902" lon="3.41609">
        <ele>243</ele>
        <time>2016-02-21T14:12:57Z</time>
      </trkpt>
      <trkpt lat="43.61902" lon="3.41612">
        <ele>243.5</ele>
        <time>2016-02-21T14:12:58Z</time>
      </trkpt>
      <trkpt lat="43.61901" lon="3.41615">
        <ele>243.5</ele>
        <time>2016-02-21T14:12:59Z</time>
      </trkpt>
      <trkpt lat="43.619" lon="3.41617">
        <ele>243.5</ele>
        <time>2016-02-21T14:13:00Z</time>
      </trkpt>
      <trkpt lat="43.61898" lon="3.41618">
        <ele>243</ele>
        <time>2016-02-21T14:13:01Z</time>
      </trkpt>
      <trkpt lat="43.61897" lon="3.41619">
        <ele>243</ele>
        <time>2016-02-21T14:13:02Z</time>
      </trkpt>
      <trkpt lat="43.61894" lon="3.41618">
        <ele>243</ele>
        <time>2016-02-21T14:13:03Z</time>
      </trkpt>
      <trkpt lat="43.61893" lon="3.41617">
        <ele>243.5</ele>
        <time>2016-02-21T14:13:04Z</time>
      </trkpt>
      <trkpt lat="43.61891" lon="3.41616">
        <ele>243.5</ele>
        <time>2016-02-21T14:13:05Z</time>
      </trkpt>
      <trkpt lat="43.61889" lon="3.41614">
        <ele>244</ele>
        <time>2016-02-21T14:13:06Z</time>
      </trkpt>
      <trkpt lat="43.61888" lon="3.41612">
        <ele>244</ele>
        <time>2016-02-21T14:13:07Z</time>
      </trkpt>
      <trkpt lat="43.61886" lon="3.4161">
        <ele>244</ele>
        <time>2016-02-21T14:13:08Z</time>
      </trkpt>
      <trkpt lat="43.61885" lon="3.41608">
        <ele>245</ele>
        <time>2016-02-21T14:13:09Z</time>
      </trkpt>
      <trkpt lat="43.61883" lon="3.41607">
        <ele>245.5</ele>
        <time>2016-02-21T14:13:10Z</time>
      </trkpt>
      <trkpt lat="43.61881" lon="3.41605">
        <ele>245.5</ele>
        <time>2016-02-21T14:13:11Z</time>
      </trkpt>
      <trkpt lat="43.61879" lon="3.41602">
        <ele>245</ele>
        <time>2016-02-21T14:13:12Z</time>
      </trkpt>
      <trkpt lat="43.61877" lon="3.416">
        <ele>245.5</ele>
        <time>2016-02-21T14:13:13Z</time>
      </trkpt>
      <trkpt lat="43.61874" lon="3.41599">
        <ele>246.5</ele>
        <time>2016-02-21T14:13:14Z</time>
      </trkpt>
      <trkpt lat="43.61872" lon="3.41597">
        <ele>246</ele>
        <time>2016-02-21T14:13:15Z</time>
      </trkpt>
      <trkpt lat="43.6187" lon="3.41595">
        <ele>246</ele>
        <time>2016-02-21T14:13:16Z</time>
      </trkpt>
      <trkpt lat="43.61868" lon="3.41593">
        <ele>245</ele>
        <time>2016-02-21T14:13:17Z</time>
      </trkpt>
      <trkpt lat="43.61866" lon="3.41591">
        <ele>244.5</ele>
        <time>2016-02-21T14:13:18Z</time>
      </trkpt>
      <trkpt lat="43.61864" lon="3.41589">
        <ele>244</ele>
        <time>2016-02-21T14:13:19Z</time>
      </trkpt>
      <trkpt lat="43.61863" lon="3.41587">
        <ele>243</ele>
        <time>2016-02-21T14:13:20Z</time>
      </trkpt>
      <trkpt lat="43.61861" lon="3.41585">
        <ele>243.5</ele>
        <time>2016-02-21T14:13:21Z</time>
      </trkpt>
      <trkpt lat="43.61859" lon="3.41582">
        <ele>243</ele>
        <time>2016-02-21T14:13:22Z</time>
      </trkpt>
      <trkpt lat="43.61858" lon="3.41581">
        <ele>243</ele>
        <time>2016-02-21T14:13:23Z</time>
      </trkpt>
      <trkpt lat="43.61856" lon="3.4158">
        <ele>243</ele>
        <time>2016-02-21T14:13:24Z</time>
      </trkpt>
      <trkpt lat="43.61855" lon="3.4158">
        <ele>242.5</ele>
        <time>2016-02-21T14:13:25Z</time>
      </trkpt>
      <trkpt lat="43.61853" lon="3.41582">
        <ele>244</ele>
        <time>2016-02-21T14:13:26Z</time>
      </trkpt>
      <trkpt lat="43.61851" lon="3.41584">
        <ele>243.5</ele>
        <time>2016-02-21T14:13:27Z</time>
      </trkpt>
      <trkpt lat="43.6185" lon="3.41586">
        <ele>243</ele>
        <time>2016-02-21T14:13:28Z</time>
      </trkpt>
      <trkpt lat="43.61851" lon="3.41589">
        <ele>242.5</ele>
        <time>2016-02-21T14:13:29Z</time>
      </trkpt>
      <trkpt lat="43.61853" lon="3.4159">
        <ele>242</ele>
        <time>2016-02-21T14:13:30Z</time>
      </trkpt>
      <trkpt lat="43.61854" lon="3.41591">
        <ele>242.5</ele>
        <time>2016-02-21T14:13:31Z</time>
      </trkpt>
      <trkpt lat="43.61856" lon="3.41593">
        <ele>243</ele>
        <time>2016-02-21T14:13:32Z</time>
      </trkpt>
      <trkpt lat="43.61858" lon="3.41595">
        <ele>243</ele>
        <time>2016-02-21T14:13:33Z</time>
      </trkpt>
      <trkpt lat="43.6186" lon="3.41598">
        <ele>244</ele>
        <time>2016-02-21T14:13:34Z</time>
      </trkpt>
      <trkpt lat="43.61862" lon="3.41601">
        <ele>242.5</ele>
        <time>2016-02-21T14:13:35Z</time>
      </trkpt>
      <trkpt lat="43.61863" lon="3.41605">
        <ele>245</ele>
        <time>2016-02-21T14:13:37Z</time>
      </trkpt>
      <trkpt lat="43.61865" lon="3.41606">
        <ele>246</ele>
        <time>2016-02-21T14:13:38Z</time>
      </trkpt>
      <trkpt lat="43.61866" lon="3.41609">
        <ele>246</ele>
        <time>2016-02-21T14:13:39Z</time>
      </trkpt>
      <trkpt lat="43.61867" lon="3.41612">
        <ele>246</ele>
        <time>2016-02-21T14:13:40Z</time>
      </trkpt>
      <trkpt lat="43.61867" lon="3.41615">
        <ele>246.5</ele>
        <time>2016-02-21T14:13:41Z</time>
      </trkpt>
      <trkpt lat="43.61868" lon="3.41618">
        <ele>246.5</ele>
        <time>2016-02-21T14:13:42Z</time>
      </trkpt>
      <trkpt lat="43.61869" lon="3.41621">
        <ele>246.5</ele>
        <time>2016-02-21T14:13:43Z</time>
      </trkpt>
      <trkpt lat="43.6187" lon="3.41623">
        <ele>247</ele>
        <time>2016-02-21T14:13:44Z</time>
      </trkpt>
      <trkpt lat="43.61871" lon="3.41625">
        <ele>247</ele>
        <time>2016-02-21T14:13:45Z</time>
      </trkpt>
      <trkpt lat="43.61873" lon="3.41626">
        <ele>247.5</ele>
        <time>2016-02-21T14:13:46Z</time>
      </trkpt>
      <trkpt lat="43.61874" lon="3.41629">
        <ele>247.5</ele>
        <time>2016-02-21T14:13:47Z</time>
      </trkpt>
      <trkpt lat="43.61875" lon="3.41631">
        <ele>247.5</ele>
        <time>2016-02-21T14:13:48Z</time>
      </trkpt>
      <trkpt lat="43.61875" lon="3.41634">
        <ele>247</ele>
        <time>2016-02-21T14:13:49Z</time>
      </trkpt>
      <trkpt lat="43.61876" lon="3.41636">
        <ele>247</ele>
        <time>2016-02-21T14:13:50Z</time>
      </trkpt>
      <trkpt lat="43.61877" lon="3.41639">
        <ele>247</ele>
        <time>2016-02-21T14:13:51Z</time>
      </trkpt>
      <trkpt lat="43.61879" lon="3.41641">
        <ele>247</ele>
        <time>2016-02-21T14:13:52Z</time>
      </trkpt>
      <trkpt lat="43.6188" lon="3.41643">
        <ele>246.5</ele>
        <time>2016-02-21T14:13:53Z</time>
      </trkpt>
      <trkpt lat="43.61881" lon="3.41645">
        <ele>246.5</ele>
        <time>2016-02-21T14:13:54Z</time>
      </trkpt>
      <trkpt lat="43.61883" lon="3.41648">
        <ele>246.5</ele>
        <time>2016-02-21T14:13:55Z</time>
      </trkpt>
      <trkpt lat="43.61885" lon="3.41647">
        <ele>246.5</ele>
        <time>2016-02-21T14:13:56Z</time>
      </trkpt>
      <trkpt lat="43.61886" lon="3.4165">
        <ele>246</ele>
        <time>2016-02-21T14:13:57Z</time>
      </trkpt>
      <trkpt lat="43.61887" lon="3.41652">
        <ele>246</ele>
        <time>2016-02-21T14:13:58Z</time>
      </trkpt>
      <trkpt lat="43.61889" lon="3.41653">
        <ele>246.5</ele>
        <time>2016-02-21T14:13:59Z</time>
      </trkpt>
      <trkpt lat="43.6189" lon="3.41654">
        <ele>247.5</ele>
        <time>2016-02-21T14:14:00Z</time>
      </trkpt>
      <trkpt lat="43.61891" lon="3.41656">
        <ele>247.5</ele>
        <time>2016-02-21T14:14:01Z</time>
      </trkpt>
      <trkpt lat="43.61893" lon="3.41658">
        <ele>248</ele>
        <time>2016-02-21T14:14:02Z</time>
      </trkpt>
      <trkpt lat="43.61895" lon="3.41661">
        <ele>248</ele>
        <time>2016-02-21T14:14:03Z</time>
      </trkpt>
      <trkpt lat="43.61897" lon="3.41665">
        <ele>248.5</ele>
        <time>2016-02-21T14:14:04Z</time>
      </trkpt>
      <trkpt lat="43.61899" lon="3.41668">
        <ele>248.5</ele>
        <time>2016-02-21T14:14:05Z</time>
      </trkpt>
      <trkpt lat="43.61901" lon="3.4167">
        <ele>249</ele>
        <time>2016-02-21T14:14:06Z</time>
      </trkpt>
      <trkpt lat="43.61903" lon="3.41673">
        <ele>249</ele>
        <time>2016-02-21T14:14:07Z</time>
      </trkpt>
      <trkpt lat="43.61905" lon="3.41676">
        <ele>249</ele>
        <time>2016-02-21T14:14:08Z</time>
      </trkpt>
      <trkpt lat="43.61907" lon="3.41678">
        <ele>248.5</ele>
        <time>2016-02-21T14:14:09Z</time>
      </trkpt>
      <trkpt lat="43.61908" lon="3.4168">
        <ele>248.5</ele>
        <time>2016-02-21T14:14:10Z</time>
      </trkpt>
      <trkpt lat="43.6191" lon="3.41683">
        <ele>248</ele>
        <time>2016-02-21T14:14:11Z</time>
      </trkpt>
      <trkpt lat="43.61912" lon="3.41686">
        <ele>248</ele>
        <time>2016-02-21T14:14:12Z</time>
      </trkpt>
      <trkpt lat="43.61914" lon="3.41687">
        <ele>248.5</ele>
        <time>2016-02-21T14:14:13Z</time>
      </trkpt>
      <trkpt lat="43.61917" lon="3.41689">
        <ele>248.5</ele>
        <time>2016-02-21T14:14:14Z</time>
      </trkpt>
      <trkpt lat="43.61919" lon="3.41693">
        <ele>247.5</ele>
        <time>2016-02-21T14:14:15Z</time>
      </trkpt>
      <trkpt lat="43.6192" lon="3.41695">
        <ele>247</ele>
        <time>2016-02-21T14:14:16Z</time>
      </trkpt>
      <trkpt lat="43.61922" lon="3.41698">
        <ele>247.5</ele>
        <time>2016-02-21T14:14:17Z</time>
      </trkpt>
      <trkpt lat="43.61923" lon="3.417">
        <ele>248</ele>
        <time>2016-02-21T14:14:18Z</time>
      </trkpt>
      <trkpt lat="43.61924" lon="3.41703">
        <ele>248</ele>
        <time>2016-02-21T14:14:19Z</time>
      </trkpt>
      <trkpt lat="43.61926" lon="3.41705">
        <ele>248.5</ele>
        <time>2016-02-21T14:14:20Z</time>
      </trkpt>
      <trkpt lat="43.61927" lon="3.41707">
        <ele>249</ele>
        <time>2016-02-21T14:14:21Z</time>
      </trkpt>
      <trkpt lat="43.61929" lon="3.41708">
        <ele>249</ele>
        <time>2016-02-21T14:14:22Z</time>
      </trkpt>
      <trkpt lat="43.6193" lon="3.4171">
        <ele>249.5</ele>
        <time>2016-02-21T14:14:23Z</time>
      </trkpt>
      <trkpt lat="43.61931" lon="3.41712">
        <ele>249.5</ele>
        <time>2016-02-21T14:14:24Z</time>
      </trkpt>
      <trkpt lat="43.61932" lon="3.41714">
        <ele>250</ele>
        <time>2016-02-21T14:14:25Z</time>
      </trkpt>
      <trkpt lat="43.61934" lon="3.41716">
        <ele>251</ele>
        <time>2016-02-21T14:14:26Z</time>
      </trkpt>
      <trkpt lat="43.61936" lon="3.41719">
        <ele>252</ele>
        <time>2016-02-21T14:14:27Z</time>
      </trkpt>
      <trkpt lat="43.61937" lon="3.41723">
        <ele>251</ele>
        <time>2016-02-21T14:14:28Z</time>
      </trkpt>
      <trkpt lat="43.61939" lon="3.41724">
        <ele>251.5</ele>
        <time>2016-02-21T14:14:29Z</time>
      </trkpt>
      <trkpt lat="43.6194" lon="3.41726">
        <ele>252</ele>
        <time>2016-02-21T14:14:30Z</time>
      </trkpt>
      <trkpt lat="43.61942" lon="3.41727">
        <ele>252.5</ele>
        <time>2016-02-21T14:14:31Z</time>
      </trkpt>
      <trkpt lat="43.61943" lon="3.4173">
        <ele>252.5</ele>
        <time>2016-02-21T14:14:32Z</time>
      </trkpt>
      <trkpt lat="43.61944" lon="3.41731">
        <ele>253</ele>
        <time>2016-02-21T14:14:33Z</time>
      </trkpt>
      <trkpt lat="43.61945" lon="3.41733">
        <ele>253.5</ele>
        <time>2016-02-21T14:14:34Z</time>
      </trkpt>
      <trkpt lat="43.61947" lon="3.41736">
        <ele>253.5</ele>
        <time>2016-02-21T14:14:35Z</time>
      </trkpt>
      <trkpt lat="43.61948" lon="3.41738">
        <ele>253.5</ele>
        <time>2016-02-21T14:14:36Z</time>
      </trkpt>
      <trkpt lat="43.61949" lon="3.4174">
        <ele>254</ele>
        <time>2016-02-21T14:14:37Z</time>
      </trkpt>
      <trkpt lat="43.61951" lon="3.41742">
        <ele>254.5</ele>
        <time>2016-02-21T14:14:38Z</time>
      </trkpt>
      <trkpt lat="43.61952" lon="3.41745">
        <ele>254.5</ele>
        <time>2016-02-21T14:14:39Z</time>
      </trkpt>
      <trkpt lat="43.61953" lon="3.41747">
        <ele>255</ele>
        <time>2016-02-21T14:14:40Z</time>
      </trkpt>
      <trkpt lat="43.61955" lon="3.41749">
        <ele>255</ele>
        <time>2016-02-21T14:14:41Z</time>
      </trkpt>
      <trkpt lat="43.61956" lon="3.41751">
        <ele>255.5</ele>
        <time>2016-02-21T14:14:42Z</time>
      </trkpt>
      <trkpt lat="43.61957" lon="3.41753">
        <ele>256</ele>
        <time>2016-02-21T14:14:43Z</time>
      </trkpt>
      <trkpt lat="43.61959" lon="3.41756">
        <ele>256.5</ele>
        <time>2016-02-21T14:14:44Z</time>
      </trkpt>
      <trkpt lat="43.6196" lon="3.41758">
        <ele>256.5</ele>
        <time>2016-02-21T14:14:45Z</time>
      </trkpt>
      <trkpt lat="43.61961" lon="3.41761">
        <ele>256.5</ele>
        <time>2016-02-21T14:14:46Z</time>
      </trkpt>
      <trkpt lat="43.61963" lon="3.41763">
        <ele>256.5</ele>
        <time>2016-02-21T14:14:47Z</time>
      </trkpt>
      <trkpt lat="43.61964" lon="3.41766">
        <ele>257</ele>
        <time>2016-02-21T14:14:48Z</time>
      </trkpt>
      <trkpt lat="43.61966" lon="3.41768">
        <ele>257</ele>
        <time>2016-02-21T14:14:49Z</time>
      </trkpt>
      <trkpt lat="43.61967" lon="3.41771">
        <ele>257</ele>
        <time>2016-02-21T14:14:50Z</time>
      </trkpt>
      <trkpt lat="43.61968" lon="3.41773">
        <ele>257.5</ele>
        <time>2016-02-21T14:14:51Z</time>
      </trkpt>
      <trkpt lat="43.61969" lon="3.41776">
        <ele>257.5</ele>
        <time>2016-02-21T14:14:52Z</time>
      </trkpt>
      <trkpt lat="43.61971" lon="3.41778">
        <ele>257.5</ele>
        <time>2016-02-21T14:14:53Z</time>
      </trkpt>
      <trkpt lat="43.61972" lon="3.41781">
        <ele>258</ele>
        <time>2016-02-21T14:14:54Z</time>
      </trkpt>
      <trkpt lat="43.61973" lon="3.41784">
        <ele>258</ele>
        <time>2016-02-21T14:14:55Z</time>
      </trkpt>
      <trkpt lat="43.61974" lon="3.41786">
        <ele>258</ele>
        <time>2016-02-21T14:14:56Z</time>
      </trkpt>
      <trkpt lat="43.61976" lon="3.41789">
        <ele>258.5</ele>
        <time>2016-02-21T14:14:57Z</time>
      </trkpt>
      <trkpt lat="43.61977" lon="3.41792">
        <ele>258.5</ele>
        <time>2016-02-21T14:14:58Z</time>
      </trkpt>
      <trkpt lat="43.61978" lon="3.41795">
        <ele>258.5</ele>
        <time>2016-02-21T14:14:59Z</time>
      </trkpt>
      <trkpt lat="43.6198" lon="3.41797">
        <ele>259</ele>
        <time>2016-02-21T14:15:00Z</time>
      </trkpt>
      <trkpt lat="43.61981" lon="3.418">
        <ele>258.5</ele>
        <time>2016-02-21T14:15:01Z</time>
      </trkpt>
      <trkpt lat="43.61982" lon="3.41803">
        <ele>259</ele>
        <time>2016-02-21T14:15:02Z</time>
      </trkpt>
      <trkpt lat="43.61984" lon="3.41805">
        <ele>259.5</ele>
        <time>2016-02-21T14:15:03Z</time>
      </trkpt>
      <trkpt lat="43.61985" lon="3.41808">
        <ele>259.5</ele>
        <time>2016-02-21T14:15:04Z</time>
      </trkpt>
      <trkpt lat="43.61986" lon="3.4181">
        <ele>260</ele>
        <time>2016-02-21T14:15:05Z</time>
      </trkpt>
      <trkpt lat="43.61988" lon="3.41812">
        <ele>260.5</ele>
        <time>2016-02-21T14:15:06Z</time>
      </trkpt>
      <trkpt lat="43.61989" lon="3.41814">
        <ele>260.5</ele>
        <time>2016-02-21T14:15:07Z</time>
      </trkpt>
      <trkpt lat="43.6199" lon="3.41817">
        <ele>261</ele>
        <time>2016-02-21T14:15:08Z</time>
      </trkpt>
      <trkpt lat="43.61991" lon="3.41819">
        <ele>261</ele>
        <time>2016-02-21T14:15:09Z</time>
      </trkpt>
      <trkpt lat="43.61993" lon="3.41822">
        <ele>261</ele>
        <time>2016-02-21T14:15:10Z</time>
      </trkpt>
      <trkpt lat="43.61995" lon="3.41826">
        <ele>261.5</ele>
        <time>2016-02-21T14:15:11Z</time>
      </trkpt>
      <trkpt lat="43.61996" lon="3.41829">
        <ele>261.5</ele>
        <time>2016-02-21T14:15:12Z</time>
      </trkpt>
      <trkpt lat="43.61998" lon="3.41832">
        <ele>262</ele>
        <time>2016-02-21T14:15:13Z</time>
      </trkpt>
      <trkpt lat="43.61999" lon="3.41834">
        <ele>262.5</ele>
        <time>2016-02-21T14:15:14Z</time>
      </trkpt>
      <trkpt lat="43.62" lon="3.41837">
        <ele>262.5</ele>
        <time>2016-02-21T14:15:15Z</time>
      </trkpt>
      <trkpt lat="43.62001" lon="3.41839">
        <ele>263</ele>
        <time>2016-02-21T14:15:16Z</time>
      </trkpt>
      <trkpt lat="43.62002" lon="3.41842">
        <ele>263</ele>
        <time>2016-02-21T14:15:17Z</time>
      </trkpt>
      <trkpt lat="43.62003" lon="3.41845">
        <ele>263</ele>
        <time>2016-02-21T14:15:18Z</time>
      </trkpt>
      <trkpt lat="43.62004" lon="3.41847">
        <ele>263.5</ele>
        <time>2016-02-21T14:15:19Z</time>
      </trkpt>
      <trkpt lat="43.62005" lon="3.41848">
        <ele>264.5</ele>
        <time>2016-02-21T14:15:19Z</time>
      </trkpt>
      <trkpt lat="43.62006" lon="3.41851">
        <ele>265.5</ele>
        <time>2016-02-21T14:15:20Z</time>
      </trkpt>
      <trkpt lat="43.62007" lon="3.41854">
        <ele>266</ele>
        <time>2016-02-21T14:15:21Z</time>
      </trkpt>
      <trkpt lat="43.62008" lon="3.41857">
        <ele>266</ele>
        <time>2016-02-21T14:15:22Z</time>
      </trkpt>
      <trkpt lat="43.62008" lon="3.41861">
        <ele>266</ele>
        <time>2016-02-21T14:15:23Z</time>
      </trkpt>
      <trkpt lat="43.62009" lon="3.41864">
        <ele>265.5</ele>
        <time>2016-02-21T14:15:25Z</time>
      </trkpt>
      <trkpt lat="43.62009" lon="3.41867">
        <ele>265.5</ele>
        <time>2016-02-21T14:15:25Z</time>
      </trkpt>
      <trkpt lat="43.62009" lon="3.41871">
        <ele>265.5</ele>
        <time>2016-02-21T14:15:26Z</time>
      </trkpt>
      <trkpt lat="43.62009" lon="3.41874">
        <ele>265.5</ele>
        <time>2016-02-21T14:15:27Z</time>
      </trkpt>
      <trkpt lat="43.62008" lon="3.41878">
        <ele>265</ele>
        <time>2016-02-21T14:15:28Z</time>
      </trkpt>
      <trkpt lat="43.62008" lon="3.41881">
        <ele>265</ele>
        <time>2016-02-21T14:15:29Z</time>
      </trkpt>
      <trkpt lat="43.62007" lon="3.41884">
        <ele>265</ele>
        <time>2016-02-21T14:15:31Z</time>
      </trkpt>
      <trkpt lat="43.62006" lon="3.41887">
        <ele>265.5</ele>
        <time>2016-02-21T14:15:31Z</time>
      </trkpt>
      <trkpt lat="43.62005" lon="3.41891">
        <ele>266</ele>
        <time>2016-02-21T14:15:32Z</time>
      </trkpt>
      <trkpt lat="43.62004" lon="3.41893">
        <ele>266.5</ele>
        <time>2016-02-21T14:15:34Z</time>
      </trkpt>
      <trkpt lat="43.62002" lon="3.41896">
        <ele>266.5</ele>
        <time>2016-02-21T14:15:34Z</time>
      </trkpt>
      <trkpt lat="43.62" lon="3.41899">
        <ele>266.5</ele>
        <time>2016-02-21T14:15:35Z</time>
      </trkpt>
      <trkpt lat="43.61999" lon="3.41901">
        <ele>266.5</ele>
        <time>2016-02-21T14:15:37Z</time>
      </trkpt>
      <trkpt lat="43.61997" lon="3.41903">
        <ele>267</ele>
        <time>2016-02-21T14:15:37Z</time>
      </trkpt>
      <trkpt lat="43.61996" lon="3.41905">
        <ele>267</ele>
        <time>2016-02-21T14:15:39Z</time>
      </trkpt>
      <trkpt lat="43.61994" lon="3.41908">
        <ele>267.5</ele>
        <time>2016-02-21T14:15:39Z</time>
      </trkpt>
      <trkpt lat="43.61993" lon="3.4191">
        <ele>268</ele>
        <time>2016-02-21T14:15:40Z</time>
      </trkpt>
      <trkpt lat="43.61991" lon="3.41911">
        <ele>268</ele>
        <time>2016-02-21T14:15:42Z</time>
      </trkpt>
      <trkpt lat="43.61989" lon="3.41913">
        <ele>268</ele>
        <time>2016-02-21T14:15:42Z</time>
      </trkpt>
      <trkpt lat="43.61986" lon="3.41915">
        <ele>268</ele>
        <time>2016-02-21T14:15:43Z</time>
      </trkpt>
      <trkpt lat="43.61984" lon="3.41917">
        <ele>268</ele>
        <time>2016-02-21T14:15:44Z</time>
      </trkpt>
      <trkpt lat="43.61982" lon="3.41919">
        <ele>269</ele>
        <time>2016-02-21T14:15:45Z</time>
      </trkpt>
      <trkpt lat="43.6198" lon="3.4192">
        <ele>269.5</ele>
        <time>2016-02-21T14:15:47Z</time>
      </trkpt>
      <trkpt lat="43.61977" lon="3.41921">
        <ele>269</ele>
        <time>2016-02-21T14:15:47Z</time>
      </trkpt>
      <trkpt lat="43.61974" lon="3.41924">
        <ele>270.5</ele>
        <time>2016-02-21T14:15:49Z</time>
      </trkpt>
      <trkpt lat="43.61974" lon="3.41925">
        <ele>271</ele>
        <time>2016-02-21T14:15:50Z</time>
      </trkpt>
      <trkpt lat="43.61974" lon="3.41926">
        <ele>272</ele>
        <time>2016-02-21T14:15:51Z</time>
      </trkpt>
      <trkpt lat="43.61977" lon="3.41928">
        <ele>273.5</ele>
        <time>2016-02-21T14:15:52Z</time>
      </trkpt>
      <trkpt lat="43.61977" lon="3.41929">
        <ele>275</ele>
        <time>2016-02-21T14:15:53Z</time>
      </trkpt>
      <trkpt lat="43.61976" lon="3.4193">
        <ele>275.5</ele>
        <time>2016-02-21T14:15:54Z</time>
      </trkpt>
      <trkpt lat="43.61974" lon="3.4193">
        <ele>275.5</ele>
        <time>2016-02-21T14:15:55Z</time>
      </trkpt>
      <trkpt lat="43.61972" lon="3.41932">
        <ele>276.5</ele>
        <time>2016-02-21T14:15:56Z</time>
      </trkpt>
      <trkpt lat="43.61972" lon="3.41934">
        <ele>279</ele>
        <time>2016-02-21T14:15:58Z</time>
      </trkpt>
      <trkpt lat="43.61972" lon="3.41936">
        <ele>280</ele>
        <time>2016-02-21T14:15:59Z</time>
      </trkpt>
      <trkpt lat="43.61971" lon="3.41937">
        <ele>280.5</ele>
        <time>2016-02-21T14:16:00Z</time>
      </trkpt>
      <trkpt lat="43.6197" lon="3.41939">
        <ele>281</ele>
        <time>2016-02-21T14:16:01Z</time>
      </trkpt>
      <trkpt lat="43.61968" lon="3.41941">
        <ele>280.5</ele>
        <time>2016-02-21T14:16:02Z</time>
      </trkpt>
      <trkpt lat="43.61967" lon="3.41943">
        <ele>279</ele>
        <time>2016-02-21T14:16:03Z</time>
      </trkpt>
      <trkpt lat="43.61965" lon="3.41945">
        <ele>278.5</ele>
        <time>2016-02-21T14:16:04Z</time>
      </trkpt>
      <trkpt lat="43.61963" lon="3.41947">
        <ele>278</ele>
        <time>2016-02-21T14:16:05Z</time>
      </trkpt>
      <trkpt lat="43.61963" lon="3.4195">
        <ele>278.5</ele>
        <time>2016-02-21T14:16:06Z</time>
      </trkpt>
      <trkpt lat="43.61963" lon="3.41954">
        <ele>278.5</ele>
        <time>2016-02-21T14:16:07Z</time>
      </trkpt>
      <trkpt lat="43.61962" lon="3.41957">
        <ele>279</ele>
        <time>2016-02-21T14:16:08Z</time>
      </trkpt>
      <trkpt lat="43.61963" lon="3.41959">
        <ele>280.5</ele>
        <time>2016-02-21T14:16:09Z</time>
      </trkpt>
      <trkpt lat="43.61964" lon="3.41961">
        <ele>280.5</ele>
        <time>2016-02-21T14:16:10Z</time>
      </trkpt>
      <trkpt lat="43.61965" lon="3.41963">
        <ele>280.5</ele>
        <time>2016-02-21T14:16:11Z</time>
      </trkpt>
      <trkpt lat="43.61966" lon="3.41965">
        <ele>280.5</ele>
        <time>2016-02-21T14:16:12Z</time>
      </trkpt>
      <trkpt lat="43.61968" lon="3.41967">
        <ele>280.5</ele>
        <time>2016-02-21T14:16:13Z</time>
      </trkpt>
      <trkpt lat="43.6197" lon="3.41969">
        <ele>280.5</ele>
        <time>2016-02-21T14:16:14Z</time>
      </trkpt>
      <trkpt lat="43.61971" lon="3.41971">
        <ele>280.5</ele>
        <time>2016-02-21T14:16:15Z</time>
      </trkpt>
      <trkpt lat="43.61973" lon="3.41974">
        <ele>280.5</ele>
        <time>2016-02-21T14:16:16Z</time>
      </trkpt>
      <trkpt lat="43.61974" lon="3.41976">
        <ele>280.5</ele>
        <time>2016-02-21T14:16:17Z</time>
      </trkpt>
      <trkpt lat="43.61976" lon="3.41976">
        <ele>281.5</ele>
        <time>2016-02-21T14:16:18Z</time>
      </trkpt>
      <trkpt lat="43.61978" lon="3.41977">
        <ele>282</ele>
        <time>2016-02-21T14:16:19Z</time>
      </trkpt>
      <trkpt lat="43.61979" lon="3.41979">
        <ele>281.5</ele>
        <time>2016-02-21T14:16:20Z</time>
      </trkpt>
      <trkpt lat="43.61981" lon="3.41981">
        <ele>281</ele>
        <time>2016-02-21T14:16:21Z</time>
      </trkpt>
      <trkpt lat="43.61983" lon="3.41984">
        <ele>281</ele>
        <time>2016-02-21T14:16:22Z</time>
      </trkpt>
      <trkpt lat="43.61985" lon="3.41986">
        <ele>281</ele>
        <time>2016-02-21T14:16:23Z</time>
      </trkpt>
      <trkpt lat="43.61987" lon="3.41989">
        <ele>281.5</ele>
        <time>2016-02-21T14:16:24Z</time>
      </trkpt>
      <trkpt lat="43.61988" lon="3.41992">
        <ele>281.5</ele>
        <time>2016-02-21T14:16:25Z</time>
      </trkpt>
      <trkpt lat="43.6199" lon="3.41995">
        <ele>281.5</ele>
        <time>2016-02-21T14:16:26Z</time>
      </trkpt>
      <trkpt lat="43.61992" lon="3.41998">
        <ele>281</ele>
        <time>2016-02-21T14:16:27Z</time>
      </trkpt>
      <trkpt lat="43.61993" lon="3.42">
        <ele>281.5</ele>
        <time>2016-02-21T14:16:28Z</time>
      </trkpt>
      <trkpt lat="43.61995" lon="3.42002">
        <ele>281.5</ele>
        <time>2016-02-21T14:16:29Z</time>
      </trkpt>
      <trkpt lat="43.61997" lon="3.42005">
        <ele>281.5</ele>
        <time>2016-02-21T14:16:30Z</time>
      </trkpt>
      <trkpt lat="43.61998" lon="3.42008">
        <ele>282</ele>
        <time>2016-02-21T14:16:31Z</time>
      </trkpt>
      <trkpt lat="43.62" lon="3.4201">
        <ele>282</ele>
        <time>2016-02-21T14:16:32Z</time>
      </trkpt>
      <trkpt lat="43.62002" lon="3.42013">
        <ele>282.5</ele>
        <time>2016-02-21T14:16:33Z</time>
      </trkpt>
      <trkpt lat="43.62004" lon="3.42012">
        <ele>283.5</ele>
        <time>2016-02-21T14:16:34Z</time>
      </trkpt>
      <trkpt lat="43.62006" lon="3.42015">
        <ele>283.5</ele>
        <time>2016-02-21T14:16:35Z</time>
      </trkpt>
      <trkpt lat="43.62007" lon="3.42016">
        <ele>283.5</ele>
        <time>2016-02-21T14:16:36Z</time>
      </trkpt>
      <trkpt lat="43.62009" lon="3.42018">
        <ele>284</ele>
        <time>2016-02-21T14:16:37Z</time>
      </trkpt>
      <trkpt lat="43.62011" lon="3.4202">
        <ele>284</ele>
        <time>2016-02-21T14:16:38Z</time>
      </trkpt>
      <trkpt lat="43.62013" lon="3.42022">
        <ele>284.5</ele>
        <time>2016-02-21T14:16:39Z</time>
      </trkpt>
      <trkpt lat="43.62014" lon="3.42023">
        <ele>284.5</ele>
        <time>2016-02-21T14:16:40Z</time>
      </trkpt>
      <trkpt lat="43.62016" lon="3.42024">
        <ele>285</ele>
        <time>2016-02-21T14:16:41Z</time>
      </trkpt>
      <trkpt lat="43.62017" lon="3.42026">
        <ele>285</ele>
        <time>2016-02-21T14:16:42Z</time>
      </trkpt>
      <trkpt lat="43.62019" lon="3.42027">
        <ele>285</ele>
        <time>2016-02-21T14:16:43Z</time>
      </trkpt>
      <trkpt lat="43.62021" lon="3.42029">
        <ele>284.5</ele>
        <time>2016-02-21T14:16:44Z</time>
      </trkpt>
      <trkpt lat="43.62024" lon="3.42031">
        <ele>284.5</ele>
        <time>2016-02-21T14:16:45Z</time>
      </trkpt>
      <trkpt lat="43.62026" lon="3.42033">
        <ele>285</ele>
        <time>2016-02-21T14:16:46Z</time>
      </trkpt>
      <trkpt lat="43.62028" lon="3.42034">
        <ele>285</ele>
        <time>2016-02-21T14:16:47Z</time>
      </trkpt>
      <trkpt lat="43.6203" lon="3.42035">
        <ele>285.5</ele>
        <time>2016-02-21T14:16:48Z</time>
      </trkpt>
      <trkpt lat="43.62032" lon="3.42036">
        <ele>285.5</ele>
        <time>2016-02-21T14:16:49Z</time>
      </trkpt>
      <trkpt lat="43.62034" lon="3.42038">
        <ele>286</ele>
        <time>2016-02-21T14:16:50Z</time>
      </trkpt>
      <trkpt lat="43.62035" lon="3.42039">
        <ele>286</ele>
        <time>2016-02-21T14:16:51Z</time>
      </trkpt>
      <trkpt lat="43.62037" lon="3.4204">
        <ele>287</ele>
        <time>2016-02-21T14:16:52Z</time>
      </trkpt>
      <trkpt lat="43.6204" lon="3.42041">
        <ele>287</ele>
        <time>2016-02-21T14:16:53Z</time>
      </trkpt>
      <trkpt lat="43.62041" lon="3.42043">
        <ele>287</ele>
        <time>2016-02-21T14:16:54Z</time>
      </trkpt>
      <trkpt lat="43.62044" lon="3.42045">
        <ele>287</ele>
        <time>2016-02-21T14:16:55Z</time>
      </trkpt>
      <trkpt lat="43.62046" lon="3.42047">
        <ele>287</ele>
        <time>2016-02-21T14:16:56Z</time>
      </trkpt>
      <trkpt lat="43.62048" lon="3.42048">
        <ele>287</ele>
        <time>2016-02-21T14:16:57Z</time>
      </trkpt>
      <trkpt lat="43.6205" lon="3.42051">
        <ele>287.5</ele>
        <time>2016-02-21T14:16:58Z</time>
      </trkpt>
      <trkpt lat="43.62052" lon="3.42053">
        <ele>287.5</ele>
        <time>2016-02-21T14:16:59Z</time>
      </trkpt>
      <trkpt lat="43.62054" lon="3.42054">
        <ele>287.5</ele>
        <time>2016-02-21T14:17:00Z</time>
      </trkpt>
      <trkpt lat="43.62057" lon="3.42056">
        <ele>287.5</ele>
        <time>2016-02-21T14:17:01Z</time>
      </trkpt>
      <trkpt lat="43.62059" lon="3.42057">
        <ele>287.5</ele>
        <time>2016-02-21T14:17:02Z</time>
      </trkpt>
      <trkpt lat="43.62062" lon="3.42059">
        <ele>287.5</ele>
        <time>2016-02-21T14:17:04Z</time>
      </trkpt>
      <trkpt lat="43.62065" lon="3.4206">
        <ele>287.5</ele>
        <time>2016-02-21T14:17:05Z</time>
      </trkpt>
      <trkpt lat="43.62067" lon="3.42061">
        <ele>287.5</ele>
        <time>2016-02-21T14:17:06Z</time>
      </trkpt>
      <trkpt lat="43.6207" lon="3.42063">
        <ele>287</ele>
        <time>2016-02-21T14:17:07Z</time>
      </trkpt>
      <trkpt lat="43.62073" lon="3.42065">
        <ele>287.5</ele>
        <time>2016-02-21T14:17:08Z</time>
      </trkpt>
      <trkpt lat="43.62076" lon="3.42066">
        <ele>287.5</ele>
        <time>2016-02-21T14:17:09Z</time>
      </trkpt>
      <trkpt lat="43.62078" lon="3.42067">
        <ele>288</ele>
        <time>2016-02-21T14:17:10Z</time>
      </trkpt>
      <trkpt lat="43.6208" lon="3.42068">
        <ele>288</ele>
        <time>2016-02-21T14:17:11Z</time>
      </trkpt>
      <trkpt lat="43.62082" lon="3.42069">
        <ele>288</ele>
        <time>2016-02-21T14:17:12Z</time>
      </trkpt>
      <trkpt lat="43.62084" lon="3.42071">
        <ele>288.5</ele>
        <time>2016-02-21T14:17:13Z</time>
      </trkpt>
      <trkpt lat="43.62086" lon="3.42072">
        <ele>288.5</ele>
        <time>2016-02-21T14:17:14Z</time>
      </trkpt>
      <trkpt lat="43.62088" lon="3.42073">
        <ele>288.5</ele>
        <time>2016-02-21T14:17:15Z</time>
      </trkpt>
      <trkpt lat="43.6209" lon="3.42076">
        <ele>288</ele>
        <time>2016-02-21T14:17:16Z</time>
      </trkpt>
      <trkpt lat="43.62092" lon="3.42077">
        <ele>288.5</ele>
        <time>2016-02-21T14:17:17Z</time>
      </trkpt>
      <trkpt lat="43.62095" lon="3.42079">
        <ele>288.5</ele>
        <time>2016-02-21T14:17:18Z</time>
      </trkpt>
      <trkpt lat="43.62097" lon="3.4208">
        <ele>289</ele>
        <time>2016-02-21T14:17:19Z</time>
      </trkpt>
      <trkpt lat="43.62099" lon="3.42081">
        <ele>289.5</ele>
        <time>2016-02-21T14:17:20Z</time>
      </trkpt>
      <trkpt lat="43.62101" lon="3.42083">
        <ele>290</ele>
        <time>2016-02-21T14:17:21Z</time>
      </trkpt>
      <trkpt lat="43.62103" lon="3.42086">
        <ele>289.5</ele>
        <time>2016-02-21T14:17:22Z</time>
      </trkpt>
      <trkpt lat="43.62105" lon="3.42088">
        <ele>289.5</ele>
        <time>2016-02-21T14:17:23Z</time>
      </trkpt>
      <trkpt lat="43.62107" lon="3.42092">
        <ele>289.5</ele>
        <time>2016-02-21T14:17:24Z</time>
      </trkpt>
      <trkpt lat="43.62109" lon="3.42095">
        <ele>289</ele>
        <time>2016-02-21T14:17:25Z</time>
      </trkpt>
      <trkpt lat="43.62111" lon="3.42098">
        <ele>289</ele>
        <time>2016-02-21T14:17:26Z</time>
      </trkpt>
      <trkpt lat="43.62113" lon="3.42101">
        <ele>289.5</ele>
        <time>2016-02-21T14:17:27Z</time>
      </trkpt>
      <trkpt lat="43.62115" lon="3.42104">
        <ele>289</ele>
        <time>2016-02-21T14:17:28Z</time>
      </trkpt>
      <trkpt lat="43.62116" lon="3.42107">
        <ele>289</ele>
        <time>2016-02-21T14:17:29Z</time>
      </trkpt>
      <trkpt lat="43.62117" lon="3.4211">
        <ele>289.5</ele>
        <time>2016-02-21T14:17:30Z</time>
      </trkpt>
      <trkpt lat="43.62119" lon="3.42112">
        <ele>290</ele>
        <time>2016-02-21T14:17:31Z</time>
      </trkpt>
      <trkpt lat="43.6212" lon="3.42115">
        <ele>290</ele>
        <time>2016-02-21T14:17:32Z</time>
      </trkpt>
      <trkpt lat="43.62122" lon="3.42118">
        <ele>290.5</ele>
        <time>2016-02-21T14:17:33Z</time>
      </trkpt>
      <trkpt lat="43.62123" lon="3.42121">
        <ele>291</ele>
        <time>2016-02-21T14:17:34Z</time>
      </trkpt>
      <trkpt lat="43.62125" lon="3.42123">
        <ele>291.5</ele>
        <time>2016-02-21T14:17:35Z</time>
      </trkpt>
      <trkpt lat="43.62126" lon="3.42127">
        <ele>292</ele>
        <time>2016-02-21T14:17:36Z</time>
      </trkpt>
      <trkpt lat="43.62127" lon="3.4213">
        <ele>292.5</ele>
        <time>2016-02-21T14:17:37Z</time>
      </trkpt>
      <trkpt lat="43.62127" lon="3.42133">
        <ele>293</ele>
        <time>2016-02-21T14:17:38Z</time>
      </trkpt>
      <trkpt lat="43.62126" lon="3.42135">
        <ele>293.5</ele>
        <time>2016-02-21T14:17:39Z</time>
      </trkpt>
      <trkpt lat="43.62125" lon="3.42136">
        <ele>293.5</ele>
        <time>2016-02-21T14:17:40Z</time>
      </trkpt>
      <trkpt lat="43.62124" lon="3.42137">
        <ele>293.5</ele>
        <time>2016-02-21T14:17:41Z</time>
      </trkpt>
      <trkpt lat="43.62122" lon="3.42137">
        <ele>293.5</ele>
        <time>2016-02-21T14:17:42Z</time>
      </trkpt>
      <trkpt lat="43.62121" lon="3.42136">
        <ele>293</ele>
        <time>2016-02-21T14:17:43Z</time>
      </trkpt>
      <trkpt lat="43.6212" lon="3.42135">
        <ele>294</ele>
        <time>2016-02-21T14:17:44Z</time>
      </trkpt>
      <trkpt lat="43.62118" lon="3.42134">
        <ele>294.5</ele>
        <time>2016-02-21T14:17:45Z</time>
      </trkpt>
      <trkpt lat="43.62117" lon="3.42133">
        <ele>294.5</ele>
        <time>2016-02-21T14:17:46Z</time>
      </trkpt>
      <trkpt lat="43.62114" lon="3.42133">
        <ele>294.5</ele>
        <time>2016-02-21T14:17:47Z</time>
      </trkpt>
      <trkpt lat="43.62113" lon="3.42131">
        <ele>294</ele>
        <time>2016-02-21T14:17:48Z</time>
      </trkpt>
      <trkpt lat="43.62111" lon="3.42131">
        <ele>294</ele>
        <time>2016-02-21T14:17:49Z</time>
      </trkpt>
      <trkpt lat="43.62109" lon="3.4213">
        <ele>294</ele>
        <time>2016-02-21T14:17:50Z</time>
      </trkpt>
      <trkpt lat="43.62107" lon="3.4213">
        <ele>293.5</ele>
        <time>2016-02-21T14:17:51Z</time>
      </trkpt>
      <trkpt lat="43.62107" lon="3.42129">
        <ele>294.5</ele>
        <time>2016-02-21T14:17:52Z</time>
      </trkpt>
      <trkpt lat="43.62105" lon="3.42128">
        <ele>294.5</ele>
        <time>2016-02-21T14:17:53Z</time>
      </trkpt>
      <trkpt lat="43.62104" lon="3.42127">
        <ele>293.5</ele>
        <time>2016-02-21T14:17:54Z</time>
      </trkpt>
      <trkpt lat="43.62102" lon="3.42126">
        <ele>293.5</ele>
        <time>2016-02-21T14:17:55Z</time>
      </trkpt>
      <trkpt lat="43.621" lon="3.42126">
        <ele>292.5</ele>
        <time>2016-02-21T14:17:56Z</time>
      </trkpt>
      <trkpt lat="43.62098" lon="3.42125">
        <ele>292</ele>
        <time>2016-02-21T14:17:57Z</time>
      </trkpt>
      <trkpt lat="43.62096" lon="3.42125">
        <ele>292.5</ele>
        <time>2016-02-21T14:17:58Z</time>
      </trkpt>
      <trkpt lat="43.62094" lon="3.42124">
        <ele>292.5</ele>
        <time>2016-02-21T14:17:59Z</time>
      </trkpt>
      <trkpt lat="43.62092" lon="3.42124">
        <ele>293</ele>
        <time>2016-02-21T14:18:00Z</time>
      </trkpt>
      <trkpt lat="43.62091" lon="3.42123">
        <ele>292.5</ele>
        <time>2016-02-21T14:18:01Z</time>
      </trkpt>
      <trkpt lat="43.62089" lon="3.42123">
        <ele>292.5</ele>
        <time>2016-02-21T14:18:02Z</time>
      </trkpt>
      <trkpt lat="43.62088" lon="3.42122">
        <ele>291.5</ele>
        <time>2016-02-21T14:18:03Z</time>
      </trkpt>
      <trkpt lat="43.62086" lon="3.42122">
        <ele>292</ele>
        <time>2016-02-21T14:18:04Z</time>
      </trkpt>
      <trkpt lat="43.62084" lon="3.42122">
        <ele>291.5</ele>
        <time>2016-02-21T14:18:05Z</time>
      </trkpt>
      <trkpt lat="43.62082" lon="3.42122">
        <ele>291.5</ele>
        <time>2016-02-21T14:18:06Z</time>
      </trkpt>
      <trkpt lat="43.6208" lon="3.42122">
        <ele>291.5</ele>
        <time>2016-02-21T14:18:07Z</time>
      </trkpt>
      <trkpt lat="43.62077" lon="3.42122">
        <ele>291</ele>
        <time>2016-02-21T14:18:08Z</time>
      </trkpt>
      <trkpt lat="43.62075" lon="3.42121">
        <ele>291</ele>
        <time>2016-02-21T14:18:09Z</time>
      </trkpt>
      <trkpt lat="43.62072" lon="3.42122">
        <ele>291.5</ele>
        <time>2016-02-21T14:18:10Z</time>
      </trkpt>
      <trkpt lat="43.62069" lon="3.42123">
        <ele>291.5</ele>
        <time>2016-02-21T14:18:11Z</time>
      </trkpt>
      <trkpt lat="43.62068" lon="3.42121">
        <ele>290</ele>
        <time>2016-02-21T14:18:12Z</time>
      </trkpt>
      <trkpt lat="43.62067" lon="3.42121">
        <ele>289.5</ele>
        <time>2016-02-21T14:18:13Z</time>
      </trkpt>
      <trkpt lat="43.62062" lon="3.42124">
        <ele>290.5</ele>
        <time>2016-02-21T14:18:15Z</time>
      </trkpt>
      <trkpt lat="43.6206" lon="3.42124">
        <ele>291</ele>
        <time>2016-02-21T14:18:16Z</time>
      </trkpt>
      <trkpt lat="43.62057" lon="3.42124">
        <ele>291</ele>
        <time>2016-02-21T14:18:17Z</time>
      </trkpt>
      <trkpt lat="43.62055" lon="3.42125">
        <ele>291.5</ele>
        <time>2016-02-21T14:18:18Z</time>
      </trkpt>
      <trkpt lat="43.62052" lon="3.42125">
        <ele>291.5</ele>
        <time>2016-02-21T14:18:19Z</time>
      </trkpt>
      <trkpt lat="43.6205" lon="3.42126">
        <ele>292</ele>
        <time>2016-02-21T14:18:20Z</time>
      </trkpt>
      <trkpt lat="43.62046" lon="3.42127">
        <ele>291.5</ele>
        <time>2016-02-21T14:18:21Z</time>
      </trkpt>
      <trkpt lat="43.62043" lon="3.42127">
        <ele>293</ele>
        <time>2016-02-21T14:18:23Z</time>
      </trkpt>
      <trkpt lat="43.6204" lon="3.42126">
        <ele>293</ele>
        <time>2016-02-21T14:18:24Z</time>
      </trkpt>
      <trkpt lat="43.62038" lon="3.42126">
        <ele>293.5</ele>
        <time>2016-02-21T14:18:25Z</time>
      </trkpt>
      <trkpt lat="43.62036" lon="3.42126">
        <ele>294</ele>
        <time>2016-02-21T14:18:26Z</time>
      </trkpt>
      <trkpt lat="43.62034" lon="3.42126">
        <ele>294</ele>
        <time>2016-02-21T14:18:27Z</time>
      </trkpt>
      <trkpt lat="43.62032" lon="3.42125">
        <ele>294</ele>
        <time>2016-02-21T14:18:28Z</time>
      </trkpt>
      <trkpt lat="43.6203" lon="3.42125">
        <ele>294</ele>
        <time>2016-02-21T14:18:29Z</time>
      </trkpt>
      <trkpt lat="43.62027" lon="3.42124">
        <ele>294</ele>
        <time>2016-02-21T14:18:30Z</time>
      </trkpt>
      <trkpt lat="43.62025" lon="3.42124">
        <ele>294.5</ele>
        <time>2016-02-21T14:18:31Z</time>
      </trkpt>
      <trkpt lat="43.62022" lon="3.42124">
        <ele>294.5</ele>
        <time>2016-02-21T14:18:32Z</time>
      </trkpt>
      <trkpt lat="43.6202" lon="3.42123">
        <ele>294.5</ele>
        <time>2016-02-21T14:18:33Z</time>
      </trkpt>
      <trkpt lat="43.62016" lon="3.42122">
        <ele>294.5</ele>
        <time>2016-02-21T14:18:34Z</time>
      </trkpt>
      <trkpt lat="43.62013" lon="3.42122">
        <ele>294</ele>
        <time>2016-02-21T14:18:35Z</time>
      </trkpt>
      <trkpt lat="43.6201" lon="3.42121">
        <ele>294.5</ele>
        <time>2016-02-21T14:18:36Z</time>
      </trkpt>
      <trkpt lat="43.62007" lon="3.42121">
        <ele>294.5</ele>
        <time>2016-02-21T14:18:37Z</time>
      </trkpt>
      <trkpt lat="43.62004" lon="3.4212">
        <ele>295</ele>
        <time>2016-02-21T14:18:38Z</time>
      </trkpt>
      <trkpt lat="43.62001" lon="3.42119">
        <ele>295</ele>
        <time>2016-02-21T14:18:39Z</time>
      </trkpt>
      <trkpt lat="43.61998" lon="3.42118">
        <ele>296</ele>
        <time>2016-02-21T14:18:40Z</time>
      </trkpt>
      <trkpt lat="43.61996" lon="3.42118">
        <ele>296.5</ele>
        <time>2016-02-21T14:18:41Z</time>
      </trkpt>
      <trkpt lat="43.61993" lon="3.42117">
        <ele>296</ele>
        <time>2016-02-21T14:18:42Z</time>
      </trkpt>
      <trkpt lat="43.6199" lon="3.42116">
        <ele>296.5</ele>
        <time>2016-02-21T14:18:43Z</time>
      </trkpt>
      <trkpt lat="43.61988" lon="3.42115">
        <ele>297</ele>
        <time>2016-02-21T14:18:44Z</time>
      </trkpt>
      <trkpt lat="43.61985" lon="3.42114">
        <ele>297.5</ele>
        <time>2016-02-21T14:18:45Z</time>
      </trkpt>
      <trkpt lat="43.61982" lon="3.42113">
        <ele>298</ele>
        <time>2016-02-21T14:18:46Z</time>
      </trkpt>
      <trkpt lat="43.6198" lon="3.42112">
        <ele>298</ele>
        <time>2016-02-21T14:18:47Z</time>
      </trkpt>
      <trkpt lat="43.61976" lon="3.42112">
        <ele>298</ele>
        <time>2016-02-21T14:18:48Z</time>
      </trkpt>
      <trkpt lat="43.61974" lon="3.42111">
        <ele>298</ele>
        <time>2016-02-21T14:18:49Z</time>
      </trkpt>
      <trkpt lat="43.61971" lon="3.4211">
        <ele>298.5</ele>
        <time>2016-02-21T14:18:50Z</time>
      </trkpt>
      <trkpt lat="43.61969" lon="3.42109">
        <ele>299</ele>
        <time>2016-02-21T14:18:51Z</time>
      </trkpt>
      <trkpt lat="43.61966" lon="3.42108">
        <ele>299</ele>
        <time>2016-02-21T14:18:51Z</time>
      </trkpt>
      <trkpt lat="43.61963" lon="3.42106">
        <ele>299</ele>
        <time>2016-02-21T14:18:53Z</time>
      </trkpt>
      <trkpt lat="43.61961" lon="3.42104">
        <ele>299</ele>
        <time>2016-02-21T14:18:54Z</time>
      </trkpt>
      <trkpt lat="43.61959" lon="3.42103">
        <ele>299</ele>
        <time>2016-02-21T14:18:55Z</time>
      </trkpt>
      <trkpt lat="43.61956" lon="3.42101">
        <ele>299</ele>
        <time>2016-02-21T14:18:56Z</time>
      </trkpt>
      <trkpt lat="43.61955" lon="3.42099">
        <ele>298.5</ele>
        <time>2016-02-21T14:18:56Z</time>
      </trkpt>
      <trkpt lat="43.61952" lon="3.42097">
        <ele>299.5</ele>
        <time>2016-02-21T14:18:57Z</time>
      </trkpt>
      <trkpt lat="43.61949" lon="3.42096">
        <ele>300</ele>
        <time>2016-02-21T14:18:58Z</time>
      </trkpt>
      <trkpt lat="43.61946" lon="3.42094">
        <ele>301</ele>
        <time>2016-02-21T14:18:59Z</time>
      </trkpt>
      <trkpt lat="43.61944" lon="3.42093">
        <ele>303</ele>
        <time>2016-02-21T14:19:00Z</time>
      </trkpt>
      <trkpt lat="43.61941" lon="3.42091">
        <ele>303.5</ele>
        <time>2016-02-21T14:19:01Z</time>
      </trkpt>
      <trkpt lat="43.61939" lon="3.42089">
        <ele>304</ele>
        <time>2016-02-21T14:19:03Z</time>
      </trkpt>
      <trkpt lat="43.61937" lon="3.42088">
        <ele>305</ele>
        <time>2016-02-21T14:19:03Z</time>
      </trkpt>
      <trkpt lat="43.61934" lon="3.42086">
        <ele>305</ele>
        <time>2016-02-21T14:19:04Z</time>
      </trkpt>
      <trkpt lat="43.61933" lon="3.42084">
        <ele>306.5</ele>
        <time>2016-02-21T14:19:05Z</time>
      </trkpt>
      <trkpt lat="43.61931" lon="3.42082">
        <ele>307.5</ele>
        <time>2016-02-21T14:19:06Z</time>
      </trkpt>
      <trkpt lat="43.61929" lon="3.4208">
        <ele>307.5</ele>
        <time>2016-02-21T14:19:07Z</time>
      </trkpt>
      <trkpt lat="43.61927" lon="3.42078">
        <ele>308.5</ele>
        <time>2016-02-21T14:19:08Z</time>
      </trkpt>
      <trkpt lat="43.61926" lon="3.42076">
        <ele>309</ele>
        <time>2016-02-21T14:19:09Z</time>
      </trkpt>
      <trkpt lat="43.61924" lon="3.42075">
        <ele>309.5</ele>
        <time>2016-02-21T14:19:10Z</time>
      </trkpt>
      <trkpt lat="43.61922" lon="3.42073">
        <ele>310</ele>
        <time>2016-02-21T14:19:11Z</time>
      </trkpt>
      <trkpt lat="43.61922" lon="3.42072">
        <ele>312</ele>
        <time>2016-02-21T14:19:12Z</time>
      </trkpt>
      <trkpt lat="43.61916" lon="3.42068">
        <ele>313.5</ele>
        <time>2016-02-21T14:19:15Z</time>
      </trkpt>
      <trkpt lat="43.61912" lon="3.42066">
        <ele>314.5</ele>
        <time>2016-02-21T14:19:15Z</time>
      </trkpt>
      <trkpt lat="43.61911" lon="3.42063">
        <ele>313.5</ele>
        <time>2016-02-21T14:19:16Z</time>
      </trkpt>
      <trkpt lat="43.61909" lon="3.42062">
        <ele>313.5</ele>
        <time>2016-02-21T14:19:17Z</time>
      </trkpt>
      <trkpt lat="43.61906" lon="3.42061">
        <ele>313.5</ele>
        <time>2016-02-21T14:19:18Z</time>
      </trkpt>
      <trkpt lat="43.61903" lon="3.42059">
        <ele>313.5</ele>
        <time>2016-02-21T14:19:19Z</time>
      </trkpt>
      <trkpt lat="43.61901" lon="3.42058">
        <ele>314</ele>
        <time>2016-02-21T14:19:20Z</time>
      </trkpt>
      <trkpt lat="43.61898" lon="3.42056">
        <ele>314</ele>
        <time>2016-02-21T14:19:21Z</time>
      </trkpt>
      <trkpt lat="43.61895" lon="3.42055">
        <ele>314</ele>
        <time>2016-02-21T14:19:23Z</time>
      </trkpt>
      <trkpt lat="43.61893" lon="3.42054">
        <ele>314.5</ele>
        <time>2016-02-21T14:19:24Z</time>
      </trkpt>
      <trkpt lat="43.6189" lon="3.42052">
        <ele>314.5</ele>
        <time>2016-02-21T14:19:24Z</time>
      </trkpt>
      <trkpt lat="43.61888" lon="3.4205">
        <ele>314.5</ele>
        <time>2016-02-21T14:19:25Z</time>
      </trkpt>
      <trkpt lat="43.61886" lon="3.42049">
        <ele>314.5</ele>
        <time>2016-02-21T14:19:26Z</time>
      </trkpt>
      <trkpt lat="43.61883" lon="3.42047">
        <ele>314.5</ele>
        <time>2016-02-21T14:19:27Z</time>
      </trkpt>
      <trkpt lat="43.61881" lon="3.42045">
        <ele>315</ele>
        <time>2016-02-21T14:19:28Z</time>
      </trkpt>
      <trkpt lat="43.61879" lon="3.42043">
        <ele>315.5</ele>
        <time>2016-02-21T14:19:30Z</time>
      </trkpt>
      <trkpt lat="43.61877" lon="3.42041">
        <ele>315.5</ele>
        <time>2016-02-21T14:19:30Z</time>
      </trkpt>
      <trkpt lat="43.61875" lon="3.42039">
        <ele>316</ele>
        <time>2016-02-21T14:19:32Z</time>
      </trkpt>
      <trkpt lat="43.61873" lon="3.42037">
        <ele>316</ele>
        <time>2016-02-21T14:19:32Z</time>
      </trkpt>
      <trkpt lat="43.61871" lon="3.42035">
        <ele>316.5</ele>
        <time>2016-02-21T14:19:33Z</time>
      </trkpt>
      <trkpt lat="43.61869" lon="3.42033">
        <ele>317</ele>
        <time>2016-02-21T14:19:34Z</time>
      </trkpt>
      <trkpt lat="43.61863" lon="3.42029">
        <ele>316</ele>
        <time>2016-02-21T14:19:36Z</time>
      </trkpt>
      <trkpt lat="43.61861" lon="3.42026">
        <ele>316</ele>
        <time>2016-02-21T14:19:37Z</time>
      </trkpt>
      <trkpt lat="43.61859" lon="3.42024">
        <ele>316.5</ele>
        <time>2016-02-21T14:19:38Z</time>
      </trkpt>
      <trkpt lat="43.61859" lon="3.42023">
        <ele>318</ele>
        <time>2016-02-21T14:19:39Z</time>
      </trkpt>
      <trkpt lat="43.61857" lon="3.42022">
        <ele>318.5</ele>
        <time>2016-02-21T14:19:40Z</time>
      </trkpt>
      <trkpt lat="43.61856" lon="3.4202">
        <ele>318.5</ele>
        <time>2016-02-21T14:19:41Z</time>
      </trkpt>
      <trkpt lat="43.61856" lon="3.42019">
        <ele>320</ele>
        <time>2016-02-21T14:19:42Z</time>
      </trkpt>
      <trkpt lat="43.6185" lon="3.42015">
        <ele>319.5</ele>
        <time>2016-02-21T14:19:44Z</time>
      </trkpt>
      <trkpt lat="43.61846" lon="3.42013">
        <ele>319</ele>
        <time>2016-02-21T14:19:45Z</time>
      </trkpt>
      <trkpt lat="43.61844" lon="3.42011">
        <ele>319.5</ele>
        <time>2016-02-21T14:19:46Z</time>
      </trkpt>
      <trkpt lat="43.61842" lon="3.42009">
        <ele>319</ele>
        <time>2016-02-21T14:19:47Z</time>
      </trkpt>
      <trkpt lat="43.61839" lon="3.42007">
        <ele>319.5</ele>
        <time>2016-02-21T14:19:48Z</time>
      </trkpt>
      <trkpt lat="43.61836" lon="3.42005">
        <ele>319</ele>
        <time>2016-02-21T14:19:49Z</time>
      </trkpt>
      <trkpt lat="43.61833" lon="3.42003">
        <ele>318.5</ele>
        <time>2016-02-21T14:19:50Z</time>
      </trkpt>
      <trkpt lat="43.61831" lon="3.42001">
        <ele>318</ele>
        <time>2016-02-21T14:19:51Z</time>
      </trkpt>
      <trkpt lat="43.61828" lon="3.41999">
        <ele>318</ele>
        <time>2016-02-21T14:19:52Z</time>
      </trkpt>
      <trkpt lat="43.61827" lon="3.41997">
        <ele>318</ele>
        <time>2016-02-21T14:19:53Z</time>
      </trkpt>
      <trkpt lat="43.61824" lon="3.41995">
        <ele>318</ele>
        <time>2016-02-21T14:19:54Z</time>
      </trkpt>
      <trkpt lat="43.61823" lon="3.41993">
        <ele>318.5</ele>
        <time>2016-02-21T14:19:55Z</time>
      </trkpt>
      <trkpt lat="43.61822" lon="3.41988">
        <ele>317</ele>
        <time>2016-02-21T14:19:56Z</time>
      </trkpt>
      <trkpt lat="43.6182" lon="3.41986">
        <ele>317.5</ele>
        <time>2016-02-21T14:19:57Z</time>
      </trkpt>
      <trkpt lat="43.6182" lon="3.41984">
        <ele>319.5</ele>
        <time>2016-02-21T14:19:58Z</time>
      </trkpt>
      <trkpt lat="43.61818" lon="3.41982">
        <ele>320</ele>
        <time>2016-02-21T14:19:59Z</time>
      </trkpt>
      <trkpt lat="43.61817" lon="3.41979">
        <ele>321</ele>
        <time>2016-02-21T14:20:00Z</time>
      </trkpt>
      <trkpt lat="43.61815" lon="3.41976">
        <ele>322</ele>
        <time>2016-02-21T14:20:01Z</time>
      </trkpt>
      <trkpt lat="43.61814" lon="3.41974">
        <ele>322.5</ele>
        <time>2016-02-21T14:20:02Z</time>
      </trkpt>
      <trkpt lat="43.61813" lon="3.41971">
        <ele>323.5</ele>
        <time>2016-02-21T14:20:03Z</time>
      </trkpt>
      <trkpt lat="43.61812" lon="3.41968">
        <ele>323.5</ele>
        <time>2016-02-21T14:20:04Z</time>
      </trkpt>
      <trkpt lat="43.61812" lon="3.41965">
        <ele>322.5</ele>
        <time>2016-02-21T14:20:05Z</time>
      </trkpt>
      <trkpt lat="43.61812" lon="3.41962">
        <ele>320.5</ele>
        <time>2016-02-21T14:20:06Z</time>
      </trkpt>
      <trkpt lat="43.61812" lon="3.41958">
        <ele>321.5</ele>
        <time>2016-02-21T14:20:07Z</time>
      </trkpt>
      <trkpt lat="43.61812" lon="3.41955">
        <ele>322.5</ele>
        <time>2016-02-21T14:20:08Z</time>
      </trkpt>
      <trkpt lat="43.61812" lon="3.41952">
        <ele>322</ele>
        <time>2016-02-21T14:20:09Z</time>
      </trkpt>
      <trkpt lat="43.61811" lon="3.41949">
        <ele>322.5</ele>
        <time>2016-02-21T14:20:10Z</time>
      </trkpt>
      <trkpt lat="43.61811" lon="3.41946">
        <ele>322.5</ele>
        <time>2016-02-21T14:20:11Z</time>
      </trkpt>
      <trkpt lat="43.61811" lon="3.41942">
        <ele>322.5</ele>
        <time>2016-02-21T14:20:12Z</time>
      </trkpt>
      <trkpt lat="43.61812" lon="3.41938">
        <ele>322</ele>
        <time>2016-02-21T14:20:13Z</time>
      </trkpt>
      <trkpt lat="43.61811" lon="3.41934">
        <ele>323</ele>
        <time>2016-02-21T14:20:14Z</time>
      </trkpt>
      <trkpt lat="43.61812" lon="3.41931">
        <ele>322.5</ele>
        <time>2016-02-21T14:20:15Z</time>
      </trkpt>
      <trkpt lat="43.61812" lon="3.41927">
        <ele>322.5</ele>
        <time>2016-02-21T14:20:16Z</time>
      </trkpt>
      <trkpt lat="43.61812" lon="3.41924">
        <ele>322.5</ele>
        <time>2016-02-21T14:20:17Z</time>
      </trkpt>
      <trkpt lat="43.61813" lon="3.4192">
        <ele>322</ele>
        <time>2016-02-21T14:20:18Z</time>
      </trkpt>
      <trkpt lat="43.61813" lon="3.41917">
        <ele>323</ele>
        <time>2016-02-21T14:20:19Z</time>
      </trkpt>
      <trkpt lat="43.61813" lon="3.41914">
        <ele>323</ele>
        <time>2016-02-21T14:20:20Z</time>
      </trkpt>
      <trkpt lat="43.61813" lon="3.41911">
        <ele>322</ele>
        <time>2016-02-21T14:20:21Z</time>
      </trkpt>
      <trkpt lat="43.61814" lon="3.41908">
        <ele>320.5</ele>
        <time>2016-02-21T14:20:22Z</time>
      </trkpt>
      <trkpt lat="43.61814" lon="3.41905">
        <ele>320.5</ele>
        <time>2016-02-21T14:20:23Z</time>
      </trkpt>
      <trkpt lat="43.61813" lon="3.41902">
        <ele>320.5</ele>
        <time>2016-02-21T14:20:24Z</time>
      </trkpt>
      <trkpt lat="43.61813" lon="3.41898">
        <ele>320.5</ele>
        <time>2016-02-21T14:20:25Z</time>
      </trkpt>
      <trkpt lat="43.61813" lon="3.41895">
        <ele>320</ele>
        <time>2016-02-21T14:20:26Z</time>
      </trkpt>
      <trkpt lat="43.61812" lon="3.41891">
        <ele>319.5</ele>
        <time>2016-02-21T14:20:27Z</time>
      </trkpt>
      <trkpt lat="43.61812" lon="3.41888">
        <ele>319.5</ele>
        <time>2016-02-21T14:20:28Z</time>
      </trkpt>
      <trkpt lat="43.61811" lon="3.41884">
        <ele>320</ele>
        <time>2016-02-21T14:20:29Z</time>
      </trkpt>
      <trkpt lat="43.6181" lon="3.41881">
        <ele>320.5</ele>
        <time>2016-02-21T14:20:30Z</time>
      </trkpt>
      <trkpt lat="43.61808" lon="3.41879">
        <ele>321.5</ele>
        <time>2016-02-21T14:20:31Z</time>
      </trkpt>
      <trkpt lat="43.61807" lon="3.41875">
        <ele>321.5</ele>
        <time>2016-02-21T14:20:32Z</time>
      </trkpt>
      <trkpt lat="43.61806" lon="3.41873">
        <ele>322.5</ele>
        <time>2016-02-21T14:20:33Z</time>
      </trkpt>
      <trkpt lat="43.61804" lon="3.4187">
        <ele>323</ele>
        <time>2016-02-21T14:20:34Z</time>
      </trkpt>
      <trkpt lat="43.61803" lon="3.41867">
        <ele>323.5</ele>
        <time>2016-02-21T14:20:35Z</time>
      </trkpt>
      <trkpt lat="43.61801" lon="3.41865">
        <ele>324.5</ele>
        <time>2016-02-21T14:20:36Z</time>
      </trkpt>
      <trkpt lat="43.618" lon="3.4186">
        <ele>324.5</ele>
        <time>2016-02-21T14:20:37Z</time>
      </trkpt>
      <trkpt lat="43.61798" lon="3.41858">
        <ele>324.5</ele>
        <time>2016-02-21T14:20:38Z</time>
      </trkpt>
      <trkpt lat="43.61796" lon="3.41855">
        <ele>325</ele>
        <time>2016-02-21T14:20:39Z</time>
      </trkpt>
      <trkpt lat="43.61794" lon="3.41852">
        <ele>325</ele>
        <time>2016-02-21T14:20:40Z</time>
      </trkpt>
      <trkpt lat="43.61792" lon="3.4185">
        <ele>325.5</ele>
        <time>2016-02-21T14:20:41Z</time>
      </trkpt>
      <trkpt lat="43.6179" lon="3.41847">
        <ele>326</ele>
        <time>2016-02-21T14:20:42Z</time>
      </trkpt>
      <trkpt lat="43.61789" lon="3.41843">
        <ele>326.5</ele>
        <time>2016-02-21T14:20:43Z</time>
      </trkpt>
      <trkpt lat="43.61787" lon="3.41841">
        <ele>326.5</ele>
        <time>2016-02-21T14:20:44Z</time>
      </trkpt>
      <trkpt lat="43.61785" lon="3.41838">
        <ele>327</ele>
        <time>2016-02-21T14:20:45Z</time>
      </trkpt>
      <trkpt lat="43.61783" lon="3.41835">
        <ele>327</ele>
        <time>2016-02-21T14:20:46Z</time>
      </trkpt>
      <trkpt lat="43.61781" lon="3.41832">
        <ele>327</ele>
        <time>2016-02-21T14:20:47Z</time>
      </trkpt>
      <trkpt lat="43.6178" lon="3.41828">
        <ele>326.5</ele>
        <time>2016-02-21T14:20:48Z</time>
      </trkpt>
      <trkpt lat="43.61778" lon="3.41825">
        <ele>326.5</ele>
        <time>2016-02-21T14:20:49Z</time>
      </trkpt>
      <trkpt lat="43.61776" lon="3.41822">
        <ele>326</ele>
        <time>2016-02-21T14:20:50Z</time>
      </trkpt>
      <trkpt lat="43.61774" lon="3.41819">
        <ele>325.5</ele>
        <time>2016-02-21T14:20:51Z</time>
      </trkpt>
      <trkpt lat="43.61772" lon="3.41816">
        <ele>326</ele>
        <time>2016-02-21T14:20:52Z</time>
      </trkpt>
      <trkpt lat="43.61769" lon="3.41813">
        <ele>326.5</ele>
        <time>2016-02-21T14:20:53Z</time>
      </trkpt>
      <trkpt lat="43.61767" lon="3.41811">
        <ele>327</ele>
        <time>2016-02-21T14:20:54Z</time>
      </trkpt>
      <trkpt lat="43.61765" lon="3.41808">
        <ele>327.5</ele>
        <time>2016-02-21T14:20:55Z</time>
      </trkpt>
      <trkpt lat="43.61763" lon="3.41804">
        <ele>327.5</ele>
        <time>2016-02-21T14:20:56Z</time>
      </trkpt>
      <trkpt lat="43.61761" lon="3.41801">
        <ele>327.5</ele>
        <time>2016-02-21T14:20:57Z</time>
      </trkpt>
      <trkpt lat="43.61759" lon="3.41798">
        <ele>328</ele>
        <time>2016-02-21T14:20:58Z</time>
      </trkpt>
      <trkpt lat="43.61756" lon="3.41796">
        <ele>329</ele>
        <time>2016-02-21T14:20:59Z</time>
      </trkpt>
      <trkpt lat="43.61754" lon="3.41793">
        <ele>329</ele>
        <time>2016-02-21T14:21:00Z</time>
      </trkpt>
      <trkpt lat="43.61753" lon="3.4179">
        <ele>330</ele>
        <time>2016-02-21T14:21:01Z</time>
      </trkpt>
      <trkpt lat="43.61752" lon="3.41788">
        <ele>329.5</ele>
        <time>2016-02-21T14:21:02Z</time>
      </trkpt>
      <trkpt lat="43.61751" lon="3.41786">
        <ele>330.5</ele>
        <time>2016-02-21T14:21:03Z</time>
      </trkpt>
      <trkpt lat="43.61749" lon="3.41783">
        <ele>331</ele>
        <time>2016-02-21T14:21:04Z</time>
      </trkpt>
      <trkpt lat="43.61748" lon="3.41781">
        <ele>331</ele>
        <time>2016-02-21T14:21:05Z</time>
      </trkpt>
      <trkpt lat="43.61748" lon="3.41779">
        <ele>332.5</ele>
        <time>2016-02-21T14:21:06Z</time>
      </trkpt>
      <trkpt lat="43.61747" lon="3.41776">
        <ele>333</ele>
        <time>2016-02-21T14:21:07Z</time>
      </trkpt>
      <trkpt lat="43.61745" lon="3.41774">
        <ele>333.5</ele>
        <time>2016-02-21T14:21:08Z</time>
      </trkpt>
      <trkpt lat="43.61742" lon="3.41771">
        <ele>334</ele>
        <time>2016-02-21T14:21:09Z</time>
      </trkpt>
      <trkpt lat="43.6174" lon="3.41769">
        <ele>334</ele>
        <time>2016-02-21T14:21:10Z</time>
      </trkpt>
      <trkpt lat="43.61738" lon="3.41767">
        <ele>334</ele>
        <time>2016-02-21T14:21:11Z</time>
      </trkpt>
      <trkpt lat="43.61735" lon="3.41764">
        <ele>334</ele>
        <time>2016-02-21T14:21:12Z</time>
      </trkpt>
      <trkpt lat="43.61731" lon="3.41763">
        <ele>334.5</ele>
        <time>2016-02-21T14:21:13Z</time>
      </trkpt>
      <trkpt lat="43.61728" lon="3.41761">
        <ele>335</ele>
        <time>2016-02-21T14:21:14Z</time>
      </trkpt>
      <trkpt lat="43.61725" lon="3.4176">
        <ele>335.5</ele>
        <time>2016-02-21T14:21:15Z</time>
      </trkpt>
      <trkpt lat="43.61723" lon="3.41758">
        <ele>335.5</ele>
        <time>2016-02-21T14:21:16Z</time>
      </trkpt>
      <trkpt lat="43.6172" lon="3.41756">
        <ele>335.5</ele>
        <time>2016-02-21T14:21:17Z</time>
      </trkpt>
      <trkpt lat="43.61718" lon="3.41754">
        <ele>335</ele>
        <time>2016-02-21T14:21:18Z</time>
      </trkpt>
      <trkpt lat="43.61714" lon="3.41752">
        <ele>334</ele>
        <time>2016-02-21T14:21:19Z</time>
      </trkpt>
      <trkpt lat="43.61712" lon="3.4175">
        <ele>333</ele>
        <time>2016-02-21T14:21:20Z</time>
      </trkpt>
      <trkpt lat="43.61709" lon="3.41752">
        <ele>334</ele>
        <time>2016-02-21T14:21:21Z</time>
      </trkpt>
      <trkpt lat="43.61705" lon="3.41752">
        <ele>334</ele>
        <time>2016-02-21T14:21:22Z</time>
      </trkpt>
      <trkpt lat="43.61702" lon="3.41754">
        <ele>334.5</ele>
        <time>2016-02-21T14:21:23Z</time>
      </trkpt>
      <trkpt lat="43.61699" lon="3.41755">
        <ele>334</ele>
        <time>2016-02-21T14:21:24Z</time>
      </trkpt>
      <trkpt lat="43.61698" lon="3.41756">
        <ele>334.5</ele>
        <time>2016-02-21T14:21:25Z</time>
      </trkpt>
      <trkpt lat="43.61696" lon="3.41758">
        <ele>334.5</ele>
        <time>2016-02-21T14:21:26Z</time>
      </trkpt>
      <trkpt lat="43.61694" lon="3.4176">
        <ele>335</ele>
        <time>2016-02-21T14:21:27Z</time>
      </trkpt>
      <trkpt lat="43.61691" lon="3.41763">
        <ele>334.5</ele>
        <time>2016-02-21T14:21:28Z</time>
      </trkpt>
      <trkpt lat="43.61689" lon="3.41765">
        <ele>334.5</ele>
        <time>2016-02-21T14:21:29Z</time>
      </trkpt>
      <trkpt lat="43.61687" lon="3.41768">
        <ele>335</ele>
        <time>2016-02-21T14:21:30Z</time>
      </trkpt>
      <trkpt lat="43.61684" lon="3.4177">
        <ele>334.5</ele>
        <time>2016-02-21T14:21:31Z</time>
      </trkpt>
      <trkpt lat="43.61682" lon="3.41773">
        <ele>334.5</ele>
        <time>2016-02-21T14:21:32Z</time>
      </trkpt>
      <trkpt lat="43.61679" lon="3.41776">
        <ele>334</ele>
        <time>2016-02-21T14:21:33Z</time>
      </trkpt>
      <trkpt lat="43.61676" lon="3.41779">
        <ele>333.5</ele>
        <time>2016-02-21T14:21:34Z</time>
      </trkpt>
      <trkpt lat="43.61673" lon="3.41782">
        <ele>333.5</ele>
        <time>2016-02-21T14:21:35Z</time>
      </trkpt>
      <trkpt lat="43.6167" lon="3.41784">
        <ele>332.5</ele>
        <time>2016-02-21T14:21:36Z</time>
      </trkpt>
      <trkpt lat="43.61668" lon="3.41787">
        <ele>332.5</ele>
        <time>2016-02-21T14:21:37Z</time>
      </trkpt>
      <trkpt lat="43.61664" lon="3.41789">
        <ele>332</ele>
        <time>2016-02-21T14:21:38Z</time>
      </trkpt>
      <trkpt lat="43.61659" lon="3.41794">
        <ele>332</ele>
        <time>2016-02-21T14:21:40Z</time>
      </trkpt>
      <trkpt lat="43.61656" lon="3.41796">
        <ele>333</ele>
        <time>2016-02-21T14:21:41Z</time>
      </trkpt>
      <trkpt lat="43.61653" lon="3.41799">
        <ele>333</ele>
        <time>2016-02-21T14:21:42Z</time>
      </trkpt>
      <trkpt lat="43.61647" lon="3.41801">
        <ele>331</ele>
        <time>2016-02-21T14:21:43Z</time>
      </trkpt>
      <trkpt lat="43.61643" lon="3.41804">
        <ele>331</ele>
        <time>2016-02-21T14:21:44Z</time>
      </trkpt>
      <trkpt lat="43.61637" lon="3.41806">
        <ele>330.5</ele>
        <time>2016-02-21T14:21:45Z</time>
      </trkpt>
      <trkpt lat="43.61632" lon="3.41809">
        <ele>330</ele>
        <time>2016-02-21T14:21:46Z</time>
      </trkpt>
      <trkpt lat="43.61628" lon="3.41812">
        <ele>328.5</ele>
        <time>2016-02-21T14:21:47Z</time>
      </trkpt>
      <trkpt lat="43.61624" lon="3.41815">
        <ele>328</ele>
        <time>2016-02-21T14:21:48Z</time>
      </trkpt>
      <trkpt lat="43.61619" lon="3.41818">
        <ele>327.5</ele>
        <time>2016-02-21T14:21:49Z</time>
      </trkpt>
      <trkpt lat="43.61613" lon="3.41824">
        <ele>326</ele>
        <time>2016-02-21T14:21:51Z</time>
      </trkpt>
      <trkpt lat="43.61609" lon="3.41827">
        <ele>326</ele>
        <time>2016-02-21T14:21:52Z</time>
      </trkpt>
      <trkpt lat="43.61604" lon="3.41831">
        <ele>325.5</ele>
        <time>2016-02-21T14:21:53Z</time>
      </trkpt>
      <trkpt lat="43.616" lon="3.41835">
        <ele>325.5</ele>
        <time>2016-02-21T14:21:54Z</time>
      </trkpt>
      <trkpt lat="43.61596" lon="3.41838">
        <ele>325.5</ele>
        <time>2016-02-21T14:21:55Z</time>
      </trkpt>
      <trkpt lat="43.61592" lon="3.4184">
        <ele>325</ele>
        <time>2016-02-21T14:21:56Z</time>
      </trkpt>
      <trkpt lat="43.61588" lon="3.41841">
        <ele>325.5</ele>
        <time>2016-02-21T14:21:57Z</time>
      </trkpt>
      <trkpt lat="43.61584" lon="3.41843">
        <ele>325</ele>
        <time>2016-02-21T14:21:58Z</time>
      </trkpt>
      <trkpt lat="43.61579" lon="3.41845">
        <ele>325</ele>
        <time>2016-02-21T14:21:59Z</time>
      </trkpt>
      <trkpt lat="43.61574" lon="3.41847">
        <ele>325</ele>
        <time>2016-02-21T14:22:00Z</time>
      </trkpt>
      <trkpt lat="43.61568" lon="3.41849">
        <ele>325.5</ele>
        <time>2016-02-21T14:22:01Z</time>
      </trkpt>
      <trkpt lat="43.61558" lon="3.41847">
        <ele>325</ele>
        <time>2016-02-21T14:22:03Z</time>
      </trkpt>
      <trkpt lat="43.61553" lon="3.41843">
        <ele>324</ele>
        <time>2016-02-21T14:22:04Z</time>
      </trkpt>
      <trkpt lat="43.61548" lon="3.4184">
        <ele>323.5</ele>
        <time>2016-02-21T14:22:05Z</time>
      </trkpt>
      <trkpt lat="43.61543" lon="3.41835">
        <ele>323</ele>
        <time>2016-02-21T14:22:06Z</time>
      </trkpt>
      <trkpt lat="43.61538" lon="3.41829">
        <ele>323</ele>
        <time>2016-02-21T14:22:07Z</time>
      </trkpt>
      <trkpt lat="43.61533" lon="3.41823">
        <ele>323</ele>
        <time>2016-02-21T14:22:08Z</time>
      </trkpt>
      <trkpt lat="43.61528" lon="3.41818">
        <ele>323</ele>
        <time>2016-02-21T14:22:09Z</time>
      </trkpt>
      <trkpt lat="43.61524" lon="3.4181">
        <ele>323</ele>
        <time>2016-02-21T14:22:10Z</time>
      </trkpt>
      <trkpt lat="43.61521" lon="3.41802">
        <ele>323</ele>
        <time>2016-02-21T14:22:11Z</time>
      </trkpt>
      <trkpt lat="43.61518" lon="3.41793">
        <ele>323</ele>
        <time>2016-02-21T14:22:12Z</time>
      </trkpt>
      <trkpt lat="43.61516" lon="3.41785">
        <ele>323</ele>
        <time>2016-02-21T14:22:13Z</time>
      </trkpt>
      <trkpt lat="43.61515" lon="3.41775">
        <ele>322.5</ele>
        <time>2016-02-21T14:22:14Z</time>
      </trkpt>
      <trkpt lat="43.61515" lon="3.41764">
        <ele>322.5</ele>
        <time>2016-02-21T14:22:15Z</time>
      </trkpt>
      <trkpt lat="43.61515" lon="3.41754">
        <ele>322.5</ele>
        <time>2016-02-21T14:22:16Z</time>
      </trkpt>
      <trkpt lat="43.61515" lon="3.41744">
        <ele>322.5</ele>
        <time>2016-02-21T14:22:17Z</time>
      </trkpt>
      <trkpt lat="43.61515" lon="3.41733">
        <ele>322</ele>
        <time>2016-02-21T14:22:18Z</time>
      </trkpt>
      <trkpt lat="43.61514" lon="3.41722">
        <ele>322</ele>
        <time>2016-02-21T14:22:19Z</time>
      </trkpt>
      <trkpt lat="43.61512" lon="3.41712">
        <ele>320.5</ele>
        <time>2016-02-21T14:22:20Z</time>
      </trkpt>
      <trkpt lat="43.61509" lon="3.41702">
        <ele>321</ele>
        <time>2016-02-21T14:22:20Z</time>
      </trkpt>
      <trkpt lat="43.61506" lon="3.41692">
        <ele>321</ele>
        <time>2016-02-21T14:22:22Z</time>
      </trkpt>
      <trkpt lat="43.615" lon="3.41685">
        <ele>320.5</ele>
        <time>2016-02-21T14:22:22Z</time>
      </trkpt>
      <trkpt lat="43.61492" lon="3.41685">
        <ele>320.5</ele>
        <time>2016-02-21T14:22:23Z</time>
      </trkpt>
      <trkpt lat="43.61485" lon="3.41683">
        <ele>320</ele>
        <time>2016-02-21T14:22:24Z</time>
      </trkpt>
      <trkpt lat="43.61478" lon="3.41681">
        <ele>319.5</ele>
        <time>2016-02-21T14:22:25Z</time>
      </trkpt>
      <trkpt lat="43.61472" lon="3.41675">
        <ele>318.5</ele>
        <time>2016-02-21T14:22:26Z</time>
      </trkpt>
      <trkpt lat="43.61467" lon="3.41669">
        <ele>318</ele>
        <time>2016-02-21T14:22:27Z</time>
      </trkpt>
      <trkpt lat="43.61464" lon="3.41662">
        <ele>318.5</ele>
        <time>2016-02-21T14:22:28Z</time>
      </trkpt>
      <trkpt lat="43.61462" lon="3.41653">
        <ele>318.5</ele>
        <time>2016-02-21T14:22:29Z</time>
      </trkpt>
      <trkpt lat="43.61459" lon="3.41644">
        <ele>317.5</ele>
        <time>2016-02-21T14:22:30Z</time>
      </trkpt>
      <trkpt lat="43.61456" lon="3.41636">
        <ele>317.5</ele>
        <time>2016-02-21T14:22:31Z</time>
      </trkpt>
      <trkpt lat="43.61453" lon="3.41627">
        <ele>317.5</ele>
        <time>2016-02-21T14:22:32Z</time>
      </trkpt>
      <trkpt lat="43.61449" lon="3.41619">
        <ele>316.5</ele>
        <time>2016-02-21T14:22:33Z</time>
      </trkpt>
      <trkpt lat="43.61444" lon="3.41612">
        <ele>316.5</ele>
        <time>2016-02-21T14:22:34Z</time>
      </trkpt>
      <trkpt lat="43.61439" lon="3.41606">
        <ele>316</ele>
        <time>2016-02-21T14:22:35Z</time>
      </trkpt>
      <trkpt lat="43.61433" lon="3.41602">
        <ele>316</ele>
        <time>2016-02-21T14:22:36Z</time>
      </trkpt>
      <trkpt lat="43.61426" lon="3.41598">
        <ele>315.5</ele>
        <time>2016-02-21T14:22:37Z</time>
      </trkpt>
      <trkpt lat="43.6142" lon="3.41595">
        <ele>315.5</ele>
        <time>2016-02-21T14:22:38Z</time>
      </trkpt>
      <trkpt lat="43.61413" lon="3.41591">
        <ele>315</ele>
        <time>2016-02-21T14:22:39Z</time>
      </trkpt>
      <trkpt lat="43.61406" lon="3.41588">
        <ele>314.5</ele>
        <time>2016-02-21T14:22:41Z</time>
      </trkpt>
      <trkpt lat="43.614" lon="3.41584">
        <ele>313</ele>
        <time>2016-02-21T14:22:41Z</time>
      </trkpt>
      <trkpt lat="43.61394" lon="3.4158">
        <ele>312.5</ele>
        <time>2016-02-21T14:22:42Z</time>
      </trkpt>
      <trkpt lat="43.61389" lon="3.41579">
        <ele>312.5</ele>
        <time>2016-02-21T14:22:43Z</time>
      </trkpt>
      <trkpt lat="43.61384" lon="3.41578">
        <ele>311.5</ele>
        <time>2016-02-21T14:22:44Z</time>
      </trkpt>
      <trkpt lat="43.6138" lon="3.41579">
        <ele>311</ele>
        <time>2016-02-21T14:22:45Z</time>
      </trkpt>
      <trkpt lat="43.61377" lon="3.41582">
        <ele>310</ele>
        <time>2016-02-21T14:22:46Z</time>
      </trkpt>
      <trkpt lat="43.61374" lon="3.41586">
        <ele>309.5</ele>
        <time>2016-02-21T14:22:47Z</time>
      </trkpt>
      <trkpt lat="43.61371" lon="3.41591">
        <ele>309</ele>
        <time>2016-02-21T14:22:48Z</time>
      </trkpt>
      <trkpt lat="43.6137" lon="3.41596">
        <ele>308</ele>
        <time>2016-02-21T14:22:49Z</time>
      </trkpt>
      <trkpt lat="43.61369" lon="3.41602">
        <ele>307.5</ele>
        <time>2016-02-21T14:22:50Z</time>
      </trkpt>
      <trkpt lat="43.61368" lon="3.41608">
        <ele>307.5</ele>
        <time>2016-02-21T14:22:51Z</time>
      </trkpt>
      <trkpt lat="43.61366" lon="3.41614">
        <ele>307</ele>
        <time>2016-02-21T14:22:52Z</time>
      </trkpt>
      <trkpt lat="43.61364" lon="3.4162">
        <ele>307</ele>
        <time>2016-02-21T14:22:53Z</time>
      </trkpt>
      <trkpt lat="43.61363" lon="3.41627">
        <ele>307</ele>
        <time>2016-02-21T14:22:54Z</time>
      </trkpt>
      <trkpt lat="43.61361" lon="3.41633">
        <ele>307</ele>
        <time>2016-02-21T14:22:55Z</time>
      </trkpt>
      <trkpt lat="43.61359" lon="3.4164">
        <ele>307</ele>
        <time>2016-02-21T14:22:57Z</time>
      </trkpt>
      <trkpt lat="43.61355" lon="3.41652">
        <ele>306.5</ele>
        <time>2016-02-21T14:22:58Z</time>
      </trkpt>
      <trkpt lat="43.61353" lon="3.41659">
        <ele>306.5</ele>
        <time>2016-02-21T14:22:59Z</time>
      </trkpt>
      <trkpt lat="43.61351" lon="3.41666">
        <ele>306</ele>
        <time>2016-02-21T14:23:01Z</time>
      </trkpt>
      <trkpt lat="43.61349" lon="3.41673">
        <ele>306</ele>
        <time>2016-02-21T14:23:01Z</time>
      </trkpt>
      <trkpt lat="43.61346" lon="3.41679">
        <ele>305.5</ele>
        <time>2016-02-21T14:23:02Z</time>
      </trkpt>
      <trkpt lat="43.61344" lon="3.41686">
        <ele>305</ele>
        <time>2016-02-21T14:23:03Z</time>
      </trkpt>
      <trkpt lat="43.61342" lon="3.41692">
        <ele>304</ele>
        <time>2016-02-21T14:23:04Z</time>
      </trkpt>
      <trkpt lat="43.6134" lon="3.41699">
        <ele>304</ele>
        <time>2016-02-21T14:23:05Z</time>
      </trkpt>
      <trkpt lat="43.61338" lon="3.41705">
        <ele>303.5</ele>
        <time>2016-02-21T14:23:06Z</time>
      </trkpt>
      <trkpt lat="43.61337" lon="3.41712">
        <ele>303.5</ele>
        <time>2016-02-21T14:23:07Z</time>
      </trkpt>
      <trkpt lat="43.61335" lon="3.41718">
        <ele>303</ele>
        <time>2016-02-21T14:23:08Z</time>
      </trkpt>
      <trkpt lat="43.61334" lon="3.41724">
        <ele>303</ele>
        <time>2016-02-21T14:23:09Z</time>
      </trkpt>
      <trkpt lat="43.61333" lon="3.4173">
        <ele>303</ele>
        <time>2016-02-21T14:23:10Z</time>
      </trkpt>
      <trkpt lat="43.61332" lon="3.41736">
        <ele>303</ele>
        <time>2016-02-21T14:23:11Z</time>
      </trkpt>
      <trkpt lat="43.61332" lon="3.41742">
        <ele>303</ele>
        <time>2016-02-21T14:23:12Z</time>
      </trkpt>
      <trkpt lat="43.61332" lon="3.41748">
        <ele>303</ele>
        <time>2016-02-21T14:23:13Z</time>
      </trkpt>
      <trkpt lat="43.61332" lon="3.41754">
        <ele>303</ele>
        <time>2016-02-21T14:23:14Z</time>
      </trkpt>
      <trkpt lat="43.61332" lon="3.4176">
        <ele>302.5</ele>
        <time>2016-02-21T14:23:15Z</time>
      </trkpt>
      <trkpt lat="43.61333" lon="3.41766">
        <ele>302.5</ele>
        <time>2016-02-21T14:23:16Z</time>
      </trkpt>
      <trkpt lat="43.61333" lon="3.41772">
        <ele>302.5</ele>
        <time>2016-02-21T14:23:18Z</time>
      </trkpt>
      <trkpt lat="43.61334" lon="3.41777">
        <ele>302.5</ele>
        <time>2016-02-21T14:23:18Z</time>
      </trkpt>
      <trkpt lat="43.61334" lon="3.41783">
        <ele>302.5</ele>
        <time>2016-02-21T14:23:19Z</time>
      </trkpt>
      <trkpt lat="43.61335" lon="3.41788">
        <ele>303</ele>
        <time>2016-02-21T14:23:20Z</time>
      </trkpt>
      <trkpt lat="43.61336" lon="3.41793">
        <ele>303</ele>
        <time>2016-02-21T14:23:21Z</time>
      </trkpt>
      <trkpt lat="43.61337" lon="3.41799">
        <ele>303</ele>
        <time>2016-02-21T14:23:22Z</time>
      </trkpt>
      <trkpt lat="43.61338" lon="3.41803">
        <ele>303</ele>
        <time>2016-02-21T14:23:23Z</time>
      </trkpt>
      <trkpt lat="43.6134" lon="3.41808">
        <ele>303.5</ele>
        <time>2016-02-21T14:23:24Z</time>
      </trkpt>
      <trkpt lat="43.61341" lon="3.41813">
        <ele>303.5</ele>
        <time>2016-02-21T14:23:25Z</time>
      </trkpt>
      <trkpt lat="43.61342" lon="3.41817">
        <ele>303.5</ele>
        <time>2016-02-21T14:23:26Z</time>
      </trkpt>
      <trkpt lat="43.61343" lon="3.41822">
        <ele>304</ele>
        <time>2016-02-21T14:23:28Z</time>
      </trkpt>
      <trkpt lat="43.61345" lon="3.41826">
        <ele>303.5</ele>
        <time>2016-02-21T14:23:28Z</time>
      </trkpt>
      <trkpt lat="43.61346" lon="3.41831">
        <ele>304</ele>
        <time>2016-02-21T14:23:29Z</time>
      </trkpt>
      <trkpt lat="43.61348" lon="3.41835">
        <ele>304</ele>
        <time>2016-02-21T14:23:30Z</time>
      </trkpt>
      <trkpt lat="43.61349" lon="3.4184">
        <ele>304.5</ele>
        <time>2016-02-21T14:23:31Z</time>
      </trkpt>
      <trkpt lat="43.6135" lon="3.41844">
        <ele>304.5</ele>
        <time>2016-02-21T14:23:32Z</time>
      </trkpt>
      <trkpt lat="43.61352" lon="3.41848">
        <ele>304</ele>
        <time>2016-02-21T14:23:33Z</time>
      </trkpt>
      <trkpt lat="43.61354" lon="3.41853">
        <ele>304.5</ele>
        <time>2016-02-21T14:23:34Z</time>
      </trkpt>
      <trkpt lat="43.61357" lon="3.41856">
        <ele>303</ele>
        <time>2016-02-21T14:23:35Z</time>
      </trkpt>
      <trkpt lat="43.61359" lon="3.4186">
        <ele>302.5</ele>
        <time>2016-02-21T14:23:36Z</time>
      </trkpt>
      <trkpt lat="43.61361" lon="3.41865">
        <ele>302</ele>
        <time>2016-02-21T14:23:37Z</time>
      </trkpt>
      <trkpt lat="43.61363" lon="3.41869">
        <ele>302</ele>
        <time>2016-02-21T14:23:38Z</time>
      </trkpt>
      <trkpt lat="43.61365" lon="3.41874">
        <ele>302</ele>
        <time>2016-02-21T14:23:39Z</time>
      </trkpt>
      <trkpt lat="43.61367" lon="3.41879">
        <ele>302.5</ele>
        <time>2016-02-21T14:23:40Z</time>
      </trkpt>
      <trkpt lat="43.61369" lon="3.41883">
        <ele>302</ele>
        <time>2016-02-21T14:23:41Z</time>
      </trkpt>
      <trkpt lat="43.6137" lon="3.41887">
        <ele>302.5</ele>
        <time>2016-02-21T14:23:42Z</time>
      </trkpt>
      <trkpt lat="43.61372" lon="3.41892">
        <ele>302.5</ele>
        <time>2016-02-21T14:23:43Z</time>
      </trkpt>
      <trkpt lat="43.61374" lon="3.41897">
        <ele>303</ele>
        <time>2016-02-21T14:23:44Z</time>
      </trkpt>
      <trkpt lat="43.61376" lon="3.41901">
        <ele>303</ele>
        <time>2016-02-21T14:23:45Z</time>
      </trkpt>
      <trkpt lat="43.61377" lon="3.41906">
        <ele>303</ele>
        <time>2016-02-21T14:23:46Z</time>
      </trkpt>
      <trkpt lat="43.61379" lon="3.41911">
        <ele>303</ele>
        <time>2016-02-21T14:23:47Z</time>
      </trkpt>
      <trkpt lat="43.61381" lon="3.41915">
        <ele>303</ele>
        <time>2016-02-21T14:23:48Z</time>
      </trkpt>
      <trkpt lat="43.61383" lon="3.41919">
        <ele>302.5</ele>
        <time>2016-02-21T14:23:49Z</time>
      </trkpt>
      <trkpt lat="43.61386" lon="3.41923">
        <ele>302.5</ele>
        <time>2016-02-21T14:23:50Z</time>
      </trkpt>
      <trkpt lat="43.61388" lon="3.41927">
        <ele>302.5</ele>
        <time>2016-02-21T14:23:51Z</time>
      </trkpt>
      <trkpt lat="43.6139" lon="3.41932">
        <ele>303</ele>
        <time>2016-02-21T14:23:52Z</time>
      </trkpt>
      <trkpt lat="43.61392" lon="3.41935">
        <ele>304</ele>
        <time>2016-02-21T14:23:53Z</time>
      </trkpt>
      <trkpt lat="43.61395" lon="3.41939">
        <ele>304</ele>
        <time>2016-02-21T14:23:54Z</time>
      </trkpt>
      <trkpt lat="43.614" lon="3.41944">
        <ele>306</ele>
        <time>2016-02-21T14:23:56Z</time>
      </trkpt>
      <trkpt lat="43.61403" lon="3.41947">
        <ele>306.5</ele>
        <time>2016-02-21T14:23:57Z</time>
      </trkpt>
      <trkpt lat="43.61406" lon="3.4195">
        <ele>307</ele>
        <time>2016-02-21T14:23:58Z</time>
      </trkpt>
      <trkpt lat="43.61409" lon="3.41952">
        <ele>307.5</ele>
        <time>2016-02-21T14:23:59Z</time>
      </trkpt>
      <trkpt lat="43.61411" lon="3.41956">
        <ele>307.5</ele>
        <time>2016-02-21T14:24:00Z</time>
      </trkpt>
      <trkpt lat="43.61413" lon="3.41958">
        <ele>307.5</ele>
        <time>2016-02-21T14:24:01Z</time>
      </trkpt>
      <trkpt lat="43.61416" lon="3.41961">
        <ele>308</ele>
        <time>2016-02-21T14:24:02Z</time>
      </trkpt>
      <trkpt lat="43.61419" lon="3.41963">
        <ele>308</ele>
        <time>2016-02-21T14:24:03Z</time>
      </trkpt>
      <trkpt lat="43.61422" lon="3.41966">
        <ele>308</ele>
        <time>2016-02-21T14:24:04Z</time>
      </trkpt>
      <trkpt lat="43.61424" lon="3.41969">
        <ele>308</ele>
        <time>2016-02-21T14:24:05Z</time>
      </trkpt>
      <trkpt lat="43.61426" lon="3.41973">
        <ele>308.5</ele>
        <time>2016-02-21T14:24:06Z</time>
      </trkpt>
      <trkpt lat="43.61427" lon="3.41977">
        <ele>308.5</ele>
        <time>2016-02-21T14:24:07Z</time>
      </trkpt>
      <trkpt lat="43.61429" lon="3.41981">
        <ele>309</ele>
        <time>2016-02-21T14:24:08Z</time>
      </trkpt>
      <trkpt lat="43.6143" lon="3.41986">
        <ele>309.5</ele>
        <time>2016-02-21T14:24:09Z</time>
      </trkpt>
      <trkpt lat="43.61431" lon="3.4199">
        <ele>310</ele>
        <time>2016-02-21T14:24:10Z</time>
      </trkpt>
      <trkpt lat="43.61433" lon="3.41994">
        <ele>310</ele>
        <time>2016-02-21T14:24:11Z</time>
      </trkpt>
      <trkpt lat="43.61434" lon="3.41998">
        <ele>310</ele>
        <time>2016-02-21T14:24:12Z</time>
      </trkpt>
      <trkpt lat="43.61435" lon="3.42002">
        <ele>310</ele>
        <time>2016-02-21T14:24:13Z</time>
      </trkpt>
      <trkpt lat="43.61436" lon="3.42006">
        <ele>310.5</ele>
        <time>2016-02-21T14:24:14Z</time>
      </trkpt>
      <trkpt lat="43.61437" lon="3.4201">
        <ele>310.5</ele>
        <time>2016-02-21T14:24:15Z</time>
      </trkpt>
      <trkpt lat="43.61438" lon="3.42013">
        <ele>310.5</ele>
        <time>2016-02-21T14:24:16Z</time>
      </trkpt>
      <trkpt lat="43.61439" lon="3.42017">
        <ele>310.5</ele>
        <time>2016-02-21T14:24:17Z</time>
      </trkpt>
      <trkpt lat="43.61439" lon="3.42021">
        <ele>310</ele>
        <time>2016-02-21T14:24:18Z</time>
      </trkpt>
      <trkpt lat="43.6144" lon="3.42025">
        <ele>310</ele>
        <time>2016-02-21T14:24:19Z</time>
      </trkpt>
      <trkpt lat="43.61441" lon="3.42028">
        <ele>310</ele>
        <time>2016-02-21T14:24:20Z</time>
      </trkpt>
      <trkpt lat="43.61442" lon="3.42032">
        <ele>310.5</ele>
        <time>2016-02-21T14:24:21Z</time>
      </trkpt>
      <trkpt lat="43.61442" lon="3.42035">
        <ele>310.5</ele>
        <time>2016-02-21T14:24:22Z</time>
      </trkpt>
      <trkpt lat="43.61443" lon="3.42038">
        <ele>310.5</ele>
        <time>2016-02-21T14:24:23Z</time>
      </trkpt>
      <trkpt lat="43.61444" lon="3.42041">
        <ele>310</ele>
        <time>2016-02-21T14:24:24Z</time>
      </trkpt>
      <trkpt lat="43.61445" lon="3.42045">
        <ele>310.5</ele>
        <time>2016-02-21T14:24:25Z</time>
      </trkpt>
      <trkpt lat="43.61446" lon="3.42049">
        <ele>310.5</ele>
        <time>2016-02-21T14:24:26Z</time>
      </trkpt>
      <trkpt lat="43.61446" lon="3.42053">
        <ele>310.5</ele>
        <time>2016-02-21T14:24:27Z</time>
      </trkpt>
      <trkpt lat="43.61447" lon="3.42057">
        <ele>310.5</ele>
        <time>2016-02-21T14:24:28Z</time>
      </trkpt>
      <trkpt lat="43.61447" lon="3.4206">
        <ele>310.5</ele>
        <time>2016-02-21T14:24:29Z</time>
      </trkpt>
      <trkpt lat="43.61448" lon="3.42064">
        <ele>311</ele>
        <time>2016-02-21T14:24:30Z</time>
      </trkpt>
      <trkpt lat="43.61449" lon="3.42068">
        <ele>311</ele>
        <time>2016-02-21T14:24:31Z</time>
      </trkpt>
      <trkpt lat="43.6145" lon="3.42071">
        <ele>311</ele>
        <time>2016-02-21T14:24:32Z</time>
      </trkpt>
      <trkpt lat="43.61451" lon="3.42075">
        <ele>311</ele>
        <time>2016-02-21T14:24:33Z</time>
      </trkpt>
      <trkpt lat="43.61452" lon="3.42079">
        <ele>311.5</ele>
        <time>2016-02-21T14:24:34Z</time>
      </trkpt>
      <trkpt lat="43.61453" lon="3.42083">
        <ele>312</ele>
        <time>2016-02-21T14:24:35Z</time>
      </trkpt>
      <trkpt lat="43.61453" lon="3.42087">
        <ele>312</ele>
        <time>2016-02-21T14:24:36Z</time>
      </trkpt>
      <trkpt lat="43.61454" lon="3.42091">
        <ele>312</ele>
        <time>2016-02-21T14:24:37Z</time>
      </trkpt>
      <trkpt lat="43.61455" lon="3.42094">
        <ele>312.5</ele>
        <time>2016-02-21T14:24:38Z</time>
      </trkpt>
      <trkpt lat="43.61456" lon="3.42098">
        <ele>312.5</ele>
        <time>2016-02-21T14:24:39Z</time>
      </trkpt>
      <trkpt lat="43.61457" lon="3.42102">
        <ele>313</ele>
        <time>2016-02-21T14:24:40Z</time>
      </trkpt>
      <trkpt lat="43.61457" lon="3.42105">
        <ele>313.5</ele>
        <time>2016-02-21T14:24:41Z</time>
      </trkpt>
      <trkpt lat="43.61458" lon="3.42109">
        <ele>314</ele>
        <time>2016-02-21T14:24:42Z</time>
      </trkpt>
      <trkpt lat="43.61459" lon="3.42112">
        <ele>314.5</ele>
        <time>2016-02-21T14:24:43Z</time>
      </trkpt>
      <trkpt lat="43.6146" lon="3.42116">
        <ele>315</ele>
        <time>2016-02-21T14:24:44Z</time>
      </trkpt>
      <trkpt lat="43.61461" lon="3.42119">
        <ele>315</ele>
        <time>2016-02-21T14:24:45Z</time>
      </trkpt>
      <trkpt lat="43.61461" lon="3.42122">
        <ele>315.5</ele>
        <time>2016-02-21T14:24:46Z</time>
      </trkpt>
      <trkpt lat="43.61462" lon="3.42125">
        <ele>316</ele>
        <time>2016-02-21T14:24:47Z</time>
      </trkpt>
      <trkpt lat="43.61462" lon="3.42129">
        <ele>316</ele>
        <time>2016-02-21T14:24:48Z</time>
      </trkpt>
      <trkpt lat="43.61463" lon="3.42132">
        <ele>316</ele>
        <time>2016-02-21T14:24:49Z</time>
      </trkpt>
      <trkpt lat="43.61464" lon="3.42136">
        <ele>316.5</ele>
        <time>2016-02-21T14:24:50Z</time>
      </trkpt>
      <trkpt lat="43.61465" lon="3.42141">
        <ele>316.5</ele>
        <time>2016-02-21T14:24:51Z</time>
      </trkpt>
      <trkpt lat="43.61465" lon="3.42145">
        <ele>317.5</ele>
        <time>2016-02-21T14:24:52Z</time>
      </trkpt>
      <trkpt lat="43.61466" lon="3.42148">
        <ele>317.5</ele>
        <time>2016-02-21T14:24:53Z</time>
      </trkpt>
      <trkpt lat="43.61467" lon="3.42152">
        <ele>318.5</ele>
        <time>2016-02-21T14:24:54Z</time>
      </trkpt>
      <trkpt lat="43.61468" lon="3.42155">
        <ele>319</ele>
        <time>2016-02-21T14:24:55Z</time>
      </trkpt>
      <trkpt lat="43.61468" lon="3.42158">
        <ele>319</ele>
        <time>2016-02-21T14:24:56Z</time>
      </trkpt>
      <trkpt lat="43.61469" lon="3.42161">
        <ele>319.5</ele>
        <time>2016-02-21T14:24:57Z</time>
      </trkpt>
      <trkpt lat="43.6147" lon="3.42164">
        <ele>320</ele>
        <time>2016-02-21T14:24:58Z</time>
      </trkpt>
      <trkpt lat="43.6147" lon="3.42167">
        <ele>320</ele>
        <time>2016-02-21T14:24:59Z</time>
      </trkpt>
      <trkpt lat="43.61471" lon="3.42169">
        <ele>320</ele>
        <time>2016-02-21T14:25:00Z</time>
      </trkpt>
      <trkpt lat="43.61472" lon="3.42172">
        <ele>320</ele>
        <time>2016-02-21T14:25:01Z</time>
      </trkpt>
      <trkpt lat="43.61472" lon="3.42174">
        <ele>320.5</ele>
        <time>2016-02-21T14:25:02Z</time>
      </trkpt>
      <trkpt lat="43.61473" lon="3.42176">
        <ele>321</ele>
        <time>2016-02-21T14:25:03Z</time>
      </trkpt>
      <trkpt lat="43.61473" lon="3.42179">
        <ele>320.5</ele>
        <time>2016-02-21T14:25:04Z</time>
      </trkpt>
      <trkpt lat="43.61473" lon="3.42181">
        <ele>320.5</ele>
        <time>2016-02-21T14:25:05Z</time>
      </trkpt>
      <trkpt lat="43.61474" lon="3.42184">
        <ele>320</ele>
        <time>2016-02-21T14:25:06Z</time>
      </trkpt>
      <trkpt lat="43.61474" lon="3.42186">
        <ele>319.5</ele>
        <time>2016-02-21T14:25:07Z</time>
      </trkpt>
      <trkpt lat="43.61474" lon="3.42189">
        <ele>319.5</ele>
        <time>2016-02-21T14:25:08Z</time>
      </trkpt>
      <trkpt lat="43.61475" lon="3.42191">
        <ele>319.5</ele>
        <time>2016-02-21T14:25:09Z</time>
      </trkpt>
      <trkpt lat="43.61475" lon="3.42193">
        <ele>319.5</ele>
        <time>2016-02-21T14:25:10Z</time>
      </trkpt>
      <trkpt lat="43.61475" lon="3.42196">
        <ele>319</ele>
        <time>2016-02-21T14:25:11Z</time>
      </trkpt>
      <trkpt lat="43.61476" lon="3.42198">
        <ele>319</ele>
        <time>2016-02-21T14:25:12Z</time>
      </trkpt>
      <trkpt lat="43.61477" lon="3.422">
        <ele>319</ele>
        <time>2016-02-21T14:25:13Z</time>
      </trkpt>
      <trkpt lat="43.61477" lon="3.42202">
        <ele>319</ele>
        <time>2016-02-21T14:25:14Z</time>
      </trkpt>
      <trkpt lat="43.61477" lon="3.42205">
        <ele>319.5</ele>
        <time>2016-02-21T14:25:15Z</time>
      </trkpt>
      <trkpt lat="43.61478" lon="3.42207">
        <ele>319.5</ele>
        <time>2016-02-21T14:25:16Z</time>
      </trkpt>
      <trkpt lat="43.61478" lon="3.42208">
        <ele>319.5</ele>
        <time>2016-02-21T14:25:17Z</time>
      </trkpt>
      <trkpt lat="43.61478" lon="3.42211">
        <ele>319</ele>
        <time>2016-02-21T14:25:18Z</time>
      </trkpt>
      <trkpt lat="43.61478" lon="3.42213">
        <ele>319</ele>
        <time>2016-02-21T14:25:19Z</time>
      </trkpt>
      <trkpt lat="43.61478" lon="3.42216">
        <ele>319</ele>
        <time>2016-02-21T14:25:20Z</time>
      </trkpt>
      <trkpt lat="43.61478" lon="3.42218">
        <ele>319</ele>
        <time>2016-02-21T14:25:21Z</time>
      </trkpt>
      <trkpt lat="43.61478" lon="3.42221">
        <ele>319</ele>
        <time>2016-02-21T14:25:22Z</time>
      </trkpt>
      <trkpt lat="43.61478" lon="3.42224">
        <ele>318.5</ele>
        <time>2016-02-21T14:25:23Z</time>
      </trkpt>
      <trkpt lat="43.61478" lon="3.42228">
        <ele>318.5</ele>
        <time>2016-02-21T14:25:24Z</time>
      </trkpt>
      <trkpt lat="43.61478" lon="3.42231">
        <ele>318.5</ele>
        <time>2016-02-21T14:25:25Z</time>
      </trkpt>
      <trkpt lat="43.61478" lon="3.42235">
        <ele>318.5</ele>
        <time>2016-02-21T14:25:26Z</time>
      </trkpt>
      <trkpt lat="43.61477" lon="3.4224">
        <ele>318.5</ele>
        <time>2016-02-21T14:25:27Z</time>
      </trkpt>
      <trkpt lat="43.61477" lon="3.42244">
        <ele>318.5</ele>
        <time>2016-02-21T14:25:28Z</time>
      </trkpt>
      <trkpt lat="43.61477" lon="3.4225">
        <ele>318.5</ele>
        <time>2016-02-21T14:25:29Z</time>
      </trkpt>
      <trkpt lat="43.61477" lon="3.42255">
        <ele>318</ele>
        <time>2016-02-21T14:25:30Z</time>
      </trkpt>
      <trkpt lat="43.61478" lon="3.42259">
        <ele>317.5</ele>
        <time>2016-02-21T14:25:31Z</time>
      </trkpt>
      <trkpt lat="43.61478" lon="3.42264">
        <ele>317</ele>
        <time>2016-02-21T14:25:32Z</time>
      </trkpt>
      <trkpt lat="43.61478" lon="3.42269">
        <ele>316.5</ele>
        <time>2016-02-21T14:25:33Z</time>
      </trkpt>
      <trkpt lat="43.61479" lon="3.42274">
        <ele>316.5</ele>
        <time>2016-02-21T14:25:34Z</time>
      </trkpt>
      <trkpt lat="43.61479" lon="3.42279">
        <ele>316.5</ele>
        <time>2016-02-21T14:25:35Z</time>
      </trkpt>
      <trkpt lat="43.61479" lon="3.42283">
        <ele>316</ele>
        <time>2016-02-21T14:25:36Z</time>
      </trkpt>
      <trkpt lat="43.61478" lon="3.42287">
        <ele>316</ele>
        <time>2016-02-21T14:25:37Z</time>
      </trkpt>
      <trkpt lat="43.61477" lon="3.4229">
        <ele>317.5</ele>
        <time>2016-02-21T14:25:38Z</time>
      </trkpt>
      <trkpt lat="43.61474" lon="3.42293">
        <ele>317</ele>
        <time>2016-02-21T14:25:39Z</time>
      </trkpt>
      <trkpt lat="43.61471" lon="3.42296">
        <ele>316.5</ele>
        <time>2016-02-21T14:25:40Z</time>
      </trkpt>
      <trkpt lat="43.61468" lon="3.42298">
        <ele>316</ele>
        <time>2016-02-21T14:25:41Z</time>
      </trkpt>
      <trkpt lat="43.61466" lon="3.42302">
        <ele>316</ele>
        <time>2016-02-21T14:25:42Z</time>
      </trkpt>
      <trkpt lat="43.61462" lon="3.42305">
        <ele>316</ele>
        <time>2016-02-21T14:25:43Z</time>
      </trkpt>
      <trkpt lat="43.61458" lon="3.42309">
        <ele>315</ele>
        <time>2016-02-21T14:25:44Z</time>
      </trkpt>
      <trkpt lat="43.61454" lon="3.42313">
        <ele>314</ele>
        <time>2016-02-21T14:25:45Z</time>
      </trkpt>
      <trkpt lat="43.6145" lon="3.42316">
        <ele>314</ele>
        <time>2016-02-21T14:25:45Z</time>
      </trkpt>
      <trkpt lat="43.61446" lon="3.42319">
        <ele>314</ele>
        <time>2016-02-21T14:25:48Z</time>
      </trkpt>
      <trkpt lat="43.61443" lon="3.42318">
        <ele>314</ele>
        <time>2016-02-21T14:25:48Z</time>
      </trkpt>
      <trkpt lat="43.6144" lon="3.42318">
        <ele>313.5</ele>
        <time>2016-02-21T14:25:50Z</time>
      </trkpt>
      <trkpt lat="43.61438" lon="3.42317">
        <ele>312.5</ele>
        <time>2016-02-21T14:25:50Z</time>
      </trkpt>
      <trkpt lat="43.61436" lon="3.42318">
        <ele>311.5</ele>
        <time>2016-02-21T14:25:51Z</time>
      </trkpt>
      <trkpt lat="43.61433" lon="3.4232">
        <ele>311</ele>
        <time>2016-02-21T14:25:52Z</time>
      </trkpt>
      <trkpt lat="43.6143" lon="3.42322">
        <ele>310</ele>
        <time>2016-02-21T14:25:53Z</time>
      </trkpt>
      <trkpt lat="43.61428" lon="3.42325">
        <ele>310</ele>
        <time>2016-02-21T14:25:54Z</time>
      </trkpt>
      <trkpt lat="43.61426" lon="3.42327">
        <ele>309.5</ele>
        <time>2016-02-21T14:25:55Z</time>
      </trkpt>
      <trkpt lat="43.61423" lon="3.42327">
        <ele>311</ele>
        <time>2016-02-21T14:25:57Z</time>
      </trkpt>
      <trkpt lat="43.6142" lon="3.42327">
        <ele>310.5</ele>
        <time>2016-02-21T14:25:58Z</time>
      </trkpt>
      <trkpt lat="43.61418" lon="3.42328">
        <ele>310</ele>
        <time>2016-02-21T14:25:59Z</time>
      </trkpt>
      <trkpt lat="43.61415" lon="3.42327">
        <ele>309</ele>
        <time>2016-02-21T14:25:59Z</time>
      </trkpt>
      <trkpt lat="43.61413" lon="3.42327">
        <ele>308</ele>
        <time>2016-02-21T14:26:00Z</time>
      </trkpt>
      <trkpt lat="43.6141" lon="3.42327">
        <ele>307</ele>
        <time>2016-02-21T14:26:01Z</time>
      </trkpt>
      <trkpt lat="43.61408" lon="3.42328">
        <ele>306</ele>
        <time>2016-02-21T14:26:02Z</time>
      </trkpt>
      <trkpt lat="43.61408" lon="3.42327">
        <ele>306.5</ele>
        <time>2016-02-21T14:26:03Z</time>
      </trkpt>
      <trkpt lat="43.61406" lon="3.42326">
        <ele>307</ele>
        <time>2016-02-21T14:26:04Z</time>
      </trkpt>
      <trkpt lat="43.61404" lon="3.42325">
        <ele>306.5</ele>
        <time>2016-02-21T14:26:05Z</time>
      </trkpt>
      <trkpt lat="43.61402" lon="3.42322">
        <ele>306</ele>
        <time>2016-02-21T14:26:06Z</time>
      </trkpt>
      <trkpt lat="43.61399" lon="3.42319">
        <ele>307</ele>
        <time>2016-02-21T14:26:07Z</time>
      </trkpt>
      <trkpt lat="43.61396" lon="3.42315">
        <ele>306.5</ele>
        <time>2016-02-21T14:26:08Z</time>
      </trkpt>
      <trkpt lat="43.61394" lon="3.42313">
        <ele>306.5</ele>
        <time>2016-02-21T14:26:09Z</time>
      </trkpt>
      <trkpt lat="43.61392" lon="3.4231">
        <ele>305.5</ele>
        <time>2016-02-21T14:26:10Z</time>
      </trkpt>
      <trkpt lat="43.6139" lon="3.42308">
        <ele>304.5</ele>
        <time>2016-02-21T14:26:11Z</time>
      </trkpt>
      <trkpt lat="43.61384" lon="3.42312">
        <ele>303.5</ele>
        <time>2016-02-21T14:26:13Z</time>
      </trkpt>
      <trkpt lat="43.61381" lon="3.42314">
        <ele>303</ele>
        <time>2016-02-21T14:26:14Z</time>
      </trkpt>
      <trkpt lat="43.61378" lon="3.42314">
        <ele>302</ele>
        <time>2016-02-21T14:26:15Z</time>
      </trkpt>
      <trkpt lat="43.61375" lon="3.42314">
        <ele>301.5</ele>
        <time>2016-02-21T14:26:16Z</time>
      </trkpt>
      <trkpt lat="43.61372" lon="3.42312">
        <ele>301</ele>
        <time>2016-02-21T14:26:17Z</time>
      </trkpt>
      <trkpt lat="43.61369" lon="3.42312">
        <ele>300</ele>
        <time>2016-02-21T14:26:18Z</time>
      </trkpt>
      <trkpt lat="43.61365" lon="3.42313">
        <ele>298</ele>
        <time>2016-02-21T14:26:19Z</time>
      </trkpt>
      <trkpt lat="43.61364" lon="3.42317">
        <ele>297.5</ele>
        <time>2016-02-21T14:26:20Z</time>
      </trkpt>
      <trkpt lat="43.61363" lon="3.42321">
        <ele>297.5</ele>
        <time>2016-02-21T14:26:21Z</time>
      </trkpt>
      <trkpt lat="43.61362" lon="3.42325">
        <ele>296.5</ele>
        <time>2016-02-21T14:26:22Z</time>
      </trkpt>
      <trkpt lat="43.6136" lon="3.42328">
        <ele>296</ele>
        <time>2016-02-21T14:26:23Z</time>
      </trkpt>
      <trkpt lat="43.61358" lon="3.42332">
        <ele>292</ele>
        <time>2016-02-21T14:26:25Z</time>
      </trkpt>
      <trkpt lat="43.61357" lon="3.42336">
        <ele>291.5</ele>
        <time>2016-02-21T14:26:26Z</time>
      </trkpt>
      <trkpt lat="43.61356" lon="3.42338">
        <ele>292</ele>
        <time>2016-02-21T14:26:27Z</time>
      </trkpt>
      <trkpt lat="43.61354" lon="3.4234">
        <ele>291</ele>
        <time>2016-02-21T14:26:28Z</time>
      </trkpt>
      <trkpt lat="43.61352" lon="3.42342">
        <ele>290</ele>
        <time>2016-02-21T14:26:29Z</time>
      </trkpt>
      <trkpt lat="43.61349" lon="3.42344">
        <ele>289</ele>
        <time>2016-02-21T14:26:30Z</time>
      </trkpt>
      <trkpt lat="43.61348" lon="3.42346">
        <ele>289</ele>
        <time>2016-02-21T14:26:31Z</time>
      </trkpt>
      <trkpt lat="43.61346" lon="3.42347">
        <ele>289</ele>
        <time>2016-02-21T14:26:32Z</time>
      </trkpt>
      <trkpt lat="43.61344" lon="3.42347">
        <ele>288.5</ele>
        <time>2016-02-21T14:26:33Z</time>
      </trkpt>
      <trkpt lat="43.61343" lon="3.42348">
        <ele>288</ele>
        <time>2016-02-21T14:26:34Z</time>
      </trkpt>
      <trkpt lat="43.61341" lon="3.42349">
        <ele>287.5</ele>
        <time>2016-02-21T14:26:35Z</time>
      </trkpt>
      <trkpt lat="43.61339" lon="3.42353">
        <ele>287.5</ele>
        <time>2016-02-21T14:26:36Z</time>
      </trkpt>
      <trkpt lat="43.61338" lon="3.42355">
        <ele>287</ele>
        <time>2016-02-21T14:26:37Z</time>
      </trkpt>
      <trkpt lat="43.61338" lon="3.42357">
        <ele>287.5</ele>
        <time>2016-02-21T14:26:38Z</time>
      </trkpt>
      <trkpt lat="43.61337" lon="3.4236">
        <ele>287</ele>
        <time>2016-02-21T14:26:39Z</time>
      </trkpt>
      <trkpt lat="43.61334" lon="3.4236">
        <ele>285</ele>
        <time>2016-02-21T14:26:40Z</time>
      </trkpt>
      <trkpt lat="43.61332" lon="3.42361">
        <ele>284.5</ele>
        <time>2016-02-21T14:26:41Z</time>
      </trkpt>
      <trkpt lat="43.61333" lon="3.42363">
        <ele>285</ele>
        <time>2016-02-21T14:26:42Z</time>
      </trkpt>
      <trkpt lat="43.61336" lon="3.42363">
        <ele>286.5</ele>
        <time>2016-02-21T14:26:43Z</time>
      </trkpt>
      <trkpt lat="43.61335" lon="3.42364">
        <ele>286</ele>
        <time>2016-02-21T14:26:48Z</time>
      </trkpt>
      <trkpt lat="43.61334" lon="3.42367">
        <ele>285</ele>
        <time>2016-02-21T14:26:50Z</time>
      </trkpt>
      <trkpt lat="43.61333" lon="3.42368">
        <ele>284.5</ele>
        <time>2016-02-21T14:26:51Z</time>
      </trkpt>
      <trkpt lat="43.61331" lon="3.42369">
        <ele>284</ele>
        <time>2016-02-21T14:26:52Z</time>
      </trkpt>
      <trkpt lat="43.61328" lon="3.42368">
        <ele>283</ele>
        <time>2016-02-21T14:26:53Z</time>
      </trkpt>
      <trkpt lat="43.61326" lon="3.42367">
        <ele>282</ele>
        <time>2016-02-21T14:26:54Z</time>
      </trkpt>
      <trkpt lat="43.61324" lon="3.42367">
        <ele>281</ele>
        <time>2016-02-21T14:26:55Z</time>
      </trkpt>
      <trkpt lat="43.61321" lon="3.42368">
        <ele>280</ele>
        <time>2016-02-21T14:26:56Z</time>
      </trkpt>
      <trkpt lat="43.61319" lon="3.42368">
        <ele>279.5</ele>
        <time>2016-02-21T14:26:57Z</time>
      </trkpt>
      <trkpt lat="43.6132" lon="3.42369">
        <ele>277.5</ele>
        <time>2016-02-21T14:26:58Z</time>
      </trkpt>
      <trkpt lat="43.61318" lon="3.42371">
        <ele>275.5</ele>
        <time>2016-02-21T14:26:59Z</time>
      </trkpt>
      <trkpt lat="43.61311" lon="3.42377">
        <ele>273.5</ele>
        <time>2016-02-21T14:27:01Z</time>
      </trkpt>
      <trkpt lat="43.61309" lon="3.42378">
        <ele>274</ele>
        <time>2016-02-21T14:27:02Z</time>
      </trkpt>
      <trkpt lat="43.61307" lon="3.42377">
        <ele>274</ele>
        <time>2016-02-21T14:27:03Z</time>
      </trkpt>
      <trkpt lat="43.61306" lon="3.42376">
        <ele>273.5</ele>
        <time>2016-02-21T14:27:04Z</time>
      </trkpt>
      <trkpt lat="43.61303" lon="3.42376">
        <ele>272</ele>
        <time>2016-02-21T14:27:05Z</time>
      </trkpt>
      <trkpt lat="43.61299" lon="3.42379">
        <ele>273</ele>
        <time>2016-02-21T14:27:06Z</time>
      </trkpt>
      <trkpt lat="43.61296" lon="3.42381">
        <ele>272</ele>
        <time>2016-02-21T14:27:07Z</time>
      </trkpt>
      <trkpt lat="43.61293" lon="3.42382">
        <ele>271.5</ele>
        <time>2016-02-21T14:27:08Z</time>
      </trkpt>
      <trkpt lat="43.6129" lon="3.42384">
        <ele>270.5</ele>
        <time>2016-02-21T14:27:09Z</time>
      </trkpt>
      <trkpt lat="43.61289" lon="3.4239">
        <ele>270</ele>
        <time>2016-02-21T14:27:10Z</time>
      </trkpt>
      <trkpt lat="43.61286" lon="3.42394">
        <ele>269.5</ele>
        <time>2016-02-21T14:27:11Z</time>
      </trkpt>
      <trkpt lat="43.61283" lon="3.42397">
        <ele>268.5</ele>
        <time>2016-02-21T14:27:12Z</time>
      </trkpt>
      <trkpt lat="43.6128" lon="3.42401">
        <ele>267</ele>
        <time>2016-02-21T14:27:13Z</time>
      </trkpt>
      <trkpt lat="43.61279" lon="3.42408">
        <ele>267</ele>
        <time>2016-02-21T14:27:14Z</time>
      </trkpt>
      <trkpt lat="43.61277" lon="3.42414">
        <ele>266</ele>
        <time>2016-02-21T14:27:15Z</time>
      </trkpt>
      <trkpt lat="43.61274" lon="3.4242">
        <ele>264.5</ele>
        <time>2016-02-21T14:27:16Z</time>
      </trkpt>
      <trkpt lat="43.61271" lon="3.42426">
        <ele>263.5</ele>
        <time>2016-02-21T14:27:17Z</time>
      </trkpt>
      <trkpt lat="43.61269" lon="3.42431">
        <ele>262.5</ele>
        <time>2016-02-21T14:27:18Z</time>
      </trkpt>
      <trkpt lat="43.61268" lon="3.42435">
        <ele>261</ele>
        <time>2016-02-21T14:27:19Z</time>
      </trkpt>
      <trkpt lat="43.61266" lon="3.42439">
        <ele>261</ele>
        <time>2016-02-21T14:27:20Z</time>
      </trkpt>
      <trkpt lat="43.61264" lon="3.42443">
        <ele>260</ele>
        <time>2016-02-21T14:27:21Z</time>
      </trkpt>
      <trkpt lat="43.61264" lon="3.42447">
        <ele>259</ele>
        <time>2016-02-21T14:27:22Z</time>
      </trkpt>
      <trkpt lat="43.61264" lon="3.42451">
        <ele>258</ele>
        <time>2016-02-21T14:27:23Z</time>
      </trkpt>
      <trkpt lat="43.61263" lon="3.42455">
        <ele>257.5</ele>
        <time>2016-02-21T14:27:24Z</time>
      </trkpt>
      <trkpt lat="43.61262" lon="3.4246">
        <ele>257.5</ele>
        <time>2016-02-21T14:27:25Z</time>
      </trkpt>
      <trkpt lat="43.6126" lon="3.42465">
        <ele>258</ele>
        <time>2016-02-21T14:27:26Z</time>
      </trkpt>
      <trkpt lat="43.61257" lon="3.4247">
        <ele>258</ele>
        <time>2016-02-21T14:27:27Z</time>
      </trkpt>
      <trkpt lat="43.61255" lon="3.42475">
        <ele>258</ele>
        <time>2016-02-21T14:27:28Z</time>
      </trkpt>
      <trkpt lat="43.61253" lon="3.4248">
        <ele>257.5</ele>
        <time>2016-02-21T14:27:29Z</time>
      </trkpt>
      <trkpt lat="43.61251" lon="3.42485">
        <ele>257</ele>
        <time>2016-02-21T14:27:30Z</time>
      </trkpt>
      <trkpt lat="43.61247" lon="3.4249">
        <ele>256.5</ele>
        <time>2016-02-21T14:27:31Z</time>
      </trkpt>
      <trkpt lat="43.61244" lon="3.42495">
        <ele>256</ele>
        <time>2016-02-21T14:27:32Z</time>
      </trkpt>
      <trkpt lat="43.61241" lon="3.425">
        <ele>255</ele>
        <time>2016-02-21T14:27:33Z</time>
      </trkpt>
      <trkpt lat="43.61236" lon="3.42506">
        <ele>253.5</ele>
        <time>2016-02-21T14:27:34Z</time>
      </trkpt>
      <trkpt lat="43.61233" lon="3.42512">
        <ele>253.5</ele>
        <time>2016-02-21T14:27:35Z</time>
      </trkpt>
      <trkpt lat="43.6123" lon="3.42518">
        <ele>253</ele>
        <time>2016-02-21T14:27:36Z</time>
      </trkpt>
      <trkpt lat="43.61227" lon="3.42524">
        <ele>252.5</ele>
        <time>2016-02-21T14:27:37Z</time>
      </trkpt>
      <trkpt lat="43.61223" lon="3.4253">
        <ele>252.5</ele>
        <time>2016-02-21T14:27:38Z</time>
      </trkpt>
      <trkpt lat="43.61218" lon="3.42536">
        <ele>251.5</ele>
        <time>2016-02-21T14:27:39Z</time>
      </trkpt>
      <trkpt lat="43.61215" lon="3.42543">
        <ele>251</ele>
        <time>2016-02-21T14:27:40Z</time>
      </trkpt>
      <trkpt lat="43.6121" lon="3.42551">
        <ele>250</ele>
        <time>2016-02-21T14:27:41Z</time>
      </trkpt>
      <trkpt lat="43.61206" lon="3.42557">
        <ele>251.5</ele>
        <time>2016-02-21T14:27:42Z</time>
      </trkpt>
      <trkpt lat="43.61192" lon="3.42567">
        <ele>248.5</ele>
        <time>2016-02-21T14:27:44Z</time>
      </trkpt>
      <trkpt lat="43.61186" lon="3.42573">
        <ele>248</ele>
        <time>2016-02-21T14:27:45Z</time>
      </trkpt>
      <trkpt lat="43.61181" lon="3.42578">
        <ele>247.5</ele>
        <time>2016-02-21T14:27:46Z</time>
      </trkpt>
      <trkpt lat="43.61178" lon="3.42583">
        <ele>246.5</ele>
        <time>2016-02-21T14:27:47Z</time>
      </trkpt>
      <trkpt lat="43.61176" lon="3.42588">
        <ele>246</ele>
        <time>2016-02-21T14:27:48Z</time>
      </trkpt>
      <trkpt lat="43.61176" lon="3.42593">
        <ele>244</ele>
        <time>2016-02-21T14:27:49Z</time>
      </trkpt>
      <trkpt lat="43.61177" lon="3.42597">
        <ele>244</ele>
        <time>2016-02-21T14:27:50Z</time>
      </trkpt>
      <trkpt lat="43.61178" lon="3.42602">
        <ele>243.5</ele>
        <time>2016-02-21T14:27:51Z</time>
      </trkpt>
      <trkpt lat="43.61179" lon="3.42606">
        <ele>243</ele>
        <time>2016-02-21T14:27:52Z</time>
      </trkpt>
      <trkpt lat="43.6118" lon="3.42611">
        <ele>242.5</ele>
        <time>2016-02-21T14:27:53Z</time>
      </trkpt>
      <trkpt lat="43.61181" lon="3.42616">
        <ele>242</ele>
        <time>2016-02-21T14:27:54Z</time>
      </trkpt>
      <trkpt lat="43.6118" lon="3.42622">
        <ele>242</ele>
        <time>2016-02-21T14:27:55Z</time>
      </trkpt>
      <trkpt lat="43.61179" lon="3.42626">
        <ele>242</ele>
        <time>2016-02-21T14:27:56Z</time>
      </trkpt>
      <trkpt lat="43.61175" lon="3.42628">
        <ele>241.5</ele>
        <time>2016-02-21T14:27:57Z</time>
      </trkpt>
      <trkpt lat="43.61171" lon="3.4263">
        <ele>241</ele>
        <time>2016-02-21T14:27:58Z</time>
      </trkpt>
      <trkpt lat="43.61169" lon="3.42632">
        <ele>241</ele>
        <time>2016-02-21T14:27:59Z</time>
      </trkpt>
      <trkpt lat="43.61167" lon="3.42635">
        <ele>241.5</ele>
        <time>2016-02-21T14:28:00Z</time>
      </trkpt>
      <trkpt lat="43.61165" lon="3.42638">
        <ele>242</ele>
        <time>2016-02-21T14:28:01Z</time>
      </trkpt>
      <trkpt lat="43.61163" lon="3.4264">
        <ele>242.5</ele>
        <time>2016-02-21T14:28:02Z</time>
      </trkpt>
      <trkpt lat="43.61162" lon="3.42642">
        <ele>242.5</ele>
        <time>2016-02-21T14:28:03Z</time>
      </trkpt>
      <trkpt lat="43.6116" lon="3.42645">
        <ele>242</ele>
        <time>2016-02-21T14:28:04Z</time>
      </trkpt>
      <trkpt lat="43.61158" lon="3.42648">
        <ele>242</ele>
        <time>2016-02-21T14:28:05Z</time>
      </trkpt>
      <trkpt lat="43.61156" lon="3.42651">
        <ele>242</ele>
        <time>2016-02-21T14:28:06Z</time>
      </trkpt>
      <trkpt lat="43.61154" lon="3.42654">
        <ele>241.5</ele>
        <time>2016-02-21T14:28:07Z</time>
      </trkpt>
      <trkpt lat="43.61153" lon="3.42657">
        <ele>242</ele>
        <time>2016-02-21T14:28:08Z</time>
      </trkpt>
      <trkpt lat="43.61149" lon="3.42656">
        <ele>242</ele>
        <time>2016-02-21T14:28:09Z</time>
      </trkpt>
      <trkpt lat="43.61147" lon="3.42656">
        <ele>242</ele>
        <time>2016-02-21T14:28:10Z</time>
      </trkpt>
      <trkpt lat="43.61146" lon="3.42655">
        <ele>241.5</ele>
        <time>2016-02-21T14:28:11Z</time>
      </trkpt>
      <trkpt lat="43.61144" lon="3.42655">
        <ele>241.5</ele>
        <time>2016-02-21T14:28:12Z</time>
      </trkpt>
      <trkpt lat="43.61142" lon="3.42655">
        <ele>241.5</ele>
        <time>2016-02-21T14:28:13Z</time>
      </trkpt>
      <trkpt lat="43.6114" lon="3.42655">
        <ele>241.5</ele>
        <time>2016-02-21T14:28:14Z</time>
      </trkpt>
      <trkpt lat="43.61138" lon="3.42656">
        <ele>241.5</ele>
        <time>2016-02-21T14:28:15Z</time>
      </trkpt>
      <trkpt lat="43.61136" lon="3.42657">
        <ele>241</ele>
        <time>2016-02-21T14:28:16Z</time>
      </trkpt>
      <trkpt lat="43.61133" lon="3.42658">
        <ele>241</ele>
        <time>2016-02-21T14:28:17Z</time>
      </trkpt>
      <trkpt lat="43.6113" lon="3.4266">
        <ele>241.5</ele>
        <time>2016-02-21T14:28:18Z</time>
      </trkpt>
      <trkpt lat="43.61128" lon="3.42662">
        <ele>241.5</ele>
        <time>2016-02-21T14:28:19Z</time>
      </trkpt>
      <trkpt lat="43.61126" lon="3.42663">
        <ele>242</ele>
        <time>2016-02-21T14:28:20Z</time>
      </trkpt>
      <trkpt lat="43.61123" lon="3.42665">
        <ele>242</ele>
        <time>2016-02-21T14:28:21Z</time>
      </trkpt>
      <trkpt lat="43.61121" lon="3.42667">
        <ele>241.5</ele>
        <time>2016-02-21T14:28:22Z</time>
      </trkpt>
      <trkpt lat="43.6112" lon="3.42669">
        <ele>242</ele>
        <time>2016-02-21T14:28:23Z</time>
      </trkpt>
      <trkpt lat="43.61118" lon="3.42671">
        <ele>242</ele>
        <time>2016-02-21T14:28:24Z</time>
      </trkpt>
      <trkpt lat="43.61116" lon="3.42673">
        <ele>242.5</ele>
        <time>2016-02-21T14:28:25Z</time>
      </trkpt>
      <trkpt lat="43.61114" lon="3.42676">
        <ele>242.5</ele>
        <time>2016-02-21T14:28:26Z</time>
      </trkpt>
      <trkpt lat="43.61112" lon="3.42678">
        <ele>243</ele>
        <time>2016-02-21T14:28:27Z</time>
      </trkpt>
      <trkpt lat="43.61111" lon="3.42679">
        <ele>242.5</ele>
        <time>2016-02-21T14:28:28Z</time>
      </trkpt>
      <trkpt lat="43.61109" lon="3.42682">
        <ele>243</ele>
        <time>2016-02-21T14:28:29Z</time>
      </trkpt>
      <trkpt lat="43.61108" lon="3.42685">
        <ele>243</ele>
        <time>2016-02-21T14:28:30Z</time>
      </trkpt>
      <trkpt lat="43.61106" lon="3.42687">
        <ele>243.5</ele>
        <time>2016-02-21T14:28:31Z</time>
      </trkpt>
      <trkpt lat="43.61105" lon="3.4269">
        <ele>244.5</ele>
        <time>2016-02-21T14:28:33Z</time>
      </trkpt>
      <trkpt lat="43.61103" lon="3.42692">
        <ele>245</ele>
        <time>2016-02-21T14:28:34Z</time>
      </trkpt>
      <trkpt lat="43.61102" lon="3.42695">
        <ele>245.5</ele>
        <time>2016-02-21T14:28:35Z</time>
      </trkpt>
      <trkpt lat="43.61101" lon="3.42697">
        <ele>245.5</ele>
        <time>2016-02-21T14:28:36Z</time>
      </trkpt>
      <trkpt lat="43.61101" lon="3.42699">
        <ele>246</ele>
        <time>2016-02-21T14:28:37Z</time>
      </trkpt>
      <trkpt lat="43.611" lon="3.427">
        <ele>246</ele>
        <time>2016-02-21T14:28:38Z</time>
      </trkpt>
      <trkpt lat="43.61098" lon="3.42702">
        <ele>245.5</ele>
        <time>2016-02-21T14:28:39Z</time>
      </trkpt>
      <trkpt lat="43.61096" lon="3.42704">
        <ele>246</ele>
        <time>2016-02-21T14:28:40Z</time>
      </trkpt>
      <trkpt lat="43.61094" lon="3.42706">
        <ele>246</ele>
        <time>2016-02-21T14:28:41Z</time>
      </trkpt>
      <trkpt lat="43.61093" lon="3.42708">
        <ele>246.5</ele>
        <time>2016-02-21T14:28:42Z</time>
      </trkpt>
      <trkpt lat="43.61091" lon="3.42709">
        <ele>246.5</ele>
        <time>2016-02-21T14:28:43Z</time>
      </trkpt>
      <trkpt lat="43.61089" lon="3.42711">
        <ele>246.5</ele>
        <time>2016-02-21T14:28:44Z</time>
      </trkpt>
      <trkpt lat="43.61088" lon="3.42713">
        <ele>246.5</ele>
        <time>2016-02-21T14:28:45Z</time>
      </trkpt>
      <trkpt lat="43.61086" lon="3.42714">
        <ele>246.5</ele>
        <time>2016-02-21T14:28:46Z</time>
      </trkpt>
      <trkpt lat="43.61084" lon="3.42714">
        <ele>246</ele>
        <time>2016-02-21T14:28:47Z</time>
      </trkpt>
      <trkpt lat="43.61083" lon="3.42716">
        <ele>245.5</ele>
        <time>2016-02-21T14:28:48Z</time>
      </trkpt>
      <trkpt lat="43.61083" lon="3.42719">
        <ele>245.5</ele>
        <time>2016-02-21T14:28:49Z</time>
      </trkpt>
      <trkpt lat="43.61081" lon="3.42722">
        <ele>246</ele>
        <time>2016-02-21T14:28:50Z</time>
      </trkpt>
      <trkpt lat="43.61079" lon="3.42724">
        <ele>246</ele>
        <time>2016-02-21T14:28:51Z</time>
      </trkpt>
      <trkpt lat="43.61078" lon="3.42727">
        <ele>246.5</ele>
        <time>2016-02-21T14:28:52Z</time>
      </trkpt>
      <trkpt lat="43.61077" lon="3.4273">
        <ele>246.5</ele>
        <time>2016-02-21T14:28:53Z</time>
      </trkpt>
      <trkpt lat="43.61076" lon="3.42733">
        <ele>246.5</ele>
        <time>2016-02-21T14:28:54Z</time>
      </trkpt>
      <trkpt lat="43.61075" lon="3.42736">
        <ele>246.5</ele>
        <time>2016-02-21T14:28:55Z</time>
      </trkpt>
      <trkpt lat="43.61075" lon="3.42738">
        <ele>246.5</ele>
        <time>2016-02-21T14:28:56Z</time>
      </trkpt>
      <trkpt lat="43.61074" lon="3.42741">
        <ele>247</ele>
        <time>2016-02-21T14:28:57Z</time>
      </trkpt>
      <trkpt lat="43.61072" lon="3.42744">
        <ele>246.5</ele>
        <time>2016-02-21T14:28:58Z</time>
      </trkpt>
      <trkpt lat="43.61071" lon="3.42746">
        <ele>247</ele>
        <time>2016-02-21T14:28:59Z</time>
      </trkpt>
      <trkpt lat="43.6107" lon="3.42748">
        <ele>247</ele>
        <time>2016-02-21T14:29:00Z</time>
      </trkpt>
      <trkpt lat="43.61069" lon="3.42751">
        <ele>246.5</ele>
        <time>2016-02-21T14:29:01Z</time>
      </trkpt>
      <trkpt lat="43.61067" lon="3.42753">
        <ele>246</ele>
        <time>2016-02-21T14:29:02Z</time>
      </trkpt>
      <trkpt lat="43.61065" lon="3.42756">
        <ele>245.5</ele>
        <time>2016-02-21T14:29:03Z</time>
      </trkpt>
      <trkpt lat="43.61063" lon="3.42759">
        <ele>245</ele>
        <time>2016-02-21T14:29:04Z</time>
      </trkpt>
      <trkpt lat="43.61062" lon="3.42762">
        <ele>245</ele>
        <time>2016-02-21T14:29:05Z</time>
      </trkpt>
      <trkpt lat="43.6106" lon="3.42764">
        <ele>245.5</ele>
        <time>2016-02-21T14:29:06Z</time>
      </trkpt>
      <trkpt lat="43.61058" lon="3.42767">
        <ele>245</ele>
        <time>2016-02-21T14:29:07Z</time>
      </trkpt>
      <trkpt lat="43.61056" lon="3.42769">
        <ele>245.5</ele>
        <time>2016-02-21T14:29:08Z</time>
      </trkpt>
      <trkpt lat="43.61054" lon="3.42772">
        <ele>245.5</ele>
        <time>2016-02-21T14:29:09Z</time>
      </trkpt>
      <trkpt lat="43.61052" lon="3.42774">
        <ele>245.5</ele>
        <time>2016-02-21T14:29:10Z</time>
      </trkpt>
      <trkpt lat="43.6105" lon="3.42777">
        <ele>246</ele>
        <time>2016-02-21T14:29:11Z</time>
      </trkpt>
      <trkpt lat="43.61049" lon="3.42779">
        <ele>246.5</ele>
        <time>2016-02-21T14:29:12Z</time>
      </trkpt>
      <trkpt lat="43.61047" lon="3.42782">
        <ele>246.5</ele>
        <time>2016-02-21T14:29:13Z</time>
      </trkpt>
      <trkpt lat="43.61045" lon="3.42784">
        <ele>246.5</ele>
        <time>2016-02-21T14:29:14Z</time>
      </trkpt>
      <trkpt lat="43.61043" lon="3.42787">
        <ele>246.5</ele>
        <time>2016-02-21T14:29:15Z</time>
      </trkpt>
      <trkpt lat="43.61041" lon="3.4279">
        <ele>246.5</ele>
        <time>2016-02-21T14:29:16Z</time>
      </trkpt>
      <trkpt lat="43.6104" lon="3.42794">
        <ele>247</ele>
        <time>2016-02-21T14:29:17Z</time>
      </trkpt>
      <trkpt lat="43.61038" lon="3.42797">
        <ele>246.5</ele>
        <time>2016-02-21T14:29:18Z</time>
      </trkpt>
      <trkpt lat="43.61036" lon="3.428">
        <ele>246.5</ele>
        <time>2016-02-21T14:29:19Z</time>
      </trkpt>
      <trkpt lat="43.61036" lon="3.42804">
        <ele>247</ele>
        <time>2016-02-21T14:29:20Z</time>
      </trkpt>
      <trkpt lat="43.61034" lon="3.42807">
        <ele>247</ele>
        <time>2016-02-21T14:29:21Z</time>
      </trkpt>
      <trkpt lat="43.61033" lon="3.4281">
        <ele>247</ele>
        <time>2016-02-21T14:29:22Z</time>
      </trkpt>
      <trkpt lat="43.61031" lon="3.42814">
        <ele>247</ele>
        <time>2016-02-21T14:29:23Z</time>
      </trkpt>
      <trkpt lat="43.6103" lon="3.42817">
        <ele>247</ele>
        <time>2016-02-21T14:29:24Z</time>
      </trkpt>
      <trkpt lat="43.61027" lon="3.42821">
        <ele>246.5</ele>
        <time>2016-02-21T14:29:25Z</time>
      </trkpt>
      <trkpt lat="43.61025" lon="3.42824">
        <ele>246.5</ele>
        <time>2016-02-21T14:29:25Z</time>
      </trkpt>
      <trkpt lat="43.61022" lon="3.42828">
        <ele>246</ele>
        <time>2016-02-21T14:29:27Z</time>
      </trkpt>
      <trkpt lat="43.6102" lon="3.42831">
        <ele>245.5</ele>
        <time>2016-02-21T14:29:28Z</time>
      </trkpt>
      <trkpt lat="43.61017" lon="3.42834">
        <ele>245.5</ele>
        <time>2016-02-21T14:29:28Z</time>
      </trkpt>
      <trkpt lat="43.61015" lon="3.42837">
        <ele>245</ele>
        <time>2016-02-21T14:29:29Z</time>
      </trkpt>
      <trkpt lat="43.61013" lon="3.4284">
        <ele>245.5</ele>
        <time>2016-02-21T14:29:30Z</time>
      </trkpt>
      <trkpt lat="43.61012" lon="3.42843">
        <ele>245</ele>
        <time>2016-02-21T14:29:31Z</time>
      </trkpt>
      <trkpt lat="43.6101" lon="3.42845">
        <ele>244.5</ele>
        <time>2016-02-21T14:29:32Z</time>
      </trkpt>
      <trkpt lat="43.61007" lon="3.42849">
        <ele>244</ele>
        <time>2016-02-21T14:29:33Z</time>
      </trkpt>
      <trkpt lat="43.61005" lon="3.42852">
        <ele>243.5</ele>
        <time>2016-02-21T14:29:34Z</time>
      </trkpt>
      <trkpt lat="43.61003" lon="3.42855">
        <ele>244</ele>
        <time>2016-02-21T14:29:35Z</time>
      </trkpt>
      <trkpt lat="43.61" lon="3.42858">
        <ele>244</ele>
        <time>2016-02-21T14:29:36Z</time>
      </trkpt>
      <trkpt lat="43.60998" lon="3.4286">
        <ele>244</ele>
        <time>2016-02-21T14:29:37Z</time>
      </trkpt>
      <trkpt lat="43.60996" lon="3.42862">
        <ele>243.5</ele>
        <time>2016-02-21T14:29:39Z</time>
      </trkpt>
      <trkpt lat="43.60994" lon="3.42864">
        <ele>243.5</ele>
        <time>2016-02-21T14:29:39Z</time>
      </trkpt>
      <trkpt lat="43.60991" lon="3.42866">
        <ele>243.5</ele>
        <time>2016-02-21T14:29:40Z</time>
      </trkpt>
      <trkpt lat="43.60989" lon="3.42868">
        <ele>243</ele>
        <time>2016-02-21T14:29:41Z</time>
      </trkpt>
      <trkpt lat="43.60985" lon="3.4287">
        <ele>242.5</ele>
        <time>2016-02-21T14:29:42Z</time>
      </trkpt>
      <trkpt lat="43.60982" lon="3.42872">
        <ele>242</ele>
        <time>2016-02-21T14:29:43Z</time>
      </trkpt>
      <trkpt lat="43.60979" lon="3.42875">
        <ele>242</ele>
        <time>2016-02-21T14:29:44Z</time>
      </trkpt>
      <trkpt lat="43.60974" lon="3.42877">
        <ele>241.5</ele>
        <time>2016-02-21T14:29:46Z</time>
      </trkpt>
      <trkpt lat="43.6097" lon="3.42881">
        <ele>241</ele>
        <time>2016-02-21T14:29:46Z</time>
      </trkpt>
      <trkpt lat="43.60967" lon="3.42887">
        <ele>239.5</ele>
        <time>2016-02-21T14:29:47Z</time>
      </trkpt>
      <trkpt lat="43.60964" lon="3.42893">
        <ele>239.5</ele>
        <time>2016-02-21T14:29:48Z</time>
      </trkpt>
      <trkpt lat="43.60963" lon="3.42898">
        <ele>239.5</ele>
        <time>2016-02-21T14:29:49Z</time>
      </trkpt>
      <trkpt lat="43.60961" lon="3.42902">
        <ele>239.5</ele>
        <time>2016-02-21T14:29:50Z</time>
      </trkpt>
      <trkpt lat="43.60958" lon="3.42904">
        <ele>240.5</ele>
        <time>2016-02-21T14:29:51Z</time>
      </trkpt>
      <trkpt lat="43.60955" lon="3.42904">
        <ele>239.5</ele>
        <time>2016-02-21T14:29:52Z</time>
      </trkpt>
      <trkpt lat="43.60952" lon="3.42906">
        <ele>239</ele>
        <time>2016-02-21T14:29:53Z</time>
      </trkpt>
      <trkpt lat="43.60947" lon="3.42908">
        <ele>239</ele>
        <time>2016-02-21T14:29:55Z</time>
      </trkpt>
      <trkpt lat="43.60937" lon="3.42916">
        <ele>239</ele>
        <time>2016-02-21T14:29:56Z</time>
      </trkpt>
      <trkpt lat="43.60932" lon="3.4292">
        <ele>238.5</ele>
        <time>2016-02-21T14:29:58Z</time>
      </trkpt>
      <trkpt lat="43.60929" lon="3.42924">
        <ele>236.5</ele>
        <time>2016-02-21T14:29:58Z</time>
      </trkpt>
      <trkpt lat="43.60925" lon="3.42929">
        <ele>235.5</ele>
        <time>2016-02-21T14:29:59Z</time>
      </trkpt>
      <trkpt lat="43.60922" lon="3.42933">
        <ele>235</ele>
        <time>2016-02-21T14:30:00Z</time>
      </trkpt>
      <trkpt lat="43.60919" lon="3.42937">
        <ele>235.5</ele>
        <time>2016-02-21T14:30:01Z</time>
      </trkpt>
      <trkpt lat="43.60916" lon="3.4294">
        <ele>235</ele>
        <time>2016-02-21T14:30:02Z</time>
      </trkpt>
      <trkpt lat="43.60912" lon="3.42944">
        <ele>234</ele>
        <time>2016-02-21T14:30:03Z</time>
      </trkpt>
      <trkpt lat="43.60908" lon="3.42947">
        <ele>233</ele>
        <time>2016-02-21T14:30:04Z</time>
      </trkpt>
      <trkpt lat="43.60904" lon="3.42949">
        <ele>232</ele>
        <time>2016-02-21T14:30:05Z</time>
      </trkpt>
      <trkpt lat="43.609" lon="3.42952">
        <ele>231</ele>
        <time>2016-02-21T14:30:06Z</time>
      </trkpt>
      <trkpt lat="43.60898" lon="3.42955">
        <ele>231</ele>
        <time>2016-02-21T14:30:07Z</time>
      </trkpt>
      <trkpt lat="43.60895" lon="3.42958">
        <ele>230.5</ele>
        <time>2016-02-21T14:30:08Z</time>
      </trkpt>
      <trkpt lat="43.60892" lon="3.42961">
        <ele>230</ele>
        <time>2016-02-21T14:30:09Z</time>
      </trkpt>
      <trkpt lat="43.60888" lon="3.42961">
        <ele>228.5</ele>
        <time>2016-02-21T14:30:10Z</time>
      </trkpt>
      <trkpt lat="43.60885" lon="3.42963">
        <ele>228</ele>
        <time>2016-02-21T14:30:11Z</time>
      </trkpt>
      <trkpt lat="43.60882" lon="3.42963">
        <ele>227.5</ele>
        <time>2016-02-21T14:30:12Z</time>
      </trkpt>
      <trkpt lat="43.60879" lon="3.42963">
        <ele>227</ele>
        <time>2016-02-21T14:30:13Z</time>
      </trkpt>
      <trkpt lat="43.60875" lon="3.42963">
        <ele>226</ele>
        <time>2016-02-21T14:30:14Z</time>
      </trkpt>
      <trkpt lat="43.60871" lon="3.42963">
        <ele>225</ele>
        <time>2016-02-21T14:30:15Z</time>
      </trkpt>
      <trkpt lat="43.60869" lon="3.42966">
        <ele>224.5</ele>
        <time>2016-02-21T14:30:16Z</time>
      </trkpt>
      <trkpt lat="43.60865" lon="3.42968">
        <ele>223.5</ele>
        <time>2016-02-21T14:30:17Z</time>
      </trkpt>
      <trkpt lat="43.60861" lon="3.4297">
        <ele>222.5</ele>
        <time>2016-02-21T14:30:18Z</time>
      </trkpt>
      <trkpt lat="43.60856" lon="3.42971">
        <ele>222.5</ele>
        <time>2016-02-21T14:30:19Z</time>
      </trkpt>
      <trkpt lat="43.60852" lon="3.42972">
        <ele>222</ele>
        <time>2016-02-21T14:30:20Z</time>
      </trkpt>
      <trkpt lat="43.60849" lon="3.42973">
        <ele>221</ele>
        <time>2016-02-21T14:30:21Z</time>
      </trkpt>
      <trkpt lat="43.60845" lon="3.42974">
        <ele>221</ele>
        <time>2016-02-21T14:30:22Z</time>
      </trkpt>
      <trkpt lat="43.60843" lon="3.42974">
        <ele>220</ele>
        <time>2016-02-21T14:30:23Z</time>
      </trkpt>
      <trkpt lat="43.6084" lon="3.42973">
        <ele>219.5</ele>
        <time>2016-02-21T14:30:24Z</time>
      </trkpt>
      <trkpt lat="43.60837" lon="3.42973">
        <ele>219</ele>
        <time>2016-02-21T14:30:25Z</time>
      </trkpt>
      <trkpt lat="43.60834" lon="3.42972">
        <ele>218.5</ele>
        <time>2016-02-21T14:30:26Z</time>
      </trkpt>
      <trkpt lat="43.60831" lon="3.42971">
        <ele>217.5</ele>
        <time>2016-02-21T14:30:27Z</time>
      </trkpt>
      <trkpt lat="43.60828" lon="3.4297">
        <ele>216.5</ele>
        <time>2016-02-21T14:30:28Z</time>
      </trkpt>
      <trkpt lat="43.60825" lon="3.4297">
        <ele>216</ele>
        <time>2016-02-21T14:30:29Z</time>
      </trkpt>
      <trkpt lat="43.60822" lon="3.4297">
        <ele>215</ele>
        <time>2016-02-21T14:30:30Z</time>
      </trkpt>
      <trkpt lat="43.60819" lon="3.42969">
        <ele>214.5</ele>
        <time>2016-02-21T14:30:31Z</time>
      </trkpt>
      <trkpt lat="43.60816" lon="3.42967">
        <ele>213.5</ele>
        <time>2016-02-21T14:30:32Z</time>
      </trkpt>
      <trkpt lat="43.60815" lon="3.42964">
        <ele>213</ele>
        <time>2016-02-21T14:30:33Z</time>
      </trkpt>
      <trkpt lat="43.60814" lon="3.42961">
        <ele>212.5</ele>
        <time>2016-02-21T14:30:34Z</time>
      </trkpt>
      <trkpt lat="43.60813" lon="3.42958">
        <ele>212.5</ele>
        <time>2016-02-21T14:30:35Z</time>
      </trkpt>
      <trkpt lat="43.60811" lon="3.42956">
        <ele>212</ele>
        <time>2016-02-21T14:30:36Z</time>
      </trkpt>
      <trkpt lat="43.6081" lon="3.42953">
        <ele>211</ele>
        <time>2016-02-21T14:30:37Z</time>
      </trkpt>
      <trkpt lat="43.60809" lon="3.42951">
        <ele>211</ele>
        <time>2016-02-21T14:30:38Z</time>
      </trkpt>
      <trkpt lat="43.60808" lon="3.42948">
        <ele>211</ele>
        <time>2016-02-21T14:30:39Z</time>
      </trkpt>
      <trkpt lat="43.60807" lon="3.42946">
        <ele>210.5</ele>
        <time>2016-02-21T14:30:40Z</time>
      </trkpt>
      <trkpt lat="43.60806" lon="3.42945">
        <ele>209.5</ele>
        <time>2016-02-21T14:30:42Z</time>
      </trkpt>
      <trkpt lat="43.60804" lon="3.42946">
        <ele>209</ele>
        <time>2016-02-21T14:30:42Z</time>
      </trkpt>
      <trkpt lat="43.60802" lon="3.42948">
        <ele>209.5</ele>
        <time>2016-02-21T14:30:43Z</time>
      </trkpt>
      <trkpt lat="43.60801" lon="3.42951">
        <ele>209.5</ele>
        <time>2016-02-21T14:30:44Z</time>
      </trkpt>
      <trkpt lat="43.608" lon="3.42953">
        <ele>209.5</ele>
        <time>2016-02-21T14:30:45Z</time>
      </trkpt>
      <trkpt lat="43.60799" lon="3.42955">
        <ele>210</ele>
        <time>2016-02-21T14:30:46Z</time>
      </trkpt>
      <trkpt lat="43.60798" lon="3.42958">
        <ele>209.5</ele>
        <time>2016-02-21T14:30:47Z</time>
      </trkpt>
      <trkpt lat="43.60796" lon="3.42961">
        <ele>209</ele>
        <time>2016-02-21T14:30:48Z</time>
      </trkpt>
      <trkpt lat="43.60793" lon="3.42965">
        <ele>209</ele>
        <time>2016-02-21T14:30:50Z</time>
      </trkpt>
      <trkpt lat="43.60792" lon="3.42966">
        <ele>209</ele>
        <time>2016-02-21T14:30:51Z</time>
      </trkpt>
      <trkpt lat="43.60791" lon="3.42966">
        <ele>208.5</ele>
        <time>2016-02-21T14:30:52Z</time>
      </trkpt>
      <trkpt lat="43.6079" lon="3.42966">
        <ele>208.5</ele>
        <time>2016-02-21T14:30:53Z</time>
      </trkpt>
      <trkpt lat="43.6079" lon="3.42965">
        <ele>208.5</ele>
        <time>2016-02-21T14:30:54Z</time>
      </trkpt>
      <trkpt lat="43.60788" lon="3.42964">
        <ele>208</ele>
        <time>2016-02-21T14:30:55Z</time>
      </trkpt>
      <trkpt lat="43.60787" lon="3.42963">
        <ele>208</ele>
        <time>2016-02-21T14:30:56Z</time>
      </trkpt>
      <trkpt lat="43.60786" lon="3.42962">
        <ele>207.5</ele>
        <time>2016-02-21T14:30:57Z</time>
      </trkpt>
      <trkpt lat="43.60786" lon="3.4296">
        <ele>207.5</ele>
        <time>2016-02-21T14:30:58Z</time>
      </trkpt>
      <trkpt lat="43.60785" lon="3.42958">
        <ele>206.5</ele>
        <time>2016-02-21T14:30:59Z</time>
      </trkpt>
      <trkpt lat="43.60784" lon="3.42957">
        <ele>205.5</ele>
        <time>2016-02-21T14:31:00Z</time>
      </trkpt>
      <trkpt lat="43.60783" lon="3.42957">
        <ele>206</ele>
        <time>2016-02-21T14:31:01Z</time>
      </trkpt>
      <trkpt lat="43.60782" lon="3.42957">
        <ele>205.5</ele>
        <time>2016-02-21T14:31:02Z</time>
      </trkpt>
      <trkpt lat="43.60781" lon="3.42958">
        <ele>205.5</ele>
        <time>2016-02-21T14:31:03Z</time>
      </trkpt>
      <trkpt lat="43.60778" lon="3.42959">
        <ele>207</ele>
        <time>2016-02-21T14:31:04Z</time>
      </trkpt>
      <trkpt lat="43.60776" lon="3.42959">
        <ele>207.5</ele>
        <time>2016-02-21T14:31:05Z</time>
      </trkpt>
      <trkpt lat="43.60774" lon="3.4296">
        <ele>208.5</ele>
        <time>2016-02-21T14:31:07Z</time>
      </trkpt>
      <trkpt lat="43.60772" lon="3.4296">
        <ele>208.5</ele>
        <time>2016-02-21T14:31:08Z</time>
      </trkpt>
      <trkpt lat="43.60772" lon="3.42961">
        <ele>206.5</ele>
        <time>2016-02-21T14:31:09Z</time>
      </trkpt>
      <trkpt lat="43.6077" lon="3.42962">
        <ele>208</ele>
        <time>2016-02-21T14:31:10Z</time>
      </trkpt>
      <trkpt lat="43.60768" lon="3.42963">
        <ele>207</ele>
        <time>2016-02-21T14:31:11Z</time>
      </trkpt>
      <trkpt lat="43.60767" lon="3.42963">
        <ele>205.5</ele>
        <time>2016-02-21T14:31:12Z</time>
      </trkpt>
      <trkpt lat="43.60765" lon="3.42962">
        <ele>206.5</ele>
        <time>2016-02-21T14:31:13Z</time>
      </trkpt>
      <trkpt lat="43.60767" lon="3.42963">
        <ele>206.5</ele>
        <time>2016-02-21T14:31:14Z</time>
      </trkpt>
      <trkpt lat="43.60765" lon="3.42962">
        <ele>207.5</ele>
        <time>2016-02-21T14:31:15Z</time>
      </trkpt>
      <trkpt lat="43.60764" lon="3.42961">
        <ele>205</ele>
        <time>2016-02-21T14:31:16Z</time>
      </trkpt>
      <trkpt lat="43.60758" lon="3.42956">
        <ele>202.5</ele>
        <time>2016-02-21T14:31:18Z</time>
      </trkpt>
      <trkpt lat="43.60756" lon="3.42953">
        <ele>201</ele>
        <time>2016-02-21T14:31:19Z</time>
      </trkpt>
      <trkpt lat="43.60755" lon="3.42952">
        <ele>200</ele>
        <time>2016-02-21T14:31:20Z</time>
      </trkpt>
      <trkpt lat="43.60752" lon="3.42952">
        <ele>200</ele>
        <time>2016-02-21T14:31:21Z</time>
      </trkpt>
      <trkpt lat="43.60752" lon="3.42953">
        <ele>199.5</ele>
        <time>2016-02-21T14:31:22Z</time>
      </trkpt>
      <trkpt lat="43.6075" lon="3.42954">
        <ele>198.5</ele>
        <time>2016-02-21T14:31:23Z</time>
      </trkpt>
      <trkpt lat="43.60747" lon="3.42959">
        <ele>196.5</ele>
        <time>2016-02-21T14:31:25Z</time>
      </trkpt>
      <trkpt lat="43.60745" lon="3.42962">
        <ele>196</ele>
        <time>2016-02-21T14:31:26Z</time>
      </trkpt>
      <trkpt lat="43.60744" lon="3.42965">
        <ele>195.5</ele>
        <time>2016-02-21T14:31:27Z</time>
      </trkpt>
      <trkpt lat="43.60742" lon="3.42967">
        <ele>194</ele>
        <time>2016-02-21T14:31:28Z</time>
      </trkpt>
      <trkpt lat="43.6074" lon="3.4297">
        <ele>193.5</ele>
        <time>2016-02-21T14:31:29Z</time>
      </trkpt>
      <trkpt lat="43.60739" lon="3.42973">
        <ele>193</ele>
        <time>2016-02-21T14:31:30Z</time>
      </trkpt>
      <trkpt lat="43.60738" lon="3.42975">
        <ele>193</ele>
        <time>2016-02-21T14:31:31Z</time>
      </trkpt>
      <trkpt lat="43.60737" lon="3.42977">
        <ele>192</ele>
        <time>2016-02-21T14:31:32Z</time>
      </trkpt>
      <trkpt lat="43.60737" lon="3.4298">
        <ele>191</ele>
        <time>2016-02-21T14:31:33Z</time>
      </trkpt>
      <trkpt lat="43.60736" lon="3.42983">
        <ele>190.5</ele>
        <time>2016-02-21T14:31:34Z</time>
      </trkpt>
      <trkpt lat="43.60736" lon="3.42987">
        <ele>190</ele>
        <time>2016-02-21T14:31:35Z</time>
      </trkpt>
      <trkpt lat="43.60736" lon="3.42992">
        <ele>190</ele>
        <time>2016-02-21T14:31:36Z</time>
      </trkpt>
      <trkpt lat="43.60738" lon="3.42997">
        <ele>190</ele>
        <time>2016-02-21T14:31:37Z</time>
      </trkpt>
      <trkpt lat="43.6074" lon="3.43001">
        <ele>190</ele>
        <time>2016-02-21T14:31:38Z</time>
      </trkpt>
      <trkpt lat="43.60741" lon="3.43003">
        <ele>190</ele>
        <time>2016-02-21T14:31:39Z</time>
      </trkpt>
      <trkpt lat="43.60741" lon="3.43007">
        <ele>190</ele>
        <time>2016-02-21T14:31:40Z</time>
      </trkpt>
      <trkpt lat="43.60742" lon="3.43011">
        <ele>191</ele>
        <time>2016-02-21T14:31:41Z</time>
      </trkpt>
      <trkpt lat="43.60742" lon="3.43016">
        <ele>190.5</ele>
        <time>2016-02-21T14:31:42Z</time>
      </trkpt>
      <trkpt lat="43.60743" lon="3.43021">
        <ele>190.5</ele>
        <time>2016-02-21T14:31:43Z</time>
      </trkpt>
      <trkpt lat="43.60744" lon="3.43027">
        <ele>190</ele>
        <time>2016-02-21T14:31:44Z</time>
      </trkpt>
      <trkpt lat="43.60749" lon="3.43041">
        <ele>189</ele>
        <time>2016-02-21T14:31:46Z</time>
      </trkpt>
      <trkpt lat="43.60748" lon="3.43048">
        <ele>189</ele>
        <time>2016-02-21T14:31:47Z</time>
      </trkpt>
      <trkpt lat="43.60749" lon="3.43054">
        <ele>189</ele>
        <time>2016-02-21T14:31:48Z</time>
      </trkpt>
      <trkpt lat="43.60749" lon="3.4306">
        <ele>189</ele>
        <time>2016-02-21T14:31:49Z</time>
      </trkpt>
      <trkpt lat="43.60748" lon="3.43065">
        <ele>188</ele>
        <time>2016-02-21T14:31:50Z</time>
      </trkpt>
      <trkpt lat="43.60748" lon="3.43071">
        <ele>189</ele>
        <time>2016-02-21T14:31:51Z</time>
      </trkpt>
      <trkpt lat="43.6075" lon="3.43076">
        <ele>189</ele>
        <time>2016-02-21T14:31:52Z</time>
      </trkpt>
      <trkpt lat="43.60753" lon="3.43079">
        <ele>188.5</ele>
        <time>2016-02-21T14:31:53Z</time>
      </trkpt>
      <trkpt lat="43.60755" lon="3.43082">
        <ele>189</ele>
        <time>2016-02-21T14:31:54Z</time>
      </trkpt>
      <trkpt lat="43.60756" lon="3.43085">
        <ele>189.5</ele>
        <time>2016-02-21T14:31:55Z</time>
      </trkpt>
      <trkpt lat="43.60759" lon="3.43088">
        <ele>190</ele>
        <time>2016-02-21T14:31:56Z</time>
      </trkpt>
      <trkpt lat="43.60761" lon="3.4309">
        <ele>190.5</ele>
        <time>2016-02-21T14:31:57Z</time>
      </trkpt>
      <trkpt lat="43.60763" lon="3.4309">
        <ele>191</ele>
        <time>2016-02-21T14:31:58Z</time>
      </trkpt>
      <trkpt lat="43.60763" lon="3.43091">
        <ele>192.5</ele>
        <time>2016-02-21T14:31:59Z</time>
      </trkpt>
      <trkpt lat="43.60764" lon="3.43093">
        <ele>194</ele>
        <time>2016-02-21T14:32:00Z</time>
      </trkpt>
      <trkpt lat="43.60765" lon="3.43094">
        <ele>193.5</ele>
        <time>2016-02-21T14:32:01Z</time>
      </trkpt>
      <trkpt lat="43.60767" lon="3.43096">
        <ele>195</ele>
        <time>2016-02-21T14:32:02Z</time>
      </trkpt>
      <trkpt lat="43.60767" lon="3.43098">
        <ele>194.5</ele>
        <time>2016-02-21T14:32:03Z</time>
      </trkpt>
      <trkpt lat="43.6077" lon="3.43099">
        <ele>193.5</ele>
        <time>2016-02-21T14:32:04Z</time>
      </trkpt>
      <trkpt lat="43.60771" lon="3.43101">
        <ele>194</ele>
        <time>2016-02-21T14:32:05Z</time>
      </trkpt>
      <trkpt lat="43.60773" lon="3.43103">
        <ele>195</ele>
        <time>2016-02-21T14:32:06Z</time>
      </trkpt>
      <trkpt lat="43.60774" lon="3.43105">
        <ele>195</ele>
        <time>2016-02-21T14:32:07Z</time>
      </trkpt>
      <trkpt lat="43.60776" lon="3.43106">
        <ele>194.5</ele>
        <time>2016-02-21T14:32:08Z</time>
      </trkpt>
      <trkpt lat="43.60778" lon="3.43107">
        <ele>194</ele>
        <time>2016-02-21T14:32:09Z</time>
      </trkpt>
      <trkpt lat="43.60779" lon="3.43108">
        <ele>194</ele>
        <time>2016-02-21T14:32:10Z</time>
      </trkpt>
      <trkpt lat="43.60782" lon="3.43108">
        <ele>194.5</ele>
        <time>2016-02-21T14:32:11Z</time>
      </trkpt>
      <trkpt lat="43.60785" lon="3.4311">
        <ele>192.5</ele>
        <time>2016-02-21T14:32:12Z</time>
      </trkpt>
      <trkpt lat="43.60787" lon="3.43111">
        <ele>193</ele>
        <time>2016-02-21T14:32:13Z</time>
      </trkpt>
      <trkpt lat="43.60788" lon="3.43113">
        <ele>194</ele>
        <time>2016-02-21T14:32:14Z</time>
      </trkpt>
      <trkpt lat="43.6079" lon="3.43115">
        <ele>194</ele>
        <time>2016-02-21T14:32:15Z</time>
      </trkpt>
      <trkpt lat="43.60792" lon="3.43117">
        <ele>193.5</ele>
        <time>2016-02-21T14:32:16Z</time>
      </trkpt>
      <trkpt lat="43.60795" lon="3.43119">
        <ele>194</ele>
        <time>2016-02-21T14:32:17Z</time>
      </trkpt>
      <trkpt lat="43.60797" lon="3.43121">
        <ele>194</ele>
        <time>2016-02-21T14:32:18Z</time>
      </trkpt>
      <trkpt lat="43.608" lon="3.43123">
        <ele>194</ele>
        <time>2016-02-21T14:32:19Z</time>
      </trkpt>
      <trkpt lat="43.60803" lon="3.43124">
        <ele>193.5</ele>
        <time>2016-02-21T14:32:20Z</time>
      </trkpt>
      <trkpt lat="43.60805" lon="3.43125">
        <ele>192.5</ele>
        <time>2016-02-21T14:32:21Z</time>
      </trkpt>
      <trkpt lat="43.60808" lon="3.43127">
        <ele>191.5</ele>
        <time>2016-02-21T14:32:22Z</time>
      </trkpt>
      <trkpt lat="43.60809" lon="3.4313">
        <ele>192.5</ele>
        <time>2016-02-21T14:32:23Z</time>
      </trkpt>
      <trkpt lat="43.6081" lon="3.43133">
        <ele>193</ele>
        <time>2016-02-21T14:32:24Z</time>
      </trkpt>
      <trkpt lat="43.60813" lon="3.43134">
        <ele>191</ele>
        <time>2016-02-21T14:32:25Z</time>
      </trkpt>
      <trkpt lat="43.60815" lon="3.43136">
        <ele>191</ele>
        <time>2016-02-21T14:32:26Z</time>
      </trkpt>
      <trkpt lat="43.60818" lon="3.43138">
        <ele>191</ele>
        <time>2016-02-21T14:32:27Z</time>
      </trkpt>
      <trkpt lat="43.6082" lon="3.4314">
        <ele>191</ele>
        <time>2016-02-21T14:32:28Z</time>
      </trkpt>
      <trkpt lat="43.60823" lon="3.43142">
        <ele>191</ele>
        <time>2016-02-21T14:32:29Z</time>
      </trkpt>
      <trkpt lat="43.60826" lon="3.43144">
        <ele>190.5</ele>
        <time>2016-02-21T14:32:30Z</time>
      </trkpt>
      <trkpt lat="43.60829" lon="3.43146">
        <ele>190.5</ele>
        <time>2016-02-21T14:32:31Z</time>
      </trkpt>
      <trkpt lat="43.60832" lon="3.43148">
        <ele>190</ele>
        <time>2016-02-21T14:32:32Z</time>
      </trkpt>
      <trkpt lat="43.60835" lon="3.4315">
        <ele>189.5</ele>
        <time>2016-02-21T14:32:33Z</time>
      </trkpt>
      <trkpt lat="43.60838" lon="3.43151">
        <ele>189</ele>
        <time>2016-02-21T14:32:34Z</time>
      </trkpt>
      <trkpt lat="43.6084" lon="3.43152">
        <ele>189</ele>
        <time>2016-02-21T14:32:35Z</time>
      </trkpt>
      <trkpt lat="43.60843" lon="3.43154">
        <ele>189.5</ele>
        <time>2016-02-21T14:32:36Z</time>
      </trkpt>
      <trkpt lat="43.60846" lon="3.43154">
        <ele>190</ele>
        <time>2016-02-21T14:32:37Z</time>
      </trkpt>
      <trkpt lat="43.60849" lon="3.43155">
        <ele>190</ele>
        <time>2016-02-21T14:32:38Z</time>
      </trkpt>
      <trkpt lat="43.60852" lon="3.43157">
        <ele>189</ele>
        <time>2016-02-21T14:32:39Z</time>
      </trkpt>
      <trkpt lat="43.60855" lon="3.43159">
        <ele>188</ele>
        <time>2016-02-21T14:32:40Z</time>
      </trkpt>
      <trkpt lat="43.60857" lon="3.43161">
        <ele>188.5</ele>
        <time>2016-02-21T14:32:41Z</time>
      </trkpt>
      <trkpt lat="43.6086" lon="3.43162">
        <ele>188.5</ele>
        <time>2016-02-21T14:32:42Z</time>
      </trkpt>
      <trkpt lat="43.60862" lon="3.43165">
        <ele>189</ele>
        <time>2016-02-21T14:32:43Z</time>
      </trkpt>
      <trkpt lat="43.60865" lon="3.43166">
        <ele>188.5</ele>
        <time>2016-02-21T14:32:44Z</time>
      </trkpt>
      <trkpt lat="43.60868" lon="3.43168">
        <ele>188.5</ele>
        <time>2016-02-21T14:32:45Z</time>
      </trkpt>
      <trkpt lat="43.6087" lon="3.4317">
        <ele>188</ele>
        <time>2016-02-21T14:32:46Z</time>
      </trkpt>
      <trkpt lat="43.60873" lon="3.43172">
        <ele>186.5</ele>
        <time>2016-02-21T14:32:47Z</time>
      </trkpt>
      <trkpt lat="43.60876" lon="3.43173">
        <ele>186</ele>
        <time>2016-02-21T14:32:48Z</time>
      </trkpt>
      <trkpt lat="43.60878" lon="3.43174">
        <ele>186</ele>
        <time>2016-02-21T14:32:49Z</time>
      </trkpt>
      <trkpt lat="43.6088" lon="3.43175">
        <ele>184.5</ele>
        <time>2016-02-21T14:32:50Z</time>
      </trkpt>
      <trkpt lat="43.60881" lon="3.43178">
        <ele>185.5</ele>
        <time>2016-02-21T14:32:51Z</time>
      </trkpt>
      <trkpt lat="43.60881" lon="3.43183">
        <ele>185.5</ele>
        <time>2016-02-21T14:32:52Z</time>
      </trkpt>
      <trkpt lat="43.60881" lon="3.43187">
        <ele>186</ele>
        <time>2016-02-21T14:32:53Z</time>
      </trkpt>
      <trkpt lat="43.60877" lon="3.43202">
        <ele>183</ele>
        <time>2016-02-21T14:32:55Z</time>
      </trkpt>
      <trkpt lat="43.60874" lon="3.4321">
        <ele>180.5</ele>
        <time>2016-02-21T14:32:56Z</time>
      </trkpt>
      <trkpt lat="43.60869" lon="3.43218">
        <ele>180.5</ele>
        <time>2016-02-21T14:32:57Z</time>
      </trkpt>
      <trkpt lat="43.60865" lon="3.43226">
        <ele>179.5</ele>
        <time>2016-02-21T14:32:58Z</time>
      </trkpt>
      <trkpt lat="43.60862" lon="3.43235">
        <ele>177.5</ele>
        <time>2016-02-21T14:32:59Z</time>
      </trkpt>
      <trkpt lat="43.60858" lon="3.43246">
        <ele>176</ele>
        <time>2016-02-21T14:33:00Z</time>
      </trkpt>
      <trkpt lat="43.60854" lon="3.43256">
        <ele>175</ele>
        <time>2016-02-21T14:33:01Z</time>
      </trkpt>
      <trkpt lat="43.60849" lon="3.43268">
        <ele>174</ele>
        <time>2016-02-21T14:33:02Z</time>
      </trkpt>
      <trkpt lat="43.60845" lon="3.4328">
        <ele>174</ele>
        <time>2016-02-21T14:33:03Z</time>
      </trkpt>
      <trkpt lat="43.60843" lon="3.43293">
        <ele>173</ele>
        <time>2016-02-21T14:33:04Z</time>
      </trkpt>
      <trkpt lat="43.60844" lon="3.43307">
        <ele>171.5</ele>
        <time>2016-02-21T14:33:05Z</time>
      </trkpt>
      <trkpt lat="43.60847" lon="3.4332">
        <ele>170</ele>
        <time>2016-02-21T14:33:06Z</time>
      </trkpt>
      <trkpt lat="43.6085" lon="3.43334">
        <ele>168.5</ele>
        <time>2016-02-21T14:33:07Z</time>
      </trkpt>
      <trkpt lat="43.60854" lon="3.43348">
        <ele>168</ele>
        <time>2016-02-21T14:33:08Z</time>
      </trkpt>
      <trkpt lat="43.60857" lon="3.43362">
        <ele>168</ele>
        <time>2016-02-21T14:33:09Z</time>
      </trkpt>
      <trkpt lat="43.60859" lon="3.43377">
        <ele>168.5</ele>
        <time>2016-02-21T14:33:10Z</time>
      </trkpt>
      <trkpt lat="43.6086" lon="3.43391">
        <ele>167.5</ele>
        <time>2016-02-21T14:33:11Z</time>
      </trkpt>
      <trkpt lat="43.60862" lon="3.43404">
        <ele>166.5</ele>
        <time>2016-02-21T14:33:12Z</time>
      </trkpt>
      <trkpt lat="43.60861" lon="3.43418">
        <ele>166</ele>
        <time>2016-02-21T14:33:13Z</time>
      </trkpt>
      <trkpt lat="43.60861" lon="3.43431">
        <ele>165.5</ele>
        <time>2016-02-21T14:33:14Z</time>
      </trkpt>
      <trkpt lat="43.60862" lon="3.43443">
        <ele>165</ele>
        <time>2016-02-21T14:33:15Z</time>
      </trkpt>
      <trkpt lat="43.60865" lon="3.43454">
        <ele>164.5</ele>
        <time>2016-02-21T14:33:16Z</time>
      </trkpt>
      <trkpt lat="43.60871" lon="3.43463">
        <ele>164</ele>
        <time>2016-02-21T14:33:17Z</time>
      </trkpt>
      <trkpt lat="43.60877" lon="3.43472">
        <ele>164</ele>
        <time>2016-02-21T14:33:18Z</time>
      </trkpt>
      <trkpt lat="43.60882" lon="3.43481">
        <ele>164</ele>
        <time>2016-02-21T14:33:19Z</time>
      </trkpt>
      <trkpt lat="43.60885" lon="3.43492">
        <ele>164</ele>
        <time>2016-02-21T14:33:20Z</time>
      </trkpt>
      <trkpt lat="43.60886" lon="3.43502">
        <ele>164</ele>
        <time>2016-02-21T14:33:21Z</time>
      </trkpt>
      <trkpt lat="43.60888" lon="3.43513">
        <ele>164</ele>
        <time>2016-02-21T14:33:22Z</time>
      </trkpt>
      <trkpt lat="43.60889" lon="3.43524">
        <ele>163.5</ele>
        <time>2016-02-21T14:33:23Z</time>
      </trkpt>
      <trkpt lat="43.6089" lon="3.43534">
        <ele>163.5</ele>
        <time>2016-02-21T14:33:24Z</time>
      </trkpt>
      <trkpt lat="43.60892" lon="3.43544">
        <ele>163</ele>
        <time>2016-02-21T14:33:25Z</time>
      </trkpt>
      <trkpt lat="43.60899" lon="3.4355">
        <ele>163</ele>
        <time>2016-02-21T14:33:26Z</time>
      </trkpt>
      <trkpt lat="43.60906" lon="3.43553">
        <ele>163</ele>
        <time>2016-02-21T14:33:26Z</time>
      </trkpt>
      <trkpt lat="43.60913" lon="3.43554">
        <ele>163.5</ele>
        <time>2016-02-21T14:33:28Z</time>
      </trkpt>
      <trkpt lat="43.60919" lon="3.43555">
        <ele>164.5</ele>
        <time>2016-02-21T14:33:28Z</time>
      </trkpt>
      <trkpt lat="43.60923" lon="3.43556">
        <ele>165</ele>
        <time>2016-02-21T14:33:29Z</time>
      </trkpt>
      <trkpt lat="43.60928" lon="3.43556">
        <ele>165</ele>
        <time>2016-02-21T14:33:30Z</time>
      </trkpt>
      <trkpt lat="43.60932" lon="3.43557">
        <ele>165</ele>
        <time>2016-02-21T14:33:31Z</time>
      </trkpt>
      <trkpt lat="43.60935" lon="3.43557">
        <ele>165.5</ele>
        <time>2016-02-21T14:33:32Z</time>
      </trkpt>
      <trkpt lat="43.60938" lon="3.43558">
        <ele>165.5</ele>
        <time>2016-02-21T14:33:33Z</time>
      </trkpt>
      <trkpt lat="43.6094" lon="3.43558">
        <ele>166.5</ele>
        <time>2016-02-21T14:33:34Z</time>
      </trkpt>
      <trkpt lat="43.60942" lon="3.43559">
        <ele>167.5</ele>
        <time>2016-02-21T14:33:35Z</time>
      </trkpt>
      <trkpt lat="43.60944" lon="3.43559">
        <ele>168</ele>
        <time>2016-02-21T14:33:36Z</time>
      </trkpt>
      <trkpt lat="43.60946" lon="3.43559">
        <ele>168</ele>
        <time>2016-02-21T14:33:38Z</time>
      </trkpt>
      <trkpt lat="43.60948" lon="3.43559">
        <ele>168</ele>
        <time>2016-02-21T14:33:38Z</time>
      </trkpt>
      <trkpt lat="43.60949" lon="3.4356">
        <ele>168.5</ele>
        <time>2016-02-21T14:33:39Z</time>
      </trkpt>
      <trkpt lat="43.6095" lon="3.4356">
        <ele>169</ele>
        <time>2016-02-21T14:33:40Z</time>
      </trkpt>
      <trkpt lat="43.6095" lon="3.43561">
        <ele>168.5</ele>
        <time>2016-02-21T14:33:41Z</time>
      </trkpt>
      <trkpt lat="43.6095" lon="3.43562">
        <ele>168.5</ele>
        <time>2016-02-21T14:33:42Z</time>
      </trkpt>
      <trkpt lat="43.6095" lon="3.43563">
        <ele>169</ele>
        <time>2016-02-21T14:33:43Z</time>
      </trkpt>
      <trkpt lat="43.60951" lon="3.43564">
        <ele>167.5</ele>
        <time>2016-02-21T14:33:44Z</time>
      </trkpt>
      <trkpt lat="43.60951" lon="3.43565">
        <ele>167.5</ele>
        <time>2016-02-21T14:33:45Z</time>
      </trkpt>
      <trkpt lat="43.60952" lon="3.43565">
        <ele>167.5</ele>
        <time>2016-02-21T14:33:46Z</time>
      </trkpt>
      <trkpt lat="43.60952" lon="3.43565">
        <ele>169</ele>
        <time>2016-02-21T14:33:47Z</time>
      </trkpt>
      <trkpt lat="43.60952" lon="3.43565">
        <ele>168.5</ele>
        <time>2016-02-21T14:33:54Z</time>
      </trkpt>
      <trkpt lat="43.60953" lon="3.43566">
        <ele>169</ele>
        <time>2016-02-21T14:33:56Z</time>
      </trkpt>
      <trkpt lat="43.60953" lon="3.43569">
        <ele>169.5</ele>
        <time>2016-02-21T14:34:05Z</time>
      </trkpt>
      <trkpt lat="43.60953" lon="3.43569">
        <ele>171.5</ele>
        <time>2016-02-21T14:34:07Z</time>
      </trkpt>
      <trkpt lat="43.60953" lon="3.43569">
        <ele>171.5</ele>
        <time>2016-02-21T14:34:13Z</time>
      </trkpt>
      <trkpt lat="43.60952" lon="3.43568">
        <ele>172</ele>
        <time>2016-02-21T14:34:15Z</time>
      </trkpt>
      <trkpt lat="43.60952" lon="3.43569">
        <ele>172</ele>
        <time>2016-02-21T14:34:20Z</time>
      </trkpt>
      <trkpt lat="43.60952" lon="3.43568">
        <ele>172</ele>
        <time>2016-02-21T14:34:22Z</time>
      </trkpt>
      <trkpt lat="43.60953" lon="3.43568">
        <ele>172</ele>
        <time>2016-02-21T14:34:23Z</time>
      </trkpt>
      <trkpt lat="43.60952" lon="3.43568">
        <ele>172</ele>
        <time>2016-02-21T14:34:25Z</time>
      </trkpt>
      <trkpt lat="43.60951" lon="3.43569">
        <ele>172</ele>
        <time>2016-02-21T14:34:29Z</time>
      </trkpt>
      <trkpt lat="43.6095" lon="3.43569">
        <ele>171.5</ele>
        <time>2016-02-21T14:34:39Z</time>
      </trkpt>
      <trkpt lat="43.6095" lon="3.4357">
        <ele>171</ele>
        <time>2016-02-21T14:34:41Z</time>
      </trkpt>
    </trkseg>
  </trk>
</gpx>